<?xml version='1.0' encoding='UTF-8'?><gpx version="1.1" creator="JPX - https://github.com/jenetics/jpx" xmlns="http://www.topografix.com/GPX/1/1"><trk><trkseg><trkpt lat="35.6821029" lon="10.1031267"><ele>59.00000000000001</ele><time>2026-04-25T08:09:40.901Z</time></trkpt><trkpt lat="35.6821141" lon="10.103015"><ele>59.0</ele><time>2026-04-25T08:09:45.902Z</time></trkpt><trkpt lat="35.6820765" lon="10.1029435"><ele>59.0</ele><time>2026-04-25T08:09:47.904Z</time></trkpt><trkpt lat="35.6820667" lon="10.1028277"><ele>59.0</ele><time>2026-04-25T08:09:50.897Z</time></trkpt><trkpt lat="35.6820789" lon="10.1027174"><ele>59.00000000000001</ele><time>2026-04-25T08:09:52.918Z</time></trkpt><trkpt lat="35.6820812" lon="10.1026159"><ele>59.0</ele><time>2026-04-25T08:09:54.907Z</time></trkpt><trkpt lat="35.6820987" lon="10.1024943"><ele>59.2</ele><time>2026-04-25T08:09:56.92Z</time></trkpt><trkpt lat="35.6821205" lon="10.1023506"><ele>59.400000000000006</ele><time>2026-04-25T08:09:58.917Z</time></trkpt><trkpt lat="35.6821417" lon="10.1022199"><ele>59.6</ele><time>2026-04-25T08:10:00.9Z</time></trkpt><trkpt lat="35.6821598" lon="10.1020949"><ele>59.8</ele><time>2026-04-25T08:10:02.906Z</time></trkpt><trkpt lat="35.6821676" lon="10.1019832"><ele>60.0</ele><time>2026-04-25T08:10:04.911Z</time></trkpt><trkpt lat="35.6821995" lon="10.1018784"><ele>60.0</ele><time>2026-04-25T08:10:06.905Z</time></trkpt><trkpt lat="35.682276" lon="10.1018097"><ele>60.0</ele><time>2026-04-25T08:10:08.919Z</time></trkpt><trkpt lat="35.6823821" lon="10.1018436"><ele>60.0</ele><time>2026-04-25T08:10:10.914Z</time></trkpt><trkpt lat="35.6824227" lon="10.1019054"><ele>60.0</ele><time>2026-04-25T08:10:11.896Z</time></trkpt><trkpt lat="35.6824552" lon="10.101979"><ele>60.0</ele><time>2026-04-25T08:10:12.897Z</time></trkpt><trkpt lat="35.6824847" lon="10.1020575"><ele>60.0</ele><time>2026-04-25T08:10:13.905Z</time></trkpt><trkpt lat="35.6825495" lon="10.1021682"><ele>60.0</ele><time>2026-04-25T08:10:15.899Z</time></trkpt><trkpt lat="35.682608" lon="10.1022777"><ele>60.0</ele><time>2026-04-25T08:10:17.909Z</time></trkpt><trkpt lat="35.6826645" lon="10.1023873"><ele>60.0</ele><time>2026-04-25T08:10:19.893Z</time></trkpt><trkpt lat="35.6827212" lon="10.1025049"><ele>60.0</ele><time>2026-04-25T08:10:21.895Z</time></trkpt><trkpt lat="35.6827808" lon="10.1026079"><ele>60.0</ele><time>2026-04-25T08:10:23.897Z</time></trkpt><trkpt lat="35.6828447" lon="10.1027096"><ele>59.8</ele><time>2026-04-25T08:10:25.923Z</time></trkpt><trkpt lat="35.6829027" lon="10.1028122"><ele>59.6</ele><time>2026-04-25T08:10:27.909Z</time></trkpt><trkpt lat="35.6829492" lon="10.1029082"><ele>59.400000000000006</ele><time>2026-04-25T08:10:29.897Z</time></trkpt><trkpt lat="35.6830076" lon="10.1030044"><ele>59.2</ele><time>2026-04-25T08:10:31.904Z</time></trkpt><trkpt lat="35.6830717" lon="10.1031137"><ele>59.0</ele><time>2026-04-25T08:10:33.897Z</time></trkpt><trkpt lat="35.6831286" lon="10.1032193"><ele>59.400000000000006</ele><time>2026-04-25T08:10:35.889Z</time></trkpt><trkpt lat="35.6831848" lon="10.1033326"><ele>59.800000000000004</ele><time>2026-04-25T08:10:37.91Z</time></trkpt><trkpt lat="35.6832292" lon="10.1034488"><ele>60.199999999999996</ele><time>2026-04-25T08:10:39.901Z</time></trkpt><trkpt lat="35.6832814" lon="10.1035547"><ele>60.599999999999994</ele><time>2026-04-25T08:10:41.915Z</time></trkpt><trkpt lat="35.6833291" lon="10.1036662"><ele>61.0</ele><time>2026-04-25T08:10:43.907Z</time></trkpt><trkpt lat="35.6833377" lon="10.1038037"><ele>60.99999999999999</ele><time>2026-04-25T08:10:45.912Z</time></trkpt><trkpt lat="35.6833004" lon="10.1039443"><ele>61.0</ele><time>2026-04-25T08:10:47.907Z</time></trkpt><trkpt lat="35.683269" lon="10.1040127"><ele>61.0</ele><time>2026-04-25T08:10:48.904Z</time></trkpt><trkpt lat="35.6832314" lon="10.1040797"><ele>61.0</ele><time>2026-04-25T08:10:49.893Z</time></trkpt><trkpt lat="35.6831813" lon="10.1041482"><ele>60.99999999999999</ele><time>2026-04-25T08:10:50.897Z</time></trkpt><trkpt lat="35.6831262" lon="10.1042033"><ele>61.0</ele><time>2026-04-25T08:10:51.899Z</time></trkpt><trkpt lat="35.6830608" lon="10.1042603"><ele>61.49999999999999</ele><time>2026-04-25T08:10:52.888Z</time></trkpt><trkpt lat="35.6829892" lon="10.104317"><ele>62.0</ele><time>2026-04-25T08:10:53.924Z</time></trkpt><trkpt lat="35.6829097" lon="10.1043725"><ele>62.5</ele><time>2026-04-25T08:10:54.913Z</time></trkpt><trkpt lat="35.6828348" lon="10.1044241"><ele>63.0</ele><time>2026-04-25T08:10:55.89Z</time></trkpt><trkpt lat="35.6827594" lon="10.1044833"><ele>63.49999999999999</ele><time>2026-04-25T08:10:56.897Z</time></trkpt><trkpt lat="35.6826815" lon="10.104539"><ele>64.0</ele><time>2026-04-25T08:10:57.893Z</time></trkpt><trkpt lat="35.6826053" lon="10.1045947"><ele>64.16666666666666</ele><time>2026-04-25T08:10:58.899Z</time></trkpt><trkpt lat="35.682532" lon="10.1046475"><ele>64.33333333333333</ele><time>2026-04-25T08:10:59.902Z</time></trkpt><trkpt lat="35.682459" lon="10.1047015"><ele>64.5</ele><time>2026-04-25T08:11:00.89Z</time></trkpt><trkpt lat="35.6823852" lon="10.1047568"><ele>64.66666666666667</ele><time>2026-04-25T08:11:01.887Z</time></trkpt><trkpt lat="35.682311" lon="10.104818"><ele>64.83333333333334</ele><time>2026-04-25T08:11:02.892Z</time></trkpt><trkpt lat="35.6822454" lon="10.1048843"><ele>65.0</ele><time>2026-04-25T08:11:03.904Z</time></trkpt><trkpt lat="35.6821723" lon="10.1049442"><ele>64.6</ele><time>2026-04-25T08:11:04.903Z</time></trkpt><trkpt lat="35.682095" lon="10.1050088"><ele>64.2</ele><time>2026-04-25T08:11:05.895Z</time></trkpt><trkpt lat="35.6820247" lon="10.105076"><ele>63.8</ele><time>2026-04-25T08:11:06.903Z</time></trkpt><trkpt lat="35.6819457" lon="10.1051373"><ele>63.4</ele><time>2026-04-25T08:11:07.895Z</time></trkpt><trkpt lat="35.6818722" lon="10.1052014"><ele>63.0</ele><time>2026-04-25T08:11:08.906Z</time></trkpt><trkpt lat="35.6817996" lon="10.1052646"><ele>63.0</ele><time>2026-04-25T08:11:09.901Z</time></trkpt><trkpt lat="35.6817253" lon="10.1053313"><ele>63.0</ele><time>2026-04-25T08:11:10.906Z</time></trkpt><trkpt lat="35.681652" lon="10.1053928"><ele>63.0</ele><time>2026-04-25T08:11:11.895Z</time></trkpt><trkpt lat="35.6815743" lon="10.1054586"><ele>63.0</ele><time>2026-04-25T08:11:12.884Z</time></trkpt><trkpt lat="35.6814987" lon="10.1055183"><ele>63.0</ele><time>2026-04-25T08:11:13.895Z</time></trkpt><trkpt lat="35.6814347" lon="10.1055739"><ele>63.0</ele><time>2026-04-25T08:11:14.893Z</time></trkpt><trkpt lat="35.6813777" lon="10.1056255"><ele>63.0</ele><time>2026-04-25T08:11:15.889Z</time></trkpt><trkpt lat="35.6813255" lon="10.1056716"><ele>63.0</ele><time>2026-04-25T08:11:16.904Z</time></trkpt><trkpt lat="35.681275" lon="10.105722"><ele>63.0</ele><time>2026-04-25T08:11:17.903Z</time></trkpt><trkpt lat="35.6812125" lon="10.1057753"><ele>63.0</ele><time>2026-04-25T08:11:18.892Z</time></trkpt><trkpt lat="35.6811457" lon="10.1058326"><ele>63.0</ele><time>2026-04-25T08:11:19.897Z</time></trkpt><trkpt lat="35.6810904" lon="10.1058701"><ele>63.0</ele><time>2026-04-25T08:11:20.902Z</time></trkpt><trkpt lat="35.6809703" lon="10.1058929"><ele>62.599999999999994</ele><time>2026-04-25T08:11:22.906Z</time></trkpt><trkpt lat="35.6808955" lon="10.1058846"><ele>62.199999999999996</ele><time>2026-04-25T08:11:23.909Z</time></trkpt><trkpt lat="35.6808134" lon="10.1058569"><ele>61.8</ele><time>2026-04-25T08:11:24.894Z</time></trkpt><trkpt lat="35.680729" lon="10.105812"><ele>61.4</ele><time>2026-04-25T08:11:25.909Z</time></trkpt><trkpt lat="35.6806443" lon="10.105755"><ele>61.0</ele><time>2026-04-25T08:11:26.893Z</time></trkpt><trkpt lat="35.6805509" lon="10.1057008"><ele>61.199999999999996</ele><time>2026-04-25T08:11:27.902Z</time></trkpt><trkpt lat="35.6804588" lon="10.1056514"><ele>61.39999999999999</ele><time>2026-04-25T08:11:28.909Z</time></trkpt><trkpt lat="35.6803688" lon="10.1056013"><ele>61.6</ele><time>2026-04-25T08:11:29.916Z</time></trkpt><trkpt lat="35.6802834" lon="10.1055557"><ele>61.8</ele><time>2026-04-25T08:11:30.898Z</time></trkpt><trkpt lat="35.6802016" lon="10.1055141"><ele>62.0</ele><time>2026-04-25T08:11:31.898Z</time></trkpt><trkpt lat="35.6801275" lon="10.1054729"><ele>62.00000000000001</ele><time>2026-04-25T08:11:32.893Z</time></trkpt><trkpt lat="35.680056" lon="10.1054251"><ele>62.0</ele><time>2026-04-25T08:11:33.902Z</time></trkpt><trkpt lat="35.6799844" lon="10.1053766"><ele>62.0</ele><time>2026-04-25T08:11:34.906Z</time></trkpt><trkpt lat="35.6799224" lon="10.1053362"><ele>62.0</ele><time>2026-04-25T08:11:35.908Z</time></trkpt><trkpt lat="35.6798573" lon="10.1052922"><ele>62.00000000000001</ele><time>2026-04-25T08:11:36.908Z</time></trkpt><trkpt lat="35.6797938" lon="10.1052469"><ele>62.0</ele><time>2026-04-25T08:11:37.888Z</time></trkpt><trkpt lat="35.6797289" lon="10.1051918"><ele>62.00000000000001</ele><time>2026-04-25T08:11:38.907Z</time></trkpt><trkpt lat="35.6796624" lon="10.1051378"><ele>62.0</ele><time>2026-04-25T08:11:39.915Z</time></trkpt><trkpt lat="35.6795976" lon="10.1050902"><ele>62.0</ele><time>2026-04-25T08:11:40.906Z</time></trkpt><trkpt lat="35.6795288" lon="10.1050411"><ele>62.0</ele><time>2026-04-25T08:11:41.896Z</time></trkpt><trkpt lat="35.6794631" lon="10.1049901"><ele>62.00000000000001</ele><time>2026-04-25T08:11:42.897Z</time></trkpt><trkpt lat="35.6793994" lon="10.1049456"><ele>62.0</ele><time>2026-04-25T08:11:43.906Z</time></trkpt><trkpt lat="35.6793326" lon="10.1048993"><ele>62.833333333333336</ele><time>2026-04-25T08:11:44.9Z</time></trkpt><trkpt lat="35.6792648" lon="10.1048521"><ele>63.66666666666667</ele><time>2026-04-25T08:11:45.905Z</time></trkpt><trkpt lat="35.6791965" lon="10.104802"><ele>64.5</ele><time>2026-04-25T08:11:46.907Z</time></trkpt><trkpt lat="35.6791268" lon="10.1047552"><ele>65.33333333333333</ele><time>2026-04-25T08:11:47.903Z</time></trkpt><trkpt lat="35.6790581" lon="10.1047056"><ele>66.16666666666666</ele><time>2026-04-25T08:11:48.901Z</time></trkpt><trkpt lat="35.6789859" lon="10.1046641"><ele>67.0</ele><time>2026-04-25T08:11:49.898Z</time></trkpt><trkpt lat="35.6789138" lon="10.1046202"><ele>67.0</ele><time>2026-04-25T08:11:50.92Z</time></trkpt><trkpt lat="35.6788423" lon="10.1045823"><ele>67.0</ele><time>2026-04-25T08:11:51.898Z</time></trkpt><trkpt lat="35.6787682" lon="10.1045541"><ele>67.0</ele><time>2026-04-25T08:11:52.894Z</time></trkpt><trkpt lat="35.678687" lon="10.1045295"><ele>67.0</ele><time>2026-04-25T08:11:53.9Z</time></trkpt><trkpt lat="35.678611" lon="10.1045075"><ele>67.0</ele><time>2026-04-25T08:11:54.902Z</time></trkpt><trkpt lat="35.67853" lon="10.1044877"><ele>67.0</ele><time>2026-04-25T08:11:55.896Z</time></trkpt><trkpt lat="35.6784523" lon="10.1044666"><ele>66.16666666666666</ele><time>2026-04-25T08:11:56.898Z</time></trkpt><trkpt lat="35.6783758" lon="10.104441"><ele>65.33333333333333</ele><time>2026-04-25T08:11:57.894Z</time></trkpt><trkpt lat="35.6782953" lon="10.1044103"><ele>64.5</ele><time>2026-04-25T08:11:58.897Z</time></trkpt><trkpt lat="35.678219" lon="10.1043755"><ele>63.66666666666667</ele><time>2026-04-25T08:11:59.918Z</time></trkpt><trkpt lat="35.6781411" lon="10.1043414"><ele>62.833333333333336</ele><time>2026-04-25T08:12:00.911Z</time></trkpt><trkpt lat="35.6780643" lon="10.1043072"><ele>62.0</ele><time>2026-04-25T08:12:01.898Z</time></trkpt><trkpt lat="35.6779905" lon="10.1042725"><ele>62.00000000000001</ele><time>2026-04-25T08:12:02.898Z</time></trkpt><trkpt lat="35.6779167" lon="10.1042387"><ele>62.0</ele><time>2026-04-25T08:12:03.896Z</time></trkpt><trkpt lat="35.6778463" lon="10.1041999"><ele>62.0</ele><time>2026-04-25T08:12:04.906Z</time></trkpt><trkpt lat="35.6777756" lon="10.1041685"><ele>62.0</ele><time>2026-04-25T08:12:05.898Z</time></trkpt><trkpt lat="35.6777149" lon="10.1041353"><ele>62.00000000000001</ele><time>2026-04-25T08:12:06.897Z</time></trkpt><trkpt lat="35.6776019" lon="10.1040758"><ele>62.0</ele><time>2026-04-25T08:12:08.899Z</time></trkpt><trkpt lat="35.6775336" lon="10.1040379"><ele>62.66666666666667</ele><time>2026-04-25T08:12:09.903Z</time></trkpt><trkpt lat="35.6774633" lon="10.1040032"><ele>63.333333333333336</ele><time>2026-04-25T08:12:10.88Z</time></trkpt><trkpt lat="35.6773957" lon="10.1039622"><ele>64.0</ele><time>2026-04-25T08:12:11.894Z</time></trkpt><trkpt lat="35.6773289" lon="10.1039249"><ele>64.66666666666667</ele><time>2026-04-25T08:12:12.898Z</time></trkpt><trkpt lat="35.6772595" lon="10.1038819"><ele>65.33333333333333</ele><time>2026-04-25T08:12:13.898Z</time></trkpt><trkpt lat="35.6771899" lon="10.1038403"><ele>66.0</ele><time>2026-04-25T08:12:14.903Z</time></trkpt><trkpt lat="35.6771236" lon="10.1038027"><ele>66.0</ele><time>2026-04-25T08:12:15.908Z</time></trkpt><trkpt lat="35.6770593" lon="10.1037673"><ele>66.0</ele><time>2026-04-25T08:12:16.905Z</time></trkpt><trkpt lat="35.6769958" lon="10.1037309"><ele>66.0</ele><time>2026-04-25T08:12:17.908Z</time></trkpt><trkpt lat="35.6769298" lon="10.103698"><ele>66.0</ele><time>2026-04-25T08:12:18.901Z</time></trkpt><trkpt lat="35.676853" lon="10.1036632"><ele>66.0</ele><time>2026-04-25T08:12:19.89Z</time></trkpt><trkpt lat="35.676778" lon="10.1036271"><ele>66.0</ele><time>2026-04-25T08:12:20.907Z</time></trkpt><trkpt lat="35.6767049" lon="10.1035929"><ele>65.66666666666667</ele><time>2026-04-25T08:12:21.897Z</time></trkpt><trkpt lat="35.6766348" lon="10.1035561"><ele>65.33333333333333</ele><time>2026-04-25T08:12:22.891Z</time></trkpt><trkpt lat="35.6765688" lon="10.1035234"><ele>65.0</ele><time>2026-04-25T08:12:23.901Z</time></trkpt><trkpt lat="35.6764936" lon="10.1034822"><ele>64.66666666666666</ele><time>2026-04-25T08:12:24.895Z</time></trkpt><trkpt lat="35.6764174" lon="10.1034403"><ele>64.33333333333333</ele><time>2026-04-25T08:12:25.901Z</time></trkpt><trkpt lat="35.6763485" lon="10.1033955"><ele>64.0</ele><time>2026-04-25T08:12:26.901Z</time></trkpt><trkpt lat="35.6762823" lon="10.1033524"><ele>63.99999999999999</ele><time>2026-04-25T08:12:27.887Z</time></trkpt><trkpt lat="35.6762118" lon="10.1033118"><ele>64.0</ele><time>2026-04-25T08:12:28.903Z</time></trkpt><trkpt lat="35.6761438" lon="10.1032671"><ele>64.0</ele><time>2026-04-25T08:12:29.888Z</time></trkpt><trkpt lat="35.6760825" lon="10.1032263"><ele>64.0</ele><time>2026-04-25T08:12:30.901Z</time></trkpt><trkpt lat="35.6760259" lon="10.1031898"><ele>63.99999999999999</ele><time>2026-04-25T08:12:31.906Z</time></trkpt><trkpt lat="35.6759316" lon="10.1031248"><ele>64.0</ele><time>2026-04-25T08:12:33.894Z</time></trkpt><trkpt lat="35.6758552" lon="10.1030821"><ele>63.83333333333333</ele><time>2026-04-25T08:12:36.901Z</time></trkpt><trkpt lat="35.675785" lon="10.1030303"><ele>63.666666666666664</ele><time>2026-04-25T08:12:39.901Z</time></trkpt><trkpt lat="35.6757159" lon="10.1030177"><ele>63.5</ele><time>2026-04-25T08:12:41.898Z</time></trkpt><trkpt lat="35.6756582" lon="10.1030557"><ele>63.33333333333333</ele><time>2026-04-25T08:12:43.901Z</time></trkpt><trkpt lat="35.6756348" lon="10.1031438"><ele>63.166666666666664</ele><time>2026-04-25T08:12:45.924Z</time></trkpt><trkpt lat="35.6756145" lon="10.1032691"><ele>63.0</ele><time>2026-04-25T08:12:47.902Z</time></trkpt><trkpt lat="35.6755906" lon="10.1034084"><ele>63.0</ele><time>2026-04-25T08:12:49.905Z</time></trkpt><trkpt lat="35.6755678" lon="10.103483"><ele>63.0</ele><time>2026-04-25T08:12:50.899Z</time></trkpt><trkpt lat="35.6755448" lon="10.1035639"><ele>63.0</ele><time>2026-04-25T08:12:51.902Z</time></trkpt><trkpt lat="35.6755177" lon="10.1036472"><ele>63.0</ele><time>2026-04-25T08:12:52.908Z</time></trkpt><trkpt lat="35.6754908" lon="10.1037395"><ele>63.0</ele><time>2026-04-25T08:12:53.903Z</time></trkpt><trkpt lat="35.6754651" lon="10.1038328"><ele>63.0</ele><time>2026-04-25T08:12:54.901Z</time></trkpt><trkpt lat="35.6754347" lon="10.1039365"><ele>63.0</ele><time>2026-04-25T08:12:55.897Z</time></trkpt><trkpt lat="35.6754031" lon="10.1040424"><ele>63.0</ele><time>2026-04-25T08:12:56.901Z</time></trkpt><trkpt lat="35.6753719" lon="10.1041354"><ele>63.0</ele><time>2026-04-25T08:12:57.906Z</time></trkpt><trkpt lat="35.6753455" lon="10.104225"><ele>63.0</ele><time>2026-04-25T08:12:58.907Z</time></trkpt><trkpt lat="35.6753147" lon="10.1043014"><ele>63.0</ele><time>2026-04-25T08:12:59.901Z</time></trkpt><trkpt lat="35.6752901" lon="10.104374"><ele>63.0</ele><time>2026-04-25T08:13:00.91Z</time></trkpt><trkpt lat="35.6752504" lon="10.1044399"><ele>63.0</ele><time>2026-04-25T08:13:01.915Z</time></trkpt><trkpt lat="35.6751566" lon="10.1045123"><ele>63.0</ele><time>2026-04-25T08:13:03.909Z</time></trkpt><trkpt lat="35.6750738" lon="10.1045087"><ele>63.0</ele><time>2026-04-25T08:13:05.91Z</time></trkpt><trkpt lat="35.6749969" lon="10.1044262"><ele>63.0</ele><time>2026-04-25T08:13:07.911Z</time></trkpt><trkpt lat="35.6749312" lon="10.1043357"><ele>63.0</ele><time>2026-04-25T08:13:09.91Z</time></trkpt><trkpt lat="35.6748804" lon="10.1042715"><ele>63.0</ele><time>2026-04-25T08:13:11.901Z</time></trkpt><trkpt lat="35.6747952" lon="10.1042793"><ele>63.0</ele><time>2026-04-25T08:13:22.896Z</time></trkpt><trkpt lat="35.674728" lon="10.1043523"><ele>63.0</ele><time>2026-04-25T08:13:25.894Z</time></trkpt><trkpt lat="35.6746745" lon="10.1044124"><ele>63.0</ele><time>2026-04-25T08:13:28.895Z</time></trkpt><trkpt lat="35.6746069" lon="10.1045042"><ele>63.0</ele><time>2026-04-25T08:13:30.899Z</time></trkpt><trkpt lat="35.6745591" lon="10.10456"><ele>63.0</ele><time>2026-04-25T08:13:31.894Z</time></trkpt><trkpt lat="35.674504" lon="10.1046242"><ele>63.0</ele><time>2026-04-25T08:13:32.9Z</time></trkpt><trkpt lat="35.6744466" lon="10.1046925"><ele>63.0</ele><time>2026-04-25T08:13:33.895Z</time></trkpt><trkpt lat="35.6743812" lon="10.1047795"><ele>63.0</ele><time>2026-04-25T08:13:34.901Z</time></trkpt><trkpt lat="35.6743206" lon="10.1048561"><ele>63.0</ele><time>2026-04-25T08:13:35.913Z</time></trkpt><trkpt lat="35.674265" lon="10.1049262"><ele>63.0</ele><time>2026-04-25T08:13:36.887Z</time></trkpt><trkpt lat="35.6742111" lon="10.1049903"><ele>63.0</ele><time>2026-04-25T08:13:37.887Z</time></trkpt><trkpt lat="35.6741609" lon="10.1050525"><ele>63.0</ele><time>2026-04-25T08:13:38.907Z</time></trkpt><trkpt lat="35.6740862" lon="10.1051688"><ele>63.0</ele><time>2026-04-25T08:13:40.905Z</time></trkpt><trkpt lat="35.6740327" lon="10.1052418"><ele>63.0</ele><time>2026-04-25T08:13:42.907Z</time></trkpt><trkpt lat="35.6739653" lon="10.1052379"><ele>63.0</ele><time>2026-04-25T08:13:44.906Z</time></trkpt><trkpt lat="35.6738981" lon="10.1051552"><ele>63.0</ele><time>2026-04-25T08:13:46.9Z</time></trkpt><trkpt lat="35.6738302" lon="10.1050592"><ele>63.0</ele><time>2026-04-25T08:13:48.899Z</time></trkpt><trkpt lat="35.6737593" lon="10.1049583"><ele>63.0</ele><time>2026-04-25T08:13:50.908Z</time></trkpt><trkpt lat="35.6736814" lon="10.1048563"><ele>63.0</ele><time>2026-04-25T08:13:52.883Z</time></trkpt><trkpt lat="35.6736037" lon="10.1047464"><ele>63.0</ele><time>2026-04-25T08:13:54.893Z</time></trkpt><trkpt lat="35.673541" lon="10.1046519"><ele>63.0</ele><time>2026-04-25T08:13:56.89Z</time></trkpt><trkpt lat="35.6734981" lon="10.1045673"><ele>63.4</ele><time>2026-04-25T08:13:58.908Z</time></trkpt><trkpt lat="35.6735399" lon="10.1044647"><ele>63.8</ele><time>2026-04-25T08:14:00.901Z</time></trkpt><trkpt lat="35.6736256" lon="10.1043722"><ele>64.2</ele><time>2026-04-25T08:14:02.89Z</time></trkpt><trkpt lat="35.6737092" lon="10.104285"><ele>64.6</ele><time>2026-04-25T08:14:04.886Z</time></trkpt><trkpt lat="35.673784" lon="10.1042001"><ele>65.0</ele><time>2026-04-25T08:14:06.904Z</time></trkpt><trkpt lat="35.6738601" lon="10.1041056"><ele>65.2</ele><time>2026-04-25T08:14:08.888Z</time></trkpt><trkpt lat="35.6739366" lon="10.1040175"><ele>65.4</ele><time>2026-04-25T08:14:10.898Z</time></trkpt><trkpt lat="35.67401" lon="10.1039294"><ele>65.6</ele><time>2026-04-25T08:14:12.897Z</time></trkpt><trkpt lat="35.6740875" lon="10.1038407"><ele>65.8</ele><time>2026-04-25T08:14:14.893Z</time></trkpt><trkpt lat="35.6741488" lon="10.1037823"><ele>66.0</ele><time>2026-04-25T08:14:16.909Z</time></trkpt><trkpt lat="35.6742052" lon="10.1037426"><ele>66.0</ele><time>2026-04-25T08:14:19.9Z</time></trkpt><trkpt lat="35.6741658" lon="10.1036737"><ele>66.0</ele><time>2026-04-25T08:14:21.901Z</time></trkpt><trkpt lat="35.6740676" lon="10.1035861"><ele>66.0</ele><time>2026-04-25T08:14:23.9Z</time></trkpt><trkpt lat="35.6739852" lon="10.1035004"><ele>66.0</ele><time>2026-04-25T08:14:25.905Z</time></trkpt><trkpt lat="35.6739074" lon="10.1034116"><ele>66.0</ele><time>2026-04-25T08:14:27.903Z</time></trkpt><trkpt lat="35.6738207" lon="10.1033038"><ele>66.0</ele><time>2026-04-25T08:14:29.903Z</time></trkpt><trkpt lat="35.6737691" lon="10.1032585"><ele>66.0</ele><time>2026-04-25T08:14:30.906Z</time></trkpt><trkpt lat="35.673721" lon="10.1032075"><ele>66.0</ele><time>2026-04-25T08:14:31.892Z</time></trkpt><trkpt lat="35.6736709" lon="10.1031548"><ele>66.0</ele><time>2026-04-25T08:14:32.894Z</time></trkpt><trkpt lat="35.673621" lon="10.1030948"><ele>66.0</ele><time>2026-04-25T08:14:33.913Z</time></trkpt><trkpt lat="35.6735696" lon="10.1030293"><ele>66.0</ele><time>2026-04-25T08:14:34.896Z</time></trkpt><trkpt lat="35.6735118" lon="10.1029631"><ele>66.0</ele><time>2026-04-25T08:14:35.9Z</time></trkpt><trkpt lat="35.6734607" lon="10.1028911"><ele>65.33333333333333</ele><time>2026-04-25T08:14:36.918Z</time></trkpt><trkpt lat="35.6734094" lon="10.1028187"><ele>64.66666666666667</ele><time>2026-04-25T08:14:37.922Z</time></trkpt><trkpt lat="35.6733571" lon="10.1027527"><ele>64.0</ele><time>2026-04-25T08:14:38.898Z</time></trkpt><trkpt lat="35.6733021" lon="10.102685"><ele>63.333333333333336</ele><time>2026-04-25T08:14:39.9Z</time></trkpt><trkpt lat="35.6732537" lon="10.1026235"><ele>62.66666666666667</ele><time>2026-04-25T08:14:40.9Z</time></trkpt><trkpt lat="35.6732109" lon="10.1025633"><ele>62.0</ele><time>2026-04-25T08:14:41.904Z</time></trkpt><trkpt lat="35.6731457" lon="10.1024721"><ele>62.142857142857146</ele><time>2026-04-25T08:14:43.897Z</time></trkpt><trkpt lat="35.6731044" lon="10.1023927"><ele>62.28571428571429</ele><time>2026-04-25T08:14:46.905Z</time></trkpt><trkpt lat="35.6730774" lon="10.1023205"><ele>62.42857142857143</ele><time>2026-04-25T08:14:50.893Z</time></trkpt><trkpt lat="35.6730417" lon="10.1022565"><ele>62.57142857142857</ele><time>2026-04-25T08:14:55.903Z</time></trkpt><trkpt lat="35.6729793" lon="10.1022139"><ele>62.714285714285715</ele><time>2026-04-25T08:14:58.89Z</time></trkpt><trkpt lat="35.6729249" lon="10.1021537"><ele>62.85714285714286</ele><time>2026-04-25T08:15:00.9Z</time></trkpt><trkpt lat="35.672857" lon="10.1020644"><ele>63.0</ele><time>2026-04-25T08:15:02.907Z</time></trkpt><trkpt lat="35.6727935" lon="10.1019616"><ele>63.0</ele><time>2026-04-25T08:15:04.896Z</time></trkpt><trkpt lat="35.6727216" lon="10.1018606"><ele>63.0</ele><time>2026-04-25T08:15:06.906Z</time></trkpt><trkpt lat="35.6726251" lon="10.1017723"><ele>63.0</ele><time>2026-04-25T08:15:08.901Z</time></trkpt><trkpt lat="35.6725254" lon="10.1016897"><ele>63.0</ele><time>2026-04-25T08:15:10.9Z</time></trkpt><trkpt lat="35.6724301" lon="10.1016153"><ele>63.333333333333336</ele><time>2026-04-25T08:15:12.901Z</time></trkpt><trkpt lat="35.6723336" lon="10.101532"><ele>63.66666666666667</ele><time>2026-04-25T08:15:14.919Z</time></trkpt><trkpt lat="35.6722373" lon="10.1014412"><ele>64.0</ele><time>2026-04-25T08:15:16.898Z</time></trkpt><trkpt lat="35.6721847" lon="10.101395"><ele>64.33333333333334</ele><time>2026-04-25T08:15:17.899Z</time></trkpt><trkpt lat="35.6721307" lon="10.1013506"><ele>64.66666666666667</ele><time>2026-04-25T08:15:18.903Z</time></trkpt><trkpt lat="35.6720767" lon="10.1013057"><ele>65.0</ele><time>2026-04-25T08:15:19.897Z</time></trkpt><trkpt lat="35.6720262" lon="10.101256"><ele>65.00000000000001</ele><time>2026-04-25T08:15:20.904Z</time></trkpt><trkpt lat="35.6719754" lon="10.1012079"><ele>65.0</ele><time>2026-04-25T08:15:21.906Z</time></trkpt><trkpt lat="35.6719223" lon="10.101161"><ele>65.0</ele><time>2026-04-25T08:15:22.901Z</time></trkpt><trkpt lat="35.6718691" lon="10.1011104"><ele>65.0</ele><time>2026-04-25T08:15:23.908Z</time></trkpt><trkpt lat="35.6718119" lon="10.1010691"><ele>65.0</ele><time>2026-04-25T08:15:24.897Z</time></trkpt><trkpt lat="35.6717598" lon="10.1010252"><ele>65.00000000000001</ele><time>2026-04-25T08:15:25.895Z</time></trkpt><trkpt lat="35.6717065" lon="10.1009792"><ele>65.0</ele><time>2026-04-25T08:15:26.889Z</time></trkpt><trkpt lat="35.6716134" lon="10.1009015"><ele>65.14285714285715</ele><time>2026-04-25T08:15:28.899Z</time></trkpt><trkpt lat="35.6715427" lon="10.1008464"><ele>65.28571428571429</ele><time>2026-04-25T08:15:30.911Z</time></trkpt><trkpt lat="35.6714918" lon="10.1008001"><ele>65.42857142857143</ele><time>2026-04-25T08:15:33.9Z</time></trkpt><trkpt lat="35.6714309" lon="10.1007529"><ele>65.57142857142858</ele><time>2026-04-25T08:15:38.899Z</time></trkpt><trkpt lat="35.6713822" lon="10.1006964"><ele>65.71428571428572</ele><time>2026-04-25T08:15:43.903Z</time></trkpt><trkpt lat="35.6713295" lon="10.1006508"><ele>65.85714285714286</ele><time>2026-04-25T08:15:51.895Z</time></trkpt><trkpt lat="35.6712522" lon="10.1005758"><ele>66.0</ele><time>2026-04-25T08:15:55.901Z</time></trkpt><trkpt lat="35.6711698" lon="10.100505"><ele>65.39999999999999</ele><time>2026-04-25T08:15:57.89Z</time></trkpt><trkpt lat="35.6710866" lon="10.1004587"><ele>64.8</ele><time>2026-04-25T08:15:59.904Z</time></trkpt><trkpt lat="35.6709963" lon="10.1004725"><ele>64.19999999999999</ele><time>2026-04-25T08:16:01.911Z</time></trkpt><trkpt lat="35.6709182" lon="10.1005469"><ele>63.599999999999994</ele><time>2026-04-25T08:16:03.905Z</time></trkpt><trkpt lat="35.6708224" lon="10.1006126"><ele>63.0</ele><time>2026-04-25T08:16:05.889Z</time></trkpt><trkpt lat="35.6707254" lon="10.1006816"><ele>63.0</ele><time>2026-04-25T08:16:07.903Z</time></trkpt><trkpt lat="35.6706297" lon="10.1007373"><ele>63.0</ele><time>2026-04-25T08:16:09.912Z</time></trkpt><trkpt lat="35.6705342" lon="10.1007661"><ele>63.0</ele><time>2026-04-25T08:16:11.891Z</time></trkpt><trkpt lat="35.6704497" lon="10.1007911"><ele>63.0</ele><time>2026-04-25T08:16:13.898Z</time></trkpt><trkpt lat="35.6703619" lon="10.1008206"><ele>63.0</ele><time>2026-04-25T08:16:15.892Z</time></trkpt><trkpt lat="35.6702637" lon="10.1008475"><ele>63.0</ele><time>2026-04-25T08:16:17.908Z</time></trkpt><trkpt lat="35.6701717" lon="10.1008901"><ele>63.0</ele><time>2026-04-25T08:16:19.891Z</time></trkpt><trkpt lat="35.6700998" lon="10.1009451"><ele>63.0</ele><time>2026-04-25T08:16:21.887Z</time></trkpt><trkpt lat="35.670048" lon="10.1010397"><ele>63.0</ele><time>2026-04-25T08:16:23.901Z</time></trkpt><trkpt lat="35.6700282" lon="10.1011659"><ele>63.0</ele><time>2026-04-25T08:16:25.893Z</time></trkpt><trkpt lat="35.6700182" lon="10.101295"><ele>63.0</ele><time>2026-04-25T08:16:27.901Z</time></trkpt><trkpt lat="35.6700056" lon="10.1013717"><ele>63.0</ele><time>2026-04-25T08:16:28.901Z</time></trkpt><trkpt lat="35.6699908" lon="10.1015322"><ele>63.0</ele><time>2026-04-25T08:16:30.893Z</time></trkpt><trkpt lat="35.6699809" lon="10.1016105"><ele>63.0</ele><time>2026-04-25T08:16:31.887Z</time></trkpt><trkpt lat="35.6699663" lon="10.1017585"><ele>63.0</ele><time>2026-04-25T08:16:33.882Z</time></trkpt><trkpt lat="35.6699581" lon="10.1019088"><ele>63.0</ele><time>2026-04-25T08:16:35.894Z</time></trkpt><trkpt lat="35.6699583" lon="10.1020489"><ele>63.0</ele><time>2026-04-25T08:16:37.9Z</time></trkpt><trkpt lat="35.6699602" lon="10.1021869"><ele>63.0</ele><time>2026-04-25T08:16:39.885Z</time></trkpt><trkpt lat="35.6699944" lon="10.1022914"><ele>63.0</ele><time>2026-04-25T08:16:41.898Z</time></trkpt><trkpt lat="35.6700699" lon="10.1023344"><ele>63.0</ele><time>2026-04-25T08:16:43.905Z</time></trkpt><trkpt lat="35.6701516" lon="10.1023673"><ele>63.0</ele><time>2026-04-25T08:16:45.906Z</time></trkpt><trkpt lat="35.6702287" lon="10.1024056"><ele>63.0</ele><time>2026-04-25T08:16:47.897Z</time></trkpt><trkpt lat="35.6703234" lon="10.102445"><ele>63.0</ele><time>2026-04-25T08:16:49.898Z</time></trkpt><trkpt lat="35.6704119" lon="10.1024814"><ele>63.0</ele><time>2026-04-25T08:16:51.9Z</time></trkpt><trkpt lat="35.6705055" lon="10.1025113"><ele>63.0</ele><time>2026-04-25T08:16:53.896Z</time></trkpt><trkpt lat="35.6705987" lon="10.1025411"><ele>63.166666666666664</ele><time>2026-04-25T08:16:55.886Z</time></trkpt><trkpt lat="35.670679" lon="10.1025808"><ele>63.33333333333333</ele><time>2026-04-25T08:16:57.896Z</time></trkpt><trkpt lat="35.6707361" lon="10.1026144"><ele>63.5</ele><time>2026-04-25T08:17:00.892Z</time></trkpt><trkpt lat="35.6708056" lon="10.1026091"><ele>63.666666666666664</ele><time>2026-04-25T08:17:12.898Z</time></trkpt><trkpt lat="35.6708888" lon="10.1026276"><ele>63.83333333333333</ele><time>2026-04-25T08:17:16.887Z</time></trkpt><trkpt lat="35.6709639" lon="10.1026659"><ele>64.0</ele><time>2026-04-25T08:17:19.897Z</time></trkpt><trkpt lat="35.6710396" lon="10.1026454"><ele>64.16666666666666</ele><time>2026-04-25T08:29:42.933Z</time></trkpt><trkpt lat="35.6711076" lon="10.1026501"><ele>64.33333333333333</ele><time>2026-04-25T08:30:38.879Z</time></trkpt><trkpt lat="35.6711657" lon="10.1026943"><ele>64.5</ele><time>2026-04-25T08:30:57.907Z</time></trkpt><trkpt lat="35.6712511" lon="10.1027426"><ele>64.66666666666667</ele><time>2026-04-25T08:31:00.894Z</time></trkpt><trkpt lat="35.6713068" lon="10.10278"><ele>64.83333333333334</ele><time>2026-04-25T08:31:02.903Z</time></trkpt><trkpt lat="35.6713893" lon="10.1027941"><ele>65.0</ele><time>2026-04-25T08:31:04.893Z</time></trkpt><trkpt lat="35.6714679" lon="10.1027951"><ele>65.0</ele><time>2026-04-25T08:31:06.898Z</time></trkpt><trkpt lat="35.671545" lon="10.10278"><ele>65.0</ele><time>2026-04-25T08:31:09.894Z</time></trkpt><trkpt lat="35.6715764" lon="10.1026717"><ele>65.0</ele><time>2026-04-25T08:31:13.901Z</time></trkpt><trkpt lat="35.6715521" lon="10.1025855"><ele>65.0</ele><time>2026-04-25T08:31:15.89Z</time></trkpt><trkpt lat="35.6715186" lon="10.102477"><ele>65.0</ele><time>2026-04-25T08:31:17.898Z</time></trkpt><trkpt lat="35.6714679" lon="10.1023647"><ele>65.0</ele><time>2026-04-25T08:31:19.896Z</time></trkpt><trkpt lat="35.671425" lon="10.102261"><ele>64.83333333333334</ele><time>2026-04-25T08:31:21.888Z</time></trkpt><trkpt lat="35.6713954" lon="10.1021637"><ele>64.66666666666667</ele><time>2026-04-25T08:31:23.898Z</time></trkpt><trkpt lat="35.6713577" lon="10.1020561"><ele>64.5</ele><time>2026-04-25T08:31:25.868Z</time></trkpt><trkpt lat="35.671321" lon="10.101955"><ele>64.33333333333333</ele><time>2026-04-25T08:31:27.91Z</time></trkpt><trkpt lat="35.6712851" lon="10.1018632"><ele>64.16666666666666</ele><time>2026-04-25T08:31:29.902Z</time></trkpt><trkpt lat="35.6712449" lon="10.1017755"><ele>64.0</ele><time>2026-04-25T08:31:31.87Z</time></trkpt><trkpt lat="35.6712121" lon="10.1016869"><ele>63.99999999999999</ele><time>2026-04-25T08:31:33.906Z</time></trkpt><trkpt lat="35.6711853" lon="10.1016067"><ele>64.0</ele><time>2026-04-25T08:31:35.9Z</time></trkpt><trkpt lat="35.6711517" lon="10.1015214"><ele>64.0</ele><time>2026-04-25T08:31:37.888Z</time></trkpt><trkpt lat="35.6711065" lon="10.1014187"><ele>64.0</ele><time>2026-04-25T08:31:39.898Z</time></trkpt><trkpt lat="35.6710614" lon="10.1013188"><ele>63.99999999999999</ele><time>2026-04-25T08:31:41.898Z</time></trkpt><trkpt lat="35.6710362" lon="10.1012169"><ele>64.0</ele><time>2026-04-25T08:31:43.883Z</time></trkpt><trkpt lat="35.6710026" lon="10.1011263"><ele>63.99999999999999</ele><time>2026-04-25T08:31:45.902Z</time></trkpt><trkpt lat="35.6709748" lon="10.1010522"><ele>64.0</ele><time>2026-04-25T08:31:47.893Z</time></trkpt><trkpt lat="35.6709588" lon="10.1009603"><ele>64.0</ele><time>2026-04-25T08:31:50.908Z</time></trkpt><trkpt lat="35.6710087" lon="10.1008701"><ele>64.0</ele><time>2026-04-25T08:31:54.892Z</time></trkpt><trkpt lat="35.6710798" lon="10.1008126"><ele>63.99999999999999</ele><time>2026-04-25T08:31:56.901Z</time></trkpt><trkpt lat="35.6711418" lon="10.1007571"><ele>64.0</ele><time>2026-04-25T08:31:58.892Z</time></trkpt><trkpt lat="35.6711703" lon="10.1006749"><ele>63.83333333333333</ele><time>2026-04-25T08:32:00.893Z</time></trkpt><trkpt lat="35.6711604" lon="10.100572"><ele>63.666666666666664</ele><time>2026-04-25T08:32:02.89Z</time></trkpt><trkpt lat="35.6711009" lon="10.1004953"><ele>63.5</ele><time>2026-04-25T08:32:04.89Z</time></trkpt><trkpt lat="35.6710252" lon="10.1004715"><ele>63.33333333333333</ele><time>2026-04-25T08:32:06.897Z</time></trkpt><trkpt lat="35.6709489" lon="10.1005115"><ele>63.166666666666664</ele><time>2026-04-25T08:32:08.89Z</time></trkpt><trkpt lat="35.6708846" lon="10.1005811"><ele>63.0</ele><time>2026-04-25T08:32:10.896Z</time></trkpt><trkpt lat="35.6708144" lon="10.1006373"><ele>63.0</ele><time>2026-04-25T08:32:12.893Z</time></trkpt><trkpt lat="35.6707382" lon="10.1006831"><ele>63.0</ele><time>2026-04-25T08:32:14.897Z</time></trkpt><trkpt lat="35.6706511" lon="10.1007126"><ele>63.0</ele><time>2026-04-25T08:32:16.896Z</time></trkpt><trkpt lat="35.6705678" lon="10.1007506"><ele>63.0</ele><time>2026-04-25T08:32:18.887Z</time></trkpt><trkpt lat="35.6704824" lon="10.1007782"><ele>63.0</ele><time>2026-04-25T08:32:20.891Z</time></trkpt><trkpt lat="35.6704038" lon="10.1008022"><ele>63.0</ele><time>2026-04-25T08:32:22.877Z</time></trkpt><trkpt lat="35.6703112" lon="10.1008376"><ele>63.0</ele><time>2026-04-25T08:32:24.898Z</time></trkpt><trkpt lat="35.670239" lon="10.1008671"><ele>63.0</ele><time>2026-04-25T08:32:26.89Z</time></trkpt><trkpt lat="35.6701724" lon="10.1008936"><ele>63.0</ele><time>2026-04-25T08:32:32.884Z</time></trkpt><trkpt lat="35.670091" lon="10.1009395"><ele>63.0</ele><time>2026-04-25T08:32:35.886Z</time></trkpt><trkpt lat="35.6699942" lon="10.1009564"><ele>63.0</ele><time>2026-04-25T08:32:37.892Z</time></trkpt><trkpt lat="35.669891" lon="10.1009666"><ele>63.0</ele><time>2026-04-25T08:32:39.906Z</time></trkpt><trkpt lat="35.6697997" lon="10.1009986"><ele>63.0</ele><time>2026-04-25T08:32:41.893Z</time></trkpt><trkpt lat="35.6696921" lon="10.1010463"><ele>63.0</ele><time>2026-04-25T08:32:43.885Z</time></trkpt><trkpt lat="35.6695925" lon="10.1010901"><ele>63.0</ele><time>2026-04-25T08:32:45.895Z</time></trkpt><trkpt lat="35.6695074" lon="10.1011226"><ele>63.0</ele><time>2026-04-25T08:32:47.898Z</time></trkpt><trkpt lat="35.6694244" lon="10.1011596"><ele>63.0</ele><time>2026-04-25T08:32:49.89Z</time></trkpt><trkpt lat="35.6693443" lon="10.1011736"><ele>63.0</ele><time>2026-04-25T08:32:51.903Z</time></trkpt><trkpt lat="35.6692819" lon="10.1012131"><ele>63.0</ele><time>2026-04-25T08:32:55.889Z</time></trkpt><trkpt lat="35.6692134" lon="10.101249"><ele>63.0</ele><time>2026-04-25T08:33:07.881Z</time></trkpt><trkpt lat="35.6691287" lon="10.1012794"><ele>63.0</ele><time>2026-04-25T08:33:09.913Z</time></trkpt><trkpt lat="35.6690522" lon="10.1013022"><ele>63.0</ele><time>2026-04-25T08:33:11.902Z</time></trkpt><trkpt lat="35.6689642" lon="10.1013308"><ele>63.0</ele><time>2026-04-25T08:33:13.889Z</time></trkpt><trkpt lat="35.6688924" lon="10.1013657"><ele>63.0</ele><time>2026-04-25T08:33:15.892Z</time></trkpt><trkpt lat="35.668819" lon="10.1013901"><ele>63.0</ele><time>2026-04-25T08:33:17.894Z</time></trkpt><trkpt lat="35.6687543" lon="10.1014307"><ele>63.0</ele><time>2026-04-25T08:33:19.886Z</time></trkpt><trkpt lat="35.6686868" lon="10.1014566"><ele>63.0</ele><time>2026-04-25T08:33:21.904Z</time></trkpt><trkpt lat="35.6686207" lon="10.1014769"><ele>63.0</ele><time>2026-04-25T08:33:23.901Z</time></trkpt><trkpt lat="35.6685578" lon="10.1015078"><ele>63.0</ele><time>2026-04-25T08:33:25.895Z</time></trkpt><trkpt lat="35.6684872" lon="10.1015355"><ele>63.0</ele><time>2026-04-25T08:33:27.892Z</time></trkpt><trkpt lat="35.6684201" lon="10.1015643"><ele>62.85714285714286</ele><time>2026-04-25T08:33:29.909Z</time></trkpt><trkpt lat="35.6683573" lon="10.1015869"><ele>62.714285714285715</ele><time>2026-04-25T08:33:31.891Z</time></trkpt><trkpt lat="35.6682878" lon="10.1016018"><ele>62.57142857142857</ele><time>2026-04-25T08:33:33.904Z</time></trkpt><trkpt lat="35.6682189" lon="10.1016304"><ele>62.42857142857143</ele><time>2026-04-25T08:33:35.895Z</time></trkpt><trkpt lat="35.6681423" lon="10.1016687"><ele>62.28571428571429</ele><time>2026-04-25T08:33:37.894Z</time></trkpt><trkpt lat="35.6680744" lon="10.1017027"><ele>62.142857142857146</ele><time>2026-04-25T08:33:39.893Z</time></trkpt><trkpt lat="35.6680116" lon="10.1017187"><ele>62.0</ele><time>2026-04-25T08:33:41.882Z</time></trkpt><trkpt lat="35.6679402" lon="10.1017362"><ele>62.0</ele><time>2026-04-25T08:33:43.897Z</time></trkpt><trkpt lat="35.6678673" lon="10.101752"><ele>62.00000000000001</ele><time>2026-04-25T08:33:45.885Z</time></trkpt><trkpt lat="35.667804" lon="10.1017766"><ele>62.0</ele><time>2026-04-25T08:33:48.901Z</time></trkpt><trkpt lat="35.6677427" lon="10.1017982"><ele>62.0</ele><time>2026-04-25T08:33:51.88Z</time></trkpt><trkpt lat="35.6676825" lon="10.1018228"><ele>62.00000000000001</ele><time>2026-04-25T08:33:53.91Z</time></trkpt><trkpt lat="35.6676178" lon="10.1018418"><ele>62.0</ele><time>2026-04-25T08:33:55.906Z</time></trkpt><trkpt lat="35.6675362" lon="10.1018628"><ele>62.0</ele><time>2026-04-25T08:33:57.904Z</time></trkpt><trkpt lat="35.6674546" lon="10.1019038"><ele>62.400000000000006</ele><time>2026-04-25T08:33:59.911Z</time></trkpt><trkpt lat="35.6673707" lon="10.1019416"><ele>62.800000000000004</ele><time>2026-04-25T08:34:01.886Z</time></trkpt><trkpt lat="35.667272" lon="10.1019703"><ele>63.2</ele><time>2026-04-25T08:34:03.904Z</time></trkpt><trkpt lat="35.6671785" lon="10.1020161"><ele>63.6</ele><time>2026-04-25T08:34:05.907Z</time></trkpt><trkpt lat="35.6670812" lon="10.1020544"><ele>64.0</ele><time>2026-04-25T08:34:07.893Z</time></trkpt><trkpt lat="35.6670028" lon="10.1020903"><ele>63.99999999999999</ele><time>2026-04-25T08:34:09.896Z</time></trkpt><trkpt lat="35.6669323" lon="10.1021309"><ele>64.0</ele><time>2026-04-25T08:34:11.894Z</time></trkpt><trkpt lat="35.6668605" lon="10.1021709"><ele>64.0</ele><time>2026-04-25T08:34:13.9Z</time></trkpt><trkpt lat="35.666792" lon="10.1022039"><ele>64.0</ele><time>2026-04-25T08:34:15.902Z</time></trkpt><trkpt lat="35.6667038" lon="10.1022407"><ele>63.99999999999999</ele><time>2026-04-25T08:34:18.912Z</time></trkpt><trkpt lat="35.6666387" lon="10.1022615"><ele>64.0</ele><time>2026-04-25T08:34:20.895Z</time></trkpt><trkpt lat="35.6665761" lon="10.1022842"><ele>64.0</ele><time>2026-04-25T08:34:22.885Z</time></trkpt><trkpt lat="35.6664988" lon="10.102309"><ele>63.99999999999999</ele><time>2026-04-25T08:34:25.891Z</time></trkpt><trkpt lat="35.6664338" lon="10.1023377"><ele>64.0</ele><time>2026-04-25T08:34:28.899Z</time></trkpt><trkpt lat="35.6663597" lon="10.102355"><ele>64.0</ele><time>2026-04-25T08:34:32.891Z</time></trkpt><trkpt lat="35.6662989" lon="10.1023889"><ele>63.99999999999999</ele><time>2026-04-25T08:34:35.89Z</time></trkpt><trkpt lat="35.666223" lon="10.1024022"><ele>64.0</ele><time>2026-04-25T08:34:38.896Z</time></trkpt><trkpt lat="35.6661466" lon="10.1024331"><ele>64.0</ele><time>2026-04-25T08:34:41.9Z</time></trkpt><trkpt lat="35.6660801" lon="10.1024496"><ele>63.33333333333333</ele><time>2026-04-25T08:34:45.885Z</time></trkpt><trkpt lat="35.6660082" lon="10.102489"><ele>62.666666666666664</ele><time>2026-04-25T08:34:50.888Z</time></trkpt><trkpt lat="35.6659459" lon="10.1025179"><ele>62.0</ele><time>2026-04-25T08:34:53.904Z</time></trkpt><trkpt lat="35.6658761" lon="10.1025506"><ele>61.33333333333333</ele><time>2026-04-25T08:34:55.915Z</time></trkpt><trkpt lat="35.6657704" lon="10.1025811"><ele>60.666666666666664</ele><time>2026-04-25T08:34:57.908Z</time></trkpt><trkpt lat="35.6656688" lon="10.1026353"><ele>60.0</ele><time>2026-04-25T08:34:59.903Z</time></trkpt><trkpt lat="35.6655646" lon="10.1026806"><ele>60.0</ele><time>2026-04-25T08:35:01.889Z</time></trkpt><trkpt lat="35.665479" lon="10.1027125"><ele>60.0</ele><time>2026-04-25T08:35:03.896Z</time></trkpt><trkpt lat="35.6653948" lon="10.1027486"><ele>60.0</ele><time>2026-04-25T08:35:05.9Z</time></trkpt><trkpt lat="35.6652957" lon="10.1027894"><ele>60.0</ele><time>2026-04-25T08:35:07.901Z</time></trkpt><trkpt lat="35.6652089" lon="10.1028137"><ele>60.0</ele><time>2026-04-25T08:35:09.896Z</time></trkpt><trkpt lat="35.6651335" lon="10.1028355"><ele>60.142857142857146</ele><time>2026-04-25T08:35:11.886Z</time></trkpt><trkpt lat="35.6650596" lon="10.1028728"><ele>60.28571428571428</ele><time>2026-04-25T08:35:14.888Z</time></trkpt><trkpt lat="35.6649885" lon="10.1029215"><ele>60.42857142857142</ele><time>2026-04-25T08:35:17.904Z</time></trkpt><trkpt lat="35.6649344" lon="10.1029625"><ele>60.57142857142857</ele><time>2026-04-25T08:35:20.897Z</time></trkpt><trkpt lat="35.6648697" lon="10.1030023"><ele>60.71428571428571</ele><time>2026-04-25T08:35:23.904Z</time></trkpt><trkpt lat="35.6648098" lon="10.1030407"><ele>60.85714285714285</ele><time>2026-04-25T08:35:26.892Z</time></trkpt><trkpt lat="35.6647486" lon="10.1030851"><ele>60.99999999999999</ele><time>2026-04-25T08:35:30.882Z</time></trkpt><trkpt lat="35.6646794" lon="10.1031307"><ele>60.99999999999999</ele><time>2026-04-25T08:35:33.901Z</time></trkpt><trkpt lat="35.6646022" lon="10.1031909"><ele>61.0</ele><time>2026-04-25T08:35:36.899Z</time></trkpt><trkpt lat="35.6645466" lon="10.1032311"><ele>61.0</ele><time>2026-04-25T08:35:38.902Z</time></trkpt><trkpt lat="35.6644978" lon="10.1032858"><ele>61.0</ele><time>2026-04-25T08:35:40.888Z</time></trkpt><trkpt lat="35.6644322" lon="10.1033299"><ele>60.99999999999999</ele><time>2026-04-25T08:35:42.893Z</time></trkpt><trkpt lat="35.6643698" lon="10.1033848"><ele>61.0</ele><time>2026-04-25T08:35:44.892Z</time></trkpt><trkpt lat="35.6643036" lon="10.1034415"><ele>61.0</ele><time>2026-04-25T08:35:46.899Z</time></trkpt><trkpt lat="35.664229" lon="10.1035119"><ele>60.99999999999999</ele><time>2026-04-25T08:35:48.89Z</time></trkpt><trkpt lat="35.6641704" lon="10.1035719"><ele>60.99999999999999</ele><time>2026-04-25T08:35:51.877Z</time></trkpt><trkpt lat="35.6640933" lon="10.1036338"><ele>61.0</ele><time>2026-04-25T08:35:54.902Z</time></trkpt><trkpt lat="35.6640072" lon="10.1036953"><ele>61.0</ele><time>2026-04-25T08:35:56.899Z</time></trkpt><trkpt lat="35.6639254" lon="10.1037754"><ele>61.0</ele><time>2026-04-25T08:35:58.907Z</time></trkpt><trkpt lat="35.6638254" lon="10.1038658"><ele>60.99999999999999</ele><time>2026-04-25T08:36:00.88Z</time></trkpt><trkpt lat="35.6637771" lon="10.1039168"><ele>60.99999999999999</ele><time>2026-04-25T08:36:01.903Z</time></trkpt><trkpt lat="35.6636834" lon="10.1040005"><ele>61.0</ele><time>2026-04-25T08:36:03.888Z</time></trkpt><trkpt lat="35.6636317" lon="10.1040508"><ele>61.0</ele><time>2026-04-25T08:36:04.889Z</time></trkpt><trkpt lat="35.6635331" lon="10.1041368"><ele>61.166666666666664</ele><time>2026-04-25T08:36:06.899Z</time></trkpt><trkpt lat="35.663436" lon="10.1042183"><ele>61.33333333333333</ele><time>2026-04-25T08:36:08.902Z</time></trkpt><trkpt lat="35.663332" lon="10.1043021"><ele>61.5</ele><time>2026-04-25T08:36:10.892Z</time></trkpt><trkpt lat="35.6632774" lon="10.1043487"><ele>61.66666666666667</ele><time>2026-04-25T08:36:11.89Z</time></trkpt><trkpt lat="35.6632225" lon="10.1043973"><ele>61.833333333333336</ele><time>2026-04-25T08:36:12.897Z</time></trkpt><trkpt lat="35.6631669" lon="10.1044538"><ele>62.0</ele><time>2026-04-25T08:36:13.89Z</time></trkpt><trkpt lat="35.6631147" lon="10.104505"><ele>62.0</ele><time>2026-04-25T08:36:14.896Z</time></trkpt><trkpt lat="35.6630672" lon="10.104564"><ele>62.00000000000001</ele><time>2026-04-25T08:36:15.892Z</time></trkpt><trkpt lat="35.6630134" lon="10.104625"><ele>62.0</ele><time>2026-04-25T08:36:16.89Z</time></trkpt><trkpt lat="35.6629575" lon="10.1046864"><ele>62.0</ele><time>2026-04-25T08:36:17.891Z</time></trkpt><trkpt lat="35.6629051" lon="10.1047475"><ele>62.00000000000001</ele><time>2026-04-25T08:36:18.883Z</time></trkpt><trkpt lat="35.6628549" lon="10.1048023"><ele>62.0</ele><time>2026-04-25T08:36:19.891Z</time></trkpt><trkpt lat="35.6628071" lon="10.1048635"><ele>62.0</ele><time>2026-04-25T08:36:20.883Z</time></trkpt><trkpt lat="35.6627552" lon="10.1049304"><ele>61.833333333333336</ele><time>2026-04-25T08:36:21.887Z</time></trkpt><trkpt lat="35.662704" lon="10.1049987"><ele>61.66666666666667</ele><time>2026-04-25T08:36:22.899Z</time></trkpt><trkpt lat="35.6626545" lon="10.1050674"><ele>61.5</ele><time>2026-04-25T08:36:23.886Z</time></trkpt><trkpt lat="35.6626051" lon="10.1051382"><ele>61.33333333333333</ele><time>2026-04-25T08:36:24.895Z</time></trkpt><trkpt lat="35.6625498" lon="10.1052083"><ele>61.166666666666664</ele><time>2026-04-25T08:36:25.897Z</time></trkpt><trkpt lat="35.6624984" lon="10.1052854"><ele>61.0</ele><time>2026-04-25T08:36:26.883Z</time></trkpt><trkpt lat="35.6624488" lon="10.1053666"><ele>60.99999999999999</ele><time>2026-04-25T08:36:27.896Z</time></trkpt><trkpt lat="35.6624042" lon="10.1054406"><ele>61.0</ele><time>2026-04-25T08:36:28.883Z</time></trkpt><trkpt lat="35.6623697" lon="10.1055185"><ele>60.99999999999999</ele><time>2026-04-25T08:36:29.895Z</time></trkpt><trkpt lat="35.6623302" lon="10.1056001"><ele>60.99999999999999</ele><time>2026-04-25T08:36:30.884Z</time></trkpt><trkpt lat="35.6622916" lon="10.1056739"><ele>61.0</ele><time>2026-04-25T08:36:31.899Z</time></trkpt><trkpt lat="35.6622581" lon="10.1057504"><ele>60.99999999999999</ele><time>2026-04-25T08:36:32.9Z</time></trkpt><trkpt lat="35.6622401" lon="10.1058368"><ele>60.99999999999999</ele><time>2026-04-25T08:36:33.89Z</time></trkpt><trkpt lat="35.662213" lon="10.1059194"><ele>60.599999999999994</ele><time>2026-04-25T08:36:34.896Z</time></trkpt><trkpt lat="35.662162" lon="10.1060508"><ele>60.199999999999996</ele><time>2026-04-25T08:36:36.907Z</time></trkpt><trkpt lat="35.6621101" lon="10.1061641"><ele>59.800000000000004</ele><time>2026-04-25T08:36:38.891Z</time></trkpt><trkpt lat="35.6620676" lon="10.1062825"><ele>59.400000000000006</ele><time>2026-04-25T08:36:40.908Z</time></trkpt><trkpt lat="35.6620192" lon="10.106397"><ele>59.0</ele><time>2026-04-25T08:36:42.901Z</time></trkpt><trkpt lat="35.6619832" lon="10.1065046"><ele>59.00000000000001</ele><time>2026-04-25T08:36:44.894Z</time></trkpt><trkpt lat="35.6619517" lon="10.1066221"><ele>59.0</ele><time>2026-04-25T08:36:46.9Z</time></trkpt><trkpt lat="35.6619315" lon="10.1066955"><ele>59.0</ele><time>2026-04-25T08:36:47.9Z</time></trkpt><trkpt lat="35.6619084" lon="10.1067814"><ele>59.0</ele><time>2026-04-25T08:36:48.887Z</time></trkpt><trkpt lat="35.6618798" lon="10.1068676"><ele>59.00000000000001</ele><time>2026-04-25T08:36:49.896Z</time></trkpt><trkpt lat="35.6618443" lon="10.1069527"><ele>59.0</ele><time>2026-04-25T08:36:50.899Z</time></trkpt><trkpt lat="35.6618061" lon="10.1070414"><ele>59.0</ele><time>2026-04-25T08:36:51.895Z</time></trkpt><trkpt lat="35.6617748" lon="10.107117"><ele>59.0</ele><time>2026-04-25T08:36:52.886Z</time></trkpt><trkpt lat="35.661746" lon="10.1071955"><ele>59.0</ele><time>2026-04-25T08:36:53.89Z</time></trkpt><trkpt lat="35.6617151" lon="10.1072785"><ele>59.0</ele><time>2026-04-25T08:36:54.89Z</time></trkpt><trkpt lat="35.6616876" lon="10.1073567"><ele>59.0</ele><time>2026-04-25T08:36:55.897Z</time></trkpt><trkpt lat="35.6616618" lon="10.1074464"><ele>59.0</ele><time>2026-04-25T08:36:56.907Z</time></trkpt><trkpt lat="35.6616327" lon="10.107531"><ele>59.0</ele><time>2026-04-25T08:36:57.893Z</time></trkpt><trkpt lat="35.6615989" lon="10.1076229"><ele>59.333333333333336</ele><time>2026-04-25T08:36:58.897Z</time></trkpt><trkpt lat="35.6615692" lon="10.1077168"><ele>59.66666666666667</ele><time>2026-04-25T08:36:59.902Z</time></trkpt><trkpt lat="35.6615364" lon="10.1078095"><ele>60.0</ele><time>2026-04-25T08:37:00.881Z</time></trkpt><trkpt lat="35.6615055" lon="10.1079037"><ele>60.33333333333333</ele><time>2026-04-25T08:37:01.897Z</time></trkpt><trkpt lat="35.6614768" lon="10.1079946"><ele>60.666666666666664</ele><time>2026-04-25T08:37:02.885Z</time></trkpt><trkpt lat="35.6614442" lon="10.1080896"><ele>61.0</ele><time>2026-04-25T08:37:03.893Z</time></trkpt><trkpt lat="35.6614103" lon="10.1081804"><ele>60.8</ele><time>2026-04-25T08:37:04.899Z</time></trkpt><trkpt lat="35.6613775" lon="10.1082899"><ele>60.599999999999994</ele><time>2026-04-25T08:37:05.897Z</time></trkpt><trkpt lat="35.6613409" lon="10.1083974"><ele>60.4</ele><time>2026-04-25T08:37:06.897Z</time></trkpt><trkpt lat="35.661304" lon="10.1084952"><ele>60.2</ele><time>2026-04-25T08:37:07.895Z</time></trkpt><trkpt lat="35.6612686" lon="10.1085972"><ele>60.0</ele><time>2026-04-25T08:37:08.916Z</time></trkpt><trkpt lat="35.6612363" lon="10.108703"><ele>60.0</ele><time>2026-04-25T08:37:09.898Z</time></trkpt><trkpt lat="35.6612055" lon="10.1088058"><ele>60.0</ele><time>2026-04-25T08:37:10.882Z</time></trkpt><trkpt lat="35.661177" lon="10.1089046"><ele>60.0</ele><time>2026-04-25T08:37:11.892Z</time></trkpt><trkpt lat="35.661143" lon="10.1090058"><ele>60.0</ele><time>2026-04-25T08:37:12.909Z</time></trkpt><trkpt lat="35.6611099" lon="10.1091023"><ele>60.0</ele><time>2026-04-25T08:37:13.89Z</time></trkpt><trkpt lat="35.6610746" lon="10.1091979"><ele>60.0</ele><time>2026-04-25T08:37:14.893Z</time></trkpt><trkpt lat="35.6610341" lon="10.1092915"><ele>60.0</ele><time>2026-04-25T08:37:15.891Z</time></trkpt><trkpt lat="35.6609925" lon="10.1093773"><ele>60.0</ele><time>2026-04-25T08:37:16.898Z</time></trkpt><trkpt lat="35.6609539" lon="10.1094678"><ele>60.0</ele><time>2026-04-25T08:37:17.902Z</time></trkpt><trkpt lat="35.6609153" lon="10.1095575"><ele>60.0</ele><time>2026-04-25T08:37:18.901Z</time></trkpt><trkpt lat="35.6608727" lon="10.1096479"><ele>60.0</ele><time>2026-04-25T08:37:19.888Z</time></trkpt><trkpt lat="35.6608291" lon="10.1097463"><ele>60.0</ele><time>2026-04-25T08:37:20.888Z</time></trkpt><trkpt lat="35.6607838" lon="10.1098374"><ele>59.833333333333336</ele><time>2026-04-25T08:37:21.888Z</time></trkpt><trkpt lat="35.660735" lon="10.1099237"><ele>59.66666666666667</ele><time>2026-04-25T08:37:22.893Z</time></trkpt><trkpt lat="35.6606863" lon="10.1100082"><ele>59.5</ele><time>2026-04-25T08:37:23.897Z</time></trkpt><trkpt lat="35.6606396" lon="10.1100825"><ele>59.333333333333336</ele><time>2026-04-25T08:37:24.908Z</time></trkpt><trkpt lat="35.6605951" lon="10.1101519"><ele>59.16666666666667</ele><time>2026-04-25T08:37:25.906Z</time></trkpt><trkpt lat="35.6605558" lon="10.1102186"><ele>59.0</ele><time>2026-04-25T08:37:26.908Z</time></trkpt><trkpt lat="35.660482" lon="10.1103204"><ele>59.00000000000001</ele><time>2026-04-25T08:37:28.886Z</time></trkpt><trkpt lat="35.6604308" lon="10.1103868"><ele>59.0</ele><time>2026-04-25T08:37:30.882Z</time></trkpt><trkpt lat="35.6603766" lon="10.1104813"><ele>59.0</ele><time>2026-04-25T08:37:33.903Z</time></trkpt><trkpt lat="35.6603205" lon="10.1105509"><ele>59.0</ele><time>2026-04-25T08:37:35.897Z</time></trkpt><trkpt lat="35.6602341" lon="10.1106391"><ele>59.00000000000001</ele><time>2026-04-25T08:37:37.887Z</time></trkpt><trkpt lat="35.6601825" lon="10.1107015"><ele>59.0</ele><time>2026-04-25T08:37:38.896Z</time></trkpt><trkpt lat="35.660139" lon="10.1107597"><ele>59.50000000000001</ele><time>2026-04-25T08:37:39.893Z</time></trkpt><trkpt lat="35.6600955" lon="10.1108195"><ele>60.0</ele><time>2026-04-25T08:37:40.889Z</time></trkpt><trkpt lat="35.6600429" lon="10.1108746"><ele>60.5</ele><time>2026-04-25T08:37:41.901Z</time></trkpt><trkpt lat="35.6599906" lon="10.1109334"><ele>61.0</ele><time>2026-04-25T08:37:42.888Z</time></trkpt><trkpt lat="35.6599431" lon="10.1109881"><ele>61.50000000000001</ele><time>2026-04-25T08:37:43.891Z</time></trkpt><trkpt lat="35.659855" lon="10.1110881"><ele>62.0</ele><time>2026-04-25T08:37:45.899Z</time></trkpt><trkpt lat="35.6597694" lon="10.1111796"><ele>62.00000000000001</ele><time>2026-04-25T08:37:47.891Z</time></trkpt><trkpt lat="35.6597075" lon="10.1112468"><ele>62.0</ele><time>2026-04-25T08:37:49.891Z</time></trkpt><trkpt lat="35.6596412" lon="10.1113324"><ele>62.0</ele><time>2026-04-25T08:37:51.901Z</time></trkpt><trkpt lat="35.6595366" lon="10.1114272"><ele>62.0</ele><time>2026-04-25T08:37:53.896Z</time></trkpt><trkpt lat="35.659484" lon="10.1114729"><ele>62.00000000000001</ele><time>2026-04-25T08:37:54.892Z</time></trkpt><trkpt lat="35.6594312" lon="10.1115221"><ele>62.0</ele><time>2026-04-25T08:37:55.887Z</time></trkpt><trkpt lat="35.659375" lon="10.1115668"><ele>61.85714285714286</ele><time>2026-04-25T08:37:56.893Z</time></trkpt><trkpt lat="35.6593153" lon="10.111615"><ele>61.71428571428572</ele><time>2026-04-25T08:37:57.904Z</time></trkpt><trkpt lat="35.6592579" lon="10.1116678"><ele>61.57142857142857</ele><time>2026-04-25T08:37:58.891Z</time></trkpt><trkpt lat="35.6592038" lon="10.1117161"><ele>61.42857142857143</ele><time>2026-04-25T08:37:59.879Z</time></trkpt><trkpt lat="35.6591514" lon="10.1117596"><ele>61.285714285714285</ele><time>2026-04-25T08:38:00.888Z</time></trkpt><trkpt lat="35.6590984" lon="10.1118053"><ele>61.14285714285714</ele><time>2026-04-25T08:38:01.881Z</time></trkpt><trkpt lat="35.6590465" lon="10.1118566"><ele>60.99999999999999</ele><time>2026-04-25T08:38:02.889Z</time></trkpt><trkpt lat="35.6589967" lon="10.1119064"><ele>60.99999999999999</ele><time>2026-04-25T08:38:03.882Z</time></trkpt><trkpt lat="35.6589423" lon="10.1119563"><ele>61.0</ele><time>2026-04-25T08:38:04.886Z</time></trkpt><trkpt lat="35.6588866" lon="10.1120003"><ele>60.99999999999999</ele><time>2026-04-25T08:38:05.896Z</time></trkpt><trkpt lat="35.6588293" lon="10.112048"><ele>60.99999999999999</ele><time>2026-04-25T08:38:06.894Z</time></trkpt><trkpt lat="35.6587662" lon="10.1120962"><ele>61.0</ele><time>2026-04-25T08:38:07.888Z</time></trkpt><trkpt lat="35.6587044" lon="10.1121483"><ele>60.99999999999999</ele><time>2026-04-25T08:38:08.892Z</time></trkpt><trkpt lat="35.6586397" lon="10.1122034"><ele>60.99999999999999</ele><time>2026-04-25T08:38:09.898Z</time></trkpt><trkpt lat="35.6585812" lon="10.1122557"><ele>60.666666666666664</ele><time>2026-04-25T08:38:10.887Z</time></trkpt><trkpt lat="35.658515" lon="10.1123052"><ele>60.33333333333333</ele><time>2026-04-25T08:38:11.889Z</time></trkpt><trkpt lat="35.6584607" lon="10.1123591"><ele>60.0</ele><time>2026-04-25T08:38:12.895Z</time></trkpt><trkpt lat="35.6584091" lon="10.1124049"><ele>59.66666666666667</ele><time>2026-04-25T08:38:13.888Z</time></trkpt><trkpt lat="35.6583261" lon="10.1124978"><ele>59.333333333333336</ele><time>2026-04-25T08:38:15.892Z</time></trkpt><trkpt lat="35.6583007" lon="10.1126039"><ele>59.0</ele><time>2026-04-25T08:38:17.892Z</time></trkpt><trkpt lat="35.6582969" lon="10.1126817"><ele>58.66666666666667</ele><time>2026-04-25T08:38:19.907Z</time></trkpt><trkpt lat="35.6582973" lon="10.1127652"><ele>58.333333333333336</ele><time>2026-04-25T08:38:22.894Z</time></trkpt><trkpt lat="35.6582764" lon="10.1128505"><ele>58.0</ele><time>2026-04-25T08:38:27.893Z</time></trkpt><trkpt lat="35.6582086" lon="10.112966"><ele>57.66666666666667</ele><time>2026-04-25T08:43:55.888Z</time></trkpt><trkpt lat="35.6582662" lon="10.1130067"><ele>57.333333333333336</ele><time>2026-04-25T08:44:03.938Z</time></trkpt><trkpt lat="35.6583317" lon="10.112967"><ele>57.0</ele><time>2026-04-25T08:44:08.924Z</time></trkpt><trkpt lat="35.6583721" lon="10.1129044"><ele>57.0</ele><time>2026-04-25T08:44:13.924Z</time></trkpt><trkpt lat="35.6583379" lon="10.1128334"><ele>56.99999999999999</ele><time>2026-04-25T08:44:18.927Z</time></trkpt><trkpt lat="35.6582766" lon="10.1127955"><ele>57.0</ele><time>2026-04-25T08:44:24.873Z</time></trkpt><trkpt lat="35.6582165" lon="10.1128262"><ele>57.0</ele><time>2026-04-25T08:51:52.881Z</time></trkpt><trkpt lat="35.6581594" lon="10.1128897"><ele>56.99999999999999</ele><time>2026-04-25T08:51:56.872Z</time></trkpt><trkpt lat="35.6580967" lon="10.1128526"><ele>57.0</ele><time>2026-04-25T08:52:00.886Z</time></trkpt><trkpt lat="35.6580364" lon="10.1128129"><ele>57.0</ele><time>2026-04-25T08:52:11.867Z</time></trkpt><trkpt lat="35.6579557" lon="10.1128395"><ele>57.0</ele><time>2026-04-25T08:52:13.894Z</time></trkpt><trkpt lat="35.6578881" lon="10.1128956"><ele>57.0</ele><time>2026-04-25T08:52:14.9Z</time></trkpt><trkpt lat="35.6577984" lon="10.1129854"><ele>57.0</ele><time>2026-04-25T08:52:15.9Z</time></trkpt><trkpt lat="35.6576931" lon="10.1130709"><ele>57.0</ele><time>2026-04-25T08:52:16.896Z</time></trkpt><trkpt lat="35.6575946" lon="10.1131491"><ele>57.0</ele><time>2026-04-25T08:52:17.91Z</time></trkpt><trkpt lat="35.6575075" lon="10.113225"><ele>57.2</ele><time>2026-04-25T08:52:18.897Z</time></trkpt><trkpt lat="35.6574178" lon="10.1133039"><ele>57.400000000000006</ele><time>2026-04-25T08:52:19.892Z</time></trkpt><trkpt lat="35.6573306" lon="10.1133822"><ele>57.599999999999994</ele><time>2026-04-25T08:52:20.894Z</time></trkpt><trkpt lat="35.6572431" lon="10.1134526"><ele>57.8</ele><time>2026-04-25T08:52:21.899Z</time></trkpt><trkpt lat="35.6571588" lon="10.113521"><ele>58.0</ele><time>2026-04-25T08:52:22.93Z</time></trkpt><trkpt lat="35.6570755" lon="10.1135962"><ele>58.0</ele><time>2026-04-25T08:52:23.878Z</time></trkpt><trkpt lat="35.6569867" lon="10.113676"><ele>58.0</ele><time>2026-04-25T08:52:24.883Z</time></trkpt><trkpt lat="35.6568985" lon="10.11376"><ele>58.0</ele><time>2026-04-25T08:52:25.881Z</time></trkpt><trkpt lat="35.656814" lon="10.1138428"><ele>58.0</ele><time>2026-04-25T08:52:26.893Z</time></trkpt><trkpt lat="35.6567286" lon="10.1139186"><ele>58.0</ele><time>2026-04-25T08:52:27.881Z</time></trkpt><trkpt lat="35.6566398" lon="10.1139963"><ele>58.0</ele><time>2026-04-25T08:52:28.888Z</time></trkpt><trkpt lat="35.6565554" lon="10.114072"><ele>58.0</ele><time>2026-04-25T08:52:29.884Z</time></trkpt><trkpt lat="35.656476" lon="10.11414"><ele>58.0</ele><time>2026-04-25T08:52:30.892Z</time></trkpt><trkpt lat="35.6563999" lon="10.11421"><ele>58.0</ele><time>2026-04-25T08:52:31.9Z</time></trkpt><trkpt lat="35.6563264" lon="10.1142782"><ele>58.0</ele><time>2026-04-25T08:52:32.897Z</time></trkpt><trkpt lat="35.6562602" lon="10.11434"><ele>58.00000000000001</ele><time>2026-04-25T08:52:33.886Z</time></trkpt><trkpt lat="35.6561981" lon="10.114395"><ele>58.0</ele><time>2026-04-25T08:52:34.889Z</time></trkpt><trkpt lat="35.6561373" lon="10.1144533"><ele>58.00000000000001</ele><time>2026-04-25T08:52:35.89Z</time></trkpt><trkpt lat="35.656075" lon="10.1145085"><ele>58.00000000000001</ele><time>2026-04-25T08:52:36.895Z</time></trkpt><trkpt lat="35.6560193" lon="10.1145534"><ele>58.0</ele><time>2026-04-25T08:52:37.883Z</time></trkpt><trkpt lat="35.655966" lon="10.1145955"><ele>58.00000000000001</ele><time>2026-04-25T08:52:38.885Z</time></trkpt><trkpt lat="35.6559095" lon="10.1146426"><ele>58.00000000000001</ele><time>2026-04-25T08:52:39.91Z</time></trkpt><trkpt lat="35.6558464" lon="10.1146985"><ele>57.99999999999999</ele><time>2026-04-25T08:52:40.9Z</time></trkpt><trkpt lat="35.6557815" lon="10.1147637"><ele>58.0</ele><time>2026-04-25T08:52:41.896Z</time></trkpt><trkpt lat="35.6557157" lon="10.1148296"><ele>58.0</ele><time>2026-04-25T08:52:42.904Z</time></trkpt><trkpt lat="35.6556436" lon="10.1148936"><ele>58.0</ele><time>2026-04-25T08:52:43.897Z</time></trkpt><trkpt lat="35.6555708" lon="10.1149619"><ele>57.99999999999999</ele><time>2026-04-25T08:52:44.888Z</time></trkpt><trkpt lat="35.655494" lon="10.1150305"><ele>58.0</ele><time>2026-04-25T08:52:45.891Z</time></trkpt><trkpt lat="35.6554171" lon="10.1151042"><ele>58.0</ele><time>2026-04-25T08:52:46.888Z</time></trkpt><trkpt lat="35.6553371" lon="10.1151764"><ele>58.0</ele><time>2026-04-25T08:52:47.909Z</time></trkpt><trkpt lat="35.6552562" lon="10.1152471"><ele>58.0</ele><time>2026-04-25T08:52:48.896Z</time></trkpt><trkpt lat="35.6551775" lon="10.1153208"><ele>58.0</ele><time>2026-04-25T08:52:49.888Z</time></trkpt><trkpt lat="35.6551017" lon="10.1153925"><ele>58.0</ele><time>2026-04-25T08:52:50.899Z</time></trkpt><trkpt lat="35.6550233" lon="10.1154594"><ele>58.166666666666664</ele><time>2026-04-25T08:52:51.882Z</time></trkpt><trkpt lat="35.6549523" lon="10.1155207"><ele>58.33333333333333</ele><time>2026-04-25T08:52:52.882Z</time></trkpt><trkpt lat="35.654885" lon="10.1155765"><ele>58.5</ele><time>2026-04-25T08:52:53.89Z</time></trkpt><trkpt lat="35.6548215" lon="10.115616"><ele>58.66666666666667</ele><time>2026-04-25T08:52:54.881Z</time></trkpt><trkpt lat="35.6547573" lon="10.1156543"><ele>58.833333333333336</ele><time>2026-04-25T08:52:55.878Z</time></trkpt><trkpt lat="35.6546572" lon="10.1157115"><ele>59.0</ele><time>2026-04-25T08:52:57.885Z</time></trkpt><trkpt lat="35.6545671" lon="10.1157319"><ele>58.833333333333336</ele><time>2026-04-25T08:52:59.877Z</time></trkpt><trkpt lat="35.6544575" lon="10.1157572"><ele>58.66666666666667</ele><time>2026-04-25T08:53:01.933Z</time></trkpt><trkpt lat="35.6544003" lon="10.1157916"><ele>58.5</ele><time>2026-04-25T08:53:02.918Z</time></trkpt><trkpt lat="35.6543532" lon="10.1158444"><ele>58.33333333333333</ele><time>2026-04-25T08:53:03.889Z</time></trkpt><trkpt lat="35.6543127" lon="10.1159127"><ele>58.166666666666664</ele><time>2026-04-25T08:53:04.888Z</time></trkpt><trkpt lat="35.6542749" lon="10.115986"><ele>58.0</ele><time>2026-04-25T08:53:05.885Z</time></trkpt><trkpt lat="35.6542325" lon="10.1160652"><ele>58.4</ele><time>2026-04-25T08:53:06.896Z</time></trkpt><trkpt lat="35.6541725" lon="10.1161494"><ele>58.8</ele><time>2026-04-25T08:53:07.895Z</time></trkpt><trkpt lat="35.6541033" lon="10.1162458"><ele>59.2</ele><time>2026-04-25T08:53:08.892Z</time></trkpt><trkpt lat="35.6540138" lon="10.1163364"><ele>59.6</ele><time>2026-04-25T08:53:09.896Z</time></trkpt><trkpt lat="35.6539168" lon="10.1164214"><ele>60.0</ele><time>2026-04-25T08:53:10.894Z</time></trkpt><trkpt lat="35.6538175" lon="10.1165079"><ele>60.0</ele><time>2026-04-25T08:53:11.897Z</time></trkpt><trkpt lat="35.6537172" lon="10.1165977"><ele>60.0</ele><time>2026-04-25T08:53:12.883Z</time></trkpt><trkpt lat="35.6536141" lon="10.1166893"><ele>60.0</ele><time>2026-04-25T08:53:13.894Z</time></trkpt><trkpt lat="35.6535068" lon="10.1167812"><ele>60.0</ele><time>2026-04-25T08:53:14.892Z</time></trkpt><trkpt lat="35.6533976" lon="10.1168766"><ele>60.0</ele><time>2026-04-25T08:53:15.897Z</time></trkpt><trkpt lat="35.6532928" lon="10.116967"><ele>60.0</ele><time>2026-04-25T08:53:16.895Z</time></trkpt><trkpt lat="35.6531907" lon="10.1170588"><ele>60.0</ele><time>2026-04-25T08:53:17.893Z</time></trkpt><trkpt lat="35.653085" lon="10.1171511"><ele>60.0</ele><time>2026-04-25T08:53:18.895Z</time></trkpt><trkpt lat="35.652978" lon="10.1172455"><ele>60.0</ele><time>2026-04-25T08:53:19.899Z</time></trkpt><trkpt lat="35.6528732" lon="10.1173418"><ele>60.0</ele><time>2026-04-25T08:53:20.891Z</time></trkpt><trkpt lat="35.6527696" lon="10.1174381"><ele>60.0</ele><time>2026-04-25T08:53:21.895Z</time></trkpt><trkpt lat="35.6526657" lon="10.11753"><ele>60.0</ele><time>2026-04-25T08:53:22.895Z</time></trkpt><trkpt lat="35.6525646" lon="10.1176219"><ele>60.25</ele><time>2026-04-25T08:53:23.896Z</time></trkpt><trkpt lat="35.6524608" lon="10.1177189"><ele>60.5</ele><time>2026-04-25T08:53:24.897Z</time></trkpt><trkpt lat="35.6523498" lon="10.117816"><ele>60.75</ele><time>2026-04-25T08:53:25.909Z</time></trkpt><trkpt lat="35.6522376" lon="10.1179156"><ele>61.0</ele><time>2026-04-25T08:53:26.904Z</time></trkpt><trkpt lat="35.6521233" lon="10.1180108"><ele>61.0</ele><time>2026-04-25T08:53:27.898Z</time></trkpt><trkpt lat="35.6520068" lon="10.1181044"><ele>61.0</ele><time>2026-04-25T08:53:28.902Z</time></trkpt><trkpt lat="35.6518929" lon="10.118202"><ele>61.0</ele><time>2026-04-25T08:53:29.888Z</time></trkpt><trkpt lat="35.6517753" lon="10.1182971"><ele>61.0</ele><time>2026-04-25T08:53:30.899Z</time></trkpt><trkpt lat="35.651656" lon="10.1184071"><ele>60.666666666666664</ele><time>2026-04-25T08:53:31.883Z</time></trkpt><trkpt lat="35.651526" lon="10.1185297"><ele>60.33333333333333</ele><time>2026-04-25T08:53:32.892Z</time></trkpt><trkpt lat="35.6513745" lon="10.1186597"><ele>60.0</ele><time>2026-04-25T08:53:33.888Z</time></trkpt><trkpt lat="35.6512153" lon="10.1187804"><ele>60.33333333333333</ele><time>2026-04-25T08:53:34.913Z</time></trkpt><trkpt lat="35.6510575" lon="10.1188947"><ele>60.666666666666664</ele><time>2026-04-25T08:53:35.888Z</time></trkpt><trkpt lat="35.6509012" lon="10.1190094"><ele>61.0</ele><time>2026-04-25T08:53:36.881Z</time></trkpt><trkpt lat="35.6507466" lon="10.1191235"><ele>60.33333333333333</ele><time>2026-04-25T08:53:37.902Z</time></trkpt><trkpt lat="35.6505924" lon="10.1192383"><ele>59.66666666666667</ele><time>2026-04-25T08:53:38.906Z</time></trkpt><trkpt lat="35.6504381" lon="10.1193587"><ele>59.0</ele><time>2026-04-25T08:53:39.896Z</time></trkpt><trkpt lat="35.650283" lon="10.1194777"><ele>59.0</ele><time>2026-04-25T08:53:40.902Z</time></trkpt><trkpt lat="35.650129" lon="10.119594"><ele>59.0</ele><time>2026-04-25T08:53:41.88Z</time></trkpt><trkpt lat="35.6499819" lon="10.1197071"><ele>59.0</ele><time>2026-04-25T08:53:42.947Z</time></trkpt><trkpt lat="35.6498376" lon="10.1198122"><ele>59.333333333333336</ele><time>2026-04-25T08:53:43.891Z</time></trkpt><trkpt lat="35.6496959" lon="10.1199136"><ele>59.66666666666667</ele><time>2026-04-25T08:53:44.899Z</time></trkpt><trkpt lat="35.6495512" lon="10.1200148"><ele>60.0</ele><time>2026-04-25T08:53:45.908Z</time></trkpt><trkpt lat="35.6494001" lon="10.1201164"><ele>60.0</ele><time>2026-04-25T08:53:46.879Z</time></trkpt><trkpt lat="35.6492474" lon="10.1202154"><ele>60.0</ele><time>2026-04-25T08:53:47.897Z</time></trkpt><trkpt lat="35.6490952" lon="10.1203127"><ele>60.0</ele><time>2026-04-25T08:53:48.902Z</time></trkpt><trkpt lat="35.6489402" lon="10.1204151"><ele>60.0</ele><time>2026-04-25T08:53:49.894Z</time></trkpt><trkpt lat="35.6487849" lon="10.1205129"><ele>60.0</ele><time>2026-04-25T08:53:50.908Z</time></trkpt><trkpt lat="35.6486287" lon="10.1206142"><ele>60.0</ele><time>2026-04-25T08:53:51.893Z</time></trkpt><trkpt lat="35.6484729" lon="10.120713"><ele>60.66666666666667</ele><time>2026-04-25T08:53:52.901Z</time></trkpt><trkpt lat="35.6483165" lon="10.1208031"><ele>61.333333333333336</ele><time>2026-04-25T08:53:53.905Z</time></trkpt><trkpt lat="35.6481654" lon="10.1208947"><ele>62.0</ele><time>2026-04-25T08:53:54.905Z</time></trkpt><trkpt lat="35.6480121" lon="10.1209904"><ele>62.0</ele><time>2026-04-25T08:53:55.891Z</time></trkpt><trkpt lat="35.6478603" lon="10.1210861"><ele>62.0</ele><time>2026-04-25T08:53:56.889Z</time></trkpt><trkpt lat="35.6476968" lon="10.1211772"><ele>62.0</ele><time>2026-04-25T08:53:57.899Z</time></trkpt><trkpt lat="35.6475376" lon="10.1212738"><ele>62.0</ele><time>2026-04-25T08:53:58.906Z</time></trkpt><trkpt lat="35.6473798" lon="10.1213733"><ele>62.0</ele><time>2026-04-25T08:53:59.891Z</time></trkpt><trkpt lat="35.647224" lon="10.1214675"><ele>62.0</ele><time>2026-04-25T08:54:00.895Z</time></trkpt><trkpt lat="35.6470723" lon="10.1215673"><ele>62.333333333333336</ele><time>2026-04-25T08:54:01.898Z</time></trkpt><trkpt lat="35.646914" lon="10.1216551"><ele>62.66666666666667</ele><time>2026-04-25T08:54:02.898Z</time></trkpt><trkpt lat="35.6467659" lon="10.1217363"><ele>63.0</ele><time>2026-04-25T08:54:03.897Z</time></trkpt><trkpt lat="35.6466271" lon="10.1218123"><ele>63.0</ele><time>2026-04-25T08:54:04.911Z</time></trkpt><trkpt lat="35.6464903" lon="10.1218957"><ele>63.0</ele><time>2026-04-25T08:54:05.896Z</time></trkpt><trkpt lat="35.6463553" lon="10.121974"><ele>63.0</ele><time>2026-04-25T08:54:06.895Z</time></trkpt><trkpt lat="35.6462256" lon="10.1220466"><ele>63.0</ele><time>2026-04-25T08:54:07.909Z</time></trkpt><trkpt lat="35.6460994" lon="10.1221182"><ele>63.0</ele><time>2026-04-25T08:54:08.905Z</time></trkpt><trkpt lat="35.6459679" lon="10.122195"><ele>63.0</ele><time>2026-04-25T08:54:09.907Z</time></trkpt><trkpt lat="35.6458366" lon="10.1222749"><ele>63.0</ele><time>2026-04-25T08:54:10.892Z</time></trkpt><trkpt lat="35.6457043" lon="10.1223511"><ele>63.0</ele><time>2026-04-25T08:54:11.881Z</time></trkpt><trkpt lat="35.6455694" lon="10.1224348"><ele>63.0</ele><time>2026-04-25T08:54:12.906Z</time></trkpt><trkpt lat="35.6454341" lon="10.1225175"><ele>63.0</ele><time>2026-04-25T08:54:13.897Z</time></trkpt><trkpt lat="35.6453004" lon="10.1225965"><ele>63.0</ele><time>2026-04-25T08:54:14.885Z</time></trkpt><trkpt lat="35.6451658" lon="10.1226748"><ele>63.0</ele><time>2026-04-25T08:54:15.899Z</time></trkpt><trkpt lat="35.6450329" lon="10.122754"><ele>63.0</ele><time>2026-04-25T08:54:16.895Z</time></trkpt><trkpt lat="35.644902" lon="10.122834"><ele>63.0</ele><time>2026-04-25T08:54:17.905Z</time></trkpt><trkpt lat="35.6447695" lon="10.1229123"><ele>63.0</ele><time>2026-04-25T08:54:18.893Z</time></trkpt><trkpt lat="35.64464" lon="10.1229916"><ele>63.0</ele><time>2026-04-25T08:54:19.897Z</time></trkpt><trkpt lat="35.6445016" lon="10.1230695"><ele>62.66666666666667</ele><time>2026-04-25T08:54:20.889Z</time></trkpt><trkpt lat="35.6443635" lon="10.123148"><ele>62.333333333333336</ele><time>2026-04-25T08:54:21.89Z</time></trkpt><trkpt lat="35.6442228" lon="10.1232311"><ele>62.0</ele><time>2026-04-25T08:54:22.9Z</time></trkpt><trkpt lat="35.6440836" lon="10.1233103"><ele>62.0</ele><time>2026-04-25T08:54:23.898Z</time></trkpt><trkpt lat="35.6439446" lon="10.1233952"><ele>62.0</ele><time>2026-04-25T08:54:24.898Z</time></trkpt><trkpt lat="35.6438041" lon="10.1234835"><ele>62.0</ele><time>2026-04-25T08:54:25.898Z</time></trkpt><trkpt lat="35.6436651" lon="10.1235736"><ele>62.0</ele><time>2026-04-25T08:54:26.904Z</time></trkpt><trkpt lat="35.643527" lon="10.1236651"><ele>62.0</ele><time>2026-04-25T08:54:27.897Z</time></trkpt><trkpt lat="35.6433871" lon="10.1237582"><ele>62.0</ele><time>2026-04-25T08:54:28.896Z</time></trkpt><trkpt lat="35.6432453" lon="10.1238516"><ele>62.0</ele><time>2026-04-25T08:54:29.897Z</time></trkpt><trkpt lat="35.6431038" lon="10.1239436"><ele>62.0</ele><time>2026-04-25T08:54:30.902Z</time></trkpt><trkpt lat="35.6429633" lon="10.1240382"><ele>62.0</ele><time>2026-04-25T08:54:31.891Z</time></trkpt><trkpt lat="35.6428223" lon="10.1241298"><ele>62.333333333333336</ele><time>2026-04-25T08:54:32.896Z</time></trkpt><trkpt lat="35.6426836" lon="10.1242238"><ele>62.66666666666667</ele><time>2026-04-25T08:54:33.9Z</time></trkpt><trkpt lat="35.6425424" lon="10.1243226"><ele>63.0</ele><time>2026-04-25T08:54:34.895Z</time></trkpt><trkpt lat="35.6424063" lon="10.1244217"><ele>63.0</ele><time>2026-04-25T08:54:35.882Z</time></trkpt><trkpt lat="35.6422644" lon="10.1245184"><ele>63.0</ele><time>2026-04-25T08:54:36.89Z</time></trkpt><trkpt lat="35.6421265" lon="10.1246143"><ele>63.0</ele><time>2026-04-25T08:54:37.896Z</time></trkpt><trkpt lat="35.6419852" lon="10.1247147"><ele>63.0</ele><time>2026-04-25T08:54:38.914Z</time></trkpt><trkpt lat="35.6418398" lon="10.1248168"><ele>63.0</ele><time>2026-04-25T08:54:39.895Z</time></trkpt><trkpt lat="35.6416925" lon="10.124909"><ele>63.0</ele><time>2026-04-25T08:54:40.895Z</time></trkpt><trkpt lat="35.6415455" lon="10.1250063"><ele>62.66666666666667</ele><time>2026-04-25T08:54:41.906Z</time></trkpt><trkpt lat="35.6414031" lon="10.125104"><ele>62.333333333333336</ele><time>2026-04-25T08:54:42.892Z</time></trkpt><trkpt lat="35.641263" lon="10.1252002"><ele>62.0</ele><time>2026-04-25T08:54:43.89Z</time></trkpt><trkpt lat="35.6411208" lon="10.1252976"><ele>62.66666666666667</ele><time>2026-04-25T08:54:44.889Z</time></trkpt><trkpt lat="35.6409813" lon="10.1253907"><ele>63.33333333333333</ele><time>2026-04-25T08:54:45.901Z</time></trkpt><trkpt lat="35.6408404" lon="10.1254867"><ele>64.0</ele><time>2026-04-25T08:54:46.896Z</time></trkpt><trkpt lat="35.6406949" lon="10.1255881"><ele>64.0</ele><time>2026-04-25T08:54:47.896Z</time></trkpt><trkpt lat="35.6405478" lon="10.1256908"><ele>64.0</ele><time>2026-04-25T08:54:48.887Z</time></trkpt><trkpt lat="35.6403899" lon="10.125798"><ele>64.0</ele><time>2026-04-25T08:54:49.886Z</time></trkpt><trkpt lat="35.6402265" lon="10.1259073"><ele>64.0</ele><time>2026-04-25T08:54:50.888Z</time></trkpt><trkpt lat="35.640061" lon="10.1260232"><ele>64.0</ele><time>2026-04-25T08:54:51.899Z</time></trkpt><trkpt lat="35.6398942" lon="10.1261366"><ele>64.0</ele><time>2026-04-25T08:54:52.899Z</time></trkpt><trkpt lat="35.6397278" lon="10.126247"><ele>64.0</ele><time>2026-04-25T08:54:53.889Z</time></trkpt><trkpt lat="35.6395622" lon="10.1263627"><ele>64.0</ele><time>2026-04-25T08:54:54.884Z</time></trkpt><trkpt lat="35.6393914" lon="10.1264747"><ele>64.0</ele><time>2026-04-25T08:54:55.882Z</time></trkpt><trkpt lat="35.6392274" lon="10.126583"><ele>64.0</ele><time>2026-04-25T08:54:56.9Z</time></trkpt><trkpt lat="35.6390557" lon="10.1266915"><ele>64.0</ele><time>2026-04-25T08:54:57.894Z</time></trkpt><trkpt lat="35.6388901" lon="10.1268063"><ele>64.0</ele><time>2026-04-25T08:54:58.892Z</time></trkpt><trkpt lat="35.6387209" lon="10.126924"><ele>63.666666666666664</ele><time>2026-04-25T08:54:59.89Z</time></trkpt><trkpt lat="35.638551" lon="10.1270395"><ele>63.33333333333333</ele><time>2026-04-25T08:55:00.893Z</time></trkpt><trkpt lat="35.638381" lon="10.1271467"><ele>63.0</ele><time>2026-04-25T08:55:01.902Z</time></trkpt><trkpt lat="35.6382131" lon="10.1272563"><ele>63.0</ele><time>2026-04-25T08:55:02.886Z</time></trkpt><trkpt lat="35.6380478" lon="10.1273664"><ele>63.0</ele><time>2026-04-25T08:55:03.898Z</time></trkpt><trkpt lat="35.6378789" lon="10.1274829"><ele>63.0</ele><time>2026-04-25T08:55:04.891Z</time></trkpt><trkpt lat="35.6377054" lon="10.127595"><ele>63.66666666666667</ele><time>2026-04-25T08:55:05.886Z</time></trkpt><trkpt lat="35.6375343" lon="10.1277052"><ele>64.33333333333334</ele><time>2026-04-25T08:55:06.89Z</time></trkpt><trkpt lat="35.6373675" lon="10.1278124"><ele>65.0</ele><time>2026-04-25T08:55:07.881Z</time></trkpt><trkpt lat="35.6371959" lon="10.1279237"><ele>65.0</ele><time>2026-04-25T08:55:08.889Z</time></trkpt><trkpt lat="35.6370258" lon="10.1280312"><ele>65.0</ele><time>2026-04-25T08:55:09.892Z</time></trkpt><trkpt lat="35.6368554" lon="10.1281436"><ele>65.0</ele><time>2026-04-25T08:55:10.892Z</time></trkpt><trkpt lat="35.6366813" lon="10.1282527"><ele>64.0</ele><time>2026-04-25T08:55:11.885Z</time></trkpt><trkpt lat="35.6365115" lon="10.1283607"><ele>63.0</ele><time>2026-04-25T08:55:12.897Z</time></trkpt><trkpt lat="35.6363397" lon="10.1284712"><ele>62.0</ele><time>2026-04-25T08:55:13.898Z</time></trkpt><trkpt lat="35.6361697" lon="10.1285817"><ele>63.333333333333336</ele><time>2026-04-25T08:55:14.894Z</time></trkpt><trkpt lat="35.636" lon="10.1286917"><ele>64.66666666666667</ele><time>2026-04-25T08:55:15.911Z</time></trkpt><trkpt lat="35.6358278" lon="10.1288008"><ele>66.0</ele><time>2026-04-25T08:55:16.901Z</time></trkpt><trkpt lat="35.6356537" lon="10.128908"><ele>66.0</ele><time>2026-04-25T08:55:17.894Z</time></trkpt><trkpt lat="35.635484" lon="10.1290208"><ele>66.0</ele><time>2026-04-25T08:55:18.89Z</time></trkpt><trkpt lat="35.6353107" lon="10.1291355"><ele>66.0</ele><time>2026-04-25T08:55:19.888Z</time></trkpt><trkpt lat="35.6351436" lon="10.1292546"><ele>65.66666666666667</ele><time>2026-04-25T08:55:20.895Z</time></trkpt><trkpt lat="35.6349762" lon="10.1293685"><ele>65.33333333333334</ele><time>2026-04-25T08:55:21.896Z</time></trkpt><trkpt lat="35.634815" lon="10.129479"><ele>65.0</ele><time>2026-04-25T08:55:22.899Z</time></trkpt><trkpt lat="35.6346447" lon="10.129597"><ele>65.0</ele><time>2026-04-25T08:55:23.891Z</time></trkpt><trkpt lat="35.6344791" lon="10.129716"><ele>65.0</ele><time>2026-04-25T08:55:24.899Z</time></trkpt><trkpt lat="35.6343144" lon="10.1298379"><ele>65.0</ele><time>2026-04-25T08:55:25.893Z</time></trkpt><trkpt lat="35.6341524" lon="10.129957"><ele>65.33333333333334</ele><time>2026-04-25T08:55:26.891Z</time></trkpt><trkpt lat="35.6339901" lon="10.1300799"><ele>65.66666666666667</ele><time>2026-04-25T08:55:27.897Z</time></trkpt><trkpt lat="35.633828" lon="10.1302063"><ele>66.0</ele><time>2026-04-25T08:55:28.9Z</time></trkpt><trkpt lat="35.6336673" lon="10.1303413"><ele>65.66666666666667</ele><time>2026-04-25T08:55:29.898Z</time></trkpt><trkpt lat="35.6335099" lon="10.1304807"><ele>65.33333333333334</ele><time>2026-04-25T08:55:30.887Z</time></trkpt><trkpt lat="35.6333538" lon="10.1306245"><ele>65.0</ele><time>2026-04-25T08:55:31.894Z</time></trkpt><trkpt lat="35.6331977" lon="10.1307678"><ele>65.66666666666667</ele><time>2026-04-25T08:55:32.898Z</time></trkpt><trkpt lat="35.6330432" lon="10.1309148"><ele>66.33333333333333</ele><time>2026-04-25T08:55:33.909Z</time></trkpt><trkpt lat="35.6328907" lon="10.131064"><ele>67.0</ele><time>2026-04-25T08:55:34.898Z</time></trkpt><trkpt lat="35.6327423" lon="10.1312114"><ele>67.0</ele><time>2026-04-25T08:55:35.893Z</time></trkpt><trkpt lat="35.6325952" lon="10.1313623"><ele>67.0</ele><time>2026-04-25T08:55:36.892Z</time></trkpt><trkpt lat="35.6324467" lon="10.1315111"><ele>67.0</ele><time>2026-04-25T08:55:37.888Z</time></trkpt><trkpt lat="35.6322969" lon="10.1316584"><ele>66.33333333333333</ele><time>2026-04-25T08:55:38.887Z</time></trkpt><trkpt lat="35.6321468" lon="10.1318059"><ele>65.66666666666667</ele><time>2026-04-25T08:55:39.91Z</time></trkpt><trkpt lat="35.6319998" lon="10.1319576"><ele>65.0</ele><time>2026-04-25T08:55:40.884Z</time></trkpt><trkpt lat="35.6318498" lon="10.1321084"><ele>65.0</ele><time>2026-04-25T08:55:41.902Z</time></trkpt><trkpt lat="35.6317025" lon="10.1322627"><ele>65.0</ele><time>2026-04-25T08:55:42.908Z</time></trkpt><trkpt lat="35.6315548" lon="10.132421"><ele>65.0</ele><time>2026-04-25T08:55:43.897Z</time></trkpt><trkpt lat="35.6314122" lon="10.1325692"><ele>65.0</ele><time>2026-04-25T08:55:44.886Z</time></trkpt><trkpt lat="35.6312863" lon="10.1327164"><ele>65.0</ele><time>2026-04-25T08:55:45.884Z</time></trkpt><trkpt lat="35.631159" lon="10.1328536"><ele>65.0</ele><time>2026-04-25T08:55:46.883Z</time></trkpt><trkpt lat="35.6310367" lon="10.1329886"><ele>65.0</ele><time>2026-04-25T08:55:47.89Z</time></trkpt><trkpt lat="35.6309202" lon="10.133121"><ele>65.0</ele><time>2026-04-25T08:55:48.887Z</time></trkpt><trkpt lat="35.6307995" lon="10.1332512"><ele>65.0</ele><time>2026-04-25T08:55:49.89Z</time></trkpt><trkpt lat="35.6306773" lon="10.1333811"><ele>65.0</ele><time>2026-04-25T08:55:50.891Z</time></trkpt><trkpt lat="35.6305524" lon="10.1335067"><ele>65.0</ele><time>2026-04-25T08:55:51.893Z</time></trkpt><trkpt lat="35.6304283" lon="10.1336391"><ele>65.0</ele><time>2026-04-25T08:55:52.89Z</time></trkpt><trkpt lat="35.6303066" lon="10.1337687"><ele>65.0</ele><time>2026-04-25T08:55:53.9Z</time></trkpt><trkpt lat="35.6301867" lon="10.1338941"><ele>65.0</ele><time>2026-04-25T08:55:54.887Z</time></trkpt><trkpt lat="35.6300684" lon="10.1340147"><ele>65.0</ele><time>2026-04-25T08:55:55.895Z</time></trkpt><trkpt lat="35.6299489" lon="10.1341391"><ele>64.66666666666667</ele><time>2026-04-25T08:55:56.888Z</time></trkpt><trkpt lat="35.6298264" lon="10.134267"><ele>64.33333333333333</ele><time>2026-04-25T08:55:57.886Z</time></trkpt><trkpt lat="35.6296994" lon="10.1343966"><ele>64.0</ele><time>2026-04-25T08:55:58.899Z</time></trkpt><trkpt lat="35.6295769" lon="10.1345238"><ele>64.33333333333333</ele><time>2026-04-25T08:55:59.94Z</time></trkpt><trkpt lat="35.6294559" lon="10.1346514"><ele>64.66666666666667</ele><time>2026-04-25T08:56:00.894Z</time></trkpt><trkpt lat="35.6293367" lon="10.1347817"><ele>65.0</ele><time>2026-04-25T08:56:01.886Z</time></trkpt><trkpt lat="35.6292137" lon="10.1349118"><ele>65.0</ele><time>2026-04-25T08:56:02.885Z</time></trkpt><trkpt lat="35.629093" lon="10.1350397"><ele>65.0</ele><time>2026-04-25T08:56:03.897Z</time></trkpt><trkpt lat="35.6289682" lon="10.1351667"><ele>65.0</ele><time>2026-04-25T08:56:04.89Z</time></trkpt><trkpt lat="35.6288463" lon="10.1352966"><ele>65.0</ele><time>2026-04-25T08:56:05.889Z</time></trkpt><trkpt lat="35.6287195" lon="10.1354287"><ele>65.0</ele><time>2026-04-25T08:56:06.883Z</time></trkpt><trkpt lat="35.6285906" lon="10.1355645"><ele>65.0</ele><time>2026-04-25T08:56:07.894Z</time></trkpt><trkpt lat="35.6284622" lon="10.1356975"><ele>64.66666666666667</ele><time>2026-04-25T08:56:08.894Z</time></trkpt><trkpt lat="35.6283348" lon="10.1358342"><ele>64.33333333333333</ele><time>2026-04-25T08:56:09.892Z</time></trkpt><trkpt lat="35.628207" lon="10.135976"><ele>64.0</ele><time>2026-04-25T08:56:10.88Z</time></trkpt><trkpt lat="35.6280807" lon="10.1361084"><ele>64.0</ele><time>2026-04-25T08:56:11.895Z</time></trkpt><trkpt lat="35.6279498" lon="10.1362479"><ele>64.0</ele><time>2026-04-25T08:56:12.884Z</time></trkpt><trkpt lat="35.6278211" lon="10.136383"><ele>64.0</ele><time>2026-04-25T08:56:13.88Z</time></trkpt><trkpt lat="35.6276883" lon="10.1365156"><ele>64.0</ele><time>2026-04-25T08:56:14.885Z</time></trkpt><trkpt lat="35.6275552" lon="10.136652"><ele>64.0</ele><time>2026-04-25T08:56:15.898Z</time></trkpt><trkpt lat="35.6274254" lon="10.1367863"><ele>64.0</ele><time>2026-04-25T08:56:16.886Z</time></trkpt><trkpt lat="35.6272956" lon="10.1369247"><ele>64.0</ele><time>2026-04-25T08:56:17.885Z</time></trkpt><trkpt lat="35.6271635" lon="10.1370682"><ele>64.0</ele><time>2026-04-25T08:56:18.887Z</time></trkpt><trkpt lat="35.6270265" lon="10.137213"><ele>64.0</ele><time>2026-04-25T08:56:19.893Z</time></trkpt><trkpt lat="35.6268878" lon="10.1373556"><ele>64.66666666666666</ele><time>2026-04-25T08:56:20.888Z</time></trkpt><trkpt lat="35.6267475" lon="10.1374987"><ele>65.33333333333333</ele><time>2026-04-25T08:56:21.888Z</time></trkpt><trkpt lat="35.6266032" lon="10.1376386"><ele>66.0</ele><time>2026-04-25T08:56:22.899Z</time></trkpt><trkpt lat="35.6264642" lon="10.1377861"><ele>66.0</ele><time>2026-04-25T08:56:23.89Z</time></trkpt><trkpt lat="35.6263229" lon="10.1379322"><ele>66.0</ele><time>2026-04-25T08:56:24.91Z</time></trkpt><trkpt lat="35.6261831" lon="10.138079"><ele>66.0</ele><time>2026-04-25T08:56:25.887Z</time></trkpt><trkpt lat="35.6260449" lon="10.1382219"><ele>65.66666666666667</ele><time>2026-04-25T08:56:26.89Z</time></trkpt><trkpt lat="35.6259089" lon="10.1383655"><ele>65.33333333333334</ele><time>2026-04-25T08:56:27.881Z</time></trkpt><trkpt lat="35.6257688" lon="10.1385099"><ele>65.0</ele><time>2026-04-25T08:56:28.887Z</time></trkpt><trkpt lat="35.625631" lon="10.138652"><ele>65.0</ele><time>2026-04-25T08:56:29.904Z</time></trkpt><trkpt lat="35.6254975" lon="10.1387896"><ele>65.0</ele><time>2026-04-25T08:56:30.903Z</time></trkpt><trkpt lat="35.6253668" lon="10.1389257"><ele>65.0</ele><time>2026-04-25T08:56:31.903Z</time></trkpt><trkpt lat="35.6252367" lon="10.139062"><ele>65.0</ele><time>2026-04-25T08:56:32.884Z</time></trkpt><trkpt lat="35.6251107" lon="10.1391983"><ele>65.0</ele><time>2026-04-25T08:56:33.886Z</time></trkpt><trkpt lat="35.6249846" lon="10.1393303"><ele>65.0</ele><time>2026-04-25T08:56:34.892Z</time></trkpt><trkpt lat="35.6248541" lon="10.1394592"><ele>65.0</ele><time>2026-04-25T08:56:35.891Z</time></trkpt><trkpt lat="35.6247232" lon="10.1395866"><ele>65.0</ele><time>2026-04-25T08:56:36.884Z</time></trkpt><trkpt lat="35.6245924" lon="10.1397033"><ele>65.0</ele><time>2026-04-25T08:56:37.889Z</time></trkpt><trkpt lat="35.6244581" lon="10.1398149"><ele>65.33333333333334</ele><time>2026-04-25T08:56:38.882Z</time></trkpt><trkpt lat="35.6243248" lon="10.1399269"><ele>65.66666666666667</ele><time>2026-04-25T08:56:39.889Z</time></trkpt><trkpt lat="35.6241907" lon="10.1400365"><ele>66.0</ele><time>2026-04-25T08:56:40.889Z</time></trkpt><trkpt lat="35.6240569" lon="10.1401466"><ele>66.0</ele><time>2026-04-25T08:56:41.902Z</time></trkpt><trkpt lat="35.6239252" lon="10.140253"><ele>66.0</ele><time>2026-04-25T08:56:42.88Z</time></trkpt><trkpt lat="35.6237985" lon="10.1403668"><ele>66.0</ele><time>2026-04-25T08:56:43.901Z</time></trkpt><trkpt lat="35.6236737" lon="10.1404763"><ele>65.33333333333333</ele><time>2026-04-25T08:56:44.895Z</time></trkpt><trkpt lat="35.6235511" lon="10.1405893"><ele>64.66666666666666</ele><time>2026-04-25T08:56:45.897Z</time></trkpt><trkpt lat="35.6234278" lon="10.1407057"><ele>64.0</ele><time>2026-04-25T08:56:46.892Z</time></trkpt><trkpt lat="35.6233057" lon="10.1408201"><ele>64.0</ele><time>2026-04-25T08:56:47.893Z</time></trkpt><trkpt lat="35.6231817" lon="10.1409341"><ele>64.0</ele><time>2026-04-25T08:56:48.89Z</time></trkpt><trkpt lat="35.6230561" lon="10.1410467"><ele>64.0</ele><time>2026-04-25T08:56:49.888Z</time></trkpt><trkpt lat="35.6229344" lon="10.1411646"><ele>63.666666666666664</ele><time>2026-04-25T08:56:50.884Z</time></trkpt><trkpt lat="35.622811" lon="10.1412842"><ele>63.33333333333333</ele><time>2026-04-25T08:56:51.896Z</time></trkpt><trkpt lat="35.622683" lon="10.1414024"><ele>63.0</ele><time>2026-04-25T08:56:52.909Z</time></trkpt><trkpt lat="35.6225577" lon="10.1415209"><ele>62.66666666666667</ele><time>2026-04-25T08:56:53.893Z</time></trkpt><trkpt lat="35.6224251" lon="10.1416525"><ele>62.333333333333336</ele><time>2026-04-25T08:56:54.892Z</time></trkpt><trkpt lat="35.6222922" lon="10.1417828"><ele>62.0</ele><time>2026-04-25T08:56:55.934Z</time></trkpt><trkpt lat="35.6221539" lon="10.1419135"><ele>62.0</ele><time>2026-04-25T08:56:56.892Z</time></trkpt><trkpt lat="35.6220159" lon="10.1420449"><ele>62.0</ele><time>2026-04-25T08:56:57.882Z</time></trkpt><trkpt lat="35.6218712" lon="10.1421901"><ele>62.0</ele><time>2026-04-25T08:56:58.912Z</time></trkpt><trkpt lat="35.6217232" lon="10.1423409"><ele>63.333333333333336</ele><time>2026-04-25T08:56:59.899Z</time></trkpt><trkpt lat="35.6215726" lon="10.1424959"><ele>64.66666666666667</ele><time>2026-04-25T08:57:00.892Z</time></trkpt><trkpt lat="35.6214246" lon="10.1426411"><ele>66.0</ele><time>2026-04-25T08:57:01.894Z</time></trkpt><trkpt lat="35.6212845" lon="10.1427666"><ele>66.0</ele><time>2026-04-25T08:57:02.893Z</time></trkpt><trkpt lat="35.6211534" lon="10.1428845"><ele>66.0</ele><time>2026-04-25T08:57:03.893Z</time></trkpt><trkpt lat="35.6210296" lon="10.1429973"><ele>66.0</ele><time>2026-04-25T08:57:04.894Z</time></trkpt><trkpt lat="35.6209047" lon="10.1431108"><ele>66.0</ele><time>2026-04-25T08:57:05.894Z</time></trkpt><trkpt lat="35.6206719" lon="10.1433324"><ele>66.0</ele><time>2026-04-25T08:57:07.908Z</time></trkpt><trkpt lat="35.6205641" lon="10.1434364"><ele>66.0</ele><time>2026-04-25T08:57:08.896Z</time></trkpt><trkpt lat="35.6204535" lon="10.143542"><ele>66.0</ele><time>2026-04-25T08:57:09.887Z</time></trkpt><trkpt lat="35.6203362" lon="10.1436472"><ele>66.0</ele><time>2026-04-25T08:57:10.882Z</time></trkpt><trkpt lat="35.6202228" lon="10.14375"><ele>66.0</ele><time>2026-04-25T08:57:11.885Z</time></trkpt><trkpt lat="35.6201098" lon="10.1438562"><ele>66.0</ele><time>2026-04-25T08:57:12.902Z</time></trkpt><trkpt lat="35.6199968" lon="10.1439651"><ele>66.0</ele><time>2026-04-25T08:57:13.887Z</time></trkpt><trkpt lat="35.6198845" lon="10.144073"><ele>66.0</ele><time>2026-04-25T08:57:14.905Z</time></trkpt><trkpt lat="35.6197747" lon="10.1441819"><ele>66.0</ele><time>2026-04-25T08:57:15.902Z</time></trkpt><trkpt lat="35.6196632" lon="10.1442908"><ele>66.0</ele><time>2026-04-25T08:57:16.896Z</time></trkpt><trkpt lat="35.6195508" lon="10.1444039"><ele>66.33333333333333</ele><time>2026-04-25T08:57:17.891Z</time></trkpt><trkpt lat="35.6194335" lon="10.1445234"><ele>66.66666666666666</ele><time>2026-04-25T08:57:18.897Z</time></trkpt><trkpt lat="35.6193223" lon="10.1446537"><ele>67.0</ele><time>2026-04-25T08:57:19.896Z</time></trkpt><trkpt lat="35.619205" lon="10.1448075"><ele>67.33333333333333</ele><time>2026-04-25T08:57:20.891Z</time></trkpt><trkpt lat="35.6190792" lon="10.1449903"><ele>67.66666666666667</ele><time>2026-04-25T08:57:21.911Z</time></trkpt><trkpt lat="35.6189432" lon="10.1451932"><ele>68.0</ele><time>2026-04-25T08:57:22.893Z</time></trkpt><trkpt lat="35.6188005" lon="10.1453932"><ele>68.0</ele><time>2026-04-25T08:57:23.879Z</time></trkpt><trkpt lat="35.6186628" lon="10.1455975"><ele>68.0</ele><time>2026-04-25T08:57:24.889Z</time></trkpt><trkpt lat="35.6185209" lon="10.1457982"><ele>68.0</ele><time>2026-04-25T08:57:25.898Z</time></trkpt><trkpt lat="35.6183763" lon="10.1459924"><ele>67.33333333333334</ele><time>2026-04-25T08:57:26.877Z</time></trkpt><trkpt lat="35.6182435" lon="10.146186"><ele>66.66666666666667</ele><time>2026-04-25T08:57:27.889Z</time></trkpt><trkpt lat="35.6181219" lon="10.1463868"><ele>66.0</ele><time>2026-04-25T08:57:28.892Z</time></trkpt><trkpt lat="35.6179955" lon="10.1465831"><ele>65.66666666666667</ele><time>2026-04-25T08:57:29.889Z</time></trkpt><trkpt lat="35.6178731" lon="10.1467827"><ele>65.33333333333334</ele><time>2026-04-25T08:57:30.89Z</time></trkpt><trkpt lat="35.6177552" lon="10.1469756"><ele>65.0</ele><time>2026-04-25T08:57:31.88Z</time></trkpt><trkpt lat="35.617632" lon="10.1471655"><ele>65.66666666666667</ele><time>2026-04-25T08:57:32.897Z</time></trkpt><trkpt lat="35.6175075" lon="10.1473498"><ele>66.33333333333333</ele><time>2026-04-25T08:57:33.88Z</time></trkpt><trkpt lat="35.6173844" lon="10.1475302"><ele>67.0</ele><time>2026-04-25T08:57:34.893Z</time></trkpt><trkpt lat="35.6172668" lon="10.1477154"><ele>67.33333333333333</ele><time>2026-04-25T08:57:35.927Z</time></trkpt><trkpt lat="35.6171489" lon="10.1479002"><ele>67.66666666666667</ele><time>2026-04-25T08:57:36.889Z</time></trkpt><trkpt lat="35.6170357" lon="10.1480764"><ele>68.0</ele><time>2026-04-25T08:57:37.895Z</time></trkpt><trkpt lat="35.6169201" lon="10.1482587"><ele>68.0</ele><time>2026-04-25T08:57:38.887Z</time></trkpt><trkpt lat="35.616802" lon="10.1484387"><ele>68.0</ele><time>2026-04-25T08:57:39.899Z</time></trkpt><trkpt lat="35.616687" lon="10.1486145"><ele>68.0</ele><time>2026-04-25T08:57:40.89Z</time></trkpt><trkpt lat="35.6165749" lon="10.1487941"><ele>68.0</ele><time>2026-04-25T08:57:41.898Z</time></trkpt><trkpt lat="35.6164583" lon="10.1489731"><ele>68.0</ele><time>2026-04-25T08:57:42.897Z</time></trkpt><trkpt lat="35.6163371" lon="10.1491548"><ele>68.0</ele><time>2026-04-25T08:57:43.885Z</time></trkpt><trkpt lat="35.6162154" lon="10.1493396"><ele>68.0</ele><time>2026-04-25T08:57:44.896Z</time></trkpt><trkpt lat="35.6160973" lon="10.1495242"><ele>68.0</ele><time>2026-04-25T08:57:45.888Z</time></trkpt><trkpt lat="35.6159754" lon="10.1497107"><ele>68.0</ele><time>2026-04-25T08:57:46.878Z</time></trkpt><trkpt lat="35.6158601" lon="10.1499016"><ele>68.66666666666667</ele><time>2026-04-25T08:57:47.897Z</time></trkpt><trkpt lat="35.615739" lon="10.1500961"><ele>69.33333333333333</ele><time>2026-04-25T08:57:48.891Z</time></trkpt><trkpt lat="35.6156161" lon="10.1502841"><ele>70.0</ele><time>2026-04-25T08:57:49.892Z</time></trkpt><trkpt lat="35.6154988" lon="10.1504757"><ele>70.0</ele><time>2026-04-25T08:57:50.879Z</time></trkpt><trkpt lat="35.6153777" lon="10.1506642"><ele>70.0</ele><time>2026-04-25T08:57:51.892Z</time></trkpt><trkpt lat="35.6152555" lon="10.1508568"><ele>70.0</ele><time>2026-04-25T08:57:52.89Z</time></trkpt><trkpt lat="35.6151361" lon="10.1510416"><ele>69.33333333333333</ele><time>2026-04-25T08:57:53.884Z</time></trkpt><trkpt lat="35.6150148" lon="10.151231"><ele>68.66666666666667</ele><time>2026-04-25T08:57:54.895Z</time></trkpt><trkpt lat="35.6148953" lon="10.1514197"><ele>68.0</ele><time>2026-04-25T08:57:55.885Z</time></trkpt><trkpt lat="35.6147741" lon="10.1516086"><ele>68.0</ele><time>2026-04-25T08:57:56.881Z</time></trkpt><trkpt lat="35.6146559" lon="10.1517895"><ele>68.0</ele><time>2026-04-25T08:57:57.893Z</time></trkpt><trkpt lat="35.6145321" lon="10.1519758"><ele>68.0</ele><time>2026-04-25T08:57:58.887Z</time></trkpt><trkpt lat="35.6144093" lon="10.1521669"><ele>68.0</ele><time>2026-04-25T08:57:59.904Z</time></trkpt><trkpt lat="35.6142866" lon="10.152356"><ele>68.0</ele><time>2026-04-25T08:58:00.898Z</time></trkpt><trkpt lat="35.6141659" lon="10.1525398"><ele>68.0</ele><time>2026-04-25T08:58:01.887Z</time></trkpt><trkpt lat="35.6140475" lon="10.1527309"><ele>67.33333333333334</ele><time>2026-04-25T08:58:02.888Z</time></trkpt><trkpt lat="35.6139305" lon="10.1529271"><ele>66.66666666666667</ele><time>2026-04-25T08:58:03.889Z</time></trkpt><trkpt lat="35.6138111" lon="10.1531201"><ele>66.0</ele><time>2026-04-25T08:58:04.887Z</time></trkpt><trkpt lat="35.6136924" lon="10.1533141"><ele>66.33333333333333</ele><time>2026-04-25T08:58:05.881Z</time></trkpt><trkpt lat="35.6135733" lon="10.153511"><ele>66.66666666666666</ele><time>2026-04-25T08:58:06.89Z</time></trkpt><trkpt lat="35.6134575" lon="10.153706"><ele>67.0</ele><time>2026-04-25T08:58:07.904Z</time></trkpt><trkpt lat="35.6133352" lon="10.1539079"><ele>67.33333333333333</ele><time>2026-04-25T08:58:08.89Z</time></trkpt><trkpt lat="35.613214" lon="10.1541089"><ele>67.66666666666667</ele><time>2026-04-25T08:58:09.884Z</time></trkpt><trkpt lat="35.613091" lon="10.1543112"><ele>68.0</ele><time>2026-04-25T08:58:10.887Z</time></trkpt><trkpt lat="35.6129708" lon="10.15451"><ele>68.0</ele><time>2026-04-25T08:58:11.885Z</time></trkpt><trkpt lat="35.6128476" lon="10.1547052"><ele>68.0</ele><time>2026-04-25T08:58:12.886Z</time></trkpt><trkpt lat="35.6127252" lon="10.1549065"><ele>68.0</ele><time>2026-04-25T08:58:13.899Z</time></trkpt><trkpt lat="35.6126054" lon="10.1551083"><ele>67.66666666666667</ele><time>2026-04-25T08:58:14.896Z</time></trkpt><trkpt lat="35.6124848" lon="10.1553106"><ele>67.33333333333333</ele><time>2026-04-25T08:58:15.888Z</time></trkpt><trkpt lat="35.6123658" lon="10.1555054"><ele>67.0</ele><time>2026-04-25T08:58:16.894Z</time></trkpt><trkpt lat="35.6122432" lon="10.1557021"><ele>67.0</ele><time>2026-04-25T08:58:17.889Z</time></trkpt><trkpt lat="35.6121262" lon="10.1558951"><ele>67.0</ele><time>2026-04-25T08:58:18.895Z</time></trkpt><trkpt lat="35.6120079" lon="10.1560865"><ele>67.0</ele><time>2026-04-25T08:58:19.9Z</time></trkpt><trkpt lat="35.6118823" lon="10.1562716"><ele>67.0</ele><time>2026-04-25T08:58:20.896Z</time></trkpt><trkpt lat="35.611753" lon="10.156451"><ele>67.0</ele><time>2026-04-25T08:58:21.897Z</time></trkpt><trkpt lat="35.6116189" lon="10.1566221"><ele>67.0</ele><time>2026-04-25T08:58:22.885Z</time></trkpt><trkpt lat="35.61148" lon="10.1567925"><ele>67.0</ele><time>2026-04-25T08:58:23.887Z</time></trkpt><trkpt lat="35.6113451" lon="10.1569626"><ele>67.0</ele><time>2026-04-25T08:58:24.905Z</time></trkpt><trkpt lat="35.6112097" lon="10.1571277"><ele>67.0</ele><time>2026-04-25T08:58:25.907Z</time></trkpt><trkpt lat="35.6110722" lon="10.1572934"><ele>67.0</ele><time>2026-04-25T08:58:26.899Z</time></trkpt><trkpt lat="35.6109388" lon="10.1574583"><ele>67.0</ele><time>2026-04-25T08:58:27.89Z</time></trkpt><trkpt lat="35.6108106" lon="10.157623"><ele>67.0</ele><time>2026-04-25T08:58:28.892Z</time></trkpt><trkpt lat="35.6106865" lon="10.1577852"><ele>67.0</ele><time>2026-04-25T08:58:29.902Z</time></trkpt><trkpt lat="35.6105602" lon="10.1579406"><ele>67.0</ele><time>2026-04-25T08:58:30.899Z</time></trkpt><trkpt lat="35.6104385" lon="10.1580926"><ele>67.0</ele><time>2026-04-25T08:58:31.889Z</time></trkpt><trkpt lat="35.6103145" lon="10.1582486"><ele>67.66666666666666</ele><time>2026-04-25T08:58:32.883Z</time></trkpt><trkpt lat="35.610191" lon="10.1584025"><ele>68.33333333333333</ele><time>2026-04-25T08:58:33.897Z</time></trkpt><trkpt lat="35.6100679" lon="10.1585544"><ele>69.0</ele><time>2026-04-25T08:58:34.887Z</time></trkpt><trkpt lat="35.6099415" lon="10.1587034"><ele>69.0</ele><time>2026-04-25T08:58:35.899Z</time></trkpt><trkpt lat="35.6098183" lon="10.1588507"><ele>69.0</ele><time>2026-04-25T08:58:36.89Z</time></trkpt><trkpt lat="35.6096952" lon="10.1590002"><ele>69.0</ele><time>2026-04-25T08:58:37.883Z</time></trkpt><trkpt lat="35.6095721" lon="10.1591529"><ele>69.33333333333333</ele><time>2026-04-25T08:58:38.877Z</time></trkpt><trkpt lat="35.6094458" lon="10.1593047"><ele>69.66666666666666</ele><time>2026-04-25T08:58:39.879Z</time></trkpt><trkpt lat="35.6093242" lon="10.1594631"><ele>70.0</ele><time>2026-04-25T08:58:40.89Z</time></trkpt><trkpt lat="35.6092" lon="10.1596184"><ele>70.0</ele><time>2026-04-25T08:58:41.888Z</time></trkpt><trkpt lat="35.6090786" lon="10.1597734"><ele>70.0</ele><time>2026-04-25T08:58:42.883Z</time></trkpt><trkpt lat="35.608956" lon="10.1599285"><ele>70.0</ele><time>2026-04-25T08:58:43.891Z</time></trkpt><trkpt lat="35.6088275" lon="10.1600824"><ele>70.0</ele><time>2026-04-25T08:58:44.889Z</time></trkpt><trkpt lat="35.6087041" lon="10.1602351"><ele>70.0</ele><time>2026-04-25T08:58:45.883Z</time></trkpt><trkpt lat="35.6085811" lon="10.1603859"><ele>70.0</ele><time>2026-04-25T08:58:46.885Z</time></trkpt><trkpt lat="35.6084609" lon="10.1605351"><ele>70.0</ele><time>2026-04-25T08:58:47.894Z</time></trkpt><trkpt lat="35.6083336" lon="10.1606863"><ele>70.0</ele><time>2026-04-25T08:58:48.884Z</time></trkpt><trkpt lat="35.6082081" lon="10.1608372"><ele>70.0</ele><time>2026-04-25T08:58:49.899Z</time></trkpt><trkpt lat="35.6080832" lon="10.1609908"><ele>70.0</ele><time>2026-04-25T08:58:50.885Z</time></trkpt><trkpt lat="35.6079519" lon="10.1611389"><ele>70.0</ele><time>2026-04-25T08:58:51.898Z</time></trkpt><trkpt lat="35.6078221" lon="10.1612826"><ele>70.0</ele><time>2026-04-25T08:58:52.893Z</time></trkpt><trkpt lat="35.6076907" lon="10.1614235"><ele>70.33333333333333</ele><time>2026-04-25T08:58:53.888Z</time></trkpt><trkpt lat="35.6075584" lon="10.161566"><ele>70.66666666666667</ele><time>2026-04-25T08:58:54.898Z</time></trkpt><trkpt lat="35.6074257" lon="10.1617076"><ele>71.0</ele><time>2026-04-25T08:58:55.899Z</time></trkpt><trkpt lat="35.6072922" lon="10.1618447"><ele>71.0</ele><time>2026-04-25T08:58:56.889Z</time></trkpt><trkpt lat="35.6071585" lon="10.1619887"><ele>71.0</ele><time>2026-04-25T08:58:57.882Z</time></trkpt><trkpt lat="35.6070269" lon="10.162128"><ele>71.0</ele><time>2026-04-25T08:58:58.876Z</time></trkpt><trkpt lat="35.6068918" lon="10.1622731"><ele>70.0</ele><time>2026-04-25T08:58:59.888Z</time></trkpt><trkpt lat="35.6067566" lon="10.1624156"><ele>69.0</ele><time>2026-04-25T08:59:00.88Z</time></trkpt><trkpt lat="35.6066223" lon="10.1625593"><ele>68.0</ele><time>2026-04-25T08:59:01.896Z</time></trkpt><trkpt lat="35.6064852" lon="10.1627089"><ele>68.0</ele><time>2026-04-25T08:59:02.879Z</time></trkpt><trkpt lat="35.6063499" lon="10.1628616"><ele>68.0</ele><time>2026-04-25T08:59:03.895Z</time></trkpt><trkpt lat="35.6062149" lon="10.1630167"><ele>68.0</ele><time>2026-04-25T08:59:04.878Z</time></trkpt><trkpt lat="35.6060744" lon="10.163172"><ele>68.0</ele><time>2026-04-25T08:59:05.876Z</time></trkpt><trkpt lat="35.6059366" lon="10.1633252"><ele>68.0</ele><time>2026-04-25T08:59:06.884Z</time></trkpt><trkpt lat="35.6057953" lon="10.1634782"><ele>68.0</ele><time>2026-04-25T08:59:07.882Z</time></trkpt><trkpt lat="35.6056551" lon="10.1636302"><ele>68.0</ele><time>2026-04-25T08:59:08.895Z</time></trkpt><trkpt lat="35.6055168" lon="10.1637794"><ele>68.0</ele><time>2026-04-25T08:59:09.886Z</time></trkpt><trkpt lat="35.6053774" lon="10.1639291"><ele>68.0</ele><time>2026-04-25T08:59:10.881Z</time></trkpt><trkpt lat="35.6052423" lon="10.1640793"><ele>66.66666666666667</ele><time>2026-04-25T08:59:11.899Z</time></trkpt><trkpt lat="35.6051069" lon="10.1642307"><ele>65.33333333333333</ele><time>2026-04-25T08:59:12.88Z</time></trkpt><trkpt lat="35.6049674" lon="10.1643797"><ele>64.0</ele><time>2026-04-25T08:59:13.909Z</time></trkpt><trkpt lat="35.6048296" lon="10.1645254"><ele>64.0</ele><time>2026-04-25T08:59:14.921Z</time></trkpt><trkpt lat="35.6046894" lon="10.164672"><ele>64.0</ele><time>2026-04-25T08:59:15.88Z</time></trkpt><trkpt lat="35.6045516" lon="10.16482"><ele>64.0</ele><time>2026-04-25T08:59:16.886Z</time></trkpt><trkpt lat="35.6044141" lon="10.1649702"><ele>64.66666666666666</ele><time>2026-04-25T08:59:17.895Z</time></trkpt><trkpt lat="35.6042744" lon="10.1651202"><ele>65.33333333333333</ele><time>2026-04-25T08:59:18.872Z</time></trkpt><trkpt lat="35.6041336" lon="10.1652692"><ele>66.0</ele><time>2026-04-25T08:59:19.89Z</time></trkpt><trkpt lat="35.6039939" lon="10.1654195"><ele>66.0</ele><time>2026-04-25T08:59:20.882Z</time></trkpt><trkpt lat="35.6038549" lon="10.1655728"><ele>66.0</ele><time>2026-04-25T08:59:21.895Z</time></trkpt><trkpt lat="35.6037203" lon="10.165728"><ele>66.0</ele><time>2026-04-25T08:59:22.902Z</time></trkpt><trkpt lat="35.6035809" lon="10.165882"><ele>66.66666666666667</ele><time>2026-04-25T08:59:23.887Z</time></trkpt><trkpt lat="35.6034421" lon="10.1660343"><ele>67.33333333333334</ele><time>2026-04-25T08:59:24.891Z</time></trkpt><trkpt lat="35.6033038" lon="10.1661888"><ele>68.0</ele><time>2026-04-25T08:59:25.882Z</time></trkpt><trkpt lat="35.6031646" lon="10.1663415"><ele>68.0</ele><time>2026-04-25T08:59:26.885Z</time></trkpt><trkpt lat="35.6030232" lon="10.1664891"><ele>68.0</ele><time>2026-04-25T08:59:27.879Z</time></trkpt><trkpt lat="35.6028834" lon="10.1666365"><ele>68.0</ele><time>2026-04-25T08:59:28.894Z</time></trkpt><trkpt lat="35.6027388" lon="10.1667969"><ele>68.66666666666667</ele><time>2026-04-25T08:59:29.883Z</time></trkpt><trkpt lat="35.6025897" lon="10.1669604"><ele>69.33333333333333</ele><time>2026-04-25T08:59:30.887Z</time></trkpt><trkpt lat="35.6024418" lon="10.1671247"><ele>70.0</ele><time>2026-04-25T08:59:31.903Z</time></trkpt><trkpt lat="35.6022917" lon="10.16729"><ele>69.66666666666666</ele><time>2026-04-25T08:59:32.881Z</time></trkpt><trkpt lat="35.6021394" lon="10.1674506"><ele>69.33333333333333</ele><time>2026-04-25T08:59:33.904Z</time></trkpt><trkpt lat="35.6019932" lon="10.1676104"><ele>69.0</ele><time>2026-04-25T08:59:34.888Z</time></trkpt><trkpt lat="35.6018488" lon="10.1677736"><ele>68.66666666666667</ele><time>2026-04-25T08:59:35.896Z</time></trkpt><trkpt lat="35.6017048" lon="10.167934"><ele>68.33333333333334</ele><time>2026-04-25T08:59:36.898Z</time></trkpt><trkpt lat="35.6015646" lon="10.1680895"><ele>68.0</ele><time>2026-04-25T08:59:37.886Z</time></trkpt><trkpt lat="35.6014258" lon="10.1682483"><ele>67.66666666666667</ele><time>2026-04-25T08:59:38.893Z</time></trkpt><trkpt lat="35.6012861" lon="10.1684066"><ele>67.33333333333333</ele><time>2026-04-25T08:59:39.912Z</time></trkpt><trkpt lat="35.6011489" lon="10.1685638"><ele>67.0</ele><time>2026-04-25T08:59:40.897Z</time></trkpt><trkpt lat="35.6010142" lon="10.1687124"><ele>66.33333333333333</ele><time>2026-04-25T08:59:41.892Z</time></trkpt><trkpt lat="35.6008796" lon="10.168861"><ele>65.66666666666667</ele><time>2026-04-25T08:59:42.886Z</time></trkpt><trkpt lat="35.6007476" lon="10.169013"><ele>65.0</ele><time>2026-04-25T08:59:43.891Z</time></trkpt><trkpt lat="35.6006184" lon="10.1691703"><ele>64.66666666666667</ele><time>2026-04-25T08:59:44.884Z</time></trkpt><trkpt lat="35.6004935" lon="10.1693202"><ele>64.33333333333333</ele><time>2026-04-25T08:59:45.886Z</time></trkpt><trkpt lat="35.6003722" lon="10.169464"><ele>64.0</ele><time>2026-04-25T08:59:46.898Z</time></trkpt><trkpt lat="35.6002451" lon="10.169609"><ele>64.0</ele><time>2026-04-25T08:59:47.902Z</time></trkpt><trkpt lat="35.6001186" lon="10.1697514"><ele>64.0</ele><time>2026-04-25T08:59:48.889Z</time></trkpt><trkpt lat="35.5999899" lon="10.169895"><ele>64.0</ele><time>2026-04-25T08:59:49.886Z</time></trkpt><trkpt lat="35.5998582" lon="10.1700411"><ele>64.0</ele><time>2026-04-25T08:59:50.896Z</time></trkpt><trkpt lat="35.5997266" lon="10.1701914"><ele>64.0</ele><time>2026-04-25T08:59:51.905Z</time></trkpt><trkpt lat="35.5995967" lon="10.1703418"><ele>64.0</ele><time>2026-04-25T08:59:52.891Z</time></trkpt><trkpt lat="35.5994671" lon="10.1704961"><ele>65.0</ele><time>2026-04-25T08:59:53.893Z</time></trkpt><trkpt lat="35.5993376" lon="10.1706485"><ele>66.0</ele><time>2026-04-25T08:59:54.882Z</time></trkpt><trkpt lat="35.599211" lon="10.1708072"><ele>67.0</ele><time>2026-04-25T08:59:55.89Z</time></trkpt><trkpt lat="35.5990879" lon="10.1709661"><ele>67.0</ele><time>2026-04-25T08:59:56.896Z</time></trkpt><trkpt lat="35.5989666" lon="10.1711269"><ele>67.0</ele><time>2026-04-25T08:59:57.888Z</time></trkpt><trkpt lat="35.5988496" lon="10.1712932"><ele>67.0</ele><time>2026-04-25T08:59:58.906Z</time></trkpt><trkpt lat="35.5987356" lon="10.1714635"><ele>66.66666666666666</ele><time>2026-04-25T08:59:59.88Z</time></trkpt><trkpt lat="35.5986274" lon="10.1716327"><ele>66.33333333333333</ele><time>2026-04-25T09:00:00.88Z</time></trkpt><trkpt lat="35.5985225" lon="10.1718055"><ele>66.0</ele><time>2026-04-25T09:00:01.895Z</time></trkpt><trkpt lat="35.5984205" lon="10.1719852"><ele>66.0</ele><time>2026-04-25T09:00:02.897Z</time></trkpt><trkpt lat="35.5983213" lon="10.1721622"><ele>66.0</ele><time>2026-04-25T09:00:03.887Z</time></trkpt><trkpt lat="35.5982254" lon="10.1723416"><ele>66.0</ele><time>2026-04-25T09:00:04.895Z</time></trkpt><trkpt lat="35.5981284" lon="10.1725269"><ele>66.33333333333333</ele><time>2026-04-25T09:00:05.884Z</time></trkpt><trkpt lat="35.5980371" lon="10.1727215"><ele>66.66666666666666</ele><time>2026-04-25T09:00:06.883Z</time></trkpt><trkpt lat="35.5979505" lon="10.1729239"><ele>67.0</ele><time>2026-04-25T09:00:07.902Z</time></trkpt><trkpt lat="35.5978614" lon="10.1731211"><ele>66.66666666666666</ele><time>2026-04-25T09:00:08.895Z</time></trkpt><trkpt lat="35.5977678" lon="10.1733159"><ele>66.33333333333333</ele><time>2026-04-25T09:00:09.884Z</time></trkpt><trkpt lat="35.5976791" lon="10.1735196"><ele>66.0</ele><time>2026-04-25T09:00:10.89Z</time></trkpt><trkpt lat="35.5975942" lon="10.1737185"><ele>66.0</ele><time>2026-04-25T09:00:11.888Z</time></trkpt><trkpt lat="35.5975098" lon="10.1739178"><ele>66.0</ele><time>2026-04-25T09:00:12.893Z</time></trkpt><trkpt lat="35.5974229" lon="10.174121"><ele>66.0</ele><time>2026-04-25T09:00:13.891Z</time></trkpt><trkpt lat="35.5973353" lon="10.174325"><ele>66.0</ele><time>2026-04-25T09:00:14.892Z</time></trkpt><trkpt lat="35.5972487" lon="10.1745261"><ele>66.0</ele><time>2026-04-25T09:00:15.877Z</time></trkpt><trkpt lat="35.5971627" lon="10.1747296"><ele>66.0</ele><time>2026-04-25T09:00:16.891Z</time></trkpt><trkpt lat="35.5970765" lon="10.1749324"><ele>67.0</ele><time>2026-04-25T09:00:17.895Z</time></trkpt><trkpt lat="35.5969832" lon="10.1751368"><ele>68.0</ele><time>2026-04-25T09:00:18.891Z</time></trkpt><trkpt lat="35.5968925" lon="10.1753459"><ele>69.0</ele><time>2026-04-25T09:00:19.884Z</time></trkpt><trkpt lat="35.5967981" lon="10.1755637"><ele>68.66666666666667</ele><time>2026-04-25T09:00:20.946Z</time></trkpt><trkpt lat="35.5967021" lon="10.1757785"><ele>68.33333333333334</ele><time>2026-04-25T09:00:21.893Z</time></trkpt><trkpt lat="35.5966015" lon="10.1759956"><ele>68.0</ele><time>2026-04-25T09:00:22.885Z</time></trkpt><trkpt lat="35.5964988" lon="10.1762096"><ele>68.0</ele><time>2026-04-25T09:00:23.906Z</time></trkpt><trkpt lat="35.5963931" lon="10.1764193"><ele>68.0</ele><time>2026-04-25T09:00:24.884Z</time></trkpt><trkpt lat="35.5962904" lon="10.1766365"><ele>68.0</ele><time>2026-04-25T09:00:25.895Z</time></trkpt><trkpt lat="35.5961868" lon="10.1768493"><ele>68.0</ele><time>2026-04-25T09:00:26.894Z</time></trkpt><trkpt lat="35.5960902" lon="10.1770659"><ele>68.0</ele><time>2026-04-25T09:00:27.893Z</time></trkpt><trkpt lat="35.5959915" lon="10.1772683"><ele>68.0</ele><time>2026-04-25T09:00:28.897Z</time></trkpt><trkpt lat="35.5958939" lon="10.1774637"><ele>68.0</ele><time>2026-04-25T09:00:29.894Z</time></trkpt><trkpt lat="35.5957914" lon="10.1776517"><ele>68.0</ele><time>2026-04-25T09:00:30.885Z</time></trkpt><trkpt lat="35.5956856" lon="10.1778373"><ele>68.0</ele><time>2026-04-25T09:00:31.876Z</time></trkpt><trkpt lat="35.5955703" lon="10.1780184"><ele>67.66666666666667</ele><time>2026-04-25T09:00:32.899Z</time></trkpt><trkpt lat="35.5954476" lon="10.1781945"><ele>67.33333333333333</ele><time>2026-04-25T09:00:33.889Z</time></trkpt><trkpt lat="35.5953119" lon="10.1783576"><ele>67.0</ele><time>2026-04-25T09:00:34.893Z</time></trkpt><trkpt lat="35.5951709" lon="10.17852"><ele>68.0</ele><time>2026-04-25T09:00:35.885Z</time></trkpt><trkpt lat="35.5950267" lon="10.1786765"><ele>69.0</ele><time>2026-04-25T09:00:36.883Z</time></trkpt><trkpt lat="35.5948754" lon="10.1788319"><ele>70.0</ele><time>2026-04-25T09:00:37.883Z</time></trkpt><trkpt lat="35.5947337" lon="10.1789847"><ele>69.33333333333333</ele><time>2026-04-25T09:00:38.891Z</time></trkpt><trkpt lat="35.5945927" lon="10.179145"><ele>68.66666666666667</ele><time>2026-04-25T09:00:39.889Z</time></trkpt><trkpt lat="35.5944507" lon="10.1793079"><ele>68.0</ele><time>2026-04-25T09:00:40.892Z</time></trkpt><trkpt lat="35.5943088" lon="10.179469"><ele>68.0</ele><time>2026-04-25T09:00:41.877Z</time></trkpt><trkpt lat="35.5941631" lon="10.1796287"><ele>68.0</ele><time>2026-04-25T09:00:42.892Z</time></trkpt><trkpt lat="35.5940176" lon="10.179781"><ele>68.0</ele><time>2026-04-25T09:00:43.888Z</time></trkpt><trkpt lat="35.5938721" lon="10.1799334"><ele>68.0</ele><time>2026-04-25T09:00:44.885Z</time></trkpt><trkpt lat="35.593722" lon="10.1800816"><ele>68.0</ele><time>2026-04-25T09:00:45.892Z</time></trkpt><trkpt lat="35.5935704" lon="10.1802311"><ele>68.0</ele><time>2026-04-25T09:00:46.885Z</time></trkpt><trkpt lat="35.5934172" lon="10.1803759"><ele>68.0</ele><time>2026-04-25T09:00:47.885Z</time></trkpt><trkpt lat="35.5932628" lon="10.1805204"><ele>68.0</ele><time>2026-04-25T09:00:48.9Z</time></trkpt><trkpt lat="35.5931083" lon="10.1806691"><ele>68.0</ele><time>2026-04-25T09:00:49.885Z</time></trkpt><trkpt lat="35.5929546" lon="10.1808185"><ele>67.66666666666667</ele><time>2026-04-25T09:00:50.88Z</time></trkpt><trkpt lat="35.5927981" lon="10.1809637"><ele>67.33333333333333</ele><time>2026-04-25T09:00:51.89Z</time></trkpt><trkpt lat="35.5926478" lon="10.1811162"><ele>67.0</ele><time>2026-04-25T09:00:52.899Z</time></trkpt><trkpt lat="35.5924949" lon="10.1812693"><ele>67.0</ele><time>2026-04-25T09:00:53.894Z</time></trkpt><trkpt lat="35.5923417" lon="10.181426"><ele>67.0</ele><time>2026-04-25T09:00:54.891Z</time></trkpt><trkpt lat="35.5921887" lon="10.1815813"><ele>67.0</ele><time>2026-04-25T09:00:55.901Z</time></trkpt><trkpt lat="35.5920384" lon="10.1817408"><ele>67.0</ele><time>2026-04-25T09:00:56.893Z</time></trkpt><trkpt lat="35.5918888" lon="10.1818876"><ele>67.0</ele><time>2026-04-25T09:00:57.891Z</time></trkpt><trkpt lat="35.5917311" lon="10.1820325"><ele>67.0</ele><time>2026-04-25T09:00:58.885Z</time></trkpt><trkpt lat="35.5915786" lon="10.1821737"><ele>67.0</ele><time>2026-04-25T09:00:59.887Z</time></trkpt><trkpt lat="35.5914196" lon="10.1823205"><ele>67.0</ele><time>2026-04-25T09:01:00.895Z</time></trkpt><trkpt lat="35.5912646" lon="10.1824683"><ele>67.0</ele><time>2026-04-25T09:01:01.876Z</time></trkpt><trkpt lat="35.5911097" lon="10.182621"><ele>66.33333333333333</ele><time>2026-04-25T09:01:02.886Z</time></trkpt><trkpt lat="35.5909631" lon="10.1827828"><ele>65.66666666666667</ele><time>2026-04-25T09:01:03.884Z</time></trkpt><trkpt lat="35.5908211" lon="10.1829523"><ele>65.0</ele><time>2026-04-25T09:01:04.888Z</time></trkpt><trkpt lat="35.5906837" lon="10.1831328"><ele>64.66666666666667</ele><time>2026-04-25T09:01:05.908Z</time></trkpt><trkpt lat="35.5905499" lon="10.1833126"><ele>64.33333333333333</ele><time>2026-04-25T09:01:06.892Z</time></trkpt><trkpt lat="35.5904199" lon="10.1834909"><ele>64.0</ele><time>2026-04-25T09:01:07.885Z</time></trkpt><trkpt lat="35.5902899" lon="10.1836672"><ele>63.666666666666664</ele><time>2026-04-25T09:01:08.891Z</time></trkpt><trkpt lat="35.5901513" lon="10.1838414"><ele>63.33333333333333</ele><time>2026-04-25T09:01:09.896Z</time></trkpt><trkpt lat="35.5900082" lon="10.1840016"><ele>63.0</ele><time>2026-04-25T09:01:10.884Z</time></trkpt><trkpt lat="35.5898551" lon="10.184152"><ele>63.0</ele><time>2026-04-25T09:01:11.914Z</time></trkpt><trkpt lat="35.5896979" lon="10.1842927"><ele>63.0</ele><time>2026-04-25T09:01:12.882Z</time></trkpt><trkpt lat="35.5895334" lon="10.1844257"><ele>63.0</ele><time>2026-04-25T09:01:13.884Z</time></trkpt><trkpt lat="35.5893638" lon="10.1845371"><ele>64.0</ele><time>2026-04-25T09:01:14.886Z</time></trkpt><trkpt lat="35.5891957" lon="10.1846361"><ele>65.0</ele><time>2026-04-25T09:01:15.884Z</time></trkpt><trkpt lat="35.5890321" lon="10.1847356"><ele>66.0</ele><time>2026-04-25T09:01:16.892Z</time></trkpt><trkpt lat="35.5888759" lon="10.1848317"><ele>65.0</ele><time>2026-04-25T09:01:17.891Z</time></trkpt><trkpt lat="35.588728" lon="10.1849235"><ele>64.0</ele><time>2026-04-25T09:01:18.884Z</time></trkpt><trkpt lat="35.5885844" lon="10.1850067"><ele>63.0</ele><time>2026-04-25T09:01:19.884Z</time></trkpt><trkpt lat="35.5884506" lon="10.1850914"><ele>62.5</ele><time>2026-04-25T09:01:20.888Z</time></trkpt><trkpt lat="35.5883231" lon="10.1851777"><ele>62.0</ele><time>2026-04-25T09:01:21.869Z</time></trkpt><trkpt lat="35.5882093" lon="10.1852655"><ele>61.5</ele><time>2026-04-25T09:01:22.891Z</time></trkpt><trkpt lat="35.5880994" lon="10.1853525"><ele>61.0</ele><time>2026-04-25T09:01:23.875Z</time></trkpt><trkpt lat="35.5880058" lon="10.185434"><ele>61.0</ele><time>2026-04-25T09:01:24.873Z</time></trkpt><trkpt lat="35.5879284" lon="10.1855091"><ele>60.99999999999999</ele><time>2026-04-25T09:01:25.892Z</time></trkpt><trkpt lat="35.5878565" lon="10.1855866"><ele>60.99999999999999</ele><time>2026-04-25T09:01:26.888Z</time></trkpt><trkpt lat="35.5877808" lon="10.185662"><ele>61.0</ele><time>2026-04-25T09:01:27.893Z</time></trkpt><trkpt lat="35.5877091" lon="10.1857347"><ele>61.0</ele><time>2026-04-25T09:01:28.881Z</time></trkpt><trkpt lat="35.5876409" lon="10.1857993"><ele>60.83333333333333</ele><time>2026-04-25T09:01:29.959Z</time></trkpt><trkpt lat="35.5875732" lon="10.1858633"><ele>60.666666666666664</ele><time>2026-04-25T09:01:30.903Z</time></trkpt><trkpt lat="35.5875037" lon="10.1859348"><ele>60.5</ele><time>2026-04-25T09:01:31.891Z</time></trkpt><trkpt lat="35.587436" lon="10.1860047"><ele>60.33333333333333</ele><time>2026-04-25T09:01:32.884Z</time></trkpt><trkpt lat="35.5873672" lon="10.1860738"><ele>60.166666666666664</ele><time>2026-04-25T09:01:33.891Z</time></trkpt><trkpt lat="35.5873023" lon="10.1861441"><ele>60.0</ele><time>2026-04-25T09:01:34.901Z</time></trkpt><trkpt lat="35.5872423" lon="10.1862079"><ele>60.0</ele><time>2026-04-25T09:01:35.892Z</time></trkpt><trkpt lat="35.5871826" lon="10.186273"><ele>60.0</ele><time>2026-04-25T09:01:36.882Z</time></trkpt><trkpt lat="35.5871158" lon="10.186345"><ele>60.0</ele><time>2026-04-25T09:01:37.887Z</time></trkpt><trkpt lat="35.5870412" lon="10.1864197"><ele>60.0</ele><time>2026-04-25T09:01:38.886Z</time></trkpt><trkpt lat="35.5869636" lon="10.1865009"><ele>60.0</ele><time>2026-04-25T09:01:39.893Z</time></trkpt><trkpt lat="35.5868779" lon="10.1865879"><ele>60.25</ele><time>2026-04-25T09:01:40.904Z</time></trkpt><trkpt lat="35.5867942" lon="10.1866707"><ele>60.5</ele><time>2026-04-25T09:01:41.885Z</time></trkpt><trkpt lat="35.5867066" lon="10.1867575"><ele>60.75</ele><time>2026-04-25T09:01:42.878Z</time></trkpt><trkpt lat="35.5866186" lon="10.1868503"><ele>61.0</ele><time>2026-04-25T09:01:43.891Z</time></trkpt><trkpt lat="35.5865283" lon="10.1869543"><ele>61.0</ele><time>2026-04-25T09:01:44.899Z</time></trkpt><trkpt lat="35.5864313" lon="10.1870577"><ele>61.0</ele><time>2026-04-25T09:01:45.878Z</time></trkpt><trkpt lat="35.5863287" lon="10.1871622"><ele>61.0</ele><time>2026-04-25T09:01:46.891Z</time></trkpt><trkpt lat="35.5862246" lon="10.1872696"><ele>61.0</ele><time>2026-04-25T09:01:47.888Z</time></trkpt><trkpt lat="35.5861218" lon="10.1873773"><ele>61.0</ele><time>2026-04-25T09:01:48.892Z</time></trkpt><trkpt lat="35.5860186" lon="10.1874884"><ele>61.0</ele><time>2026-04-25T09:01:49.903Z</time></trkpt><trkpt lat="35.5859104" lon="10.1876029"><ele>61.0</ele><time>2026-04-25T09:01:50.886Z</time></trkpt><trkpt lat="35.5858017" lon="10.1877173"><ele>61.0</ele><time>2026-04-25T09:01:51.909Z</time></trkpt><trkpt lat="35.5856947" lon="10.187826"><ele>61.0</ele><time>2026-04-25T09:01:52.887Z</time></trkpt><trkpt lat="35.5855911" lon="10.1879319"><ele>61.0</ele><time>2026-04-25T09:01:53.902Z</time></trkpt><trkpt lat="35.5854871" lon="10.1880393"><ele>61.0</ele><time>2026-04-25T09:01:54.89Z</time></trkpt><trkpt lat="35.5853823" lon="10.1881478"><ele>61.0</ele><time>2026-04-25T09:01:55.884Z</time></trkpt><trkpt lat="35.5852798" lon="10.1882533"><ele>60.75</ele><time>2026-04-25T09:01:56.889Z</time></trkpt><trkpt lat="35.5851701" lon="10.1883584"><ele>60.5</ele><time>2026-04-25T09:01:57.89Z</time></trkpt><trkpt lat="35.5850589" lon="10.1884607"><ele>60.25</ele><time>2026-04-25T09:01:58.894Z</time></trkpt><trkpt lat="35.5849504" lon="10.1885553"><ele>60.0</ele><time>2026-04-25T09:01:59.902Z</time></trkpt><trkpt lat="35.5848473" lon="10.1886547"><ele>60.0</ele><time>2026-04-25T09:02:00.885Z</time></trkpt><trkpt lat="35.584746" lon="10.1887496"><ele>60.0</ele><time>2026-04-25T09:02:01.886Z</time></trkpt><trkpt lat="35.5846445" lon="10.188848"><ele>60.0</ele><time>2026-04-25T09:02:02.883Z</time></trkpt><trkpt lat="35.5845448" lon="10.1889478"><ele>60.0</ele><time>2026-04-25T09:02:03.895Z</time></trkpt><trkpt lat="35.5844399" lon="10.1890482"><ele>60.0</ele><time>2026-04-25T09:02:04.89Z</time></trkpt><trkpt lat="35.5843314" lon="10.189149"><ele>60.0</ele><time>2026-04-25T09:02:05.885Z</time></trkpt><trkpt lat="35.5842205" lon="10.1892469"><ele>60.0</ele><time>2026-04-25T09:02:06.892Z</time></trkpt><trkpt lat="35.5841097" lon="10.1893398"><ele>60.0</ele><time>2026-04-25T09:02:07.901Z</time></trkpt><trkpt lat="35.5839963" lon="10.1894344"><ele>60.0</ele><time>2026-04-25T09:02:08.884Z</time></trkpt><trkpt lat="35.583883" lon="10.1895263"><ele>60.0</ele><time>2026-04-25T09:02:09.888Z</time></trkpt><trkpt lat="35.5837667" lon="10.1896126"><ele>60.0</ele><time>2026-04-25T09:02:10.886Z</time></trkpt><trkpt lat="35.5836519" lon="10.1897027"><ele>60.0</ele><time>2026-04-25T09:02:11.894Z</time></trkpt><trkpt lat="35.5835334" lon="10.1897903"><ele>60.25</ele><time>2026-04-25T09:02:12.892Z</time></trkpt><trkpt lat="35.5834122" lon="10.1898699"><ele>60.5</ele><time>2026-04-25T09:02:13.902Z</time></trkpt><trkpt lat="35.5832906" lon="10.1899574"><ele>60.75</ele><time>2026-04-25T09:02:14.886Z</time></trkpt><trkpt lat="35.5831733" lon="10.1900415"><ele>61.0</ele><time>2026-04-25T09:02:15.896Z</time></trkpt><trkpt lat="35.5830529" lon="10.190124"><ele>61.0</ele><time>2026-04-25T09:02:16.873Z</time></trkpt><trkpt lat="35.5829336" lon="10.1902038"><ele>61.0</ele><time>2026-04-25T09:02:17.891Z</time></trkpt><trkpt lat="35.5828127" lon="10.1902833"><ele>61.0</ele><time>2026-04-25T09:02:18.888Z</time></trkpt><trkpt lat="35.5826927" lon="10.190357"><ele>61.0</ele><time>2026-04-25T09:02:19.897Z</time></trkpt><trkpt lat="35.582573" lon="10.1904345"><ele>60.75</ele><time>2026-04-25T09:02:20.875Z</time></trkpt><trkpt lat="35.5824627" lon="10.1905099"><ele>60.5</ele><time>2026-04-25T09:02:21.891Z</time></trkpt><trkpt lat="35.5823557" lon="10.1905832"><ele>60.25</ele><time>2026-04-25T09:02:22.881Z</time></trkpt><trkpt lat="35.5822436" lon="10.1906563"><ele>60.0</ele><time>2026-04-25T09:02:23.882Z</time></trkpt><trkpt lat="35.5821304" lon="10.1907352"><ele>59.75</ele><time>2026-04-25T09:02:24.892Z</time></trkpt><trkpt lat="35.582013" lon="10.1908255"><ele>59.5</ele><time>2026-04-25T09:02:25.887Z</time></trkpt><trkpt lat="35.5819025" lon="10.1909135"><ele>59.25</ele><time>2026-04-25T09:02:26.877Z</time></trkpt><trkpt lat="35.5817869" lon="10.1910024"><ele>59.0</ele><time>2026-04-25T09:02:27.891Z</time></trkpt><trkpt lat="35.5816719" lon="10.1910917"><ele>59.0</ele><time>2026-04-25T09:02:28.884Z</time></trkpt><trkpt lat="35.5815567" lon="10.191187"><ele>59.0</ele><time>2026-04-25T09:02:29.888Z</time></trkpt><trkpt lat="35.5814397" lon="10.1912829"><ele>59.0</ele><time>2026-04-25T09:02:30.884Z</time></trkpt><trkpt lat="35.5813234" lon="10.1913774"><ele>59.0</ele><time>2026-04-25T09:02:31.89Z</time></trkpt><trkpt lat="35.5812055" lon="10.1914706"><ele>59.25</ele><time>2026-04-25T09:02:32.885Z</time></trkpt><trkpt lat="35.5810893" lon="10.1915664"><ele>59.5</ele><time>2026-04-25T09:02:33.896Z</time></trkpt><trkpt lat="35.5809718" lon="10.1916659"><ele>59.75</ele><time>2026-04-25T09:02:34.89Z</time></trkpt><trkpt lat="35.5808545" lon="10.1917658"><ele>60.0</ele><time>2026-04-25T09:02:35.89Z</time></trkpt><trkpt lat="35.5807411" lon="10.1918688"><ele>60.0</ele><time>2026-04-25T09:02:36.882Z</time></trkpt><trkpt lat="35.5806316" lon="10.1919762"><ele>60.0</ele><time>2026-04-25T09:02:37.898Z</time></trkpt><trkpt lat="35.580521" lon="10.1920864"><ele>60.0</ele><time>2026-04-25T09:02:38.896Z</time></trkpt><trkpt lat="35.580413" lon="10.1922004"><ele>60.0</ele><time>2026-04-25T09:02:39.885Z</time></trkpt><trkpt lat="35.5803067" lon="10.192312"><ele>59.5</ele><time>2026-04-25T09:02:40.89Z</time></trkpt><trkpt lat="35.5802024" lon="10.1924249"><ele>59.0</ele><time>2026-04-25T09:02:41.906Z</time></trkpt><trkpt lat="35.5801011" lon="10.1925408"><ele>58.5</ele><time>2026-04-25T09:02:42.897Z</time></trkpt><trkpt lat="35.5800067" lon="10.1926524"><ele>58.0</ele><time>2026-04-25T09:02:43.886Z</time></trkpt><trkpt lat="35.5799231" lon="10.1927536"><ele>58.0</ele><time>2026-04-25T09:02:44.904Z</time></trkpt><trkpt lat="35.5798359" lon="10.1928497"><ele>58.0</ele><time>2026-04-25T09:02:45.9Z</time></trkpt><trkpt lat="35.5797501" lon="10.1929427"><ele>58.0</ele><time>2026-04-25T09:02:46.881Z</time></trkpt><trkpt lat="35.5796669" lon="10.1930353"><ele>58.0</ele><time>2026-04-25T09:02:47.889Z</time></trkpt><trkpt lat="35.5795847" lon="10.1931236"><ele>58.599999999999994</ele><time>2026-04-25T09:02:48.905Z</time></trkpt><trkpt lat="35.579497" lon="10.1931985"><ele>59.199999999999996</ele><time>2026-04-25T09:02:49.878Z</time></trkpt><trkpt lat="35.5794097" lon="10.1932658"><ele>59.8</ele><time>2026-04-25T09:02:50.894Z</time></trkpt><trkpt lat="35.5793204" lon="10.1933352"><ele>60.4</ele><time>2026-04-25T09:02:51.895Z</time></trkpt><trkpt lat="35.5792385" lon="10.1933967"><ele>61.0</ele><time>2026-04-25T09:02:52.897Z</time></trkpt><trkpt lat="35.57916" lon="10.1934598"><ele>61.0</ele><time>2026-04-25T09:02:53.905Z</time></trkpt><trkpt lat="35.5790727" lon="10.1935303"><ele>61.0</ele><time>2026-04-25T09:02:54.889Z</time></trkpt><trkpt lat="35.5789751" lon="10.1936036"><ele>61.0</ele><time>2026-04-25T09:02:55.892Z</time></trkpt><trkpt lat="35.5788631" lon="10.1936907"><ele>61.0</ele><time>2026-04-25T09:02:56.906Z</time></trkpt><trkpt lat="35.5787251" lon="10.1937935"><ele>60.666666666666664</ele><time>2026-04-25T09:02:57.91Z</time></trkpt><trkpt lat="35.5785714" lon="10.193906"><ele>60.33333333333333</ele><time>2026-04-25T09:02:58.921Z</time></trkpt><trkpt lat="35.5784134" lon="10.1940196"><ele>60.0</ele><time>2026-04-25T09:02:59.9Z</time></trkpt><trkpt lat="35.5782538" lon="10.1941297"><ele>60.33333333333333</ele><time>2026-04-25T09:03:00.881Z</time></trkpt><trkpt lat="35.5780976" lon="10.194242"><ele>60.666666666666664</ele><time>2026-04-25T09:03:01.888Z</time></trkpt><trkpt lat="35.5779334" lon="10.1943581"><ele>61.0</ele><time>2026-04-25T09:03:02.882Z</time></trkpt><trkpt lat="35.5777688" lon="10.1944802"><ele>61.0</ele><time>2026-04-25T09:03:03.901Z</time></trkpt><trkpt lat="35.5776017" lon="10.1946082"><ele>61.0</ele><time>2026-04-25T09:03:04.885Z</time></trkpt><trkpt lat="35.5774385" lon="10.1947356"><ele>61.0</ele><time>2026-04-25T09:03:05.89Z</time></trkpt><trkpt lat="35.5772719" lon="10.1948643"><ele>60.0</ele><time>2026-04-25T09:03:06.886Z</time></trkpt><trkpt lat="35.5771063" lon="10.1949925"><ele>59.0</ele><time>2026-04-25T09:03:07.874Z</time></trkpt><trkpt lat="35.5769415" lon="10.1951251"><ele>58.0</ele><time>2026-04-25T09:03:08.874Z</time></trkpt><trkpt lat="35.5767757" lon="10.195257"><ele>58.0</ele><time>2026-04-25T09:03:09.877Z</time></trkpt><trkpt lat="35.5766115" lon="10.1953905"><ele>58.0</ele><time>2026-04-25T09:03:10.891Z</time></trkpt><trkpt lat="35.5764482" lon="10.1955257"><ele>58.0</ele><time>2026-04-25T09:03:11.888Z</time></trkpt><trkpt lat="35.5762831" lon="10.1956476"><ele>57.666666666666664</ele><time>2026-04-25T09:03:12.894Z</time></trkpt><trkpt lat="35.5761151" lon="10.1957683"><ele>57.33333333333333</ele><time>2026-04-25T09:03:13.886Z</time></trkpt><trkpt lat="35.5759482" lon="10.1958881"><ele>57.0</ele><time>2026-04-25T09:03:14.881Z</time></trkpt><trkpt lat="35.5757824" lon="10.1960147"><ele>57.0</ele><time>2026-04-25T09:03:15.888Z</time></trkpt><trkpt lat="35.5756167" lon="10.1961506"><ele>57.0</ele><time>2026-04-25T09:03:16.877Z</time></trkpt><trkpt lat="35.5754561" lon="10.196287"><ele>57.0</ele><time>2026-04-25T09:03:17.893Z</time></trkpt><trkpt lat="35.575295" lon="10.1964258"><ele>57.0</ele><time>2026-04-25T09:03:18.878Z</time></trkpt><trkpt lat="35.5751359" lon="10.1965667"><ele>57.0</ele><time>2026-04-25T09:03:19.878Z</time></trkpt><trkpt lat="35.5749771" lon="10.1967003"><ele>57.0</ele><time>2026-04-25T09:03:20.883Z</time></trkpt><trkpt lat="35.5748142" lon="10.1968326"><ele>57.0</ele><time>2026-04-25T09:03:21.888Z</time></trkpt><trkpt lat="35.5746522" lon="10.1969677"><ele>57.0</ele><time>2026-04-25T09:03:22.893Z</time></trkpt><trkpt lat="35.5744911" lon="10.1971039"><ele>57.0</ele><time>2026-04-25T09:03:23.89Z</time></trkpt><trkpt lat="35.5743291" lon="10.1972379"><ele>56.33333333333333</ele><time>2026-04-25T09:03:24.88Z</time></trkpt><trkpt lat="35.5741642" lon="10.1973676"><ele>55.666666666666664</ele><time>2026-04-25T09:03:25.896Z</time></trkpt><trkpt lat="35.5739969" lon="10.1974882"><ele>55.0</ele><time>2026-04-25T09:03:26.887Z</time></trkpt><trkpt lat="35.5738288" lon="10.1976063"><ele>55.666666666666664</ele><time>2026-04-25T09:03:27.895Z</time></trkpt><trkpt lat="35.57366" lon="10.1977197"><ele>56.33333333333333</ele><time>2026-04-25T09:03:28.885Z</time></trkpt><trkpt lat="35.5734874" lon="10.1978353"><ele>57.0</ele><time>2026-04-25T09:03:29.882Z</time></trkpt><trkpt lat="35.5733159" lon="10.1979553"><ele>57.0</ele><time>2026-04-25T09:03:30.909Z</time></trkpt><trkpt lat="35.5731461" lon="10.1980686"><ele>57.0</ele><time>2026-04-25T09:03:31.89Z</time></trkpt><trkpt lat="35.572976" lon="10.1981824"><ele>57.0</ele><time>2026-04-25T09:03:32.889Z</time></trkpt><trkpt lat="35.572808" lon="10.1982931"><ele>56.0</ele><time>2026-04-25T09:03:33.884Z</time></trkpt><trkpt lat="35.5726331" lon="10.1984011"><ele>55.0</ele><time>2026-04-25T09:03:34.879Z</time></trkpt><trkpt lat="35.572455" lon="10.1984977"><ele>54.0</ele><time>2026-04-25T09:03:35.892Z</time></trkpt><trkpt lat="35.5722752" lon="10.1985912"><ele>54.0</ele><time>2026-04-25T09:03:36.881Z</time></trkpt><trkpt lat="35.5720987" lon="10.1986814"><ele>54.0</ele><time>2026-04-25T09:03:37.892Z</time></trkpt><trkpt lat="35.5719237" lon="10.1987615"><ele>54.0</ele><time>2026-04-25T09:03:38.898Z</time></trkpt><trkpt lat="35.5717471" lon="10.1988422"><ele>54.33333333333333</ele><time>2026-04-25T09:03:39.877Z</time></trkpt><trkpt lat="35.5715606" lon="10.1989228"><ele>54.666666666666664</ele><time>2026-04-25T09:03:40.884Z</time></trkpt><trkpt lat="35.571376" lon="10.1989922"><ele>55.0</ele><time>2026-04-25T09:03:41.891Z</time></trkpt><trkpt lat="35.5711923" lon="10.1990604"><ele>54.33333333333333</ele><time>2026-04-25T09:03:42.889Z</time></trkpt><trkpt lat="35.5710098" lon="10.1991287"><ele>53.66666666666667</ele><time>2026-04-25T09:03:43.879Z</time></trkpt><trkpt lat="35.5708243" lon="10.1991954"><ele>53.0</ele><time>2026-04-25T09:03:44.884Z</time></trkpt><trkpt lat="35.5706444" lon="10.1992592"><ele>53.0</ele><time>2026-04-25T09:03:45.88Z</time></trkpt><trkpt lat="35.5704636" lon="10.1993227"><ele>53.0</ele><time>2026-04-25T09:03:46.885Z</time></trkpt><trkpt lat="35.5702806" lon="10.1993835"><ele>53.0</ele><time>2026-04-25T09:03:47.89Z</time></trkpt><trkpt lat="35.5700971" lon="10.1994355"><ele>53.66666666666667</ele><time>2026-04-25T09:03:48.886Z</time></trkpt><trkpt lat="35.5699107" lon="10.1994813"><ele>54.33333333333333</ele><time>2026-04-25T09:03:49.887Z</time></trkpt><trkpt lat="35.5697253" lon="10.1995261"><ele>55.0</ele><time>2026-04-25T09:03:50.888Z</time></trkpt><trkpt lat="35.5695412" lon="10.1995663"><ele>55.33333333333333</ele><time>2026-04-25T09:03:51.883Z</time></trkpt><trkpt lat="35.5693613" lon="10.1996084"><ele>55.66666666666667</ele><time>2026-04-25T09:03:52.88Z</time></trkpt><trkpt lat="35.5691818" lon="10.1996526"><ele>56.0</ele><time>2026-04-25T09:03:53.896Z</time></trkpt><trkpt lat="35.5690009" lon="10.1996971"><ele>56.0</ele><time>2026-04-25T09:03:54.902Z</time></trkpt><trkpt lat="35.5688196" lon="10.1997496"><ele>56.0</ele><time>2026-04-25T09:03:55.9Z</time></trkpt><trkpt lat="35.5686414" lon="10.1998137"><ele>56.0</ele><time>2026-04-25T09:03:56.896Z</time></trkpt><trkpt lat="35.568466" lon="10.1998803"><ele>55.333333333333336</ele><time>2026-04-25T09:03:57.906Z</time></trkpt><trkpt lat="35.5682948" lon="10.199955"><ele>54.66666666666667</ele><time>2026-04-25T09:03:58.885Z</time></trkpt><trkpt lat="35.568121" lon="10.2000305"><ele>54.0</ele><time>2026-04-25T09:03:59.885Z</time></trkpt><trkpt lat="35.5679483" lon="10.2001157"><ele>54.0</ele><time>2026-04-25T09:04:00.887Z</time></trkpt><trkpt lat="35.5677774" lon="10.2001954"><ele>54.0</ele><time>2026-04-25T09:04:01.882Z</time></trkpt><trkpt lat="35.5676041" lon="10.2002734"><ele>54.0</ele><time>2026-04-25T09:04:02.882Z</time></trkpt><trkpt lat="35.5674292" lon="10.2003524"><ele>54.0</ele><time>2026-04-25T09:04:03.884Z</time></trkpt><trkpt lat="35.5672509" lon="10.2004313"><ele>54.0</ele><time>2026-04-25T09:04:04.91Z</time></trkpt><trkpt lat="35.5670718" lon="10.200506"><ele>54.0</ele><time>2026-04-25T09:04:05.885Z</time></trkpt><trkpt lat="35.5668959" lon="10.2005804"><ele>54.0</ele><time>2026-04-25T09:04:06.893Z</time></trkpt><trkpt lat="35.5667222" lon="10.2006525"><ele>54.0</ele><time>2026-04-25T09:04:07.887Z</time></trkpt><trkpt lat="35.5665495" lon="10.200725"><ele>54.0</ele><time>2026-04-25T09:04:08.889Z</time></trkpt><trkpt lat="35.5663761" lon="10.2007976"><ele>54.0</ele><time>2026-04-25T09:04:09.885Z</time></trkpt><trkpt lat="35.5662043" lon="10.2008661"><ele>54.0</ele><time>2026-04-25T09:04:10.897Z</time></trkpt><trkpt lat="35.5660337" lon="10.2009321"><ele>54.0</ele><time>2026-04-25T09:04:11.891Z</time></trkpt><trkpt lat="35.5658621" lon="10.2010006"><ele>54.0</ele><time>2026-04-25T09:04:12.89Z</time></trkpt><trkpt lat="35.565693" lon="10.2010797"><ele>54.0</ele><time>2026-04-25T09:04:13.888Z</time></trkpt><trkpt lat="35.5655278" lon="10.2011696"><ele>54.0</ele><time>2026-04-25T09:04:14.886Z</time></trkpt><trkpt lat="35.5653699" lon="10.201268"><ele>54.0</ele><time>2026-04-25T09:04:15.881Z</time></trkpt><trkpt lat="35.5652115" lon="10.2013752"><ele>54.0</ele><time>2026-04-25T09:04:16.885Z</time></trkpt><trkpt lat="35.5650514" lon="10.2014796"><ele>54.0</ele><time>2026-04-25T09:04:17.887Z</time></trkpt><trkpt lat="35.5648867" lon="10.2015844"><ele>54.0</ele><time>2026-04-25T09:04:18.9Z</time></trkpt><trkpt lat="35.5647255" lon="10.2016804"><ele>54.0</ele><time>2026-04-25T09:04:19.891Z</time></trkpt><trkpt lat="35.5645669" lon="10.2017752"><ele>54.0</ele><time>2026-04-25T09:04:20.882Z</time></trkpt><trkpt lat="35.5644064" lon="10.20187"><ele>54.0</ele><time>2026-04-25T09:04:21.914Z</time></trkpt><trkpt lat="35.5642489" lon="10.2019647"><ele>54.0</ele><time>2026-04-25T09:04:22.884Z</time></trkpt><trkpt lat="35.5640899" lon="10.202059"><ele>54.0</ele><time>2026-04-25T09:04:23.9Z</time></trkpt><trkpt lat="35.5639288" lon="10.2021598"><ele>54.0</ele><time>2026-04-25T09:04:24.892Z</time></trkpt><trkpt lat="35.563771" lon="10.202265"><ele>54.0</ele><time>2026-04-25T09:04:25.927Z</time></trkpt><trkpt lat="35.5636163" lon="10.2023785"><ele>54.0</ele><time>2026-04-25T09:04:26.901Z</time></trkpt><trkpt lat="35.5634682" lon="10.2024981"><ele>54.0</ele><time>2026-04-25T09:04:27.899Z</time></trkpt><trkpt lat="35.5633205" lon="10.2026259"><ele>54.0</ele><time>2026-04-25T09:04:28.89Z</time></trkpt><trkpt lat="35.5631773" lon="10.2027557"><ele>54.0</ele><time>2026-04-25T09:04:29.878Z</time></trkpt><trkpt lat="35.563035" lon="10.2028855"><ele>54.0</ele><time>2026-04-25T09:04:30.887Z</time></trkpt><trkpt lat="35.5628881" lon="10.2030126"><ele>54.0</ele><time>2026-04-25T09:04:31.888Z</time></trkpt><trkpt lat="35.5627387" lon="10.2031357"><ele>54.0</ele><time>2026-04-25T09:04:32.891Z</time></trkpt><trkpt lat="35.5625873" lon="10.2032581"><ele>54.33333333333333</ele><time>2026-04-25T09:04:33.894Z</time></trkpt><trkpt lat="35.5624351" lon="10.2033811"><ele>54.666666666666664</ele><time>2026-04-25T09:04:34.888Z</time></trkpt><trkpt lat="35.562281" lon="10.2034853"><ele>55.0</ele><time>2026-04-25T09:04:35.89Z</time></trkpt><trkpt lat="35.5621219" lon="10.20359"><ele>55.666666666666664</ele><time>2026-04-25T09:04:36.89Z</time></trkpt><trkpt lat="35.5619617" lon="10.203691"><ele>56.33333333333333</ele><time>2026-04-25T09:04:37.89Z</time></trkpt><trkpt lat="35.5617948" lon="10.2037828"><ele>57.0</ele><time>2026-04-25T09:04:38.897Z</time></trkpt><trkpt lat="35.5616303" lon="10.2038785"><ele>57.0</ele><time>2026-04-25T09:04:39.902Z</time></trkpt><trkpt lat="35.5614669" lon="10.2039659"><ele>57.0</ele><time>2026-04-25T09:04:40.884Z</time></trkpt><trkpt lat="35.5613018" lon="10.2040547"><ele>57.0</ele><time>2026-04-25T09:04:41.884Z</time></trkpt><trkpt lat="35.5611411" lon="10.2041378"><ele>55.66666666666667</ele><time>2026-04-25T09:04:42.899Z</time></trkpt><trkpt lat="35.5609767" lon="10.2042252"><ele>54.333333333333336</ele><time>2026-04-25T09:04:43.884Z</time></trkpt><trkpt lat="35.5608133" lon="10.2043151"><ele>53.0</ele><time>2026-04-25T09:04:44.885Z</time></trkpt><trkpt lat="35.5606476" lon="10.2044064"><ele>53.0</ele><time>2026-04-25T09:04:45.91Z</time></trkpt><trkpt lat="35.5604816" lon="10.204501"><ele>53.0</ele><time>2026-04-25T09:04:46.887Z</time></trkpt><trkpt lat="35.5603175" lon="10.2045894"><ele>53.0</ele><time>2026-04-25T09:04:47.902Z</time></trkpt><trkpt lat="35.5601604" lon="10.2046746"><ele>53.333333333333336</ele><time>2026-04-25T09:04:48.887Z</time></trkpt><trkpt lat="35.5599991" lon="10.204766"><ele>53.66666666666667</ele><time>2026-04-25T09:04:49.883Z</time></trkpt><trkpt lat="35.5598363" lon="10.2048528"><ele>54.0</ele><time>2026-04-25T09:04:50.877Z</time></trkpt><trkpt lat="35.5596681" lon="10.2049391"><ele>53.66666666666667</ele><time>2026-04-25T09:04:51.885Z</time></trkpt><trkpt lat="35.5595011" lon="10.2050309"><ele>53.333333333333336</ele><time>2026-04-25T09:04:52.877Z</time></trkpt><trkpt lat="35.5593344" lon="10.2051112"><ele>53.0</ele><time>2026-04-25T09:04:53.925Z</time></trkpt><trkpt lat="35.5591622" lon="10.2051913"><ele>53.0</ele><time>2026-04-25T09:04:54.883Z</time></trkpt><trkpt lat="35.558994" lon="10.2052632"><ele>53.0</ele><time>2026-04-25T09:04:55.877Z</time></trkpt><trkpt lat="35.5588277" lon="10.2053383"><ele>53.0</ele><time>2026-04-25T09:04:56.883Z</time></trkpt><trkpt lat="35.5586591" lon="10.2054067"><ele>53.66666666666667</ele><time>2026-04-25T09:04:57.879Z</time></trkpt><trkpt lat="35.5584943" lon="10.2054769"><ele>54.33333333333333</ele><time>2026-04-25T09:04:58.875Z</time></trkpt><trkpt lat="35.5583247" lon="10.2055426"><ele>55.0</ele><time>2026-04-25T09:04:59.89Z</time></trkpt><trkpt lat="35.5581553" lon="10.2056087"><ele>54.0</ele><time>2026-04-25T09:05:00.885Z</time></trkpt><trkpt lat="35.5579846" lon="10.2056728"><ele>53.0</ele><time>2026-04-25T09:05:01.878Z</time></trkpt><trkpt lat="35.5578139" lon="10.2057458"><ele>52.0</ele><time>2026-04-25T09:05:02.881Z</time></trkpt><trkpt lat="35.5576439" lon="10.2058209"><ele>52.0</ele><time>2026-04-25T09:05:03.894Z</time></trkpt><trkpt lat="35.5574739" lon="10.2058926"><ele>52.0</ele><time>2026-04-25T09:05:04.896Z</time></trkpt><trkpt lat="35.557306" lon="10.2059624"><ele>52.0</ele><time>2026-04-25T09:05:05.889Z</time></trkpt><trkpt lat="35.5571372" lon="10.206021"><ele>52.666666666666664</ele><time>2026-04-25T09:05:06.901Z</time></trkpt><trkpt lat="35.5569658" lon="10.2060667"><ele>53.33333333333333</ele><time>2026-04-25T09:05:07.882Z</time></trkpt><trkpt lat="35.5567976" lon="10.2061179"><ele>54.0</ele><time>2026-04-25T09:05:08.884Z</time></trkpt><trkpt lat="35.5566303" lon="10.2061763"><ele>54.0</ele><time>2026-04-25T09:05:09.898Z</time></trkpt><trkpt lat="35.5564647" lon="10.206231"><ele>54.0</ele><time>2026-04-25T09:05:10.89Z</time></trkpt><trkpt lat="35.5562983" lon="10.2062859"><ele>54.0</ele><time>2026-04-25T09:05:11.878Z</time></trkpt><trkpt lat="35.5561291" lon="10.2063384"><ele>53.66666666666667</ele><time>2026-04-25T09:05:12.881Z</time></trkpt><trkpt lat="35.555958" lon="10.2063974"><ele>53.333333333333336</ele><time>2026-04-25T09:05:13.899Z</time></trkpt><trkpt lat="35.5557867" lon="10.2064596"><ele>53.0</ele><time>2026-04-25T09:05:14.883Z</time></trkpt><trkpt lat="35.5556146" lon="10.2065178"><ele>53.0</ele><time>2026-04-25T09:05:15.902Z</time></trkpt><trkpt lat="35.5554425" lon="10.2065789"><ele>53.0</ele><time>2026-04-25T09:05:16.881Z</time></trkpt><trkpt lat="35.5552717" lon="10.2066375"><ele>53.0</ele><time>2026-04-25T09:05:17.889Z</time></trkpt><trkpt lat="35.5550998" lon="10.2067027"><ele>52.333333333333336</ele><time>2026-04-25T09:05:18.892Z</time></trkpt><trkpt lat="35.554929" lon="10.2067604"><ele>51.66666666666667</ele><time>2026-04-25T09:05:19.889Z</time></trkpt><trkpt lat="35.5547603" lon="10.2068202"><ele>51.0</ele><time>2026-04-25T09:05:20.882Z</time></trkpt><trkpt lat="35.5545888" lon="10.2068767"><ele>51.66666666666667</ele><time>2026-04-25T09:05:21.906Z</time></trkpt><trkpt lat="35.5544187" lon="10.2069398"><ele>52.333333333333336</ele><time>2026-04-25T09:05:22.893Z</time></trkpt><trkpt lat="35.5542489" lon="10.2070095"><ele>53.0</ele><time>2026-04-25T09:05:23.896Z</time></trkpt><trkpt lat="35.5540827" lon="10.2070921"><ele>53.0</ele><time>2026-04-25T09:05:24.885Z</time></trkpt><trkpt lat="35.5539208" lon="10.2071831"><ele>53.0</ele><time>2026-04-25T09:05:25.892Z</time></trkpt><trkpt lat="35.5537634" lon="10.2072841"><ele>53.0</ele><time>2026-04-25T09:05:26.894Z</time></trkpt><trkpt lat="35.5536178" lon="10.2074012"><ele>52.333333333333336</ele><time>2026-04-25T09:05:27.883Z</time></trkpt><trkpt lat="35.5534796" lon="10.2075293"><ele>51.66666666666667</ele><time>2026-04-25T09:05:28.885Z</time></trkpt><trkpt lat="35.5533503" lon="10.2076644"><ele>51.0</ele><time>2026-04-25T09:05:29.883Z</time></trkpt><trkpt lat="35.5532301" lon="10.2078198"><ele>51.0</ele><time>2026-04-25T09:05:30.894Z</time></trkpt><trkpt lat="35.553117" lon="10.2079729"><ele>51.0</ele><time>2026-04-25T09:05:31.892Z</time></trkpt><trkpt lat="35.5530126" lon="10.2081465"><ele>51.0</ele><time>2026-04-25T09:05:32.945Z</time></trkpt><trkpt lat="35.5529194" lon="10.2083329"><ele>52.0</ele><time>2026-04-25T09:05:33.88Z</time></trkpt><trkpt lat="35.5528398" lon="10.2085256"><ele>53.0</ele><time>2026-04-25T09:05:34.894Z</time></trkpt><trkpt lat="35.5527715" lon="10.208724"><ele>54.0</ele><time>2026-04-25T09:05:35.891Z</time></trkpt><trkpt lat="35.5527078" lon="10.2089245"><ele>52.0</ele><time>2026-04-25T09:05:36.895Z</time></trkpt><trkpt lat="35.5526533" lon="10.2091244"><ele>50.0</ele><time>2026-04-25T09:05:37.891Z</time></trkpt><trkpt lat="35.552596" lon="10.209326"><ele>48.0</ele><time>2026-04-25T09:05:38.875Z</time></trkpt><trkpt lat="35.552536" lon="10.2095263"><ele>48.0</ele><time>2026-04-25T09:05:39.889Z</time></trkpt><trkpt lat="35.5524728" lon="10.2097244"><ele>48.0</ele><time>2026-04-25T09:05:40.888Z</time></trkpt><trkpt lat="35.5524072" lon="10.2099195"><ele>48.0</ele><time>2026-04-25T09:05:41.889Z</time></trkpt><trkpt lat="35.5523376" lon="10.2101139"><ele>48.0</ele><time>2026-04-25T09:05:42.891Z</time></trkpt><trkpt lat="35.5522644" lon="10.2103118"><ele>48.0</ele><time>2026-04-25T09:05:43.888Z</time></trkpt><trkpt lat="35.55219" lon="10.2105147"><ele>48.0</ele><time>2026-04-25T09:05:44.884Z</time></trkpt><trkpt lat="35.5521136" lon="10.2107152"><ele>48.0</ele><time>2026-04-25T09:05:45.896Z</time></trkpt><trkpt lat="35.5520308" lon="10.2109123"><ele>48.0</ele><time>2026-04-25T09:05:46.882Z</time></trkpt><trkpt lat="35.5519432" lon="10.2111106"><ele>48.0</ele><time>2026-04-25T09:05:47.881Z</time></trkpt><trkpt lat="35.5518579" lon="10.2113097"><ele>47.0</ele><time>2026-04-25T09:05:48.894Z</time></trkpt><trkpt lat="35.5517701" lon="10.2115115"><ele>46.0</ele><time>2026-04-25T09:05:49.893Z</time></trkpt><trkpt lat="35.5516825" lon="10.2117123"><ele>45.0</ele><time>2026-04-25T09:05:50.896Z</time></trkpt><trkpt lat="35.5515942" lon="10.2119113"><ele>45.0</ele><time>2026-04-25T09:05:51.891Z</time></trkpt><trkpt lat="35.5515025" lon="10.2121148"><ele>45.0</ele><time>2026-04-25T09:05:52.883Z</time></trkpt><trkpt lat="35.5514098" lon="10.212322"><ele>45.0</ele><time>2026-04-25T09:05:53.885Z</time></trkpt><trkpt lat="35.551317" lon="10.2125353"><ele>45.0</ele><time>2026-04-25T09:05:54.883Z</time></trkpt><trkpt lat="35.551222" lon="10.212759"><ele>45.0</ele><time>2026-04-25T09:05:55.896Z</time></trkpt><trkpt lat="35.5511311" lon="10.2129833"><ele>45.0</ele><time>2026-04-25T09:05:56.885Z</time></trkpt><trkpt lat="35.5510369" lon="10.213199"><ele>45.666666666666664</ele><time>2026-04-25T09:05:57.883Z</time></trkpt><trkpt lat="35.5509386" lon="10.2134178"><ele>46.33333333333333</ele><time>2026-04-25T09:05:58.881Z</time></trkpt><trkpt lat="35.5508431" lon="10.2136345"><ele>47.0</ele><time>2026-04-25T09:05:59.89Z</time></trkpt><trkpt lat="35.5507492" lon="10.2138528"><ele>47.0</ele><time>2026-04-25T09:06:00.881Z</time></trkpt><trkpt lat="35.5506533" lon="10.2140694"><ele>47.0</ele><time>2026-04-25T09:06:01.898Z</time></trkpt><trkpt lat="35.5505579" lon="10.214287"><ele>47.0</ele><time>2026-04-25T09:06:02.901Z</time></trkpt><trkpt lat="35.5504621" lon="10.2145095"><ele>46.666666666666664</ele><time>2026-04-25T09:06:03.898Z</time></trkpt><trkpt lat="35.5503687" lon="10.2147321"><ele>46.333333333333336</ele><time>2026-04-25T09:06:04.892Z</time></trkpt><trkpt lat="35.550273" lon="10.2149548"><ele>46.0</ele><time>2026-04-25T09:06:05.886Z</time></trkpt><trkpt lat="35.5501768" lon="10.2151773"><ele>45.66666666666667</ele><time>2026-04-25T09:06:06.894Z</time></trkpt><trkpt lat="35.5500764" lon="10.2153996"><ele>45.333333333333336</ele><time>2026-04-25T09:06:07.883Z</time></trkpt><trkpt lat="35.5499747" lon="10.2156223"><ele>45.0</ele><time>2026-04-25T09:06:08.881Z</time></trkpt><trkpt lat="35.5498778" lon="10.2158405"><ele>45.0</ele><time>2026-04-25T09:06:09.888Z</time></trkpt><trkpt lat="35.5497816" lon="10.2160601"><ele>45.0</ele><time>2026-04-25T09:06:10.879Z</time></trkpt><trkpt lat="35.5496853" lon="10.2162809"><ele>45.0</ele><time>2026-04-25T09:06:11.882Z</time></trkpt><trkpt lat="35.5495887" lon="10.2164985"><ele>44.0</ele><time>2026-04-25T09:06:12.888Z</time></trkpt><trkpt lat="35.5494908" lon="10.2167195"><ele>43.0</ele><time>2026-04-25T09:06:13.902Z</time></trkpt><trkpt lat="35.5493951" lon="10.2169381"><ele>42.0</ele><time>2026-04-25T09:06:14.889Z</time></trkpt><trkpt lat="35.5492968" lon="10.2171593"><ele>42.0</ele><time>2026-04-25T09:06:15.887Z</time></trkpt><trkpt lat="35.5491984" lon="10.2173795"><ele>42.0</ele><time>2026-04-25T09:06:16.877Z</time></trkpt><trkpt lat="35.5491021" lon="10.2175989"><ele>42.0</ele><time>2026-04-25T09:06:17.887Z</time></trkpt><trkpt lat="35.5490053" lon="10.2178234"><ele>42.0</ele><time>2026-04-25T09:06:18.89Z</time></trkpt><trkpt lat="35.5489074" lon="10.2180479"><ele>42.0</ele><time>2026-04-25T09:06:19.885Z</time></trkpt><trkpt lat="35.54881" lon="10.21827"><ele>42.0</ele><time>2026-04-25T09:06:20.881Z</time></trkpt><trkpt lat="35.5487119" lon="10.2184917"><ele>42.666666666666664</ele><time>2026-04-25T09:06:21.886Z</time></trkpt><trkpt lat="35.5486141" lon="10.218714"><ele>43.33333333333333</ele><time>2026-04-25T09:06:22.877Z</time></trkpt><trkpt lat="35.5485224" lon="10.2189317"><ele>44.0</ele><time>2026-04-25T09:06:23.894Z</time></trkpt><trkpt lat="35.5484277" lon="10.2191516"><ele>44.0</ele><time>2026-04-25T09:06:24.893Z</time></trkpt><trkpt lat="35.5483305" lon="10.2193743"><ele>44.0</ele><time>2026-04-25T09:06:25.895Z</time></trkpt><trkpt lat="35.5482323" lon="10.2195929"><ele>44.0</ele><time>2026-04-25T09:06:26.875Z</time></trkpt><trkpt lat="35.5481331" lon="10.2198096"><ele>44.0</ele><time>2026-04-25T09:06:27.887Z</time></trkpt><trkpt lat="35.5480355" lon="10.2200307"><ele>44.0</ele><time>2026-04-25T09:06:28.898Z</time></trkpt><trkpt lat="35.547941" lon="10.2202533"><ele>44.0</ele><time>2026-04-25T09:06:29.886Z</time></trkpt><trkpt lat="35.5478447" lon="10.2204737"><ele>44.0</ele><time>2026-04-25T09:06:30.885Z</time></trkpt><trkpt lat="35.5477488" lon="10.220693"><ele>44.0</ele><time>2026-04-25T09:06:31.895Z</time></trkpt><trkpt lat="35.5476549" lon="10.2209157"><ele>44.0</ele><time>2026-04-25T09:06:32.876Z</time></trkpt><trkpt lat="35.5475568" lon="10.2211361"><ele>44.0</ele><time>2026-04-25T09:06:33.89Z</time></trkpt><trkpt lat="35.5474605" lon="10.2213531"><ele>44.0</ele><time>2026-04-25T09:06:34.881Z</time></trkpt><trkpt lat="35.5473621" lon="10.2215719"><ele>44.0</ele><time>2026-04-25T09:06:35.881Z</time></trkpt><trkpt lat="35.5472655" lon="10.2217928"><ele>44.0</ele><time>2026-04-25T09:06:36.891Z</time></trkpt><trkpt lat="35.5471678" lon="10.2220141"><ele>44.0</ele><time>2026-04-25T09:06:37.883Z</time></trkpt><trkpt lat="35.5470708" lon="10.2222343"><ele>44.0</ele><time>2026-04-25T09:06:38.9Z</time></trkpt><trkpt lat="35.5469772" lon="10.222461"><ele>43.0</ele><time>2026-04-25T09:06:39.886Z</time></trkpt><trkpt lat="35.5468822" lon="10.2226861"><ele>42.0</ele><time>2026-04-25T09:06:40.898Z</time></trkpt><trkpt lat="35.5467859" lon="10.2229112"><ele>41.0</ele><time>2026-04-25T09:06:41.878Z</time></trkpt><trkpt lat="35.5466907" lon="10.2231326"><ele>41.0</ele><time>2026-04-25T09:06:42.878Z</time></trkpt><trkpt lat="35.5465958" lon="10.223356"><ele>41.0</ele><time>2026-04-25T09:06:43.867Z</time></trkpt><trkpt lat="35.5465018" lon="10.2235769"><ele>41.0</ele><time>2026-04-25T09:06:44.879Z</time></trkpt><trkpt lat="35.5464031" lon="10.2237973"><ele>41.33333333333333</ele><time>2026-04-25T09:06:45.881Z</time></trkpt><trkpt lat="35.5463053" lon="10.2240183"><ele>41.666666666666664</ele><time>2026-04-25T09:06:46.871Z</time></trkpt><trkpt lat="35.5462064" lon="10.2242402"><ele>42.0</ele><time>2026-04-25T09:06:47.879Z</time></trkpt><trkpt lat="35.5461098" lon="10.2244591"><ele>42.0</ele><time>2026-04-25T09:06:48.885Z</time></trkpt><trkpt lat="35.5460176" lon="10.2246833"><ele>42.0</ele><time>2026-04-25T09:06:49.872Z</time></trkpt><trkpt lat="35.5459246" lon="10.2249053"><ele>42.0</ele><time>2026-04-25T09:06:50.893Z</time></trkpt><trkpt lat="35.5458279" lon="10.2251284"><ele>42.0</ele><time>2026-04-25T09:06:51.889Z</time></trkpt><trkpt lat="35.5457311" lon="10.2253496"><ele>42.0</ele><time>2026-04-25T09:06:52.891Z</time></trkpt><trkpt lat="35.5456363" lon="10.2255695"><ele>42.0</ele><time>2026-04-25T09:06:53.891Z</time></trkpt><trkpt lat="35.5455407" lon="10.2257894"><ele>42.0</ele><time>2026-04-25T09:06:54.882Z</time></trkpt><trkpt lat="35.5454425" lon="10.22601"><ele>42.0</ele><time>2026-04-25T09:06:55.889Z</time></trkpt><trkpt lat="35.5453441" lon="10.2262297"><ele>42.0</ele><time>2026-04-25T09:06:56.891Z</time></trkpt><trkpt lat="35.545249" lon="10.2264519"><ele>43.0</ele><time>2026-04-25T09:06:57.881Z</time></trkpt><trkpt lat="35.5451543" lon="10.2266709"><ele>44.0</ele><time>2026-04-25T09:06:58.884Z</time></trkpt><trkpt lat="35.545061" lon="10.2268911"><ele>45.0</ele><time>2026-04-25T09:06:59.877Z</time></trkpt><trkpt lat="35.5449649" lon="10.2271158"><ele>44.333333333333336</ele><time>2026-04-25T09:07:00.873Z</time></trkpt><trkpt lat="35.5448687" lon="10.2273349"><ele>43.66666666666667</ele><time>2026-04-25T09:07:01.873Z</time></trkpt><trkpt lat="35.5447739" lon="10.2275561"><ele>43.0</ele><time>2026-04-25T09:07:02.889Z</time></trkpt><trkpt lat="35.5446772" lon="10.2277804"><ele>43.0</ele><time>2026-04-25T09:07:03.876Z</time></trkpt><trkpt lat="35.5445827" lon="10.2280032"><ele>43.0</ele><time>2026-04-25T09:07:04.86Z</time></trkpt><trkpt lat="35.5444856" lon="10.2282267"><ele>43.0</ele><time>2026-04-25T09:07:05.864Z</time></trkpt><trkpt lat="35.5443886" lon="10.2284462"><ele>43.0</ele><time>2026-04-25T09:07:06.88Z</time></trkpt><trkpt lat="35.5442906" lon="10.2286661"><ele>43.0</ele><time>2026-04-25T09:07:07.875Z</time></trkpt><trkpt lat="35.544102" lon="10.2291021"><ele>42.0</ele><time>2026-04-25T09:07:09.928Z</time></trkpt><trkpt lat="35.5438065" lon="10.2297891"><ele>41.5</ele><time>2026-04-25T09:07:12.988Z</time></trkpt><trkpt lat="35.5436303" lon="10.2301948"><ele>41.0</ele><time>2026-04-25T09:07:14.891Z</time></trkpt><trkpt lat="35.5435359" lon="10.2304216"><ele>41.0</ele><time>2026-04-25T09:07:15.866Z</time></trkpt><trkpt lat="35.5434355" lon="10.2306508"><ele>41.0</ele><time>2026-04-25T09:07:16.89Z</time></trkpt><trkpt lat="35.5433387" lon="10.2308755"><ele>41.0</ele><time>2026-04-25T09:07:17.927Z</time></trkpt><trkpt lat="35.5432466" lon="10.231093"><ele>41.0</ele><time>2026-04-25T09:07:18.888Z</time></trkpt><trkpt lat="35.5431516" lon="10.2313156"><ele>41.0</ele><time>2026-04-25T09:07:19.875Z</time></trkpt><trkpt lat="35.5430539" lon="10.231538"><ele>41.0</ele><time>2026-04-25T09:07:20.89Z</time></trkpt><trkpt lat="35.5429565" lon="10.2317591"><ele>41.33333333333333</ele><time>2026-04-25T09:07:21.865Z</time></trkpt><trkpt lat="35.5428581" lon="10.2319836"><ele>41.666666666666664</ele><time>2026-04-25T09:07:22.886Z</time></trkpt><trkpt lat="35.5427611" lon="10.2322071"><ele>42.0</ele><time>2026-04-25T09:07:23.91Z</time></trkpt><trkpt lat="35.5426641" lon="10.2324263"><ele>42.0</ele><time>2026-04-25T09:07:24.888Z</time></trkpt><trkpt lat="35.5425666" lon="10.2326462"><ele>42.0</ele><time>2026-04-25T09:07:25.891Z</time></trkpt><trkpt lat="35.5424671" lon="10.2328668"><ele>42.0</ele><time>2026-04-25T09:07:26.912Z</time></trkpt><trkpt lat="35.5423683" lon="10.2330845"><ele>41.666666666666664</ele><time>2026-04-25T09:07:27.907Z</time></trkpt><trkpt lat="35.5422695" lon="10.2333039"><ele>41.33333333333333</ele><time>2026-04-25T09:07:28.895Z</time></trkpt><trkpt lat="35.5421682" lon="10.2335243"><ele>41.0</ele><time>2026-04-25T09:07:29.907Z</time></trkpt><trkpt lat="35.5420681" lon="10.2337427"><ele>41.0</ele><time>2026-04-25T09:07:30.893Z</time></trkpt><trkpt lat="35.5419667" lon="10.233962"><ele>41.0</ele><time>2026-04-25T09:07:31.89Z</time></trkpt><trkpt lat="35.5418691" lon="10.2341866"><ele>41.0</ele><time>2026-04-25T09:07:32.894Z</time></trkpt><trkpt lat="35.5417743" lon="10.234409"><ele>41.666666666666664</ele><time>2026-04-25T09:07:33.873Z</time></trkpt><trkpt lat="35.5416811" lon="10.2346301"><ele>42.333333333333336</ele><time>2026-04-25T09:07:34.887Z</time></trkpt><trkpt lat="35.5415881" lon="10.2348529"><ele>43.0</ele><time>2026-04-25T09:07:35.897Z</time></trkpt><trkpt lat="35.5414911" lon="10.2350754"><ele>43.0</ele><time>2026-04-25T09:07:36.893Z</time></trkpt><trkpt lat="35.5413952" lon="10.2352955"><ele>43.0</ele><time>2026-04-25T09:07:37.894Z</time></trkpt><trkpt lat="35.5412999" lon="10.2355143"><ele>43.0</ele><time>2026-04-25T09:07:38.899Z</time></trkpt><trkpt lat="35.5412032" lon="10.2357339"><ele>43.0</ele><time>2026-04-25T09:07:39.892Z</time></trkpt><trkpt lat="35.5411081" lon="10.2359526"><ele>43.0</ele><time>2026-04-25T09:07:40.915Z</time></trkpt><trkpt lat="35.5410099" lon="10.2361679"><ele>43.0</ele><time>2026-04-25T09:07:41.888Z</time></trkpt><trkpt lat="35.5409123" lon="10.2363842"><ele>42.66666666666667</ele><time>2026-04-25T09:07:42.898Z</time></trkpt><trkpt lat="35.5408146" lon="10.2366021"><ele>42.333333333333336</ele><time>2026-04-25T09:07:43.893Z</time></trkpt><trkpt lat="35.5407209" lon="10.2368185"><ele>42.0</ele><time>2026-04-25T09:07:44.894Z</time></trkpt><trkpt lat="35.540627" lon="10.2370359"><ele>42.0</ele><time>2026-04-25T09:07:45.895Z</time></trkpt><trkpt lat="35.5405303" lon="10.2372587"><ele>42.0</ele><time>2026-04-25T09:07:46.895Z</time></trkpt><trkpt lat="35.5404344" lon="10.2374779"><ele>42.0</ele><time>2026-04-25T09:07:47.9Z</time></trkpt><trkpt lat="35.5403365" lon="10.237697"><ele>43.333333333333336</ele><time>2026-04-25T09:07:48.89Z</time></trkpt><trkpt lat="35.540238" lon="10.2379149"><ele>44.66666666666667</ele><time>2026-04-25T09:07:49.892Z</time></trkpt><trkpt lat="35.540141" lon="10.2381333"><ele>46.0</ele><time>2026-04-25T09:07:50.899Z</time></trkpt><trkpt lat="35.5400485" lon="10.2383507"><ele>46.0</ele><time>2026-04-25T09:07:51.92Z</time></trkpt><trkpt lat="35.5399566" lon="10.2385676"><ele>46.0</ele><time>2026-04-25T09:07:52.884Z</time></trkpt><trkpt lat="35.539867" lon="10.23879"><ele>46.0</ele><time>2026-04-25T09:07:53.911Z</time></trkpt><trkpt lat="35.5397752" lon="10.2390123"><ele>46.333333333333336</ele><time>2026-04-25T09:07:54.896Z</time></trkpt><trkpt lat="35.5396825" lon="10.2392385"><ele>46.666666666666664</ele><time>2026-04-25T09:07:55.887Z</time></trkpt><trkpt lat="35.5395867" lon="10.239464"><ele>47.0</ele><time>2026-04-25T09:07:56.892Z</time></trkpt><trkpt lat="35.5394872" lon="10.2396841"><ele>47.33333333333333</ele><time>2026-04-25T09:07:57.899Z</time></trkpt><trkpt lat="35.5393912" lon="10.2399052"><ele>47.666666666666664</ele><time>2026-04-25T09:07:58.909Z</time></trkpt><trkpt lat="35.539294" lon="10.240125"><ele>48.0</ele><time>2026-04-25T09:07:59.897Z</time></trkpt><trkpt lat="35.5392006" lon="10.240344"><ele>48.0</ele><time>2026-04-25T09:08:00.886Z</time></trkpt><trkpt lat="35.539106" lon="10.2405601"><ele>48.0</ele><time>2026-04-25T09:08:01.897Z</time></trkpt><trkpt lat="35.539012" lon="10.2407645"><ele>48.0</ele><time>2026-04-25T09:08:02.902Z</time></trkpt><trkpt lat="35.5389126" lon="10.2409566"><ele>48.0</ele><time>2026-04-25T09:08:03.884Z</time></trkpt><trkpt lat="35.5388208" lon="10.2411376"><ele>48.0</ele><time>2026-04-25T09:08:04.897Z</time></trkpt><trkpt lat="35.5387307" lon="10.2413199"><ele>48.0</ele><time>2026-04-25T09:08:05.884Z</time></trkpt><trkpt lat="35.538636" lon="10.2414969"><ele>48.0</ele><time>2026-04-25T09:08:06.893Z</time></trkpt><trkpt lat="35.5385391" lon="10.2416702"><ele>48.0</ele><time>2026-04-25T09:08:07.893Z</time></trkpt><trkpt lat="35.5384431" lon="10.241844"><ele>48.0</ele><time>2026-04-25T09:08:08.901Z</time></trkpt><trkpt lat="35.5383411" lon="10.2420151"><ele>48.0</ele><time>2026-04-25T09:08:09.887Z</time></trkpt><trkpt lat="35.5382377" lon="10.2421854"><ele>48.0</ele><time>2026-04-25T09:08:10.888Z</time></trkpt><trkpt lat="35.5381298" lon="10.2423672"><ele>48.0</ele><time>2026-04-25T09:08:11.886Z</time></trkpt><trkpt lat="35.5380182" lon="10.242547"><ele>48.33333333333333</ele><time>2026-04-25T09:08:12.908Z</time></trkpt><trkpt lat="35.5379064" lon="10.2427256"><ele>48.666666666666664</ele><time>2026-04-25T09:08:13.883Z</time></trkpt><trkpt lat="35.537791" lon="10.2429123"><ele>49.0</ele><time>2026-04-25T09:08:14.886Z</time></trkpt><trkpt lat="35.53767" lon="10.2430979"><ele>48.0</ele><time>2026-04-25T09:08:15.886Z</time></trkpt><trkpt lat="35.5375473" lon="10.2432807"><ele>47.0</ele><time>2026-04-25T09:08:16.884Z</time></trkpt><trkpt lat="35.5374246" lon="10.2434658"><ele>46.0</ele><time>2026-04-25T09:08:17.879Z</time></trkpt><trkpt lat="35.5373003" lon="10.2436558"><ele>46.0</ele><time>2026-04-25T09:08:18.888Z</time></trkpt><trkpt lat="35.5371829" lon="10.2438395"><ele>46.0</ele><time>2026-04-25T09:08:19.886Z</time></trkpt><trkpt lat="35.5370682" lon="10.2440155"><ele>46.0</ele><time>2026-04-25T09:08:20.882Z</time></trkpt><trkpt lat="35.5369524" lon="10.2441913"><ele>46.0</ele><time>2026-04-25T09:08:21.897Z</time></trkpt><trkpt lat="35.5368375" lon="10.2443673"><ele>46.0</ele><time>2026-04-25T09:08:22.882Z</time></trkpt><trkpt lat="35.5367212" lon="10.2445403"><ele>46.0</ele><time>2026-04-25T09:08:23.884Z</time></trkpt><trkpt lat="35.53661" lon="10.2447175"><ele>45.66666666666667</ele><time>2026-04-25T09:08:24.889Z</time></trkpt><trkpt lat="35.5364987" lon="10.244894"><ele>45.333333333333336</ele><time>2026-04-25T09:08:25.884Z</time></trkpt><trkpt lat="35.5363912" lon="10.2450707"><ele>45.0</ele><time>2026-04-25T09:08:26.88Z</time></trkpt><trkpt lat="35.5362878" lon="10.2452487"><ele>45.0</ele><time>2026-04-25T09:08:27.884Z</time></trkpt><trkpt lat="35.5361916" lon="10.2454319"><ele>45.0</ele><time>2026-04-25T09:08:28.88Z</time></trkpt><trkpt lat="35.5361026" lon="10.2456215"><ele>45.0</ele><time>2026-04-25T09:08:29.897Z</time></trkpt><trkpt lat="35.5360176" lon="10.2458136"><ele>45.0</ele><time>2026-04-25T09:08:30.891Z</time></trkpt><trkpt lat="35.5359371" lon="10.2460072"><ele>45.0</ele><time>2026-04-25T09:08:31.885Z</time></trkpt><trkpt lat="35.5358603" lon="10.2461969"><ele>45.0</ele><time>2026-04-25T09:08:32.873Z</time></trkpt><trkpt lat="35.5357819" lon="10.2463914"><ele>45.0</ele><time>2026-04-25T09:08:33.868Z</time></trkpt><trkpt lat="35.5357037" lon="10.2465808"><ele>45.0</ele><time>2026-04-25T09:08:34.896Z</time></trkpt><trkpt lat="35.5356271" lon="10.2467706"><ele>45.0</ele><time>2026-04-25T09:08:35.891Z</time></trkpt><trkpt lat="35.535547" lon="10.2469626"><ele>45.0</ele><time>2026-04-25T09:08:36.889Z</time></trkpt><trkpt lat="35.5354676" lon="10.2471568"><ele>45.0</ele><time>2026-04-25T09:08:37.887Z</time></trkpt><trkpt lat="35.5353869" lon="10.2473493"><ele>45.0</ele><time>2026-04-25T09:08:38.884Z</time></trkpt><trkpt lat="35.5353086" lon="10.2475444"><ele>45.666666666666664</ele><time>2026-04-25T09:08:39.886Z</time></trkpt><trkpt lat="35.5352317" lon="10.2477381"><ele>46.33333333333333</ele><time>2026-04-25T09:08:40.877Z</time></trkpt><trkpt lat="35.535157" lon="10.247929"><ele>47.0</ele><time>2026-04-25T09:08:41.901Z</time></trkpt><trkpt lat="35.5350798" lon="10.2481154"><ele>47.0</ele><time>2026-04-25T09:08:42.895Z</time></trkpt><trkpt lat="35.5349999" lon="10.2483015"><ele>47.0</ele><time>2026-04-25T09:08:43.888Z</time></trkpt><trkpt lat="35.5349146" lon="10.2485004"><ele>47.0</ele><time>2026-04-25T09:08:44.879Z</time></trkpt><trkpt lat="35.5348251" lon="10.2487066"><ele>47.0</ele><time>2026-04-25T09:08:45.885Z</time></trkpt><trkpt lat="35.5347304" lon="10.2489172"><ele>47.0</ele><time>2026-04-25T09:08:46.892Z</time></trkpt><trkpt lat="35.5346361" lon="10.2491273"><ele>47.0</ele><time>2026-04-25T09:08:47.884Z</time></trkpt><trkpt lat="35.5345405" lon="10.2493394"><ele>46.666666666666664</ele><time>2026-04-25T09:08:48.885Z</time></trkpt><trkpt lat="35.5344442" lon="10.2495413"><ele>46.333333333333336</ele><time>2026-04-25T09:08:49.888Z</time></trkpt><trkpt lat="35.5343473" lon="10.2497416"><ele>46.0</ele><time>2026-04-25T09:08:50.888Z</time></trkpt><trkpt lat="35.5342508" lon="10.2499448"><ele>45.0</ele><time>2026-04-25T09:08:51.897Z</time></trkpt><trkpt lat="35.5341525" lon="10.2501447"><ele>44.0</ele><time>2026-04-25T09:08:52.874Z</time></trkpt><trkpt lat="35.5340568" lon="10.2503388"><ele>43.0</ele><time>2026-04-25T09:08:53.886Z</time></trkpt><trkpt lat="35.5339625" lon="10.2505321"><ele>43.66666666666667</ele><time>2026-04-25T09:08:54.888Z</time></trkpt><trkpt lat="35.5338639" lon="10.2507219"><ele>44.333333333333336</ele><time>2026-04-25T09:08:55.897Z</time></trkpt><trkpt lat="35.5337672" lon="10.2509065"><ele>45.0</ele><time>2026-04-25T09:08:56.903Z</time></trkpt><trkpt lat="35.5336756" lon="10.2510839"><ele>45.0</ele><time>2026-04-25T09:08:57.889Z</time></trkpt><trkpt lat="35.5335844" lon="10.2512615"><ele>45.0</ele><time>2026-04-25T09:08:58.883Z</time></trkpt><trkpt lat="35.5334914" lon="10.2514371"><ele>45.0</ele><time>2026-04-25T09:08:59.885Z</time></trkpt><trkpt lat="35.5333993" lon="10.2516132"><ele>45.0</ele><time>2026-04-25T09:09:00.885Z</time></trkpt><trkpt lat="35.5333073" lon="10.2517897"><ele>45.0</ele><time>2026-04-25T09:09:01.915Z</time></trkpt><trkpt lat="35.5332174" lon="10.251965"><ele>45.0</ele><time>2026-04-25T09:09:02.906Z</time></trkpt><trkpt lat="35.5331338" lon="10.2521433"><ele>45.0</ele><time>2026-04-25T09:09:03.886Z</time></trkpt><trkpt lat="35.5330499" lon="10.2523181"><ele>45.0</ele><time>2026-04-25T09:09:04.888Z</time></trkpt><trkpt lat="35.5329659" lon="10.252496"><ele>45.0</ele><time>2026-04-25T09:09:05.877Z</time></trkpt><trkpt lat="35.5328853" lon="10.2526689"><ele>44.666666666666664</ele><time>2026-04-25T09:09:06.886Z</time></trkpt><trkpt lat="35.5328059" lon="10.2528465"><ele>44.33333333333333</ele><time>2026-04-25T09:09:07.886Z</time></trkpt><trkpt lat="35.5327286" lon="10.2530221"><ele>44.0</ele><time>2026-04-25T09:09:08.888Z</time></trkpt><trkpt lat="35.5326495" lon="10.2531988"><ele>44.666666666666664</ele><time>2026-04-25T09:09:09.886Z</time></trkpt><trkpt lat="35.5325703" lon="10.2533708"><ele>45.333333333333336</ele><time>2026-04-25T09:09:10.881Z</time></trkpt><trkpt lat="35.5325011" lon="10.2535428"><ele>46.0</ele><time>2026-04-25T09:09:11.884Z</time></trkpt><trkpt lat="35.5324312" lon="10.2537108"><ele>46.0</ele><time>2026-04-25T09:09:12.901Z</time></trkpt><trkpt lat="35.5323685" lon="10.2538675"><ele>46.0</ele><time>2026-04-25T09:09:13.903Z</time></trkpt><trkpt lat="35.5323062" lon="10.2540194"><ele>46.0</ele><time>2026-04-25T09:09:14.887Z</time></trkpt><trkpt lat="35.5322502" lon="10.2541606"><ele>46.0</ele><time>2026-04-25T09:09:15.895Z</time></trkpt><trkpt lat="35.532191" lon="10.2542872"><ele>46.199999999999996</ele><time>2026-04-25T09:09:16.886Z</time></trkpt><trkpt lat="35.5321462" lon="10.2544041"><ele>46.4</ele><time>2026-04-25T09:09:17.884Z</time></trkpt><trkpt lat="35.5321078" lon="10.2545191"><ele>46.6</ele><time>2026-04-25T09:09:18.874Z</time></trkpt><trkpt lat="35.5320731" lon="10.2546395"><ele>46.8</ele><time>2026-04-25T09:09:19.886Z</time></trkpt><trkpt lat="35.5320364" lon="10.2547573"><ele>47.0</ele><time>2026-04-25T09:09:20.889Z</time></trkpt><trkpt lat="35.531987" lon="10.2548849"><ele>47.0</ele><time>2026-04-25T09:09:21.898Z</time></trkpt><trkpt lat="35.5319321" lon="10.2550186"><ele>47.0</ele><time>2026-04-25T09:09:22.889Z</time></trkpt><trkpt lat="35.5318748" lon="10.2551606"><ele>47.0</ele><time>2026-04-25T09:09:23.884Z</time></trkpt><trkpt lat="35.5318254" lon="10.2552965"><ele>47.0</ele><time>2026-04-25T09:09:24.896Z</time></trkpt><trkpt lat="35.5317826" lon="10.2554144"><ele>47.0</ele><time>2026-04-25T09:09:25.871Z</time></trkpt><trkpt lat="35.5317505" lon="10.2555189"><ele>47.0</ele><time>2026-04-25T09:09:26.882Z</time></trkpt><trkpt lat="35.5317144" lon="10.2556275"><ele>47.0</ele><time>2026-04-25T09:09:27.879Z</time></trkpt><trkpt lat="35.531677" lon="10.255753"><ele>47.0</ele><time>2026-04-25T09:09:28.886Z</time></trkpt><trkpt lat="35.531636" lon="10.2558848"><ele>47.0</ele><time>2026-04-25T09:09:29.896Z</time></trkpt><trkpt lat="35.5315863" lon="10.2560187"><ele>47.0</ele><time>2026-04-25T09:09:30.887Z</time></trkpt><trkpt lat="35.5315389" lon="10.2561494"><ele>47.0</ele><time>2026-04-25T09:09:31.882Z</time></trkpt><trkpt lat="35.5314932" lon="10.2562825"><ele>47.0</ele><time>2026-04-25T09:09:32.884Z</time></trkpt><trkpt lat="35.5314475" lon="10.2564185"><ele>47.0</ele><time>2026-04-25T09:09:33.875Z</time></trkpt><trkpt lat="35.5314027" lon="10.2565529"><ele>47.0</ele><time>2026-04-25T09:09:34.918Z</time></trkpt><trkpt lat="35.5313514" lon="10.2566865"><ele>47.0</ele><time>2026-04-25T09:09:35.878Z</time></trkpt><trkpt lat="35.5313028" lon="10.2568286"><ele>47.0</ele><time>2026-04-25T09:09:36.882Z</time></trkpt><trkpt lat="35.5312554" lon="10.2569737"><ele>47.0</ele><time>2026-04-25T09:09:37.898Z</time></trkpt><trkpt lat="35.531204" lon="10.2571186"><ele>46.75</ele><time>2026-04-25T09:09:38.886Z</time></trkpt><trkpt lat="35.5311545" lon="10.2572501"><ele>46.5</ele><time>2026-04-25T09:09:39.908Z</time></trkpt><trkpt lat="35.531104" lon="10.2573756"><ele>46.25</ele><time>2026-04-25T09:09:40.882Z</time></trkpt><trkpt lat="35.531066" lon="10.2575035"><ele>46.0</ele><time>2026-04-25T09:09:41.886Z</time></trkpt><trkpt lat="35.5310217" lon="10.2576401"><ele>45.66666666666667</ele><time>2026-04-25T09:09:42.877Z</time></trkpt><trkpt lat="35.5309554" lon="10.25783"><ele>45.333333333333336</ele><time>2026-04-25T09:09:43.903Z</time></trkpt><trkpt lat="35.5308742" lon="10.258054"><ele>45.0</ele><time>2026-04-25T09:09:44.901Z</time></trkpt><trkpt lat="35.5307842" lon="10.2583131"><ele>45.0</ele><time>2026-04-25T09:09:45.89Z</time></trkpt><trkpt lat="35.5306989" lon="10.2585541"><ele>45.0</ele><time>2026-04-25T09:09:46.899Z</time></trkpt><trkpt lat="35.5306097" lon="10.2587775"><ele>45.0</ele><time>2026-04-25T09:09:47.902Z</time></trkpt><trkpt lat="35.5305241" lon="10.2589849"><ele>45.0</ele><time>2026-04-25T09:09:48.891Z</time></trkpt><trkpt lat="35.5304402" lon="10.2591778"><ele>45.0</ele><time>2026-04-25T09:09:49.888Z</time></trkpt><trkpt lat="35.5303573" lon="10.2593584"><ele>45.0</ele><time>2026-04-25T09:09:50.881Z</time></trkpt><trkpt lat="35.5302768" lon="10.2595336"><ele>45.333333333333336</ele><time>2026-04-25T09:09:51.875Z</time></trkpt><trkpt lat="35.5301957" lon="10.259705"><ele>45.66666666666667</ele><time>2026-04-25T09:09:52.891Z</time></trkpt><trkpt lat="35.5301152" lon="10.2598724"><ele>46.0</ele><time>2026-04-25T09:09:53.88Z</time></trkpt><trkpt lat="35.5300364" lon="10.2600372"><ele>45.0</ele><time>2026-04-25T09:09:54.892Z</time></trkpt><trkpt lat="35.5299588" lon="10.2602012"><ele>44.0</ele><time>2026-04-25T09:09:55.89Z</time></trkpt><trkpt lat="35.5298816" lon="10.2603633"><ele>43.0</ele><time>2026-04-25T09:09:56.893Z</time></trkpt><trkpt lat="35.5298026" lon="10.2605252"><ele>43.333333333333336</ele><time>2026-04-25T09:09:57.895Z</time></trkpt><trkpt lat="35.5297273" lon="10.2606904"><ele>43.666666666666664</ele><time>2026-04-25T09:09:58.896Z</time></trkpt><trkpt lat="35.5296489" lon="10.2608498"><ele>44.0</ele><time>2026-04-25T09:09:59.888Z</time></trkpt><trkpt lat="35.5295719" lon="10.2610034"><ele>44.0</ele><time>2026-04-25T09:10:00.878Z</time></trkpt><trkpt lat="35.5294957" lon="10.2611576"><ele>44.0</ele><time>2026-04-25T09:10:01.888Z</time></trkpt><trkpt lat="35.5294187" lon="10.2613098"><ele>44.0</ele><time>2026-04-25T09:10:02.892Z</time></trkpt><trkpt lat="35.5293389" lon="10.261455"><ele>44.0</ele><time>2026-04-25T09:10:03.89Z</time></trkpt><trkpt lat="35.5292589" lon="10.2616009"><ele>44.0</ele><time>2026-04-25T09:10:04.881Z</time></trkpt><trkpt lat="35.5291771" lon="10.2617429"><ele>44.0</ele><time>2026-04-25T09:10:05.88Z</time></trkpt><trkpt lat="35.5290977" lon="10.2618822"><ele>44.0</ele><time>2026-04-25T09:10:06.902Z</time></trkpt><trkpt lat="35.5290184" lon="10.2620215"><ele>44.0</ele><time>2026-04-25T09:10:07.887Z</time></trkpt><trkpt lat="35.528937" lon="10.2621532"><ele>44.0</ele><time>2026-04-25T09:10:08.892Z</time></trkpt><trkpt lat="35.5288546" lon="10.2622866"><ele>44.0</ele><time>2026-04-25T09:10:09.88Z</time></trkpt><trkpt lat="35.5287732" lon="10.2624265"><ele>44.0</ele><time>2026-04-25T09:10:10.891Z</time></trkpt><trkpt lat="35.5286907" lon="10.2625595"><ele>44.0</ele><time>2026-04-25T09:10:11.896Z</time></trkpt><trkpt lat="35.5286081" lon="10.2626935"><ele>44.0</ele><time>2026-04-25T09:10:12.885Z</time></trkpt><trkpt lat="35.5285252" lon="10.2628209"><ele>44.0</ele><time>2026-04-25T09:10:13.891Z</time></trkpt><trkpt lat="35.5284436" lon="10.2629491"><ele>44.0</ele><time>2026-04-25T09:10:14.87Z</time></trkpt><trkpt lat="35.5283638" lon="10.2630791"><ele>44.0</ele><time>2026-04-25T09:10:15.889Z</time></trkpt><trkpt lat="35.5282802" lon="10.2632115"><ele>44.25</ele><time>2026-04-25T09:10:16.887Z</time></trkpt><trkpt lat="35.5282002" lon="10.2633409"><ele>44.5</ele><time>2026-04-25T09:10:17.886Z</time></trkpt><trkpt lat="35.5281203" lon="10.2634801"><ele>44.75</ele><time>2026-04-25T09:10:18.894Z</time></trkpt><trkpt lat="35.5280381" lon="10.2636155"><ele>45.0</ele><time>2026-04-25T09:10:19.879Z</time></trkpt><trkpt lat="35.5279575" lon="10.263749"><ele>44.75</ele><time>2026-04-25T09:10:20.9Z</time></trkpt><trkpt lat="35.5278791" lon="10.2638864"><ele>44.5</ele><time>2026-04-25T09:10:21.901Z</time></trkpt><trkpt lat="35.5277975" lon="10.2640225"><ele>44.25</ele><time>2026-04-25T09:10:22.88Z</time></trkpt><trkpt lat="35.5277173" lon="10.2641594"><ele>44.0</ele><time>2026-04-25T09:10:23.878Z</time></trkpt><trkpt lat="35.5276318" lon="10.264288"><ele>44.0</ele><time>2026-04-25T09:10:24.89Z</time></trkpt><trkpt lat="35.5275469" lon="10.2644312"><ele>44.0</ele><time>2026-04-25T09:10:25.887Z</time></trkpt><trkpt lat="35.5274672" lon="10.2645774"><ele>44.0</ele><time>2026-04-25T09:10:26.89Z</time></trkpt><trkpt lat="35.5273823" lon="10.2647229"><ele>44.0</ele><time>2026-04-25T09:10:27.889Z</time></trkpt><trkpt lat="35.5272975" lon="10.2648706"><ele>44.0</ele><time>2026-04-25T09:10:28.888Z</time></trkpt><trkpt lat="35.5272121" lon="10.2650203"><ele>44.0</ele><time>2026-04-25T09:10:29.894Z</time></trkpt><trkpt lat="35.5271263" lon="10.2651744"><ele>44.0</ele><time>2026-04-25T09:10:30.878Z</time></trkpt><trkpt lat="35.5270374" lon="10.2653278"><ele>44.0</ele><time>2026-04-25T09:10:31.899Z</time></trkpt><trkpt lat="35.5269525" lon="10.2654803"><ele>44.0</ele><time>2026-04-25T09:10:32.88Z</time></trkpt><trkpt lat="35.5268704" lon="10.2656366"><ele>44.0</ele><time>2026-04-25T09:10:33.889Z</time></trkpt><trkpt lat="35.5267915" lon="10.2657901"><ele>44.0</ele><time>2026-04-25T09:10:34.902Z</time></trkpt><trkpt lat="35.5267162" lon="10.2659471"><ele>44.0</ele><time>2026-04-25T09:10:35.88Z</time></trkpt><trkpt lat="35.5266437" lon="10.2661066"><ele>44.0</ele><time>2026-04-25T09:10:36.892Z</time></trkpt><trkpt lat="35.5265712" lon="10.2662638"><ele>44.0</ele><time>2026-04-25T09:10:37.878Z</time></trkpt><trkpt lat="35.5264995" lon="10.2664183"><ele>43.75</ele><time>2026-04-25T09:10:38.879Z</time></trkpt><trkpt lat="35.5264287" lon="10.2665764"><ele>43.5</ele><time>2026-04-25T09:10:39.896Z</time></trkpt><trkpt lat="35.5263631" lon="10.2667366"><ele>43.25</ele><time>2026-04-25T09:10:40.888Z</time></trkpt><trkpt lat="35.526301" lon="10.2668915"><ele>43.0</ele><time>2026-04-25T09:10:41.907Z</time></trkpt><trkpt lat="35.5262362" lon="10.2670505"><ele>43.0</ele><time>2026-04-25T09:10:42.882Z</time></trkpt><trkpt lat="35.5261706" lon="10.2672102"><ele>43.0</ele><time>2026-04-25T09:10:43.885Z</time></trkpt><trkpt lat="35.5261051" lon="10.2673689"><ele>43.0</ele><time>2026-04-25T09:10:44.9Z</time></trkpt><trkpt lat="35.5260397" lon="10.267529"><ele>43.0</ele><time>2026-04-25T09:10:45.897Z</time></trkpt><trkpt lat="35.5259754" lon="10.267686"><ele>43.0</ele><time>2026-04-25T09:10:46.903Z</time></trkpt><trkpt lat="35.5259119" lon="10.2678471"><ele>43.0</ele><time>2026-04-25T09:10:47.885Z</time></trkpt><trkpt lat="35.5258447" lon="10.268004"><ele>43.0</ele><time>2026-04-25T09:10:48.888Z</time></trkpt><trkpt lat="35.5257811" lon="10.2681655"><ele>43.0</ele><time>2026-04-25T09:10:49.883Z</time></trkpt><trkpt lat="35.5257125" lon="10.268319"><ele>43.0</ele><time>2026-04-25T09:10:50.898Z</time></trkpt><trkpt lat="35.5256437" lon="10.2684765"><ele>43.0</ele><time>2026-04-25T09:10:51.872Z</time></trkpt><trkpt lat="35.5255724" lon="10.2686371"><ele>43.0</ele><time>2026-04-25T09:10:52.894Z</time></trkpt><trkpt lat="35.5255032" lon="10.2687963"><ele>43.0</ele><time>2026-04-25T09:10:53.896Z</time></trkpt><trkpt lat="35.5254372" lon="10.2689527"><ele>43.5</ele><time>2026-04-25T09:10:54.881Z</time></trkpt><trkpt lat="35.5253694" lon="10.2691118"><ele>44.0</ele><time>2026-04-25T09:10:55.882Z</time></trkpt><trkpt lat="35.5252978" lon="10.2692742"><ele>44.5</ele><time>2026-04-25T09:10:56.893Z</time></trkpt><trkpt lat="35.5252236" lon="10.2694353"><ele>45.0</ele><time>2026-04-25T09:10:57.876Z</time></trkpt><trkpt lat="35.5251442" lon="10.2695999"><ele>45.0</ele><time>2026-04-25T09:10:58.887Z</time></trkpt><trkpt lat="35.525067" lon="10.2697651"><ele>45.0</ele><time>2026-04-25T09:10:59.901Z</time></trkpt><trkpt lat="35.5249947" lon="10.2699326"><ele>45.0</ele><time>2026-04-25T09:11:00.871Z</time></trkpt><trkpt lat="35.524923" lon="10.2700978"><ele>44.25</ele><time>2026-04-25T09:11:01.888Z</time></trkpt><trkpt lat="35.5248522" lon="10.2702561"><ele>43.5</ele><time>2026-04-25T09:11:02.881Z</time></trkpt><trkpt lat="35.5247812" lon="10.2704204"><ele>42.75</ele><time>2026-04-25T09:11:03.884Z</time></trkpt><trkpt lat="35.5247114" lon="10.2705828"><ele>42.0</ele><time>2026-04-25T09:11:04.891Z</time></trkpt><trkpt lat="35.5246414" lon="10.2707474"><ele>42.0</ele><time>2026-04-25T09:11:05.893Z</time></trkpt><trkpt lat="35.5245633" lon="10.2709241"><ele>42.0</ele><time>2026-04-25T09:11:06.901Z</time></trkpt><trkpt lat="35.5244907" lon="10.2711075"><ele>42.0</ele><time>2026-04-25T09:11:07.884Z</time></trkpt><trkpt lat="35.5244181" lon="10.2712933"><ele>41.666666666666664</ele><time>2026-04-25T09:11:08.908Z</time></trkpt><trkpt lat="35.5243479" lon="10.2714791"><ele>41.33333333333333</ele><time>2026-04-25T09:11:09.908Z</time></trkpt><trkpt lat="35.5242767" lon="10.2716638"><ele>41.0</ele><time>2026-04-25T09:11:10.888Z</time></trkpt><trkpt lat="35.5242069" lon="10.2718502"><ele>41.0</ele><time>2026-04-25T09:11:11.894Z</time></trkpt><trkpt lat="35.5241396" lon="10.2720374"><ele>41.0</ele><time>2026-04-25T09:11:12.9Z</time></trkpt><trkpt lat="35.5240756" lon="10.2722217"><ele>41.0</ele><time>2026-04-25T09:11:13.893Z</time></trkpt><trkpt lat="35.5240107" lon="10.2724079"><ele>41.666666666666664</ele><time>2026-04-25T09:11:14.886Z</time></trkpt><trkpt lat="35.5239488" lon="10.272597"><ele>42.333333333333336</ele><time>2026-04-25T09:11:15.881Z</time></trkpt><trkpt lat="35.5238845" lon="10.2727839"><ele>43.0</ele><time>2026-04-25T09:11:16.887Z</time></trkpt><trkpt lat="35.5238239" lon="10.2729723"><ele>43.333333333333336</ele><time>2026-04-25T09:11:17.885Z</time></trkpt><trkpt lat="35.5237585" lon="10.2731603"><ele>43.666666666666664</ele><time>2026-04-25T09:11:18.881Z</time></trkpt><trkpt lat="35.5236939" lon="10.2733485"><ele>44.0</ele><time>2026-04-25T09:11:19.872Z</time></trkpt><trkpt lat="35.5236313" lon="10.2735361"><ele>44.0</ele><time>2026-04-25T09:11:20.878Z</time></trkpt><trkpt lat="35.5235681" lon="10.2737225"><ele>44.0</ele><time>2026-04-25T09:11:21.876Z</time></trkpt><trkpt lat="35.523506" lon="10.2739109"><ele>44.0</ele><time>2026-04-25T09:11:22.884Z</time></trkpt><trkpt lat="35.5234428" lon="10.2741041"><ele>44.0</ele><time>2026-04-25T09:11:23.897Z</time></trkpt><trkpt lat="35.5233775" lon="10.2742932"><ele>44.0</ele><time>2026-04-25T09:11:24.883Z</time></trkpt><trkpt lat="35.523308" lon="10.274483"><ele>44.0</ele><time>2026-04-25T09:11:25.886Z</time></trkpt><trkpt lat="35.523241" lon="10.274675"><ele>43.33333333333333</ele><time>2026-04-25T09:11:26.874Z</time></trkpt><trkpt lat="35.5231808" lon="10.2748557"><ele>42.666666666666664</ele><time>2026-04-25T09:11:27.88Z</time></trkpt><trkpt lat="35.5231179" lon="10.2750423"><ele>42.0</ele><time>2026-04-25T09:11:28.889Z</time></trkpt><trkpt lat="35.5230526" lon="10.2752308"><ele>42.0</ele><time>2026-04-25T09:11:29.872Z</time></trkpt><trkpt lat="35.522984" lon="10.2754194"><ele>42.0</ele><time>2026-04-25T09:11:30.885Z</time></trkpt><trkpt lat="35.5229252" lon="10.2756088"><ele>42.0</ele><time>2026-04-25T09:11:31.888Z</time></trkpt><trkpt lat="35.522863" lon="10.2757965"><ele>42.333333333333336</ele><time>2026-04-25T09:11:32.884Z</time></trkpt><trkpt lat="35.5227983" lon="10.2759931"><ele>42.66666666666667</ele><time>2026-04-25T09:11:33.891Z</time></trkpt><trkpt lat="35.5227349" lon="10.276184"><ele>43.0</ele><time>2026-04-25T09:11:34.885Z</time></trkpt><trkpt lat="35.5226684" lon="10.2763715"><ele>42.333333333333336</ele><time>2026-04-25T09:11:35.888Z</time></trkpt><trkpt lat="35.5226038" lon="10.2765601"><ele>41.666666666666664</ele><time>2026-04-25T09:11:36.9Z</time></trkpt><trkpt lat="35.5225468" lon="10.2767496"><ele>41.0</ele><time>2026-04-25T09:11:37.875Z</time></trkpt><trkpt lat="35.5224899" lon="10.2769442"><ele>41.0</ele><time>2026-04-25T09:11:38.892Z</time></trkpt><trkpt lat="35.5224331" lon="10.2771298"><ele>41.0</ele><time>2026-04-25T09:11:39.875Z</time></trkpt><trkpt lat="35.5223758" lon="10.2773168"><ele>41.0</ele><time>2026-04-25T09:11:40.89Z</time></trkpt><trkpt lat="35.5223133" lon="10.2775049"><ele>41.0</ele><time>2026-04-25T09:11:41.886Z</time></trkpt><trkpt lat="35.5222493" lon="10.2776925"><ele>41.0</ele><time>2026-04-25T09:11:42.877Z</time></trkpt><trkpt lat="35.5221913" lon="10.277889"><ele>41.0</ele><time>2026-04-25T09:11:43.891Z</time></trkpt><trkpt lat="35.5221331" lon="10.2780845"><ele>41.0</ele><time>2026-04-25T09:11:44.89Z</time></trkpt><trkpt lat="35.5220749" lon="10.2782776"><ele>41.0</ele><time>2026-04-25T09:11:45.873Z</time></trkpt><trkpt lat="35.5220193" lon="10.278472"><ele>41.0</ele><time>2026-04-25T09:11:46.879Z</time></trkpt><trkpt lat="35.5219639" lon="10.2786679"><ele>41.666666666666664</ele><time>2026-04-25T09:11:47.891Z</time></trkpt><trkpt lat="35.5219049" lon="10.278868"><ele>42.333333333333336</ele><time>2026-04-25T09:11:48.888Z</time></trkpt><trkpt lat="35.5218445" lon="10.2790727"><ele>43.0</ele><time>2026-04-25T09:11:49.883Z</time></trkpt><trkpt lat="35.5217833" lon="10.2792846"><ele>43.0</ele><time>2026-04-25T09:11:50.878Z</time></trkpt><trkpt lat="35.52172" lon="10.2795037"><ele>43.0</ele><time>2026-04-25T09:11:51.873Z</time></trkpt><trkpt lat="35.5216516" lon="10.2797279"><ele>43.0</ele><time>2026-04-25T09:11:52.877Z</time></trkpt><trkpt lat="35.521581" lon="10.2799502"><ele>43.0</ele><time>2026-04-25T09:11:53.894Z</time></trkpt><trkpt lat="35.5215133" lon="10.2801671"><ele>43.0</ele><time>2026-04-25T09:11:54.891Z</time></trkpt><trkpt lat="35.5214447" lon="10.2803853"><ele>43.0</ele><time>2026-04-25T09:11:55.885Z</time></trkpt><trkpt lat="35.5213764" lon="10.2806041"><ele>43.0</ele><time>2026-04-25T09:11:56.893Z</time></trkpt><trkpt lat="35.5213021" lon="10.2808203"><ele>43.0</ele><time>2026-04-25T09:11:57.89Z</time></trkpt><trkpt lat="35.5212225" lon="10.2810284"><ele>43.0</ele><time>2026-04-25T09:11:58.889Z</time></trkpt><trkpt lat="35.5211386" lon="10.2812356"><ele>42.66666666666667</ele><time>2026-04-25T09:11:59.896Z</time></trkpt><trkpt lat="35.5210536" lon="10.2814409"><ele>42.333333333333336</ele><time>2026-04-25T09:12:00.877Z</time></trkpt><trkpt lat="35.5209682" lon="10.2816493"><ele>42.0</ele><time>2026-04-25T09:12:01.879Z</time></trkpt><trkpt lat="35.5208841" lon="10.2818608"><ele>42.0</ele><time>2026-04-25T09:12:02.886Z</time></trkpt><trkpt lat="35.5207975" lon="10.2820707"><ele>42.0</ele><time>2026-04-25T09:12:03.886Z</time></trkpt><trkpt lat="35.5207063" lon="10.282279"><ele>42.0</ele><time>2026-04-25T09:12:04.888Z</time></trkpt><trkpt lat="35.5206166" lon="10.2824809"><ele>41.666666666666664</ele><time>2026-04-25T09:12:05.874Z</time></trkpt><trkpt lat="35.5205207" lon="10.2826855"><ele>41.33333333333333</ele><time>2026-04-25T09:12:06.885Z</time></trkpt><trkpt lat="35.5204286" lon="10.2828888"><ele>41.0</ele><time>2026-04-25T09:12:07.888Z</time></trkpt><trkpt lat="35.5203391" lon="10.283094"><ele>41.0</ele><time>2026-04-25T09:12:08.875Z</time></trkpt><trkpt lat="35.5202507" lon="10.2832988"><ele>41.0</ele><time>2026-04-25T09:12:09.882Z</time></trkpt><trkpt lat="35.5201582" lon="10.2835016"><ele>41.0</ele><time>2026-04-25T09:12:10.884Z</time></trkpt><trkpt lat="35.5200656" lon="10.2837061"><ele>41.0</ele><time>2026-04-25T09:12:11.885Z</time></trkpt><trkpt lat="35.5199727" lon="10.2839096"><ele>41.0</ele><time>2026-04-25T09:12:12.873Z</time></trkpt><trkpt lat="35.5198776" lon="10.2841121"><ele>41.0</ele><time>2026-04-25T09:12:13.892Z</time></trkpt><trkpt lat="35.5197816" lon="10.2843148"><ele>41.0</ele><time>2026-04-25T09:12:14.89Z</time></trkpt><trkpt lat="35.519685" lon="10.2845136"><ele>41.0</ele><time>2026-04-25T09:12:15.884Z</time></trkpt><trkpt lat="35.5195922" lon="10.2847171"><ele>41.0</ele><time>2026-04-25T09:12:16.914Z</time></trkpt><trkpt lat="35.5194961" lon="10.2849217"><ele>42.33333333333333</ele><time>2026-04-25T09:12:17.88Z</time></trkpt><trkpt lat="35.519403" lon="10.2851271"><ele>43.666666666666664</ele><time>2026-04-25T09:12:18.879Z</time></trkpt><trkpt lat="35.5193124" lon="10.2853276"><ele>45.0</ele><time>2026-04-25T09:12:19.887Z</time></trkpt><trkpt lat="35.5192147" lon="10.2855274"><ele>45.0</ele><time>2026-04-25T09:12:20.873Z</time></trkpt><trkpt lat="35.5191157" lon="10.2857245"><ele>45.0</ele><time>2026-04-25T09:12:21.885Z</time></trkpt><trkpt lat="35.5190101" lon="10.2859198"><ele>45.0</ele><time>2026-04-25T09:12:22.885Z</time></trkpt><trkpt lat="35.518899" lon="10.2861117"><ele>45.0</ele><time>2026-04-25T09:12:23.891Z</time></trkpt><trkpt lat="35.5187819" lon="10.2863001"><ele>45.0</ele><time>2026-04-25T09:12:24.888Z</time></trkpt><trkpt lat="35.5186544" lon="10.2864764"><ele>45.0</ele><time>2026-04-25T09:12:25.881Z</time></trkpt><trkpt lat="35.5185283" lon="10.2866436"><ele>44.666666666666664</ele><time>2026-04-25T09:12:26.885Z</time></trkpt><trkpt lat="35.5183926" lon="10.2868058"><ele>44.33333333333333</ele><time>2026-04-25T09:12:27.881Z</time></trkpt><trkpt lat="35.5182543" lon="10.2869622"><ele>44.0</ele><time>2026-04-25T09:12:28.885Z</time></trkpt><trkpt lat="35.5181124" lon="10.2871183"><ele>44.33333333333333</ele><time>2026-04-25T09:12:29.888Z</time></trkpt><trkpt lat="35.5179662" lon="10.287277"><ele>44.666666666666664</ele><time>2026-04-25T09:12:30.879Z</time></trkpt><trkpt lat="35.5178188" lon="10.2874345"><ele>45.0</ele><time>2026-04-25T09:12:31.875Z</time></trkpt><trkpt lat="35.5176764" lon="10.287588"><ele>45.0</ele><time>2026-04-25T09:12:32.877Z</time></trkpt><trkpt lat="35.517533" lon="10.2877439"><ele>45.0</ele><time>2026-04-25T09:12:33.892Z</time></trkpt><trkpt lat="35.5173905" lon="10.2878993"><ele>45.0</ele><time>2026-04-25T09:12:34.888Z</time></trkpt><trkpt lat="35.5172449" lon="10.2880562"><ele>45.333333333333336</ele><time>2026-04-25T09:12:35.894Z</time></trkpt><trkpt lat="35.5171005" lon="10.288209"><ele>45.66666666666667</ele><time>2026-04-25T09:12:36.895Z</time></trkpt><trkpt lat="35.5169591" lon="10.2883652"><ele>46.0</ele><time>2026-04-25T09:12:37.881Z</time></trkpt><trkpt lat="35.5168181" lon="10.2885187"><ele>46.0</ele><time>2026-04-25T09:12:38.888Z</time></trkpt><trkpt lat="35.5166784" lon="10.288669"><ele>46.0</ele><time>2026-04-25T09:12:39.881Z</time></trkpt><trkpt lat="35.5165353" lon="10.2888232"><ele>46.0</ele><time>2026-04-25T09:12:40.892Z</time></trkpt><trkpt lat="35.5163944" lon="10.2889724"><ele>45.66666666666667</ele><time>2026-04-25T09:12:41.891Z</time></trkpt><trkpt lat="35.5162516" lon="10.2891219"><ele>45.333333333333336</ele><time>2026-04-25T09:12:42.889Z</time></trkpt><trkpt lat="35.5161063" lon="10.2892738"><ele>45.0</ele><time>2026-04-25T09:12:43.886Z</time></trkpt><trkpt lat="35.5159633" lon="10.2894292"><ele>44.666666666666664</ele><time>2026-04-25T09:12:44.886Z</time></trkpt><trkpt lat="35.5158199" lon="10.2895811"><ele>44.33333333333333</ele><time>2026-04-25T09:12:45.877Z</time></trkpt><trkpt lat="35.5156776" lon="10.2897316"><ele>44.0</ele><time>2026-04-25T09:12:46.886Z</time></trkpt><trkpt lat="35.5155327" lon="10.2898848"><ele>45.666666666666664</ele><time>2026-04-25T09:12:47.882Z</time></trkpt><trkpt lat="35.5153874" lon="10.2900358"><ele>47.33333333333333</ele><time>2026-04-25T09:12:48.882Z</time></trkpt><trkpt lat="35.5152427" lon="10.2901863"><ele>49.0</ele><time>2026-04-25T09:12:49.879Z</time></trkpt><trkpt lat="35.5150983" lon="10.2903355"><ele>49.0</ele><time>2026-04-25T09:12:50.895Z</time></trkpt><trkpt lat="35.514953" lon="10.2904818"><ele>49.0</ele><time>2026-04-25T09:12:51.876Z</time></trkpt><trkpt lat="35.5148051" lon="10.2906333"><ele>49.0</ele><time>2026-04-25T09:12:52.874Z</time></trkpt><trkpt lat="35.5146561" lon="10.2907836"><ele>49.33333333333333</ele><time>2026-04-25T09:12:53.892Z</time></trkpt><trkpt lat="35.5145139" lon="10.2909315"><ele>49.66666666666667</ele><time>2026-04-25T09:12:54.886Z</time></trkpt><trkpt lat="35.5143697" lon="10.2910854"><ele>50.0</ele><time>2026-04-25T09:12:55.882Z</time></trkpt><trkpt lat="35.5142238" lon="10.2912367"><ele>50.0</ele><time>2026-04-25T09:12:56.886Z</time></trkpt><trkpt lat="35.5140732" lon="10.2913864"><ele>50.0</ele><time>2026-04-25T09:12:57.893Z</time></trkpt><trkpt lat="35.5139255" lon="10.2915373"><ele>50.0</ele><time>2026-04-25T09:12:58.872Z</time></trkpt><trkpt lat="35.513781" lon="10.2916881"><ele>49.0</ele><time>2026-04-25T09:12:59.886Z</time></trkpt><trkpt lat="35.5136362" lon="10.2918355"><ele>48.0</ele><time>2026-04-25T09:13:00.879Z</time></trkpt><trkpt lat="35.5134932" lon="10.2919835"><ele>47.0</ele><time>2026-04-25T09:13:01.873Z</time></trkpt><trkpt lat="35.5133477" lon="10.292135"><ele>47.33333333333333</ele><time>2026-04-25T09:13:02.871Z</time></trkpt><trkpt lat="35.513204" lon="10.2922861"><ele>47.666666666666664</ele><time>2026-04-25T09:13:03.885Z</time></trkpt><trkpt lat="35.5130589" lon="10.2924373"><ele>48.0</ele><time>2026-04-25T09:13:04.876Z</time></trkpt><trkpt lat="35.5129107" lon="10.292588"><ele>48.0</ele><time>2026-04-25T09:13:05.89Z</time></trkpt><trkpt lat="35.5127616" lon="10.2927394"><ele>48.0</ele><time>2026-04-25T09:13:06.883Z</time></trkpt><trkpt lat="35.5126124" lon="10.2928924"><ele>48.0</ele><time>2026-04-25T09:13:07.885Z</time></trkpt><trkpt lat="35.5124653" lon="10.2930431"><ele>47.666666666666664</ele><time>2026-04-25T09:13:08.881Z</time></trkpt><trkpt lat="35.5123212" lon="10.2931963"><ele>47.33333333333333</ele><time>2026-04-25T09:13:09.891Z</time></trkpt><trkpt lat="35.5121779" lon="10.2933458"><ele>47.0</ele><time>2026-04-25T09:13:10.885Z</time></trkpt><trkpt lat="35.5120307" lon="10.2934942"><ele>48.0</ele><time>2026-04-25T09:13:11.887Z</time></trkpt><trkpt lat="35.5118849" lon="10.2936388"><ele>49.0</ele><time>2026-04-25T09:13:12.874Z</time></trkpt><trkpt lat="35.5117376" lon="10.2937825"><ele>50.0</ele><time>2026-04-25T09:13:13.881Z</time></trkpt><trkpt lat="35.5115904" lon="10.2939305"><ele>50.0</ele><time>2026-04-25T09:13:14.888Z</time></trkpt><trkpt lat="35.5114394" lon="10.2940731"><ele>50.0</ele><time>2026-04-25T09:13:15.893Z</time></trkpt><trkpt lat="35.5112868" lon="10.2942175"><ele>50.0</ele><time>2026-04-25T09:13:16.87Z</time></trkpt><trkpt lat="35.5111336" lon="10.2943525"><ele>49.66666666666667</ele><time>2026-04-25T09:13:17.875Z</time></trkpt><trkpt lat="35.5109775" lon="10.2944912"><ele>49.33333333333333</ele><time>2026-04-25T09:13:18.881Z</time></trkpt><trkpt lat="35.510818" lon="10.2946189"><ele>49.0</ele><time>2026-04-25T09:13:19.882Z</time></trkpt><trkpt lat="35.5106552" lon="10.2947437"><ele>48.666666666666664</ele><time>2026-04-25T09:13:20.882Z</time></trkpt><trkpt lat="35.5104864" lon="10.294858"><ele>48.33333333333333</ele><time>2026-04-25T09:13:21.883Z</time></trkpt><trkpt lat="35.5103189" lon="10.2949727"><ele>48.0</ele><time>2026-04-25T09:13:22.884Z</time></trkpt><trkpt lat="35.5101465" lon="10.295081"><ele>48.0</ele><time>2026-04-25T09:13:23.872Z</time></trkpt><trkpt lat="35.5099713" lon="10.2951784"><ele>48.0</ele><time>2026-04-25T09:13:24.89Z</time></trkpt><trkpt lat="35.5097976" lon="10.2952686"><ele>48.0</ele><time>2026-04-25T09:13:25.884Z</time></trkpt><trkpt lat="35.5096208" lon="10.295359"><ele>48.0</ele><time>2026-04-25T09:13:26.88Z</time></trkpt><trkpt lat="35.5094439" lon="10.2954484"><ele>48.0</ele><time>2026-04-25T09:13:27.878Z</time></trkpt><trkpt lat="35.5092698" lon="10.2955405"><ele>48.0</ele><time>2026-04-25T09:13:28.884Z</time></trkpt><trkpt lat="35.5090991" lon="10.2956229"><ele>47.666666666666664</ele><time>2026-04-25T09:13:29.883Z</time></trkpt><trkpt lat="35.5089241" lon="10.2957072"><ele>47.33333333333333</ele><time>2026-04-25T09:13:30.877Z</time></trkpt><trkpt lat="35.5087494" lon="10.2957993"><ele>47.0</ele><time>2026-04-25T09:13:31.88Z</time></trkpt><trkpt lat="35.5085734" lon="10.2958928"><ele>47.0</ele><time>2026-04-25T09:13:32.873Z</time></trkpt><trkpt lat="35.5084001" lon="10.2959786"><ele>47.0</ele><time>2026-04-25T09:13:33.885Z</time></trkpt><trkpt lat="35.5082235" lon="10.2960671"><ele>47.0</ele><time>2026-04-25T09:13:34.883Z</time></trkpt><trkpt lat="35.5080521" lon="10.2961546"><ele>47.33333333333333</ele><time>2026-04-25T09:13:35.883Z</time></trkpt><trkpt lat="35.5078778" lon="10.2962403"><ele>47.666666666666664</ele><time>2026-04-25T09:13:36.876Z</time></trkpt><trkpt lat="35.5077002" lon="10.2963277"><ele>48.0</ele><time>2026-04-25T09:13:37.881Z</time></trkpt><trkpt lat="35.5075207" lon="10.2964169"><ele>48.0</ele><time>2026-04-25T09:13:38.883Z</time></trkpt><trkpt lat="35.5073476" lon="10.2965032"><ele>48.0</ele><time>2026-04-25T09:13:39.89Z</time></trkpt><trkpt lat="35.5071823" lon="10.2965868"><ele>48.0</ele><time>2026-04-25T09:13:40.873Z</time></trkpt><trkpt lat="35.5070279" lon="10.2966713"><ele>48.33333333333333</ele><time>2026-04-25T09:13:41.893Z</time></trkpt><trkpt lat="35.5068804" lon="10.2967524"><ele>48.666666666666664</ele><time>2026-04-25T09:13:42.885Z</time></trkpt><trkpt lat="35.506742" lon="10.2968352"><ele>49.0</ele><time>2026-04-25T09:13:43.879Z</time></trkpt><trkpt lat="35.506607" lon="10.2969123"><ele>49.0</ele><time>2026-04-25T09:13:44.885Z</time></trkpt><trkpt lat="35.5064691" lon="10.296987"><ele>49.0</ele><time>2026-04-25T09:13:45.884Z</time></trkpt><trkpt lat="35.5063329" lon="10.2970607"><ele>49.0</ele><time>2026-04-25T09:13:46.889Z</time></trkpt><trkpt lat="35.5061975" lon="10.2971338"><ele>49.0</ele><time>2026-04-25T09:13:47.888Z</time></trkpt><trkpt lat="35.5060616" lon="10.2972053"><ele>48.75</ele><time>2026-04-25T09:13:48.88Z</time></trkpt><trkpt lat="35.5059264" lon="10.2972801"><ele>48.5</ele><time>2026-04-25T09:13:49.879Z</time></trkpt><trkpt lat="35.505797" lon="10.29736"><ele>48.25</ele><time>2026-04-25T09:13:50.87Z</time></trkpt><trkpt lat="35.5056687" lon="10.2974301"><ele>48.0</ele><time>2026-04-25T09:13:51.875Z</time></trkpt><trkpt lat="35.5055446" lon="10.2975078"><ele>48.0</ele><time>2026-04-25T09:13:52.881Z</time></trkpt><trkpt lat="35.5054217" lon="10.2975955"><ele>48.0</ele><time>2026-04-25T09:13:53.865Z</time></trkpt><trkpt lat="35.5053043" lon="10.2976838"><ele>48.0</ele><time>2026-04-25T09:13:54.89Z</time></trkpt><trkpt lat="35.505181" lon="10.2977735"><ele>48.0</ele><time>2026-04-25T09:13:55.883Z</time></trkpt><trkpt lat="35.5050566" lon="10.2978631"><ele>47.75</ele><time>2026-04-25T09:13:56.877Z</time></trkpt><trkpt lat="35.5049296" lon="10.2979601"><ele>47.5</ele><time>2026-04-25T09:13:57.884Z</time></trkpt><trkpt lat="35.5048105" lon="10.2980611"><ele>47.25</ele><time>2026-04-25T09:13:58.881Z</time></trkpt><trkpt lat="35.5046806" lon="10.2981584"><ele>47.0</ele><time>2026-04-25T09:13:59.892Z</time></trkpt><trkpt lat="35.5045532" lon="10.2982604"><ele>47.5</ele><time>2026-04-25T09:14:00.873Z</time></trkpt><trkpt lat="35.5044307" lon="10.2983604"><ele>48.0</ele><time>2026-04-25T09:14:01.866Z</time></trkpt><trkpt lat="35.5043067" lon="10.298462"><ele>48.5</ele><time>2026-04-25T09:14:02.877Z</time></trkpt><trkpt lat="35.5041811" lon="10.2985676"><ele>49.0</ele><time>2026-04-25T09:14:03.884Z</time></trkpt><trkpt lat="35.5040567" lon="10.2986715"><ele>49.0</ele><time>2026-04-25T09:14:04.878Z</time></trkpt><trkpt lat="35.5039282" lon="10.2987764"><ele>49.0</ele><time>2026-04-25T09:14:05.881Z</time></trkpt><trkpt lat="35.503794" lon="10.2988857"><ele>49.0</ele><time>2026-04-25T09:14:06.88Z</time></trkpt><trkpt lat="35.5036622" lon="10.2989945"><ele>48.666666666666664</ele><time>2026-04-25T09:14:07.878Z</time></trkpt><trkpt lat="35.5035333" lon="10.2990978"><ele>48.33333333333333</ele><time>2026-04-25T09:14:08.884Z</time></trkpt><trkpt lat="35.5034046" lon="10.2992054"><ele>48.0</ele><time>2026-04-25T09:14:09.881Z</time></trkpt><trkpt lat="35.5032764" lon="10.2993137"><ele>48.0</ele><time>2026-04-25T09:14:10.881Z</time></trkpt><trkpt lat="35.5031456" lon="10.2994199"><ele>48.0</ele><time>2026-04-25T09:14:11.865Z</time></trkpt><trkpt lat="35.5030134" lon="10.2995264"><ele>48.0</ele><time>2026-04-25T09:14:12.885Z</time></trkpt><trkpt lat="35.5028775" lon="10.299633"><ele>48.0</ele><time>2026-04-25T09:14:13.878Z</time></trkpt><trkpt lat="35.5027517" lon="10.2997431"><ele>48.0</ele><time>2026-04-25T09:14:14.873Z</time></trkpt><trkpt lat="35.5026264" lon="10.2998534"><ele>48.0</ele><time>2026-04-25T09:14:15.886Z</time></trkpt><trkpt lat="35.502505" lon="10.2999775"><ele>48.0</ele><time>2026-04-25T09:14:16.888Z</time></trkpt><trkpt lat="35.5023836" lon="10.3001088"><ele>48.0</ele><time>2026-04-25T09:14:17.888Z</time></trkpt><trkpt lat="35.502269" lon="10.3002383"><ele>48.0</ele><time>2026-04-25T09:14:18.867Z</time></trkpt><trkpt lat="35.5021537" lon="10.3003733"><ele>48.0</ele><time>2026-04-25T09:14:19.877Z</time></trkpt><trkpt lat="35.5020429" lon="10.300516"><ele>48.0</ele><time>2026-04-25T09:14:20.873Z</time></trkpt><trkpt lat="35.5019361" lon="10.3006564"><ele>48.0</ele><time>2026-04-25T09:14:21.888Z</time></trkpt><trkpt lat="35.5018351" lon="10.3007993"><ele>48.0</ele><time>2026-04-25T09:14:22.883Z</time></trkpt><trkpt lat="35.5017353" lon="10.3009561"><ele>48.0</ele><time>2026-04-25T09:14:23.877Z</time></trkpt><trkpt lat="35.5016395" lon="10.3011173"><ele>48.0</ele><time>2026-04-25T09:14:24.887Z</time></trkpt><trkpt lat="35.5015415" lon="10.3012837"><ele>48.0</ele><time>2026-04-25T09:14:25.882Z</time></trkpt><trkpt lat="35.5014477" lon="10.3014535"><ele>48.0</ele><time>2026-04-25T09:14:26.877Z</time></trkpt><trkpt lat="35.5013472" lon="10.3016272"><ele>48.0</ele><time>2026-04-25T09:14:27.866Z</time></trkpt><trkpt lat="35.5012459" lon="10.3017985"><ele>48.0</ele><time>2026-04-25T09:14:28.879Z</time></trkpt><trkpt lat="35.5011467" lon="10.3019649"><ele>48.0</ele><time>2026-04-25T09:14:29.883Z</time></trkpt><trkpt lat="35.5010483" lon="10.3021288"><ele>48.0</ele><time>2026-04-25T09:14:30.874Z</time></trkpt><trkpt lat="35.5009531" lon="10.3022942"><ele>48.33333333333333</ele><time>2026-04-25T09:14:31.881Z</time></trkpt><trkpt lat="35.5008608" lon="10.302459"><ele>48.666666666666664</ele><time>2026-04-25T09:14:32.883Z</time></trkpt><trkpt lat="35.5007664" lon="10.3026233"><ele>49.0</ele><time>2026-04-25T09:14:33.877Z</time></trkpt><trkpt lat="35.5006733" lon="10.3027889"><ele>49.0</ele><time>2026-04-25T09:14:34.894Z</time></trkpt><trkpt lat="35.5005786" lon="10.30296"><ele>49.0</ele><time>2026-04-25T09:14:35.886Z</time></trkpt><trkpt lat="35.5004816" lon="10.3031375"><ele>49.0</ele><time>2026-04-25T09:14:36.88Z</time></trkpt><trkpt lat="35.5003846" lon="10.3033164"><ele>48.33333333333333</ele><time>2026-04-25T09:14:37.873Z</time></trkpt><trkpt lat="35.500285" lon="10.303488"><ele>47.666666666666664</ele><time>2026-04-25T09:14:38.883Z</time></trkpt><trkpt lat="35.5001864" lon="10.3036571"><ele>47.0</ele><time>2026-04-25T09:14:39.887Z</time></trkpt><trkpt lat="35.5000911" lon="10.3038287"><ele>46.666666666666664</ele><time>2026-04-25T09:14:40.875Z</time></trkpt><trkpt lat="35.4999936" lon="10.3039997"><ele>46.333333333333336</ele><time>2026-04-25T09:14:41.871Z</time></trkpt><trkpt lat="35.4999011" lon="10.3041735"><ele>46.0</ele><time>2026-04-25T09:14:42.883Z</time></trkpt><trkpt lat="35.4998093" lon="10.304336"><ele>46.0</ele><time>2026-04-25T09:14:43.878Z</time></trkpt><trkpt lat="35.499718" lon="10.3044986"><ele>46.0</ele><time>2026-04-25T09:14:44.878Z</time></trkpt><trkpt lat="35.4996265" lon="10.304656"><ele>46.0</ele><time>2026-04-25T09:14:45.874Z</time></trkpt><trkpt lat="35.4995355" lon="10.3048085"><ele>46.333333333333336</ele><time>2026-04-25T09:14:46.88Z</time></trkpt><trkpt lat="35.4994387" lon="10.3049646"><ele>46.666666666666664</ele><time>2026-04-25T09:14:47.88Z</time></trkpt><trkpt lat="35.4993369" lon="10.3051162"><ele>47.0</ele><time>2026-04-25T09:14:48.872Z</time></trkpt><trkpt lat="35.4992278" lon="10.3052557"><ele>47.0</ele><time>2026-04-25T09:14:49.874Z</time></trkpt><trkpt lat="35.4991165" lon="10.3054033"><ele>47.0</ele><time>2026-04-25T09:14:50.886Z</time></trkpt><trkpt lat="35.4989983" lon="10.3055513"><ele>47.0</ele><time>2026-04-25T09:14:51.892Z</time></trkpt><trkpt lat="35.4988824" lon="10.3056944"><ele>46.666666666666664</ele><time>2026-04-25T09:14:52.894Z</time></trkpt><trkpt lat="35.498763" lon="10.3058359"><ele>46.333333333333336</ele><time>2026-04-25T09:14:53.872Z</time></trkpt><trkpt lat="35.4986427" lon="10.3059762"><ele>46.0</ele><time>2026-04-25T09:14:54.868Z</time></trkpt><trkpt lat="35.4985246" lon="10.3061125"><ele>46.0</ele><time>2026-04-25T09:14:55.886Z</time></trkpt><trkpt lat="35.4984089" lon="10.3062542"><ele>46.0</ele><time>2026-04-25T09:14:56.878Z</time></trkpt><trkpt lat="35.498296" lon="10.3063954"><ele>46.0</ele><time>2026-04-25T09:14:57.888Z</time></trkpt><trkpt lat="35.4981851" lon="10.3065313"><ele>45.66666666666667</ele><time>2026-04-25T09:14:58.889Z</time></trkpt><trkpt lat="35.498071" lon="10.3066679"><ele>45.333333333333336</ele><time>2026-04-25T09:14:59.889Z</time></trkpt><trkpt lat="35.4979585" lon="10.3068056"><ele>45.0</ele><time>2026-04-25T09:15:00.875Z</time></trkpt><trkpt lat="35.4978424" lon="10.3069431"><ele>45.0</ele><time>2026-04-25T09:15:01.87Z</time></trkpt><trkpt lat="35.4977302" lon="10.3070826"><ele>45.0</ele><time>2026-04-25T09:15:02.881Z</time></trkpt><trkpt lat="35.4976182" lon="10.3072185"><ele>45.0</ele><time>2026-04-25T09:15:03.884Z</time></trkpt><trkpt lat="35.497502" lon="10.307357"><ele>45.333333333333336</ele><time>2026-04-25T09:15:04.9Z</time></trkpt><trkpt lat="35.4973881" lon="10.3074938"><ele>45.66666666666667</ele><time>2026-04-25T09:15:05.879Z</time></trkpt><trkpt lat="35.4972759" lon="10.3076307"><ele>46.0</ele><time>2026-04-25T09:15:06.881Z</time></trkpt><trkpt lat="35.4971649" lon="10.307767"><ele>45.66666666666667</ele><time>2026-04-25T09:15:07.869Z</time></trkpt><trkpt lat="35.4970534" lon="10.3079075"><ele>45.333333333333336</ele><time>2026-04-25T09:15:08.884Z</time></trkpt><trkpt lat="35.4969402" lon="10.3080438"><ele>45.0</ele><time>2026-04-25T09:15:09.882Z</time></trkpt><trkpt lat="35.4968231" lon="10.3081861"><ele>45.666666666666664</ele><time>2026-04-25T09:15:10.882Z</time></trkpt><trkpt lat="35.4967095" lon="10.3083275"><ele>46.33333333333333</ele><time>2026-04-25T09:15:11.877Z</time></trkpt><trkpt lat="35.4965925" lon="10.3084658"><ele>47.0</ele><time>2026-04-25T09:15:12.876Z</time></trkpt><trkpt lat="35.4964836" lon="10.3085946"><ele>47.0</ele><time>2026-04-25T09:15:13.875Z</time></trkpt><trkpt lat="35.4963784" lon="10.3087217"><ele>47.0</ele><time>2026-04-25T09:15:14.88Z</time></trkpt><trkpt lat="35.4962794" lon="10.3088458"><ele>47.0</ele><time>2026-04-25T09:15:15.879Z</time></trkpt><trkpt lat="35.4961849" lon="10.3089665"><ele>47.0</ele><time>2026-04-25T09:15:16.893Z</time></trkpt><trkpt lat="35.4960886" lon="10.3090787"><ele>46.5</ele><time>2026-04-25T09:15:17.875Z</time></trkpt><trkpt lat="35.4959963" lon="10.3091873"><ele>46.0</ele><time>2026-04-25T09:15:18.883Z</time></trkpt><trkpt lat="35.4959097" lon="10.3092894"><ele>45.5</ele><time>2026-04-25T09:15:19.883Z</time></trkpt><trkpt lat="35.4958329" lon="10.3093804"><ele>45.0</ele><time>2026-04-25T09:15:20.879Z</time></trkpt><trkpt lat="35.4957613" lon="10.3094723"><ele>45.0</ele><time>2026-04-25T09:15:21.88Z</time></trkpt><trkpt lat="35.4956905" lon="10.3095565"><ele>45.0</ele><time>2026-04-25T09:15:22.874Z</time></trkpt><trkpt lat="35.4956074" lon="10.3096336"><ele>45.0</ele><time>2026-04-25T09:15:23.883Z</time></trkpt><trkpt lat="35.495518" lon="10.3097031"><ele>45.0</ele><time>2026-04-25T09:15:24.891Z</time></trkpt><trkpt lat="35.4954302" lon="10.3097722"><ele>45.0</ele><time>2026-04-25T09:15:25.881Z</time></trkpt><trkpt lat="35.4953629" lon="10.3098602"><ele>46.0</ele><time>2026-04-25T09:15:26.876Z</time></trkpt><trkpt lat="35.4952976" lon="10.309956"><ele>47.0</ele><time>2026-04-25T09:15:27.881Z</time></trkpt><trkpt lat="35.4952364" lon="10.3100556"><ele>48.0</ele><time>2026-04-25T09:15:28.873Z</time></trkpt><trkpt lat="35.4951685" lon="10.3101581"><ele>49.0</ele><time>2026-04-25T09:15:29.889Z</time></trkpt><trkpt lat="35.495093" lon="10.3102671"><ele>50.0</ele><time>2026-04-25T09:15:30.885Z</time></trkpt><trkpt lat="35.4950129" lon="10.3103725"><ele>50.0</ele><time>2026-04-25T09:15:31.887Z</time></trkpt><trkpt lat="35.4949342" lon="10.3104766"><ele>50.0</ele><time>2026-04-25T09:15:32.876Z</time></trkpt><trkpt lat="35.4948506" lon="10.3105809"><ele>50.0</ele><time>2026-04-25T09:15:33.885Z</time></trkpt><trkpt lat="35.4947725" lon="10.3106834"><ele>50.0</ele><time>2026-04-25T09:15:34.885Z</time></trkpt><trkpt lat="35.4946932" lon="10.3107899"><ele>49.25</ele><time>2026-04-25T09:15:35.883Z</time></trkpt><trkpt lat="35.494607" lon="10.310896"><ele>48.5</ele><time>2026-04-25T09:15:36.876Z</time></trkpt><trkpt lat="35.4945247" lon="10.3109998"><ele>47.75</ele><time>2026-04-25T09:15:37.876Z</time></trkpt><trkpt lat="35.4944417" lon="10.3111052"><ele>47.0</ele><time>2026-04-25T09:15:38.873Z</time></trkpt><trkpt lat="35.4943575" lon="10.311207"><ele>47.0</ele><time>2026-04-25T09:15:39.876Z</time></trkpt><trkpt lat="35.4942793" lon="10.3113028"><ele>47.0</ele><time>2026-04-25T09:15:40.861Z</time></trkpt><trkpt lat="35.4942092" lon="10.3113894"><ele>47.0</ele><time>2026-04-25T09:15:41.862Z</time></trkpt><trkpt lat="35.4941409" lon="10.3114681"><ele>47.0</ele><time>2026-04-25T09:15:42.873Z</time></trkpt><trkpt lat="35.4940761" lon="10.3115459"><ele>47.0</ele><time>2026-04-25T09:15:43.866Z</time></trkpt><trkpt lat="35.4940188" lon="10.3116254"><ele>47.2</ele><time>2026-04-25T09:15:44.887Z</time></trkpt><trkpt lat="35.4939586" lon="10.311706"><ele>47.400000000000006</ele><time>2026-04-25T09:15:45.898Z</time></trkpt><trkpt lat="35.4939001" lon="10.3117868"><ele>47.599999999999994</ele><time>2026-04-25T09:15:46.863Z</time></trkpt><trkpt lat="35.4938301" lon="10.3118616"><ele>47.8</ele><time>2026-04-25T09:15:47.869Z</time></trkpt><trkpt lat="35.4937569" lon="10.3119438"><ele>48.0</ele><time>2026-04-25T09:15:48.898Z</time></trkpt><trkpt lat="35.4936852" lon="10.3120294"><ele>48.0</ele><time>2026-04-25T09:15:49.865Z</time></trkpt><trkpt lat="35.4936141" lon="10.312117"><ele>48.0</ele><time>2026-04-25T09:15:50.879Z</time></trkpt><trkpt lat="35.4935486" lon="10.3122005"><ele>48.0</ele><time>2026-04-25T09:15:51.875Z</time></trkpt><trkpt lat="35.4934798" lon="10.3122823"><ele>48.0</ele><time>2026-04-25T09:15:52.873Z</time></trkpt><trkpt lat="35.4934139" lon="10.3123573"><ele>48.0</ele><time>2026-04-25T09:15:53.87Z</time></trkpt><trkpt lat="35.4933526" lon="10.3124291"><ele>48.0</ele><time>2026-04-25T09:15:54.873Z</time></trkpt><trkpt lat="35.4932935" lon="10.3125074"><ele>48.0</ele><time>2026-04-25T09:15:55.875Z</time></trkpt><trkpt lat="35.4932374" lon="10.3125819"><ele>48.0</ele><time>2026-04-25T09:15:56.873Z</time></trkpt><trkpt lat="35.4931873" lon="10.3126434"><ele>48.0</ele><time>2026-04-25T09:15:57.884Z</time></trkpt><trkpt lat="35.4931412" lon="10.3127016"><ele>48.0</ele><time>2026-04-25T09:15:58.888Z</time></trkpt><trkpt lat="35.4930933" lon="10.3127576"><ele>48.0</ele><time>2026-04-25T09:15:59.893Z</time></trkpt><trkpt lat="35.4930128" lon="10.3128741"><ele>48.0</ele><time>2026-04-25T09:16:01.884Z</time></trkpt><trkpt lat="35.492924" lon="10.3129761"><ele>48.0</ele><time>2026-04-25T09:16:03.896Z</time></trkpt><trkpt lat="35.4928747" lon="10.313029"><ele>48.0</ele><time>2026-04-25T09:16:04.887Z</time></trkpt><trkpt lat="35.4927779" lon="10.3131328"><ele>48.0</ele><time>2026-04-25T09:16:06.877Z</time></trkpt><trkpt lat="35.4927245" lon="10.3131912"><ele>48.0</ele><time>2026-04-25T09:16:07.879Z</time></trkpt><trkpt lat="35.4926754" lon="10.3132503"><ele>48.166666666666664</ele><time>2026-04-25T09:16:08.877Z</time></trkpt><trkpt lat="35.4926245" lon="10.3133091"><ele>48.33333333333333</ele><time>2026-04-25T09:16:09.891Z</time></trkpt><trkpt lat="35.4925751" lon="10.313366"><ele>48.5</ele><time>2026-04-25T09:16:10.888Z</time></trkpt><trkpt lat="35.4925263" lon="10.313426"><ele>48.666666666666664</ele><time>2026-04-25T09:16:11.875Z</time></trkpt><trkpt lat="35.492482" lon="10.3134837"><ele>48.83333333333333</ele><time>2026-04-25T09:16:12.881Z</time></trkpt><trkpt lat="35.4924385" lon="10.3135444"><ele>49.0</ele><time>2026-04-25T09:16:13.879Z</time></trkpt><trkpt lat="35.4923607" lon="10.3136507"><ele>49.0</ele><time>2026-04-25T09:16:15.877Z</time></trkpt><trkpt lat="35.4923073" lon="10.3137507"><ele>49.0</ele><time>2026-04-25T09:16:17.894Z</time></trkpt><trkpt lat="35.4922254" lon="10.3138484"><ele>49.0</ele><time>2026-04-25T09:16:19.884Z</time></trkpt><trkpt lat="35.4921362" lon="10.3139571"><ele>49.0</ele><time>2026-04-25T09:16:21.88Z</time></trkpt><trkpt lat="35.4920906" lon="10.3140158"><ele>49.0</ele><time>2026-04-25T09:16:22.884Z</time></trkpt><trkpt lat="35.4920417" lon="10.3140765"><ele>49.0</ele><time>2026-04-25T09:16:23.866Z</time></trkpt><trkpt lat="35.4919977" lon="10.3141372"><ele>49.0</ele><time>2026-04-25T09:16:24.884Z</time></trkpt><trkpt lat="35.4919446" lon="10.3141978"><ele>49.0</ele><time>2026-04-25T09:16:25.895Z</time></trkpt><trkpt lat="35.4918933" lon="10.3142695"><ele>49.0</ele><time>2026-04-25T09:16:26.871Z</time></trkpt><trkpt lat="35.4918451" lon="10.3143428"><ele>49.0</ele><time>2026-04-25T09:16:27.875Z</time></trkpt><trkpt lat="35.4917883" lon="10.3144045"><ele>49.0</ele><time>2026-04-25T09:16:28.863Z</time></trkpt><trkpt lat="35.4917284" lon="10.3144696"><ele>49.0</ele><time>2026-04-25T09:16:29.885Z</time></trkpt><trkpt lat="35.4916696" lon="10.3145281"><ele>49.0</ele><time>2026-04-25T09:16:30.887Z</time></trkpt><trkpt lat="35.4916109" lon="10.3145921"><ele>49.0</ele><time>2026-04-25T09:16:31.875Z</time></trkpt><trkpt lat="35.4915626" lon="10.3146501"><ele>49.0</ele><time>2026-04-25T09:16:32.878Z</time></trkpt><trkpt lat="35.4914742" lon="10.3147449"><ele>49.0</ele><time>2026-04-25T09:16:34.87Z</time></trkpt><trkpt lat="35.4914043" lon="10.3148487"><ele>49.0</ele><time>2026-04-25T09:16:36.887Z</time></trkpt><trkpt lat="35.4913407" lon="10.3149808"><ele>49.0</ele><time>2026-04-25T09:16:38.873Z</time></trkpt><trkpt lat="35.4913036" lon="10.3150523"><ele>49.0</ele><time>2026-04-25T09:16:39.876Z</time></trkpt><trkpt lat="35.4912654" lon="10.315129"><ele>49.0</ele><time>2026-04-25T09:16:40.883Z</time></trkpt><trkpt lat="35.4912242" lon="10.3152088"><ele>49.0</ele><time>2026-04-25T09:16:41.873Z</time></trkpt><trkpt lat="35.4911765" lon="10.3152898"><ele>49.0</ele><time>2026-04-25T09:16:42.881Z</time></trkpt><trkpt lat="35.4911312" lon="10.3153626"><ele>49.0</ele><time>2026-04-25T09:16:43.89Z</time></trkpt><trkpt lat="35.4910885" lon="10.315429"><ele>49.0</ele><time>2026-04-25T09:16:44.878Z</time></trkpt><trkpt lat="35.4910506" lon="10.3155019"><ele>48.714285714285715</ele><time>2026-04-25T09:16:45.886Z</time></trkpt><trkpt lat="35.4910157" lon="10.3155749"><ele>48.42857142857143</ele><time>2026-04-25T09:16:46.874Z</time></trkpt><trkpt lat="35.490985" lon="10.3156498"><ele>48.14285714285714</ele><time>2026-04-25T09:16:47.874Z</time></trkpt><trkpt lat="35.4909497" lon="10.3157268"><ele>47.85714285714286</ele><time>2026-04-25T09:16:48.885Z</time></trkpt><trkpt lat="35.4909111" lon="10.315809"><ele>47.57142857142857</ele><time>2026-04-25T09:16:49.881Z</time></trkpt><trkpt lat="35.4908732" lon="10.3158891"><ele>47.285714285714285</ele><time>2026-04-25T09:16:50.894Z</time></trkpt><trkpt lat="35.4908273" lon="10.315977"><ele>47.0</ele><time>2026-04-25T09:16:51.895Z</time></trkpt><trkpt lat="35.4907829" lon="10.3160603"><ele>47.0</ele><time>2026-04-25T09:16:52.876Z</time></trkpt><trkpt lat="35.4907371" lon="10.3161427"><ele>47.0</ele><time>2026-04-25T09:16:53.869Z</time></trkpt><trkpt lat="35.4906918" lon="10.3162289"><ele>47.0</ele><time>2026-04-25T09:16:54.883Z</time></trkpt><trkpt lat="35.4906472" lon="10.3163172"><ele>47.0</ele><time>2026-04-25T09:16:55.885Z</time></trkpt><trkpt lat="35.4906055" lon="10.3164084"><ele>47.0</ele><time>2026-04-25T09:16:56.872Z</time></trkpt><trkpt lat="35.4905657" lon="10.316499"><ele>47.0</ele><time>2026-04-25T09:16:57.883Z</time></trkpt><trkpt lat="35.490524" lon="10.3165852"><ele>47.0</ele><time>2026-04-25T09:16:58.871Z</time></trkpt><trkpt lat="35.4904838" lon="10.3166727"><ele>47.0</ele><time>2026-04-25T09:16:59.879Z</time></trkpt><trkpt lat="35.4904438" lon="10.316757"><ele>47.0</ele><time>2026-04-25T09:17:00.872Z</time></trkpt><trkpt lat="35.4904008" lon="10.316841"><ele>47.0</ele><time>2026-04-25T09:17:01.873Z</time></trkpt><trkpt lat="35.490359" lon="10.3169254"><ele>47.0</ele><time>2026-04-25T09:17:02.879Z</time></trkpt><trkpt lat="35.4903179" lon="10.3170134"><ele>47.0</ele><time>2026-04-25T09:17:03.873Z</time></trkpt><trkpt lat="35.4902737" lon="10.3171012"><ele>47.0</ele><time>2026-04-25T09:17:04.877Z</time></trkpt><trkpt lat="35.4902331" lon="10.317182"><ele>47.0</ele><time>2026-04-25T09:17:05.881Z</time></trkpt><trkpt lat="35.4901982" lon="10.3172577"><ele>47.0</ele><time>2026-04-25T09:17:06.873Z</time></trkpt><trkpt lat="35.4901639" lon="10.3173295"><ele>47.0</ele><time>2026-04-25T09:17:07.889Z</time></trkpt><trkpt lat="35.4901073" lon="10.3174496"><ele>47.0</ele><time>2026-04-25T09:17:09.882Z</time></trkpt><trkpt lat="35.4900741" lon="10.3175383"><ele>47.0</ele><time>2026-04-25T09:17:11.897Z</time></trkpt><trkpt lat="35.490025" lon="10.3176532"><ele>47.33333333333333</ele><time>2026-04-25T09:17:13.882Z</time></trkpt><trkpt lat="35.4899898" lon="10.3177383"><ele>47.666666666666664</ele><time>2026-04-25T09:17:14.881Z</time></trkpt><trkpt lat="35.4899474" lon="10.3178321"><ele>48.0</ele><time>2026-04-25T09:17:15.876Z</time></trkpt><trkpt lat="35.4898998" lon="10.3179278"><ele>48.33333333333333</ele><time>2026-04-25T09:17:16.881Z</time></trkpt><trkpt lat="35.4898447" lon="10.3180221"><ele>48.666666666666664</ele><time>2026-04-25T09:17:17.888Z</time></trkpt><trkpt lat="35.4897904" lon="10.3181142"><ele>49.0</ele><time>2026-04-25T09:17:18.878Z</time></trkpt><trkpt lat="35.4897394" lon="10.3182091"><ele>49.0</ele><time>2026-04-25T09:17:19.884Z</time></trkpt><trkpt lat="35.4896917" lon="10.318312"><ele>49.0</ele><time>2026-04-25T09:17:20.879Z</time></trkpt><trkpt lat="35.4896476" lon="10.3184129"><ele>49.0</ele><time>2026-04-25T09:17:21.873Z</time></trkpt><trkpt lat="35.4896032" lon="10.318514"><ele>49.0</ele><time>2026-04-25T09:17:22.897Z</time></trkpt><trkpt lat="35.4895538" lon="10.3186204"><ele>49.0</ele><time>2026-04-25T09:17:23.927Z</time></trkpt><trkpt lat="35.4895065" lon="10.3187238"><ele>49.0</ele><time>2026-04-25T09:17:24.891Z</time></trkpt><trkpt lat="35.4894614" lon="10.3188204"><ele>49.0</ele><time>2026-04-25T09:17:25.886Z</time></trkpt><trkpt lat="35.4894158" lon="10.3189224"><ele>49.0</ele><time>2026-04-25T09:17:26.885Z</time></trkpt><trkpt lat="35.4893684" lon="10.3190227"><ele>49.0</ele><time>2026-04-25T09:17:27.875Z</time></trkpt><trkpt lat="35.489321" lon="10.3191189"><ele>49.0</ele><time>2026-04-25T09:17:28.884Z</time></trkpt><trkpt lat="35.489267" lon="10.3192185"><ele>49.0</ele><time>2026-04-25T09:17:29.883Z</time></trkpt><trkpt lat="35.489218" lon="10.3193165"><ele>49.0</ele><time>2026-04-25T09:17:30.889Z</time></trkpt><trkpt lat="35.4891707" lon="10.3194196"><ele>49.0</ele><time>2026-04-25T09:17:31.873Z</time></trkpt><trkpt lat="35.4891196" lon="10.3195286"><ele>49.0</ele><time>2026-04-25T09:17:32.884Z</time></trkpt><trkpt lat="35.4890707" lon="10.3196395"><ele>49.0</ele><time>2026-04-25T09:17:33.865Z</time></trkpt><trkpt lat="35.4890192" lon="10.3197471"><ele>49.0</ele><time>2026-04-25T09:17:34.878Z</time></trkpt><trkpt lat="35.488971" lon="10.3198587"><ele>49.0</ele><time>2026-04-25T09:17:35.877Z</time></trkpt><trkpt lat="35.488922" lon="10.3199696"><ele>49.0</ele><time>2026-04-25T09:17:36.876Z</time></trkpt><trkpt lat="35.4888715" lon="10.320076"><ele>49.0</ele><time>2026-04-25T09:17:37.884Z</time></trkpt><trkpt lat="35.4888218" lon="10.3201943"><ele>49.0</ele><time>2026-04-25T09:17:38.875Z</time></trkpt><trkpt lat="35.4887601" lon="10.3203188"><ele>49.25</ele><time>2026-04-25T09:17:39.89Z</time></trkpt><trkpt lat="35.4886995" lon="10.3204511"><ele>49.5</ele><time>2026-04-25T09:17:40.88Z</time></trkpt><trkpt lat="35.4886417" lon="10.3205912"><ele>49.75</ele><time>2026-04-25T09:17:41.885Z</time></trkpt><trkpt lat="35.4885788" lon="10.3207381"><ele>50.0</ele><time>2026-04-25T09:17:42.882Z</time></trkpt><trkpt lat="35.4885142" lon="10.3208857"><ele>50.0</ele><time>2026-04-25T09:17:43.879Z</time></trkpt><trkpt lat="35.4884458" lon="10.3210351"><ele>50.0</ele><time>2026-04-25T09:17:44.884Z</time></trkpt><trkpt lat="35.4883804" lon="10.3211829"><ele>50.0</ele><time>2026-04-25T09:17:45.884Z</time></trkpt><trkpt lat="35.4883096" lon="10.3213324"><ele>50.0</ele><time>2026-04-25T09:17:46.876Z</time></trkpt><trkpt lat="35.488236" lon="10.3214886"><ele>50.0</ele><time>2026-04-25T09:17:47.879Z</time></trkpt><trkpt lat="35.4881592" lon="10.3216373"><ele>50.0</ele><time>2026-04-25T09:17:48.892Z</time></trkpt><trkpt lat="35.4880827" lon="10.3217857"><ele>50.0</ele><time>2026-04-25T09:17:49.876Z</time></trkpt><trkpt lat="35.4880017" lon="10.3219376"><ele>50.0</ele><time>2026-04-25T09:17:50.88Z</time></trkpt><trkpt lat="35.4879217" lon="10.3220858"><ele>49.75</ele><time>2026-04-25T09:17:51.881Z</time></trkpt><trkpt lat="35.4878386" lon="10.3222335"><ele>49.5</ele><time>2026-04-25T09:17:52.871Z</time></trkpt><trkpt lat="35.4877497" lon="10.3223785"><ele>49.25</ele><time>2026-04-25T09:17:53.9Z</time></trkpt><trkpt lat="35.4876593" lon="10.3225285"><ele>49.0</ele><time>2026-04-25T09:17:54.886Z</time></trkpt><trkpt lat="35.4875695" lon="10.3226793"><ele>49.0</ele><time>2026-04-25T09:17:55.885Z</time></trkpt><trkpt lat="35.4874803" lon="10.3228236"><ele>49.0</ele><time>2026-04-25T09:17:56.872Z</time></trkpt><trkpt lat="35.4873842" lon="10.3229692"><ele>49.0</ele><time>2026-04-25T09:17:57.871Z</time></trkpt><trkpt lat="35.4872914" lon="10.3231162"><ele>48.75</ele><time>2026-04-25T09:17:58.886Z</time></trkpt><trkpt lat="35.4872008" lon="10.3232598"><ele>48.5</ele><time>2026-04-25T09:17:59.894Z</time></trkpt><trkpt lat="35.4871164" lon="10.3234078"><ele>48.25</ele><time>2026-04-25T09:18:00.889Z</time></trkpt><trkpt lat="35.4870294" lon="10.3235556"><ele>48.0</ele><time>2026-04-25T09:18:01.887Z</time></trkpt><trkpt lat="35.4869454" lon="10.3236981"><ele>48.0</ele><time>2026-04-25T09:18:02.871Z</time></trkpt><trkpt lat="35.4868607" lon="10.3238438"><ele>48.0</ele><time>2026-04-25T09:18:03.881Z</time></trkpt><trkpt lat="35.4867764" lon="10.3239869"><ele>48.0</ele><time>2026-04-25T09:18:04.881Z</time></trkpt><trkpt lat="35.4866917" lon="10.3241321"><ele>48.0</ele><time>2026-04-25T09:18:05.875Z</time></trkpt><trkpt lat="35.4866012" lon="10.3242736"><ele>47.666666666666664</ele><time>2026-04-25T09:18:06.879Z</time></trkpt><trkpt lat="35.4865063" lon="10.3244231"><ele>47.33333333333333</ele><time>2026-04-25T09:18:07.875Z</time></trkpt><trkpt lat="35.4864189" lon="10.3245692"><ele>47.0</ele><time>2026-04-25T09:18:08.878Z</time></trkpt><trkpt lat="35.4863275" lon="10.3247137"><ele>47.25</ele><time>2026-04-25T09:18:09.88Z</time></trkpt><trkpt lat="35.4862408" lon="10.3248601"><ele>47.5</ele><time>2026-04-25T09:18:10.882Z</time></trkpt><trkpt lat="35.4861538" lon="10.3250031"><ele>47.75</ele><time>2026-04-25T09:18:11.872Z</time></trkpt><trkpt lat="35.4860657" lon="10.325149"><ele>48.0</ele><time>2026-04-25T09:18:12.879Z</time></trkpt><trkpt lat="35.4859763" lon="10.3252923"><ele>48.0</ele><time>2026-04-25T09:18:13.886Z</time></trkpt><trkpt lat="35.4858896" lon="10.3254415"><ele>48.0</ele><time>2026-04-25T09:18:14.874Z</time></trkpt><trkpt lat="35.4858031" lon="10.3255974"><ele>48.0</ele><time>2026-04-25T09:18:15.876Z</time></trkpt><trkpt lat="35.4857123" lon="10.3257482"><ele>47.75</ele><time>2026-04-25T09:18:16.883Z</time></trkpt><trkpt lat="35.4856203" lon="10.3258949"><ele>47.5</ele><time>2026-04-25T09:18:17.892Z</time></trkpt><trkpt lat="35.4855271" lon="10.3260327"><ele>47.25</ele><time>2026-04-25T09:18:18.883Z</time></trkpt><trkpt lat="35.485435" lon="10.3261767"><ele>47.0</ele><time>2026-04-25T09:18:19.882Z</time></trkpt><trkpt lat="35.4853452" lon="10.3263244"><ele>46.33333333333333</ele><time>2026-04-25T09:18:20.891Z</time></trkpt><trkpt lat="35.4852567" lon="10.3264743"><ele>45.666666666666664</ele><time>2026-04-25T09:18:21.882Z</time></trkpt><trkpt lat="35.4851698" lon="10.3266244"><ele>45.0</ele><time>2026-04-25T09:18:22.872Z</time></trkpt><trkpt lat="35.4850807" lon="10.3267764"><ele>45.0</ele><time>2026-04-25T09:18:23.888Z</time></trkpt><trkpt lat="35.4849926" lon="10.3269273"><ele>45.0</ele><time>2026-04-25T09:18:24.883Z</time></trkpt><trkpt lat="35.4848979" lon="10.3270815"><ele>45.0</ele><time>2026-04-25T09:18:25.88Z</time></trkpt><trkpt lat="35.4848121" lon="10.3272311"><ele>45.0</ele><time>2026-04-25T09:18:26.885Z</time></trkpt><trkpt lat="35.4847226" lon="10.3273779"><ele>45.0</ele><time>2026-04-25T09:18:27.883Z</time></trkpt><trkpt lat="35.4846332" lon="10.3275269"><ele>45.0</ele><time>2026-04-25T09:18:28.886Z</time></trkpt><trkpt lat="35.4845398" lon="10.3276802"><ele>44.666666666666664</ele><time>2026-04-25T09:18:29.876Z</time></trkpt><trkpt lat="35.4844505" lon="10.3278304"><ele>44.33333333333333</ele><time>2026-04-25T09:18:30.889Z</time></trkpt><trkpt lat="35.4843575" lon="10.3279829"><ele>44.0</ele><time>2026-04-25T09:18:31.878Z</time></trkpt><trkpt lat="35.4842685" lon="10.3281372"><ele>44.0</ele><time>2026-04-25T09:18:32.88Z</time></trkpt><trkpt lat="35.4841769" lon="10.3282854"><ele>44.0</ele><time>2026-04-25T09:18:33.887Z</time></trkpt><trkpt lat="35.4840824" lon="10.3284383"><ele>44.0</ele><time>2026-04-25T09:18:34.883Z</time></trkpt><trkpt lat="35.4839872" lon="10.3285884"><ele>44.0</ele><time>2026-04-25T09:18:35.88Z</time></trkpt><trkpt lat="35.4838947" lon="10.3287446"><ele>44.0</ele><time>2026-04-25T09:18:36.882Z</time></trkpt><trkpt lat="35.4837999" lon="10.3289039"><ele>44.0</ele><time>2026-04-25T09:18:37.895Z</time></trkpt><trkpt lat="35.4837068" lon="10.3290602"><ele>44.33333333333333</ele><time>2026-04-25T09:18:38.878Z</time></trkpt><trkpt lat="35.4836142" lon="10.3292144"><ele>44.666666666666664</ele><time>2026-04-25T09:18:39.881Z</time></trkpt><trkpt lat="35.4835264" lon="10.3293692"><ele>45.0</ele><time>2026-04-25T09:18:40.885Z</time></trkpt><trkpt lat="35.483438" lon="10.3295226"><ele>45.0</ele><time>2026-04-25T09:18:41.873Z</time></trkpt><trkpt lat="35.4833456" lon="10.3296813"><ele>45.0</ele><time>2026-04-25T09:18:42.865Z</time></trkpt><trkpt lat="35.4832523" lon="10.3298431"><ele>45.0</ele><time>2026-04-25T09:18:43.864Z</time></trkpt><trkpt lat="35.4831566" lon="10.330001"><ele>45.333333333333336</ele><time>2026-04-25T09:18:44.879Z</time></trkpt><trkpt lat="35.4830614" lon="10.3301565"><ele>45.66666666666667</ele><time>2026-04-25T09:18:45.881Z</time></trkpt><trkpt lat="35.4829721" lon="10.3303127"><ele>46.0</ele><time>2026-04-25T09:18:46.876Z</time></trkpt><trkpt lat="35.4828846" lon="10.3304664"><ele>46.0</ele><time>2026-04-25T09:18:47.881Z</time></trkpt><trkpt lat="35.4827962" lon="10.3306164"><ele>46.0</ele><time>2026-04-25T09:18:48.877Z</time></trkpt><trkpt lat="35.4827067" lon="10.3307676"><ele>46.0</ele><time>2026-04-25T09:18:49.873Z</time></trkpt><trkpt lat="35.4826208" lon="10.3309137"><ele>46.0</ele><time>2026-04-25T09:18:50.892Z</time></trkpt><trkpt lat="35.4825276" lon="10.3310623"><ele>46.0</ele><time>2026-04-25T09:18:51.875Z</time></trkpt><trkpt lat="35.4824344" lon="10.3312156"><ele>46.0</ele><time>2026-04-25T09:18:52.894Z</time></trkpt><trkpt lat="35.482344" lon="10.3313585"><ele>46.333333333333336</ele><time>2026-04-25T09:18:53.877Z</time></trkpt><trkpt lat="35.4822518" lon="10.3315111"><ele>46.666666666666664</ele><time>2026-04-25T09:18:54.881Z</time></trkpt><trkpt lat="35.4821632" lon="10.3316656"><ele>47.0</ele><time>2026-04-25T09:18:55.874Z</time></trkpt><trkpt lat="35.482077" lon="10.3318165"><ele>47.0</ele><time>2026-04-25T09:18:56.883Z</time></trkpt><trkpt lat="35.4819871" lon="10.3319618"><ele>47.0</ele><time>2026-04-25T09:18:57.904Z</time></trkpt><trkpt lat="35.4818936" lon="10.3321073"><ele>47.0</ele><time>2026-04-25T09:18:58.885Z</time></trkpt><trkpt lat="35.4817949" lon="10.3322705"><ele>47.0</ele><time>2026-04-25T09:18:59.891Z</time></trkpt><trkpt lat="35.4816926" lon="10.3324341"><ele>47.0</ele><time>2026-04-25T09:19:00.883Z</time></trkpt><trkpt lat="35.4815976" lon="10.3325995"><ele>47.0</ele><time>2026-04-25T09:19:01.876Z</time></trkpt><trkpt lat="35.4815005" lon="10.3327645"><ele>47.0</ele><time>2026-04-25T09:19:02.881Z</time></trkpt><trkpt lat="35.4814021" lon="10.3329289"><ele>47.0</ele><time>2026-04-25T09:19:03.88Z</time></trkpt><trkpt lat="35.4812982" lon="10.3330993"><ele>47.0</ele><time>2026-04-25T09:19:04.879Z</time></trkpt><trkpt lat="35.4811966" lon="10.3332711"><ele>47.666666666666664</ele><time>2026-04-25T09:19:05.885Z</time></trkpt><trkpt lat="35.4810963" lon="10.3334429"><ele>48.33333333333333</ele><time>2026-04-25T09:19:06.875Z</time></trkpt><trkpt lat="35.4809933" lon="10.3336199"><ele>49.0</ele><time>2026-04-25T09:19:07.875Z</time></trkpt><trkpt lat="35.480893" lon="10.3337927"><ele>48.0</ele><time>2026-04-25T09:19:08.878Z</time></trkpt><trkpt lat="35.4807864" lon="10.3339564"><ele>47.0</ele><time>2026-04-25T09:19:09.92Z</time></trkpt><trkpt lat="35.4806881" lon="10.3341177"><ele>46.0</ele><time>2026-04-25T09:19:10.871Z</time></trkpt><trkpt lat="35.4805855" lon="10.3342777"><ele>46.0</ele><time>2026-04-25T09:19:11.88Z</time></trkpt><trkpt lat="35.4804833" lon="10.3344393"><ele>46.0</ele><time>2026-04-25T09:19:12.863Z</time></trkpt><trkpt lat="35.4803769" lon="10.3346004"><ele>46.0</ele><time>2026-04-25T09:19:13.867Z</time></trkpt><trkpt lat="35.4802657" lon="10.334761"><ele>45.66666666666667</ele><time>2026-04-25T09:19:14.878Z</time></trkpt><trkpt lat="35.4801578" lon="10.3349265"><ele>45.333333333333336</ele><time>2026-04-25T09:19:15.88Z</time></trkpt><trkpt lat="35.4800451" lon="10.3350947"><ele>45.0</ele><time>2026-04-25T09:19:16.88Z</time></trkpt><trkpt lat="35.4799336" lon="10.3352604"><ele>45.0</ele><time>2026-04-25T09:19:17.894Z</time></trkpt><trkpt lat="35.4798186" lon="10.335415"><ele>45.0</ele><time>2026-04-25T09:19:18.889Z</time></trkpt><trkpt lat="35.4797082" lon="10.3355677"><ele>45.0</ele><time>2026-04-25T09:19:19.889Z</time></trkpt><trkpt lat="35.4796024" lon="10.3357161"><ele>44.333333333333336</ele><time>2026-04-25T09:19:20.884Z</time></trkpt><trkpt lat="35.4794986" lon="10.3358654"><ele>43.66666666666667</ele><time>2026-04-25T09:19:21.893Z</time></trkpt><trkpt lat="35.4793908" lon="10.3360146"><ele>43.0</ele><time>2026-04-25T09:19:22.881Z</time></trkpt><trkpt lat="35.4792831" lon="10.3361701"><ele>43.0</ele><time>2026-04-25T09:19:23.885Z</time></trkpt><trkpt lat="35.479172" lon="10.3363294"><ele>43.0</ele><time>2026-04-25T09:19:24.871Z</time></trkpt><trkpt lat="35.4790601" lon="10.3364821"><ele>43.0</ele><time>2026-04-25T09:19:25.885Z</time></trkpt><trkpt lat="35.4789427" lon="10.3366432"><ele>43.333333333333336</ele><time>2026-04-25T09:19:26.891Z</time></trkpt><trkpt lat="35.4788185" lon="10.3368145"><ele>43.666666666666664</ele><time>2026-04-25T09:19:27.873Z</time></trkpt><trkpt lat="35.4786967" lon="10.3369811"><ele>44.0</ele><time>2026-04-25T09:19:28.88Z</time></trkpt><trkpt lat="35.4785747" lon="10.3371491"><ele>43.33333333333333</ele><time>2026-04-25T09:19:29.888Z</time></trkpt><trkpt lat="35.478451" lon="10.3373232"><ele>42.666666666666664</ele><time>2026-04-25T09:19:30.88Z</time></trkpt><trkpt lat="35.4783264" lon="10.3374912"><ele>42.0</ele><time>2026-04-25T09:19:31.881Z</time></trkpt><trkpt lat="35.4782099" lon="10.3376537"><ele>42.0</ele><time>2026-04-25T09:19:32.881Z</time></trkpt><trkpt lat="35.4780918" lon="10.337819"><ele>42.0</ele><time>2026-04-25T09:19:33.882Z</time></trkpt><trkpt lat="35.4779776" lon="10.3379798"><ele>42.0</ele><time>2026-04-25T09:19:34.875Z</time></trkpt><trkpt lat="35.4778632" lon="10.3381431"><ele>42.333333333333336</ele><time>2026-04-25T09:19:35.879Z</time></trkpt><trkpt lat="35.4777484" lon="10.3383029"><ele>42.66666666666667</ele><time>2026-04-25T09:19:36.873Z</time></trkpt><trkpt lat="35.4776379" lon="10.3384672"><ele>43.0</ele><time>2026-04-25T09:19:37.884Z</time></trkpt><trkpt lat="35.4775285" lon="10.3386306"><ele>43.0</ele><time>2026-04-25T09:19:38.88Z</time></trkpt><trkpt lat="35.4774134" lon="10.3387917"><ele>43.0</ele><time>2026-04-25T09:19:39.874Z</time></trkpt><trkpt lat="35.4772976" lon="10.3389547"><ele>43.0</ele><time>2026-04-25T09:19:40.883Z</time></trkpt><trkpt lat="35.4771824" lon="10.3391142"><ele>43.0</ele><time>2026-04-25T09:19:41.871Z</time></trkpt><trkpt lat="35.4770668" lon="10.3392808"><ele>43.0</ele><time>2026-04-25T09:19:42.893Z</time></trkpt><trkpt lat="35.4769483" lon="10.339451"><ele>43.0</ele><time>2026-04-25T09:19:43.862Z</time></trkpt><trkpt lat="35.4768312" lon="10.3396173"><ele>42.333333333333336</ele><time>2026-04-25T09:19:44.87Z</time></trkpt><trkpt lat="35.4767123" lon="10.3397797"><ele>41.666666666666664</ele><time>2026-04-25T09:19:45.885Z</time></trkpt><trkpt lat="35.4765979" lon="10.3399516"><ele>41.0</ele><time>2026-04-25T09:19:46.881Z</time></trkpt><trkpt lat="35.4764849" lon="10.340118"><ele>41.0</ele><time>2026-04-25T09:19:47.893Z</time></trkpt><trkpt lat="35.4763701" lon="10.3402772"><ele>41.0</ele><time>2026-04-25T09:19:48.89Z</time></trkpt><trkpt lat="35.4762555" lon="10.3404341"><ele>41.0</ele><time>2026-04-25T09:19:49.887Z</time></trkpt><trkpt lat="35.4761406" lon="10.3405949"><ele>41.0</ele><time>2026-04-25T09:19:50.862Z</time></trkpt><trkpt lat="35.4760212" lon="10.3407544"><ele>41.0</ele><time>2026-04-25T09:19:51.87Z</time></trkpt><trkpt lat="35.4759067" lon="10.3409164"><ele>41.0</ele><time>2026-04-25T09:19:52.877Z</time></trkpt><trkpt lat="35.4757955" lon="10.3410731"><ele>41.0</ele><time>2026-04-25T09:19:53.884Z</time></trkpt><trkpt lat="35.475684" lon="10.3412296"><ele>41.0</ele><time>2026-04-25T09:19:54.879Z</time></trkpt><trkpt lat="35.4755764" lon="10.3413842"><ele>41.0</ele><time>2026-04-25T09:19:55.889Z</time></trkpt><trkpt lat="35.4754674" lon="10.3415344"><ele>40.666666666666664</ele><time>2026-04-25T09:19:56.88Z</time></trkpt><trkpt lat="35.4753594" lon="10.3416906"><ele>40.333333333333336</ele><time>2026-04-25T09:19:57.871Z</time></trkpt><trkpt lat="35.4752571" lon="10.3418448"><ele>40.0</ele><time>2026-04-25T09:19:58.876Z</time></trkpt><trkpt lat="35.4751499" lon="10.342"><ele>40.0</ele><time>2026-04-25T09:19:59.885Z</time></trkpt><trkpt lat="35.4750441" lon="10.3421528"><ele>40.0</ele><time>2026-04-25T09:20:00.873Z</time></trkpt><trkpt lat="35.4749386" lon="10.3423083"><ele>40.0</ele><time>2026-04-25T09:20:01.89Z</time></trkpt><trkpt lat="35.4748315" lon="10.3424594"><ele>40.66666666666667</ele><time>2026-04-25T09:20:02.884Z</time></trkpt><trkpt lat="35.4747209" lon="10.342611"><ele>41.333333333333336</ele><time>2026-04-25T09:20:03.873Z</time></trkpt><trkpt lat="35.4746124" lon="10.3427601"><ele>42.0</ele><time>2026-04-25T09:20:04.877Z</time></trkpt><trkpt lat="35.4745027" lon="10.3429171"><ele>41.0</ele><time>2026-04-25T09:20:05.873Z</time></trkpt><trkpt lat="35.4743949" lon="10.3430736"><ele>40.0</ele><time>2026-04-25T09:20:06.875Z</time></trkpt><trkpt lat="35.4742825" lon="10.3432262"><ele>39.0</ele><time>2026-04-25T09:20:07.873Z</time></trkpt><trkpt lat="35.4741701" lon="10.3433809"><ele>39.0</ele><time>2026-04-25T09:20:08.881Z</time></trkpt><trkpt lat="35.4740538" lon="10.3435374"><ele>39.0</ele><time>2026-04-25T09:20:09.875Z</time></trkpt><trkpt lat="35.4739403" lon="10.3436926"><ele>39.0</ele><time>2026-04-25T09:20:10.878Z</time></trkpt><trkpt lat="35.4738301" lon="10.3438505"><ele>39.333333333333336</ele><time>2026-04-25T09:20:11.875Z</time></trkpt><trkpt lat="35.4737158" lon="10.3440113"><ele>39.66666666666667</ele><time>2026-04-25T09:20:12.88Z</time></trkpt><trkpt lat="35.473598" lon="10.3441799"><ele>40.0</ele><time>2026-04-25T09:20:13.881Z</time></trkpt><trkpt lat="35.4734763" lon="10.3443482"><ele>40.0</ele><time>2026-04-25T09:20:14.875Z</time></trkpt><trkpt lat="35.4733602" lon="10.3445195"><ele>40.0</ele><time>2026-04-25T09:20:15.873Z</time></trkpt><trkpt lat="35.4732384" lon="10.3446867"><ele>40.0</ele><time>2026-04-25T09:20:16.888Z</time></trkpt><trkpt lat="35.4731192" lon="10.3448522"><ele>40.333333333333336</ele><time>2026-04-25T09:20:17.896Z</time></trkpt><trkpt lat="35.4730011" lon="10.3450195"><ele>40.666666666666664</ele><time>2026-04-25T09:20:18.876Z</time></trkpt><trkpt lat="35.4728805" lon="10.3451891"><ele>41.0</ele><time>2026-04-25T09:20:19.878Z</time></trkpt><trkpt lat="35.4727649" lon="10.3453558"><ele>42.0</ele><time>2026-04-25T09:20:20.879Z</time></trkpt><trkpt lat="35.4726517" lon="10.3455183"><ele>43.0</ele><time>2026-04-25T09:20:21.888Z</time></trkpt><trkpt lat="35.4725368" lon="10.3456791"><ele>44.0</ele><time>2026-04-25T09:20:22.866Z</time></trkpt><trkpt lat="35.4724267" lon="10.3458426"><ele>44.0</ele><time>2026-04-25T09:20:23.884Z</time></trkpt><trkpt lat="35.4723179" lon="10.3459986"><ele>44.0</ele><time>2026-04-25T09:20:24.875Z</time></trkpt><trkpt lat="35.4722062" lon="10.3461542"><ele>44.0</ele><time>2026-04-25T09:20:25.882Z</time></trkpt><trkpt lat="35.4721024" lon="10.3463075"><ele>44.666666666666664</ele><time>2026-04-25T09:20:26.896Z</time></trkpt><trkpt lat="35.4720006" lon="10.3464587"><ele>45.333333333333336</ele><time>2026-04-25T09:20:27.878Z</time></trkpt><trkpt lat="35.471901" lon="10.3465988"><ele>46.0</ele><time>2026-04-25T09:20:28.878Z</time></trkpt><trkpt lat="35.4718001" lon="10.3467404"><ele>46.0</ele><time>2026-04-25T09:20:29.872Z</time></trkpt><trkpt lat="35.4716993" lon="10.3468721"><ele>46.0</ele><time>2026-04-25T09:20:30.873Z</time></trkpt><trkpt lat="35.4716012" lon="10.3470103"><ele>46.0</ele><time>2026-04-25T09:20:31.892Z</time></trkpt><trkpt lat="35.4715075" lon="10.3471446"><ele>46.0</ele><time>2026-04-25T09:20:32.867Z</time></trkpt><trkpt lat="35.4714126" lon="10.3472819"><ele>46.5</ele><time>2026-04-25T09:20:33.877Z</time></trkpt><trkpt lat="35.4713156" lon="10.3474176"><ele>47.0</ele><time>2026-04-25T09:20:34.868Z</time></trkpt><trkpt lat="35.4712177" lon="10.3475587"><ele>47.5</ele><time>2026-04-25T09:20:35.883Z</time></trkpt><trkpt lat="35.4711241" lon="10.3477039"><ele>48.0</ele><time>2026-04-25T09:20:36.868Z</time></trkpt><trkpt lat="35.4710254" lon="10.3478562"><ele>48.0</ele><time>2026-04-25T09:20:37.884Z</time></trkpt><trkpt lat="35.4709228" lon="10.3480147"><ele>48.0</ele><time>2026-04-25T09:20:38.894Z</time></trkpt><trkpt lat="35.4708096" lon="10.3481835"><ele>48.0</ele><time>2026-04-25T09:20:39.883Z</time></trkpt><trkpt lat="35.4706917" lon="10.3483566"><ele>48.0</ele><time>2026-04-25T09:20:40.876Z</time></trkpt><trkpt lat="35.470573" lon="10.3485297"><ele>48.0</ele><time>2026-04-25T09:20:41.879Z</time></trkpt><trkpt lat="35.4704503" lon="10.348686"><ele>48.0</ele><time>2026-04-25T09:20:42.869Z</time></trkpt><trkpt lat="35.4703292" lon="10.3488387"><ele>49.0</ele><time>2026-04-25T09:20:43.876Z</time></trkpt><trkpt lat="35.4702168" lon="10.3489926"><ele>50.0</ele><time>2026-04-25T09:20:44.868Z</time></trkpt><trkpt lat="35.4701169" lon="10.3491338"><ele>51.0</ele><time>2026-04-25T09:20:45.881Z</time></trkpt><trkpt lat="35.4700211" lon="10.3492762"><ele>51.0</ele><time>2026-04-25T09:20:46.886Z</time></trkpt><trkpt lat="35.4699224" lon="10.3494185"><ele>51.0</ele><time>2026-04-25T09:20:47.872Z</time></trkpt><trkpt lat="35.4698188" lon="10.3495576"><ele>51.0</ele><time>2026-04-25T09:20:48.888Z</time></trkpt><trkpt lat="35.469723" lon="10.3497014"><ele>51.33333333333333</ele><time>2026-04-25T09:20:49.874Z</time></trkpt><trkpt lat="35.4696223" lon="10.3498475"><ele>51.666666666666664</ele><time>2026-04-25T09:20:50.879Z</time></trkpt><trkpt lat="35.4695168" lon="10.3499928"><ele>52.0</ele><time>2026-04-25T09:20:51.876Z</time></trkpt><trkpt lat="35.4694172" lon="10.3501421"><ele>52.0</ele><time>2026-04-25T09:20:52.887Z</time></trkpt><trkpt lat="35.4693156" lon="10.350291"><ele>52.0</ele><time>2026-04-25T09:20:53.881Z</time></trkpt><trkpt lat="35.4692135" lon="10.3504334"><ele>52.0</ele><time>2026-04-25T09:20:54.877Z</time></trkpt><trkpt lat="35.4691072" lon="10.3505847"><ele>51.0</ele><time>2026-04-25T09:20:55.884Z</time></trkpt><trkpt lat="35.4690021" lon="10.3507391"><ele>50.0</ele><time>2026-04-25T09:20:56.879Z</time></trkpt><trkpt lat="35.4688973" lon="10.3508923"><ele>49.0</ele><time>2026-04-25T09:20:57.873Z</time></trkpt><trkpt lat="35.4687939" lon="10.3510462"><ele>49.33333333333333</ele><time>2026-04-25T09:20:58.886Z</time></trkpt><trkpt lat="35.4686908" lon="10.351195"><ele>49.66666666666667</ele><time>2026-04-25T09:20:59.887Z</time></trkpt><trkpt lat="35.4685887" lon="10.3513363"><ele>50.0</ele><time>2026-04-25T09:21:00.886Z</time></trkpt><trkpt lat="35.4684867" lon="10.3514888"><ele>50.0</ele><time>2026-04-25T09:21:01.881Z</time></trkpt><trkpt lat="35.4683795" lon="10.3516328"><ele>50.0</ele><time>2026-04-25T09:21:02.874Z</time></trkpt><trkpt lat="35.4682747" lon="10.3517762"><ele>50.0</ele><time>2026-04-25T09:21:03.891Z</time></trkpt><trkpt lat="35.4681713" lon="10.3519163"><ele>50.0</ele><time>2026-04-25T09:21:04.87Z</time></trkpt><trkpt lat="35.4680625" lon="10.3520609"><ele>50.0</ele><time>2026-04-25T09:21:05.872Z</time></trkpt><trkpt lat="35.4679518" lon="10.3522036"><ele>50.0</ele><time>2026-04-25T09:21:06.882Z</time></trkpt><trkpt lat="35.4678424" lon="10.3523416"><ele>49.66666666666667</ele><time>2026-04-25T09:21:07.879Z</time></trkpt><trkpt lat="35.4677323" lon="10.3524793"><ele>49.33333333333333</ele><time>2026-04-25T09:21:08.883Z</time></trkpt><trkpt lat="35.4676258" lon="10.352613"><ele>49.0</ele><time>2026-04-25T09:21:09.868Z</time></trkpt><trkpt lat="35.4675171" lon="10.3527521"><ele>49.0</ele><time>2026-04-25T09:21:10.877Z</time></trkpt><trkpt lat="35.4674012" lon="10.3528904"><ele>49.0</ele><time>2026-04-25T09:21:11.885Z</time></trkpt><trkpt lat="35.467289" lon="10.3530264"><ele>49.0</ele><time>2026-04-25T09:21:12.886Z</time></trkpt><trkpt lat="35.4671784" lon="10.353162"><ele>48.666666666666664</ele><time>2026-04-25T09:21:13.875Z</time></trkpt><trkpt lat="35.467073" lon="10.353299"><ele>48.33333333333333</ele><time>2026-04-25T09:21:14.884Z</time></trkpt><trkpt lat="35.4669644" lon="10.35344"><ele>48.0</ele><time>2026-04-25T09:21:15.881Z</time></trkpt><trkpt lat="35.4668523" lon="10.3535782"><ele>48.0</ele><time>2026-04-25T09:21:16.868Z</time></trkpt><trkpt lat="35.4667497" lon="10.3537124"><ele>48.0</ele><time>2026-04-25T09:21:17.877Z</time></trkpt><trkpt lat="35.4666453" lon="10.35385"><ele>48.0</ele><time>2026-04-25T09:21:18.876Z</time></trkpt><trkpt lat="35.4665375" lon="10.3539794"><ele>48.5</ele><time>2026-04-25T09:21:19.874Z</time></trkpt><trkpt lat="35.4664336" lon="10.3541116"><ele>49.0</ele><time>2026-04-25T09:21:20.884Z</time></trkpt><trkpt lat="35.4663274" lon="10.3542337"><ele>49.5</ele><time>2026-04-25T09:21:21.91Z</time></trkpt><trkpt lat="35.4662274" lon="10.3543609"><ele>50.0</ele><time>2026-04-25T09:21:22.866Z</time></trkpt><trkpt lat="35.4661247" lon="10.3544905"><ele>50.333333333333336</ele><time>2026-04-25T09:21:23.898Z</time></trkpt><trkpt lat="35.4660175" lon="10.354621"><ele>50.66666666666667</ele><time>2026-04-25T09:21:24.886Z</time></trkpt><trkpt lat="35.4659125" lon="10.3547546"><ele>51.0</ele><time>2026-04-25T09:21:25.87Z</time></trkpt><trkpt lat="35.4658035" lon="10.3548904"><ele>51.0</ele><time>2026-04-25T09:21:26.903Z</time></trkpt><trkpt lat="35.465697" lon="10.3550281"><ele>51.0</ele><time>2026-04-25T09:21:27.907Z</time></trkpt><trkpt lat="35.4655875" lon="10.3551655"><ele>51.0</ele><time>2026-04-25T09:21:28.907Z</time></trkpt><trkpt lat="35.4654756" lon="10.3552998"><ele>51.0</ele><time>2026-04-25T09:21:29.895Z</time></trkpt><trkpt lat="35.465366" lon="10.3554374"><ele>51.0</ele><time>2026-04-25T09:21:30.903Z</time></trkpt><trkpt lat="35.4652609" lon="10.3555705"><ele>51.0</ele><time>2026-04-25T09:21:31.874Z</time></trkpt><trkpt lat="35.4651612" lon="10.3557006"><ele>51.0</ele><time>2026-04-25T09:21:32.884Z</time></trkpt><trkpt lat="35.465069" lon="10.3558228"><ele>51.0</ele><time>2026-04-25T09:21:33.907Z</time></trkpt><trkpt lat="35.4649752" lon="10.3559429"><ele>51.0</ele><time>2026-04-25T09:21:34.922Z</time></trkpt><trkpt lat="35.4648829" lon="10.3560522"><ele>51.0</ele><time>2026-04-25T09:21:35.892Z</time></trkpt><trkpt lat="35.4647965" lon="10.3561618"><ele>51.0</ele><time>2026-04-25T09:21:36.896Z</time></trkpt><trkpt lat="35.4647167" lon="10.3562571"><ele>51.0</ele><time>2026-04-25T09:21:37.901Z</time></trkpt><trkpt lat="35.4646466" lon="10.3563501"><ele>51.0</ele><time>2026-04-25T09:21:38.898Z</time></trkpt><trkpt lat="35.464577" lon="10.3564425"><ele>51.0</ele><time>2026-04-25T09:21:39.908Z</time></trkpt><trkpt lat="35.4645173" lon="10.3565244"><ele>51.0</ele><time>2026-04-25T09:21:40.897Z</time></trkpt><trkpt lat="35.4644652" lon="10.3565952"><ele>51.333333333333336</ele><time>2026-04-25T09:21:41.89Z</time></trkpt><trkpt lat="35.4644155" lon="10.3566554"><ele>51.66666666666667</ele><time>2026-04-25T09:21:42.897Z</time></trkpt><trkpt lat="35.4643693" lon="10.356719"><ele>52.0</ele><time>2026-04-25T09:21:43.885Z</time></trkpt><trkpt lat="35.4643193" lon="10.356785"><ele>52.333333333333336</ele><time>2026-04-25T09:21:44.898Z</time></trkpt><trkpt lat="35.464258" lon="10.3568663"><ele>52.66666666666667</ele><time>2026-04-25T09:21:45.896Z</time></trkpt><trkpt lat="35.4641914" lon="10.3569607"><ele>53.0</ele><time>2026-04-25T09:21:46.912Z</time></trkpt><trkpt lat="35.4641109" lon="10.3570644"><ele>53.0</ele><time>2026-04-25T09:21:47.907Z</time></trkpt><trkpt lat="35.4640255" lon="10.3571679"><ele>53.0</ele><time>2026-04-25T09:21:48.906Z</time></trkpt><trkpt lat="35.4639415" lon="10.3572704"><ele>53.0</ele><time>2026-04-25T09:21:49.878Z</time></trkpt><trkpt lat="35.4638623" lon="10.3573675"><ele>53.0</ele><time>2026-04-25T09:21:50.906Z</time></trkpt><trkpt lat="35.4637823" lon="10.3574646"><ele>52.5</ele><time>2026-04-25T09:21:51.9Z</time></trkpt><trkpt lat="35.4637003" lon="10.3575624"><ele>52.0</ele><time>2026-04-25T09:21:52.917Z</time></trkpt><trkpt lat="35.463615" lon="10.357662"><ele>51.5</ele><time>2026-04-25T09:21:53.9Z</time></trkpt><trkpt lat="35.4635241" lon="10.3577856"><ele>51.0</ele><time>2026-04-25T09:21:54.88Z</time></trkpt><trkpt lat="35.4634202" lon="10.3579212"><ele>51.0</ele><time>2026-04-25T09:21:55.911Z</time></trkpt><trkpt lat="35.4632957" lon="10.3580668"><ele>51.0</ele><time>2026-04-25T09:21:56.908Z</time></trkpt><trkpt lat="35.4631675" lon="10.3582059"><ele>51.0</ele><time>2026-04-25T09:21:57.9Z</time></trkpt><trkpt lat="35.4630493" lon="10.3583342"><ele>51.0</ele><time>2026-04-25T09:21:58.9Z</time></trkpt><trkpt lat="35.4629521" lon="10.3584398"><ele>51.0</ele><time>2026-04-25T09:21:59.902Z</time></trkpt><trkpt lat="35.4628603" lon="10.358547"><ele>51.0</ele><time>2026-04-25T09:22:00.887Z</time></trkpt><trkpt lat="35.4627705" lon="10.3586497"><ele>51.0</ele><time>2026-04-25T09:22:01.903Z</time></trkpt><trkpt lat="35.4626882" lon="10.3587477"><ele>51.0</ele><time>2026-04-25T09:22:02.893Z</time></trkpt><trkpt lat="35.4626008" lon="10.3588494"><ele>51.0</ele><time>2026-04-25T09:22:03.903Z</time></trkpt><trkpt lat="35.4625105" lon="10.3589545"><ele>51.0</ele><time>2026-04-25T09:22:04.876Z</time></trkpt><trkpt lat="35.4624174" lon="10.3590609"><ele>51.0</ele><time>2026-04-25T09:22:05.906Z</time></trkpt><trkpt lat="35.462324" lon="10.359172"><ele>51.0</ele><time>2026-04-25T09:22:06.89Z</time></trkpt><trkpt lat="35.4622279" lon="10.3592758"><ele>51.0</ele><time>2026-04-25T09:22:07.906Z</time></trkpt><trkpt lat="35.4621353" lon="10.3593758"><ele>51.0</ele><time>2026-04-25T09:22:08.912Z</time></trkpt><trkpt lat="35.4620515" lon="10.359467"><ele>51.0</ele><time>2026-04-25T09:22:09.904Z</time></trkpt><trkpt lat="35.4619738" lon="10.3595564"><ele>51.4</ele><time>2026-04-25T09:22:10.912Z</time></trkpt><trkpt lat="35.4618989" lon="10.3596485"><ele>51.8</ele><time>2026-04-25T09:22:11.894Z</time></trkpt><trkpt lat="35.4618324" lon="10.3597388"><ele>52.199999999999996</ele><time>2026-04-25T09:22:12.897Z</time></trkpt><trkpt lat="35.4617656" lon="10.3598137"><ele>52.599999999999994</ele><time>2026-04-25T09:22:13.901Z</time></trkpt><trkpt lat="35.4617008" lon="10.3598868"><ele>53.0</ele><time>2026-04-25T09:22:14.912Z</time></trkpt><trkpt lat="35.4616409" lon="10.359955"><ele>53.2</ele><time>2026-04-25T09:22:15.909Z</time></trkpt><trkpt lat="35.461578" lon="10.3600254"><ele>53.4</ele><time>2026-04-25T09:22:16.891Z</time></trkpt><trkpt lat="35.4615166" lon="10.3600979"><ele>53.60000000000001</ele><time>2026-04-25T09:22:17.889Z</time></trkpt><trkpt lat="35.4614535" lon="10.3601785"><ele>53.800000000000004</ele><time>2026-04-25T09:22:18.902Z</time></trkpt><trkpt lat="35.4613815" lon="10.3602591"><ele>54.0</ele><time>2026-04-25T09:22:19.895Z</time></trkpt><trkpt lat="35.4613092" lon="10.3603478"><ele>54.0</ele><time>2026-04-25T09:22:20.915Z</time></trkpt><trkpt lat="35.4612322" lon="10.3604417"><ele>54.00000000000001</ele><time>2026-04-25T09:22:21.908Z</time></trkpt><trkpt lat="35.4611587" lon="10.3605346"><ele>54.00000000000001</ele><time>2026-04-25T09:22:22.917Z</time></trkpt><trkpt lat="35.4610869" lon="10.360626"><ele>54.0</ele><time>2026-04-25T09:22:23.864Z</time></trkpt><trkpt lat="35.4610081" lon="10.3607271"><ele>54.0</ele><time>2026-04-25T09:22:24.911Z</time></trkpt><trkpt lat="35.460929" lon="10.3608286"><ele>54.5</ele><time>2026-04-25T09:22:25.917Z</time></trkpt><trkpt lat="35.4608469" lon="10.3609334"><ele>55.0</ele><time>2026-04-25T09:22:26.906Z</time></trkpt><trkpt lat="35.4607671" lon="10.3610335"><ele>55.5</ele><time>2026-04-25T09:22:27.906Z</time></trkpt><trkpt lat="35.4606889" lon="10.3611371"><ele>56.0</ele><time>2026-04-25T09:22:28.894Z</time></trkpt><trkpt lat="35.4606132" lon="10.3612323"><ele>56.00000000000001</ele><time>2026-04-25T09:22:29.927Z</time></trkpt><trkpt lat="35.4605445" lon="10.3613241"><ele>56.0</ele><time>2026-04-25T09:22:30.911Z</time></trkpt><trkpt lat="35.460477" lon="10.3614063"><ele>56.0</ele><time>2026-04-25T09:22:31.914Z</time></trkpt><trkpt lat="35.4604212" lon="10.3614723"><ele>56.0</ele><time>2026-04-25T09:22:32.902Z</time></trkpt><trkpt lat="35.4603761" lon="10.361533"><ele>56.00000000000001</ele><time>2026-04-25T09:22:33.881Z</time></trkpt><trkpt lat="35.4603278" lon="10.361589"><ele>56.0</ele><time>2026-04-25T09:22:34.904Z</time></trkpt><trkpt lat="35.4602753" lon="10.3616554"><ele>55.4</ele><time>2026-04-25T09:22:35.856Z</time></trkpt><trkpt lat="35.4602212" lon="10.3617331"><ele>54.8</ele><time>2026-04-25T09:22:36.867Z</time></trkpt><trkpt lat="35.4601552" lon="10.3618206"><ele>54.199999999999996</ele><time>2026-04-25T09:22:37.884Z</time></trkpt><trkpt lat="35.4600853" lon="10.3619063"><ele>53.599999999999994</ele><time>2026-04-25T09:22:38.901Z</time></trkpt><trkpt lat="35.4600119" lon="10.3619974"><ele>53.0</ele><time>2026-04-25T09:22:39.902Z</time></trkpt><trkpt lat="35.4599363" lon="10.3620907"><ele>53.0</ele><time>2026-04-25T09:22:40.916Z</time></trkpt><trkpt lat="35.4598579" lon="10.3621835"><ele>53.0</ele><time>2026-04-25T09:22:41.903Z</time></trkpt><trkpt lat="35.4597746" lon="10.3622842"><ele>53.0</ele><time>2026-04-25T09:22:42.899Z</time></trkpt><trkpt lat="35.4596919" lon="10.3623935"><ele>53.0</ele><time>2026-04-25T09:22:43.899Z</time></trkpt><trkpt lat="35.4596084" lon="10.3625059"><ele>52.75</ele><time>2026-04-25T09:22:44.907Z</time></trkpt><trkpt lat="35.4595262" lon="10.3626127"><ele>52.5</ele><time>2026-04-25T09:22:45.905Z</time></trkpt><trkpt lat="35.459439" lon="10.3627248"><ele>52.25</ele><time>2026-04-25T09:22:46.894Z</time></trkpt><trkpt lat="35.4593543" lon="10.3628366"><ele>52.0</ele><time>2026-04-25T09:22:47.893Z</time></trkpt><trkpt lat="35.4592675" lon="10.3629544"><ele>52.0</ele><time>2026-04-25T09:22:48.904Z</time></trkpt><trkpt lat="35.4591721" lon="10.3630721"><ele>52.0</ele><time>2026-04-25T09:22:49.856Z</time></trkpt><trkpt lat="35.4590757" lon="10.3631923"><ele>52.0</ele><time>2026-04-25T09:22:50.909Z</time></trkpt><trkpt lat="35.4589819" lon="10.3633146"><ele>52.0</ele><time>2026-04-25T09:22:51.911Z</time></trkpt><trkpt lat="35.4588882" lon="10.3634341"><ele>52.0</ele><time>2026-04-25T09:22:52.877Z</time></trkpt><trkpt lat="35.4587961" lon="10.3635573"><ele>52.0</ele><time>2026-04-25T09:22:53.905Z</time></trkpt><trkpt lat="35.4587016" lon="10.36368"><ele>52.0</ele><time>2026-04-25T09:22:54.913Z</time></trkpt><trkpt lat="35.4586099" lon="10.3637955"><ele>52.0</ele><time>2026-04-25T09:22:55.878Z</time></trkpt><trkpt lat="35.458522" lon="10.3639158"><ele>51.75</ele><time>2026-04-25T09:22:56.919Z</time></trkpt><trkpt lat="35.4584314" lon="10.3640325"><ele>51.5</ele><time>2026-04-25T09:22:57.884Z</time></trkpt><trkpt lat="35.4583367" lon="10.3641538"><ele>51.25</ele><time>2026-04-25T09:22:58.903Z</time></trkpt><trkpt lat="35.4582366" lon="10.3642741"><ele>51.0</ele><time>2026-04-25T09:22:59.893Z</time></trkpt><trkpt lat="35.4581421" lon="10.3643945"><ele>51.0</ele><time>2026-04-25T09:23:00.873Z</time></trkpt><trkpt lat="35.4580453" lon="10.364518"><ele>51.0</ele><time>2026-04-25T09:23:01.885Z</time></trkpt><trkpt lat="35.4579494" lon="10.3646456"><ele>51.0</ele><time>2026-04-25T09:23:02.882Z</time></trkpt><trkpt lat="35.457855" lon="10.3647753"><ele>51.0</ele><time>2026-04-25T09:23:03.862Z</time></trkpt><trkpt lat="35.4577613" lon="10.3649026"><ele>51.0</ele><time>2026-04-25T09:23:04.901Z</time></trkpt><trkpt lat="35.4576679" lon="10.3650318"><ele>51.0</ele><time>2026-04-25T09:23:05.907Z</time></trkpt><trkpt lat="35.4575727" lon="10.3651613"><ele>51.0</ele><time>2026-04-25T09:23:06.905Z</time></trkpt><trkpt lat="35.4574823" lon="10.3652827"><ele>51.0</ele><time>2026-04-25T09:23:07.911Z</time></trkpt><trkpt lat="35.4573862" lon="10.365408"><ele>50.75</ele><time>2026-04-25T09:23:08.9Z</time></trkpt><trkpt lat="35.4572852" lon="10.3655355"><ele>50.5</ele><time>2026-04-25T09:23:09.904Z</time></trkpt><trkpt lat="35.457178" lon="10.3656656"><ele>50.25</ele><time>2026-04-25T09:23:10.917Z</time></trkpt><trkpt lat="35.4570729" lon="10.3657961"><ele>50.0</ele><time>2026-04-25T09:23:11.897Z</time></trkpt><trkpt lat="35.4569656" lon="10.3659335"><ele>50.66666666666667</ele><time>2026-04-25T09:23:12.884Z</time></trkpt><trkpt lat="35.4568595" lon="10.366072"><ele>51.33333333333333</ele><time>2026-04-25T09:23:13.877Z</time></trkpt><trkpt lat="35.4567528" lon="10.3662162"><ele>52.0</ele><time>2026-04-25T09:23:14.895Z</time></trkpt><trkpt lat="35.4566437" lon="10.3663572"><ele>52.0</ele><time>2026-04-25T09:23:15.91Z</time></trkpt><trkpt lat="35.4565348" lon="10.3665047"><ele>52.0</ele><time>2026-04-25T09:23:16.875Z</time></trkpt><trkpt lat="35.4564266" lon="10.3666501"><ele>52.0</ele><time>2026-04-25T09:23:17.873Z</time></trkpt><trkpt lat="35.456314" lon="10.3667894"><ele>52.0</ele><time>2026-04-25T09:23:18.894Z</time></trkpt><trkpt lat="35.4562017" lon="10.3669301"><ele>52.0</ele><time>2026-04-25T09:23:19.9Z</time></trkpt><trkpt lat="35.4560885" lon="10.3670701"><ele>52.0</ele><time>2026-04-25T09:23:20.878Z</time></trkpt><trkpt lat="35.4559777" lon="10.3672114"><ele>52.33333333333333</ele><time>2026-04-25T09:23:21.883Z</time></trkpt><trkpt lat="35.4558646" lon="10.3673506"><ele>52.66666666666667</ele><time>2026-04-25T09:23:22.893Z</time></trkpt><trkpt lat="35.4557543" lon="10.36749"><ele>53.0</ele><time>2026-04-25T09:23:23.915Z</time></trkpt><trkpt lat="35.455642" lon="10.367635"><ele>53.0</ele><time>2026-04-25T09:23:24.893Z</time></trkpt><trkpt lat="35.4555277" lon="10.3677774"><ele>53.0</ele><time>2026-04-25T09:23:25.905Z</time></trkpt><trkpt lat="35.4554135" lon="10.3679252"><ele>53.0</ele><time>2026-04-25T09:23:26.895Z</time></trkpt><trkpt lat="35.4552946" lon="10.3680735"><ele>52.66666666666667</ele><time>2026-04-25T09:23:27.894Z</time></trkpt><trkpt lat="35.4551723" lon="10.3682343"><ele>52.33333333333333</ele><time>2026-04-25T09:23:28.9Z</time></trkpt><trkpt lat="35.4550493" lon="10.3683986"><ele>52.0</ele><time>2026-04-25T09:23:29.906Z</time></trkpt><trkpt lat="35.4549223" lon="10.3685659"><ele>52.0</ele><time>2026-04-25T09:23:30.909Z</time></trkpt><trkpt lat="35.4547947" lon="10.3687331"><ele>52.0</ele><time>2026-04-25T09:23:31.909Z</time></trkpt><trkpt lat="35.4546641" lon="10.3688917"><ele>52.0</ele><time>2026-04-25T09:23:32.902Z</time></trkpt><trkpt lat="35.4545389" lon="10.369055"><ele>52.33333333333333</ele><time>2026-04-25T09:23:33.913Z</time></trkpt><trkpt lat="35.4544149" lon="10.3692165"><ele>52.66666666666667</ele><time>2026-04-25T09:23:34.898Z</time></trkpt><trkpt lat="35.4542896" lon="10.3693739"><ele>53.0</ele><time>2026-04-25T09:23:35.873Z</time></trkpt><trkpt lat="35.4541641" lon="10.3695287"><ele>53.0</ele><time>2026-04-25T09:23:36.896Z</time></trkpt><trkpt lat="35.4540389" lon="10.369682"><ele>53.0</ele><time>2026-04-25T09:23:37.901Z</time></trkpt><trkpt lat="35.453915" lon="10.3698368"><ele>53.0</ele><time>2026-04-25T09:23:38.906Z</time></trkpt><trkpt lat="35.4537955" lon="10.3699888"><ele>52.333333333333336</ele><time>2026-04-25T09:23:39.877Z</time></trkpt><trkpt lat="35.4536758" lon="10.3701448"><ele>51.66666666666667</ele><time>2026-04-25T09:23:40.897Z</time></trkpt><trkpt lat="35.453555" lon="10.3703003"><ele>51.0</ele><time>2026-04-25T09:23:41.904Z</time></trkpt><trkpt lat="35.4534349" lon="10.3704545"><ele>50.66666666666667</ele><time>2026-04-25T09:23:42.896Z</time></trkpt><trkpt lat="35.4533114" lon="10.3706094"><ele>50.333333333333336</ele><time>2026-04-25T09:23:43.91Z</time></trkpt><trkpt lat="35.4531909" lon="10.3707683"><ele>50.0</ele><time>2026-04-25T09:23:44.883Z</time></trkpt><trkpt lat="35.4530688" lon="10.3709228"><ele>50.66666666666667</ele><time>2026-04-25T09:23:45.862Z</time></trkpt><trkpt lat="35.4529488" lon="10.3710808"><ele>51.33333333333333</ele><time>2026-04-25T09:23:46.857Z</time></trkpt><trkpt lat="35.4528279" lon="10.3712318"><ele>52.0</ele><time>2026-04-25T09:23:47.872Z</time></trkpt><trkpt lat="35.4527091" lon="10.3713849"><ele>52.0</ele><time>2026-04-25T09:23:48.872Z</time></trkpt><trkpt lat="35.4525925" lon="10.3715354"><ele>52.0</ele><time>2026-04-25T09:23:49.902Z</time></trkpt><trkpt lat="35.4524729" lon="10.3716801"><ele>52.0</ele><time>2026-04-25T09:23:50.887Z</time></trkpt><trkpt lat="35.4523541" lon="10.3718337"><ele>52.0</ele><time>2026-04-25T09:23:51.89Z</time></trkpt><trkpt lat="35.4522347" lon="10.3719863"><ele>52.0</ele><time>2026-04-25T09:23:52.887Z</time></trkpt><trkpt lat="35.4521145" lon="10.3721412"><ele>52.0</ele><time>2026-04-25T09:23:53.908Z</time></trkpt><trkpt lat="35.4519951" lon="10.3722907"><ele>52.33333333333333</ele><time>2026-04-25T09:23:54.915Z</time></trkpt><trkpt lat="35.4518742" lon="10.3724426"><ele>52.66666666666667</ele><time>2026-04-25T09:23:55.881Z</time></trkpt><trkpt lat="35.4517509" lon="10.3725986"><ele>53.0</ele><time>2026-04-25T09:23:56.903Z</time></trkpt><trkpt lat="35.4516281" lon="10.3727557"><ele>53.0</ele><time>2026-04-25T09:23:57.898Z</time></trkpt><trkpt lat="35.4515063" lon="10.3729128"><ele>53.0</ele><time>2026-04-25T09:23:58.896Z</time></trkpt><trkpt lat="35.4513842" lon="10.3730697"><ele>53.0</ele><time>2026-04-25T09:23:59.904Z</time></trkpt><trkpt lat="35.4512625" lon="10.373228"><ele>52.66666666666667</ele><time>2026-04-25T09:24:00.862Z</time></trkpt><trkpt lat="35.4511399" lon="10.3733834"><ele>52.33333333333333</ele><time>2026-04-25T09:24:01.893Z</time></trkpt><trkpt lat="35.4510156" lon="10.3735356"><ele>52.0</ele><time>2026-04-25T09:24:02.879Z</time></trkpt><trkpt lat="35.4508941" lon="10.3736887"><ele>52.0</ele><time>2026-04-25T09:24:03.907Z</time></trkpt><trkpt lat="35.4507747" lon="10.3738413"><ele>52.0</ele><time>2026-04-25T09:24:04.898Z</time></trkpt><trkpt lat="35.4506568" lon="10.3739931"><ele>52.0</ele><time>2026-04-25T09:24:05.904Z</time></trkpt><trkpt lat="35.4505371" lon="10.3741433"><ele>52.666666666666664</ele><time>2026-04-25T09:24:06.906Z</time></trkpt><trkpt lat="35.4504236" lon="10.3742878"><ele>53.33333333333333</ele><time>2026-04-25T09:24:07.902Z</time></trkpt><trkpt lat="35.4503082" lon="10.3744294"><ele>54.0</ele><time>2026-04-25T09:24:08.9Z</time></trkpt><trkpt lat="35.4501907" lon="10.3745785"><ele>53.66666666666667</ele><time>2026-04-25T09:24:09.906Z</time></trkpt><trkpt lat="35.4500717" lon="10.3747291"><ele>53.333333333333336</ele><time>2026-04-25T09:24:10.895Z</time></trkpt><trkpt lat="35.4499518" lon="10.3748769"><ele>53.0</ele><time>2026-04-25T09:24:11.899Z</time></trkpt><trkpt lat="35.4498313" lon="10.3750254"><ele>53.0</ele><time>2026-04-25T09:24:12.877Z</time></trkpt><trkpt lat="35.4497143" lon="10.3751687"><ele>53.0</ele><time>2026-04-25T09:24:13.909Z</time></trkpt><trkpt lat="35.4495959" lon="10.3753133"><ele>53.0</ele><time>2026-04-25T09:24:14.863Z</time></trkpt><trkpt lat="35.4494748" lon="10.3754476"><ele>53.0</ele><time>2026-04-25T09:24:15.901Z</time></trkpt><trkpt lat="35.4493532" lon="10.3755882"><ele>53.0</ele><time>2026-04-25T09:24:16.902Z</time></trkpt><trkpt lat="35.4492327" lon="10.3757276"><ele>53.0</ele><time>2026-04-25T09:24:17.887Z</time></trkpt><trkpt lat="35.4491109" lon="10.3758734"><ele>53.0</ele><time>2026-04-25T09:24:18.865Z</time></trkpt><trkpt lat="35.4489886" lon="10.3760131"><ele>53.0</ele><time>2026-04-25T09:24:19.88Z</time></trkpt><trkpt lat="35.4488633" lon="10.3761546"><ele>53.0</ele><time>2026-04-25T09:24:20.877Z</time></trkpt><trkpt lat="35.448739" lon="10.376295"><ele>53.0</ele><time>2026-04-25T09:24:21.911Z</time></trkpt><trkpt lat="35.4486156" lon="10.3764343"><ele>53.0</ele><time>2026-04-25T09:24:22.88Z</time></trkpt><trkpt lat="35.4484926" lon="10.3765788"><ele>53.0</ele><time>2026-04-25T09:24:23.878Z</time></trkpt><trkpt lat="35.4483691" lon="10.3767252"><ele>53.0</ele><time>2026-04-25T09:24:24.862Z</time></trkpt><trkpt lat="35.448247" lon="10.3768614"><ele>53.0</ele><time>2026-04-25T09:24:25.897Z</time></trkpt><trkpt lat="35.4481242" lon="10.3770016"><ele>53.0</ele><time>2026-04-25T09:24:26.904Z</time></trkpt><trkpt lat="35.4480004" lon="10.3771427"><ele>52.66666666666667</ele><time>2026-04-25T09:24:27.87Z</time></trkpt><trkpt lat="35.4478727" lon="10.3772858"><ele>52.33333333333333</ele><time>2026-04-25T09:24:28.867Z</time></trkpt><trkpt lat="35.4477498" lon="10.3774246"><ele>52.0</ele><time>2026-04-25T09:24:29.849Z</time></trkpt><trkpt lat="35.4476258" lon="10.3775699"><ele>52.0</ele><time>2026-04-25T09:24:30.851Z</time></trkpt><trkpt lat="35.4475003" lon="10.3777153"><ele>52.0</ele><time>2026-04-25T09:24:31.859Z</time></trkpt><trkpt lat="35.4473736" lon="10.3778631"><ele>52.0</ele><time>2026-04-25T09:24:32.886Z</time></trkpt><trkpt lat="35.4472473" lon="10.3780098"><ele>51.666666666666664</ele><time>2026-04-25T09:24:33.876Z</time></trkpt><trkpt lat="35.4471163" lon="10.3781538"><ele>51.33333333333333</ele><time>2026-04-25T09:24:34.865Z</time></trkpt><trkpt lat="35.4469876" lon="10.3782956"><ele>51.0</ele><time>2026-04-25T09:24:35.871Z</time></trkpt><trkpt lat="35.4468608" lon="10.3784388"><ele>51.0</ele><time>2026-04-25T09:24:36.901Z</time></trkpt><trkpt lat="35.4467335" lon="10.3785826"><ele>51.0</ele><time>2026-04-25T09:24:37.901Z</time></trkpt><trkpt lat="35.4466072" lon="10.3787302"><ele>51.0</ele><time>2026-04-25T09:24:38.906Z</time></trkpt><trkpt lat="35.4464812" lon="10.3788726"><ele>51.0</ele><time>2026-04-25T09:24:39.854Z</time></trkpt><trkpt lat="35.4463531" lon="10.3790209"><ele>51.0</ele><time>2026-04-25T09:24:40.879Z</time></trkpt><trkpt lat="35.4462286" lon="10.3791682"><ele>51.0</ele><time>2026-04-25T09:24:41.909Z</time></trkpt><trkpt lat="35.4461048" lon="10.3793135"><ele>51.0</ele><time>2026-04-25T09:24:42.904Z</time></trkpt><trkpt lat="35.4459826" lon="10.3794563"><ele>51.0</ele><time>2026-04-25T09:24:43.905Z</time></trkpt><trkpt lat="35.4458573" lon="10.3795984"><ele>51.0</ele><time>2026-04-25T09:24:44.873Z</time></trkpt><trkpt lat="35.4457379" lon="10.3797394"><ele>51.0</ele><time>2026-04-25T09:24:45.897Z</time></trkpt><trkpt lat="35.44562" lon="10.3798817"><ele>51.0</ele><time>2026-04-25T09:24:46.906Z</time></trkpt><trkpt lat="35.4455009" lon="10.3800227"><ele>51.0</ele><time>2026-04-25T09:24:47.917Z</time></trkpt><trkpt lat="35.445378" lon="10.3801634"><ele>50.66666666666667</ele><time>2026-04-25T09:24:48.879Z</time></trkpt><trkpt lat="35.4452557" lon="10.3803031"><ele>50.333333333333336</ele><time>2026-04-25T09:24:49.879Z</time></trkpt><trkpt lat="35.4451347" lon="10.3804455"><ele>50.0</ele><time>2026-04-25T09:24:50.904Z</time></trkpt><trkpt lat="35.4450124" lon="10.3805832"><ele>49.66666666666667</ele><time>2026-04-25T09:24:51.914Z</time></trkpt><trkpt lat="35.4448894" lon="10.3807248"><ele>49.33333333333333</ele><time>2026-04-25T09:24:52.909Z</time></trkpt><trkpt lat="35.4447668" lon="10.3808635"><ele>49.0</ele><time>2026-04-25T09:24:53.914Z</time></trkpt><trkpt lat="35.4446443" lon="10.3809985"><ele>49.0</ele><time>2026-04-25T09:24:54.897Z</time></trkpt><trkpt lat="35.444521" lon="10.3811379"><ele>49.0</ele><time>2026-04-25T09:24:55.879Z</time></trkpt><trkpt lat="35.4443986" lon="10.3812737"><ele>49.0</ele><time>2026-04-25T09:24:56.909Z</time></trkpt><trkpt lat="35.4442783" lon="10.3814083"><ele>49.0</ele><time>2026-04-25T09:24:57.915Z</time></trkpt><trkpt lat="35.4441582" lon="10.3815435"><ele>49.0</ele><time>2026-04-25T09:24:58.924Z</time></trkpt><trkpt lat="35.4440393" lon="10.3816788"><ele>49.0</ele><time>2026-04-25T09:24:59.891Z</time></trkpt><trkpt lat="35.4439197" lon="10.3818192"><ele>49.0</ele><time>2026-04-25T09:25:00.887Z</time></trkpt><trkpt lat="35.443802" lon="10.3819596"><ele>49.0</ele><time>2026-04-25T09:25:01.911Z</time></trkpt><trkpt lat="35.4436822" lon="10.3820935"><ele>49.0</ele><time>2026-04-25T09:25:02.911Z</time></trkpt><trkpt lat="35.4435609" lon="10.3822265"><ele>48.33333333333333</ele><time>2026-04-25T09:25:03.909Z</time></trkpt><trkpt lat="35.4434373" lon="10.3823703"><ele>47.666666666666664</ele><time>2026-04-25T09:25:04.88Z</time></trkpt><trkpt lat="35.4433146" lon="10.3825152"><ele>47.0</ele><time>2026-04-25T09:25:05.885Z</time></trkpt><trkpt lat="35.4431938" lon="10.3826574"><ele>47.0</ele><time>2026-04-25T09:25:06.908Z</time></trkpt><trkpt lat="35.4430715" lon="10.3828046"><ele>47.0</ele><time>2026-04-25T09:25:07.909Z</time></trkpt><trkpt lat="35.4429469" lon="10.3829504"><ele>47.0</ele><time>2026-04-25T09:25:08.897Z</time></trkpt><trkpt lat="35.4428198" lon="10.3830966"><ele>48.0</ele><time>2026-04-25T09:25:09.905Z</time></trkpt><trkpt lat="35.4426954" lon="10.3832415"><ele>49.0</ele><time>2026-04-25T09:25:10.913Z</time></trkpt><trkpt lat="35.4425681" lon="10.3833873"><ele>50.0</ele><time>2026-04-25T09:25:11.889Z</time></trkpt><trkpt lat="35.4424443" lon="10.3835358"><ele>50.0</ele><time>2026-04-25T09:25:12.855Z</time></trkpt><trkpt lat="35.4423196" lon="10.3836804"><ele>50.0</ele><time>2026-04-25T09:25:13.899Z</time></trkpt><trkpt lat="35.4421902" lon="10.3838183"><ele>50.0</ele><time>2026-04-25T09:25:14.899Z</time></trkpt><trkpt lat="35.4420654" lon="10.3839599"><ele>49.66666666666667</ele><time>2026-04-25T09:25:15.906Z</time></trkpt><trkpt lat="35.441944" lon="10.3841054"><ele>49.33333333333333</ele><time>2026-04-25T09:25:16.902Z</time></trkpt><trkpt lat="35.4418245" lon="10.3842464"><ele>49.0</ele><time>2026-04-25T09:25:17.922Z</time></trkpt><trkpt lat="35.4417032" lon="10.3843843"><ele>49.0</ele><time>2026-04-25T09:25:18.909Z</time></trkpt><trkpt lat="35.4415815" lon="10.384518"><ele>49.0</ele><time>2026-04-25T09:25:19.852Z</time></trkpt><trkpt lat="35.4414642" lon="10.3846472"><ele>49.0</ele><time>2026-04-25T09:25:20.899Z</time></trkpt><trkpt lat="35.441344" lon="10.3847813"><ele>48.0</ele><time>2026-04-25T09:25:21.904Z</time></trkpt><trkpt lat="35.4412243" lon="10.3849229"><ele>47.0</ele><time>2026-04-25T09:25:22.907Z</time></trkpt><trkpt lat="35.4411078" lon="10.3850592"><ele>46.0</ele><time>2026-04-25T09:25:23.91Z</time></trkpt><trkpt lat="35.44099" lon="10.3851972"><ele>46.0</ele><time>2026-04-25T09:25:24.891Z</time></trkpt><trkpt lat="35.4408719" lon="10.3853276"><ele>46.0</ele><time>2026-04-25T09:25:25.909Z</time></trkpt><trkpt lat="35.4407522" lon="10.385465"><ele>46.0</ele><time>2026-04-25T09:25:26.893Z</time></trkpt><trkpt lat="35.4406348" lon="10.3856008"><ele>45.66666666666667</ele><time>2026-04-25T09:25:27.901Z</time></trkpt><trkpt lat="35.4405163" lon="10.3857362"><ele>45.333333333333336</ele><time>2026-04-25T09:25:28.919Z</time></trkpt><trkpt lat="35.4403977" lon="10.3858726"><ele>45.0</ele><time>2026-04-25T09:25:29.898Z</time></trkpt><trkpt lat="35.4402839" lon="10.3859983"><ele>45.0</ele><time>2026-04-25T09:25:30.911Z</time></trkpt><trkpt lat="35.4401677" lon="10.3861356"><ele>45.0</ele><time>2026-04-25T09:25:31.902Z</time></trkpt><trkpt lat="35.4400516" lon="10.3862704"><ele>45.0</ele><time>2026-04-25T09:25:32.896Z</time></trkpt><trkpt lat="35.4399353" lon="10.3864044"><ele>45.333333333333336</ele><time>2026-04-25T09:25:33.901Z</time></trkpt><trkpt lat="35.4398184" lon="10.3865405"><ele>45.66666666666667</ele><time>2026-04-25T09:25:34.88Z</time></trkpt><trkpt lat="35.4396989" lon="10.3866711"><ele>46.0</ele><time>2026-04-25T09:25:35.912Z</time></trkpt><trkpt lat="35.4395828" lon="10.3867986"><ele>46.0</ele><time>2026-04-25T09:25:36.875Z</time></trkpt><trkpt lat="35.4394687" lon="10.3869304"><ele>46.0</ele><time>2026-04-25T09:25:37.856Z</time></trkpt><trkpt lat="35.43935" lon="10.3870645"><ele>46.0</ele><time>2026-04-25T09:25:38.867Z</time></trkpt><trkpt lat="35.4392357" lon="10.3871991"><ele>47.0</ele><time>2026-04-25T09:25:39.885Z</time></trkpt><trkpt lat="35.4391169" lon="10.3873344"><ele>48.0</ele><time>2026-04-25T09:25:40.906Z</time></trkpt><trkpt lat="35.4389967" lon="10.3874685"><ele>49.0</ele><time>2026-04-25T09:25:41.901Z</time></trkpt><trkpt lat="35.4388826" lon="10.3876024"><ele>48.0</ele><time>2026-04-25T09:25:42.904Z</time></trkpt><trkpt lat="35.4387677" lon="10.3877385"><ele>47.0</ele><time>2026-04-25T09:25:43.898Z</time></trkpt><trkpt lat="35.4386441" lon="10.387874"><ele>46.0</ele><time>2026-04-25T09:25:44.863Z</time></trkpt><trkpt lat="35.4385271" lon="10.3880067"><ele>46.333333333333336</ele><time>2026-04-25T09:25:45.906Z</time></trkpt><trkpt lat="35.4384181" lon="10.3881404"><ele>46.666666666666664</ele><time>2026-04-25T09:25:46.89Z</time></trkpt><trkpt lat="35.438309" lon="10.3882751"><ele>47.0</ele><time>2026-04-25T09:25:47.907Z</time></trkpt><trkpt lat="35.4382024" lon="10.3884161"><ele>47.0</ele><time>2026-04-25T09:25:48.911Z</time></trkpt><trkpt lat="35.4380969" lon="10.3885569"><ele>47.0</ele><time>2026-04-25T09:25:49.903Z</time></trkpt><trkpt lat="35.4379923" lon="10.3886994"><ele>47.0</ele><time>2026-04-25T09:25:50.88Z</time></trkpt><trkpt lat="35.4378931" lon="10.3888419"><ele>47.0</ele><time>2026-04-25T09:25:51.88Z</time></trkpt><trkpt lat="35.4378007" lon="10.388977"><ele>47.0</ele><time>2026-04-25T09:25:52.904Z</time></trkpt><trkpt lat="35.4377104" lon="10.3891179"><ele>47.0</ele><time>2026-04-25T09:25:53.902Z</time></trkpt><trkpt lat="35.437624" lon="10.3892546"><ele>47.0</ele><time>2026-04-25T09:25:54.879Z</time></trkpt><trkpt lat="35.4375496" lon="10.3893704"><ele>47.0</ele><time>2026-04-25T09:25:55.904Z</time></trkpt><trkpt lat="35.4374807" lon="10.3894773"><ele>47.0</ele><time>2026-04-25T09:25:56.897Z</time></trkpt><trkpt lat="35.4374168" lon="10.3895835"><ele>47.0</ele><time>2026-04-25T09:25:57.908Z</time></trkpt><trkpt lat="35.4373558" lon="10.3896843"><ele>47.0</ele><time>2026-04-25T09:25:58.899Z</time></trkpt><trkpt lat="35.4372973" lon="10.3897855"><ele>47.0</ele><time>2026-04-25T09:25:59.902Z</time></trkpt><trkpt lat="35.4372358" lon="10.3898848"><ele>47.0</ele><time>2026-04-25T09:26:00.88Z</time></trkpt><trkpt lat="35.4371746" lon="10.3899856"><ele>47.0</ele><time>2026-04-25T09:26:01.908Z</time></trkpt><trkpt lat="35.4371167" lon="10.3900807"><ele>47.0</ele><time>2026-04-25T09:26:02.897Z</time></trkpt><trkpt lat="35.437059" lon="10.3901738"><ele>47.0</ele><time>2026-04-25T09:26:03.909Z</time></trkpt><trkpt lat="35.4370044" lon="10.3902553"><ele>47.0</ele><time>2026-04-25T09:26:04.898Z</time></trkpt><trkpt lat="35.4369611" lon="10.390325"><ele>47.0</ele><time>2026-04-25T09:26:05.886Z</time></trkpt><trkpt lat="35.4369153" lon="10.3903927"><ele>47.0</ele><time>2026-04-25T09:26:06.86Z</time></trkpt><trkpt lat="35.4368684" lon="10.3904768"><ele>47.0</ele><time>2026-04-25T09:26:07.912Z</time></trkpt><trkpt lat="35.436817" lon="10.3905632"><ele>47.0</ele><time>2026-04-25T09:26:08.907Z</time></trkpt><trkpt lat="35.4367602" lon="10.3906586"><ele>47.0</ele><time>2026-04-25T09:26:09.886Z</time></trkpt><trkpt lat="35.4366983" lon="10.3907532"><ele>47.0</ele><time>2026-04-25T09:26:10.897Z</time></trkpt><trkpt lat="35.4366388" lon="10.390851"><ele>46.6</ele><time>2026-04-25T09:26:11.917Z</time></trkpt><trkpt lat="35.4365791" lon="10.3909509"><ele>46.2</ele><time>2026-04-25T09:26:12.906Z</time></trkpt><trkpt lat="35.4365163" lon="10.3910529"><ele>45.8</ele><time>2026-04-25T09:26:13.903Z</time></trkpt><trkpt lat="35.436456" lon="10.3911593"><ele>45.4</ele><time>2026-04-25T09:26:14.898Z</time></trkpt><trkpt lat="35.436391" lon="10.3912625"><ele>45.0</ele><time>2026-04-25T09:26:15.895Z</time></trkpt><trkpt lat="35.4363248" lon="10.3913614"><ele>44.2</ele><time>2026-04-25T09:26:16.895Z</time></trkpt><trkpt lat="35.4362601" lon="10.3914624"><ele>43.4</ele><time>2026-04-25T09:26:17.895Z</time></trkpt><trkpt lat="35.436193" lon="10.391565"><ele>42.599999999999994</ele><time>2026-04-25T09:26:18.895Z</time></trkpt><trkpt lat="35.4361262" lon="10.3916754"><ele>41.8</ele><time>2026-04-25T09:26:19.904Z</time></trkpt><trkpt lat="35.4360562" lon="10.3917828"><ele>41.0</ele><time>2026-04-25T09:26:20.888Z</time></trkpt><trkpt lat="35.4359885" lon="10.3918893"><ele>41.0</ele><time>2026-04-25T09:26:21.897Z</time></trkpt><trkpt lat="35.4359259" lon="10.3919955"><ele>41.0</ele><time>2026-04-25T09:26:22.872Z</time></trkpt><trkpt lat="35.4358613" lon="10.3920981"><ele>41.0</ele><time>2026-04-25T09:26:23.91Z</time></trkpt><trkpt lat="35.4357933" lon="10.3922043"><ele>41.0</ele><time>2026-04-25T09:26:24.891Z</time></trkpt><trkpt lat="35.4357247" lon="10.3923083"><ele>41.0</ele><time>2026-04-25T09:26:25.918Z</time></trkpt><trkpt lat="35.4356595" lon="10.3924093"><ele>41.4</ele><time>2026-04-25T09:26:26.897Z</time></trkpt><trkpt lat="35.4355967" lon="10.3925169"><ele>41.8</ele><time>2026-04-25T09:26:27.891Z</time></trkpt><trkpt lat="35.4355312" lon="10.392622"><ele>42.199999999999996</ele><time>2026-04-25T09:26:28.863Z</time></trkpt><trkpt lat="35.435465" lon="10.3927273"><ele>42.599999999999994</ele><time>2026-04-25T09:26:29.865Z</time></trkpt><trkpt lat="35.4353963" lon="10.3928361"><ele>43.0</ele><time>2026-04-25T09:26:30.895Z</time></trkpt><trkpt lat="35.4353305" lon="10.392935"><ele>43.599999999999994</ele><time>2026-04-25T09:26:31.903Z</time></trkpt><trkpt lat="35.4352684" lon="10.3930339"><ele>44.199999999999996</ele><time>2026-04-25T09:26:32.896Z</time></trkpt><trkpt lat="35.4352102" lon="10.3931344"><ele>44.8</ele><time>2026-04-25T09:26:33.881Z</time></trkpt><trkpt lat="35.4351476" lon="10.3932333"><ele>45.4</ele><time>2026-04-25T09:26:34.922Z</time></trkpt><trkpt lat="35.4350885" lon="10.3933338"><ele>46.0</ele><time>2026-04-25T09:26:35.902Z</time></trkpt><trkpt lat="35.4350312" lon="10.3934267"><ele>46.0</ele><time>2026-04-25T09:26:36.86Z</time></trkpt><trkpt lat="35.4349726" lon="10.3935205"><ele>46.0</ele><time>2026-04-25T09:26:37.911Z</time></trkpt><trkpt lat="35.4349156" lon="10.3936173"><ele>46.0</ele><time>2026-04-25T09:26:38.871Z</time></trkpt><trkpt lat="35.4348621" lon="10.3936987"><ele>46.0</ele><time>2026-04-25T09:26:39.91Z</time></trkpt><trkpt lat="35.4348168" lon="10.3937771"><ele>46.0</ele><time>2026-04-25T09:26:40.891Z</time></trkpt><trkpt lat="35.4347702" lon="10.3938471"><ele>46.0</ele><time>2026-04-25T09:26:41.909Z</time></trkpt><trkpt lat="35.4346941" lon="10.393967"><ele>45.66666666666667</ele><time>2026-04-25T09:26:43.884Z</time></trkpt><trkpt lat="35.4346547" lon="10.3940301"><ele>45.333333333333336</ele><time>2026-04-25T09:26:44.907Z</time></trkpt><trkpt lat="35.4346042" lon="10.3941072"><ele>45.0</ele><time>2026-04-25T09:26:45.9Z</time></trkpt><trkpt lat="35.434555" lon="10.3941908"><ele>44.666666666666664</ele><time>2026-04-25T09:26:46.904Z</time></trkpt><trkpt lat="35.434506" lon="10.3942734"><ele>44.33333333333333</ele><time>2026-04-25T09:26:47.892Z</time></trkpt><trkpt lat="35.4344522" lon="10.3943586"><ele>44.0</ele><time>2026-04-25T09:26:48.885Z</time></trkpt><trkpt lat="35.4343967" lon="10.3944467"><ele>44.0</ele><time>2026-04-25T09:26:49.892Z</time></trkpt><trkpt lat="35.4343457" lon="10.3945276"><ele>44.0</ele><time>2026-04-25T09:26:50.893Z</time></trkpt><trkpt lat="35.4343012" lon="10.3945902"><ele>44.0</ele><time>2026-04-25T09:26:51.881Z</time></trkpt><trkpt lat="35.4342639" lon="10.39466"><ele>44.0</ele><time>2026-04-25T09:26:54.904Z</time></trkpt><trkpt lat="35.4342153" lon="10.3947518"><ele>44.0</ele><time>2026-04-25T09:27:01.903Z</time></trkpt><trkpt lat="35.4341372" lon="10.3948743"><ele>44.0</ele><time>2026-04-25T09:27:03.886Z</time></trkpt><trkpt lat="35.4340546" lon="10.3949942"><ele>44.0</ele><time>2026-04-25T09:27:05.876Z</time></trkpt><trkpt lat="35.4340074" lon="10.3950673"><ele>44.0</ele><time>2026-04-25T09:27:06.904Z</time></trkpt><trkpt lat="35.4339582" lon="10.3951473"><ele>44.0</ele><time>2026-04-25T09:27:07.901Z</time></trkpt><trkpt lat="35.4339092" lon="10.3952251"><ele>44.0</ele><time>2026-04-25T09:27:08.884Z</time></trkpt><trkpt lat="35.4338551" lon="10.3953128"><ele>44.0</ele><time>2026-04-25T09:27:09.909Z</time></trkpt><trkpt lat="35.4337974" lon="10.3953895"><ele>44.0</ele><time>2026-04-25T09:27:10.901Z</time></trkpt><trkpt lat="35.4337423" lon="10.395476"><ele>43.800000000000004</ele><time>2026-04-25T09:27:11.878Z</time></trkpt><trkpt lat="35.4336865" lon="10.3955643"><ele>43.6</ele><time>2026-04-25T09:27:12.9Z</time></trkpt><trkpt lat="35.4336316" lon="10.3956552"><ele>43.4</ele><time>2026-04-25T09:27:13.908Z</time></trkpt><trkpt lat="35.4335776" lon="10.395742"><ele>43.2</ele><time>2026-04-25T09:27:14.904Z</time></trkpt><trkpt lat="35.4335227" lon="10.3958282"><ele>43.0</ele><time>2026-04-25T09:27:15.906Z</time></trkpt><trkpt lat="35.4334641" lon="10.3959141"><ele>43.0</ele><time>2026-04-25T09:27:16.886Z</time></trkpt><trkpt lat="35.4334071" lon="10.3960076"><ele>43.0</ele><time>2026-04-25T09:27:17.909Z</time></trkpt><trkpt lat="35.433343" lon="10.3961082"><ele>43.0</ele><time>2026-04-25T09:27:18.898Z</time></trkpt><trkpt lat="35.4332796" lon="10.3962095"><ele>43.0</ele><time>2026-04-25T09:27:19.902Z</time></trkpt><trkpt lat="35.4332209" lon="10.3963107"><ele>43.0</ele><time>2026-04-25T09:27:20.854Z</time></trkpt><trkpt lat="35.4331581" lon="10.3964172"><ele>43.0</ele><time>2026-04-25T09:27:21.885Z</time></trkpt><trkpt lat="35.4330953" lon="10.3965255"><ele>43.0</ele><time>2026-04-25T09:27:22.905Z</time></trkpt><trkpt lat="35.4330356" lon="10.3966336"><ele>43.0</ele><time>2026-04-25T09:27:23.915Z</time></trkpt><trkpt lat="35.4329699" lon="10.3967513"><ele>43.0</ele><time>2026-04-25T09:27:24.899Z</time></trkpt><trkpt lat="35.432901" lon="10.3968685"><ele>43.0</ele><time>2026-04-25T09:27:25.894Z</time></trkpt><trkpt lat="35.4328285" lon="10.3969825"><ele>42.75</ele><time>2026-04-25T09:27:26.894Z</time></trkpt><trkpt lat="35.4327568" lon="10.3970953"><ele>42.5</ele><time>2026-04-25T09:27:27.907Z</time></trkpt><trkpt lat="35.432688" lon="10.3972059"><ele>42.25</ele><time>2026-04-25T09:27:28.904Z</time></trkpt><trkpt lat="35.4326182" lon="10.3973185"><ele>42.0</ele><time>2026-04-25T09:27:29.906Z</time></trkpt><trkpt lat="35.4325512" lon="10.3974261"><ele>42.400000000000006</ele><time>2026-04-25T09:27:30.904Z</time></trkpt><trkpt lat="35.4324943" lon="10.3975268"><ele>42.800000000000004</ele><time>2026-04-25T09:27:31.909Z</time></trkpt><trkpt lat="35.4324333" lon="10.3976197"><ele>43.2</ele><time>2026-04-25T09:27:32.91Z</time></trkpt><trkpt lat="35.4323776" lon="10.397715"><ele>43.6</ele><time>2026-04-25T09:27:33.914Z</time></trkpt><trkpt lat="35.4323214" lon="10.3978168"><ele>44.0</ele><time>2026-04-25T09:27:34.906Z</time></trkpt><trkpt lat="35.4322614" lon="10.39793"><ele>43.75</ele><time>2026-04-25T09:27:35.907Z</time></trkpt><trkpt lat="35.4321921" lon="10.3980511"><ele>43.5</ele><time>2026-04-25T09:27:36.911Z</time></trkpt><trkpt lat="35.4321125" lon="10.3981733"><ele>43.25</ele><time>2026-04-25T09:27:37.897Z</time></trkpt><trkpt lat="35.4320183" lon="10.3982925"><ele>43.0</ele><time>2026-04-25T09:27:38.911Z</time></trkpt><trkpt lat="35.4319254" lon="10.3984288"><ele>43.0</ele><time>2026-04-25T09:27:39.911Z</time></trkpt><trkpt lat="35.4318344" lon="10.3985738"><ele>43.0</ele><time>2026-04-25T09:27:40.868Z</time></trkpt><trkpt lat="35.4317367" lon="10.3987317"><ele>43.0</ele><time>2026-04-25T09:27:41.897Z</time></trkpt><trkpt lat="35.4316355" lon="10.3988881"><ele>43.0</ele><time>2026-04-25T09:27:42.873Z</time></trkpt><trkpt lat="35.4315359" lon="10.399043"><ele>43.0</ele><time>2026-04-25T09:27:43.89Z</time></trkpt><trkpt lat="35.4314404" lon="10.3992056"><ele>43.0</ele><time>2026-04-25T09:27:44.909Z</time></trkpt><trkpt lat="35.431339" lon="10.3993712"><ele>43.0</ele><time>2026-04-25T09:27:45.893Z</time></trkpt><trkpt lat="35.4312335" lon="10.3995419"><ele>43.0</ele><time>2026-04-25T09:27:46.904Z</time></trkpt><trkpt lat="35.4311244" lon="10.39972"><ele>43.0</ele><time>2026-04-25T09:27:47.904Z</time></trkpt><trkpt lat="35.431013" lon="10.3998962"><ele>43.0</ele><time>2026-04-25T09:27:48.897Z</time></trkpt><trkpt lat="35.4308983" lon="10.4000756"><ele>43.0</ele><time>2026-04-25T09:27:49.886Z</time></trkpt><trkpt lat="35.4307838" lon="10.400261"><ele>43.0</ele><time>2026-04-25T09:27:50.887Z</time></trkpt><trkpt lat="35.4306702" lon="10.4004421"><ele>43.0</ele><time>2026-04-25T09:27:51.905Z</time></trkpt><trkpt lat="35.4305574" lon="10.4006232"><ele>43.0</ele><time>2026-04-25T09:27:52.893Z</time></trkpt><trkpt lat="35.4304425" lon="10.4008032"><ele>43.0</ele><time>2026-04-25T09:27:53.908Z</time></trkpt><trkpt lat="35.4303269" lon="10.4009869"><ele>43.0</ele><time>2026-04-25T09:27:54.905Z</time></trkpt><trkpt lat="35.4302134" lon="10.4011721"><ele>43.0</ele><time>2026-04-25T09:27:55.894Z</time></trkpt><trkpt lat="35.4301006" lon="10.4013537"><ele>43.0</ele><time>2026-04-25T09:27:56.913Z</time></trkpt><trkpt lat="35.4299841" lon="10.4015398"><ele>43.333333333333336</ele><time>2026-04-25T09:27:57.877Z</time></trkpt><trkpt lat="35.4298649" lon="10.4017242"><ele>43.666666666666664</ele><time>2026-04-25T09:27:58.9Z</time></trkpt><trkpt lat="35.4297474" lon="10.4019045"><ele>44.0</ele><time>2026-04-25T09:27:59.912Z</time></trkpt><trkpt lat="35.4296334" lon="10.402086"><ele>43.33333333333333</ele><time>2026-04-25T09:28:00.88Z</time></trkpt><trkpt lat="35.4295196" lon="10.4022678"><ele>42.666666666666664</ele><time>2026-04-25T09:28:01.904Z</time></trkpt><trkpt lat="35.4294075" lon="10.4024535"><ele>42.0</ele><time>2026-04-25T09:28:02.911Z</time></trkpt><trkpt lat="35.429297" lon="10.4026292"><ele>42.0</ele><time>2026-04-25T09:28:03.913Z</time></trkpt><trkpt lat="35.4291858" lon="10.4028082"><ele>42.0</ele><time>2026-04-25T09:28:04.911Z</time></trkpt><trkpt lat="35.4290732" lon="10.4029841"><ele>42.0</ele><time>2026-04-25T09:28:05.897Z</time></trkpt><trkpt lat="35.4289612" lon="10.4031637"><ele>42.0</ele><time>2026-04-25T09:28:06.913Z</time></trkpt><trkpt lat="35.4288494" lon="10.403344"><ele>42.0</ele><time>2026-04-25T09:28:07.876Z</time></trkpt><trkpt lat="35.428737" lon="10.4035269"><ele>42.0</ele><time>2026-04-25T09:28:08.911Z</time></trkpt><trkpt lat="35.4286293" lon="10.4037057"><ele>43.0</ele><time>2026-04-25T09:28:09.911Z</time></trkpt><trkpt lat="35.4285187" lon="10.4038858"><ele>44.0</ele><time>2026-04-25T09:28:10.902Z</time></trkpt><trkpt lat="35.4284068" lon="10.4040646"><ele>45.0</ele><time>2026-04-25T09:28:11.879Z</time></trkpt><trkpt lat="35.4282962" lon="10.4042364"><ele>45.0</ele><time>2026-04-25T09:28:12.911Z</time></trkpt><trkpt lat="35.4281883" lon="10.4044135"><ele>45.0</ele><time>2026-04-25T09:28:13.903Z</time></trkpt><trkpt lat="35.4280781" lon="10.4045873"><ele>45.0</ele><time>2026-04-25T09:28:14.901Z</time></trkpt><trkpt lat="35.4279696" lon="10.404769"><ele>45.666666666666664</ele><time>2026-04-25T09:28:15.877Z</time></trkpt><trkpt lat="35.4278574" lon="10.4049466"><ele>46.33333333333333</ele><time>2026-04-25T09:28:16.901Z</time></trkpt><trkpt lat="35.4277455" lon="10.405125"><ele>47.0</ele><time>2026-04-25T09:28:17.905Z</time></trkpt><trkpt lat="35.4276354" lon="10.4053021"><ele>47.0</ele><time>2026-04-25T09:28:18.9Z</time></trkpt><trkpt lat="35.4275215" lon="10.4054796"><ele>47.0</ele><time>2026-04-25T09:28:19.894Z</time></trkpt><trkpt lat="35.427405" lon="10.4056512"><ele>47.0</ele><time>2026-04-25T09:28:20.876Z</time></trkpt><trkpt lat="35.4272903" lon="10.405823"><ele>46.666666666666664</ele><time>2026-04-25T09:28:21.892Z</time></trkpt><trkpt lat="35.4271751" lon="10.4059986"><ele>46.333333333333336</ele><time>2026-04-25T09:28:22.893Z</time></trkpt><trkpt lat="35.4270597" lon="10.4061705"><ele>46.0</ele><time>2026-04-25T09:28:23.914Z</time></trkpt><trkpt lat="35.4269395" lon="10.4063415"><ele>47.0</ele><time>2026-04-25T09:28:24.893Z</time></trkpt><trkpt lat="35.4268208" lon="10.4065121"><ele>48.0</ele><time>2026-04-25T09:28:25.857Z</time></trkpt><trkpt lat="35.4266999" lon="10.4066882"><ele>49.0</ele><time>2026-04-25T09:28:26.903Z</time></trkpt><trkpt lat="35.4265771" lon="10.4068622"><ele>49.0</ele><time>2026-04-25T09:28:27.902Z</time></trkpt><trkpt lat="35.4264544" lon="10.4070344"><ele>49.0</ele><time>2026-04-25T09:28:28.904Z</time></trkpt><trkpt lat="35.4263281" lon="10.4072104"><ele>49.0</ele><time>2026-04-25T09:28:29.901Z</time></trkpt><trkpt lat="35.4262054" lon="10.4073803"><ele>47.666666666666664</ele><time>2026-04-25T09:28:30.882Z</time></trkpt><trkpt lat="35.4260814" lon="10.4075493"><ele>46.33333333333333</ele><time>2026-04-25T09:28:31.908Z</time></trkpt><trkpt lat="35.4259579" lon="10.4077203"><ele>45.0</ele><time>2026-04-25T09:28:32.899Z</time></trkpt><trkpt lat="35.4258335" lon="10.407892"><ele>44.666666666666664</ele><time>2026-04-25T09:28:33.868Z</time></trkpt><trkpt lat="35.4257084" lon="10.4080652"><ele>44.33333333333333</ele><time>2026-04-25T09:28:34.911Z</time></trkpt><trkpt lat="35.4255812" lon="10.4082389"><ele>44.0</ele><time>2026-04-25T09:28:35.872Z</time></trkpt><trkpt lat="35.4254556" lon="10.4084181"><ele>44.0</ele><time>2026-04-25T09:28:36.903Z</time></trkpt><trkpt lat="35.4253317" lon="10.4085955"><ele>44.0</ele><time>2026-04-25T09:28:37.915Z</time></trkpt><trkpt lat="35.4252099" lon="10.4087808"><ele>44.0</ele><time>2026-04-25T09:28:38.903Z</time></trkpt><trkpt lat="35.4250833" lon="10.4089601"><ele>44.666666666666664</ele><time>2026-04-25T09:28:39.897Z</time></trkpt><trkpt lat="35.4249615" lon="10.4091376"><ele>45.333333333333336</ele><time>2026-04-25T09:28:40.884Z</time></trkpt><trkpt lat="35.4248392" lon="10.409314"><ele>46.0</ele><time>2026-04-25T09:28:41.896Z</time></trkpt><trkpt lat="35.4247136" lon="10.4094956"><ele>45.333333333333336</ele><time>2026-04-25T09:28:42.897Z</time></trkpt><trkpt lat="35.4245941" lon="10.4096753"><ele>44.666666666666664</ele><time>2026-04-25T09:28:43.905Z</time></trkpt><trkpt lat="35.4244735" lon="10.4098521"><ele>44.0</ele><time>2026-04-25T09:28:44.856Z</time></trkpt><trkpt lat="35.4243546" lon="10.41003"><ele>44.0</ele><time>2026-04-25T09:28:45.904Z</time></trkpt><trkpt lat="35.4242332" lon="10.4102063"><ele>44.0</ele><time>2026-04-25T09:28:46.887Z</time></trkpt><trkpt lat="35.4241106" lon="10.4103839"><ele>44.0</ele><time>2026-04-25T09:28:47.916Z</time></trkpt><trkpt lat="35.4239913" lon="10.4105598"><ele>43.666666666666664</ele><time>2026-04-25T09:28:48.903Z</time></trkpt><trkpt lat="35.4238705" lon="10.4107334"><ele>43.333333333333336</ele><time>2026-04-25T09:28:49.9Z</time></trkpt><trkpt lat="35.4237535" lon="10.4109038"><ele>43.0</ele><time>2026-04-25T09:28:50.908Z</time></trkpt><trkpt lat="35.42364" lon="10.4110779"><ele>44.0</ele><time>2026-04-25T09:28:51.871Z</time></trkpt><trkpt lat="35.4235268" lon="10.4112491"><ele>45.0</ele><time>2026-04-25T09:28:52.907Z</time></trkpt><trkpt lat="35.4234148" lon="10.4114146"><ele>46.0</ele><time>2026-04-25T09:28:53.919Z</time></trkpt><trkpt lat="35.4232972" lon="10.4115774"><ele>46.333333333333336</ele><time>2026-04-25T09:28:54.897Z</time></trkpt><trkpt lat="35.4231818" lon="10.4117522"><ele>46.666666666666664</ele><time>2026-04-25T09:28:55.917Z</time></trkpt><trkpt lat="35.4230619" lon="10.4119181"><ele>47.0</ele><time>2026-04-25T09:28:56.905Z</time></trkpt><trkpt lat="35.4229424" lon="10.4120833"><ele>47.0</ele><time>2026-04-25T09:28:57.9Z</time></trkpt><trkpt lat="35.4228237" lon="10.4122512"><ele>47.0</ele><time>2026-04-25T09:28:58.913Z</time></trkpt><trkpt lat="35.4227094" lon="10.4124217"><ele>47.0</ele><time>2026-04-25T09:28:59.871Z</time></trkpt><trkpt lat="35.4225972" lon="10.4125948"><ele>47.0</ele><time>2026-04-25T09:29:00.85Z</time></trkpt><trkpt lat="35.4224841" lon="10.4127633"><ele>47.0</ele><time>2026-04-25T09:29:01.901Z</time></trkpt><trkpt lat="35.4223704" lon="10.4129269"><ele>47.0</ele><time>2026-04-25T09:29:02.912Z</time></trkpt><trkpt lat="35.4222538" lon="10.4130913"><ele>47.33333333333333</ele><time>2026-04-25T09:29:03.886Z</time></trkpt><trkpt lat="35.4221352" lon="10.413256"><ele>47.666666666666664</ele><time>2026-04-25T09:29:04.899Z</time></trkpt><trkpt lat="35.4220169" lon="10.4134167"><ele>48.0</ele><time>2026-04-25T09:29:05.881Z</time></trkpt><trkpt lat="35.4219005" lon="10.4135726"><ele>48.0</ele><time>2026-04-25T09:29:06.904Z</time></trkpt><trkpt lat="35.4217909" lon="10.4137321"><ele>48.0</ele><time>2026-04-25T09:29:07.901Z</time></trkpt><trkpt lat="35.4216773" lon="10.4138913"><ele>48.0</ele><time>2026-04-25T09:29:08.912Z</time></trkpt><trkpt lat="35.4215665" lon="10.4140494"><ele>48.0</ele><time>2026-04-25T09:29:09.907Z</time></trkpt><trkpt lat="35.4214547" lon="10.4142091"><ele>48.0</ele><time>2026-04-25T09:29:10.876Z</time></trkpt><trkpt lat="35.4213424" lon="10.4143664"><ele>48.0</ele><time>2026-04-25T09:29:11.875Z</time></trkpt><trkpt lat="35.4212289" lon="10.4145185"><ele>47.333333333333336</ele><time>2026-04-25T09:29:12.896Z</time></trkpt><trkpt lat="35.4211118" lon="10.4146666"><ele>46.66666666666667</ele><time>2026-04-25T09:29:13.902Z</time></trkpt><trkpt lat="35.4209945" lon="10.4148166"><ele>46.0</ele><time>2026-04-25T09:29:14.9Z</time></trkpt><trkpt lat="35.4208766" lon="10.4149578"><ele>46.0</ele><time>2026-04-25T09:29:15.884Z</time></trkpt><trkpt lat="35.4207576" lon="10.4150999"><ele>46.0</ele><time>2026-04-25T09:29:16.854Z</time></trkpt><trkpt lat="35.4206413" lon="10.4152458"><ele>46.0</ele><time>2026-04-25T09:29:17.889Z</time></trkpt><trkpt lat="35.4205193" lon="10.4153903"><ele>46.0</ele><time>2026-04-25T09:29:18.903Z</time></trkpt><trkpt lat="35.4203989" lon="10.4155377"><ele>46.0</ele><time>2026-04-25T09:29:19.907Z</time></trkpt><trkpt lat="35.4202744" lon="10.4156803"><ele>46.0</ele><time>2026-04-25T09:29:20.89Z</time></trkpt><trkpt lat="35.4201541" lon="10.4158182"><ele>46.0</ele><time>2026-04-25T09:29:21.858Z</time></trkpt><trkpt lat="35.4200337" lon="10.4159547"><ele>46.0</ele><time>2026-04-25T09:29:22.862Z</time></trkpt><trkpt lat="35.4199141" lon="10.4160908"><ele>46.0</ele><time>2026-04-25T09:29:23.857Z</time></trkpt><trkpt lat="35.4197959" lon="10.4162277"><ele>46.0</ele><time>2026-04-25T09:29:24.889Z</time></trkpt><trkpt lat="35.4196766" lon="10.4163678"><ele>46.0</ele><time>2026-04-25T09:29:25.908Z</time></trkpt><trkpt lat="35.4195541" lon="10.4165088"><ele>46.0</ele><time>2026-04-25T09:29:26.894Z</time></trkpt><trkpt lat="35.4194319" lon="10.4166469"><ele>46.333333333333336</ele><time>2026-04-25T09:29:27.909Z</time></trkpt><trkpt lat="35.4193132" lon="10.4167819"><ele>46.666666666666664</ele><time>2026-04-25T09:29:28.913Z</time></trkpt><trkpt lat="35.4191975" lon="10.4169149"><ele>47.0</ele><time>2026-04-25T09:29:29.915Z</time></trkpt><trkpt lat="35.4190797" lon="10.4170459"><ele>46.666666666666664</ele><time>2026-04-25T09:29:30.881Z</time></trkpt><trkpt lat="35.4189611" lon="10.4171827"><ele>46.333333333333336</ele><time>2026-04-25T09:29:31.897Z</time></trkpt><trkpt lat="35.4188383" lon="10.4173152"><ele>46.0</ele><time>2026-04-25T09:29:32.876Z</time></trkpt><trkpt lat="35.4187139" lon="10.4174499"><ele>45.66666666666667</ele><time>2026-04-25T09:29:33.897Z</time></trkpt><trkpt lat="35.4185965" lon="10.4175793"><ele>45.333333333333336</ele><time>2026-04-25T09:29:34.911Z</time></trkpt><trkpt lat="35.4184825" lon="10.4177119"><ele>45.0</ele><time>2026-04-25T09:29:35.863Z</time></trkpt><trkpt lat="35.4183656" lon="10.4178414"><ele>45.0</ele><time>2026-04-25T09:29:36.873Z</time></trkpt><trkpt lat="35.4182455" lon="10.4179752"><ele>45.0</ele><time>2026-04-25T09:29:37.877Z</time></trkpt><trkpt lat="35.418127" lon="10.4181065"><ele>45.0</ele><time>2026-04-25T09:29:38.889Z</time></trkpt><trkpt lat="35.4180056" lon="10.4182311"><ele>46.0</ele><time>2026-04-25T09:29:39.851Z</time></trkpt><trkpt lat="35.4178821" lon="10.4183627"><ele>47.0</ele><time>2026-04-25T09:29:40.885Z</time></trkpt><trkpt lat="35.4177617" lon="10.418489"><ele>48.0</ele><time>2026-04-25T09:29:41.875Z</time></trkpt><trkpt lat="35.4176366" lon="10.4186197"><ele>48.0</ele><time>2026-04-25T09:29:42.887Z</time></trkpt><trkpt lat="35.4175118" lon="10.4187523"><ele>48.0</ele><time>2026-04-25T09:29:43.897Z</time></trkpt><trkpt lat="35.4173812" lon="10.4188818"><ele>48.0</ele><time>2026-04-25T09:29:44.887Z</time></trkpt><trkpt lat="35.4172519" lon="10.4190091"><ele>47.333333333333336</ele><time>2026-04-25T09:29:45.856Z</time></trkpt><trkpt lat="35.4171196" lon="10.4191367"><ele>46.66666666666667</ele><time>2026-04-25T09:29:46.89Z</time></trkpt><trkpt lat="35.4169896" lon="10.419263"><ele>46.0</ele><time>2026-04-25T09:29:47.905Z</time></trkpt><trkpt lat="35.4168563" lon="10.419388"><ele>46.0</ele><time>2026-04-25T09:29:48.892Z</time></trkpt><trkpt lat="35.4167236" lon="10.4195153"><ele>46.0</ele><time>2026-04-25T09:29:49.892Z</time></trkpt><trkpt lat="35.416592" lon="10.4196385"><ele>46.0</ele><time>2026-04-25T09:29:50.9Z</time></trkpt><trkpt lat="35.4164576" lon="10.4197622"><ele>46.0</ele><time>2026-04-25T09:29:51.883Z</time></trkpt><trkpt lat="35.4163253" lon="10.4198837"><ele>46.0</ele><time>2026-04-25T09:29:52.891Z</time></trkpt><trkpt lat="35.4161931" lon="10.4200049"><ele>46.0</ele><time>2026-04-25T09:29:53.917Z</time></trkpt><trkpt lat="35.4160571" lon="10.4201298"><ele>46.0</ele><time>2026-04-25T09:29:54.903Z</time></trkpt><trkpt lat="35.4159193" lon="10.4202541"><ele>46.0</ele><time>2026-04-25T09:29:55.884Z</time></trkpt><trkpt lat="35.4157854" lon="10.4203762"><ele>46.0</ele><time>2026-04-25T09:29:56.896Z</time></trkpt><trkpt lat="35.4156496" lon="10.4205052"><ele>46.0</ele><time>2026-04-25T09:29:57.882Z</time></trkpt><trkpt lat="35.4155126" lon="10.4206334"><ele>46.0</ele><time>2026-04-25T09:29:58.91Z</time></trkpt><trkpt lat="35.4153768" lon="10.4207596"><ele>46.0</ele><time>2026-04-25T09:29:59.908Z</time></trkpt><trkpt lat="35.4152399" lon="10.4208899"><ele>46.0</ele><time>2026-04-25T09:30:00.893Z</time></trkpt><trkpt lat="35.4150963" lon="10.4210082"><ele>46.0</ele><time>2026-04-25T09:30:01.877Z</time></trkpt><trkpt lat="35.4149471" lon="10.4211236"><ele>46.0</ele><time>2026-04-25T09:30:02.855Z</time></trkpt><trkpt lat="35.4147952" lon="10.4212371"><ele>44.66666666666667</ele><time>2026-04-25T09:30:03.907Z</time></trkpt><trkpt lat="35.4146435" lon="10.4213486"><ele>43.333333333333336</ele><time>2026-04-25T09:30:04.905Z</time></trkpt><trkpt lat="35.4144936" lon="10.4214618"><ele>42.0</ele><time>2026-04-25T09:30:05.901Z</time></trkpt><trkpt lat="35.41435" lon="10.4215795"><ele>42.0</ele><time>2026-04-25T09:30:06.894Z</time></trkpt><trkpt lat="35.4142083" lon="10.4217001"><ele>42.0</ele><time>2026-04-25T09:30:07.907Z</time></trkpt><trkpt lat="35.4140699" lon="10.4218325"><ele>42.0</ele><time>2026-04-25T09:30:08.892Z</time></trkpt><trkpt lat="35.4139339" lon="10.4219584"><ele>42.333333333333336</ele><time>2026-04-25T09:30:09.917Z</time></trkpt><trkpt lat="35.4138001" lon="10.4220854"><ele>42.66666666666667</ele><time>2026-04-25T09:30:10.903Z</time></trkpt><trkpt lat="35.4136722" lon="10.4222145"><ele>43.0</ele><time>2026-04-25T09:30:11.904Z</time></trkpt><trkpt lat="35.4135417" lon="10.4223463"><ele>43.333333333333336</ele><time>2026-04-25T09:30:12.889Z</time></trkpt><trkpt lat="35.4134158" lon="10.4224791"><ele>43.666666666666664</ele><time>2026-04-25T09:30:13.899Z</time></trkpt><trkpt lat="35.4132933" lon="10.4226164"><ele>44.0</ele><time>2026-04-25T09:30:14.907Z</time></trkpt><trkpt lat="35.4131739" lon="10.4227668"><ele>44.0</ele><time>2026-04-25T09:30:15.893Z</time></trkpt><trkpt lat="35.4130627" lon="10.4229177"><ele>44.0</ele><time>2026-04-25T09:30:16.886Z</time></trkpt><trkpt lat="35.4129561" lon="10.4230768"><ele>44.0</ele><time>2026-04-25T09:30:17.899Z</time></trkpt><trkpt lat="35.4128526" lon="10.4232429"><ele>44.33333333333333</ele><time>2026-04-25T09:30:18.904Z</time></trkpt><trkpt lat="35.4127532" lon="10.4234082"><ele>44.666666666666664</ele><time>2026-04-25T09:30:19.902Z</time></trkpt><trkpt lat="35.4126498" lon="10.4235718"><ele>45.0</ele><time>2026-04-25T09:30:20.907Z</time></trkpt><trkpt lat="35.4125485" lon="10.4237328"><ele>45.333333333333336</ele><time>2026-04-25T09:30:21.9Z</time></trkpt><trkpt lat="35.4124483" lon="10.4238992"><ele>45.66666666666667</ele><time>2026-04-25T09:30:22.899Z</time></trkpt><trkpt lat="35.412346" lon="10.4240615"><ele>46.0</ele><time>2026-04-25T09:30:23.898Z</time></trkpt><trkpt lat="35.4122467" lon="10.424223"><ele>45.66666666666667</ele><time>2026-04-25T09:30:24.885Z</time></trkpt><trkpt lat="35.4121487" lon="10.4243902"><ele>45.333333333333336</ele><time>2026-04-25T09:30:25.903Z</time></trkpt><trkpt lat="35.4120485" lon="10.4245594"><ele>45.0</ele><time>2026-04-25T09:30:26.887Z</time></trkpt><trkpt lat="35.4119504" lon="10.4247311"><ele>46.33333333333333</ele><time>2026-04-25T09:30:27.902Z</time></trkpt><trkpt lat="35.4118524" lon="10.4249111"><ele>47.666666666666664</ele><time>2026-04-25T09:30:28.901Z</time></trkpt><trkpt lat="35.4117537" lon="10.4250918"><ele>49.0</ele><time>2026-04-25T09:30:29.896Z</time></trkpt><trkpt lat="35.4116481" lon="10.4252837"><ele>49.0</ele><time>2026-04-25T09:30:30.9Z</time></trkpt><trkpt lat="35.4115452" lon="10.4254787"><ele>49.0</ele><time>2026-04-25T09:30:31.912Z</time></trkpt><trkpt lat="35.4114428" lon="10.4256665"><ele>49.0</ele><time>2026-04-25T09:30:32.858Z</time></trkpt><trkpt lat="35.4113398" lon="10.4258572"><ele>49.33333333333333</ele><time>2026-04-25T09:30:33.9Z</time></trkpt><trkpt lat="35.4112398" lon="10.4260467"><ele>49.66666666666667</ele><time>2026-04-25T09:30:34.902Z</time></trkpt><trkpt lat="35.411139" lon="10.426234"><ele>50.0</ele><time>2026-04-25T09:30:35.888Z</time></trkpt><trkpt lat="35.4110431" lon="10.4264242"><ele>50.66666666666667</ele><time>2026-04-25T09:30:36.905Z</time></trkpt><trkpt lat="35.410943" lon="10.4266091"><ele>51.33333333333333</ele><time>2026-04-25T09:30:37.907Z</time></trkpt><trkpt lat="35.4108454" lon="10.4267923"><ele>52.0</ele><time>2026-04-25T09:30:38.881Z</time></trkpt><trkpt lat="35.4107432" lon="10.4269766"><ele>51.666666666666664</ele><time>2026-04-25T09:30:39.909Z</time></trkpt><trkpt lat="35.410648" lon="10.4271568"><ele>51.33333333333333</ele><time>2026-04-25T09:30:40.872Z</time></trkpt><trkpt lat="35.4105521" lon="10.4273341"><ele>51.0</ele><time>2026-04-25T09:30:41.902Z</time></trkpt><trkpt lat="35.410457" lon="10.4275111"><ele>50.66666666666667</ele><time>2026-04-25T09:30:42.901Z</time></trkpt><trkpt lat="35.4103606" lon="10.427691"><ele>50.333333333333336</ele><time>2026-04-25T09:30:43.896Z</time></trkpt><trkpt lat="35.4102649" lon="10.4278692"><ele>50.0</ele><time>2026-04-25T09:30:44.896Z</time></trkpt><trkpt lat="35.4101715" lon="10.428037"><ele>50.66666666666667</ele><time>2026-04-25T09:30:45.908Z</time></trkpt><trkpt lat="35.4100731" lon="10.4282147"><ele>51.33333333333333</ele><time>2026-04-25T09:30:46.887Z</time></trkpt><trkpt lat="35.4099782" lon="10.4283904"><ele>52.0</ele><time>2026-04-25T09:30:47.9Z</time></trkpt><trkpt lat="35.4098874" lon="10.4285668"><ele>52.0</ele><time>2026-04-25T09:30:48.857Z</time></trkpt><trkpt lat="35.4097949" lon="10.4287462"><ele>52.0</ele><time>2026-04-25T09:30:49.886Z</time></trkpt><trkpt lat="35.4097033" lon="10.4289229"><ele>52.0</ele><time>2026-04-25T09:30:50.901Z</time></trkpt><trkpt lat="35.4096113" lon="10.4291025"><ele>51.666666666666664</ele><time>2026-04-25T09:30:51.864Z</time></trkpt><trkpt lat="35.4095191" lon="10.4292805"><ele>51.33333333333333</ele><time>2026-04-25T09:30:52.896Z</time></trkpt><trkpt lat="35.4094258" lon="10.429461"><ele>51.0</ele><time>2026-04-25T09:30:53.891Z</time></trkpt><trkpt lat="35.4093327" lon="10.4296433"><ele>50.0</ele><time>2026-04-25T09:30:54.908Z</time></trkpt><trkpt lat="35.4092365" lon="10.4298265"><ele>49.0</ele><time>2026-04-25T09:30:55.896Z</time></trkpt><trkpt lat="35.4091431" lon="10.4300052"><ele>48.0</ele><time>2026-04-25T09:30:56.872Z</time></trkpt><trkpt lat="35.4090557" lon="10.4301854"><ele>48.0</ele><time>2026-04-25T09:30:57.903Z</time></trkpt><trkpt lat="35.4089615" lon="10.4303657"><ele>48.0</ele><time>2026-04-25T09:30:58.897Z</time></trkpt><trkpt lat="35.4088697" lon="10.4305452"><ele>48.0</ele><time>2026-04-25T09:30:59.909Z</time></trkpt><trkpt lat="35.4087755" lon="10.4307241"><ele>48.0</ele><time>2026-04-25T09:31:00.91Z</time></trkpt><trkpt lat="35.4086783" lon="10.4309063"><ele>48.0</ele><time>2026-04-25T09:31:01.866Z</time></trkpt><trkpt lat="35.4085791" lon="10.4310858"><ele>48.0</ele><time>2026-04-25T09:31:02.908Z</time></trkpt><trkpt lat="35.4084818" lon="10.431271"><ele>48.33333333333333</ele><time>2026-04-25T09:31:03.918Z</time></trkpt><trkpt lat="35.4083797" lon="10.4314585"><ele>48.666666666666664</ele><time>2026-04-25T09:31:04.901Z</time></trkpt><trkpt lat="35.4082774" lon="10.4316462"><ele>49.0</ele><time>2026-04-25T09:31:05.883Z</time></trkpt><trkpt lat="35.4081779" lon="10.4318384"><ele>49.0</ele><time>2026-04-25T09:31:06.876Z</time></trkpt><trkpt lat="35.4080781" lon="10.4320278"><ele>49.0</ele><time>2026-04-25T09:31:07.901Z</time></trkpt><trkpt lat="35.4079777" lon="10.4322176"><ele>49.0</ele><time>2026-04-25T09:31:08.902Z</time></trkpt><trkpt lat="35.4078768" lon="10.4324096"><ele>49.666666666666664</ele><time>2026-04-25T09:31:09.915Z</time></trkpt><trkpt lat="35.4077777" lon="10.4325965"><ele>50.33333333333333</ele><time>2026-04-25T09:31:10.888Z</time></trkpt><trkpt lat="35.4076789" lon="10.4327851"><ele>51.0</ele><time>2026-04-25T09:31:11.907Z</time></trkpt><trkpt lat="35.407582" lon="10.4329693"><ele>50.66666666666667</ele><time>2026-04-25T09:31:12.907Z</time></trkpt><trkpt lat="35.4074861" lon="10.433151"><ele>50.333333333333336</ele><time>2026-04-25T09:31:13.904Z</time></trkpt><trkpt lat="35.4073911" lon="10.4333338"><ele>50.0</ele><time>2026-04-25T09:31:14.908Z</time></trkpt><trkpt lat="35.407297" lon="10.4335138"><ele>50.0</ele><time>2026-04-25T09:31:15.901Z</time></trkpt><trkpt lat="35.4071998" lon="10.4336948"><ele>50.0</ele><time>2026-04-25T09:31:16.88Z</time></trkpt><trkpt lat="35.4071072" lon="10.4338776"><ele>50.0</ele><time>2026-04-25T09:31:17.905Z</time></trkpt><trkpt lat="35.407013" lon="10.4340589"><ele>49.66666666666667</ele><time>2026-04-25T09:31:18.903Z</time></trkpt><trkpt lat="35.406919" lon="10.4342441"><ele>49.33333333333333</ele><time>2026-04-25T09:31:19.915Z</time></trkpt><trkpt lat="35.4068231" lon="10.4344279"><ele>49.0</ele><time>2026-04-25T09:31:20.884Z</time></trkpt><trkpt lat="35.4067297" lon="10.4346129"><ele>49.666666666666664</ele><time>2026-04-25T09:31:21.925Z</time></trkpt><trkpt lat="35.4066343" lon="10.4347955"><ele>50.33333333333333</ele><time>2026-04-25T09:31:22.913Z</time></trkpt><trkpt lat="35.4065389" lon="10.4349781"><ele>51.0</ele><time>2026-04-25T09:31:23.912Z</time></trkpt><trkpt lat="35.4064433" lon="10.4351556"><ele>51.0</ele><time>2026-04-25T09:31:24.862Z</time></trkpt><trkpt lat="35.4063496" lon="10.435336"><ele>51.0</ele><time>2026-04-25T09:31:25.901Z</time></trkpt><trkpt lat="35.4062573" lon="10.4355155"><ele>51.0</ele><time>2026-04-25T09:31:26.887Z</time></trkpt><trkpt lat="35.4061649" lon="10.4356953"><ele>51.66666666666667</ele><time>2026-04-25T09:31:27.896Z</time></trkpt><trkpt lat="35.4060709" lon="10.4358773"><ele>52.333333333333336</ele><time>2026-04-25T09:31:28.897Z</time></trkpt><trkpt lat="35.4059774" lon="10.4360589"><ele>53.0</ele><time>2026-04-25T09:31:29.888Z</time></trkpt><trkpt lat="35.4058824" lon="10.4362387"><ele>52.66666666666667</ele><time>2026-04-25T09:31:30.901Z</time></trkpt><trkpt lat="35.4057888" lon="10.4364188"><ele>52.33333333333333</ele><time>2026-04-25T09:31:31.9Z</time></trkpt><trkpt lat="35.4056933" lon="10.4365997"><ele>52.0</ele><time>2026-04-25T09:31:32.898Z</time></trkpt><trkpt lat="35.4055979" lon="10.4367811"><ele>52.0</ele><time>2026-04-25T09:31:33.9Z</time></trkpt><trkpt lat="35.4055017" lon="10.4369603"><ele>52.0</ele><time>2026-04-25T09:31:34.876Z</time></trkpt><trkpt lat="35.4054091" lon="10.4371442"><ele>52.0</ele><time>2026-04-25T09:31:35.905Z</time></trkpt><trkpt lat="35.4053153" lon="10.4373296"><ele>51.666666666666664</ele><time>2026-04-25T09:31:36.896Z</time></trkpt><trkpt lat="35.405215" lon="10.4375118"><ele>51.33333333333333</ele><time>2026-04-25T09:31:37.905Z</time></trkpt><trkpt lat="35.4051188" lon="10.4376935"><ele>51.0</ele><time>2026-04-25T09:31:38.896Z</time></trkpt><trkpt lat="35.4050188" lon="10.4378787"><ele>51.66666666666667</ele><time>2026-04-25T09:31:39.911Z</time></trkpt><trkpt lat="35.4049209" lon="10.4380674"><ele>52.333333333333336</ele><time>2026-04-25T09:31:40.9Z</time></trkpt><trkpt lat="35.4048227" lon="10.4382522"><ele>53.0</ele><time>2026-04-25T09:31:41.878Z</time></trkpt><trkpt lat="35.4047225" lon="10.4384434"><ele>52.333333333333336</ele><time>2026-04-25T09:31:42.884Z</time></trkpt><trkpt lat="35.4046202" lon="10.4386341"><ele>51.66666666666667</ele><time>2026-04-25T09:31:43.894Z</time></trkpt><trkpt lat="35.4045211" lon="10.4388228"><ele>51.0</ele><time>2026-04-25T09:31:44.881Z</time></trkpt><trkpt lat="35.4044224" lon="10.4390088"><ele>51.0</ele><time>2026-04-25T09:31:45.905Z</time></trkpt><trkpt lat="35.4043268" lon="10.4392007"><ele>51.0</ele><time>2026-04-25T09:31:46.868Z</time></trkpt><trkpt lat="35.4042295" lon="10.4393884"><ele>51.0</ele><time>2026-04-25T09:31:47.902Z</time></trkpt><trkpt lat="35.4041307" lon="10.4395757"><ele>51.33333333333333</ele><time>2026-04-25T09:31:48.905Z</time></trkpt><trkpt lat="35.4040324" lon="10.4397635"><ele>51.666666666666664</ele><time>2026-04-25T09:31:49.885Z</time></trkpt><trkpt lat="35.403932" lon="10.4399486"><ele>52.0</ele><time>2026-04-25T09:31:50.915Z</time></trkpt><trkpt lat="35.4038305" lon="10.4401398"><ele>51.666666666666664</ele><time>2026-04-25T09:31:51.871Z</time></trkpt><trkpt lat="35.4037291" lon="10.4403263"><ele>51.33333333333333</ele><time>2026-04-25T09:31:52.902Z</time></trkpt><trkpt lat="35.403634" lon="10.4405123"><ele>51.0</ele><time>2026-04-25T09:31:53.899Z</time></trkpt><trkpt lat="35.4035393" lon="10.4407006"><ele>52.0</ele><time>2026-04-25T09:31:54.901Z</time></trkpt><trkpt lat="35.4034454" lon="10.4408874"><ele>53.0</ele><time>2026-04-25T09:31:55.901Z</time></trkpt><trkpt lat="35.4033559" lon="10.4410686"><ele>54.0</ele><time>2026-04-25T09:31:56.907Z</time></trkpt><trkpt lat="35.4032649" lon="10.4412393"><ele>54.0</ele><time>2026-04-25T09:31:57.912Z</time></trkpt><trkpt lat="35.4031743" lon="10.4414117"><ele>54.0</ele><time>2026-04-25T09:31:58.894Z</time></trkpt><trkpt lat="35.4030846" lon="10.4415851"><ele>54.0</ele><time>2026-04-25T09:31:59.903Z</time></trkpt><trkpt lat="35.4029941" lon="10.4417613"><ele>54.0</ele><time>2026-04-25T09:32:00.895Z</time></trkpt><trkpt lat="35.4029058" lon="10.4419365"><ele>54.0</ele><time>2026-04-25T09:32:01.893Z</time></trkpt><trkpt lat="35.4028149" lon="10.4421131"><ele>54.0</ele><time>2026-04-25T09:32:02.921Z</time></trkpt><trkpt lat="35.4027194" lon="10.4422875"><ele>54.66666666666667</ele><time>2026-04-25T09:32:03.914Z</time></trkpt><trkpt lat="35.4026276" lon="10.4424641"><ele>55.333333333333336</ele><time>2026-04-25T09:32:04.911Z</time></trkpt><trkpt lat="35.4025345" lon="10.4426382"><ele>56.0</ele><time>2026-04-25T09:32:05.904Z</time></trkpt><trkpt lat="35.40244" lon="10.4428128"><ele>56.0</ele><time>2026-04-25T09:32:06.901Z</time></trkpt><trkpt lat="35.4023457" lon="10.4429889"><ele>56.0</ele><time>2026-04-25T09:32:07.884Z</time></trkpt><trkpt lat="35.4022508" lon="10.4431629"><ele>56.0</ele><time>2026-04-25T09:32:08.9Z</time></trkpt><trkpt lat="35.4021505" lon="10.443332"><ele>56.0</ele><time>2026-04-25T09:32:09.905Z</time></trkpt><trkpt lat="35.4020514" lon="10.4435069"><ele>56.0</ele><time>2026-04-25T09:32:10.909Z</time></trkpt><trkpt lat="35.401951" lon="10.4436796"><ele>56.0</ele><time>2026-04-25T09:32:11.896Z</time></trkpt><trkpt lat="35.4018471" lon="10.443851"><ele>55.66666666666667</ele><time>2026-04-25T09:32:12.899Z</time></trkpt><trkpt lat="35.4017393" lon="10.4440135"><ele>55.33333333333333</ele><time>2026-04-25T09:32:13.905Z</time></trkpt><trkpt lat="35.4016264" lon="10.444177"><ele>55.0</ele><time>2026-04-25T09:32:14.9Z</time></trkpt><trkpt lat="35.4015148" lon="10.4443396"><ele>55.0</ele><time>2026-04-25T09:32:15.898Z</time></trkpt><trkpt lat="35.4014" lon="10.4445022"><ele>55.0</ele><time>2026-04-25T09:32:16.897Z</time></trkpt><trkpt lat="35.4012885" lon="10.4446659"><ele>55.0</ele><time>2026-04-25T09:32:17.901Z</time></trkpt><trkpt lat="35.4011748" lon="10.4448241"><ele>54.666666666666664</ele><time>2026-04-25T09:32:18.897Z</time></trkpt><trkpt lat="35.4010574" lon="10.4449851"><ele>54.33333333333333</ele><time>2026-04-25T09:32:19.885Z</time></trkpt><trkpt lat="35.4009406" lon="10.4451475"><ele>54.0</ele><time>2026-04-25T09:32:20.914Z</time></trkpt><trkpt lat="35.4008205" lon="10.445314"><ele>54.0</ele><time>2026-04-25T09:32:21.907Z</time></trkpt><trkpt lat="35.4007071" lon="10.4454802"><ele>54.0</ele><time>2026-04-25T09:32:22.903Z</time></trkpt><trkpt lat="35.4005932" lon="10.4456429"><ele>54.0</ele><time>2026-04-25T09:32:23.898Z</time></trkpt><trkpt lat="35.4004788" lon="10.4458053"><ele>55.66666666666667</ele><time>2026-04-25T09:32:24.897Z</time></trkpt><trkpt lat="35.4003644" lon="10.4459636"><ele>57.333333333333336</ele><time>2026-04-25T09:32:25.874Z</time></trkpt><trkpt lat="35.4002531" lon="10.4461242"><ele>59.0</ele><time>2026-04-25T09:32:26.901Z</time></trkpt><trkpt lat="35.4001398" lon="10.4462886"><ele>58.0</ele><time>2026-04-25T09:32:27.856Z</time></trkpt><trkpt lat="35.4000244" lon="10.44645"><ele>57.0</ele><time>2026-04-25T09:32:28.872Z</time></trkpt><trkpt lat="35.3999069" lon="10.4466126"><ele>56.0</ele><time>2026-04-25T09:32:29.899Z</time></trkpt><trkpt lat="35.3997913" lon="10.446774"><ele>56.0</ele><time>2026-04-25T09:32:30.878Z</time></trkpt><trkpt lat="35.3996726" lon="10.4469344"><ele>56.0</ele><time>2026-04-25T09:32:31.902Z</time></trkpt><trkpt lat="35.3995551" lon="10.447097"><ele>56.0</ele><time>2026-04-25T09:32:32.879Z</time></trkpt><trkpt lat="35.3994356" lon="10.4472628"><ele>56.333333333333336</ele><time>2026-04-25T09:32:33.899Z</time></trkpt><trkpt lat="35.3993223" lon="10.4474238"><ele>56.66666666666667</ele><time>2026-04-25T09:32:34.879Z</time></trkpt><trkpt lat="35.3992079" lon="10.4475848"><ele>57.0</ele><time>2026-04-25T09:32:35.897Z</time></trkpt><trkpt lat="35.399091" lon="10.4477506"><ele>57.0</ele><time>2026-04-25T09:32:36.916Z</time></trkpt><trkpt lat="35.3989758" lon="10.447913"><ele>57.0</ele><time>2026-04-25T09:32:37.893Z</time></trkpt><trkpt lat="35.3988635" lon="10.4480735"><ele>57.0</ele><time>2026-04-25T09:32:38.901Z</time></trkpt><trkpt lat="35.3987476" lon="10.448241"><ele>57.33333333333333</ele><time>2026-04-25T09:32:39.901Z</time></trkpt><trkpt lat="35.3986329" lon="10.4484002"><ele>57.666666666666664</ele><time>2026-04-25T09:32:40.876Z</time></trkpt><trkpt lat="35.3985198" lon="10.4485552"><ele>58.0</ele><time>2026-04-25T09:32:41.904Z</time></trkpt><trkpt lat="35.3984073" lon="10.448716"><ele>57.666666666666664</ele><time>2026-04-25T09:32:42.903Z</time></trkpt><trkpt lat="35.398294" lon="10.4488738"><ele>57.33333333333333</ele><time>2026-04-25T09:32:43.913Z</time></trkpt><trkpt lat="35.3981819" lon="10.4490302"><ele>57.0</ele><time>2026-04-25T09:32:44.919Z</time></trkpt><trkpt lat="35.3980707" lon="10.4491922"><ele>57.33333333333333</ele><time>2026-04-25T09:32:45.91Z</time></trkpt><trkpt lat="35.3979521" lon="10.4493581"><ele>57.666666666666664</ele><time>2026-04-25T09:32:46.888Z</time></trkpt><trkpt lat="35.3978395" lon="10.44952"><ele>58.0</ele><time>2026-04-25T09:32:47.86Z</time></trkpt><trkpt lat="35.3977229" lon="10.4496838"><ele>58.666666666666664</ele><time>2026-04-25T09:32:48.87Z</time></trkpt><trkpt lat="35.3976098" lon="10.4498435"><ele>59.33333333333333</ele><time>2026-04-25T09:32:49.849Z</time></trkpt><trkpt lat="35.3974973" lon="10.4500012"><ele>60.0</ele><time>2026-04-25T09:32:50.885Z</time></trkpt><trkpt lat="35.3973854" lon="10.4501575"><ele>60.0</ele><time>2026-04-25T09:32:51.857Z</time></trkpt><trkpt lat="35.3972682" lon="10.4503162"><ele>60.0</ele><time>2026-04-25T09:32:52.857Z</time></trkpt><trkpt lat="35.3971555" lon="10.4504788"><ele>60.0</ele><time>2026-04-25T09:32:53.862Z</time></trkpt><trkpt lat="35.3970386" lon="10.4506418"><ele>60.0</ele><time>2026-04-25T09:32:54.86Z</time></trkpt><trkpt lat="35.3969276" lon="10.4508035"><ele>60.0</ele><time>2026-04-25T09:32:55.857Z</time></trkpt><trkpt lat="35.3968094" lon="10.4509673"><ele>60.0</ele><time>2026-04-25T09:32:56.859Z</time></trkpt><trkpt lat="35.3966911" lon="10.4511289"><ele>59.66666666666667</ele><time>2026-04-25T09:32:57.855Z</time></trkpt><trkpt lat="35.3965714" lon="10.4512922"><ele>59.333333333333336</ele><time>2026-04-25T09:32:58.862Z</time></trkpt><trkpt lat="35.3964527" lon="10.4514553"><ele>59.0</ele><time>2026-04-25T09:32:59.86Z</time></trkpt><trkpt lat="35.396332" lon="10.4516225"><ele>60.0</ele><time>2026-04-25T09:33:00.862Z</time></trkpt><trkpt lat="35.3962164" lon="10.4517936"><ele>61.0</ele><time>2026-04-25T09:33:01.86Z</time></trkpt><trkpt lat="35.3960993" lon="10.4519599"><ele>62.0</ele><time>2026-04-25T09:33:02.86Z</time></trkpt><trkpt lat="35.3959889" lon="10.4521325"><ele>62.333333333333336</ele><time>2026-04-25T09:33:03.862Z</time></trkpt><trkpt lat="35.3958786" lon="10.4523003"><ele>62.66666666666667</ele><time>2026-04-25T09:33:04.851Z</time></trkpt><trkpt lat="35.395775" lon="10.4524764"><ele>63.0</ele><time>2026-04-25T09:33:05.853Z</time></trkpt><trkpt lat="35.3956724" lon="10.4526521"><ele>63.0</ele><time>2026-04-25T09:33:06.849Z</time></trkpt><trkpt lat="35.3955688" lon="10.4528247"><ele>63.0</ele><time>2026-04-25T09:33:07.858Z</time></trkpt><trkpt lat="35.3954649" lon="10.4530005"><ele>63.0</ele><time>2026-04-25T09:33:08.862Z</time></trkpt><trkpt lat="35.3953548" lon="10.4531709"><ele>63.33333333333333</ele><time>2026-04-25T09:33:09.851Z</time></trkpt><trkpt lat="35.3952453" lon="10.4533475"><ele>63.666666666666664</ele><time>2026-04-25T09:33:10.849Z</time></trkpt><trkpt lat="35.3951396" lon="10.4535278"><ele>64.0</ele><time>2026-04-25T09:33:11.856Z</time></trkpt><trkpt lat="35.3950363" lon="10.4537059"><ele>63.0</ele><time>2026-04-25T09:33:12.859Z</time></trkpt><trkpt lat="35.3949327" lon="10.4538842"><ele>62.0</ele><time>2026-04-25T09:33:13.861Z</time></trkpt><trkpt lat="35.394833" lon="10.4540652"><ele>61.0</ele><time>2026-04-25T09:33:14.859Z</time></trkpt><trkpt lat="35.3947338" lon="10.4542404"><ele>61.33333333333333</ele><time>2026-04-25T09:33:15.853Z</time></trkpt><trkpt lat="35.3946328" lon="10.4544201"><ele>61.66666666666667</ele><time>2026-04-25T09:33:16.855Z</time></trkpt><trkpt lat="35.3945282" lon="10.4545998"><ele>62.0</ele><time>2026-04-25T09:33:17.858Z</time></trkpt><trkpt lat="35.3944224" lon="10.45478"><ele>62.0</ele><time>2026-04-25T09:33:18.856Z</time></trkpt><trkpt lat="35.3943143" lon="10.4549627"><ele>62.0</ele><time>2026-04-25T09:33:19.848Z</time></trkpt><trkpt lat="35.3942111" lon="10.4551411"><ele>62.0</ele><time>2026-04-25T09:33:20.859Z</time></trkpt><trkpt lat="35.3941079" lon="10.4553188"><ele>62.0</ele><time>2026-04-25T09:33:21.856Z</time></trkpt><trkpt lat="35.3940067" lon="10.4554941"><ele>62.0</ele><time>2026-04-25T09:33:22.858Z</time></trkpt><trkpt lat="35.393902" lon="10.4556696"><ele>62.0</ele><time>2026-04-25T09:33:23.858Z</time></trkpt><trkpt lat="35.393799" lon="10.455848"><ele>62.0</ele><time>2026-04-25T09:33:24.858Z</time></trkpt><trkpt lat="35.3936942" lon="10.456025"><ele>62.0</ele><time>2026-04-25T09:33:25.858Z</time></trkpt><trkpt lat="35.3935853" lon="10.4561996"><ele>62.0</ele><time>2026-04-25T09:33:26.862Z</time></trkpt><trkpt lat="35.3934809" lon="10.4563781"><ele>61.333333333333336</ele><time>2026-04-25T09:33:27.861Z</time></trkpt><trkpt lat="35.3933741" lon="10.4565572"><ele>60.66666666666667</ele><time>2026-04-25T09:33:28.855Z</time></trkpt><trkpt lat="35.3932722" lon="10.4567308"><ele>60.0</ele><time>2026-04-25T09:33:29.851Z</time></trkpt><trkpt lat="35.3931671" lon="10.4569058"><ele>60.0</ele><time>2026-04-25T09:33:30.852Z</time></trkpt><trkpt lat="35.3930619" lon="10.4570818"><ele>60.0</ele><time>2026-04-25T09:33:31.853Z</time></trkpt><trkpt lat="35.3929576" lon="10.4572619"><ele>60.0</ele><time>2026-04-25T09:33:32.85Z</time></trkpt><trkpt lat="35.3928551" lon="10.4574343"><ele>59.66666666666667</ele><time>2026-04-25T09:33:33.853Z</time></trkpt><trkpt lat="35.3927493" lon="10.4576123"><ele>59.333333333333336</ele><time>2026-04-25T09:33:34.863Z</time></trkpt><trkpt lat="35.3926452" lon="10.4577898"><ele>59.0</ele><time>2026-04-25T09:33:35.861Z</time></trkpt><trkpt lat="35.3925397" lon="10.457973"><ele>58.66666666666667</ele><time>2026-04-25T09:33:36.862Z</time></trkpt><trkpt lat="35.3924345" lon="10.4581539"><ele>58.33333333333333</ele><time>2026-04-25T09:33:37.858Z</time></trkpt><trkpt lat="35.3923291" lon="10.4583304"><ele>58.0</ele><time>2026-04-25T09:33:38.863Z</time></trkpt><trkpt lat="35.392227" lon="10.4585121"><ele>59.0</ele><time>2026-04-25T09:33:39.857Z</time></trkpt><trkpt lat="35.3921271" lon="10.4586906"><ele>60.0</ele><time>2026-04-25T09:33:40.86Z</time></trkpt><trkpt lat="35.3920277" lon="10.4588563"><ele>61.0</ele><time>2026-04-25T09:33:41.862Z</time></trkpt><trkpt lat="35.3919353" lon="10.459019"><ele>61.666666666666664</ele><time>2026-04-25T09:33:42.864Z</time></trkpt><trkpt lat="35.3918472" lon="10.4591705"><ele>62.33333333333333</ele><time>2026-04-25T09:33:43.852Z</time></trkpt><trkpt lat="35.3917588" lon="10.4593175"><ele>63.0</ele><time>2026-04-25T09:33:44.861Z</time></trkpt><trkpt lat="35.3916672" lon="10.4594713"><ele>62.66666666666667</ele><time>2026-04-25T09:33:45.864Z</time></trkpt><trkpt lat="35.3915783" lon="10.4596228"><ele>62.333333333333336</ele><time>2026-04-25T09:33:46.857Z</time></trkpt><trkpt lat="35.391483" lon="10.4597754"><ele>62.0</ele><time>2026-04-25T09:33:47.884Z</time></trkpt><trkpt lat="35.3913898" lon="10.4599311"><ele>62.0</ele><time>2026-04-25T09:33:48.857Z</time></trkpt><trkpt lat="35.391297" lon="10.4600925"><ele>62.0</ele><time>2026-04-25T09:33:49.858Z</time></trkpt><trkpt lat="35.3912063" lon="10.4602524"><ele>62.0</ele><time>2026-04-25T09:33:50.853Z</time></trkpt><trkpt lat="35.391117" lon="10.4604005"><ele>62.0</ele><time>2026-04-25T09:33:51.858Z</time></trkpt><trkpt lat="35.3910317" lon="10.4605353"><ele>62.0</ele><time>2026-04-25T09:33:52.856Z</time></trkpt><trkpt lat="35.390961" lon="10.4606577"><ele>62.0</ele><time>2026-04-25T09:33:53.865Z</time></trkpt><trkpt lat="35.3909064" lon="10.4607582"><ele>62.0</ele><time>2026-04-25T09:33:54.863Z</time></trkpt><trkpt lat="35.3908636" lon="10.4608354"><ele>62.0</ele><time>2026-04-25T09:33:55.86Z</time></trkpt><trkpt lat="35.3907893" lon="10.4609619"><ele>62.0</ele><time>2026-04-25T09:33:57.857Z</time></trkpt><trkpt lat="35.3907399" lon="10.4610424"><ele>62.0</ele><time>2026-04-25T09:33:58.859Z</time></trkpt><trkpt lat="35.3906761" lon="10.4611451"><ele>62.0</ele><time>2026-04-25T09:33:59.853Z</time></trkpt><trkpt lat="35.3906159" lon="10.4612486"><ele>62.0</ele><time>2026-04-25T09:34:00.853Z</time></trkpt><trkpt lat="35.3905493" lon="10.4613565"><ele>62.0</ele><time>2026-04-25T09:34:01.854Z</time></trkpt><trkpt lat="35.3904772" lon="10.461465"><ele>62.25</ele><time>2026-04-25T09:34:02.854Z</time></trkpt><trkpt lat="35.390406" lon="10.4615849"><ele>62.5</ele><time>2026-04-25T09:34:03.866Z</time></trkpt><trkpt lat="35.3903343" lon="10.4617077"><ele>62.75</ele><time>2026-04-25T09:34:04.855Z</time></trkpt><trkpt lat="35.39026" lon="10.4618387"><ele>63.0</ele><time>2026-04-25T09:34:05.863Z</time></trkpt><trkpt lat="35.3901838" lon="10.4619697"><ele>63.0</ele><time>2026-04-25T09:34:06.857Z</time></trkpt><trkpt lat="35.3901087" lon="10.4620988"><ele>63.0</ele><time>2026-04-25T09:34:07.855Z</time></trkpt><trkpt lat="35.3900308" lon="10.4622346"><ele>63.0</ele><time>2026-04-25T09:34:08.86Z</time></trkpt><trkpt lat="35.3899546" lon="10.4623637"><ele>63.0</ele><time>2026-04-25T09:34:09.859Z</time></trkpt><trkpt lat="35.3898779" lon="10.462493"><ele>63.0</ele><time>2026-04-25T09:34:10.865Z</time></trkpt><trkpt lat="35.3898017" lon="10.4626267"><ele>63.0</ele><time>2026-04-25T09:34:11.848Z</time></trkpt><trkpt lat="35.3897205" lon="10.4627619"><ele>63.0</ele><time>2026-04-25T09:34:12.87Z</time></trkpt><trkpt lat="35.3896415" lon="10.462893"><ele>63.0</ele><time>2026-04-25T09:34:13.861Z</time></trkpt><trkpt lat="35.3895666" lon="10.4630146"><ele>62.599999999999994</ele><time>2026-04-25T09:34:14.854Z</time></trkpt><trkpt lat="35.3894996" lon="10.463122"><ele>62.199999999999996</ele><time>2026-04-25T09:34:15.862Z</time></trkpt><trkpt lat="35.3894428" lon="10.4632139"><ele>61.8</ele><time>2026-04-25T09:34:16.861Z</time></trkpt><trkpt lat="35.3893985" lon="10.4632838"><ele>61.4</ele><time>2026-04-25T09:34:17.852Z</time></trkpt><trkpt lat="35.3893252" lon="10.4634119"><ele>61.0</ele><time>2026-04-25T09:34:19.859Z</time></trkpt><trkpt lat="35.3892703" lon="10.4634988"><ele>61.0</ele><time>2026-04-25T09:34:20.862Z</time></trkpt><trkpt lat="35.3892068" lon="10.4636098"><ele>61.0</ele><time>2026-04-25T09:34:21.859Z</time></trkpt><trkpt lat="35.3891391" lon="10.4637244"><ele>61.0</ele><time>2026-04-25T09:34:22.848Z</time></trkpt><trkpt lat="35.3890688" lon="10.46385"><ele>61.0</ele><time>2026-04-25T09:34:23.854Z</time></trkpt><trkpt lat="35.3889982" lon="10.4639797"><ele>61.33333333333333</ele><time>2026-04-25T09:34:24.862Z</time></trkpt><trkpt lat="35.3889231" lon="10.4641069"><ele>61.66666666666667</ele><time>2026-04-25T09:34:25.86Z</time></trkpt><trkpt lat="35.3888459" lon="10.4642331"><ele>62.0</ele><time>2026-04-25T09:34:26.856Z</time></trkpt><trkpt lat="35.3886889" lon="10.4644937"><ele>60.75</ele><time>2026-04-25T09:34:28.852Z</time></trkpt><trkpt lat="35.3886124" lon="10.464633"><ele>59.5</ele><time>2026-04-25T09:34:29.86Z</time></trkpt><trkpt lat="35.388534" lon="10.4647756"><ele>58.25</ele><time>2026-04-25T09:34:30.852Z</time></trkpt><trkpt lat="35.3884509" lon="10.4649261"><ele>57.0</ele><time>2026-04-25T09:34:31.856Z</time></trkpt><trkpt lat="35.3883707" lon="10.4650732"><ele>57.0</ele><time>2026-04-25T09:34:32.859Z</time></trkpt><trkpt lat="35.38829" lon="10.4652079"><ele>57.0</ele><time>2026-04-25T09:34:33.848Z</time></trkpt><trkpt lat="35.3882113" lon="10.4653351"><ele>57.0</ele><time>2026-04-25T09:34:34.86Z</time></trkpt><trkpt lat="35.3881339" lon="10.4654821"><ele>57.0</ele><time>2026-04-25T09:34:35.857Z</time></trkpt><trkpt lat="35.3880507" lon="10.4656404"><ele>57.66666666666667</ele><time>2026-04-25T09:34:36.854Z</time></trkpt><trkpt lat="35.3879682" lon="10.4658072"><ele>58.333333333333336</ele><time>2026-04-25T09:34:37.857Z</time></trkpt><trkpt lat="35.3878841" lon="10.4659623"><ele>59.0</ele><time>2026-04-25T09:34:38.848Z</time></trkpt><trkpt lat="35.3878014" lon="10.4661039"><ele>59.0</ele><time>2026-04-25T09:34:39.85Z</time></trkpt><trkpt lat="35.3877135" lon="10.4662517"><ele>59.0</ele><time>2026-04-25T09:34:40.85Z</time></trkpt><trkpt lat="35.3876059" lon="10.466411"><ele>59.0</ele><time>2026-04-25T09:34:41.853Z</time></trkpt><trkpt lat="35.387467" lon="10.4666409"><ele>59.5</ele><time>2026-04-25T09:34:42.852Z</time></trkpt><trkpt lat="35.3873005" lon="10.4669114"><ele>60.0</ele><time>2026-04-25T09:34:43.85Z</time></trkpt><trkpt lat="35.3871289" lon="10.4671973"><ele>59.0</ele><time>2026-04-25T09:34:44.853Z</time></trkpt><trkpt lat="35.3869483" lon="10.4674878"><ele>58.0</ele><time>2026-04-25T09:34:45.855Z</time></trkpt><trkpt lat="35.3867926" lon="10.4677664"><ele>58.33333333333333</ele><time>2026-04-25T09:34:46.861Z</time></trkpt><trkpt lat="35.3866493" lon="10.4679989"><ele>58.66666666666667</ele><time>2026-04-25T09:34:47.852Z</time></trkpt><trkpt lat="35.3865255" lon="10.4682054"><ele>59.0</ele><time>2026-04-25T09:34:48.849Z</time></trkpt><trkpt lat="35.3864158" lon="10.4683956"><ele>58.66666666666667</ele><time>2026-04-25T09:34:49.86Z</time></trkpt><trkpt lat="35.3863179" lon="10.4685682"><ele>58.33333333333333</ele><time>2026-04-25T09:34:50.864Z</time></trkpt><trkpt lat="35.3862192" lon="10.4687346"><ele>58.0</ele><time>2026-04-25T09:34:51.86Z</time></trkpt><trkpt lat="35.3861294" lon="10.4688904"><ele>58.0</ele><time>2026-04-25T09:34:52.861Z</time></trkpt><trkpt lat="35.3860431" lon="10.4690361"><ele>58.0</ele><time>2026-04-25T09:34:53.861Z</time></trkpt><trkpt lat="35.3859637" lon="10.469173"><ele>58.0</ele><time>2026-04-25T09:34:54.855Z</time></trkpt><trkpt lat="35.3858933" lon="10.4693059"><ele>58.0</ele><time>2026-04-25T09:34:55.857Z</time></trkpt><trkpt lat="35.3858149" lon="10.4694359"><ele>58.0</ele><time>2026-04-25T09:34:56.858Z</time></trkpt><trkpt lat="35.3857367" lon="10.4695638"><ele>58.0</ele><time>2026-04-25T09:34:57.86Z</time></trkpt><trkpt lat="35.3856622" lon="10.4696944"><ele>58.0</ele><time>2026-04-25T09:34:58.863Z</time></trkpt><trkpt lat="35.3855879" lon="10.469822"><ele>58.0</ele><time>2026-04-25T09:34:59.859Z</time></trkpt><trkpt lat="35.3855169" lon="10.4699443"><ele>59.0</ele><time>2026-04-25T09:35:00.861Z</time></trkpt><trkpt lat="35.3854451" lon="10.4700675"><ele>60.0</ele><time>2026-04-25T09:35:01.853Z</time></trkpt><trkpt lat="35.3853612" lon="10.4702188"><ele>61.0</ele><time>2026-04-25T09:35:02.861Z</time></trkpt><trkpt lat="35.3852565" lon="10.470403"><ele>60.0</ele><time>2026-04-25T09:35:03.859Z</time></trkpt><trkpt lat="35.3851147" lon="10.4706525"><ele>59.0</ele><time>2026-04-25T09:35:04.86Z</time></trkpt><trkpt lat="35.3849567" lon="10.4709363"><ele>59.0</ele><time>2026-04-25T09:35:05.855Z</time></trkpt><trkpt lat="35.384789" lon="10.4712271"><ele>59.0</ele><time>2026-04-25T09:35:06.863Z</time></trkpt><trkpt lat="35.3846441" lon="10.4714841"><ele>58.0</ele><time>2026-04-25T09:35:07.86Z</time></trkpt><trkpt lat="35.3845122" lon="10.4717047"><ele>57.0</ele><time>2026-04-25T09:35:08.857Z</time></trkpt><trkpt lat="35.3843945" lon="10.4719016"><ele>56.0</ele><time>2026-04-25T09:35:09.853Z</time></trkpt><trkpt lat="35.3842833" lon="10.4720814"><ele>56.5</ele><time>2026-04-25T09:35:10.859Z</time></trkpt><trkpt lat="35.3841924" lon="10.4722346"><ele>57.0</ele><time>2026-04-25T09:35:11.86Z</time></trkpt><trkpt lat="35.3841064" lon="10.4723759"><ele>57.5</ele><time>2026-04-25T09:35:12.849Z</time></trkpt><trkpt lat="35.3840342" lon="10.4725023"><ele>58.0</ele><time>2026-04-25T09:35:13.857Z</time></trkpt><trkpt lat="35.3839728" lon="10.4726074"><ele>57.99999999999999</ele><time>2026-04-25T09:35:14.853Z</time></trkpt><trkpt lat="35.3839195" lon="10.4726988"><ele>58.0</ele><time>2026-04-25T09:35:15.857Z</time></trkpt><trkpt lat="35.3838724" lon="10.4727777"><ele>58.0</ele><time>2026-04-25T09:35:16.858Z</time></trkpt><trkpt lat="35.3838212" lon="10.4728566"><ele>58.0</ele><time>2026-04-25T09:35:17.853Z</time></trkpt><trkpt lat="35.383763" lon="10.4729481"><ele>57.99999999999999</ele><time>2026-04-25T09:35:18.852Z</time></trkpt><trkpt lat="35.3837032" lon="10.4730472"><ele>58.0</ele><time>2026-04-25T09:35:19.852Z</time></trkpt><trkpt lat="35.3836464" lon="10.4731432"><ele>57.8</ele><time>2026-04-25T09:35:20.859Z</time></trkpt><trkpt lat="35.3835838" lon="10.4732403"><ele>57.599999999999994</ele><time>2026-04-25T09:35:21.849Z</time></trkpt><trkpt lat="35.3835253" lon="10.4733379"><ele>57.400000000000006</ele><time>2026-04-25T09:35:22.86Z</time></trkpt><trkpt lat="35.3834662" lon="10.4734344"><ele>57.2</ele><time>2026-04-25T09:35:23.863Z</time></trkpt><trkpt lat="35.3834007" lon="10.4735254"><ele>57.0</ele><time>2026-04-25T09:35:24.861Z</time></trkpt><trkpt lat="35.3833303" lon="10.4736173"><ele>57.0</ele><time>2026-04-25T09:35:25.855Z</time></trkpt><trkpt lat="35.3832574" lon="10.4737104"><ele>57.0</ele><time>2026-04-25T09:35:26.857Z</time></trkpt><trkpt lat="35.3831834" lon="10.4737944"><ele>57.0</ele><time>2026-04-25T09:35:27.861Z</time></trkpt><trkpt lat="35.3831093" lon="10.4738766"><ele>57.0</ele><time>2026-04-25T09:35:28.856Z</time></trkpt><trkpt lat="35.3830373" lon="10.4739575"><ele>57.0</ele><time>2026-04-25T09:35:29.852Z</time></trkpt><trkpt lat="35.3829668" lon="10.4740352"><ele>57.0</ele><time>2026-04-25T09:35:30.866Z</time></trkpt><trkpt lat="35.3828977" lon="10.4741128"><ele>57.0</ele><time>2026-04-25T09:35:31.862Z</time></trkpt><trkpt lat="35.3828345" lon="10.4741957"><ele>57.0</ele><time>2026-04-25T09:35:32.85Z</time></trkpt><trkpt lat="35.3827709" lon="10.4742824"><ele>57.0</ele><time>2026-04-25T09:35:33.852Z</time></trkpt><trkpt lat="35.3827066" lon="10.474369"><ele>57.0</ele><time>2026-04-25T09:35:34.856Z</time></trkpt><trkpt lat="35.3826459" lon="10.4744596"><ele>57.0</ele><time>2026-04-25T09:35:35.853Z</time></trkpt><trkpt lat="35.382589" lon="10.4745511"><ele>57.0</ele><time>2026-04-25T09:35:36.86Z</time></trkpt><trkpt lat="35.3825292" lon="10.4746426"><ele>57.0</ele><time>2026-04-25T09:35:37.852Z</time></trkpt><trkpt lat="35.3824698" lon="10.4747375"><ele>57.0</ele><time>2026-04-25T09:35:38.856Z</time></trkpt><trkpt lat="35.382411" lon="10.4748322"><ele>57.0</ele><time>2026-04-25T09:35:39.847Z</time></trkpt><trkpt lat="35.3823576" lon="10.4749214"><ele>56.833333333333336</ele><time>2026-04-25T09:35:40.851Z</time></trkpt><trkpt lat="35.38231" lon="10.4750068"><ele>56.66666666666667</ele><time>2026-04-25T09:35:41.854Z</time></trkpt><trkpt lat="35.3822642" lon="10.4750851"><ele>56.5</ele><time>2026-04-25T09:35:42.854Z</time></trkpt><trkpt lat="35.3822204" lon="10.4751568"><ele>56.333333333333336</ele><time>2026-04-25T09:35:43.86Z</time></trkpt><trkpt lat="35.3821773" lon="10.4752225"><ele>56.16666666666667</ele><time>2026-04-25T09:35:44.86Z</time></trkpt><trkpt lat="35.3821039" lon="10.4753485"><ele>56.0</ele><time>2026-04-25T09:35:46.86Z</time></trkpt><trkpt lat="35.3820631" lon="10.4754183"><ele>56.333333333333336</ele><time>2026-04-25T09:35:47.85Z</time></trkpt><trkpt lat="35.3820164" lon="10.4754942"><ele>56.66666666666667</ele><time>2026-04-25T09:35:48.862Z</time></trkpt><trkpt lat="35.3819704" lon="10.4755703"><ele>57.0</ele><time>2026-04-25T09:35:49.85Z</time></trkpt><trkpt lat="35.3819213" lon="10.4756484"><ele>57.33333333333333</ele><time>2026-04-25T09:35:50.849Z</time></trkpt><trkpt lat="35.3818735" lon="10.4757276"><ele>57.666666666666664</ele><time>2026-04-25T09:35:51.854Z</time></trkpt><trkpt lat="35.3818246" lon="10.4758077"><ele>58.0</ele><time>2026-04-25T09:35:52.856Z</time></trkpt><trkpt lat="35.3817728" lon="10.475897"><ele>58.0</ele><time>2026-04-25T09:35:53.858Z</time></trkpt><trkpt lat="35.3817136" lon="10.4759952"><ele>58.0</ele><time>2026-04-25T09:35:54.862Z</time></trkpt><trkpt lat="35.3816411" lon="10.4761148"><ele>58.0</ele><time>2026-04-25T09:35:55.862Z</time></trkpt><trkpt lat="35.3815479" lon="10.4762628"><ele>58.0</ele><time>2026-04-25T09:35:56.855Z</time></trkpt><trkpt lat="35.3814441" lon="10.4764198"><ele>57.0</ele><time>2026-04-25T09:35:57.869Z</time></trkpt><trkpt lat="35.3813436" lon="10.4765749"><ele>56.0</ele><time>2026-04-25T09:35:58.849Z</time></trkpt><trkpt lat="35.3812477" lon="10.4767385"><ele>55.0</ele><time>2026-04-25T09:35:59.855Z</time></trkpt><trkpt lat="35.3811443" lon="10.4769046"><ele>55.0</ele><time>2026-04-25T09:36:00.854Z</time></trkpt><trkpt lat="35.3810375" lon="10.4770858"><ele>55.0</ele><time>2026-04-25T09:36:01.858Z</time></trkpt><trkpt lat="35.3809361" lon="10.4772631"><ele>55.0</ele><time>2026-04-25T09:36:02.848Z</time></trkpt><trkpt lat="35.3808351" lon="10.4774433"><ele>55.0</ele><time>2026-04-25T09:36:03.856Z</time></trkpt><trkpt lat="35.3807401" lon="10.4776258"><ele>55.0</ele><time>2026-04-25T09:36:04.867Z</time></trkpt><trkpt lat="35.3806527" lon="10.4778131"><ele>55.0</ele><time>2026-04-25T09:36:05.855Z</time></trkpt><trkpt lat="35.3805666" lon="10.4779998"><ele>54.0</ele><time>2026-04-25T09:36:06.863Z</time></trkpt><trkpt lat="35.3804831" lon="10.4781927"><ele>53.0</ele><time>2026-04-25T09:36:07.852Z</time></trkpt><trkpt lat="35.3804031" lon="10.4783824"><ele>52.0</ele><time>2026-04-25T09:36:08.85Z</time></trkpt><trkpt lat="35.3803239" lon="10.4785698"><ele>52.0</ele><time>2026-04-25T09:36:09.858Z</time></trkpt><trkpt lat="35.3802412" lon="10.478759"><ele>52.0</ele><time>2026-04-25T09:36:10.858Z</time></trkpt><trkpt lat="35.3801605" lon="10.4789473"><ele>52.0</ele><time>2026-04-25T09:36:11.864Z</time></trkpt><trkpt lat="35.3800797" lon="10.4791292"><ele>52.33333333333333</ele><time>2026-04-25T09:36:12.862Z</time></trkpt><trkpt lat="35.3800002" lon="10.4793077"><ele>52.66666666666667</ele><time>2026-04-25T09:36:13.855Z</time></trkpt><trkpt lat="35.3799172" lon="10.4794816"><ele>53.0</ele><time>2026-04-25T09:36:14.853Z</time></trkpt><trkpt lat="35.3798314" lon="10.4796598"><ele>53.0</ele><time>2026-04-25T09:36:15.861Z</time></trkpt><trkpt lat="35.3797472" lon="10.4798401"><ele>53.0</ele><time>2026-04-25T09:36:16.877Z</time></trkpt><trkpt lat="35.3796623" lon="10.4800277"><ele>53.0</ele><time>2026-04-25T09:36:17.869Z</time></trkpt><trkpt lat="35.3795763" lon="10.4802134"><ele>53.333333333333336</ele><time>2026-04-25T09:36:18.848Z</time></trkpt><trkpt lat="35.3794819" lon="10.4804001"><ele>53.66666666666667</ele><time>2026-04-25T09:36:19.856Z</time></trkpt><trkpt lat="35.3793822" lon="10.4806089"><ele>54.0</ele><time>2026-04-25T09:36:20.85Z</time></trkpt><trkpt lat="35.3792763" lon="10.4808211"><ele>54.0</ele><time>2026-04-25T09:36:21.85Z</time></trkpt><trkpt lat="35.379168" lon="10.4810291"><ele>54.0</ele><time>2026-04-25T09:36:22.851Z</time></trkpt><trkpt lat="35.3790561" lon="10.481239"><ele>54.0</ele><time>2026-04-25T09:36:23.852Z</time></trkpt><trkpt lat="35.3789438" lon="10.4814469"><ele>55.0</ele><time>2026-04-25T09:36:24.859Z</time></trkpt><trkpt lat="35.3788361" lon="10.4816502"><ele>56.0</ele><time>2026-04-25T09:36:25.852Z</time></trkpt><trkpt lat="35.378726" lon="10.4818562"><ele>57.0</ele><time>2026-04-25T09:36:26.859Z</time></trkpt><trkpt lat="35.3786137" lon="10.4820665"><ele>56.0</ele><time>2026-04-25T09:36:27.86Z</time></trkpt><trkpt lat="35.3785002" lon="10.4822755"><ele>55.0</ele><time>2026-04-25T09:36:28.851Z</time></trkpt><trkpt lat="35.378385" lon="10.482481"><ele>54.0</ele><time>2026-04-25T09:36:29.855Z</time></trkpt><trkpt lat="35.3782653" lon="10.4826887"><ele>54.0</ele><time>2026-04-25T09:36:30.86Z</time></trkpt><trkpt lat="35.3781404" lon="10.4828911"><ele>54.0</ele><time>2026-04-25T09:36:31.854Z</time></trkpt><trkpt lat="35.3780159" lon="10.4830841"><ele>54.0</ele><time>2026-04-25T09:36:32.847Z</time></trkpt><trkpt lat="35.3778921" lon="10.4832772"><ele>53.33333333333333</ele><time>2026-04-25T09:36:33.865Z</time></trkpt><trkpt lat="35.3777698" lon="10.4834683"><ele>52.666666666666664</ele><time>2026-04-25T09:36:34.851Z</time></trkpt><trkpt lat="35.3776493" lon="10.4836579"><ele>52.0</ele><time>2026-04-25T09:36:35.857Z</time></trkpt><trkpt lat="35.3775313" lon="10.4838516"><ele>51.666666666666664</ele><time>2026-04-25T09:36:36.861Z</time></trkpt><trkpt lat="35.3774168" lon="10.4840377"><ele>51.33333333333333</ele><time>2026-04-25T09:36:37.873Z</time></trkpt><trkpt lat="35.3773012" lon="10.4842204"><ele>51.0</ele><time>2026-04-25T09:36:38.853Z</time></trkpt><trkpt lat="35.3771939" lon="10.4843924"><ele>52.0</ele><time>2026-04-25T09:36:39.853Z</time></trkpt><trkpt lat="35.3770899" lon="10.4845633"><ele>53.0</ele><time>2026-04-25T09:36:40.856Z</time></trkpt><trkpt lat="35.3769844" lon="10.4847394"><ele>54.0</ele><time>2026-04-25T09:36:41.852Z</time></trkpt><trkpt lat="35.3768796" lon="10.4849088"><ele>54.33333333333333</ele><time>2026-04-25T09:36:42.848Z</time></trkpt><trkpt lat="35.3767768" lon="10.4850804"><ele>54.666666666666664</ele><time>2026-04-25T09:36:43.851Z</time></trkpt><trkpt lat="35.3766771" lon="10.4852546"><ele>55.0</ele><time>2026-04-25T09:36:44.853Z</time></trkpt><trkpt lat="35.3765749" lon="10.4854324"><ele>55.0</ele><time>2026-04-25T09:36:45.855Z</time></trkpt><trkpt lat="35.3764791" lon="10.4856073"><ele>55.0</ele><time>2026-04-25T09:36:46.862Z</time></trkpt><trkpt lat="35.3763821" lon="10.485786"><ele>55.0</ele><time>2026-04-25T09:36:47.861Z</time></trkpt><trkpt lat="35.3762862" lon="10.4859647"><ele>55.33333333333333</ele><time>2026-04-25T09:36:48.849Z</time></trkpt><trkpt lat="35.3761923" lon="10.4861443"><ele>55.66666666666667</ele><time>2026-04-25T09:36:49.855Z</time></trkpt><trkpt lat="35.3761007" lon="10.4863261"><ele>56.0</ele><time>2026-04-25T09:36:50.854Z</time></trkpt><trkpt lat="35.3760105" lon="10.4865082"><ele>56.333333333333336</ele><time>2026-04-25T09:36:51.851Z</time></trkpt><trkpt lat="35.3759207" lon="10.4866927"><ele>56.66666666666667</ele><time>2026-04-25T09:36:52.857Z</time></trkpt><trkpt lat="35.3758339" lon="10.4868725"><ele>57.0</ele><time>2026-04-25T09:36:53.859Z</time></trkpt><trkpt lat="35.3757513" lon="10.4870577"><ele>55.33333333333333</ele><time>2026-04-25T09:36:54.869Z</time></trkpt><trkpt lat="35.3756686" lon="10.4872425"><ele>53.666666666666664</ele><time>2026-04-25T09:36:55.854Z</time></trkpt><trkpt lat="35.3755843" lon="10.4874318"><ele>52.0</ele><time>2026-04-25T09:36:56.865Z</time></trkpt><trkpt lat="35.3755059" lon="10.4876211"><ele>51.666666666666664</ele><time>2026-04-25T09:36:57.848Z</time></trkpt><trkpt lat="35.375424" lon="10.4878064"><ele>51.33333333333333</ele><time>2026-04-25T09:36:58.862Z</time></trkpt><trkpt lat="35.3753454" lon="10.4879889"><ele>51.0</ele><time>2026-04-25T09:36:59.858Z</time></trkpt><trkpt lat="35.3752623" lon="10.4881754"><ele>50.66666666666667</ele><time>2026-04-25T09:37:00.856Z</time></trkpt><trkpt lat="35.3751833" lon="10.4883618"><ele>50.333333333333336</ele><time>2026-04-25T09:37:01.855Z</time></trkpt><trkpt lat="35.3751002" lon="10.4885447"><ele>50.0</ele><time>2026-04-25T09:37:02.859Z</time></trkpt><trkpt lat="35.3750204" lon="10.4887285"><ele>51.333333333333336</ele><time>2026-04-25T09:37:03.857Z</time></trkpt><trkpt lat="35.3749412" lon="10.4889079"><ele>52.66666666666667</ele><time>2026-04-25T09:37:04.857Z</time></trkpt><trkpt lat="35.3748617" lon="10.4890869"><ele>54.0</ele><time>2026-04-25T09:37:05.852Z</time></trkpt><trkpt lat="35.374782" lon="10.4892713"><ele>54.0</ele><time>2026-04-25T09:37:06.849Z</time></trkpt><trkpt lat="35.3747034" lon="10.4894465"><ele>54.0</ele><time>2026-04-25T09:37:07.859Z</time></trkpt><trkpt lat="35.3746213" lon="10.4896263"><ele>54.0</ele><time>2026-04-25T09:37:08.858Z</time></trkpt><trkpt lat="35.3745435" lon="10.4897994"><ele>53.33333333333333</ele><time>2026-04-25T09:37:09.863Z</time></trkpt><trkpt lat="35.3744671" lon="10.4899757"><ele>52.666666666666664</ele><time>2026-04-25T09:37:10.854Z</time></trkpt><trkpt lat="35.3743903" lon="10.4901557"><ele>52.0</ele><time>2026-04-25T09:37:11.856Z</time></trkpt><trkpt lat="35.374312" lon="10.4903327"><ele>52.666666666666664</ele><time>2026-04-25T09:37:12.864Z</time></trkpt><trkpt lat="35.3742346" lon="10.490509"><ele>53.33333333333333</ele><time>2026-04-25T09:37:13.87Z</time></trkpt><trkpt lat="35.3741524" lon="10.4906934"><ele>54.0</ele><time>2026-04-25T09:37:14.86Z</time></trkpt><trkpt lat="35.3740761" lon="10.4908747"><ele>54.0</ele><time>2026-04-25T09:37:15.859Z</time></trkpt><trkpt lat="35.374" lon="10.4910552"><ele>54.0</ele><time>2026-04-25T09:37:16.854Z</time></trkpt><trkpt lat="35.3739219" lon="10.4912362"><ele>54.0</ele><time>2026-04-25T09:37:17.861Z</time></trkpt><trkpt lat="35.3738422" lon="10.4914207"><ele>53.0</ele><time>2026-04-25T09:37:18.857Z</time></trkpt><trkpt lat="35.3737656" lon="10.4915983"><ele>52.0</ele><time>2026-04-25T09:37:19.858Z</time></trkpt><trkpt lat="35.3736874" lon="10.4917756"><ele>51.0</ele><time>2026-04-25T09:37:20.875Z</time></trkpt><trkpt lat="35.3736123" lon="10.4919548"><ele>50.33333333333333</ele><time>2026-04-25T09:37:21.878Z</time></trkpt><trkpt lat="35.373534" lon="10.4921265"><ele>49.666666666666664</ele><time>2026-04-25T09:37:22.857Z</time></trkpt><trkpt lat="35.3734564" lon="10.4922997"><ele>49.0</ele><time>2026-04-25T09:37:23.857Z</time></trkpt><trkpt lat="35.3733769" lon="10.492475"><ele>49.0</ele><time>2026-04-25T09:37:24.86Z</time></trkpt><trkpt lat="35.3732982" lon="10.492651"><ele>49.0</ele><time>2026-04-25T09:37:25.854Z</time></trkpt><trkpt lat="35.3732202" lon="10.4928239"><ele>49.0</ele><time>2026-04-25T09:37:26.866Z</time></trkpt><trkpt lat="35.3731455" lon="10.4929971"><ele>49.0</ele><time>2026-04-25T09:37:27.864Z</time></trkpt><trkpt lat="35.3730685" lon="10.4931679"><ele>49.0</ele><time>2026-04-25T09:37:28.853Z</time></trkpt><trkpt lat="35.372994" lon="10.4933398"><ele>49.0</ele><time>2026-04-25T09:37:29.862Z</time></trkpt><trkpt lat="35.3729206" lon="10.4935082"><ele>49.0</ele><time>2026-04-25T09:37:30.862Z</time></trkpt><trkpt lat="35.3728504" lon="10.4936756"><ele>49.0</ele><time>2026-04-25T09:37:31.861Z</time></trkpt><trkpt lat="35.3727801" lon="10.4938353"><ele>49.0</ele><time>2026-04-25T09:37:32.857Z</time></trkpt><trkpt lat="35.3727098" lon="10.4939915"><ele>49.0</ele><time>2026-04-25T09:37:33.859Z</time></trkpt><trkpt lat="35.3726393" lon="10.4941451"><ele>49.0</ele><time>2026-04-25T09:37:34.86Z</time></trkpt><trkpt lat="35.372573" lon="10.4943039"><ele>49.0</ele><time>2026-04-25T09:37:35.863Z</time></trkpt><trkpt lat="35.3725022" lon="10.4944651"><ele>49.0</ele><time>2026-04-25T09:37:36.859Z</time></trkpt><trkpt lat="35.372431" lon="10.4946234"><ele>49.0</ele><time>2026-04-25T09:37:37.867Z</time></trkpt><trkpt lat="35.3723565" lon="10.4947811"><ele>48.5</ele><time>2026-04-25T09:37:38.846Z</time></trkpt><trkpt lat="35.3722858" lon="10.4949388"><ele>48.0</ele><time>2026-04-25T09:37:39.858Z</time></trkpt><trkpt lat="35.3722174" lon="10.4950931"><ele>47.5</ele><time>2026-04-25T09:37:40.852Z</time></trkpt><trkpt lat="35.3721506" lon="10.4952441"><ele>47.0</ele><time>2026-04-25T09:37:41.849Z</time></trkpt><trkpt lat="35.3720834" lon="10.4953954"><ele>47.0</ele><time>2026-04-25T09:37:42.853Z</time></trkpt><trkpt lat="35.3720178" lon="10.495542"><ele>47.0</ele><time>2026-04-25T09:37:43.855Z</time></trkpt><trkpt lat="35.3719552" lon="10.4956837"><ele>47.0</ele><time>2026-04-25T09:37:44.862Z</time></trkpt><trkpt lat="35.3718965" lon="10.4958204"><ele>47.0</ele><time>2026-04-25T09:37:45.864Z</time></trkpt><trkpt lat="35.3718438" lon="10.4959507"><ele>47.0</ele><time>2026-04-25T09:37:46.856Z</time></trkpt><trkpt lat="35.3717896" lon="10.4960717"><ele>47.0</ele><time>2026-04-25T09:37:47.86Z</time></trkpt><trkpt lat="35.371736" lon="10.4961849"><ele>47.0</ele><time>2026-04-25T09:37:48.858Z</time></trkpt><trkpt lat="35.3716853" lon="10.496299"><ele>47.0</ele><time>2026-04-25T09:37:49.855Z</time></trkpt><trkpt lat="35.3716403" lon="10.4964106"><ele>47.0</ele><time>2026-04-25T09:37:50.856Z</time></trkpt><trkpt lat="35.3715945" lon="10.4965212"><ele>47.0</ele><time>2026-04-25T09:37:51.852Z</time></trkpt><trkpt lat="35.3715483" lon="10.4966339"><ele>47.0</ele><time>2026-04-25T09:37:52.853Z</time></trkpt><trkpt lat="35.3715026" lon="10.4967396"><ele>47.0</ele><time>2026-04-25T09:37:53.86Z</time></trkpt><trkpt lat="35.3714537" lon="10.4968424"><ele>47.0</ele><time>2026-04-25T09:37:54.854Z</time></trkpt><trkpt lat="35.3713998" lon="10.4969587"><ele>47.0</ele><time>2026-04-25T09:37:55.859Z</time></trkpt><trkpt lat="35.3713484" lon="10.4970789"><ele>46.25</ele><time>2026-04-25T09:37:56.862Z</time></trkpt><trkpt lat="35.371297" lon="10.4972127"><ele>45.5</ele><time>2026-04-25T09:37:57.858Z</time></trkpt><trkpt lat="35.3712466" lon="10.4973483"><ele>44.75</ele><time>2026-04-25T09:37:58.858Z</time></trkpt><trkpt lat="35.3711889" lon="10.49748"><ele>44.0</ele><time>2026-04-25T09:37:59.861Z</time></trkpt><trkpt lat="35.3711332" lon="10.4976127"><ele>44.0</ele><time>2026-04-25T09:38:00.861Z</time></trkpt><trkpt lat="35.3710728" lon="10.4977534"><ele>44.0</ele><time>2026-04-25T09:38:01.852Z</time></trkpt><trkpt lat="35.3710138" lon="10.4979019"><ele>44.0</ele><time>2026-04-25T09:38:02.857Z</time></trkpt><trkpt lat="35.3709546" lon="10.4980433"><ele>44.0</ele><time>2026-04-25T09:38:03.853Z</time></trkpt><trkpt lat="35.3708872" lon="10.4981961"><ele>44.666666666666664</ele><time>2026-04-25T09:38:04.859Z</time></trkpt><trkpt lat="35.3708147" lon="10.4983575"><ele>45.333333333333336</ele><time>2026-04-25T09:38:05.86Z</time></trkpt><trkpt lat="35.3707401" lon="10.4985262"><ele>46.0</ele><time>2026-04-25T09:38:06.854Z</time></trkpt><trkpt lat="35.3706635" lon="10.4987019"><ele>46.0</ele><time>2026-04-25T09:38:07.859Z</time></trkpt><trkpt lat="35.3705814" lon="10.4988687"><ele>46.0</ele><time>2026-04-25T09:38:08.852Z</time></trkpt><trkpt lat="35.3705037" lon="10.4990358"><ele>46.0</ele><time>2026-04-25T09:38:09.847Z</time></trkpt><trkpt lat="35.3704213" lon="10.4991975"><ele>46.0</ele><time>2026-04-25T09:38:10.858Z</time></trkpt><trkpt lat="35.3703329" lon="10.4993566"><ele>46.0</ele><time>2026-04-25T09:38:11.846Z</time></trkpt><trkpt lat="35.3702477" lon="10.4995058"><ele>46.0</ele><time>2026-04-25T09:38:12.848Z</time></trkpt><trkpt lat="35.3701595" lon="10.4996513"><ele>46.0</ele><time>2026-04-25T09:38:13.854Z</time></trkpt><trkpt lat="35.3700727" lon="10.4997854"><ele>46.0</ele><time>2026-04-25T09:38:14.86Z</time></trkpt><trkpt lat="35.3699882" lon="10.4999198"><ele>46.0</ele><time>2026-04-25T09:38:15.852Z</time></trkpt><trkpt lat="35.3699071" lon="10.5000406"><ele>46.0</ele><time>2026-04-25T09:38:16.855Z</time></trkpt><trkpt lat="35.3698292" lon="10.5001549"><ele>46.0</ele><time>2026-04-25T09:38:17.86Z</time></trkpt><trkpt lat="35.3697535" lon="10.5002671"><ele>46.0</ele><time>2026-04-25T09:38:18.861Z</time></trkpt><trkpt lat="35.369684" lon="10.5003704"><ele>46.0</ele><time>2026-04-25T09:38:19.852Z</time></trkpt><trkpt lat="35.3696209" lon="10.5004645"><ele>46.0</ele><time>2026-04-25T09:38:20.853Z</time></trkpt><trkpt lat="35.3695593" lon="10.5005618"><ele>46.0</ele><time>2026-04-25T09:38:21.859Z</time></trkpt><trkpt lat="35.3695014" lon="10.5006607"><ele>46.599999999999994</ele><time>2026-04-25T09:38:22.848Z</time></trkpt><trkpt lat="35.3694501" lon="10.5007537"><ele>47.2</ele><time>2026-04-25T09:38:23.852Z</time></trkpt><trkpt lat="35.369399" lon="10.5008454"><ele>47.8</ele><time>2026-04-25T09:38:24.855Z</time></trkpt><trkpt lat="35.3693437" lon="10.5009423"><ele>48.400000000000006</ele><time>2026-04-25T09:38:25.858Z</time></trkpt><trkpt lat="35.3692804" lon="10.5010448"><ele>49.0</ele><time>2026-04-25T09:38:26.861Z</time></trkpt><trkpt lat="35.3692164" lon="10.5011487"><ele>48.6</ele><time>2026-04-25T09:38:27.851Z</time></trkpt><trkpt lat="35.3691521" lon="10.5012559"><ele>48.2</ele><time>2026-04-25T09:38:28.859Z</time></trkpt><trkpt lat="35.3690925" lon="10.5013653"><ele>47.800000000000004</ele><time>2026-04-25T09:38:29.859Z</time></trkpt><trkpt lat="35.3690287" lon="10.5014799"><ele>47.400000000000006</ele><time>2026-04-25T09:38:30.853Z</time></trkpt><trkpt lat="35.3689729" lon="10.5015955"><ele>47.0</ele><time>2026-04-25T09:38:31.854Z</time></trkpt><trkpt lat="35.3689167" lon="10.501711"><ele>47.0</ele><time>2026-04-25T09:38:32.853Z</time></trkpt><trkpt lat="35.3688595" lon="10.5018256"><ele>47.0</ele><time>2026-04-25T09:38:33.855Z</time></trkpt><trkpt lat="35.3688118" lon="10.5019313"><ele>47.0</ele><time>2026-04-25T09:38:34.858Z</time></trkpt><trkpt lat="35.3687613" lon="10.5020442"><ele>47.0</ele><time>2026-04-25T09:38:35.857Z</time></trkpt><trkpt lat="35.3687113" lon="10.5021632"><ele>47.0</ele><time>2026-04-25T09:38:36.855Z</time></trkpt><trkpt lat="35.3686617" lon="10.5022885"><ele>46.75</ele><time>2026-04-25T09:38:37.861Z</time></trkpt><trkpt lat="35.3686147" lon="10.5024098"><ele>46.5</ele><time>2026-04-25T09:38:38.854Z</time></trkpt><trkpt lat="35.3685675" lon="10.5025317"><ele>46.25</ele><time>2026-04-25T09:38:39.856Z</time></trkpt><trkpt lat="35.3685179" lon="10.5026569"><ele>46.0</ele><time>2026-04-25T09:38:40.861Z</time></trkpt><trkpt lat="35.3684686" lon="10.5027867"><ele>46.5</ele><time>2026-04-25T09:38:41.858Z</time></trkpt><trkpt lat="35.3684176" lon="10.5029321"><ele>47.0</ele><time>2026-04-25T09:38:42.851Z</time></trkpt><trkpt lat="35.3683617" lon="10.5030796"><ele>47.5</ele><time>2026-04-25T09:38:43.853Z</time></trkpt><trkpt lat="35.368299" lon="10.5032268"><ele>48.0</ele><time>2026-04-25T09:38:44.858Z</time></trkpt><trkpt lat="35.3682389" lon="10.5033774"><ele>48.0</ele><time>2026-04-25T09:38:45.853Z</time></trkpt><trkpt lat="35.3681762" lon="10.5035384"><ele>48.0</ele><time>2026-04-25T09:38:46.86Z</time></trkpt><trkpt lat="35.3681087" lon="10.5037024"><ele>48.0</ele><time>2026-04-25T09:38:47.852Z</time></trkpt><trkpt lat="35.3680392" lon="10.5038651"><ele>48.0</ele><time>2026-04-25T09:38:48.855Z</time></trkpt><trkpt lat="35.3679755" lon="10.5040207"><ele>48.25</ele><time>2026-04-25T09:38:49.854Z</time></trkpt><trkpt lat="35.3679114" lon="10.504165"><ele>48.5</ele><time>2026-04-25T09:38:50.849Z</time></trkpt><trkpt lat="35.3678516" lon="10.5043109"><ele>48.75</ele><time>2026-04-25T09:38:51.852Z</time></trkpt><trkpt lat="35.36779" lon="10.5044523"><ele>49.0</ele><time>2026-04-25T09:38:52.855Z</time></trkpt><trkpt lat="35.367727" lon="10.5045905"><ele>49.0</ele><time>2026-04-25T09:38:53.852Z</time></trkpt><trkpt lat="35.367669" lon="10.5047278"><ele>49.0</ele><time>2026-04-25T09:38:54.851Z</time></trkpt><trkpt lat="35.3676113" lon="10.5048577"><ele>49.0</ele><time>2026-04-25T09:38:55.861Z</time></trkpt><trkpt lat="35.3675504" lon="10.504984"><ele>49.0</ele><time>2026-04-25T09:38:56.847Z</time></trkpt><trkpt lat="35.3674829" lon="10.505114"><ele>49.0</ele><time>2026-04-25T09:38:57.861Z</time></trkpt><trkpt lat="35.3674178" lon="10.5052451"><ele>49.0</ele><time>2026-04-25T09:38:58.86Z</time></trkpt><trkpt lat="35.3673542" lon="10.5053742"><ele>49.0</ele><time>2026-04-25T09:38:59.85Z</time></trkpt><trkpt lat="35.3672952" lon="10.5055055"><ele>49.0</ele><time>2026-04-25T09:39:00.858Z</time></trkpt><trkpt lat="35.3672269" lon="10.5056365"><ele>48.5</ele><time>2026-04-25T09:39:01.866Z</time></trkpt><trkpt lat="35.3671563" lon="10.505768"><ele>48.0</ele><time>2026-04-25T09:39:02.851Z</time></trkpt><trkpt lat="35.367087" lon="10.5058969"><ele>47.5</ele><time>2026-04-25T09:39:03.853Z</time></trkpt><trkpt lat="35.367012" lon="10.5060354"><ele>47.0</ele><time>2026-04-25T09:39:04.859Z</time></trkpt><trkpt lat="35.3669296" lon="10.506167"><ele>46.75</ele><time>2026-04-25T09:39:05.862Z</time></trkpt><trkpt lat="35.3668459" lon="10.5062995"><ele>46.5</ele><time>2026-04-25T09:39:06.858Z</time></trkpt><trkpt lat="35.3667546" lon="10.5064363"><ele>46.25</ele><time>2026-04-25T09:39:07.853Z</time></trkpt><trkpt lat="35.3666696" lon="10.5065674"><ele>46.0</ele><time>2026-04-25T09:39:08.856Z</time></trkpt><trkpt lat="35.3665787" lon="10.5066933"><ele>46.0</ele><time>2026-04-25T09:39:09.868Z</time></trkpt><trkpt lat="35.3664846" lon="10.5068194"><ele>46.0</ele><time>2026-04-25T09:39:10.85Z</time></trkpt><trkpt lat="35.3663855" lon="10.5069413"><ele>46.0</ele><time>2026-04-25T09:39:11.854Z</time></trkpt><trkpt lat="35.3662865" lon="10.5070697"><ele>46.0</ele><time>2026-04-25T09:39:12.847Z</time></trkpt><trkpt lat="35.3661835" lon="10.5071948"><ele>45.75</ele><time>2026-04-25T09:39:13.851Z</time></trkpt><trkpt lat="35.3660773" lon="10.5073223"><ele>45.5</ele><time>2026-04-25T09:39:14.85Z</time></trkpt><trkpt lat="35.3659722" lon="10.5074445"><ele>45.25</ele><time>2026-04-25T09:39:15.851Z</time></trkpt><trkpt lat="35.3658723" lon="10.5075678"><ele>45.0</ele><time>2026-04-25T09:39:16.863Z</time></trkpt><trkpt lat="35.3657742" lon="10.5076944"><ele>45.0</ele><time>2026-04-25T09:39:17.86Z</time></trkpt><trkpt lat="35.365673" lon="10.5078263"><ele>45.0</ele><time>2026-04-25T09:39:18.859Z</time></trkpt><trkpt lat="35.365562" lon="10.507954"><ele>45.0</ele><time>2026-04-25T09:39:19.859Z</time></trkpt><trkpt lat="35.365452" lon="10.5080884"><ele>45.666666666666664</ele><time>2026-04-25T09:39:20.857Z</time></trkpt><trkpt lat="35.365342" lon="10.5082156"><ele>46.33333333333333</ele><time>2026-04-25T09:39:21.861Z</time></trkpt><trkpt lat="35.3652317" lon="10.508349"><ele>47.0</ele><time>2026-04-25T09:39:22.856Z</time></trkpt><trkpt lat="35.3651132" lon="10.5084931"><ele>47.0</ele><time>2026-04-25T09:39:23.855Z</time></trkpt><trkpt lat="35.3649965" lon="10.5086377"><ele>47.0</ele><time>2026-04-25T09:39:24.853Z</time></trkpt><trkpt lat="35.3648798" lon="10.5087824"><ele>47.0</ele><time>2026-04-25T09:39:25.856Z</time></trkpt><trkpt lat="35.3647653" lon="10.5089228"><ele>47.0</ele><time>2026-04-25T09:39:26.855Z</time></trkpt><trkpt lat="35.364649" lon="10.5090674"><ele>47.0</ele><time>2026-04-25T09:39:27.85Z</time></trkpt><trkpt lat="35.3645257" lon="10.5092153"><ele>47.0</ele><time>2026-04-25T09:39:28.862Z</time></trkpt><trkpt lat="35.3644034" lon="10.5093637"><ele>47.0</ele><time>2026-04-25T09:39:29.854Z</time></trkpt><trkpt lat="35.3642768" lon="10.5095096"><ele>47.0</ele><time>2026-04-25T09:39:30.873Z</time></trkpt><trkpt lat="35.3641533" lon="10.5096585"><ele>47.0</ele><time>2026-04-25T09:39:31.883Z</time></trkpt><trkpt lat="35.3640291" lon="10.5098216"><ele>47.0</ele><time>2026-04-25T09:39:32.855Z</time></trkpt><trkpt lat="35.363895" lon="10.509981"><ele>47.0</ele><time>2026-04-25T09:39:33.858Z</time></trkpt><trkpt lat="35.3637622" lon="10.5101382"><ele>47.0</ele><time>2026-04-25T09:39:34.856Z</time></trkpt><trkpt lat="35.3636329" lon="10.5102918"><ele>47.33333333333333</ele><time>2026-04-25T09:39:35.862Z</time></trkpt><trkpt lat="35.3635036" lon="10.5104497"><ele>47.666666666666664</ele><time>2026-04-25T09:39:36.861Z</time></trkpt><trkpt lat="35.3633773" lon="10.510605"><ele>48.0</ele><time>2026-04-25T09:39:37.857Z</time></trkpt><trkpt lat="35.3632453" lon="10.5107586"><ele>48.0</ele><time>2026-04-25T09:39:38.854Z</time></trkpt><trkpt lat="35.3631151" lon="10.510911"><ele>48.0</ele><time>2026-04-25T09:39:39.859Z</time></trkpt><trkpt lat="35.3629862" lon="10.5110601"><ele>48.0</ele><time>2026-04-25T09:39:40.858Z</time></trkpt><trkpt lat="35.3628642" lon="10.5112131"><ele>48.0</ele><time>2026-04-25T09:39:41.863Z</time></trkpt><trkpt lat="35.362746" lon="10.5113688"><ele>48.0</ele><time>2026-04-25T09:39:42.861Z</time></trkpt><trkpt lat="35.362629" lon="10.5115229"><ele>48.0</ele><time>2026-04-25T09:39:43.858Z</time></trkpt><trkpt lat="35.3625162" lon="10.5116811"><ele>48.0</ele><time>2026-04-25T09:39:44.86Z</time></trkpt><trkpt lat="35.3624101" lon="10.5118449"><ele>48.0</ele><time>2026-04-25T09:39:45.857Z</time></trkpt><trkpt lat="35.3623095" lon="10.5120088"><ele>48.0</ele><time>2026-04-25T09:39:46.865Z</time></trkpt><trkpt lat="35.3622112" lon="10.5121702"><ele>48.66666666666667</ele><time>2026-04-25T09:39:47.857Z</time></trkpt><trkpt lat="35.362118" lon="10.5123327"><ele>49.333333333333336</ele><time>2026-04-25T09:39:48.861Z</time></trkpt><trkpt lat="35.3620207" lon="10.5125061"><ele>50.0</ele><time>2026-04-25T09:39:49.86Z</time></trkpt><trkpt lat="35.3619279" lon="10.5126764"><ele>50.0</ele><time>2026-04-25T09:39:50.848Z</time></trkpt><trkpt lat="35.361839" lon="10.5128482"><ele>50.0</ele><time>2026-04-25T09:39:51.862Z</time></trkpt><trkpt lat="35.36175" lon="10.513029"><ele>50.0</ele><time>2026-04-25T09:39:52.856Z</time></trkpt><trkpt lat="35.3616658" lon="10.5132028"><ele>50.0</ele><time>2026-04-25T09:39:53.856Z</time></trkpt><trkpt lat="35.3615772" lon="10.5133748"><ele>50.0</ele><time>2026-04-25T09:39:54.85Z</time></trkpt><trkpt lat="35.3614881" lon="10.5135515"><ele>50.0</ele><time>2026-04-25T09:39:55.866Z</time></trkpt><trkpt lat="35.3614021" lon="10.5137195"><ele>49.333333333333336</ele><time>2026-04-25T09:39:56.854Z</time></trkpt><trkpt lat="35.3613119" lon="10.5138893"><ele>48.66666666666667</ele><time>2026-04-25T09:39:57.865Z</time></trkpt><trkpt lat="35.3612214" lon="10.5140558"><ele>48.0</ele><time>2026-04-25T09:39:58.854Z</time></trkpt><trkpt lat="35.3611283" lon="10.5142254"><ele>48.0</ele><time>2026-04-25T09:39:59.855Z</time></trkpt><trkpt lat="35.3610344" lon="10.5143934"><ele>48.0</ele><time>2026-04-25T09:40:00.856Z</time></trkpt><trkpt lat="35.3609472" lon="10.5145567"><ele>48.0</ele><time>2026-04-25T09:40:01.862Z</time></trkpt><trkpt lat="35.3608605" lon="10.5147208"><ele>48.33333333333333</ele><time>2026-04-25T09:40:02.869Z</time></trkpt><trkpt lat="35.3607728" lon="10.5148876"><ele>48.666666666666664</ele><time>2026-04-25T09:40:03.862Z</time></trkpt><trkpt lat="35.3606856" lon="10.5150588"><ele>49.0</ele><time>2026-04-25T09:40:04.854Z</time></trkpt><trkpt lat="35.3605995" lon="10.5152261"><ele>48.33333333333333</ele><time>2026-04-25T09:40:05.854Z</time></trkpt><trkpt lat="35.3605093" lon="10.5153991"><ele>47.666666666666664</ele><time>2026-04-25T09:40:06.862Z</time></trkpt><trkpt lat="35.360417" lon="10.51557"><ele>47.0</ele><time>2026-04-25T09:40:07.856Z</time></trkpt><trkpt lat="35.3603263" lon="10.5157439"><ele>47.0</ele><time>2026-04-25T09:40:08.849Z</time></trkpt><trkpt lat="35.3602351" lon="10.5159161"><ele>47.0</ele><time>2026-04-25T09:40:09.849Z</time></trkpt><trkpt lat="35.3601426" lon="10.5160873"><ele>47.0</ele><time>2026-04-25T09:40:10.854Z</time></trkpt><trkpt lat="35.3599591" lon="10.5164223"><ele>47.0</ele><time>2026-04-25T09:40:12.855Z</time></trkpt><trkpt lat="35.3598804" lon="10.5165724"><ele>47.0</ele><time>2026-04-25T09:40:13.857Z</time></trkpt><trkpt lat="35.3598072" lon="10.5167139"><ele>47.0</ele><time>2026-04-25T09:40:14.853Z</time></trkpt><trkpt lat="35.3597386" lon="10.5168512"><ele>47.0</ele><time>2026-04-25T09:40:15.862Z</time></trkpt><trkpt lat="35.3596706" lon="10.516978"><ele>47.25</ele><time>2026-04-25T09:40:16.858Z</time></trkpt><trkpt lat="35.3596066" lon="10.5170948"><ele>47.5</ele><time>2026-04-25T09:40:17.857Z</time></trkpt><trkpt lat="35.3595445" lon="10.5172187"><ele>47.75</ele><time>2026-04-25T09:40:18.86Z</time></trkpt><trkpt lat="35.3594796" lon="10.5173456"><ele>48.0</ele><time>2026-04-25T09:40:19.864Z</time></trkpt><trkpt lat="35.3594117" lon="10.5174764"><ele>48.0</ele><time>2026-04-25T09:40:20.863Z</time></trkpt><trkpt lat="35.3593395" lon="10.5176092"><ele>48.0</ele><time>2026-04-25T09:40:21.861Z</time></trkpt><trkpt lat="35.3592661" lon="10.5177491"><ele>48.0</ele><time>2026-04-25T09:40:22.853Z</time></trkpt><trkpt lat="35.3591918" lon="10.5178898"><ele>48.0</ele><time>2026-04-25T09:40:23.856Z</time></trkpt><trkpt lat="35.3591173" lon="10.5180303"><ele>48.0</ele><time>2026-04-25T09:40:24.852Z</time></trkpt><trkpt lat="35.3590426" lon="10.5181734"><ele>48.0</ele><time>2026-04-25T09:40:25.862Z</time></trkpt><trkpt lat="35.3589671" lon="10.5183164"><ele>48.0</ele><time>2026-04-25T09:40:26.856Z</time></trkpt><trkpt lat="35.3588905" lon="10.5184644"><ele>48.0</ele><time>2026-04-25T09:40:27.863Z</time></trkpt><trkpt lat="35.3588125" lon="10.5186099"><ele>48.0</ele><time>2026-04-25T09:40:28.856Z</time></trkpt><trkpt lat="35.3587327" lon="10.5187569"><ele>48.0</ele><time>2026-04-25T09:40:29.855Z</time></trkpt><trkpt lat="35.3586535" lon="10.5189144"><ele>48.0</ele><time>2026-04-25T09:40:30.855Z</time></trkpt><trkpt lat="35.3585703" lon="10.5190669"><ele>48.0</ele><time>2026-04-25T09:40:31.851Z</time></trkpt><trkpt lat="35.3584869" lon="10.5192216"><ele>48.0</ele><time>2026-04-25T09:40:32.853Z</time></trkpt><trkpt lat="35.3583983" lon="10.5193819"><ele>48.0</ele><time>2026-04-25T09:40:33.859Z</time></trkpt><trkpt lat="35.3583107" lon="10.5195404"><ele>48.0</ele><time>2026-04-25T09:40:34.848Z</time></trkpt><trkpt lat="35.3582282" lon="10.5197015"><ele>48.33333333333333</ele><time>2026-04-25T09:40:35.857Z</time></trkpt><trkpt lat="35.3581431" lon="10.5198646"><ele>48.666666666666664</ele><time>2026-04-25T09:40:36.855Z</time></trkpt><trkpt lat="35.3580597" lon="10.5200333"><ele>49.0</ele><time>2026-04-25T09:40:37.85Z</time></trkpt><trkpt lat="35.3579776" lon="10.5202032"><ele>49.0</ele><time>2026-04-25T09:40:38.852Z</time></trkpt><trkpt lat="35.357898" lon="10.5203661"><ele>49.0</ele><time>2026-04-25T09:40:39.858Z</time></trkpt><trkpt lat="35.3578237" lon="10.5205327"><ele>49.0</ele><time>2026-04-25T09:40:40.853Z</time></trkpt><trkpt lat="35.357751" lon="10.5207003"><ele>49.0</ele><time>2026-04-25T09:40:41.851Z</time></trkpt><trkpt lat="35.3576796" lon="10.52087"><ele>49.0</ele><time>2026-04-25T09:40:42.861Z</time></trkpt><trkpt lat="35.357608" lon="10.5210408"><ele>49.0</ele><time>2026-04-25T09:40:43.851Z</time></trkpt><trkpt lat="35.35754" lon="10.5212048"><ele>48.666666666666664</ele><time>2026-04-25T09:40:44.858Z</time></trkpt><trkpt lat="35.3574696" lon="10.5213678"><ele>48.33333333333333</ele><time>2026-04-25T09:40:45.855Z</time></trkpt><trkpt lat="35.3573966" lon="10.5215328"><ele>48.0</ele><time>2026-04-25T09:40:46.865Z</time></trkpt><trkpt lat="35.3573246" lon="10.5216964"><ele>48.0</ele><time>2026-04-25T09:40:47.857Z</time></trkpt><trkpt lat="35.3572532" lon="10.5218621"><ele>48.0</ele><time>2026-04-25T09:40:48.856Z</time></trkpt><trkpt lat="35.357183" lon="10.5220318"><ele>48.0</ele><time>2026-04-25T09:40:49.849Z</time></trkpt><trkpt lat="35.3571082" lon="10.5222097"><ele>48.66666666666667</ele><time>2026-04-25T09:40:50.854Z</time></trkpt><trkpt lat="35.3570303" lon="10.5223981"><ele>49.333333333333336</ele><time>2026-04-25T09:40:51.856Z</time></trkpt><trkpt lat="35.356951" lon="10.5225837"><ele>50.0</ele><time>2026-04-25T09:40:52.854Z</time></trkpt><trkpt lat="35.3568697" lon="10.5227745"><ele>49.66666666666667</ele><time>2026-04-25T09:40:53.861Z</time></trkpt><trkpt lat="35.3567876" lon="10.522971"><ele>49.33333333333333</ele><time>2026-04-25T09:40:54.857Z</time></trkpt><trkpt lat="35.3567057" lon="10.5231763"><ele>49.0</ele><time>2026-04-25T09:40:55.858Z</time></trkpt><trkpt lat="35.3566203" lon="10.5233793"><ele>49.0</ele><time>2026-04-25T09:40:56.855Z</time></trkpt><trkpt lat="35.3565344" lon="10.5235765"><ele>49.0</ele><time>2026-04-25T09:40:57.858Z</time></trkpt><trkpt lat="35.3564519" lon="10.5237745"><ele>49.0</ele><time>2026-04-25T09:40:58.858Z</time></trkpt><trkpt lat="35.3563656" lon="10.5239748"><ele>49.0</ele><time>2026-04-25T09:40:59.852Z</time></trkpt><trkpt lat="35.3562806" lon="10.5241764"><ele>49.0</ele><time>2026-04-25T09:41:00.845Z</time></trkpt><trkpt lat="35.3561985" lon="10.5243781"><ele>49.0</ele><time>2026-04-25T09:41:01.86Z</time></trkpt><trkpt lat="35.3561133" lon="10.5245786"><ele>49.0</ele><time>2026-04-25T09:41:02.854Z</time></trkpt><trkpt lat="35.3560319" lon="10.5247758"><ele>49.0</ele><time>2026-04-25T09:41:03.853Z</time></trkpt><trkpt lat="35.3559486" lon="10.5249683"><ele>49.0</ele><time>2026-04-25T09:41:04.846Z</time></trkpt><trkpt lat="35.3558656" lon="10.5251582"><ele>49.0</ele><time>2026-04-25T09:41:05.857Z</time></trkpt><trkpt lat="35.3557844" lon="10.5253464"><ele>49.0</ele><time>2026-04-25T09:41:06.859Z</time></trkpt><trkpt lat="35.3557056" lon="10.5255338"><ele>49.0</ele><time>2026-04-25T09:41:07.857Z</time></trkpt><trkpt lat="35.3556272" lon="10.525725"><ele>49.0</ele><time>2026-04-25T09:41:08.857Z</time></trkpt><trkpt lat="35.3555423" lon="10.525913"><ele>49.0</ele><time>2026-04-25T09:41:09.859Z</time></trkpt><trkpt lat="35.3554584" lon="10.5261062"><ele>49.0</ele><time>2026-04-25T09:41:10.861Z</time></trkpt><trkpt lat="35.3553779" lon="10.5262956"><ele>50.0</ele><time>2026-04-25T09:41:11.858Z</time></trkpt><trkpt lat="35.3552982" lon="10.5264915"><ele>51.0</ele><time>2026-04-25T09:41:12.858Z</time></trkpt><trkpt lat="35.3552172" lon="10.5266938"><ele>52.0</ele><time>2026-04-25T09:41:13.86Z</time></trkpt><trkpt lat="35.3551332" lon="10.5268986"><ele>52.0</ele><time>2026-04-25T09:41:14.86Z</time></trkpt><trkpt lat="35.3550501" lon="10.5270998"><ele>52.0</ele><time>2026-04-25T09:41:15.858Z</time></trkpt><trkpt lat="35.3549658" lon="10.5272961"><ele>52.0</ele><time>2026-04-25T09:41:16.855Z</time></trkpt><trkpt lat="35.354883" lon="10.5274897"><ele>52.0</ele><time>2026-04-25T09:41:17.861Z</time></trkpt><trkpt lat="35.3548008" lon="10.5276856"><ele>52.0</ele><time>2026-04-25T09:41:18.858Z</time></trkpt><trkpt lat="35.3547178" lon="10.5278834"><ele>52.0</ele><time>2026-04-25T09:41:19.859Z</time></trkpt><trkpt lat="35.3546367" lon="10.5280767"><ele>51.666666666666664</ele><time>2026-04-25T09:41:20.851Z</time></trkpt><trkpt lat="35.3545543" lon="10.5282717"><ele>51.33333333333333</ele><time>2026-04-25T09:41:21.857Z</time></trkpt><trkpt lat="35.3544644" lon="10.5284718"><ele>51.0</ele><time>2026-04-25T09:41:22.852Z</time></trkpt><trkpt lat="35.3543677" lon="10.5286879"><ele>51.0</ele><time>2026-04-25T09:41:23.853Z</time></trkpt><trkpt lat="35.3542677" lon="10.5289106"><ele>51.0</ele><time>2026-04-25T09:41:24.853Z</time></trkpt><trkpt lat="35.3541776" lon="10.5291241"><ele>51.0</ele><time>2026-04-25T09:41:25.852Z</time></trkpt><trkpt lat="35.3540939" lon="10.5293318"><ele>51.0</ele><time>2026-04-25T09:41:26.854Z</time></trkpt><trkpt lat="35.3540129" lon="10.5295328"><ele>51.0</ele><time>2026-04-25T09:41:27.86Z</time></trkpt><trkpt lat="35.3539301" lon="10.5297405"><ele>51.0</ele><time>2026-04-25T09:41:28.854Z</time></trkpt><trkpt lat="35.3538438" lon="10.5299535"><ele>51.66666666666667</ele><time>2026-04-25T09:41:29.86Z</time></trkpt><trkpt lat="35.3537549" lon="10.530169"><ele>52.333333333333336</ele><time>2026-04-25T09:41:30.856Z</time></trkpt><trkpt lat="35.3536678" lon="10.5303857"><ele>53.0</ele><time>2026-04-25T09:41:31.851Z</time></trkpt><trkpt lat="35.3535791" lon="10.5306024"><ele>53.0</ele><time>2026-04-25T09:41:32.851Z</time></trkpt><trkpt lat="35.3534871" lon="10.5308115"><ele>53.0</ele><time>2026-04-25T09:41:33.86Z</time></trkpt><trkpt lat="35.353389" lon="10.5310206"><ele>53.0</ele><time>2026-04-25T09:41:34.86Z</time></trkpt><trkpt lat="35.3532935" lon="10.5312257"><ele>52.333333333333336</ele><time>2026-04-25T09:41:35.854Z</time></trkpt><trkpt lat="35.3532076" lon="10.5314304"><ele>51.66666666666667</ele><time>2026-04-25T09:41:36.859Z</time></trkpt><trkpt lat="35.3531218" lon="10.5316285"><ele>51.0</ele><time>2026-04-25T09:41:37.859Z</time></trkpt><trkpt lat="35.3530393" lon="10.5318275"><ele>51.66666666666667</ele><time>2026-04-25T09:41:38.85Z</time></trkpt><trkpt lat="35.3529565" lon="10.5320286"><ele>52.333333333333336</ele><time>2026-04-25T09:41:39.858Z</time></trkpt><trkpt lat="35.3528794" lon="10.5322192"><ele>53.0</ele><time>2026-04-25T09:41:40.857Z</time></trkpt><trkpt lat="35.3528012" lon="10.5324124"><ele>53.0</ele><time>2026-04-25T09:41:41.855Z</time></trkpt><trkpt lat="35.3527221" lon="10.532603"><ele>53.0</ele><time>2026-04-25T09:41:42.849Z</time></trkpt><trkpt lat="35.3526373" lon="10.532792"><ele>53.0</ele><time>2026-04-25T09:41:43.856Z</time></trkpt><trkpt lat="35.3525525" lon="10.5329812"><ele>53.0</ele><time>2026-04-25T09:41:44.847Z</time></trkpt><trkpt lat="35.3524673" lon="10.53317"><ele>53.0</ele><time>2026-04-25T09:41:45.855Z</time></trkpt><trkpt lat="35.3523807" lon="10.5333544"><ele>53.0</ele><time>2026-04-25T09:41:46.861Z</time></trkpt><trkpt lat="35.3522901" lon="10.5335381"><ele>53.333333333333336</ele><time>2026-04-25T09:41:47.854Z</time></trkpt><trkpt lat="35.3521954" lon="10.5337227"><ele>53.66666666666667</ele><time>2026-04-25T09:41:48.853Z</time></trkpt><trkpt lat="35.3520992" lon="10.5339069"><ele>54.0</ele><time>2026-04-25T09:41:49.86Z</time></trkpt><trkpt lat="35.3520006" lon="10.5340923"><ele>54.0</ele><time>2026-04-25T09:41:50.855Z</time></trkpt><trkpt lat="35.3519094" lon="10.5342746"><ele>54.0</ele><time>2026-04-25T09:41:51.846Z</time></trkpt><trkpt lat="35.351817" lon="10.5344511"><ele>54.0</ele><time>2026-04-25T09:41:52.861Z</time></trkpt><trkpt lat="35.351722" lon="10.5346306"><ele>53.33333333333333</ele><time>2026-04-25T09:41:53.857Z</time></trkpt><trkpt lat="35.3516326" lon="10.5348136"><ele>52.666666666666664</ele><time>2026-04-25T09:41:54.858Z</time></trkpt><trkpt lat="35.3515415" lon="10.5349854"><ele>52.0</ele><time>2026-04-25T09:41:55.857Z</time></trkpt><trkpt lat="35.3514516" lon="10.5351685"><ele>52.33333333333333</ele><time>2026-04-25T09:41:56.858Z</time></trkpt><trkpt lat="35.3513614" lon="10.5353433"><ele>52.66666666666667</ele><time>2026-04-25T09:41:57.861Z</time></trkpt><trkpt lat="35.3512687" lon="10.5355198"><ele>53.0</ele><time>2026-04-25T09:41:58.86Z</time></trkpt><trkpt lat="35.3511767" lon="10.5356979"><ele>53.0</ele><time>2026-04-25T09:41:59.856Z</time></trkpt><trkpt lat="35.3510827" lon="10.5358754"><ele>53.0</ele><time>2026-04-25T09:42:00.855Z</time></trkpt><trkpt lat="35.3509939" lon="10.5360474"><ele>53.0</ele><time>2026-04-25T09:42:01.857Z</time></trkpt><trkpt lat="35.3509012" lon="10.536225"><ele>52.0</ele><time>2026-04-25T09:42:02.858Z</time></trkpt><trkpt lat="35.3508135" lon="10.5364102"><ele>51.0</ele><time>2026-04-25T09:42:03.86Z</time></trkpt><trkpt lat="35.3507255" lon="10.5365844"><ele>50.0</ele><time>2026-04-25T09:42:04.857Z</time></trkpt><trkpt lat="35.3506372" lon="10.5367649"><ele>50.0</ele><time>2026-04-25T09:42:05.853Z</time></trkpt><trkpt lat="35.3505456" lon="10.5369364"><ele>50.0</ele><time>2026-04-25T09:42:06.86Z</time></trkpt><trkpt lat="35.3504568" lon="10.5371045"><ele>50.0</ele><time>2026-04-25T09:42:07.862Z</time></trkpt><trkpt lat="35.3503672" lon="10.5372729"><ele>51.0</ele><time>2026-04-25T09:42:08.851Z</time></trkpt><trkpt lat="35.3502806" lon="10.5374371"><ele>52.0</ele><time>2026-04-25T09:42:09.856Z</time></trkpt><trkpt lat="35.3501918" lon="10.5376005"><ele>53.0</ele><time>2026-04-25T09:42:10.856Z</time></trkpt><trkpt lat="35.3501064" lon="10.5377707"><ele>52.333333333333336</ele><time>2026-04-25T09:42:11.85Z</time></trkpt><trkpt lat="35.350023" lon="10.5379425"><ele>51.66666666666667</ele><time>2026-04-25T09:42:12.858Z</time></trkpt><trkpt lat="35.3499368" lon="10.538111"><ele>51.0</ele><time>2026-04-25T09:42:13.846Z</time></trkpt><trkpt lat="35.3498531" lon="10.5382736"><ele>51.0</ele><time>2026-04-25T09:42:14.859Z</time></trkpt><trkpt lat="35.3497682" lon="10.5384369"><ele>51.0</ele><time>2026-04-25T09:42:15.856Z</time></trkpt><trkpt lat="35.3496862" lon="10.5386035"><ele>51.0</ele><time>2026-04-25T09:42:16.853Z</time></trkpt><trkpt lat="35.3496011" lon="10.5387716"><ele>51.0</ele><time>2026-04-25T09:42:17.857Z</time></trkpt><trkpt lat="35.3495107" lon="10.5389399"><ele>51.0</ele><time>2026-04-25T09:42:18.859Z</time></trkpt><trkpt lat="35.3494321" lon="10.539103"><ele>51.0</ele><time>2026-04-25T09:42:19.864Z</time></trkpt><trkpt lat="35.3493536" lon="10.5392617"><ele>51.0</ele><time>2026-04-25T09:42:20.854Z</time></trkpt><trkpt lat="35.3492784" lon="10.5394087"><ele>51.0</ele><time>2026-04-25T09:42:21.891Z</time></trkpt><trkpt lat="35.349202" lon="10.5395477"><ele>51.0</ele><time>2026-04-25T09:42:22.863Z</time></trkpt><trkpt lat="35.3491215" lon="10.5396835"><ele>51.0</ele><time>2026-04-25T09:42:23.86Z</time></trkpt><trkpt lat="35.3490453" lon="10.5398197"><ele>51.0</ele><time>2026-04-25T09:42:24.854Z</time></trkpt><trkpt lat="35.348971" lon="10.5399546"><ele>51.0</ele><time>2026-04-25T09:42:25.85Z</time></trkpt><trkpt lat="35.3489031" lon="10.5400867"><ele>51.0</ele><time>2026-04-25T09:42:26.848Z</time></trkpt><trkpt lat="35.3488399" lon="10.5402185"><ele>51.0</ele><time>2026-04-25T09:42:27.852Z</time></trkpt><trkpt lat="35.3487767" lon="10.5403451"><ele>51.0</ele><time>2026-04-25T09:42:28.856Z</time></trkpt><trkpt lat="35.3487148" lon="10.5404698"><ele>51.0</ele><time>2026-04-25T09:42:29.854Z</time></trkpt><trkpt lat="35.3486566" lon="10.5405956"><ele>51.0</ele><time>2026-04-25T09:42:30.865Z</time></trkpt><trkpt lat="35.348597" lon="10.5407201"><ele>51.0</ele><time>2026-04-25T09:42:31.859Z</time></trkpt><trkpt lat="35.3485343" lon="10.5408383"><ele>51.0</ele><time>2026-04-25T09:42:32.86Z</time></trkpt><trkpt lat="35.3484667" lon="10.5409583"><ele>51.0</ele><time>2026-04-25T09:42:33.855Z</time></trkpt><trkpt lat="35.348401" lon="10.5410831"><ele>51.0</ele><time>2026-04-25T09:42:34.858Z</time></trkpt><trkpt lat="35.3483383" lon="10.5412099"><ele>51.0</ele><time>2026-04-25T09:42:35.858Z</time></trkpt><trkpt lat="35.3482767" lon="10.541337"><ele>51.25</ele><time>2026-04-25T09:42:36.85Z</time></trkpt><trkpt lat="35.3482131" lon="10.5414629"><ele>51.5</ele><time>2026-04-25T09:42:37.857Z</time></trkpt><trkpt lat="35.3481553" lon="10.5415818"><ele>51.75</ele><time>2026-04-25T09:42:38.858Z</time></trkpt><trkpt lat="35.3480964" lon="10.5416993"><ele>52.0</ele><time>2026-04-25T09:42:39.862Z</time></trkpt><trkpt lat="35.3480405" lon="10.5418079"><ele>51.400000000000006</ele><time>2026-04-25T09:42:40.856Z</time></trkpt><trkpt lat="35.3479874" lon="10.5419096"><ele>50.800000000000004</ele><time>2026-04-25T09:42:41.85Z</time></trkpt><trkpt lat="35.3479323" lon="10.5420169"><ele>50.2</ele><time>2026-04-25T09:42:42.843Z</time></trkpt><trkpt lat="35.3478809" lon="10.5421237"><ele>49.6</ele><time>2026-04-25T09:42:43.859Z</time></trkpt><trkpt lat="35.3478329" lon="10.5422313"><ele>49.0</ele><time>2026-04-25T09:42:44.849Z</time></trkpt><trkpt lat="35.347781" lon="10.5423368"><ele>48.800000000000004</ele><time>2026-04-25T09:42:45.85Z</time></trkpt><trkpt lat="35.3477321" lon="10.542439"><ele>48.6</ele><time>2026-04-25T09:42:46.85Z</time></trkpt><trkpt lat="35.3476775" lon="10.5425439"><ele>48.4</ele><time>2026-04-25T09:42:47.859Z</time></trkpt><trkpt lat="35.3476261" lon="10.5426488"><ele>48.2</ele><time>2026-04-25T09:42:48.855Z</time></trkpt><trkpt lat="35.3475705" lon="10.54276"><ele>48.0</ele><time>2026-04-25T09:42:49.887Z</time></trkpt><trkpt lat="35.3475165" lon="10.5428664"><ele>48.599999999999994</ele><time>2026-04-25T09:42:50.849Z</time></trkpt><trkpt lat="35.3474625" lon="10.5429701"><ele>49.199999999999996</ele><time>2026-04-25T09:42:51.86Z</time></trkpt><trkpt lat="35.347411" lon="10.5430751"><ele>49.8</ele><time>2026-04-25T09:42:52.858Z</time></trkpt><trkpt lat="35.347364" lon="10.5431779"><ele>50.4</ele><time>2026-04-25T09:42:53.858Z</time></trkpt><trkpt lat="35.3473127" lon="10.5432746"><ele>51.0</ele><time>2026-04-25T09:42:54.852Z</time></trkpt><trkpt lat="35.3472653" lon="10.5433678"><ele>51.0</ele><time>2026-04-25T09:42:55.852Z</time></trkpt><trkpt lat="35.3472193" lon="10.5434562"><ele>51.0</ele><time>2026-04-25T09:42:56.851Z</time></trkpt><trkpt lat="35.3471776" lon="10.5435392"><ele>51.0</ele><time>2026-04-25T09:42:57.855Z</time></trkpt><trkpt lat="35.3471361" lon="10.5436142"><ele>51.0</ele><time>2026-04-25T09:42:58.853Z</time></trkpt><trkpt lat="35.3470735" lon="10.5437425"><ele>51.0</ele><time>2026-04-25T09:43:00.856Z</time></trkpt><trkpt lat="35.3470362" lon="10.5438106"><ele>51.0</ele><time>2026-04-25T09:43:01.849Z</time></trkpt><trkpt lat="35.3469953" lon="10.5438858"><ele>51.0</ele><time>2026-04-25T09:43:02.847Z</time></trkpt><trkpt lat="35.34695" lon="10.5439701"><ele>51.0</ele><time>2026-04-25T09:43:03.887Z</time></trkpt><trkpt lat="35.3469022" lon="10.5440687"><ele>51.0</ele><time>2026-04-25T09:43:04.849Z</time></trkpt><trkpt lat="35.3468557" lon="10.5441661"><ele>51.0</ele><time>2026-04-25T09:43:05.852Z</time></trkpt><trkpt lat="35.346808" lon="10.5442628"><ele>51.0</ele><time>2026-04-25T09:43:06.857Z</time></trkpt><trkpt lat="35.3467579" lon="10.544358"><ele>51.0</ele><time>2026-04-25T09:43:07.855Z</time></trkpt><trkpt lat="35.3467043" lon="10.54445"><ele>51.0</ele><time>2026-04-25T09:43:08.865Z</time></trkpt><trkpt lat="35.3466551" lon="10.5445426"><ele>51.0</ele><time>2026-04-25T09:43:09.854Z</time></trkpt><trkpt lat="35.3466061" lon="10.5446401"><ele>51.0</ele><time>2026-04-25T09:43:10.855Z</time></trkpt><trkpt lat="35.3465527" lon="10.5447356"><ele>51.0</ele><time>2026-04-25T09:43:11.855Z</time></trkpt><trkpt lat="35.3465" lon="10.5448388"><ele>50.599999999999994</ele><time>2026-04-25T09:43:12.855Z</time></trkpt><trkpt lat="35.3464504" lon="10.5449422"><ele>50.2</ele><time>2026-04-25T09:43:13.854Z</time></trkpt><trkpt lat="35.346395" lon="10.5450409"><ele>49.8</ele><time>2026-04-25T09:43:14.853Z</time></trkpt><trkpt lat="35.3463371" lon="10.5451508"><ele>49.400000000000006</ele><time>2026-04-25T09:43:15.858Z</time></trkpt><trkpt lat="35.3462789" lon="10.5452607"><ele>49.0</ele><time>2026-04-25T09:43:16.853Z</time></trkpt><trkpt lat="35.3462226" lon="10.5453702"><ele>48.800000000000004</ele><time>2026-04-25T09:43:17.862Z</time></trkpt><trkpt lat="35.3461653" lon="10.5454853"><ele>48.6</ele><time>2026-04-25T09:43:18.853Z</time></trkpt><trkpt lat="35.3461077" lon="10.5455966"><ele>48.4</ele><time>2026-04-25T09:43:19.859Z</time></trkpt><trkpt lat="35.3460522" lon="10.5457108"><ele>48.2</ele><time>2026-04-25T09:43:20.857Z</time></trkpt><trkpt lat="35.3459985" lon="10.5458185"><ele>48.0</ele><time>2026-04-25T09:43:21.857Z</time></trkpt><trkpt lat="35.3459477" lon="10.5459206"><ele>48.0</ele><time>2026-04-25T09:43:22.86Z</time></trkpt><trkpt lat="35.3458966" lon="10.5460148"><ele>48.0</ele><time>2026-04-25T09:43:23.852Z</time></trkpt><trkpt lat="35.3458486" lon="10.5461048"><ele>48.0</ele><time>2026-04-25T09:43:24.852Z</time></trkpt><trkpt lat="35.3458012" lon="10.5461921"><ele>48.0</ele><time>2026-04-25T09:43:25.859Z</time></trkpt><trkpt lat="35.345759" lon="10.5462671"><ele>48.0</ele><time>2026-04-25T09:43:26.846Z</time></trkpt><trkpt lat="35.345722" lon="10.5463485"><ele>48.0</ele><time>2026-04-25T09:43:27.852Z</time></trkpt><trkpt lat="35.345682" lon="10.5464251"><ele>48.166666666666664</ele><time>2026-04-25T09:43:28.855Z</time></trkpt><trkpt lat="35.345644" lon="10.5465084"><ele>48.33333333333333</ele><time>2026-04-25T09:43:29.858Z</time></trkpt><trkpt lat="35.3456091" lon="10.5465857"><ele>48.5</ele><time>2026-04-25T09:43:30.855Z</time></trkpt><trkpt lat="35.3455724" lon="10.5466635"><ele>48.666666666666664</ele><time>2026-04-25T09:43:31.848Z</time></trkpt><trkpt lat="35.3455358" lon="10.5467417"><ele>48.83333333333333</ele><time>2026-04-25T09:43:32.851Z</time></trkpt><trkpt lat="35.3454974" lon="10.5468091"><ele>49.0</ele><time>2026-04-25T09:43:33.854Z</time></trkpt><trkpt lat="35.3454283" lon="10.5469337"><ele>49.2</ele><time>2026-04-25T09:43:35.855Z</time></trkpt><trkpt lat="35.3453727" lon="10.5470602"><ele>49.400000000000006</ele><time>2026-04-25T09:43:37.855Z</time></trkpt><trkpt lat="35.3453212" lon="10.5471897"><ele>49.6</ele><time>2026-04-25T09:43:39.848Z</time></trkpt><trkpt lat="35.3452694" lon="10.5473043"><ele>49.8</ele><time>2026-04-25T09:43:41.847Z</time></trkpt><trkpt lat="35.3452102" lon="10.5473923"><ele>50.0</ele><time>2026-04-25T09:43:43.857Z</time></trkpt><trkpt lat="35.3451569" lon="10.5475149"><ele>50.00000000000001</ele><time>2026-04-25T09:43:45.857Z</time></trkpt><trkpt lat="35.3451013" lon="10.5476206"><ele>50.0</ele><time>2026-04-25T09:43:47.853Z</time></trkpt><trkpt lat="35.3450687" lon="10.5476895"><ele>50.0</ele><time>2026-04-25T09:43:49.858Z</time></trkpt><trkpt lat="35.3450328" lon="10.5477682"><ele>50.0</ele><time>2026-04-25T09:43:52.86Z</time></trkpt><trkpt lat="35.3450019" lon="10.5478568"><ele>50.00000000000001</ele><time>2026-04-25T09:43:56.857Z</time></trkpt><trkpt lat="35.3449662" lon="10.5479336"><ele>50.0</ele><time>2026-04-25T09:43:58.857Z</time></trkpt><trkpt lat="35.3449121" lon="10.5480278"><ele>49.8</ele><time>2026-04-25T09:44:00.855Z</time></trkpt><trkpt lat="35.3448728" lon="10.5481037"><ele>49.6</ele><time>2026-04-25T09:44:02.852Z</time></trkpt><trkpt lat="35.3448193" lon="10.5481961"><ele>49.400000000000006</ele><time>2026-04-25T09:44:04.852Z</time></trkpt><trkpt lat="35.3447615" lon="10.5483115"><ele>49.2</ele><time>2026-04-25T09:44:06.854Z</time></trkpt><trkpt lat="35.3447085" lon="10.5484222"><ele>49.0</ele><time>2026-04-25T09:44:08.856Z</time></trkpt><trkpt lat="35.3446302" lon="10.5485315"><ele>49.25</ele><time>2026-04-25T09:44:10.856Z</time></trkpt><trkpt lat="35.3445448" lon="10.5486285"><ele>49.5</ele><time>2026-04-25T09:44:12.875Z</time></trkpt><trkpt lat="35.3444552" lon="10.5487263"><ele>49.75</ele><time>2026-04-25T09:44:14.853Z</time></trkpt><trkpt lat="35.3443721" lon="10.5488334"><ele>50.0</ele><time>2026-04-25T09:44:16.86Z</time></trkpt><trkpt lat="35.3443213" lon="10.5489635"><ele>50.0</ele><time>2026-04-25T09:44:18.86Z</time></trkpt><trkpt lat="35.3442951" lon="10.549098"><ele>50.0</ele><time>2026-04-25T09:44:20.848Z</time></trkpt><trkpt lat="35.3442661" lon="10.5491956"><ele>50.0</ele><time>2026-04-25T09:44:22.856Z</time></trkpt><trkpt lat="35.3442371" lon="10.549286"><ele>50.0</ele><time>2026-04-25T09:44:24.85Z</time></trkpt><trkpt lat="35.3442113" lon="10.549385"><ele>50.0</ele><time>2026-04-25T09:44:26.855Z</time></trkpt><trkpt lat="35.3441822" lon="10.5494951"><ele>49.75</ele><time>2026-04-25T09:44:28.852Z</time></trkpt><trkpt lat="35.344133" lon="10.5496133"><ele>49.5</ele><time>2026-04-25T09:44:30.854Z</time></trkpt><trkpt lat="35.3440835" lon="10.5497302"><ele>49.25</ele><time>2026-04-25T09:44:32.854Z</time></trkpt><trkpt lat="35.3440263" lon="10.5498574"><ele>49.0</ele><time>2026-04-25T09:44:34.863Z</time></trkpt><trkpt lat="35.3439597" lon="10.5499804"><ele>48.99999999999999</ele><time>2026-04-25T09:44:36.86Z</time></trkpt><trkpt lat="35.3438996" lon="10.5501085"><ele>49.0</ele><time>2026-04-25T09:44:38.864Z</time></trkpt><trkpt lat="35.3438662" lon="10.5501769"><ele>49.0</ele><time>2026-04-25T09:44:39.855Z</time></trkpt><trkpt lat="35.3438296" lon="10.5502408"><ele>49.0</ele><time>2026-04-25T09:44:40.853Z</time></trkpt><trkpt lat="35.3438006" lon="10.5503107"><ele>48.99999999999999</ele><time>2026-04-25T09:44:41.856Z</time></trkpt><trkpt lat="35.3437436" lon="10.5504426"><ele>49.0</ele><time>2026-04-25T09:44:43.86Z</time></trkpt><trkpt lat="35.3436846" lon="10.5505661"><ele>48.800000000000004</ele><time>2026-04-25T09:44:45.856Z</time></trkpt><trkpt lat="35.3436278" lon="10.5506994"><ele>48.6</ele><time>2026-04-25T09:44:47.851Z</time></trkpt><trkpt lat="35.343597" lon="10.550767"><ele>48.4</ele><time>2026-04-25T09:44:48.851Z</time></trkpt><trkpt lat="35.343533" lon="10.5508883"><ele>48.2</ele><time>2026-04-25T09:44:50.85Z</time></trkpt><trkpt lat="35.3434799" lon="10.5509997"><ele>48.0</ele><time>2026-04-25T09:44:52.854Z</time></trkpt><trkpt lat="35.3434171" lon="10.551114"><ele>47.833333333333336</ele><time>2026-04-25T09:44:54.851Z</time></trkpt><trkpt lat="35.3433629" lon="10.5512119"><ele>47.666666666666664</ele><time>2026-04-25T09:44:56.857Z</time></trkpt><trkpt lat="35.343321" lon="10.5512988"><ele>47.5</ele><time>2026-04-25T09:44:58.852Z</time></trkpt><trkpt lat="35.3432839" lon="10.5513874"><ele>47.33333333333333</ele><time>2026-04-25T09:45:00.854Z</time></trkpt><trkpt lat="35.3432381" lon="10.5514767"><ele>47.166666666666664</ele><time>2026-04-25T09:45:02.858Z</time></trkpt><trkpt lat="35.3431727" lon="10.5515721"><ele>47.0</ele><time>2026-04-25T09:45:04.853Z</time></trkpt><trkpt lat="35.3431139" lon="10.5516798"><ele>47.0</ele><time>2026-04-25T09:45:06.854Z</time></trkpt><trkpt lat="35.3430716" lon="10.5517977"><ele>47.0</ele><time>2026-04-25T09:45:08.859Z</time></trkpt><trkpt lat="35.3430228" lon="10.5519088"><ele>47.0</ele><time>2026-04-25T09:45:10.86Z</time></trkpt><trkpt lat="35.3429874" lon="10.5520133"><ele>47.0</ele><time>2026-04-25T09:45:12.855Z</time></trkpt><trkpt lat="35.3429391" lon="10.5521209"><ele>47.0</ele><time>2026-04-25T09:45:14.87Z</time></trkpt><trkpt lat="35.3428652" lon="10.5522383"><ele>47.166666666666664</ele><time>2026-04-25T09:45:16.85Z</time></trkpt><trkpt lat="35.3427967" lon="10.5523589"><ele>47.33333333333333</ele><time>2026-04-25T09:45:18.851Z</time></trkpt><trkpt lat="35.342761" lon="10.5524242"><ele>47.5</ele><time>2026-04-25T09:45:19.858Z</time></trkpt><trkpt lat="35.3427278" lon="10.5524906"><ele>47.666666666666664</ele><time>2026-04-25T09:45:20.849Z</time></trkpt><trkpt lat="35.3426897" lon="10.552562"><ele>47.833333333333336</ele><time>2026-04-25T09:45:21.852Z</time></trkpt><trkpt lat="35.342654" lon="10.5526313"><ele>48.0</ele><time>2026-04-25T09:45:22.851Z</time></trkpt><trkpt lat="35.3426158" lon="10.5526974"><ele>48.0</ele><time>2026-04-25T09:45:23.85Z</time></trkpt><trkpt lat="35.3425707" lon="10.5527695"><ele>48.0</ele><time>2026-04-25T09:45:24.846Z</time></trkpt><trkpt lat="35.3425305" lon="10.5528413"><ele>48.0</ele><time>2026-04-25T09:45:25.845Z</time></trkpt><trkpt lat="35.3424916" lon="10.5529234"><ele>48.0</ele><time>2026-04-25T09:45:26.865Z</time></trkpt><trkpt lat="35.3424522" lon="10.5530078"><ele>48.0</ele><time>2026-04-25T09:45:27.855Z</time></trkpt><trkpt lat="35.342407" lon="10.5530885"><ele>48.0</ele><time>2026-04-25T09:45:28.852Z</time></trkpt><trkpt lat="35.3423625" lon="10.5531688"><ele>47.8</ele><time>2026-04-25T09:45:29.854Z</time></trkpt><trkpt lat="35.3423169" lon="10.5532502"><ele>47.599999999999994</ele><time>2026-04-25T09:45:30.861Z</time></trkpt><trkpt lat="35.3422728" lon="10.5533333"><ele>47.400000000000006</ele><time>2026-04-25T09:45:31.854Z</time></trkpt><trkpt lat="35.3422294" lon="10.5534091"><ele>47.2</ele><time>2026-04-25T09:45:32.859Z</time></trkpt><trkpt lat="35.3421341" lon="10.553571"><ele>47.0</ele><time>2026-04-25T09:45:34.86Z</time></trkpt><trkpt lat="35.3420841" lon="10.5536541"><ele>47.666666666666664</ele><time>2026-04-25T09:45:35.883Z</time></trkpt><trkpt lat="35.3420407" lon="10.5537354"><ele>48.33333333333333</ele><time>2026-04-25T09:45:36.857Z</time></trkpt><trkpt lat="35.3419915" lon="10.5538186"><ele>49.0</ele><time>2026-04-25T09:45:37.859Z</time></trkpt><trkpt lat="35.3419465" lon="10.553894"><ele>49.666666666666664</ele><time>2026-04-25T09:45:38.862Z</time></trkpt><trkpt lat="35.3419056" lon="10.5539648"><ele>50.333333333333336</ele><time>2026-04-25T09:45:39.851Z</time></trkpt><trkpt lat="35.3418636" lon="10.5540311"><ele>51.0</ele><time>2026-04-25T09:45:40.851Z</time></trkpt><trkpt lat="35.3417955" lon="10.5541515"><ele>51.0</ele><time>2026-04-25T09:45:42.865Z</time></trkpt><trkpt lat="35.3417559" lon="10.5542197"><ele>51.0</ele><time>2026-04-25T09:45:43.853Z</time></trkpt><trkpt lat="35.3417128" lon="10.5543012"><ele>51.0</ele><time>2026-04-25T09:45:44.857Z</time></trkpt><trkpt lat="35.3416632" lon="10.554382"><ele>51.0</ele><time>2026-04-25T09:45:45.852Z</time></trkpt><trkpt lat="35.3416206" lon="10.5544646"><ele>51.0</ele><time>2026-04-25T09:45:46.854Z</time></trkpt><trkpt lat="35.3415743" lon="10.5545509"><ele>51.0</ele><time>2026-04-25T09:45:47.865Z</time></trkpt><trkpt lat="35.3415279" lon="10.5546307"><ele>51.0</ele><time>2026-04-25T09:45:48.852Z</time></trkpt><trkpt lat="35.3414867" lon="10.5547166"><ele>51.0</ele><time>2026-04-25T09:45:49.854Z</time></trkpt><trkpt lat="35.3414567" lon="10.5547858"><ele>51.0</ele><time>2026-04-25T09:45:50.859Z</time></trkpt><trkpt lat="35.3414018" lon="10.554862"><ele>51.0</ele><time>2026-04-25T09:45:51.856Z</time></trkpt><trkpt lat="35.3413464" lon="10.5549215"><ele>51.0</ele><time>2026-04-25T09:45:52.861Z</time></trkpt><trkpt lat="35.3413026" lon="10.5550021"><ele>51.0</ele><time>2026-04-25T09:45:53.854Z</time></trkpt><trkpt lat="35.3412557" lon="10.5550886"><ele>50.8</ele><time>2026-04-25T09:45:54.852Z</time></trkpt><trkpt lat="35.3412047" lon="10.555178"><ele>50.599999999999994</ele><time>2026-04-25T09:45:55.848Z</time></trkpt><trkpt lat="35.341151" lon="10.5552663"><ele>50.4</ele><time>2026-04-25T09:45:56.867Z</time></trkpt><trkpt lat="35.3410995" lon="10.5553639"><ele>50.2</ele><time>2026-04-25T09:45:57.861Z</time></trkpt><trkpt lat="35.3410492" lon="10.5554631"><ele>50.0</ele><time>2026-04-25T09:45:58.852Z</time></trkpt><trkpt lat="35.3410039" lon="10.5555574"><ele>50.4</ele><time>2026-04-25T09:45:59.854Z</time></trkpt><trkpt lat="35.3409638" lon="10.5556494"><ele>50.8</ele><time>2026-04-25T09:46:00.855Z</time></trkpt><trkpt lat="35.3409195" lon="10.5557428"><ele>51.2</ele><time>2026-04-25T09:46:01.845Z</time></trkpt><trkpt lat="35.3408781" lon="10.5558439"><ele>51.6</ele><time>2026-04-25T09:46:02.856Z</time></trkpt><trkpt lat="35.3408298" lon="10.5559568"><ele>52.0</ele><time>2026-04-25T09:46:03.863Z</time></trkpt><trkpt lat="35.3407807" lon="10.5560697"><ele>52.0</ele><time>2026-04-25T09:46:04.853Z</time></trkpt><trkpt lat="35.340735" lon="10.5561957"><ele>52.0</ele><time>2026-04-25T09:46:05.852Z</time></trkpt><trkpt lat="35.3406927" lon="10.5563189"><ele>52.0</ele><time>2026-04-25T09:46:06.85Z</time></trkpt><trkpt lat="35.3406504" lon="10.5564498"><ele>52.0</ele><time>2026-04-25T09:46:07.852Z</time></trkpt><trkpt lat="35.3406126" lon="10.5565869"><ele>52.0</ele><time>2026-04-25T09:46:08.856Z</time></trkpt><trkpt lat="35.3405723" lon="10.556727"><ele>52.0</ele><time>2026-04-25T09:46:09.853Z</time></trkpt><trkpt lat="35.3405315" lon="10.5568683"><ele>52.0</ele><time>2026-04-25T09:46:10.856Z</time></trkpt><trkpt lat="35.3404932" lon="10.557015"><ele>52.0</ele><time>2026-04-25T09:46:11.85Z</time></trkpt><trkpt lat="35.3404508" lon="10.557162"><ele>52.0</ele><time>2026-04-25T09:46:12.858Z</time></trkpt><trkpt lat="35.3404075" lon="10.557312"><ele>52.0</ele><time>2026-04-25T09:46:13.858Z</time></trkpt><trkpt lat="35.3403643" lon="10.5574695"><ele>52.0</ele><time>2026-04-25T09:46:14.858Z</time></trkpt><trkpt lat="35.3403237" lon="10.5576359"><ele>52.0</ele><time>2026-04-25T09:46:15.851Z</time></trkpt><trkpt lat="35.3402795" lon="10.5578032"><ele>51.666666666666664</ele><time>2026-04-25T09:46:16.857Z</time></trkpt><trkpt lat="35.3402334" lon="10.5579747"><ele>51.33333333333333</ele><time>2026-04-25T09:46:17.862Z</time></trkpt><trkpt lat="35.3401871" lon="10.5581499"><ele>51.0</ele><time>2026-04-25T09:46:18.877Z</time></trkpt><trkpt lat="35.3401401" lon="10.5583307"><ele>51.0</ele><time>2026-04-25T09:46:19.854Z</time></trkpt><trkpt lat="35.3400926" lon="10.5585093"><ele>51.0</ele><time>2026-04-25T09:46:20.845Z</time></trkpt><trkpt lat="35.3400433" lon="10.5586885"><ele>51.0</ele><time>2026-04-25T09:46:21.848Z</time></trkpt><trkpt lat="35.339996" lon="10.5588691"><ele>51.66666666666667</ele><time>2026-04-25T09:46:22.851Z</time></trkpt><trkpt lat="35.3399479" lon="10.5590493"><ele>52.333333333333336</ele><time>2026-04-25T09:46:23.856Z</time></trkpt><trkpt lat="35.3398977" lon="10.5592267"><ele>53.0</ele><time>2026-04-25T09:46:24.852Z</time></trkpt><trkpt lat="35.3398501" lon="10.5594007"><ele>53.333333333333336</ele><time>2026-04-25T09:46:25.854Z</time></trkpt><trkpt lat="35.3398026" lon="10.5595824"><ele>53.66666666666667</ele><time>2026-04-25T09:46:26.855Z</time></trkpt><trkpt lat="35.3397545" lon="10.5597559"><ele>54.0</ele><time>2026-04-25T09:46:27.86Z</time></trkpt><trkpt lat="35.3397051" lon="10.5599255"><ele>53.5</ele><time>2026-04-25T09:46:28.857Z</time></trkpt><trkpt lat="35.3396577" lon="10.5600974"><ele>53.0</ele><time>2026-04-25T09:46:29.855Z</time></trkpt><trkpt lat="35.3396097" lon="10.5602637"><ele>52.5</ele><time>2026-04-25T09:46:30.855Z</time></trkpt><trkpt lat="35.3395609" lon="10.5604243"><ele>52.0</ele><time>2026-04-25T09:46:31.863Z</time></trkpt><trkpt lat="35.3395171" lon="10.5605896"><ele>52.0</ele><time>2026-04-25T09:46:32.855Z</time></trkpt><trkpt lat="35.3394742" lon="10.5607501"><ele>52.0</ele><time>2026-04-25T09:46:33.867Z</time></trkpt><trkpt lat="35.3394318" lon="10.5609069"><ele>52.0</ele><time>2026-04-25T09:46:34.859Z</time></trkpt><trkpt lat="35.33939" lon="10.5610643"><ele>52.0</ele><time>2026-04-25T09:46:35.854Z</time></trkpt><trkpt lat="35.3393511" lon="10.5612137"><ele>52.25</ele><time>2026-04-25T09:46:36.85Z</time></trkpt><trkpt lat="35.339315" lon="10.5613554"><ele>52.5</ele><time>2026-04-25T09:46:37.852Z</time></trkpt><trkpt lat="35.3392785" lon="10.5615008"><ele>52.75</ele><time>2026-04-25T09:46:38.846Z</time></trkpt><trkpt lat="35.3392412" lon="10.5616453"><ele>53.0</ele><time>2026-04-25T09:46:39.876Z</time></trkpt><trkpt lat="35.3391966" lon="10.5617882"><ele>53.0</ele><time>2026-04-25T09:46:40.871Z</time></trkpt><trkpt lat="35.339152" lon="10.5619385"><ele>53.0</ele><time>2026-04-25T09:46:41.854Z</time></trkpt><trkpt lat="35.3391077" lon="10.5621008"><ele>53.0</ele><time>2026-04-25T09:46:42.855Z</time></trkpt><trkpt lat="35.3390659" lon="10.5622741"><ele>53.0</ele><time>2026-04-25T09:46:43.851Z</time></trkpt><trkpt lat="35.3390195" lon="10.5624576"><ele>53.66666666666667</ele><time>2026-04-25T09:46:44.846Z</time></trkpt><trkpt lat="35.3389678" lon="10.5626539"><ele>54.33333333333333</ele><time>2026-04-25T09:46:45.856Z</time></trkpt><trkpt lat="35.3389121" lon="10.5628673"><ele>55.0</ele><time>2026-04-25T09:46:46.848Z</time></trkpt><trkpt lat="35.3388554" lon="10.5630883"><ele>55.0</ele><time>2026-04-25T09:46:47.847Z</time></trkpt><trkpt lat="35.3387953" lon="10.5633305"><ele>55.0</ele><time>2026-04-25T09:46:48.855Z</time></trkpt><trkpt lat="35.3387345" lon="10.5635883"><ele>55.0</ele><time>2026-04-25T09:46:49.852Z</time></trkpt><trkpt lat="35.3386686" lon="10.5638431"><ele>54.33333333333333</ele><time>2026-04-25T09:46:50.853Z</time></trkpt><trkpt lat="35.3385991" lon="10.5640889"><ele>53.66666666666667</ele><time>2026-04-25T09:46:51.861Z</time></trkpt><trkpt lat="35.3385285" lon="10.5643219"><ele>53.0</ele><time>2026-04-25T09:46:52.865Z</time></trkpt><trkpt lat="35.3384649" lon="10.5645411"><ele>52.333333333333336</ele><time>2026-04-25T09:46:53.859Z</time></trkpt><trkpt lat="35.3384059" lon="10.5647577"><ele>51.66666666666667</ele><time>2026-04-25T09:46:54.846Z</time></trkpt><trkpt lat="35.338344" lon="10.5649671"><ele>51.0</ele><time>2026-04-25T09:46:55.852Z</time></trkpt><trkpt lat="35.3382935" lon="10.5651636"><ele>51.33333333333333</ele><time>2026-04-25T09:46:56.85Z</time></trkpt><trkpt lat="35.3382455" lon="10.5653636"><ele>51.666666666666664</ele><time>2026-04-25T09:46:57.856Z</time></trkpt><trkpt lat="35.338195" lon="10.5655545"><ele>52.0</ele><time>2026-04-25T09:46:58.862Z</time></trkpt><trkpt lat="35.3381463" lon="10.5657377"><ele>52.0</ele><time>2026-04-25T09:46:59.85Z</time></trkpt><trkpt lat="35.3380938" lon="10.5659175"><ele>52.0</ele><time>2026-04-25T09:47:00.854Z</time></trkpt><trkpt lat="35.3380519" lon="10.5661014"><ele>52.0</ele><time>2026-04-25T09:47:01.885Z</time></trkpt><trkpt lat="35.3380049" lon="10.5662845"><ele>51.666666666666664</ele><time>2026-04-25T09:47:02.857Z</time></trkpt><trkpt lat="35.3379622" lon="10.5664695"><ele>51.33333333333333</ele><time>2026-04-25T09:47:03.858Z</time></trkpt><trkpt lat="35.3379113" lon="10.5666417"><ele>51.0</ele><time>2026-04-25T09:47:04.853Z</time></trkpt><trkpt lat="35.3378626" lon="10.5668215"><ele>51.0</ele><time>2026-04-25T09:47:05.848Z</time></trkpt><trkpt lat="35.3378132" lon="10.567002"><ele>51.0</ele><time>2026-04-25T09:47:06.856Z</time></trkpt><trkpt lat="35.3377671" lon="10.5671773"><ele>51.0</ele><time>2026-04-25T09:47:07.853Z</time></trkpt><trkpt lat="35.3377184" lon="10.567355"><ele>51.0</ele><time>2026-04-25T09:47:08.854Z</time></trkpt><trkpt lat="35.3376697" lon="10.5675285"><ele>51.0</ele><time>2026-04-25T09:47:09.856Z</time></trkpt><trkpt lat="35.3376269" lon="10.5676986"><ele>51.0</ele><time>2026-04-25T09:47:10.856Z</time></trkpt><trkpt lat="35.3375818" lon="10.5678691"><ele>51.0</ele><time>2026-04-25T09:47:11.856Z</time></trkpt><trkpt lat="35.3375348" lon="10.5680453"><ele>51.0</ele><time>2026-04-25T09:47:12.854Z</time></trkpt><trkpt lat="35.3374861" lon="10.5682189"><ele>51.0</ele><time>2026-04-25T09:47:13.855Z</time></trkpt><trkpt lat="35.337442" lon="10.5683965"><ele>51.0</ele><time>2026-04-25T09:47:14.855Z</time></trkpt><trkpt lat="35.3373921" lon="10.5685699"><ele>51.33333333333333</ele><time>2026-04-25T09:47:15.855Z</time></trkpt><trkpt lat="35.3373491" lon="10.5687483"><ele>51.666666666666664</ele><time>2026-04-25T09:47:16.857Z</time></trkpt><trkpt lat="35.3373033" lon="10.5689265"><ele>52.0</ele><time>2026-04-25T09:47:17.85Z</time></trkpt><trkpt lat="35.3372554" lon="10.5691099"><ele>51.666666666666664</ele><time>2026-04-25T09:47:18.865Z</time></trkpt><trkpt lat="35.3372042" lon="10.5692919"><ele>51.33333333333333</ele><time>2026-04-25T09:47:19.859Z</time></trkpt><trkpt lat="35.3371538" lon="10.5694739"><ele>51.0</ele><time>2026-04-25T09:47:20.849Z</time></trkpt><trkpt lat="35.3371093" lon="10.5696531"><ele>52.0</ele><time>2026-04-25T09:47:21.85Z</time></trkpt><trkpt lat="35.3370611" lon="10.569839"><ele>53.0</ele><time>2026-04-25T09:47:22.871Z</time></trkpt><trkpt lat="35.3370092" lon="10.5700218"><ele>54.0</ele><time>2026-04-25T09:47:23.887Z</time></trkpt><trkpt lat="35.3369589" lon="10.570202"><ele>54.66666666666667</ele><time>2026-04-25T09:47:24.851Z</time></trkpt><trkpt lat="35.3369077" lon="10.5703908"><ele>55.333333333333336</ele><time>2026-04-25T09:47:25.856Z</time></trkpt><trkpt lat="35.3368586" lon="10.5705802"><ele>56.0</ele><time>2026-04-25T09:47:26.856Z</time></trkpt><trkpt lat="35.3368055" lon="10.5707715"><ele>56.0</ele><time>2026-04-25T09:47:27.85Z</time></trkpt><trkpt lat="35.3367549" lon="10.5709612"><ele>56.0</ele><time>2026-04-25T09:47:28.86Z</time></trkpt><trkpt lat="35.3366976" lon="10.5711525"><ele>56.0</ele><time>2026-04-25T09:47:29.851Z</time></trkpt><trkpt lat="35.3366426" lon="10.571342"><ele>55.66666666666667</ele><time>2026-04-25T09:47:30.854Z</time></trkpt><trkpt lat="35.3365858" lon="10.5715322"><ele>55.33333333333333</ele><time>2026-04-25T09:47:31.856Z</time></trkpt><trkpt lat="35.3365325" lon="10.5717294"><ele>55.0</ele><time>2026-04-25T09:47:32.856Z</time></trkpt><trkpt lat="35.3364821" lon="10.5719304"><ele>55.33333333333333</ele><time>2026-04-25T09:47:33.854Z</time></trkpt><trkpt lat="35.3364324" lon="10.5721279"><ele>55.66666666666667</ele><time>2026-04-25T09:47:34.851Z</time></trkpt><trkpt lat="35.3363815" lon="10.5723214"><ele>56.0</ele><time>2026-04-25T09:47:35.848Z</time></trkpt><trkpt lat="35.3363331" lon="10.5725186"><ele>55.333333333333336</ele><time>2026-04-25T09:47:36.858Z</time></trkpt><trkpt lat="35.3362817" lon="10.572713"><ele>54.66666666666667</ele><time>2026-04-25T09:47:37.861Z</time></trkpt><trkpt lat="35.3362293" lon="10.5729066"><ele>54.0</ele><time>2026-04-25T09:47:38.857Z</time></trkpt><trkpt lat="35.3361836" lon="10.5730891"><ele>53.75</ele><time>2026-04-25T09:47:39.859Z</time></trkpt><trkpt lat="35.3361402" lon="10.5732642"><ele>53.5</ele><time>2026-04-25T09:47:40.852Z</time></trkpt><trkpt lat="35.3360891" lon="10.57343"><ele>53.25</ele><time>2026-04-25T09:47:41.852Z</time></trkpt><trkpt lat="35.3360403" lon="10.5735895"><ele>53.0</ele><time>2026-04-25T09:47:42.847Z</time></trkpt><trkpt lat="35.3359893" lon="10.5737554"><ele>54.333333333333336</ele><time>2026-04-25T09:47:43.854Z</time></trkpt><trkpt lat="35.3359388" lon="10.5739288"><ele>55.66666666666667</ele><time>2026-04-25T09:47:44.849Z</time></trkpt><trkpt lat="35.3358896" lon="10.5741082"><ele>57.0</ele><time>2026-04-25T09:47:45.856Z</time></trkpt><trkpt lat="35.3358455" lon="10.5742883"><ele>57.0</ele><time>2026-04-25T09:47:46.854Z</time></trkpt><trkpt lat="35.3358041" lon="10.5744651"><ele>57.0</ele><time>2026-04-25T09:47:47.847Z</time></trkpt><trkpt lat="35.3357598" lon="10.5746394"><ele>57.0</ele><time>2026-04-25T09:47:48.855Z</time></trkpt><trkpt lat="35.335717" lon="10.5748083"><ele>57.0</ele><time>2026-04-25T09:47:49.854Z</time></trkpt><trkpt lat="35.3356699" lon="10.5749804"><ele>57.25</ele><time>2026-04-25T09:47:50.858Z</time></trkpt><trkpt lat="35.3356281" lon="10.5751462"><ele>57.5</ele><time>2026-04-25T09:47:51.858Z</time></trkpt><trkpt lat="35.3355822" lon="10.5753135"><ele>57.75</ele><time>2026-04-25T09:47:52.845Z</time></trkpt><trkpt lat="35.335541" lon="10.5754752"><ele>58.0</ele><time>2026-04-25T09:47:53.846Z</time></trkpt><trkpt lat="35.335502" lon="10.5756224"><ele>57.599999999999994</ele><time>2026-04-25T09:47:54.856Z</time></trkpt><trkpt lat="35.3354633" lon="10.5757552"><ele>57.199999999999996</ele><time>2026-04-25T09:47:55.85Z</time></trkpt><trkpt lat="35.3354278" lon="10.5758815"><ele>56.8</ele><time>2026-04-25T09:47:56.851Z</time></trkpt><trkpt lat="35.3353908" lon="10.5760061"><ele>56.4</ele><time>2026-04-25T09:47:57.86Z</time></trkpt><trkpt lat="35.3353569" lon="10.5761392"><ele>56.0</ele><time>2026-04-25T09:47:58.861Z</time></trkpt><trkpt lat="35.3353216" lon="10.5762724"><ele>56.0</ele><time>2026-04-25T09:47:59.858Z</time></trkpt><trkpt lat="35.3352846" lon="10.5764172"><ele>56.0</ele><time>2026-04-25T09:48:00.859Z</time></trkpt><trkpt lat="35.3352463" lon="10.5765622"><ele>56.0</ele><time>2026-04-25T09:48:01.859Z</time></trkpt><trkpt lat="35.3352061" lon="10.5767083"><ele>56.0</ele><time>2026-04-25T09:48:02.849Z</time></trkpt><trkpt lat="35.3351628" lon="10.5768574"><ele>56.0</ele><time>2026-04-25T09:48:03.855Z</time></trkpt><trkpt lat="35.3351191" lon="10.5770074"><ele>56.0</ele><time>2026-04-25T09:48:04.856Z</time></trkpt><trkpt lat="35.3350738" lon="10.5771602"><ele>56.0</ele><time>2026-04-25T09:48:05.852Z</time></trkpt><trkpt lat="35.3350353" lon="10.5773172"><ele>56.0</ele><time>2026-04-25T09:48:06.856Z</time></trkpt><trkpt lat="35.3349975" lon="10.5774747"><ele>56.0</ele><time>2026-04-25T09:48:07.849Z</time></trkpt><trkpt lat="35.3349575" lon="10.5776327"><ele>56.0</ele><time>2026-04-25T09:48:08.855Z</time></trkpt><trkpt lat="35.3349157" lon="10.5777826"><ele>56.0</ele><time>2026-04-25T09:48:09.856Z</time></trkpt><trkpt lat="35.3348709" lon="10.5779345"><ele>56.0</ele><time>2026-04-25T09:48:10.866Z</time></trkpt><trkpt lat="35.3348274" lon="10.5780908"><ele>56.0</ele><time>2026-04-25T09:48:11.852Z</time></trkpt><trkpt lat="35.3347827" lon="10.5782558"><ele>56.0</ele><time>2026-04-25T09:48:12.856Z</time></trkpt><trkpt lat="35.3347389" lon="10.5784201"><ele>56.0</ele><time>2026-04-25T09:48:13.858Z</time></trkpt><trkpt lat="35.3346998" lon="10.578588"><ele>56.0</ele><time>2026-04-25T09:48:14.851Z</time></trkpt><trkpt lat="35.3346572" lon="10.5787551"><ele>56.0</ele><time>2026-04-25T09:48:15.853Z</time></trkpt><trkpt lat="35.3346119" lon="10.578928"><ele>56.0</ele><time>2026-04-25T09:48:16.856Z</time></trkpt><trkpt lat="35.3345653" lon="10.5791056"><ele>56.0</ele><time>2026-04-25T09:48:17.853Z</time></trkpt><trkpt lat="35.3345193" lon="10.5792908"><ele>56.0</ele><time>2026-04-25T09:48:18.852Z</time></trkpt><trkpt lat="35.3344646" lon="10.5794764"><ele>56.0</ele><time>2026-04-25T09:48:19.856Z</time></trkpt><trkpt lat="35.3344165" lon="10.5796682"><ele>56.0</ele><time>2026-04-25T09:48:20.857Z</time></trkpt><trkpt lat="35.3343648" lon="10.5798655"><ele>56.66666666666667</ele><time>2026-04-25T09:48:21.861Z</time></trkpt><trkpt lat="35.3343063" lon="10.5800638"><ele>57.33333333333333</ele><time>2026-04-25T09:48:22.841Z</time></trkpt><trkpt lat="35.3342501" lon="10.5802593"><ele>58.0</ele><time>2026-04-25T09:48:23.85Z</time></trkpt><trkpt lat="35.3341938" lon="10.5804468"><ele>58.0</ele><time>2026-04-25T09:48:24.85Z</time></trkpt><trkpt lat="35.334146" lon="10.5806438"><ele>58.0</ele><time>2026-04-25T09:48:25.853Z</time></trkpt><trkpt lat="35.3340904" lon="10.5808344"><ele>58.0</ele><time>2026-04-25T09:48:26.849Z</time></trkpt><trkpt lat="35.3340387" lon="10.5810294"><ele>57.33333333333333</ele><time>2026-04-25T09:48:27.857Z</time></trkpt><trkpt lat="35.3339846" lon="10.5812231"><ele>56.66666666666667</ele><time>2026-04-25T09:48:28.847Z</time></trkpt><trkpt lat="35.3339337" lon="10.5814185"><ele>56.0</ele><time>2026-04-25T09:48:29.861Z</time></trkpt><trkpt lat="35.3338796" lon="10.5816189"><ele>56.0</ele><time>2026-04-25T09:48:30.857Z</time></trkpt><trkpt lat="35.3338239" lon="10.5818201"><ele>56.0</ele><time>2026-04-25T09:48:31.849Z</time></trkpt><trkpt lat="35.3337692" lon="10.5820203"><ele>56.0</ele><time>2026-04-25T09:48:32.853Z</time></trkpt><trkpt lat="35.3337155" lon="10.5822229"><ele>57.66666666666667</ele><time>2026-04-25T09:48:33.855Z</time></trkpt><trkpt lat="35.3336551" lon="10.5824274"><ele>59.33333333333333</ele><time>2026-04-25T09:48:34.86Z</time></trkpt><trkpt lat="35.3335987" lon="10.5826333"><ele>61.0</ele><time>2026-04-25T09:48:35.854Z</time></trkpt><trkpt lat="35.33354" lon="10.5828422"><ele>61.666666666666664</ele><time>2026-04-25T09:48:36.852Z</time></trkpt><trkpt lat="35.3334858" lon="10.583054"><ele>62.33333333333333</ele><time>2026-04-25T09:48:37.863Z</time></trkpt><trkpt lat="35.333431" lon="10.5832658"><ele>63.0</ele><time>2026-04-25T09:48:38.853Z</time></trkpt><trkpt lat="35.3333751" lon="10.5834815"><ele>62.66666666666667</ele><time>2026-04-25T09:48:39.854Z</time></trkpt><trkpt lat="35.3333171" lon="10.5837071"><ele>62.333333333333336</ele><time>2026-04-25T09:48:40.857Z</time></trkpt><trkpt lat="35.3332564" lon="10.5839364"><ele>62.0</ele><time>2026-04-25T09:48:41.864Z</time></trkpt><trkpt lat="35.3331921" lon="10.5841678"><ele>62.0</ele><time>2026-04-25T09:48:42.858Z</time></trkpt><trkpt lat="35.3331306" lon="10.5843956"><ele>62.0</ele><time>2026-04-25T09:48:43.857Z</time></trkpt><trkpt lat="35.3330666" lon="10.5846232"><ele>62.0</ele><time>2026-04-25T09:48:44.854Z</time></trkpt><trkpt lat="35.3330033" lon="10.5848522"><ele>62.0</ele><time>2026-04-25T09:48:45.849Z</time></trkpt><trkpt lat="35.3329433" lon="10.5850733"><ele>62.0</ele><time>2026-04-25T09:48:46.856Z</time></trkpt><trkpt lat="35.3328821" lon="10.5853023"><ele>62.0</ele><time>2026-04-25T09:48:47.851Z</time></trkpt><trkpt lat="35.3328237" lon="10.585528"><ele>62.0</ele><time>2026-04-25T09:48:48.858Z</time></trkpt><trkpt lat="35.3327586" lon="10.5857511"><ele>62.0</ele><time>2026-04-25T09:48:49.857Z</time></trkpt><trkpt lat="35.332698" lon="10.5859744"><ele>62.0</ele><time>2026-04-25T09:48:50.859Z</time></trkpt><trkpt lat="35.3326415" lon="10.5861945"><ele>63.0</ele><time>2026-04-25T09:48:51.864Z</time></trkpt><trkpt lat="35.3325842" lon="10.5864144"><ele>64.0</ele><time>2026-04-25T09:48:52.856Z</time></trkpt><trkpt lat="35.3325257" lon="10.5866289"><ele>65.0</ele><time>2026-04-25T09:48:53.85Z</time></trkpt><trkpt lat="35.3324699" lon="10.5868479"><ele>64.33333333333334</ele><time>2026-04-25T09:48:54.855Z</time></trkpt><trkpt lat="35.3324116" lon="10.5870642"><ele>63.66666666666667</ele><time>2026-04-25T09:48:55.858Z</time></trkpt><trkpt lat="35.332352" lon="10.5872792"><ele>63.0</ele><time>2026-04-25T09:48:56.847Z</time></trkpt><trkpt lat="35.3322953" lon="10.5874964"><ele>63.0</ele><time>2026-04-25T09:48:57.853Z</time></trkpt><trkpt lat="35.3322354" lon="10.5877163"><ele>63.0</ele><time>2026-04-25T09:48:58.855Z</time></trkpt><trkpt lat="35.3321747" lon="10.5879323"><ele>63.0</ele><time>2026-04-25T09:48:59.851Z</time></trkpt><trkpt lat="35.3321128" lon="10.5881509"><ele>62.66666666666667</ele><time>2026-04-25T09:49:00.873Z</time></trkpt><trkpt lat="35.33205" lon="10.58837"><ele>62.333333333333336</ele><time>2026-04-25T09:49:01.858Z</time></trkpt><trkpt lat="35.3319866" lon="10.5886061"><ele>62.0</ele><time>2026-04-25T09:49:02.856Z</time></trkpt><trkpt lat="35.3319216" lon="10.5888418"><ele>62.0</ele><time>2026-04-25T09:49:03.855Z</time></trkpt><trkpt lat="35.331857" lon="10.5890846"><ele>62.0</ele><time>2026-04-25T09:49:04.859Z</time></trkpt><trkpt lat="35.3317937" lon="10.5893293"><ele>62.0</ele><time>2026-04-25T09:49:05.862Z</time></trkpt><trkpt lat="35.3317315" lon="10.5895692"><ele>62.0</ele><time>2026-04-25T09:49:06.858Z</time></trkpt><trkpt lat="35.3316705" lon="10.5898054"><ele>62.0</ele><time>2026-04-25T09:49:07.855Z</time></trkpt><trkpt lat="35.3316066" lon="10.5900373"><ele>62.0</ele><time>2026-04-25T09:49:08.851Z</time></trkpt><trkpt lat="35.3315434" lon="10.5902738"><ele>62.333333333333336</ele><time>2026-04-25T09:49:09.847Z</time></trkpt><trkpt lat="35.3314826" lon="10.5905114"><ele>62.66666666666667</ele><time>2026-04-25T09:49:10.852Z</time></trkpt><trkpt lat="35.3314226" lon="10.5907454"><ele>63.0</ele><time>2026-04-25T09:49:11.859Z</time></trkpt><trkpt lat="35.3313599" lon="10.5909703"><ele>63.33333333333333</ele><time>2026-04-25T09:49:12.861Z</time></trkpt><trkpt lat="35.3313018" lon="10.5911977"><ele>63.666666666666664</ele><time>2026-04-25T09:49:13.848Z</time></trkpt><trkpt lat="35.3312409" lon="10.5914174"><ele>64.0</ele><time>2026-04-25T09:49:14.85Z</time></trkpt><trkpt lat="35.3311817" lon="10.5916428"><ele>64.0</ele><time>2026-04-25T09:49:15.857Z</time></trkpt><trkpt lat="35.3311234" lon="10.5918682"><ele>64.0</ele><time>2026-04-25T09:49:16.852Z</time></trkpt><trkpt lat="35.3310659" lon="10.5920948"><ele>64.0</ele><time>2026-04-25T09:49:17.856Z</time></trkpt><trkpt lat="35.3310046" lon="10.5923157"><ele>64.33333333333333</ele><time>2026-04-25T09:49:18.849Z</time></trkpt><trkpt lat="35.3309463" lon="10.5925389"><ele>64.66666666666667</ele><time>2026-04-25T09:49:19.852Z</time></trkpt><trkpt lat="35.3308833" lon="10.5927555"><ele>65.0</ele><time>2026-04-25T09:49:20.861Z</time></trkpt><trkpt lat="35.3308199" lon="10.5929741"><ele>65.0</ele><time>2026-04-25T09:49:21.861Z</time></trkpt><trkpt lat="35.3307605" lon="10.593194"><ele>65.0</ele><time>2026-04-25T09:49:22.849Z</time></trkpt><trkpt lat="35.3307044" lon="10.5934096"><ele>65.0</ele><time>2026-04-25T09:49:23.857Z</time></trkpt><trkpt lat="35.3306443" lon="10.5936254"><ele>64.66666666666667</ele><time>2026-04-25T09:49:24.852Z</time></trkpt><trkpt lat="35.3305852" lon="10.5938413"><ele>64.33333333333333</ele><time>2026-04-25T09:49:25.858Z</time></trkpt><trkpt lat="35.3305254" lon="10.5940557"><ele>64.0</ele><time>2026-04-25T09:49:26.853Z</time></trkpt><trkpt lat="35.3304642" lon="10.5942741"><ele>63.666666666666664</ele><time>2026-04-25T09:49:27.855Z</time></trkpt><trkpt lat="35.3304059" lon="10.5944892"><ele>63.33333333333333</ele><time>2026-04-25T09:49:28.863Z</time></trkpt><trkpt lat="35.3303515" lon="10.5947008"><ele>63.0</ele><time>2026-04-25T09:49:29.86Z</time></trkpt><trkpt lat="35.3302963" lon="10.5949137"><ele>63.66666666666667</ele><time>2026-04-25T09:49:30.854Z</time></trkpt><trkpt lat="35.3302384" lon="10.595124"><ele>64.33333333333334</ele><time>2026-04-25T09:49:31.851Z</time></trkpt><trkpt lat="35.330184" lon="10.595335"><ele>65.0</ele><time>2026-04-25T09:49:32.859Z</time></trkpt><trkpt lat="35.3301278" lon="10.5955413"><ele>65.33333333333334</ele><time>2026-04-25T09:49:33.848Z</time></trkpt><trkpt lat="35.3300707" lon="10.5957443"><ele>65.66666666666667</ele><time>2026-04-25T09:49:34.862Z</time></trkpt><trkpt lat="35.330015" lon="10.5959539"><ele>66.0</ele><time>2026-04-25T09:49:35.854Z</time></trkpt><trkpt lat="35.3299562" lon="10.5961659"><ele>66.66666666666667</ele><time>2026-04-25T09:49:36.864Z</time></trkpt><trkpt lat="35.329893" lon="10.5963806"><ele>67.33333333333334</ele><time>2026-04-25T09:49:37.855Z</time></trkpt><trkpt lat="35.3298277" lon="10.5965865"><ele>68.0</ele><time>2026-04-25T09:49:38.858Z</time></trkpt><trkpt lat="35.3297586" lon="10.5967981"><ele>67.33333333333334</ele><time>2026-04-25T09:49:39.849Z</time></trkpt><trkpt lat="35.329689" lon="10.59701"><ele>66.66666666666667</ele><time>2026-04-25T09:49:40.851Z</time></trkpt><trkpt lat="35.3296203" lon="10.5972191"><ele>66.0</ele><time>2026-04-25T09:49:41.864Z</time></trkpt><trkpt lat="35.3295484" lon="10.5974302"><ele>66.0</ele><time>2026-04-25T09:49:42.848Z</time></trkpt><trkpt lat="35.3294795" lon="10.5976384"><ele>66.0</ele><time>2026-04-25T09:49:43.861Z</time></trkpt><trkpt lat="35.3294098" lon="10.5978415"><ele>66.0</ele><time>2026-04-25T09:49:44.842Z</time></trkpt><trkpt lat="35.3293434" lon="10.5980366"><ele>67.0</ele><time>2026-04-25T09:49:45.845Z</time></trkpt><trkpt lat="35.3292756" lon="10.5982311"><ele>68.0</ele><time>2026-04-25T09:49:46.851Z</time></trkpt><trkpt lat="35.3292089" lon="10.5984236"><ele>69.0</ele><time>2026-04-25T09:49:47.853Z</time></trkpt><trkpt lat="35.329143" lon="10.5986184"><ele>69.33333333333333</ele><time>2026-04-25T09:49:48.847Z</time></trkpt><trkpt lat="35.3290742" lon="10.5988164"><ele>69.66666666666666</ele><time>2026-04-25T09:49:49.856Z</time></trkpt><trkpt lat="35.3290038" lon="10.5990087"><ele>70.0</ele><time>2026-04-25T09:49:50.849Z</time></trkpt><trkpt lat="35.3289319" lon="10.5992012"><ele>69.33333333333333</ele><time>2026-04-25T09:49:51.859Z</time></trkpt><trkpt lat="35.3288637" lon="10.5993995"><ele>68.66666666666667</ele><time>2026-04-25T09:49:52.861Z</time></trkpt><trkpt lat="35.3287963" lon="10.5995978"><ele>68.0</ele><time>2026-04-25T09:49:53.881Z</time></trkpt><trkpt lat="35.3287285" lon="10.599793"><ele>67.66666666666667</ele><time>2026-04-25T09:49:54.845Z</time></trkpt><trkpt lat="35.3286633" lon="10.5999877"><ele>67.33333333333333</ele><time>2026-04-25T09:49:55.854Z</time></trkpt><trkpt lat="35.3285954" lon="10.6001834"><ele>67.0</ele><time>2026-04-25T09:49:56.871Z</time></trkpt><trkpt lat="35.3285286" lon="10.6003786"><ele>67.66666666666666</ele><time>2026-04-25T09:49:57.858Z</time></trkpt><trkpt lat="35.3284632" lon="10.6005702"><ele>68.33333333333333</ele><time>2026-04-25T09:49:58.853Z</time></trkpt><trkpt lat="35.3283931" lon="10.6007671"><ele>69.0</ele><time>2026-04-25T09:49:59.849Z</time></trkpt><trkpt lat="35.3283206" lon="10.6009725"><ele>68.33333333333333</ele><time>2026-04-25T09:50:00.854Z</time></trkpt><trkpt lat="35.3282445" lon="10.6011899"><ele>67.66666666666666</ele><time>2026-04-25T09:50:01.847Z</time></trkpt><trkpt lat="35.3281728" lon="10.6014108"><ele>67.0</ele><time>2026-04-25T09:50:02.862Z</time></trkpt><trkpt lat="35.328098" lon="10.6016346"><ele>67.33333333333333</ele><time>2026-04-25T09:50:03.852Z</time></trkpt><trkpt lat="35.3280221" lon="10.6018566"><ele>67.66666666666667</ele><time>2026-04-25T09:50:04.856Z</time></trkpt><trkpt lat="35.3279458" lon="10.6020811"><ele>68.0</ele><time>2026-04-25T09:50:05.86Z</time></trkpt><trkpt lat="35.3278696" lon="10.6023065"><ele>69.0</ele><time>2026-04-25T09:50:06.856Z</time></trkpt><trkpt lat="35.3277957" lon="10.6025281"><ele>70.0</ele><time>2026-04-25T09:50:07.858Z</time></trkpt><trkpt lat="35.3277185" lon="10.602747"><ele>71.0</ele><time>2026-04-25T09:50:08.856Z</time></trkpt><trkpt lat="35.3276419" lon="10.6029716"><ele>71.0</ele><time>2026-04-25T09:50:09.859Z</time></trkpt><trkpt lat="35.3275667" lon="10.6031886"><ele>71.0</ele><time>2026-04-25T09:50:10.857Z</time></trkpt><trkpt lat="35.3274895" lon="10.6034078"><ele>71.0</ele><time>2026-04-25T09:50:11.852Z</time></trkpt><trkpt lat="35.3274161" lon="10.6036221"><ele>71.0</ele><time>2026-04-25T09:50:12.853Z</time></trkpt><trkpt lat="35.3273432" lon="10.6038387"><ele>71.0</ele><time>2026-04-25T09:50:13.856Z</time></trkpt><trkpt lat="35.3272683" lon="10.6040544"><ele>71.0</ele><time>2026-04-25T09:50:14.849Z</time></trkpt><trkpt lat="35.3271948" lon="10.6042648"><ele>71.33333333333334</ele><time>2026-04-25T09:50:15.849Z</time></trkpt><trkpt lat="35.3271236" lon="10.6044757"><ele>71.66666666666667</ele><time>2026-04-25T09:50:16.847Z</time></trkpt><trkpt lat="35.3270496" lon="10.6046898"><ele>72.0</ele><time>2026-04-25T09:50:17.852Z</time></trkpt><trkpt lat="35.3269767" lon="10.6049014"><ele>72.0</ele><time>2026-04-25T09:50:18.864Z</time></trkpt><trkpt lat="35.3269037" lon="10.6051108"><ele>72.0</ele><time>2026-04-25T09:50:19.852Z</time></trkpt><trkpt lat="35.3268307" lon="10.6053214"><ele>72.0</ele><time>2026-04-25T09:50:20.859Z</time></trkpt><trkpt lat="35.3267562" lon="10.605532"><ele>73.0</ele><time>2026-04-25T09:50:21.861Z</time></trkpt><trkpt lat="35.3266803" lon="10.6057435"><ele>74.0</ele><time>2026-04-25T09:50:22.85Z</time></trkpt><trkpt lat="35.3266031" lon="10.6059536"><ele>75.0</ele><time>2026-04-25T09:50:23.856Z</time></trkpt><trkpt lat="35.3265295" lon="10.6061611"><ele>75.0</ele><time>2026-04-25T09:50:24.856Z</time></trkpt><trkpt lat="35.3264514" lon="10.6063709"><ele>75.0</ele><time>2026-04-25T09:50:25.851Z</time></trkpt><trkpt lat="35.3263767" lon="10.6065826"><ele>75.0</ele><time>2026-04-25T09:50:26.856Z</time></trkpt><trkpt lat="35.3263018" lon="10.6067945"><ele>75.66666666666667</ele><time>2026-04-25T09:50:27.866Z</time></trkpt><trkpt lat="35.3262295" lon="10.607014"><ele>76.33333333333334</ele><time>2026-04-25T09:50:28.846Z</time></trkpt><trkpt lat="35.3261583" lon="10.6072208"><ele>77.0</ele><time>2026-04-25T09:50:29.86Z</time></trkpt><trkpt lat="35.3260846" lon="10.6074306"><ele>77.0</ele><time>2026-04-25T09:50:30.857Z</time></trkpt><trkpt lat="35.3260137" lon="10.6076419"><ele>77.0</ele><time>2026-04-25T09:50:31.86Z</time></trkpt><trkpt lat="35.3259385" lon="10.6078531"><ele>77.0</ele><time>2026-04-25T09:50:32.856Z</time></trkpt><trkpt lat="35.3258667" lon="10.6080607"><ele>77.66666666666667</ele><time>2026-04-25T09:50:33.857Z</time></trkpt><trkpt lat="35.3257933" lon="10.6082682"><ele>78.33333333333333</ele><time>2026-04-25T09:50:34.851Z</time></trkpt><trkpt lat="35.3257215" lon="10.608478"><ele>79.0</ele><time>2026-04-25T09:50:35.86Z</time></trkpt><trkpt lat="35.3256557" lon="10.6086842"><ele>79.0</ele><time>2026-04-25T09:50:36.854Z</time></trkpt><trkpt lat="35.3255866" lon="10.6088878"><ele>79.0</ele><time>2026-04-25T09:50:37.858Z</time></trkpt><trkpt lat="35.3255148" lon="10.6090924"><ele>79.0</ele><time>2026-04-25T09:50:38.86Z</time></trkpt><trkpt lat="35.3254423" lon="10.6092951"><ele>80.0</ele><time>2026-04-25T09:50:39.857Z</time></trkpt><trkpt lat="35.325369" lon="10.6094989"><ele>81.0</ele><time>2026-04-25T09:50:40.851Z</time></trkpt><trkpt lat="35.3252961" lon="10.609707"><ele>82.0</ele><time>2026-04-25T09:50:41.856Z</time></trkpt><trkpt lat="35.3252281" lon="10.6099119"><ele>82.0</ele><time>2026-04-25T09:50:42.856Z</time></trkpt><trkpt lat="35.3251584" lon="10.610112"><ele>82.0</ele><time>2026-04-25T09:50:43.855Z</time></trkpt><trkpt lat="35.3250901" lon="10.6103114"><ele>82.0</ele><time>2026-04-25T09:50:44.856Z</time></trkpt><trkpt lat="35.32502" lon="10.6105128"><ele>82.0</ele><time>2026-04-25T09:50:45.855Z</time></trkpt><trkpt lat="35.3249509" lon="10.6107136"><ele>82.0</ele><time>2026-04-25T09:50:46.853Z</time></trkpt><trkpt lat="35.3248752" lon="10.6109179"><ele>82.0</ele><time>2026-04-25T09:50:47.86Z</time></trkpt><trkpt lat="35.3248019" lon="10.6111278"><ele>82.0</ele><time>2026-04-25T09:50:48.853Z</time></trkpt><trkpt lat="35.3247299" lon="10.6113402"><ele>82.0</ele><time>2026-04-25T09:50:49.859Z</time></trkpt><trkpt lat="35.3246533" lon="10.611562"><ele>82.0</ele><time>2026-04-25T09:50:50.855Z</time></trkpt><trkpt lat="35.3245787" lon="10.6117799"><ele>81.66666666666666</ele><time>2026-04-25T09:50:51.862Z</time></trkpt><trkpt lat="35.324504" lon="10.6119963"><ele>81.33333333333333</ele><time>2026-04-25T09:50:52.848Z</time></trkpt><trkpt lat="35.3244331" lon="10.6122103"><ele>81.0</ele><time>2026-04-25T09:50:53.855Z</time></trkpt><trkpt lat="35.3243626" lon="10.6124214"><ele>81.0</ele><time>2026-04-25T09:50:54.856Z</time></trkpt><trkpt lat="35.3242851" lon="10.6126353"><ele>81.0</ele><time>2026-04-25T09:50:55.85Z</time></trkpt><trkpt lat="35.3242096" lon="10.6128438"><ele>81.0</ele><time>2026-04-25T09:50:56.856Z</time></trkpt><trkpt lat="35.3241368" lon="10.6130561"><ele>81.66666666666667</ele><time>2026-04-25T09:50:57.853Z</time></trkpt><trkpt lat="35.3240645" lon="10.6132651"><ele>82.33333333333334</ele><time>2026-04-25T09:50:58.848Z</time></trkpt><trkpt lat="35.3239906" lon="10.6134729"><ele>83.0</ele><time>2026-04-25T09:50:59.851Z</time></trkpt><trkpt lat="35.3239165" lon="10.6136768"><ele>83.66666666666667</ele><time>2026-04-25T09:51:00.861Z</time></trkpt><trkpt lat="35.3238433" lon="10.6138843"><ele>84.33333333333333</ele><time>2026-04-25T09:51:01.857Z</time></trkpt><trkpt lat="35.3237724" lon="10.6140953"><ele>85.0</ele><time>2026-04-25T09:51:02.86Z</time></trkpt><trkpt lat="35.3236989" lon="10.6143048"><ele>86.0</ele><time>2026-04-25T09:51:03.858Z</time></trkpt><trkpt lat="35.3236224" lon="10.6145144"><ele>87.0</ele><time>2026-04-25T09:51:04.855Z</time></trkpt><trkpt lat="35.3235484" lon="10.6147232"><ele>88.0</ele><time>2026-04-25T09:51:05.858Z</time></trkpt><trkpt lat="35.3234757" lon="10.6149359"><ele>88.0</ele><time>2026-04-25T09:51:06.858Z</time></trkpt><trkpt lat="35.3234039" lon="10.6151483"><ele>88.0</ele><time>2026-04-25T09:51:07.849Z</time></trkpt><trkpt lat="35.3233353" lon="10.6153584"><ele>88.0</ele><time>2026-04-25T09:51:08.855Z</time></trkpt><trkpt lat="35.3232633" lon="10.6155684"><ele>88.0</ele><time>2026-04-25T09:51:09.858Z</time></trkpt><trkpt lat="35.3231939" lon="10.6157706"><ele>88.0</ele><time>2026-04-25T09:51:10.86Z</time></trkpt><trkpt lat="35.3231244" lon="10.6159652"><ele>88.0</ele><time>2026-04-25T09:51:11.853Z</time></trkpt><trkpt lat="35.3230593" lon="10.6161558"><ele>88.0</ele><time>2026-04-25T09:51:12.865Z</time></trkpt><trkpt lat="35.3229936" lon="10.6163434"><ele>88.0</ele><time>2026-04-25T09:51:13.853Z</time></trkpt><trkpt lat="35.3229255" lon="10.6165292"><ele>88.0</ele><time>2026-04-25T09:51:14.856Z</time></trkpt><trkpt lat="35.3228657" lon="10.6167103"><ele>88.0</ele><time>2026-04-25T09:51:15.866Z</time></trkpt><trkpt lat="35.3228068" lon="10.6168778"><ele>88.0</ele><time>2026-04-25T09:51:16.845Z</time></trkpt><trkpt lat="35.3227556" lon="10.6170433"><ele>88.0</ele><time>2026-04-25T09:51:17.862Z</time></trkpt><trkpt lat="35.3227033" lon="10.6171977"><ele>88.0</ele><time>2026-04-25T09:51:18.87Z</time></trkpt><trkpt lat="35.3226536" lon="10.6173478"><ele>88.5</ele><time>2026-04-25T09:51:19.857Z</time></trkpt><trkpt lat="35.3225973" lon="10.6175038"><ele>89.0</ele><time>2026-04-25T09:51:20.853Z</time></trkpt><trkpt lat="35.3225423" lon="10.6176642"><ele>89.5</ele><time>2026-04-25T09:51:21.856Z</time></trkpt><trkpt lat="35.3224813" lon="10.6178211"><ele>90.0</ele><time>2026-04-25T09:51:22.852Z</time></trkpt><trkpt lat="35.322425" lon="10.6179839"><ele>90.33333333333333</ele><time>2026-04-25T09:51:23.853Z</time></trkpt><trkpt lat="35.3223645" lon="10.6181503"><ele>90.66666666666666</ele><time>2026-04-25T09:51:24.852Z</time></trkpt><trkpt lat="35.3223044" lon="10.6183254"><ele>91.0</ele><time>2026-04-25T09:51:25.849Z</time></trkpt><trkpt lat="35.3222437" lon="10.6185127"><ele>91.33333333333333</ele><time>2026-04-25T09:51:26.848Z</time></trkpt><trkpt lat="35.3221805" lon="10.6187027"><ele>91.66666666666667</ele><time>2026-04-25T09:51:27.852Z</time></trkpt><trkpt lat="35.3221188" lon="10.6188952"><ele>92.0</ele><time>2026-04-25T09:51:28.858Z</time></trkpt><trkpt lat="35.3220548" lon="10.6190899"><ele>92.0</ele><time>2026-04-25T09:51:29.855Z</time></trkpt><trkpt lat="35.3219824" lon="10.6192865"><ele>92.0</ele><time>2026-04-25T09:51:30.851Z</time></trkpt><trkpt lat="35.3219144" lon="10.6194836"><ele>92.0</ele><time>2026-04-25T09:51:31.855Z</time></trkpt><trkpt lat="35.3218429" lon="10.6196862"><ele>92.0</ele><time>2026-04-25T09:51:32.852Z</time></trkpt><trkpt lat="35.3217741" lon="10.6198841"><ele>92.0</ele><time>2026-04-25T09:51:33.856Z</time></trkpt><trkpt lat="35.3217065" lon="10.6200869"><ele>92.0</ele><time>2026-04-25T09:51:34.851Z</time></trkpt><trkpt lat="35.321637" lon="10.6202885"><ele>92.66666666666667</ele><time>2026-04-25T09:51:35.857Z</time></trkpt><trkpt lat="35.3215624" lon="10.6204908"><ele>93.33333333333333</ele><time>2026-04-25T09:51:36.857Z</time></trkpt><trkpt lat="35.3214925" lon="10.6206939"><ele>94.0</ele><time>2026-04-25T09:51:37.851Z</time></trkpt><trkpt lat="35.3214239" lon="10.6209004"><ele>94.33333333333333</ele><time>2026-04-25T09:51:38.852Z</time></trkpt><trkpt lat="35.3213533" lon="10.6211049"><ele>94.66666666666667</ele><time>2026-04-25T09:51:39.857Z</time></trkpt><trkpt lat="35.3212778" lon="10.6213108"><ele>95.0</ele><time>2026-04-25T09:51:40.858Z</time></trkpt><trkpt lat="35.3212057" lon="10.62152"><ele>95.0</ele><time>2026-04-25T09:51:41.85Z</time></trkpt><trkpt lat="35.3211352" lon="10.6217242"><ele>95.0</ele><time>2026-04-25T09:51:42.852Z</time></trkpt><trkpt lat="35.3210656" lon="10.6219311"><ele>95.0</ele><time>2026-04-25T09:51:43.855Z</time></trkpt><trkpt lat="35.3209953" lon="10.6221369"><ele>95.33333333333334</ele><time>2026-04-25T09:51:44.856Z</time></trkpt><trkpt lat="35.3209201" lon="10.6223461"><ele>95.66666666666667</ele><time>2026-04-25T09:51:45.861Z</time></trkpt><trkpt lat="35.3208448" lon="10.6225596"><ele>96.0</ele><time>2026-04-25T09:51:46.854Z</time></trkpt><trkpt lat="35.3207695" lon="10.6227731"><ele>96.0</ele><time>2026-04-25T09:51:47.854Z</time></trkpt><trkpt lat="35.3206899" lon="10.6229895"><ele>96.0</ele><time>2026-04-25T09:51:48.855Z</time></trkpt><trkpt lat="35.3206027" lon="10.6232058"><ele>96.0</ele><time>2026-04-25T09:51:49.849Z</time></trkpt><trkpt lat="35.3205161" lon="10.6234243"><ele>95.0</ele><time>2026-04-25T09:51:50.846Z</time></trkpt><trkpt lat="35.3204257" lon="10.6236508"><ele>94.0</ele><time>2026-04-25T09:51:51.85Z</time></trkpt><trkpt lat="35.3203404" lon="10.6238763"><ele>93.0</ele><time>2026-04-25T09:51:52.866Z</time></trkpt><trkpt lat="35.3202492" lon="10.6241018"><ele>93.0</ele><time>2026-04-25T09:51:53.851Z</time></trkpt><trkpt lat="35.320162" lon="10.624326"><ele>93.0</ele><time>2026-04-25T09:51:54.854Z</time></trkpt><trkpt lat="35.3200782" lon="10.6245481"><ele>93.0</ele><time>2026-04-25T09:51:55.856Z</time></trkpt><trkpt lat="35.3199932" lon="10.6247627"><ele>92.66666666666667</ele><time>2026-04-25T09:51:56.845Z</time></trkpt><trkpt lat="35.31991" lon="10.6249793"><ele>92.33333333333334</ele><time>2026-04-25T09:51:57.856Z</time></trkpt><trkpt lat="35.3198243" lon="10.6251877"><ele>92.0</ele><time>2026-04-25T09:51:58.85Z</time></trkpt><trkpt lat="35.319742" lon="10.6253978"><ele>90.0</ele><time>2026-04-25T09:51:59.857Z</time></trkpt><trkpt lat="35.3196654" lon="10.6256035"><ele>88.0</ele><time>2026-04-25T09:52:00.855Z</time></trkpt><trkpt lat="35.3195873" lon="10.6258055"><ele>86.0</ele><time>2026-04-25T09:52:01.858Z</time></trkpt><trkpt lat="35.3195056" lon="10.6260073"><ele>86.66666666666667</ele><time>2026-04-25T09:52:02.859Z</time></trkpt><trkpt lat="35.3194288" lon="10.6262075"><ele>87.33333333333333</ele><time>2026-04-25T09:52:03.857Z</time></trkpt><trkpt lat="35.3193497" lon="10.6264019"><ele>88.0</ele><time>2026-04-25T09:52:04.853Z</time></trkpt><trkpt lat="35.3192733" lon="10.6265944"><ele>88.0</ele><time>2026-04-25T09:52:05.86Z</time></trkpt><trkpt lat="35.3191971" lon="10.6267874"><ele>88.0</ele><time>2026-04-25T09:52:06.856Z</time></trkpt><trkpt lat="35.3191197" lon="10.6269795"><ele>88.0</ele><time>2026-04-25T09:52:07.852Z</time></trkpt><trkpt lat="35.3190447" lon="10.6271674"><ele>88.66666666666666</ele><time>2026-04-25T09:52:08.86Z</time></trkpt><trkpt lat="35.3189743" lon="10.6273556"><ele>89.33333333333333</ele><time>2026-04-25T09:52:09.858Z</time></trkpt><trkpt lat="35.3189051" lon="10.6275429"><ele>90.0</ele><time>2026-04-25T09:52:10.852Z</time></trkpt><trkpt lat="35.3188282" lon="10.6277345"><ele>89.33333333333333</ele><time>2026-04-25T09:52:11.855Z</time></trkpt><trkpt lat="35.3187541" lon="10.627924"><ele>88.66666666666666</ele><time>2026-04-25T09:52:12.856Z</time></trkpt><trkpt lat="35.3186805" lon="10.6281115"><ele>88.0</ele><time>2026-04-25T09:52:13.847Z</time></trkpt><trkpt lat="35.3186074" lon="10.6282976"><ele>88.0</ele><time>2026-04-25T09:52:14.849Z</time></trkpt><trkpt lat="35.3185332" lon="10.6284892"><ele>88.0</ele><time>2026-04-25T09:52:15.856Z</time></trkpt><trkpt lat="35.3184601" lon="10.6286835"><ele>88.0</ele><time>2026-04-25T09:52:16.855Z</time></trkpt><trkpt lat="35.3183873" lon="10.6288677"><ele>88.33333333333333</ele><time>2026-04-25T09:52:17.855Z</time></trkpt><trkpt lat="35.3183088" lon="10.6290643"><ele>88.66666666666667</ele><time>2026-04-25T09:52:18.856Z</time></trkpt><trkpt lat="35.3182309" lon="10.629261"><ele>89.0</ele><time>2026-04-25T09:52:19.859Z</time></trkpt><trkpt lat="35.3181517" lon="10.6294618"><ele>89.33333333333334</ele><time>2026-04-25T09:52:20.848Z</time></trkpt><trkpt lat="35.3180756" lon="10.6296599"><ele>89.66666666666667</ele><time>2026-04-25T09:52:21.847Z</time></trkpt><trkpt lat="35.317996" lon="10.6298608"><ele>90.0</ele><time>2026-04-25T09:52:22.86Z</time></trkpt><trkpt lat="35.3179184" lon="10.6300612"><ele>90.0</ele><time>2026-04-25T09:52:23.856Z</time></trkpt><trkpt lat="35.3178408" lon="10.6302593"><ele>90.0</ele><time>2026-04-25T09:52:24.855Z</time></trkpt><trkpt lat="35.31776" lon="10.6304608"><ele>90.0</ele><time>2026-04-25T09:52:25.852Z</time></trkpt><trkpt lat="35.3176856" lon="10.6306556"><ele>90.0</ele><time>2026-04-25T09:52:26.852Z</time></trkpt><trkpt lat="35.3176062" lon="10.630853"><ele>90.0</ele><time>2026-04-25T09:52:27.85Z</time></trkpt><trkpt lat="35.3175318" lon="10.6310488"><ele>90.0</ele><time>2026-04-25T09:52:28.855Z</time></trkpt><trkpt lat="35.3174581" lon="10.6312482"><ele>88.66666666666667</ele><time>2026-04-25T09:52:29.873Z</time></trkpt><trkpt lat="35.3173894" lon="10.631455"><ele>87.33333333333334</ele><time>2026-04-25T09:52:30.857Z</time></trkpt><trkpt lat="35.3173382" lon="10.6316657"><ele>86.0</ele><time>2026-04-25T09:52:31.85Z</time></trkpt><trkpt lat="35.3173032" lon="10.631885"><ele>85.66666666666667</ele><time>2026-04-25T09:52:32.855Z</time></trkpt><trkpt lat="35.3172809" lon="10.6320981"><ele>85.33333333333333</ele><time>2026-04-25T09:52:33.854Z</time></trkpt><trkpt lat="35.317268" lon="10.6323167"><ele>85.0</ele><time>2026-04-25T09:52:34.852Z</time></trkpt><trkpt lat="35.3172553" lon="10.6325347"><ele>85.0</ele><time>2026-04-25T09:52:35.852Z</time></trkpt><trkpt lat="35.3172431" lon="10.6327504"><ele>85.0</ele><time>2026-04-25T09:52:36.852Z</time></trkpt><trkpt lat="35.3172339" lon="10.6329612"><ele>85.0</ele><time>2026-04-25T09:52:37.877Z</time></trkpt><trkpt lat="35.3172316" lon="10.6331814"><ele>86.33333333333333</ele><time>2026-04-25T09:52:38.855Z</time></trkpt><trkpt lat="35.3172257" lon="10.6333956"><ele>87.66666666666667</ele><time>2026-04-25T09:52:39.861Z</time></trkpt><trkpt lat="35.3172177" lon="10.6336162"><ele>89.0</ele><time>2026-04-25T09:52:40.859Z</time></trkpt><trkpt lat="35.3172118" lon="10.6338368"><ele>90.0</ele><time>2026-04-25T09:52:41.859Z</time></trkpt><trkpt lat="35.3172067" lon="10.6340582"><ele>91.0</ele><time>2026-04-25T09:52:42.86Z</time></trkpt><trkpt lat="35.3172019" lon="10.6342721"><ele>92.0</ele><time>2026-04-25T09:52:43.85Z</time></trkpt><trkpt lat="35.3171923" lon="10.6344878"><ele>92.33333333333334</ele><time>2026-04-25T09:52:44.847Z</time></trkpt><trkpt lat="35.3171832" lon="10.6347128"><ele>92.66666666666667</ele><time>2026-04-25T09:52:45.854Z</time></trkpt><trkpt lat="35.3171767" lon="10.6349418"><ele>93.0</ele><time>2026-04-25T09:52:46.848Z</time></trkpt><trkpt lat="35.3171682" lon="10.635165"><ele>92.66666666666667</ele><time>2026-04-25T09:52:47.849Z</time></trkpt><trkpt lat="35.3171615" lon="10.6353852"><ele>92.33333333333334</ele><time>2026-04-25T09:52:48.852Z</time></trkpt><trkpt lat="35.3171556" lon="10.6355964"><ele>92.0</ele><time>2026-04-25T09:52:49.861Z</time></trkpt><trkpt lat="35.3171501" lon="10.635816"><ele>92.0</ele><time>2026-04-25T09:52:50.855Z</time></trkpt><trkpt lat="35.3171461" lon="10.6360354"><ele>92.0</ele><time>2026-04-25T09:52:51.86Z</time></trkpt><trkpt lat="35.3171442" lon="10.6362593"><ele>92.0</ele><time>2026-04-25T09:52:52.859Z</time></trkpt><trkpt lat="35.3171379" lon="10.6364789"><ele>92.66666666666667</ele><time>2026-04-25T09:52:53.855Z</time></trkpt><trkpt lat="35.3171306" lon="10.6366978"><ele>93.33333333333333</ele><time>2026-04-25T09:52:54.858Z</time></trkpt><trkpt lat="35.3171284" lon="10.63692"><ele>94.0</ele><time>2026-04-25T09:52:55.849Z</time></trkpt><trkpt lat="35.3171241" lon="10.6371399"><ele>95.0</ele><time>2026-04-25T09:52:56.86Z</time></trkpt><trkpt lat="35.3171202" lon="10.6373546"><ele>96.0</ele><time>2026-04-25T09:52:57.857Z</time></trkpt><trkpt lat="35.3171153" lon="10.6375687"><ele>97.0</ele><time>2026-04-25T09:52:58.85Z</time></trkpt><trkpt lat="35.3171" lon="10.6377744"><ele>97.33333333333334</ele><time>2026-04-25T09:52:59.858Z</time></trkpt><trkpt lat="35.3170696" lon="10.6379797"><ele>97.66666666666666</ele><time>2026-04-25T09:53:00.861Z</time></trkpt><trkpt lat="35.3170334" lon="10.6381856"><ele>98.0</ele><time>2026-04-25T09:53:01.857Z</time></trkpt><trkpt lat="35.3169797" lon="10.6383822"><ele>98.0</ele><time>2026-04-25T09:53:02.849Z</time></trkpt><trkpt lat="35.3169162" lon="10.6385756"><ele>98.0</ele><time>2026-04-25T09:53:03.861Z</time></trkpt><trkpt lat="35.3168506" lon="10.6387692"><ele>98.0</ele><time>2026-04-25T09:53:04.853Z</time></trkpt><trkpt lat="35.3167803" lon="10.6389633"><ele>99.0</ele><time>2026-04-25T09:53:05.852Z</time></trkpt><trkpt lat="35.316709" lon="10.6391684"><ele>100.0</ele><time>2026-04-25T09:53:06.886Z</time></trkpt><trkpt lat="35.3166428" lon="10.6393729"><ele>101.0</ele><time>2026-04-25T09:53:07.851Z</time></trkpt><trkpt lat="35.3165693" lon="10.6395833"><ele>101.33333333333333</ele><time>2026-04-25T09:53:08.851Z</time></trkpt><trkpt lat="35.3164982" lon="10.6397935"><ele>101.66666666666666</ele><time>2026-04-25T09:53:09.857Z</time></trkpt><trkpt lat="35.316425" lon="10.6400082"><ele>102.0</ele><time>2026-04-25T09:53:10.857Z</time></trkpt><trkpt lat="35.3163527" lon="10.6402284"><ele>102.0</ele><time>2026-04-25T09:53:11.862Z</time></trkpt><trkpt lat="35.3162791" lon="10.6404488"><ele>102.0</ele><time>2026-04-25T09:53:12.858Z</time></trkpt><trkpt lat="35.3162061" lon="10.6406675"><ele>102.0</ele><time>2026-04-25T09:53:13.879Z</time></trkpt><trkpt lat="35.316131" lon="10.6408748"><ele>102.0</ele><time>2026-04-25T09:53:14.852Z</time></trkpt><trkpt lat="35.3160586" lon="10.6410855"><ele>102.0</ele><time>2026-04-25T09:53:15.85Z</time></trkpt><trkpt lat="35.3159872" lon="10.6412959"><ele>102.0</ele><time>2026-04-25T09:53:16.853Z</time></trkpt><trkpt lat="35.3159188" lon="10.6415031"><ele>102.33333333333334</ele><time>2026-04-25T09:53:17.85Z</time></trkpt><trkpt lat="35.3158495" lon="10.6417062"><ele>102.66666666666667</ele><time>2026-04-25T09:53:18.851Z</time></trkpt><trkpt lat="35.3157802" lon="10.6419085"><ele>103.0</ele><time>2026-04-25T09:53:19.855Z</time></trkpt><trkpt lat="35.3157131" lon="10.6421025"><ele>103.66666666666667</ele><time>2026-04-25T09:53:20.859Z</time></trkpt><trkpt lat="35.3156449" lon="10.642293"><ele>104.33333333333334</ele><time>2026-04-25T09:53:21.854Z</time></trkpt><trkpt lat="35.3155804" lon="10.6424824"><ele>105.0</ele><time>2026-04-25T09:53:22.872Z</time></trkpt><trkpt lat="35.3155119" lon="10.6426745"><ele>105.0</ele><time>2026-04-25T09:53:23.862Z</time></trkpt><trkpt lat="35.3154427" lon="10.6428641"><ele>105.0</ele><time>2026-04-25T09:53:24.859Z</time></trkpt><trkpt lat="35.3153765" lon="10.6430501"><ele>105.0</ele><time>2026-04-25T09:53:25.855Z</time></trkpt><trkpt lat="35.3153096" lon="10.6432392"><ele>105.0</ele><time>2026-04-25T09:53:26.861Z</time></trkpt><trkpt lat="35.3152407" lon="10.6434298"><ele>105.0</ele><time>2026-04-25T09:53:27.856Z</time></trkpt><trkpt lat="35.315171" lon="10.6436195"><ele>105.0</ele><time>2026-04-25T09:53:28.862Z</time></trkpt><trkpt lat="35.3151046" lon="10.6438108"><ele>105.66666666666666</ele><time>2026-04-25T09:53:29.856Z</time></trkpt><trkpt lat="35.3150384" lon="10.6440018"><ele>106.33333333333333</ele><time>2026-04-25T09:53:30.849Z</time></trkpt><trkpt lat="35.3149754" lon="10.6441944"><ele>107.0</ele><time>2026-04-25T09:53:31.855Z</time></trkpt><trkpt lat="35.3149118" lon="10.644383"><ele>107.33333333333333</ele><time>2026-04-25T09:53:32.859Z</time></trkpt><trkpt lat="35.3148438" lon="10.6445743"><ele>107.66666666666666</ele><time>2026-04-25T09:53:33.856Z</time></trkpt><trkpt lat="35.3147798" lon="10.6447667"><ele>108.0</ele><time>2026-04-25T09:53:34.856Z</time></trkpt><trkpt lat="35.314714" lon="10.6449553"><ele>108.0</ele><time>2026-04-25T09:53:35.847Z</time></trkpt><trkpt lat="35.3146503" lon="10.6451511"><ele>108.0</ele><time>2026-04-25T09:53:36.893Z</time></trkpt><trkpt lat="35.3145844" lon="10.6453417"><ele>108.0</ele><time>2026-04-25T09:53:37.849Z</time></trkpt><trkpt lat="35.3145198" lon="10.6455388"><ele>108.66666666666666</ele><time>2026-04-25T09:53:38.856Z</time></trkpt><trkpt lat="35.3144495" lon="10.6457352"><ele>109.33333333333333</ele><time>2026-04-25T09:53:39.857Z</time></trkpt><trkpt lat="35.3143829" lon="10.6459313"><ele>110.0</ele><time>2026-04-25T09:53:40.858Z</time></trkpt><trkpt lat="35.3143153" lon="10.6461295"><ele>110.0</ele><time>2026-04-25T09:53:41.855Z</time></trkpt><trkpt lat="35.3142496" lon="10.6463263"><ele>110.0</ele><time>2026-04-25T09:53:42.849Z</time></trkpt><trkpt lat="35.3141842" lon="10.6465212"><ele>110.0</ele><time>2026-04-25T09:53:43.853Z</time></trkpt><trkpt lat="35.3141185" lon="10.6467132"><ele>110.0</ele><time>2026-04-25T09:53:44.843Z</time></trkpt><trkpt lat="35.314052" lon="10.6469081"><ele>110.0</ele><time>2026-04-25T09:53:45.857Z</time></trkpt><trkpt lat="35.3139841" lon="10.6471035"><ele>110.0</ele><time>2026-04-25T09:53:46.847Z</time></trkpt><trkpt lat="35.3139137" lon="10.6473067"><ele>110.33333333333333</ele><time>2026-04-25T09:53:47.848Z</time></trkpt><trkpt lat="35.3138441" lon="10.6475053"><ele>110.66666666666666</ele><time>2026-04-25T09:53:48.855Z</time></trkpt><trkpt lat="35.3137787" lon="10.6477056"><ele>111.0</ele><time>2026-04-25T09:53:49.853Z</time></trkpt><trkpt lat="35.3137116" lon="10.6479038"><ele>112.33333333333334</ele><time>2026-04-25T09:53:50.859Z</time></trkpt><trkpt lat="35.3136429" lon="10.6481055"><ele>113.66666666666667</ele><time>2026-04-25T09:53:51.86Z</time></trkpt><trkpt lat="35.3135758" lon="10.6483071"><ele>115.0</ele><time>2026-04-25T09:53:52.854Z</time></trkpt><trkpt lat="35.3135067" lon="10.6485089"><ele>115.0</ele><time>2026-04-25T09:53:53.85Z</time></trkpt><trkpt lat="35.3134398" lon="10.648708"><ele>115.0</ele><time>2026-04-25T09:53:54.851Z</time></trkpt><trkpt lat="35.3133732" lon="10.6489108"><ele>115.0</ele><time>2026-04-25T09:53:55.862Z</time></trkpt><trkpt lat="35.3133042" lon="10.6491189"><ele>115.0</ele><time>2026-04-25T09:53:56.86Z</time></trkpt><trkpt lat="35.3132345" lon="10.6493228"><ele>115.0</ele><time>2026-04-25T09:53:57.853Z</time></trkpt><trkpt lat="35.3131637" lon="10.6495277"><ele>115.0</ele><time>2026-04-25T09:53:58.857Z</time></trkpt><trkpt lat="35.3130928" lon="10.6497306"><ele>115.0</ele><time>2026-04-25T09:53:59.86Z</time></trkpt><trkpt lat="35.3130185" lon="10.6499297"><ele>115.0</ele><time>2026-04-25T09:54:00.85Z</time></trkpt><trkpt lat="35.3129459" lon="10.6501316"><ele>115.0</ele><time>2026-04-25T09:54:01.858Z</time></trkpt><trkpt lat="35.3128771" lon="10.6503378"><ele>115.66666666666667</ele><time>2026-04-25T09:54:02.85Z</time></trkpt><trkpt lat="35.3128094" lon="10.6505366"><ele>116.33333333333334</ele><time>2026-04-25T09:54:03.851Z</time></trkpt><trkpt lat="35.3127428" lon="10.6507364"><ele>117.0</ele><time>2026-04-25T09:54:04.849Z</time></trkpt><trkpt lat="35.3126755" lon="10.6509349"><ele>117.66666666666666</ele><time>2026-04-25T09:54:05.854Z</time></trkpt><trkpt lat="35.3126101" lon="10.6511288"><ele>118.33333333333333</ele><time>2026-04-25T09:54:06.855Z</time></trkpt><trkpt lat="35.3125433" lon="10.6513237"><ele>119.0</ele><time>2026-04-25T09:54:07.852Z</time></trkpt><trkpt lat="35.3124736" lon="10.6515167"><ele>119.0</ele><time>2026-04-25T09:54:08.844Z</time></trkpt><trkpt lat="35.312404" lon="10.6517096"><ele>119.0</ele><time>2026-04-25T09:54:09.87Z</time></trkpt><trkpt lat="35.3123364" lon="10.6519004"><ele>119.0</ele><time>2026-04-25T09:54:10.849Z</time></trkpt><trkpt lat="35.3122691" lon="10.6520924"><ele>118.0</ele><time>2026-04-25T09:54:11.851Z</time></trkpt><trkpt lat="35.3122044" lon="10.6522851"><ele>117.0</ele><time>2026-04-25T09:54:12.856Z</time></trkpt><trkpt lat="35.312137" lon="10.6524753"><ele>116.0</ele><time>2026-04-25T09:54:13.859Z</time></trkpt><trkpt lat="35.3120715" lon="10.6526666"><ele>116.33333333333333</ele><time>2026-04-25T09:54:14.864Z</time></trkpt><trkpt lat="35.3120067" lon="10.6528567"><ele>116.66666666666666</ele><time>2026-04-25T09:54:15.856Z</time></trkpt><trkpt lat="35.311942" lon="10.6530479"><ele>117.0</ele><time>2026-04-25T09:54:16.86Z</time></trkpt><trkpt lat="35.3118765" lon="10.6532368"><ele>117.0</ele><time>2026-04-25T09:54:17.853Z</time></trkpt><trkpt lat="35.3118125" lon="10.653426"><ele>117.0</ele><time>2026-04-25T09:54:18.846Z</time></trkpt><trkpt lat="35.3117495" lon="10.6536212"><ele>117.0</ele><time>2026-04-25T09:54:19.848Z</time></trkpt><trkpt lat="35.3116922" lon="10.6538188"><ele>117.0</ele><time>2026-04-25T09:54:20.854Z</time></trkpt><trkpt lat="35.3116416" lon="10.6540142"><ele>117.0</ele><time>2026-04-25T09:54:21.859Z</time></trkpt><trkpt lat="35.3115911" lon="10.6542209"><ele>117.0</ele><time>2026-04-25T09:54:22.847Z</time></trkpt><trkpt lat="35.311545" lon="10.6544304"><ele>116.33333333333334</ele><time>2026-04-25T09:54:23.86Z</time></trkpt><trkpt lat="35.3115068" lon="10.6546431"><ele>115.66666666666667</ele><time>2026-04-25T09:54:24.867Z</time></trkpt><trkpt lat="35.3114707" lon="10.6548562"><ele>115.0</ele><time>2026-04-25T09:54:25.849Z</time></trkpt><trkpt lat="35.3114445" lon="10.6550694"><ele>115.0</ele><time>2026-04-25T09:54:26.856Z</time></trkpt><trkpt lat="35.3114204" lon="10.6552805"><ele>115.0</ele><time>2026-04-25T09:54:27.844Z</time></trkpt><trkpt lat="35.3113992" lon="10.6554921"><ele>115.0</ele><time>2026-04-25T09:54:28.855Z</time></trkpt><trkpt lat="35.3113784" lon="10.6557037"><ele>115.66666666666667</ele><time>2026-04-25T09:54:29.849Z</time></trkpt><trkpt lat="35.3113569" lon="10.6559119"><ele>116.33333333333334</ele><time>2026-04-25T09:54:30.854Z</time></trkpt><trkpt lat="35.3113309" lon="10.6561147"><ele>117.0</ele><time>2026-04-25T09:54:31.857Z</time></trkpt><trkpt lat="35.3113046" lon="10.6563182"><ele>117.0</ele><time>2026-04-25T09:54:32.85Z</time></trkpt><trkpt lat="35.311274" lon="10.6565138"><ele>117.0</ele><time>2026-04-25T09:54:33.845Z</time></trkpt><trkpt lat="35.3112402" lon="10.6567041"><ele>117.0</ele><time>2026-04-25T09:54:34.841Z</time></trkpt><trkpt lat="35.3112038" lon="10.6568928"><ele>116.0</ele><time>2026-04-25T09:54:35.85Z</time></trkpt><trkpt lat="35.3111638" lon="10.6570776"><ele>115.0</ele><time>2026-04-25T09:54:36.846Z</time></trkpt><trkpt lat="35.3111237" lon="10.6572583"><ele>114.0</ele><time>2026-04-25T09:54:37.853Z</time></trkpt><trkpt lat="35.3110845" lon="10.6574315"><ele>114.0</ele><time>2026-04-25T09:54:38.85Z</time></trkpt><trkpt lat="35.3110478" lon="10.6576018"><ele>114.0</ele><time>2026-04-25T09:54:39.857Z</time></trkpt><trkpt lat="35.3110099" lon="10.6577719"><ele>114.0</ele><time>2026-04-25T09:54:40.856Z</time></trkpt><trkpt lat="35.3109736" lon="10.6579394"><ele>114.0</ele><time>2026-04-25T09:54:41.87Z</time></trkpt><trkpt lat="35.3109397" lon="10.6581093"><ele>114.25</ele><time>2026-04-25T09:54:42.848Z</time></trkpt><trkpt lat="35.310905" lon="10.658278"><ele>114.5</ele><time>2026-04-25T09:54:43.85Z</time></trkpt><trkpt lat="35.3108716" lon="10.6584409"><ele>114.75</ele><time>2026-04-25T09:54:44.86Z</time></trkpt><trkpt lat="35.3108417" lon="10.6585971"><ele>115.0</ele><time>2026-04-25T09:54:45.854Z</time></trkpt><trkpt lat="35.3108084" lon="10.6587473"><ele>115.0</ele><time>2026-04-25T09:54:46.857Z</time></trkpt><trkpt lat="35.3107783" lon="10.6588895"><ele>115.0</ele><time>2026-04-25T09:54:47.85Z</time></trkpt><trkpt lat="35.3107517" lon="10.6590241"><ele>115.0</ele><time>2026-04-25T09:54:48.867Z</time></trkpt><trkpt lat="35.3107193" lon="10.659156"><ele>115.0</ele><time>2026-04-25T09:54:49.858Z</time></trkpt><trkpt lat="35.3106967" lon="10.659272"><ele>115.0</ele><time>2026-04-25T09:54:50.867Z</time></trkpt><trkpt lat="35.3106671" lon="10.6593721"><ele>114.8</ele><time>2026-04-25T09:54:51.86Z</time></trkpt><trkpt lat="35.3106338" lon="10.6594616"><ele>114.6</ele><time>2026-04-25T09:54:52.855Z</time></trkpt><trkpt lat="35.3105954" lon="10.6595432"><ele>114.4</ele><time>2026-04-25T09:54:53.86Z</time></trkpt><trkpt lat="35.3105501" lon="10.6596089"><ele>114.2</ele><time>2026-04-25T09:54:54.861Z</time></trkpt><trkpt lat="35.3104679" lon="10.6597229"><ele>114.0</ele><time>2026-04-25T09:54:56.853Z</time></trkpt><trkpt lat="35.3104061" lon="10.6598384"><ele>114.0</ele><time>2026-04-25T09:54:58.846Z</time></trkpt><trkpt lat="35.3103815" lon="10.6599529"><ele>114.0</ele><time>2026-04-25T09:55:00.85Z</time></trkpt><trkpt lat="35.3104133" lon="10.6600887"><ele>114.0</ele><time>2026-04-25T09:55:02.854Z</time></trkpt><trkpt lat="35.3104299" lon="10.6601644"><ele>114.0</ele><time>2026-04-25T09:55:03.858Z</time></trkpt><trkpt lat="35.3104372" lon="10.6602479"><ele>114.0</ele><time>2026-04-25T09:55:04.853Z</time></trkpt><trkpt lat="35.3104428" lon="10.6603442"><ele>114.0</ele><time>2026-04-25T09:55:05.855Z</time></trkpt><trkpt lat="35.310431" lon="10.6604473"><ele>113.80000000000001</ele><time>2026-04-25T09:55:06.86Z</time></trkpt><trkpt lat="35.3104141" lon="10.6605558"><ele>113.60000000000001</ele><time>2026-04-25T09:55:07.858Z</time></trkpt><trkpt lat="35.3103861" lon="10.6606795"><ele>113.4</ele><time>2026-04-25T09:55:08.859Z</time></trkpt><trkpt lat="35.3103557" lon="10.660809"><ele>113.2</ele><time>2026-04-25T09:55:09.857Z</time></trkpt><trkpt lat="35.3103316" lon="10.6609514"><ele>113.0</ele><time>2026-04-25T09:55:10.857Z</time></trkpt><trkpt lat="35.3103036" lon="10.6610926"><ele>113.0</ele><time>2026-04-25T09:55:11.855Z</time></trkpt><trkpt lat="35.3102709" lon="10.6612487"><ele>113.0</ele><time>2026-04-25T09:55:12.859Z</time></trkpt><trkpt lat="35.3102311" lon="10.6614196"><ele>113.0</ele><time>2026-04-25T09:55:13.848Z</time></trkpt><trkpt lat="35.31019" lon="10.6615918"><ele>113.0</ele><time>2026-04-25T09:55:14.853Z</time></trkpt><trkpt lat="35.3101546" lon="10.6617841"><ele>112.66666666666666</ele><time>2026-04-25T09:55:15.855Z</time></trkpt><trkpt lat="35.3101138" lon="10.6620068"><ele>112.33333333333334</ele><time>2026-04-25T09:55:16.857Z</time></trkpt><trkpt lat="35.3100646" lon="10.6622654"><ele>112.0</ele><time>2026-04-25T09:55:17.861Z</time></trkpt><trkpt lat="35.3100099" lon="10.662538"><ele>113.0</ele><time>2026-04-25T09:55:18.855Z</time></trkpt><trkpt lat="35.309954" lon="10.6627963"><ele>114.0</ele><time>2026-04-25T09:55:19.847Z</time></trkpt><trkpt lat="35.3099064" lon="10.663034"><ele>115.0</ele><time>2026-04-25T09:55:20.851Z</time></trkpt><trkpt lat="35.3098535" lon="10.6632551"><ele>115.0</ele><time>2026-04-25T09:55:21.856Z</time></trkpt><trkpt lat="35.3098019" lon="10.6634546"><ele>115.0</ele><time>2026-04-25T09:55:22.85Z</time></trkpt><trkpt lat="35.3097579" lon="10.6636283"><ele>115.0</ele><time>2026-04-25T09:55:23.857Z</time></trkpt><trkpt lat="35.3097187" lon="10.6637819"><ele>114.0</ele><time>2026-04-25T09:55:24.848Z</time></trkpt><trkpt lat="35.3096881" lon="10.6639332"><ele>113.0</ele><time>2026-04-25T09:55:25.862Z</time></trkpt><trkpt lat="35.3096607" lon="10.6640762"><ele>112.0</ele><time>2026-04-25T09:55:26.857Z</time></trkpt><trkpt lat="35.3096282" lon="10.6642087"><ele>111.0</ele><time>2026-04-25T09:55:27.853Z</time></trkpt><trkpt lat="35.3095982" lon="10.6643439"><ele>110.5</ele><time>2026-04-25T09:55:28.854Z</time></trkpt><trkpt lat="35.3095682" lon="10.6644855"><ele>110.0</ele><time>2026-04-25T09:55:29.853Z</time></trkpt><trkpt lat="35.3095381" lon="10.6646319"><ele>109.5</ele><time>2026-04-25T09:55:30.863Z</time></trkpt><trkpt lat="35.309511" lon="10.6647816"><ele>109.0</ele><time>2026-04-25T09:55:31.854Z</time></trkpt><trkpt lat="35.3094774" lon="10.6649306"><ele>109.0</ele><time>2026-04-25T09:55:32.859Z</time></trkpt><trkpt lat="35.3094378" lon="10.6650858"><ele>109.0</ele><time>2026-04-25T09:55:33.849Z</time></trkpt><trkpt lat="35.3094026" lon="10.6652394"><ele>109.0</ele><time>2026-04-25T09:55:34.842Z</time></trkpt><trkpt lat="35.309368" lon="10.6653996"><ele>109.0</ele><time>2026-04-25T09:55:35.841Z</time></trkpt><trkpt lat="35.3093338" lon="10.665557"><ele>109.5</ele><time>2026-04-25T09:55:36.846Z</time></trkpt><trkpt lat="35.3092992" lon="10.6657167"><ele>110.0</ele><time>2026-04-25T09:55:37.875Z</time></trkpt><trkpt lat="35.309262" lon="10.6658741"><ele>110.5</ele><time>2026-04-25T09:55:38.844Z</time></trkpt><trkpt lat="35.309229" lon="10.6660259"><ele>111.0</ele><time>2026-04-25T09:55:39.853Z</time></trkpt><trkpt lat="35.3092003" lon="10.6661684"><ele>111.0</ele><time>2026-04-25T09:55:40.864Z</time></trkpt><trkpt lat="35.3091694" lon="10.6663169"><ele>111.0</ele><time>2026-04-25T09:55:41.853Z</time></trkpt><trkpt lat="35.3091371" lon="10.6664611"><ele>111.0</ele><time>2026-04-25T09:55:42.857Z</time></trkpt><trkpt lat="35.3091062" lon="10.6665959"><ele>111.0</ele><time>2026-04-25T09:55:43.849Z</time></trkpt><trkpt lat="35.3090791" lon="10.6667174"><ele>111.0</ele><time>2026-04-25T09:55:44.854Z</time></trkpt><trkpt lat="35.3090571" lon="10.6668364"><ele>111.0</ele><time>2026-04-25T09:55:45.859Z</time></trkpt><trkpt lat="35.3090328" lon="10.6669422"><ele>111.0</ele><time>2026-04-25T09:55:46.853Z</time></trkpt><trkpt lat="35.3090122" lon="10.6670415"><ele>111.0</ele><time>2026-04-25T09:55:47.852Z</time></trkpt><trkpt lat="35.3089924" lon="10.6671307"><ele>111.0</ele><time>2026-04-25T09:55:48.857Z</time></trkpt><trkpt lat="35.3089766" lon="10.6672147"><ele>111.0</ele><time>2026-04-25T09:55:49.854Z</time></trkpt><trkpt lat="35.3089597" lon="10.6672907"><ele>111.0</ele><time>2026-04-25T09:55:50.856Z</time></trkpt><trkpt lat="35.3089319" lon="10.6674338"><ele>111.0</ele><time>2026-04-25T09:55:52.854Z</time></trkpt><trkpt lat="35.3088973" lon="10.667582"><ele>111.0</ele><time>2026-04-25T09:55:54.855Z</time></trkpt><trkpt lat="35.3088818" lon="10.6676638"><ele>111.0</ele><time>2026-04-25T09:55:55.853Z</time></trkpt><trkpt lat="35.3088502" lon="10.6678091"><ele>111.0</ele><time>2026-04-25T09:55:57.858Z</time></trkpt><trkpt lat="35.3088345" lon="10.6678851"><ele>110.8</ele><time>2026-04-25T09:55:58.854Z</time></trkpt><trkpt lat="35.308801" lon="10.6680356"><ele>110.6</ele><time>2026-04-25T09:56:00.856Z</time></trkpt><trkpt lat="35.308784" lon="10.6681142"><ele>110.4</ele><time>2026-04-25T09:56:01.856Z</time></trkpt><trkpt lat="35.308768" lon="10.6681903"><ele>110.2</ele><time>2026-04-25T09:56:02.865Z</time></trkpt><trkpt lat="35.3087273" lon="10.6683408"><ele>110.0</ele><time>2026-04-25T09:56:04.85Z</time></trkpt><trkpt lat="35.3087123" lon="10.6684237"><ele>110.0</ele><time>2026-04-25T09:56:05.843Z</time></trkpt><trkpt lat="35.3086926" lon="10.6685171"><ele>110.0</ele><time>2026-04-25T09:56:06.847Z</time></trkpt><trkpt lat="35.3086724" lon="10.6686144"><ele>110.0</ele><time>2026-04-25T09:56:07.844Z</time></trkpt><trkpt lat="35.3086483" lon="10.6687216"><ele>110.0</ele><time>2026-04-25T09:56:08.85Z</time></trkpt><trkpt lat="35.3086175" lon="10.6688366"><ele>110.0</ele><time>2026-04-25T09:56:09.852Z</time></trkpt><trkpt lat="35.3085912" lon="10.6689602"><ele>110.5</ele><time>2026-04-25T09:56:10.858Z</time></trkpt><trkpt lat="35.3085664" lon="10.6690945"><ele>111.0</ele><time>2026-04-25T09:56:11.85Z</time></trkpt><trkpt lat="35.3085357" lon="10.6692328"><ele>111.5</ele><time>2026-04-25T09:56:12.857Z</time></trkpt><trkpt lat="35.3085054" lon="10.6693721"><ele>112.0</ele><time>2026-04-25T09:56:13.853Z</time></trkpt><trkpt lat="35.3084686" lon="10.6695092"><ele>112.0</ele><time>2026-04-25T09:56:14.843Z</time></trkpt><trkpt lat="35.3084293" lon="10.6696526"><ele>112.0</ele><time>2026-04-25T09:56:15.85Z</time></trkpt><trkpt lat="35.3083859" lon="10.6697913"><ele>112.0</ele><time>2026-04-25T09:56:16.852Z</time></trkpt><trkpt lat="35.3083392" lon="10.6699269"><ele>112.0</ele><time>2026-04-25T09:56:17.855Z</time></trkpt><trkpt lat="35.3082916" lon="10.6700605"><ele>112.0</ele><time>2026-04-25T09:56:18.857Z</time></trkpt><trkpt lat="35.308247" lon="10.6702012"><ele>112.0</ele><time>2026-04-25T09:56:19.851Z</time></trkpt><trkpt lat="35.308196" lon="10.670337"><ele>112.0</ele><time>2026-04-25T09:56:20.846Z</time></trkpt><trkpt lat="35.3081453" lon="10.670476"><ele>112.0</ele><time>2026-04-25T09:56:21.855Z</time></trkpt><trkpt lat="35.3080927" lon="10.6706136"><ele>111.75</ele><time>2026-04-25T09:56:22.849Z</time></trkpt><trkpt lat="35.3080408" lon="10.6707546"><ele>111.5</ele><time>2026-04-25T09:56:23.852Z</time></trkpt><trkpt lat="35.3079865" lon="10.6708985"><ele>111.25</ele><time>2026-04-25T09:56:24.859Z</time></trkpt><trkpt lat="35.3079317" lon="10.6710481"><ele>111.0</ele><time>2026-04-25T09:56:25.852Z</time></trkpt><trkpt lat="35.307875" lon="10.671198"><ele>111.0</ele><time>2026-04-25T09:56:26.856Z</time></trkpt><trkpt lat="35.3078164" lon="10.6713521"><ele>111.0</ele><time>2026-04-25T09:56:27.847Z</time></trkpt><trkpt lat="35.3077565" lon="10.6715097"><ele>111.0</ele><time>2026-04-25T09:56:28.854Z</time></trkpt><trkpt lat="35.3076981" lon="10.6716661"><ele>111.0</ele><time>2026-04-25T09:56:29.856Z</time></trkpt><trkpt lat="35.30764" lon="10.671824"><ele>110.66666666666666</ele><time>2026-04-25T09:56:30.854Z</time></trkpt><trkpt lat="35.3075809" lon="10.6719847"><ele>110.33333333333333</ele><time>2026-04-25T09:56:31.859Z</time></trkpt><trkpt lat="35.3075185" lon="10.672158"><ele>110.0</ele><time>2026-04-25T09:56:32.847Z</time></trkpt><trkpt lat="35.3074521" lon="10.6723295"><ele>110.0</ele><time>2026-04-25T09:56:33.854Z</time></trkpt><trkpt lat="35.3073841" lon="10.6725119"><ele>110.0</ele><time>2026-04-25T09:56:34.848Z</time></trkpt><trkpt lat="35.3073112" lon="10.6726922"><ele>110.0</ele><time>2026-04-25T09:56:35.849Z</time></trkpt><trkpt lat="35.3072432" lon="10.6728741"><ele>109.66666666666666</ele><time>2026-04-25T09:56:36.847Z</time></trkpt><trkpt lat="35.3071728" lon="10.6730576"><ele>109.33333333333334</ele><time>2026-04-25T09:56:37.848Z</time></trkpt><trkpt lat="35.3070978" lon="10.673252"><ele>109.0</ele><time>2026-04-25T09:56:38.849Z</time></trkpt><trkpt lat="35.307025" lon="10.673445"><ele>109.0</ele><time>2026-04-25T09:56:39.846Z</time></trkpt><trkpt lat="35.3069524" lon="10.6736404"><ele>109.0</ele><time>2026-04-25T09:56:40.854Z</time></trkpt><trkpt lat="35.3068798" lon="10.6738385"><ele>109.0</ele><time>2026-04-25T09:56:41.853Z</time></trkpt><trkpt lat="35.3068062" lon="10.6740354"><ele>109.0</ele><time>2026-04-25T09:56:42.862Z</time></trkpt><trkpt lat="35.306735" lon="10.6742302"><ele>109.0</ele><time>2026-04-25T09:56:43.858Z</time></trkpt><trkpt lat="35.3066635" lon="10.674422"><ele>109.0</ele><time>2026-04-25T09:56:44.858Z</time></trkpt><trkpt lat="35.3065934" lon="10.6746097"><ele>108.66666666666667</ele><time>2026-04-25T09:56:45.852Z</time></trkpt><trkpt lat="35.3065251" lon="10.6747947"><ele>108.33333333333334</ele><time>2026-04-25T09:56:46.862Z</time></trkpt><trkpt lat="35.306462" lon="10.6749689"><ele>108.0</ele><time>2026-04-25T09:56:47.861Z</time></trkpt><trkpt lat="35.3064017" lon="10.675132"><ele>108.5</ele><time>2026-04-25T09:56:48.858Z</time></trkpt><trkpt lat="35.3063395" lon="10.6752965"><ele>109.0</ele><time>2026-04-25T09:56:49.862Z</time></trkpt><trkpt lat="35.3062766" lon="10.6754542"><ele>109.5</ele><time>2026-04-25T09:56:50.855Z</time></trkpt><trkpt lat="35.306216" lon="10.6756131"><ele>110.0</ele><time>2026-04-25T09:56:51.85Z</time></trkpt><trkpt lat="35.3061584" lon="10.6757642"><ele>110.0</ele><time>2026-04-25T09:56:52.856Z</time></trkpt><trkpt lat="35.3061" lon="10.675917"><ele>110.0</ele><time>2026-04-25T09:56:53.9Z</time></trkpt><trkpt lat="35.3060377" lon="10.676071"><ele>110.0</ele><time>2026-04-25T09:56:54.855Z</time></trkpt><trkpt lat="35.3059732" lon="10.6762189"><ele>110.0</ele><time>2026-04-25T09:56:55.85Z</time></trkpt><trkpt lat="35.3059094" lon="10.6763656"><ele>110.25</ele><time>2026-04-25T09:56:56.847Z</time></trkpt><trkpt lat="35.305841" lon="10.676506"><ele>110.5</ele><time>2026-04-25T09:56:57.853Z</time></trkpt><trkpt lat="35.3057695" lon="10.6766446"><ele>110.75</ele><time>2026-04-25T09:56:58.853Z</time></trkpt><trkpt lat="35.3056949" lon="10.6767854"><ele>111.0</ele><time>2026-04-25T09:56:59.852Z</time></trkpt><trkpt lat="35.3056184" lon="10.676921"><ele>111.5</ele><time>2026-04-25T09:57:00.853Z</time></trkpt><trkpt lat="35.3055444" lon="10.6770552"><ele>112.0</ele><time>2026-04-25T09:57:01.856Z</time></trkpt><trkpt lat="35.3054742" lon="10.677186"><ele>112.5</ele><time>2026-04-25T09:57:02.84Z</time></trkpt><trkpt lat="35.3054047" lon="10.6773088"><ele>113.0</ele><time>2026-04-25T09:57:03.846Z</time></trkpt><trkpt lat="35.3053381" lon="10.6774288"><ele>113.0</ele><time>2026-04-25T09:57:04.849Z</time></trkpt><trkpt lat="35.3052789" lon="10.6775443"><ele>113.00000000000001</ele><time>2026-04-25T09:57:05.852Z</time></trkpt><trkpt lat="35.3052205" lon="10.6776529"><ele>113.00000000000001</ele><time>2026-04-25T09:57:06.855Z</time></trkpt><trkpt lat="35.3051605" lon="10.677764"><ele>113.0</ele><time>2026-04-25T09:57:07.855Z</time></trkpt><trkpt lat="35.3050989" lon="10.6778722"><ele>113.0</ele><time>2026-04-25T09:57:08.851Z</time></trkpt><trkpt lat="35.305036" lon="10.6779815"><ele>112.60000000000001</ele><time>2026-04-25T09:57:09.853Z</time></trkpt><trkpt lat="35.3049715" lon="10.6780951"><ele>112.20000000000002</ele><time>2026-04-25T09:57:10.861Z</time></trkpt><trkpt lat="35.3049101" lon="10.6782079"><ele>111.8</ele><time>2026-04-25T09:57:11.85Z</time></trkpt><trkpt lat="35.304848" lon="10.6783203"><ele>111.4</ele><time>2026-04-25T09:57:12.861Z</time></trkpt><trkpt lat="35.3047857" lon="10.6784351"><ele>111.0</ele><time>2026-04-25T09:57:13.852Z</time></trkpt><trkpt lat="35.3047249" lon="10.6785471"><ele>112.5</ele><time>2026-04-25T09:57:14.844Z</time></trkpt><trkpt lat="35.3046637" lon="10.6786622"><ele>114.0</ele><time>2026-04-25T09:57:15.849Z</time></trkpt><trkpt lat="35.3045995" lon="10.6787756"><ele>115.5</ele><time>2026-04-25T09:57:16.857Z</time></trkpt><trkpt lat="35.3045339" lon="10.6788877"><ele>117.0</ele><time>2026-04-25T09:57:17.855Z</time></trkpt><trkpt lat="35.3044672" lon="10.6789998"><ele>117.0</ele><time>2026-04-25T09:57:18.858Z</time></trkpt><trkpt lat="35.3044" lon="10.6791224"><ele>117.0</ele><time>2026-04-25T09:57:19.859Z</time></trkpt><trkpt lat="35.3043366" lon="10.6792449"><ele>117.0</ele><time>2026-04-25T09:57:20.855Z</time></trkpt><trkpt lat="35.3042689" lon="10.6793671"><ele>117.0</ele><time>2026-04-25T09:57:21.846Z</time></trkpt><trkpt lat="35.3042014" lon="10.6794882"><ele>116.5</ele><time>2026-04-25T09:57:22.855Z</time></trkpt><trkpt lat="35.3041318" lon="10.6796128"><ele>116.0</ele><time>2026-04-25T09:57:23.857Z</time></trkpt><trkpt lat="35.3040609" lon="10.6797358"><ele>115.5</ele><time>2026-04-25T09:57:24.849Z</time></trkpt><trkpt lat="35.3039926" lon="10.6798583"><ele>115.0</ele><time>2026-04-25T09:57:25.856Z</time></trkpt><trkpt lat="35.3039201" lon="10.6799865"><ele>115.0</ele><time>2026-04-25T09:57:26.875Z</time></trkpt><trkpt lat="35.3038493" lon="10.6801111"><ele>115.0</ele><time>2026-04-25T09:57:27.861Z</time></trkpt><trkpt lat="35.3037804" lon="10.6802357"><ele>115.0</ele><time>2026-04-25T09:57:28.848Z</time></trkpt><trkpt lat="35.3037143" lon="10.6803639"><ele>115.0</ele><time>2026-04-25T09:57:29.888Z</time></trkpt><trkpt lat="35.3036448" lon="10.6804958"><ele>115.0</ele><time>2026-04-25T09:57:30.861Z</time></trkpt><trkpt lat="35.303569" lon="10.6806236"><ele>115.0</ele><time>2026-04-25T09:57:31.854Z</time></trkpt><trkpt lat="35.3034979" lon="10.6807503"><ele>115.0</ele><time>2026-04-25T09:57:32.847Z</time></trkpt><trkpt lat="35.3034301" lon="10.6808765"><ele>115.0</ele><time>2026-04-25T09:57:33.858Z</time></trkpt><trkpt lat="35.3033633" lon="10.6810016"><ele>115.0</ele><time>2026-04-25T09:57:34.853Z</time></trkpt><trkpt lat="35.3033031" lon="10.6811307"><ele>115.0</ele><time>2026-04-25T09:57:35.851Z</time></trkpt><trkpt lat="35.3032405" lon="10.6812677"><ele>115.0</ele><time>2026-04-25T09:57:36.853Z</time></trkpt><trkpt lat="35.3031799" lon="10.6814107"><ele>115.0</ele><time>2026-04-25T09:57:37.851Z</time></trkpt><trkpt lat="35.303117" lon="10.6815525"><ele>114.75</ele><time>2026-04-25T09:57:38.844Z</time></trkpt><trkpt lat="35.3030563" lon="10.6816991"><ele>114.5</ele><time>2026-04-25T09:57:39.845Z</time></trkpt><trkpt lat="35.3029947" lon="10.6818408"><ele>114.25</ele><time>2026-04-25T09:57:40.856Z</time></trkpt><trkpt lat="35.3029331" lon="10.6819816"><ele>114.0</ele><time>2026-04-25T09:57:41.854Z</time></trkpt><trkpt lat="35.3028692" lon="10.6821252"><ele>114.0</ele><time>2026-04-25T09:57:42.903Z</time></trkpt><trkpt lat="35.3028065" lon="10.6822671"><ele>114.0</ele><time>2026-04-25T09:57:43.853Z</time></trkpt><trkpt lat="35.3027424" lon="10.682409"><ele>114.0</ele><time>2026-04-25T09:57:44.882Z</time></trkpt><trkpt lat="35.3026805" lon="10.6825526"><ele>114.0</ele><time>2026-04-25T09:57:45.855Z</time></trkpt><trkpt lat="35.302616" lon="10.6827007"><ele>114.5</ele><time>2026-04-25T09:57:46.858Z</time></trkpt><trkpt lat="35.3025492" lon="10.6828515"><ele>115.0</ele><time>2026-04-25T09:57:47.88Z</time></trkpt><trkpt lat="35.302484" lon="10.6830005"><ele>115.5</ele><time>2026-04-25T09:57:48.855Z</time></trkpt><trkpt lat="35.3024189" lon="10.683152"><ele>116.0</ele><time>2026-04-25T09:57:49.862Z</time></trkpt><trkpt lat="35.3023546" lon="10.6832984"><ele>116.0</ele><time>2026-04-25T09:57:50.85Z</time></trkpt><trkpt lat="35.3022915" lon="10.6834418"><ele>116.0</ele><time>2026-04-25T09:57:51.852Z</time></trkpt><trkpt lat="35.3022277" lon="10.6835901"><ele>116.0</ele><time>2026-04-25T09:57:52.852Z</time></trkpt><trkpt lat="35.3021634" lon="10.6837343"><ele>116.0</ele><time>2026-04-25T09:57:53.853Z</time></trkpt><trkpt lat="35.3020996" lon="10.6838827"><ele>115.25</ele><time>2026-04-25T09:57:54.86Z</time></trkpt><trkpt lat="35.3020346" lon="10.6840264"><ele>114.5</ele><time>2026-04-25T09:57:55.856Z</time></trkpt><trkpt lat="35.3019722" lon="10.68417"><ele>113.75</ele><time>2026-04-25T09:57:56.851Z</time></trkpt><trkpt lat="35.3019162" lon="10.6843069"><ele>113.0</ele><time>2026-04-25T09:57:57.861Z</time></trkpt><trkpt lat="35.3018571" lon="10.6844448"><ele>112.75</ele><time>2026-04-25T09:57:58.854Z</time></trkpt><trkpt lat="35.3017968" lon="10.6845746"><ele>112.5</ele><time>2026-04-25T09:57:59.856Z</time></trkpt><trkpt lat="35.3017419" lon="10.684701"><ele>112.25</ele><time>2026-04-25T09:58:00.856Z</time></trkpt><trkpt lat="35.3016839" lon="10.6848322"><ele>112.0</ele><time>2026-04-25T09:58:01.864Z</time></trkpt><trkpt lat="35.3016305" lon="10.6849659"><ele>112.0</ele><time>2026-04-25T09:58:02.858Z</time></trkpt><trkpt lat="35.3015819" lon="10.6850906"><ele>111.99999999999999</ele><time>2026-04-25T09:58:03.847Z</time></trkpt><trkpt lat="35.3015381" lon="10.685215"><ele>111.99999999999999</ele><time>2026-04-25T09:58:04.855Z</time></trkpt><trkpt lat="35.3015004" lon="10.6853346"><ele>112.0</ele><time>2026-04-25T09:58:05.858Z</time></trkpt><trkpt lat="35.3014661" lon="10.6854466"><ele>112.0</ele><time>2026-04-25T09:58:06.843Z</time></trkpt><trkpt lat="35.3014405" lon="10.6855558"><ele>111.66666666666667</ele><time>2026-04-25T09:58:07.846Z</time></trkpt><trkpt lat="35.3014156" lon="10.6856564"><ele>111.33333333333334</ele><time>2026-04-25T09:58:08.845Z</time></trkpt><trkpt lat="35.3013959" lon="10.6857563"><ele>111.0</ele><time>2026-04-25T09:58:09.851Z</time></trkpt><trkpt lat="35.3013737" lon="10.6858621"><ele>110.66666666666666</ele><time>2026-04-25T09:58:10.856Z</time></trkpt><trkpt lat="35.3013483" lon="10.685962"><ele>110.33333333333333</ele><time>2026-04-25T09:58:11.861Z</time></trkpt><trkpt lat="35.3013259" lon="10.6860618"><ele>110.0</ele><time>2026-04-25T09:58:12.87Z</time></trkpt><trkpt lat="35.3013018" lon="10.6861656"><ele>109.99999999999999</ele><time>2026-04-25T09:58:13.846Z</time></trkpt><trkpt lat="35.3012757" lon="10.6862706"><ele>110.0</ele><time>2026-04-25T09:58:14.85Z</time></trkpt><trkpt lat="35.3012532" lon="10.6863718"><ele>110.0</ele><time>2026-04-25T09:58:15.86Z</time></trkpt><trkpt lat="35.3012266" lon="10.6864775"><ele>110.0</ele><time>2026-04-25T09:58:16.853Z</time></trkpt><trkpt lat="35.3011986" lon="10.6865845"><ele>109.99999999999999</ele><time>2026-04-25T09:58:17.85Z</time></trkpt><trkpt lat="35.3011723" lon="10.6866906"><ele>110.0</ele><time>2026-04-25T09:58:18.85Z</time></trkpt><trkpt lat="35.3011496" lon="10.6867956"><ele>109.99999999999999</ele><time>2026-04-25T09:58:19.863Z</time></trkpt><trkpt lat="35.3011247" lon="10.6869016"><ele>110.0</ele><time>2026-04-25T09:58:20.851Z</time></trkpt><trkpt lat="35.3011032" lon="10.6870054"><ele>110.0</ele><time>2026-04-25T09:58:21.857Z</time></trkpt><trkpt lat="35.3010744" lon="10.6871115"><ele>110.0</ele><time>2026-04-25T09:58:22.858Z</time></trkpt><trkpt lat="35.3010484" lon="10.6872155"><ele>109.99999999999999</ele><time>2026-04-25T09:58:23.862Z</time></trkpt><trkpt lat="35.301025" lon="10.6873176"><ele>110.0</ele><time>2026-04-25T09:58:24.858Z</time></trkpt><trkpt lat="35.3010006" lon="10.6874129"><ele>109.49999999999999</ele><time>2026-04-25T09:58:25.849Z</time></trkpt><trkpt lat="35.3009818" lon="10.6875047"><ele>109.0</ele><time>2026-04-25T09:58:26.878Z</time></trkpt><trkpt lat="35.3009648" lon="10.6875887"><ele>108.5</ele><time>2026-04-25T09:58:27.849Z</time></trkpt><trkpt lat="35.3009509" lon="10.6876747"><ele>108.0</ele><time>2026-04-25T09:58:28.857Z</time></trkpt><trkpt lat="35.3009359" lon="10.6877504"><ele>107.49999999999999</ele><time>2026-04-25T09:58:29.858Z</time></trkpt><trkpt lat="35.3009039" lon="10.6878815"><ele>107.0</ele><time>2026-04-25T09:58:31.862Z</time></trkpt><trkpt lat="35.3008708" lon="10.6880035"><ele>107.0</ele><time>2026-04-25T09:58:33.857Z</time></trkpt><trkpt lat="35.300847" lon="10.6881243"><ele>106.99999999999999</ele><time>2026-04-25T09:58:35.848Z</time></trkpt><trkpt lat="35.3008197" lon="10.6882438"><ele>106.99999999999999</ele><time>2026-04-25T09:58:37.849Z</time></trkpt><trkpt lat="35.3007919" lon="10.6883687"><ele>107.0</ele><time>2026-04-25T09:58:39.862Z</time></trkpt><trkpt lat="35.3007634" lon="10.6884964"><ele>107.0</ele><time>2026-04-25T09:58:41.854Z</time></trkpt><trkpt lat="35.300737" lon="10.6886178"><ele>107.16666666666666</ele><time>2026-04-25T09:58:43.849Z</time></trkpt><trkpt lat="35.300712" lon="10.6887375"><ele>107.33333333333333</ele><time>2026-04-25T09:58:45.864Z</time></trkpt><trkpt lat="35.3006957" lon="10.6888445"><ele>107.5</ele><time>2026-04-25T09:58:47.856Z</time></trkpt><trkpt lat="35.3006719" lon="10.688931"><ele>107.66666666666666</ele><time>2026-04-25T09:58:49.854Z</time></trkpt><trkpt lat="35.3006523" lon="10.6890241"><ele>107.83333333333333</ele><time>2026-04-25T09:58:52.86Z</time></trkpt><trkpt lat="35.3006369" lon="10.6891041"><ele>108.0</ele><time>2026-04-25T09:58:58.857Z</time></trkpt><trkpt lat="35.3006013" lon="10.6892051"><ele>107.80000000000001</ele><time>2026-04-25T09:59:02.85Z</time></trkpt><trkpt lat="35.3005738" lon="10.6893084"><ele>107.60000000000001</ele><time>2026-04-25T09:59:04.86Z</time></trkpt><trkpt lat="35.3005455" lon="10.689427"><ele>107.39999999999999</ele><time>2026-04-25T09:59:06.848Z</time></trkpt><trkpt lat="35.3005216" lon="10.6895463"><ele>107.19999999999999</ele><time>2026-04-25T09:59:08.848Z</time></trkpt><trkpt lat="35.3004974" lon="10.6896591"><ele>107.0</ele><time>2026-04-25T09:59:10.853Z</time></trkpt><trkpt lat="35.3004691" lon="10.6897652"><ele>106.99999999999999</ele><time>2026-04-25T09:59:12.847Z</time></trkpt><trkpt lat="35.3004369" lon="10.6898797"><ele>107.0</ele><time>2026-04-25T09:59:14.857Z</time></trkpt><trkpt lat="35.3004174" lon="10.6899953"><ele>107.0</ele><time>2026-04-25T09:59:16.858Z</time></trkpt><trkpt lat="35.3003754" lon="10.6900919"><ele>107.0</ele><time>2026-04-25T09:59:18.856Z</time></trkpt><trkpt lat="35.3003406" lon="10.6901607"><ele>106.99999999999999</ele><time>2026-04-25T09:59:20.849Z</time></trkpt><trkpt lat="35.3003107" lon="10.6902344"><ele>107.0</ele><time>2026-04-25T09:59:22.878Z</time></trkpt><trkpt lat="35.3002739" lon="10.6903196"><ele>107.39999999999999</ele><time>2026-04-25T09:59:24.859Z</time></trkpt><trkpt lat="35.3002372" lon="10.6904368"><ele>107.79999999999998</ele><time>2026-04-25T09:59:26.857Z</time></trkpt><trkpt lat="35.3002214" lon="10.6905832"><ele>108.2</ele><time>2026-04-25T09:59:28.854Z</time></trkpt><trkpt lat="35.3002232" lon="10.6906631"><ele>108.6</ele><time>2026-04-25T09:59:29.852Z</time></trkpt><trkpt lat="35.3002146" lon="10.690806"><ele>109.0</ele><time>2026-04-25T09:59:31.86Z</time></trkpt><trkpt lat="35.3001946" lon="10.6909545"><ele>109.0</ele><time>2026-04-25T09:59:33.859Z</time></trkpt><trkpt lat="35.3001773" lon="10.6910339"><ele>109.0</ele><time>2026-04-25T09:59:34.858Z</time></trkpt><trkpt lat="35.3001646" lon="10.6911165"><ele>109.0</ele><time>2026-04-25T09:59:35.846Z</time></trkpt><trkpt lat="35.3001491" lon="10.6911982"><ele>109.0</ele><time>2026-04-25T09:59:36.839Z</time></trkpt><trkpt lat="35.3001313" lon="10.6912785"><ele>109.0</ele><time>2026-04-25T09:59:37.843Z</time></trkpt><trkpt lat="35.3001064" lon="10.6913577"><ele>109.0</ele><time>2026-04-25T09:59:38.848Z</time></trkpt><trkpt lat="35.3000824" lon="10.6914423"><ele>109.0</ele><time>2026-04-25T09:59:39.844Z</time></trkpt><trkpt lat="35.3000633" lon="10.6915316"><ele>109.00000000000001</ele><time>2026-04-25T09:59:40.843Z</time></trkpt><trkpt lat="35.3000451" lon="10.6916176"><ele>109.0</ele><time>2026-04-25T09:59:41.859Z</time></trkpt><trkpt lat="35.3000245" lon="10.6917012"><ele>109.0</ele><time>2026-04-25T09:59:42.864Z</time></trkpt><trkpt lat="35.3000043" lon="10.6917906"><ele>109.0</ele><time>2026-04-25T09:59:43.849Z</time></trkpt><trkpt lat="35.2999845" lon="10.6918795"><ele>109.00000000000001</ele><time>2026-04-25T09:59:44.859Z</time></trkpt><trkpt lat="35.2999632" lon="10.691972"><ele>109.0</ele><time>2026-04-25T09:59:45.858Z</time></trkpt><trkpt lat="35.2999366" lon="10.6920719"><ele>109.0</ele><time>2026-04-25T09:59:46.857Z</time></trkpt><trkpt lat="35.2999097" lon="10.6921729"><ele>109.0</ele><time>2026-04-25T09:59:47.858Z</time></trkpt><trkpt lat="35.2998812" lon="10.6922848"><ele>109.0</ele><time>2026-04-25T09:59:48.851Z</time></trkpt><trkpt lat="35.2998507" lon="10.6924056"><ele>109.0</ele><time>2026-04-25T09:59:49.849Z</time></trkpt><trkpt lat="35.2998195" lon="10.692524"><ele>109.0</ele><time>2026-04-25T09:59:50.858Z</time></trkpt><trkpt lat="35.2997918" lon="10.6926469"><ele>108.80000000000001</ele><time>2026-04-25T09:59:51.854Z</time></trkpt><trkpt lat="35.2997635" lon="10.6927774"><ele>108.60000000000001</ele><time>2026-04-25T09:59:52.852Z</time></trkpt><trkpt lat="35.2997347" lon="10.6929044"><ele>108.4</ele><time>2026-04-25T09:59:53.856Z</time></trkpt><trkpt lat="35.2997057" lon="10.6930338"><ele>108.2</ele><time>2026-04-25T09:59:54.856Z</time></trkpt><trkpt lat="35.2996774" lon="10.6931642"><ele>108.0</ele><time>2026-04-25T09:59:55.86Z</time></trkpt><trkpt lat="35.2996548" lon="10.6932916"><ele>108.0</ele><time>2026-04-25T09:59:56.854Z</time></trkpt><trkpt lat="35.2996259" lon="10.6934202"><ele>108.00000000000001</ele><time>2026-04-25T09:59:57.851Z</time></trkpt><trkpt lat="35.2995955" lon="10.6935492"><ele>108.00000000000001</ele><time>2026-04-25T09:59:58.849Z</time></trkpt><trkpt lat="35.2995652" lon="10.693677"><ele>108.0</ele><time>2026-04-25T09:59:59.861Z</time></trkpt><trkpt lat="35.299538" lon="10.6938018"><ele>108.0</ele><time>2026-04-25T10:00:00.848Z</time></trkpt><trkpt lat="35.2995077" lon="10.6939228"><ele>108.0</ele><time>2026-04-25T10:00:01.848Z</time></trkpt><trkpt lat="35.2994793" lon="10.6940447"><ele>108.0</ele><time>2026-04-25T10:00:02.845Z</time></trkpt><trkpt lat="35.2994504" lon="10.69416"><ele>108.0</ele><time>2026-04-25T10:00:03.847Z</time></trkpt><trkpt lat="35.2994323" lon="10.6942671"><ele>108.0</ele><time>2026-04-25T10:00:04.852Z</time></trkpt><trkpt lat="35.2994107" lon="10.6943597"><ele>108.0</ele><time>2026-04-25T10:00:05.876Z</time></trkpt><trkpt lat="35.299391" lon="10.6944515"><ele>108.0</ele><time>2026-04-25T10:00:06.848Z</time></trkpt><trkpt lat="35.2993696" lon="10.6945456"><ele>107.66666666666667</ele><time>2026-04-25T10:00:07.855Z</time></trkpt><trkpt lat="35.2993491" lon="10.6946404"><ele>107.33333333333334</ele><time>2026-04-25T10:00:08.851Z</time></trkpt><trkpt lat="35.2993264" lon="10.6947403"><ele>107.0</ele><time>2026-04-25T10:00:09.855Z</time></trkpt><trkpt lat="35.2993029" lon="10.6948382"><ele>106.66666666666667</ele><time>2026-04-25T10:00:10.84Z</time></trkpt><trkpt lat="35.2992785" lon="10.694931"><ele>106.33333333333334</ele><time>2026-04-25T10:00:11.846Z</time></trkpt><trkpt lat="35.299254" lon="10.6950315"><ele>106.0</ele><time>2026-04-25T10:00:12.848Z</time></trkpt><trkpt lat="35.2992215" lon="10.6951309"><ele>106.00000000000001</ele><time>2026-04-25T10:00:13.852Z</time></trkpt><trkpt lat="35.2991885" lon="10.6952318"><ele>106.0</ele><time>2026-04-25T10:00:14.852Z</time></trkpt><trkpt lat="35.2991479" lon="10.6953323"><ele>106.0</ele><time>2026-04-25T10:00:15.849Z</time></trkpt><trkpt lat="35.2991066" lon="10.6954253"><ele>106.0</ele><time>2026-04-25T10:00:16.851Z</time></trkpt><trkpt lat="35.2990591" lon="10.6955159"><ele>106.00000000000001</ele><time>2026-04-25T10:00:17.861Z</time></trkpt><trkpt lat="35.2990035" lon="10.6955985"><ele>106.0</ele><time>2026-04-25T10:00:18.86Z</time></trkpt><trkpt lat="35.2989467" lon="10.6956776"><ele>106.00000000000001</ele><time>2026-04-25T10:00:19.849Z</time></trkpt><trkpt lat="35.2988862" lon="10.695755"><ele>106.0</ele><time>2026-04-25T10:00:20.849Z</time></trkpt><trkpt lat="35.2988214" lon="10.6958239"><ele>106.0</ele><time>2026-04-25T10:00:21.854Z</time></trkpt><trkpt lat="35.2987605" lon="10.6958994"><ele>106.0</ele><time>2026-04-25T10:00:22.843Z</time></trkpt><trkpt lat="35.2986936" lon="10.695973"><ele>106.00000000000001</ele><time>2026-04-25T10:00:23.846Z</time></trkpt><trkpt lat="35.2986288" lon="10.6960387"><ele>106.0</ele><time>2026-04-25T10:00:24.852Z</time></trkpt><trkpt lat="35.2985677" lon="10.6961045"><ele>106.00000000000001</ele><time>2026-04-25T10:00:25.847Z</time></trkpt><trkpt lat="35.298507" lon="10.6961652"><ele>106.0</ele><time>2026-04-25T10:00:26.901Z</time></trkpt><trkpt lat="35.2984429" lon="10.6962262"><ele>106.0</ele><time>2026-04-25T10:00:27.852Z</time></trkpt><trkpt lat="35.2983818" lon="10.6962861"><ele>106.0</ele><time>2026-04-25T10:00:28.85Z</time></trkpt><trkpt lat="35.2983226" lon="10.6963405"><ele>106.00000000000001</ele><time>2026-04-25T10:00:29.846Z</time></trkpt><trkpt lat="35.2982606" lon="10.6963965"><ele>106.0</ele><time>2026-04-25T10:00:30.851Z</time></trkpt><trkpt lat="35.2982028" lon="10.6964527"><ele>106.0</ele><time>2026-04-25T10:00:31.853Z</time></trkpt><trkpt lat="35.2981474" lon="10.6965074"><ele>106.0</ele><time>2026-04-25T10:00:32.858Z</time></trkpt><trkpt lat="35.2980881" lon="10.696562"><ele>106.0</ele><time>2026-04-25T10:00:33.851Z</time></trkpt><trkpt lat="35.2980343" lon="10.6966163"><ele>106.0</ele><time>2026-04-25T10:00:34.891Z</time></trkpt><trkpt lat="35.2979835" lon="10.6966698"><ele>106.0</ele><time>2026-04-25T10:00:35.85Z</time></trkpt><trkpt lat="35.2979291" lon="10.6967225"><ele>106.0</ele><time>2026-04-25T10:00:36.844Z</time></trkpt><trkpt lat="35.2978757" lon="10.6967789"><ele>106.0</ele><time>2026-04-25T10:00:37.845Z</time></trkpt><trkpt lat="35.2978156" lon="10.6968456"><ele>106.33333333333334</ele><time>2026-04-25T10:00:38.85Z</time></trkpt><trkpt lat="35.2977585" lon="10.6969084"><ele>106.66666666666667</ele><time>2026-04-25T10:00:39.855Z</time></trkpt><trkpt lat="35.2977" lon="10.6969693"><ele>107.0</ele><time>2026-04-25T10:00:40.851Z</time></trkpt><trkpt lat="35.2976414" lon="10.6970296"><ele>107.33333333333334</ele><time>2026-04-25T10:00:41.847Z</time></trkpt><trkpt lat="35.2975826" lon="10.6970832"><ele>107.66666666666667</ele><time>2026-04-25T10:00:42.853Z</time></trkpt><trkpt lat="35.2975265" lon="10.6971405"><ele>108.0</ele><time>2026-04-25T10:00:43.853Z</time></trkpt><trkpt lat="35.2974686" lon="10.6971971"><ele>108.0</ele><time>2026-04-25T10:00:44.856Z</time></trkpt><trkpt lat="35.2974098" lon="10.6972572"><ele>108.0</ele><time>2026-04-25T10:00:45.852Z</time></trkpt><trkpt lat="35.2973518" lon="10.6973192"><ele>108.0</ele><time>2026-04-25T10:00:46.845Z</time></trkpt><trkpt lat="35.2972932" lon="10.6973804"><ele>108.0</ele><time>2026-04-25T10:00:47.847Z</time></trkpt><trkpt lat="35.2972329" lon="10.6974363"><ele>108.0</ele><time>2026-04-25T10:00:48.858Z</time></trkpt><trkpt lat="35.2971728" lon="10.6974959"><ele>108.0</ele><time>2026-04-25T10:00:49.856Z</time></trkpt><trkpt lat="35.29711" lon="10.697556"><ele>108.16666666666667</ele><time>2026-04-25T10:00:50.857Z</time></trkpt><trkpt lat="35.2970476" lon="10.6976133"><ele>108.33333333333334</ele><time>2026-04-25T10:00:51.855Z</time></trkpt><trkpt lat="35.2969847" lon="10.6976758"><ele>108.5</ele><time>2026-04-25T10:00:52.85Z</time></trkpt><trkpt lat="35.2969281" lon="10.6977441"><ele>108.66666666666667</ele><time>2026-04-25T10:00:53.85Z</time></trkpt><trkpt lat="35.2968702" lon="10.6978019"><ele>108.83333333333334</ele><time>2026-04-25T10:00:54.856Z</time></trkpt><trkpt lat="35.2968154" lon="10.6978638"><ele>109.0</ele><time>2026-04-25T10:00:55.889Z</time></trkpt><trkpt lat="35.2967571" lon="10.6979296"><ele>109.0</ele><time>2026-04-25T10:00:56.843Z</time></trkpt><trkpt lat="35.2966928" lon="10.6979893"><ele>109.0</ele><time>2026-04-25T10:00:57.852Z</time></trkpt><trkpt lat="35.2966333" lon="10.6980487"><ele>109.0</ele><time>2026-04-25T10:00:58.853Z</time></trkpt><trkpt lat="35.296575" lon="10.6981067"><ele>109.0</ele><time>2026-04-25T10:00:59.841Z</time></trkpt><trkpt lat="35.2965198" lon="10.6981638"><ele>109.0</ele><time>2026-04-25T10:01:00.844Z</time></trkpt><trkpt lat="35.2964651" lon="10.6982203"><ele>109.0</ele><time>2026-04-25T10:01:01.846Z</time></trkpt><trkpt lat="35.2964129" lon="10.6982757"><ele>109.0</ele><time>2026-04-25T10:01:02.848Z</time></trkpt><trkpt lat="35.2963596" lon="10.6983284"><ele>109.50000000000001</ele><time>2026-04-25T10:01:03.861Z</time></trkpt><trkpt lat="35.2962649" lon="10.6984284"><ele>110.0</ele><time>2026-04-25T10:01:05.856Z</time></trkpt><trkpt lat="35.2962179" lon="10.6984817"><ele>110.5</ele><time>2026-04-25T10:01:06.856Z</time></trkpt><trkpt lat="35.2961262" lon="10.6985834"><ele>111.0</ele><time>2026-04-25T10:01:08.858Z</time></trkpt><trkpt lat="35.2960778" lon="10.698635"><ele>111.50000000000001</ele><time>2026-04-25T10:01:09.852Z</time></trkpt><trkpt lat="35.2960223" lon="10.6986742"><ele>112.0</ele><time>2026-04-25T10:01:10.858Z</time></trkpt><trkpt lat="35.295962" lon="10.6987247"><ele>112.00000000000001</ele><time>2026-04-25T10:01:11.852Z</time></trkpt><trkpt lat="35.2959047" lon="10.698784"><ele>112.0</ele><time>2026-04-25T10:01:12.857Z</time></trkpt><trkpt lat="35.2958446" lon="10.6988391"><ele>112.0</ele><time>2026-04-25T10:01:13.846Z</time></trkpt><trkpt lat="35.2957872" lon="10.6988972"><ele>112.0</ele><time>2026-04-25T10:01:14.85Z</time></trkpt><trkpt lat="35.2957303" lon="10.6989538"><ele>112.00000000000001</ele><time>2026-04-25T10:01:15.852Z</time></trkpt><trkpt lat="35.2956692" lon="10.6990109"><ele>112.0</ele><time>2026-04-25T10:01:16.843Z</time></trkpt><trkpt lat="35.2956091" lon="10.6990669"><ele>112.00000000000001</ele><time>2026-04-25T10:01:17.848Z</time></trkpt><trkpt lat="35.2955487" lon="10.699129"><ele>112.0</ele><time>2026-04-25T10:01:18.846Z</time></trkpt><trkpt lat="35.29549" lon="10.6991915"><ele>112.0</ele><time>2026-04-25T10:01:19.843Z</time></trkpt><trkpt lat="35.2954305" lon="10.6992489"><ele>112.0</ele><time>2026-04-25T10:01:20.848Z</time></trkpt><trkpt lat="35.2953744" lon="10.6993091"><ele>112.00000000000001</ele><time>2026-04-25T10:01:21.849Z</time></trkpt><trkpt lat="35.2953131" lon="10.6993694"><ele>112.0</ele><time>2026-04-25T10:01:22.861Z</time></trkpt><trkpt lat="35.2952597" lon="10.6994278"><ele>112.16666666666667</ele><time>2026-04-25T10:01:23.856Z</time></trkpt><trkpt lat="35.295207" lon="10.6994955"><ele>112.33333333333334</ele><time>2026-04-25T10:01:24.859Z</time></trkpt><trkpt lat="35.2951497" lon="10.6995649"><ele>112.5</ele><time>2026-04-25T10:01:25.847Z</time></trkpt><trkpt lat="35.2950919" lon="10.699627"><ele>112.66666666666666</ele><time>2026-04-25T10:01:26.85Z</time></trkpt><trkpt lat="35.2950395" lon="10.6996912"><ele>112.83333333333333</ele><time>2026-04-25T10:01:27.842Z</time></trkpt><trkpt lat="35.294989" lon="10.6997585"><ele>113.0</ele><time>2026-04-25T10:01:28.853Z</time></trkpt><trkpt lat="35.294941" lon="10.6998305"><ele>112.99999999999999</ele><time>2026-04-25T10:01:29.846Z</time></trkpt><trkpt lat="35.2948893" lon="10.6999032"><ele>113.0</ele><time>2026-04-25T10:01:30.851Z</time></trkpt><trkpt lat="35.2948392" lon="10.6999767"><ele>113.0</ele><time>2026-04-25T10:01:31.848Z</time></trkpt><trkpt lat="35.2947919" lon="10.7000386"><ele>113.0</ele><time>2026-04-25T10:01:32.849Z</time></trkpt><trkpt lat="35.2947499" lon="10.7001001"><ele>112.99999999999999</ele><time>2026-04-25T10:01:33.847Z</time></trkpt><trkpt lat="35.2946763" lon="10.7002122"><ele>113.0</ele><time>2026-04-25T10:01:35.848Z</time></trkpt><trkpt lat="35.2946058" lon="10.7003047"><ele>112.66666666666666</ele><time>2026-04-25T10:01:37.857Z</time></trkpt><trkpt lat="35.294554" lon="10.7003952"><ele>112.33333333333333</ele><time>2026-04-25T10:01:39.853Z</time></trkpt><trkpt lat="35.2944924" lon="10.7004811"><ele>112.0</ele><time>2026-04-25T10:01:41.863Z</time></trkpt><trkpt lat="35.2944315" lon="10.7005558"><ele>111.66666666666666</ele><time>2026-04-25T10:01:43.855Z</time></trkpt><trkpt lat="35.2943651" lon="10.7006347"><ele>111.33333333333333</ele><time>2026-04-25T10:01:45.856Z</time></trkpt><trkpt lat="35.2943081" lon="10.7007132"><ele>111.0</ele><time>2026-04-25T10:01:47.853Z</time></trkpt><trkpt lat="35.2942551" lon="10.700802"><ele>111.0</ele><time>2026-04-25T10:01:49.852Z</time></trkpt><trkpt lat="35.2941975" lon="10.7008827"><ele>111.0</ele><time>2026-04-25T10:01:51.854Z</time></trkpt><trkpt lat="35.2941176" lon="10.7009931"><ele>111.0</ele><time>2026-04-25T10:01:53.846Z</time></trkpt><trkpt lat="35.2940365" lon="10.7011133"><ele>111.0</ele><time>2026-04-25T10:01:55.848Z</time></trkpt><trkpt lat="35.2939546" lon="10.7012214"><ele>110.83333333333333</ele><time>2026-04-25T10:01:57.843Z</time></trkpt><trkpt lat="35.2938755" lon="10.7013387"><ele>110.66666666666666</ele><time>2026-04-25T10:01:59.851Z</time></trkpt><trkpt lat="35.2938294" lon="10.7014054"><ele>110.5</ele><time>2026-04-25T10:02:00.85Z</time></trkpt><trkpt lat="35.2937798" lon="10.7014667"><ele>110.33333333333333</ele><time>2026-04-25T10:02:01.855Z</time></trkpt><trkpt lat="35.2937301" lon="10.7015359"><ele>110.16666666666666</ele><time>2026-04-25T10:02:02.858Z</time></trkpt><trkpt lat="35.2936841" lon="10.701604"><ele>110.0</ele><time>2026-04-25T10:02:03.852Z</time></trkpt><trkpt lat="35.2936311" lon="10.7016699"><ele>109.99999999999999</ele><time>2026-04-25T10:02:04.858Z</time></trkpt><trkpt lat="35.293578" lon="10.7017473"><ele>110.0</ele><time>2026-04-25T10:02:05.853Z</time></trkpt><trkpt lat="35.2935275" lon="10.7018204"><ele>110.0</ele><time>2026-04-25T10:02:06.849Z</time></trkpt><trkpt lat="35.293477" lon="10.7018923"><ele>110.0</ele><time>2026-04-25T10:02:07.848Z</time></trkpt><trkpt lat="35.2934248" lon="10.7019599"><ele>109.99999999999999</ele><time>2026-04-25T10:02:08.846Z</time></trkpt><trkpt lat="35.2933734" lon="10.7020359"><ele>110.0</ele><time>2026-04-25T10:02:09.852Z</time></trkpt><trkpt lat="35.2933198" lon="10.7021066"><ele>110.16666666666666</ele><time>2026-04-25T10:02:10.855Z</time></trkpt><trkpt lat="35.2932647" lon="10.7021772"><ele>110.33333333333333</ele><time>2026-04-25T10:02:11.855Z</time></trkpt><trkpt lat="35.2932168" lon="10.7022429"><ele>110.5</ele><time>2026-04-25T10:02:12.891Z</time></trkpt><trkpt lat="35.2931413" lon="10.7023521"><ele>110.66666666666666</ele><time>2026-04-25T10:02:14.851Z</time></trkpt><trkpt lat="35.2930917" lon="10.7024183"><ele>110.83333333333333</ele><time>2026-04-25T10:02:16.853Z</time></trkpt><trkpt lat="35.293035" lon="10.7024787"><ele>111.0</ele><time>2026-04-25T10:02:26.847Z</time></trkpt><trkpt lat="35.2929831" lon="10.7025409"><ele>111.0</ele><time>2026-04-25T10:02:29.84Z</time></trkpt><trkpt lat="35.2929275" lon="10.7026086"><ele>111.0</ele><time>2026-04-25T10:02:33.851Z</time></trkpt><trkpt lat="35.2928824" lon="10.7026672"><ele>111.0</ele><time>2026-04-25T10:02:36.853Z</time></trkpt><trkpt lat="35.2928406" lon="10.7027253"><ele>111.0</ele><time>2026-04-25T10:02:47.852Z</time></trkpt><trkpt lat="35.2927781" lon="10.7027802"><ele>111.0</ele><time>2026-04-25T10:02:50.851Z</time></trkpt><trkpt lat="35.2927363" lon="10.7028748"><ele>111.0</ele><time>2026-04-25T10:02:53.84Z</time></trkpt><trkpt lat="35.2927522" lon="10.7029596"><ele>111.0</ele><time>2026-04-25T10:02:56.845Z</time></trkpt><trkpt lat="35.2928151" lon="10.7030124"><ele>111.0</ele><time>2026-04-25T10:02:59.846Z</time></trkpt><trkpt lat="35.2928877" lon="10.7030465"><ele>111.0</ele><time>2026-04-25T10:03:01.847Z</time></trkpt><trkpt lat="35.2929511" lon="10.703092"><ele>111.0</ele><time>2026-04-25T10:03:03.849Z</time></trkpt><trkpt lat="35.2930026" lon="10.703148"><ele>111.0</ele><time>2026-04-25T10:03:05.852Z</time></trkpt><trkpt lat="35.2930629" lon="10.7032107"><ele>111.0</ele><time>2026-04-25T10:03:07.849Z</time></trkpt><trkpt lat="35.2931214" lon="10.7032863"><ele>111.0</ele><time>2026-04-25T10:03:09.853Z</time></trkpt><trkpt lat="35.293182" lon="10.7033779"><ele>111.0</ele><time>2026-04-25T10:03:11.862Z</time></trkpt><trkpt lat="35.2932517" lon="10.7034672"><ele>111.0</ele><time>2026-04-25T10:03:13.843Z</time></trkpt><trkpt lat="35.2933459" lon="10.7035647"><ele>111.0</ele><time>2026-04-25T10:03:15.845Z</time></trkpt><trkpt lat="35.2934291" lon="10.7036606"><ele>111.0</ele><time>2026-04-25T10:03:17.855Z</time></trkpt><trkpt lat="35.2935311" lon="10.7037531"><ele>111.0</ele><time>2026-04-25T10:03:19.85Z</time></trkpt><trkpt lat="35.2936176" lon="10.7038341"><ele>111.0</ele><time>2026-04-25T10:03:21.859Z</time></trkpt><trkpt lat="35.2936697" lon="10.7038799"><ele>111.0</ele><time>2026-04-25T10:03:22.844Z</time></trkpt><trkpt lat="35.2937276" lon="10.7039219"><ele>111.0</ele><time>2026-04-25T10:03:23.852Z</time></trkpt><trkpt lat="35.2938254" lon="10.703994"><ele>111.0</ele><time>2026-04-25T10:03:25.848Z</time></trkpt><trkpt lat="35.2939141" lon="10.7040932"><ele>111.0</ele><time>2026-04-25T10:03:27.841Z</time></trkpt><trkpt lat="35.2939935" lon="10.7041922"><ele>111.0</ele><time>2026-04-25T10:03:29.84Z</time></trkpt><trkpt lat="35.2940528" lon="10.7042887"><ele>111.0</ele><time>2026-04-25T10:03:31.841Z</time></trkpt><trkpt lat="35.2941034" lon="10.7043917"><ele>111.0</ele><time>2026-04-25T10:03:33.849Z</time></trkpt><trkpt lat="35.2941504" lon="10.7045005"><ele>111.0</ele><time>2026-04-25T10:03:35.847Z</time></trkpt><trkpt lat="35.2942018" lon="10.7046019"><ele>111.0</ele><time>2026-04-25T10:03:37.854Z</time></trkpt><trkpt lat="35.294259" lon="10.7047036"><ele>111.0</ele><time>2026-04-25T10:03:39.857Z</time></trkpt><trkpt lat="35.2943414" lon="10.7047916"><ele>111.0</ele><time>2026-04-25T10:03:41.846Z</time></trkpt><trkpt lat="35.2944085" lon="10.7048828"><ele>111.0</ele><time>2026-04-25T10:03:43.841Z</time></trkpt><trkpt lat="35.2944766" lon="10.7049916"><ele>111.0</ele><time>2026-04-25T10:03:45.844Z</time></trkpt><trkpt lat="35.2945394" lon="10.705113"><ele>111.0</ele><time>2026-04-25T10:03:47.856Z</time></trkpt><trkpt lat="35.2946097" lon="10.705221"><ele>111.0</ele><time>2026-04-25T10:03:49.848Z</time></trkpt><trkpt lat="35.2946711" lon="10.7053419"><ele>111.0</ele><time>2026-04-25T10:03:51.844Z</time></trkpt><trkpt lat="35.2947359" lon="10.7054744"><ele>111.0</ele><time>2026-04-25T10:03:53.862Z</time></trkpt><trkpt lat="35.2947754" lon="10.7055423"><ele>111.0</ele><time>2026-04-25T10:03:54.852Z</time></trkpt><trkpt lat="35.2948161" lon="10.7056123"><ele>111.14285714285714</ele><time>2026-04-25T10:03:55.848Z</time></trkpt><trkpt lat="35.2948551" lon="10.7056773"><ele>111.28571428571429</ele><time>2026-04-25T10:03:56.848Z</time></trkpt><trkpt lat="35.2948935" lon="10.7057436"><ele>111.42857142857143</ele><time>2026-04-25T10:03:57.851Z</time></trkpt><trkpt lat="35.2949317" lon="10.7058103"><ele>111.57142857142857</ele><time>2026-04-25T10:03:58.849Z</time></trkpt><trkpt lat="35.2949726" lon="10.7058764"><ele>111.71428571428572</ele><time>2026-04-25T10:03:59.848Z</time></trkpt><trkpt lat="35.2950124" lon="10.7059476"><ele>111.85714285714286</ele><time>2026-04-25T10:04:00.843Z</time></trkpt><trkpt lat="35.2950445" lon="10.7060168"><ele>112.0</ele><time>2026-04-25T10:04:01.85Z</time></trkpt><trkpt lat="35.29512" lon="10.7061393"><ele>112.19999999999999</ele><time>2026-04-25T10:04:03.847Z</time></trkpt><trkpt lat="35.2951637" lon="10.706197"><ele>112.39999999999999</ele><time>2026-04-25T10:04:04.847Z</time></trkpt><trkpt lat="35.2952444" lon="10.7063016"><ele>112.60000000000001</ele><time>2026-04-25T10:04:06.852Z</time></trkpt><trkpt lat="35.2953339" lon="10.7063782"><ele>112.80000000000001</ele><time>2026-04-25T10:04:08.849Z</time></trkpt><trkpt lat="35.2954172" lon="10.7064634"><ele>113.0</ele><time>2026-04-25T10:04:10.855Z</time></trkpt><trkpt lat="35.2954765" lon="10.7065739"><ele>112.99999999999999</ele><time>2026-04-25T10:04:12.855Z</time></trkpt><trkpt lat="35.2955324" lon="10.7066635"><ele>113.0</ele><time>2026-04-25T10:04:14.852Z</time></trkpt><trkpt lat="35.2955628" lon="10.706743"><ele>113.0</ele><time>2026-04-25T10:04:16.842Z</time></trkpt><trkpt lat="35.2956073" lon="10.7068322"><ele>113.0</ele><time>2026-04-25T10:04:19.85Z</time></trkpt><trkpt lat="35.2956157" lon="10.7069454"><ele>112.99999999999999</ele><time>2026-04-25T10:04:22.854Z</time></trkpt><trkpt lat="35.2956191" lon="10.7070291"><ele>113.0</ele><time>2026-04-25T10:04:24.859Z</time></trkpt><trkpt lat="35.2956388" lon="10.7071159"><ele>112.57142857142857</ele><time>2026-04-25T10:04:26.852Z</time></trkpt><trkpt lat="35.2956588" lon="10.707195"><ele>112.14285714285714</ele><time>2026-04-25T10:04:28.85Z</time></trkpt><trkpt lat="35.2956544" lon="10.7072828"><ele>111.71428571428571</ele><time>2026-04-25T10:04:30.848Z</time></trkpt><trkpt lat="35.2956498" lon="10.7073894"><ele>111.28571428571428</ele><time>2026-04-25T10:04:33.846Z</time></trkpt><trkpt lat="35.2956404" lon="10.7074682"><ele>110.85714285714286</ele><time>2026-04-25T10:04:35.846Z</time></trkpt><trkpt lat="35.2956144" lon="10.7075386"><ele>110.42857142857142</ele><time>2026-04-25T10:04:37.849Z</time></trkpt><trkpt lat="35.2955997" lon="10.7076496"><ele>110.0</ele><time>2026-04-25T10:04:40.854Z</time></trkpt><trkpt lat="35.2956286" lon="10.7077646"><ele>109.99999999999999</ele><time>2026-04-25T10:04:43.845Z</time></trkpt><trkpt lat="35.2956748" lon="10.7078228"><ele>110.0</ele><time>2026-04-25T10:04:45.846Z</time></trkpt><trkpt lat="35.2957305" lon="10.7079014"><ele>110.0</ele><time>2026-04-25T10:04:48.839Z</time></trkpt><trkpt lat="35.2957914" lon="10.7079271"><ele>110.0</ele><time>2026-04-25T10:04:51.84Z</time></trkpt><trkpt lat="35.295857" lon="10.7079361"><ele>110.0</ele><time>2026-04-25T10:05:47.86Z</time></trkpt><trkpt lat="35.2959312" lon="10.7079493"><ele>109.99999999999999</ele><time>2026-04-25T10:05:50.845Z</time></trkpt><trkpt lat="35.2959982" lon="10.7079745"><ele>110.0</ele><time>2026-04-25T10:05:54.854Z</time></trkpt><trkpt lat="35.2960536" lon="10.7079342"><ele>110.0</ele><time>2026-04-25T10:05:59.846Z</time></trkpt></trkseg><trkseg><trkpt lat="35.2960991" lon="10.7079737"><ele>109.99999999999999</ele><time>2026-04-25T10:43:53.845Z</time></trkpt><trkpt lat="35.2961547" lon="10.7080237"><ele>110.0</ele><time>2026-04-25T10:43:56.853Z</time></trkpt><trkpt lat="35.2962082" lon="10.7080781"><ele>110.0</ele><time>2026-04-25T10:43:59.858Z</time></trkpt><trkpt lat="35.2962537" lon="10.7081554"><ele>110.0</ele><time>2026-04-25T10:44:02.861Z</time></trkpt><trkpt lat="35.2962345" lon="10.7080553"><ele>110.0</ele><time>2026-04-25T10:44:11.857Z</time></trkpt><trkpt lat="35.2961705" lon="10.7080047"><ele>109.99999999999999</ele><time>2026-04-25T10:44:14.856Z</time></trkpt><trkpt lat="35.2961041" lon="10.707986"><ele>110.0</ele><time>2026-04-25T10:44:16.874Z</time></trkpt><trkpt lat="35.2960232" lon="10.7079469"><ele>109.99999999999999</ele><time>2026-04-25T10:44:18.873Z</time></trkpt><trkpt lat="35.2959509" lon="10.7079215"><ele>110.0</ele><time>2026-04-25T10:44:20.873Z</time></trkpt><trkpt lat="35.2958804" lon="10.7079108"><ele>110.0</ele><time>2026-04-25T10:44:22.868Z</time></trkpt><trkpt lat="35.2958138" lon="10.7078927"><ele>110.0</ele><time>2026-04-25T10:44:24.871Z</time></trkpt><trkpt lat="35.2957499" lon="10.7078667"><ele>110.0</ele><time>2026-04-25T10:44:26.865Z</time></trkpt><trkpt lat="35.2956913" lon="10.707811"><ele>109.99999999999999</ele><time>2026-04-25T10:44:29.9Z</time></trkpt><trkpt lat="35.2956397" lon="10.707739"><ele>110.0</ele><time>2026-04-25T10:44:32.868Z</time></trkpt><trkpt lat="35.2955753" lon="10.7076764"><ele>109.99999999999999</ele><time>2026-04-25T10:44:35.886Z</time></trkpt><trkpt lat="35.2954873" lon="10.7076609"><ele>110.0</ele><time>2026-04-25T10:44:38.88Z</time></trkpt><trkpt lat="35.2954284" lon="10.7077108"><ele>110.0</ele><time>2026-04-25T10:44:40.865Z</time></trkpt><trkpt lat="35.2953735" lon="10.7077754"><ele>110.0</ele><time>2026-04-25T10:44:42.866Z</time></trkpt><trkpt lat="35.2953063" lon="10.7078127"><ele>109.99999999999999</ele><time>2026-04-25T10:44:44.87Z</time></trkpt><trkpt lat="35.2952378" lon="10.7078377"><ele>110.0</ele><time>2026-04-25T10:44:47.884Z</time></trkpt><trkpt lat="35.2951686" lon="10.7078917"><ele>110.33333333333333</ele><time>2026-04-25T10:44:50.871Z</time></trkpt><trkpt lat="35.295093" lon="10.7079442"><ele>110.66666666666666</ele><time>2026-04-25T10:44:53.876Z</time></trkpt><trkpt lat="35.2950337" lon="10.7079795"><ele>111.0</ele><time>2026-04-25T10:44:56.865Z</time></trkpt><trkpt lat="35.2949677" lon="10.7080135"><ele>111.33333333333334</ele><time>2026-04-25T10:44:58.873Z</time></trkpt><trkpt lat="35.2948878" lon="10.7080618"><ele>111.66666666666667</ele><time>2026-04-25T10:45:00.879Z</time></trkpt><trkpt lat="35.2948046" lon="10.708107"><ele>112.0</ele><time>2026-04-25T10:45:02.879Z</time></trkpt><trkpt lat="35.294721" lon="10.7081509"><ele>112.0</ele><time>2026-04-25T10:45:04.868Z</time></trkpt><trkpt lat="35.2946365" lon="10.7082099"><ele>111.99999999999999</ele><time>2026-04-25T10:45:06.869Z</time></trkpt><trkpt lat="35.2945439" lon="10.7082726"><ele>111.99999999999999</ele><time>2026-04-25T10:45:08.871Z</time></trkpt><trkpt lat="35.2944514" lon="10.7083402"><ele>112.0</ele><time>2026-04-25T10:45:10.867Z</time></trkpt><trkpt lat="35.2943678" lon="10.7083947"><ele>112.0</ele><time>2026-04-25T10:45:12.869Z</time></trkpt><trkpt lat="35.2942915" lon="10.7084269"><ele>112.00000000000001</ele><time>2026-04-25T10:45:14.875Z</time></trkpt><trkpt lat="35.2942295" lon="10.7084676"><ele>112.0</ele><time>2026-04-25T10:45:16.871Z</time></trkpt><trkpt lat="35.2941536" lon="10.7085192"><ele>112.0</ele><time>2026-04-25T10:45:18.881Z</time></trkpt><trkpt lat="35.2940656" lon="10.708562"><ele>112.0</ele><time>2026-04-25T10:45:20.886Z</time></trkpt><trkpt lat="35.2939945" lon="10.7086186"><ele>112.00000000000001</ele><time>2026-04-25T10:45:22.866Z</time></trkpt><trkpt lat="35.2939331" lon="10.7086638"><ele>112.0</ele><time>2026-04-25T10:45:24.867Z</time></trkpt><trkpt lat="35.2938667" lon="10.7087006"><ele>112.14285714285714</ele><time>2026-04-25T10:45:26.886Z</time></trkpt><trkpt lat="35.2938034" lon="10.7087252"><ele>112.28571428571428</ele><time>2026-04-25T10:45:28.88Z</time></trkpt><trkpt lat="35.2937371" lon="10.7087233"><ele>112.42857142857143</ele><time>2026-04-25T10:45:39.878Z</time></trkpt><trkpt lat="35.2936713" lon="10.7087028"><ele>112.57142857142857</ele><time>2026-04-25T10:45:44.882Z</time></trkpt><trkpt lat="35.2936021" lon="10.7086983"><ele>112.71428571428571</ele><time>2026-04-25T10:45:51.872Z</time></trkpt><trkpt lat="35.2935215" lon="10.7087051"><ele>112.85714285714286</ele><time>2026-04-25T10:45:57.88Z</time></trkpt><trkpt lat="35.293469" lon="10.7087577"><ele>113.0</ele><time>2026-04-25T10:45:59.874Z</time></trkpt><trkpt lat="35.2934287" lon="10.7088211"><ele>112.99999999999999</ele><time>2026-04-25T10:46:01.874Z</time></trkpt><trkpt lat="35.2933551" lon="10.7088627"><ele>113.0</ele><time>2026-04-25T10:46:04.867Z</time></trkpt><trkpt lat="35.2932809" lon="10.7089065"><ele>113.0</ele><time>2026-04-25T10:46:06.881Z</time></trkpt><trkpt lat="35.2931929" lon="10.7089337"><ele>113.0</ele><time>2026-04-25T10:46:08.876Z</time></trkpt><trkpt lat="35.2931018" lon="10.7089427"><ele>112.99999999999999</ele><time>2026-04-25T10:46:10.884Z</time></trkpt><trkpt lat="35.2930342" lon="10.7089564"><ele>113.0</ele><time>2026-04-25T10:46:12.877Z</time></trkpt><trkpt lat="35.2929637" lon="10.708959"><ele>113.16666666666666</ele><time>2026-04-25T10:46:15.867Z</time></trkpt><trkpt lat="35.2929336" lon="10.7088908"><ele>113.33333333333333</ele><time>2026-04-25T10:46:17.867Z</time></trkpt><trkpt lat="35.2929157" lon="10.7088136"><ele>113.5</ele><time>2026-04-25T10:46:18.867Z</time></trkpt><trkpt lat="35.2928904" lon="10.7087342"><ele>113.66666666666666</ele><time>2026-04-25T10:46:19.851Z</time></trkpt><trkpt lat="35.2928705" lon="10.708657"><ele>113.83333333333333</ele><time>2026-04-25T10:46:20.875Z</time></trkpt><trkpt lat="35.2928366" lon="10.7085122"><ele>114.0</ele><time>2026-04-25T10:46:22.878Z</time></trkpt><trkpt lat="35.2928086" lon="10.7083873"><ele>113.4</ele><time>2026-04-25T10:46:24.866Z</time></trkpt><trkpt lat="35.2927752" lon="10.7082647"><ele>112.80000000000001</ele><time>2026-04-25T10:46:26.877Z</time></trkpt><trkpt lat="35.2927306" lon="10.7081649"><ele>112.19999999999999</ele><time>2026-04-25T10:46:28.876Z</time></trkpt><trkpt lat="35.2927053" lon="10.7080289"><ele>111.6</ele><time>2026-04-25T10:46:30.881Z</time></trkpt><trkpt lat="35.2926827" lon="10.7078903"><ele>111.0</ele><time>2026-04-25T10:46:32.86Z</time></trkpt><trkpt lat="35.2926537" lon="10.707765"><ele>111.19999999999999</ele><time>2026-04-25T10:46:34.871Z</time></trkpt><trkpt lat="35.2926306" lon="10.7076689"><ele>111.39999999999999</ele><time>2026-04-25T10:46:36.873Z</time></trkpt><trkpt lat="35.2926093" lon="10.7075888"><ele>111.6</ele><time>2026-04-25T10:46:38.869Z</time></trkpt><trkpt lat="35.2925773" lon="10.7075057"><ele>111.8</ele><time>2026-04-25T10:46:40.877Z</time></trkpt><trkpt lat="35.2925316" lon="10.7073776"><ele>112.0</ele><time>2026-04-25T10:46:42.874Z</time></trkpt><trkpt lat="35.2925013" lon="10.7072474"><ele>112.0</ele><time>2026-04-25T10:46:44.867Z</time></trkpt><trkpt lat="35.292473" lon="10.7071271"><ele>111.99999999999999</ele><time>2026-04-25T10:46:46.872Z</time></trkpt><trkpt lat="35.2924429" lon="10.7070104"><ele>111.99999999999999</ele><time>2026-04-25T10:46:48.87Z</time></trkpt><trkpt lat="35.2924256" lon="10.7068954"><ele>112.0</ele><time>2026-04-25T10:46:50.871Z</time></trkpt><trkpt lat="35.2924093" lon="10.7067682"><ele>112.0</ele><time>2026-04-25T10:46:52.885Z</time></trkpt><trkpt lat="35.2924062" lon="10.7066199"><ele>111.8</ele><time>2026-04-25T10:46:54.871Z</time></trkpt><trkpt lat="35.2924193" lon="10.706467"><ele>111.6</ele><time>2026-04-25T10:46:56.873Z</time></trkpt><trkpt lat="35.2924266" lon="10.7063237"><ele>111.39999999999999</ele><time>2026-04-25T10:46:58.87Z</time></trkpt><trkpt lat="35.2924394" lon="10.7062287"><ele>111.19999999999999</ele><time>2026-04-25T10:47:00.892Z</time></trkpt><trkpt lat="35.2924293" lon="10.7061287"><ele>111.0</ele><time>2026-04-25T10:47:05.873Z</time></trkpt><trkpt lat="35.292368" lon="10.7060979"><ele>111.0</ele><time>2026-04-25T10:47:07.897Z</time></trkpt><trkpt lat="35.2922919" lon="10.7060836"><ele>111.0</ele><time>2026-04-25T10:47:09.875Z</time></trkpt><trkpt lat="35.2922069" lon="10.7060593"><ele>111.0</ele><time>2026-04-25T10:47:12.867Z</time></trkpt><trkpt lat="35.2921373" lon="10.7060465"><ele>111.0</ele><time>2026-04-25T10:47:14.873Z</time></trkpt><trkpt lat="35.2920693" lon="10.706031"><ele>111.0</ele><time>2026-04-25T10:47:16.873Z</time></trkpt><trkpt lat="35.2920013" lon="10.706007"><ele>111.0</ele><time>2026-04-25T10:47:18.887Z</time></trkpt><trkpt lat="35.2919189" lon="10.7059815"><ele>111.0</ele><time>2026-04-25T10:47:20.88Z</time></trkpt><trkpt lat="35.2918325" lon="10.7059524"><ele>111.0</ele><time>2026-04-25T10:47:22.88Z</time></trkpt><trkpt lat="35.2917454" lon="10.7059292"><ele>111.0</ele><time>2026-04-25T10:47:24.864Z</time></trkpt><trkpt lat="35.2916623" lon="10.7059099"><ele>111.0</ele><time>2026-04-25T10:47:26.886Z</time></trkpt><trkpt lat="35.2915776" lon="10.7058883"><ele>111.0</ele><time>2026-04-25T10:47:28.877Z</time></trkpt><trkpt lat="35.2915002" lon="10.7058694"><ele>111.0</ele><time>2026-04-25T10:47:30.876Z</time></trkpt><trkpt lat="35.2914163" lon="10.7058524"><ele>110.8</ele><time>2026-04-25T10:47:32.883Z</time></trkpt><trkpt lat="35.2913151" lon="10.7058448"><ele>110.6</ele><time>2026-04-25T10:47:34.888Z</time></trkpt><trkpt lat="35.2912037" lon="10.7058318"><ele>110.4</ele><time>2026-04-25T10:47:36.882Z</time></trkpt><trkpt lat="35.291138" lon="10.7058247"><ele>110.2</ele><time>2026-04-25T10:47:37.875Z</time></trkpt><trkpt lat="35.2910697" lon="10.7058214"><ele>110.0</ele><time>2026-04-25T10:47:38.873Z</time></trkpt><trkpt lat="35.29095" lon="10.7058175"><ele>109.99999999999999</ele><time>2026-04-25T10:47:40.871Z</time></trkpt><trkpt lat="35.2908855" lon="10.7058135"><ele>110.0</ele><time>2026-04-25T10:47:41.874Z</time></trkpt><trkpt lat="35.2908212" lon="10.7058075"><ele>110.0</ele><time>2026-04-25T10:47:42.872Z</time></trkpt><trkpt lat="35.2907001" lon="10.7058054"><ele>110.0</ele><time>2026-04-25T10:47:44.883Z</time></trkpt><trkpt lat="35.2906329" lon="10.7058064"><ele>109.99999999999999</ele><time>2026-04-25T10:47:45.863Z</time></trkpt><trkpt lat="35.2905683" lon="10.7058113"><ele>110.0</ele><time>2026-04-25T10:47:46.87Z</time></trkpt><trkpt lat="35.2904482" lon="10.7058092"><ele>110.4</ele><time>2026-04-25T10:47:48.86Z</time></trkpt><trkpt lat="35.2903347" lon="10.7058215"><ele>110.8</ele><time>2026-04-25T10:47:50.875Z</time></trkpt><trkpt lat="35.2902276" lon="10.7058306"><ele>111.19999999999999</ele><time>2026-04-25T10:47:52.875Z</time></trkpt><trkpt lat="35.2901226" lon="10.7058356"><ele>111.6</ele><time>2026-04-25T10:47:54.865Z</time></trkpt><trkpt lat="35.2900266" lon="10.7058448"><ele>112.0</ele><time>2026-04-25T10:47:56.871Z</time></trkpt><trkpt lat="35.2899581" lon="10.7058495"><ele>112.00000000000001</ele><time>2026-04-25T10:47:58.863Z</time></trkpt><trkpt lat="35.2898639" lon="10.7058649"><ele>112.0</ele><time>2026-04-25T10:48:01.881Z</time></trkpt><trkpt lat="35.289796" lon="10.7058693"><ele>112.0</ele><time>2026-04-25T10:48:03.863Z</time></trkpt><trkpt lat="35.2897184" lon="10.705867"><ele>112.0</ele><time>2026-04-25T10:48:05.887Z</time></trkpt><trkpt lat="35.289615" lon="10.7058588"><ele>112.00000000000001</ele><time>2026-04-25T10:48:07.877Z</time></trkpt><trkpt lat="35.2895511" lon="10.7058571"><ele>112.0</ele><time>2026-04-25T10:48:08.866Z</time></trkpt><trkpt lat="35.2894847" lon="10.7058522"><ele>112.00000000000001</ele><time>2026-04-25T10:48:09.841Z</time></trkpt><trkpt lat="35.2894084" lon="10.7058499"><ele>112.0</ele><time>2026-04-25T10:48:10.856Z</time></trkpt><trkpt lat="35.2893343" lon="10.7058448"><ele>112.0</ele><time>2026-04-25T10:48:11.86Z</time></trkpt><trkpt lat="35.2892559" lon="10.7058408"><ele>112.0</ele><time>2026-04-25T10:48:12.899Z</time></trkpt><trkpt lat="35.2891768" lon="10.7058302"><ele>112.00000000000001</ele><time>2026-04-25T10:48:13.865Z</time></trkpt><trkpt lat="35.2890946" lon="10.7058184"><ele>112.0</ele><time>2026-04-25T10:48:14.866Z</time></trkpt><trkpt lat="35.2890121" lon="10.7058046"><ele>112.0</ele><time>2026-04-25T10:48:15.846Z</time></trkpt><trkpt lat="35.2889356" lon="10.7057935"><ele>112.0</ele><time>2026-04-25T10:48:16.85Z</time></trkpt><trkpt lat="35.2888591" lon="10.7057825"><ele>112.0</ele><time>2026-04-25T10:48:17.866Z</time></trkpt><trkpt lat="35.2887859" lon="10.7057624"><ele>112.0</ele><time>2026-04-25T10:48:18.855Z</time></trkpt><trkpt lat="35.2887134" lon="10.7057457"><ele>112.0</ele><time>2026-04-25T10:48:19.861Z</time></trkpt><trkpt lat="35.2886464" lon="10.7057296"><ele>112.0</ele><time>2026-04-25T10:48:20.845Z</time></trkpt><trkpt lat="35.2885835" lon="10.7057179"><ele>112.0</ele><time>2026-04-25T10:48:21.87Z</time></trkpt><trkpt lat="35.2884686" lon="10.7057027"><ele>111.39999999999999</ele><time>2026-04-25T10:48:23.864Z</time></trkpt><trkpt lat="35.2883563" lon="10.7056857"><ele>110.79999999999998</ele><time>2026-04-25T10:48:25.865Z</time></trkpt><trkpt lat="35.2882641" lon="10.7056759"><ele>110.2</ele><time>2026-04-25T10:48:27.859Z</time></trkpt><trkpt lat="35.2881938" lon="10.7056598"><ele>109.6</ele><time>2026-04-25T10:48:29.883Z</time></trkpt><trkpt lat="35.2881045" lon="10.7056395"><ele>109.0</ele><time>2026-04-25T10:48:31.871Z</time></trkpt><trkpt lat="35.2879671" lon="10.7056194"><ele>109.00000000000001</ele><time>2026-04-25T10:48:33.863Z</time></trkpt><trkpt lat="35.2878818" lon="10.7056031"><ele>109.0</ele><time>2026-04-25T10:48:34.87Z</time></trkpt><trkpt lat="35.2877973" lon="10.7055859"><ele>109.0</ele><time>2026-04-25T10:48:35.872Z</time></trkpt><trkpt lat="35.2877111" lon="10.7055723"><ele>109.0</ele><time>2026-04-25T10:48:36.873Z</time></trkpt><trkpt lat="35.2876251" lon="10.7055597"><ele>109.00000000000001</ele><time>2026-04-25T10:48:37.866Z</time></trkpt><trkpt lat="35.2875393" lon="10.7055441"><ele>109.0</ele><time>2026-04-25T10:48:38.864Z</time></trkpt><trkpt lat="35.2874544" lon="10.7055313"><ele>109.00000000000001</ele><time>2026-04-25T10:48:39.858Z</time></trkpt><trkpt lat="35.287369" lon="10.7055216"><ele>109.0</ele><time>2026-04-25T10:48:40.875Z</time></trkpt><trkpt lat="35.2872878" lon="10.7055126"><ele>109.0</ele><time>2026-04-25T10:48:41.877Z</time></trkpt><trkpt lat="35.287207" lon="10.7054969"><ele>109.0</ele><time>2026-04-25T10:48:42.867Z</time></trkpt><trkpt lat="35.2871277" lon="10.7054808"><ele>109.00000000000001</ele><time>2026-04-25T10:48:43.867Z</time></trkpt><trkpt lat="35.2870478" lon="10.7054678"><ele>109.0</ele><time>2026-04-25T10:48:44.858Z</time></trkpt><trkpt lat="35.2869649" lon="10.7054573"><ele>109.00000000000001</ele><time>2026-04-25T10:48:45.864Z</time></trkpt><trkpt lat="35.286882" lon="10.705444"><ele>109.0</ele><time>2026-04-25T10:48:46.863Z</time></trkpt><trkpt lat="35.2867979" lon="10.7054327"><ele>109.0</ele><time>2026-04-25T10:48:47.874Z</time></trkpt><trkpt lat="35.2867083" lon="10.7054146"><ele>109.0</ele><time>2026-04-25T10:48:48.861Z</time></trkpt><trkpt lat="35.2866238" lon="10.7053978"><ele>109.00000000000001</ele><time>2026-04-25T10:48:49.87Z</time></trkpt><trkpt lat="35.2865357" lon="10.7053809"><ele>109.0</ele><time>2026-04-25T10:48:50.873Z</time></trkpt><trkpt lat="35.2864513" lon="10.7053652"><ele>108.50000000000001</ele><time>2026-04-25T10:48:51.863Z</time></trkpt><trkpt lat="35.2863702" lon="10.7053483"><ele>108.0</ele><time>2026-04-25T10:48:52.885Z</time></trkpt><trkpt lat="35.286288" lon="10.7053356"><ele>107.5</ele><time>2026-04-25T10:48:53.869Z</time></trkpt><trkpt lat="35.28621" lon="10.7053212"><ele>107.0</ele><time>2026-04-25T10:48:54.86Z</time></trkpt><trkpt lat="35.2861284" lon="10.7053087"><ele>106.50000000000001</ele><time>2026-04-25T10:48:55.867Z</time></trkpt><trkpt lat="35.2860538" lon="10.7052939"><ele>106.0</ele><time>2026-04-25T10:48:56.876Z</time></trkpt><trkpt lat="35.2859884" lon="10.705278"><ele>106.0</ele><time>2026-04-25T10:48:57.869Z</time></trkpt><trkpt lat="35.2859221" lon="10.7052642"><ele>106.0</ele><time>2026-04-25T10:48:58.859Z</time></trkpt><trkpt lat="35.2858009" lon="10.7052421"><ele>106.0</ele><time>2026-04-25T10:49:00.873Z</time></trkpt><trkpt lat="35.2856976" lon="10.7052225"><ele>106.0</ele><time>2026-04-25T10:49:02.869Z</time></trkpt><trkpt lat="35.2856113" lon="10.705211"><ele>106.0</ele><time>2026-04-25T10:49:04.878Z</time></trkpt><trkpt lat="35.2855041" lon="10.7051951"><ele>106.6</ele><time>2026-04-25T10:49:06.867Z</time></trkpt><trkpt lat="35.2854017" lon="10.7051712"><ele>107.19999999999999</ele><time>2026-04-25T10:49:08.881Z</time></trkpt><trkpt lat="35.2852978" lon="10.7051557"><ele>107.80000000000001</ele><time>2026-04-25T10:49:10.865Z</time></trkpt><trkpt lat="35.2852001" lon="10.7051488"><ele>108.4</ele><time>2026-04-25T10:49:12.865Z</time></trkpt><trkpt lat="35.2851034" lon="10.7051287"><ele>109.0</ele><time>2026-04-25T10:49:14.865Z</time></trkpt><trkpt lat="35.285029" lon="10.7051113"><ele>109.0</ele><time>2026-04-25T10:49:16.858Z</time></trkpt><trkpt lat="35.2849548" lon="10.7050942"><ele>109.0</ele><time>2026-04-25T10:49:18.872Z</time></trkpt><trkpt lat="35.2848576" lon="10.7050706"><ele>109.0</ele><time>2026-04-25T10:49:20.869Z</time></trkpt><trkpt lat="35.2847463" lon="10.7050531"><ele>109.0</ele><time>2026-04-25T10:49:22.859Z</time></trkpt><trkpt lat="35.2846318" lon="10.7050309"><ele>109.0</ele><time>2026-04-25T10:49:24.862Z</time></trkpt><trkpt lat="35.2845132" lon="10.7050103"><ele>109.16666666666667</ele><time>2026-04-25T10:49:26.883Z</time></trkpt><trkpt lat="35.2843971" lon="10.7049947"><ele>109.33333333333334</ele><time>2026-04-25T10:49:28.868Z</time></trkpt><trkpt lat="35.2843204" lon="10.7049869"><ele>109.5</ele><time>2026-04-25T10:49:30.859Z</time></trkpt><trkpt lat="35.2842403" lon="10.7049891"><ele>109.66666666666666</ele><time>2026-04-25T10:49:37.885Z</time></trkpt><trkpt lat="35.2841488" lon="10.704975"><ele>109.83333333333333</ele><time>2026-04-25T10:49:39.87Z</time></trkpt><trkpt lat="35.284068" lon="10.7049543"><ele>110.0</ele><time>2026-04-25T10:49:41.863Z</time></trkpt><trkpt lat="35.2839983" lon="10.7049461"><ele>109.66666666666666</ele><time>2026-04-25T10:49:43.868Z</time></trkpt><trkpt lat="35.2839211" lon="10.7049408"><ele>109.33333333333333</ele><time>2026-04-25T10:49:45.862Z</time></trkpt><trkpt lat="35.2838462" lon="10.7049237"><ele>109.0</ele><time>2026-04-25T10:49:47.864Z</time></trkpt><trkpt lat="35.2837617" lon="10.704907"><ele>108.66666666666666</ele><time>2026-04-25T10:49:49.853Z</time></trkpt><trkpt lat="35.2836667" lon="10.7048844"><ele>108.33333333333333</ele><time>2026-04-25T10:49:51.855Z</time></trkpt><trkpt lat="35.2835649" lon="10.7048676"><ele>108.0</ele><time>2026-04-25T10:49:53.868Z</time></trkpt><trkpt lat="35.2834448" lon="10.7048455"><ele>108.0</ele><time>2026-04-25T10:49:55.857Z</time></trkpt><trkpt lat="35.2833229" lon="10.7048184"><ele>108.00000000000001</ele><time>2026-04-25T10:49:57.863Z</time></trkpt><trkpt lat="35.2831974" lon="10.704801"><ele>108.00000000000001</ele><time>2026-04-25T10:49:59.882Z</time></trkpt><trkpt lat="35.2830749" lon="10.70478"><ele>108.0</ele><time>2026-04-25T10:50:01.853Z</time></trkpt><trkpt lat="35.2830113" lon="10.7047694"><ele>108.0</ele><time>2026-04-25T10:50:02.87Z</time></trkpt><trkpt lat="35.2828898" lon="10.704744"><ele>108.2</ele><time>2026-04-25T10:50:04.876Z</time></trkpt><trkpt lat="35.282825" lon="10.7047269"><ele>108.4</ele><time>2026-04-25T10:50:05.875Z</time></trkpt><trkpt lat="35.2827596" lon="10.7047091"><ele>108.60000000000001</ele><time>2026-04-25T10:50:06.864Z</time></trkpt><trkpt lat="35.282646" lon="10.7046642"><ele>108.80000000000001</ele><time>2026-04-25T10:50:08.87Z</time></trkpt><trkpt lat="35.2825574" lon="10.7045849"><ele>109.0</ele><time>2026-04-25T10:50:10.856Z</time></trkpt><trkpt lat="35.2825087" lon="10.7044736"><ele>108.83333333333334</ele><time>2026-04-25T10:50:12.868Z</time></trkpt><trkpt lat="35.2824638" lon="10.70438"><ele>108.66666666666667</ele><time>2026-04-25T10:50:14.857Z</time></trkpt><trkpt lat="35.2823979" lon="10.7043456"><ele>108.5</ele><time>2026-04-25T10:50:16.88Z</time></trkpt><trkpt lat="35.2822992" lon="10.7043332"><ele>108.33333333333334</ele><time>2026-04-25T10:50:18.865Z</time></trkpt><trkpt lat="35.2822202" lon="10.7043339"><ele>108.16666666666667</ele><time>2026-04-25T10:50:19.86Z</time></trkpt><trkpt lat="35.2821219" lon="10.7043389"><ele>108.0</ele><time>2026-04-25T10:50:20.862Z</time></trkpt><trkpt lat="35.2820078" lon="10.7043488"><ele>108.0</ele><time>2026-04-25T10:50:21.877Z</time></trkpt><trkpt lat="35.281886" lon="10.7043622"><ele>108.0</ele><time>2026-04-25T10:50:22.862Z</time></trkpt><trkpt lat="35.2817564" lon="10.7043823"><ele>108.0</ele><time>2026-04-25T10:50:23.851Z</time></trkpt><trkpt lat="35.2816155" lon="10.704389"><ele>108.0</ele><time>2026-04-25T10:50:24.857Z</time></trkpt><trkpt lat="35.2814699" lon="10.7043883"><ele>107.75</ele><time>2026-04-25T10:50:25.878Z</time></trkpt><trkpt lat="35.2813253" lon="10.7043803"><ele>107.5</ele><time>2026-04-25T10:50:26.861Z</time></trkpt><trkpt lat="35.2811755" lon="10.7043723"><ele>107.25</ele><time>2026-04-25T10:50:27.867Z</time></trkpt><trkpt lat="35.2810251" lon="10.7043597"><ele>107.0</ele><time>2026-04-25T10:50:28.864Z</time></trkpt><trkpt lat="35.2808701" lon="10.7043483"><ele>107.0</ele><time>2026-04-25T10:50:29.857Z</time></trkpt><trkpt lat="35.2807138" lon="10.7043337"><ele>107.0</ele><time>2026-04-25T10:50:30.862Z</time></trkpt><trkpt lat="35.2805614" lon="10.7043095"><ele>107.0</ele><time>2026-04-25T10:50:31.878Z</time></trkpt><trkpt lat="35.2804095" lon="10.7042838"><ele>108.33333333333333</ele><time>2026-04-25T10:50:32.861Z</time></trkpt><trkpt lat="35.2802627" lon="10.7042594"><ele>109.66666666666666</ele><time>2026-04-25T10:50:33.863Z</time></trkpt><trkpt lat="35.2801127" lon="10.7042343"><ele>111.0</ele><time>2026-04-25T10:50:34.888Z</time></trkpt><trkpt lat="35.2799638" lon="10.7042078"><ele>111.0</ele><time>2026-04-25T10:50:35.87Z</time></trkpt><trkpt lat="35.279813" lon="10.7041786"><ele>111.0</ele><time>2026-04-25T10:50:36.872Z</time></trkpt><trkpt lat="35.2796657" lon="10.7041509"><ele>111.0</ele><time>2026-04-25T10:50:37.88Z</time></trkpt><trkpt lat="35.2795194" lon="10.7041212"><ele>110.75</ele><time>2026-04-25T10:50:38.869Z</time></trkpt><trkpt lat="35.2793751" lon="10.7040954"><ele>110.5</ele><time>2026-04-25T10:50:39.863Z</time></trkpt><trkpt lat="35.2792314" lon="10.7040737"><ele>110.25</ele><time>2026-04-25T10:50:40.861Z</time></trkpt><trkpt lat="35.2790917" lon="10.7040521"><ele>110.0</ele><time>2026-04-25T10:50:41.889Z</time></trkpt><trkpt lat="35.2789448" lon="10.7040289"><ele>110.75</ele><time>2026-04-25T10:50:42.871Z</time></trkpt><trkpt lat="35.2787961" lon="10.7040006"><ele>111.5</ele><time>2026-04-25T10:50:43.882Z</time></trkpt><trkpt lat="35.2786472" lon="10.7039704"><ele>112.25</ele><time>2026-04-25T10:50:44.864Z</time></trkpt><trkpt lat="35.2785024" lon="10.7039447"><ele>113.0</ele><time>2026-04-25T10:50:45.871Z</time></trkpt><trkpt lat="35.2783523" lon="10.7039198"><ele>113.0</ele><time>2026-04-25T10:50:46.868Z</time></trkpt><trkpt lat="35.2781984" lon="10.7038944"><ele>113.0</ele><time>2026-04-25T10:50:47.876Z</time></trkpt><trkpt lat="35.2780425" lon="10.7038622"><ele>113.0</ele><time>2026-04-25T10:50:48.859Z</time></trkpt><trkpt lat="35.2778894" lon="10.7038348"><ele>112.33333333333333</ele><time>2026-04-25T10:50:49.862Z</time></trkpt><trkpt lat="35.2777364" lon="10.7038074"><ele>111.66666666666666</ele><time>2026-04-25T10:50:50.867Z</time></trkpt><trkpt lat="35.2775864" lon="10.7037812"><ele>111.0</ele><time>2026-04-25T10:50:51.873Z</time></trkpt><trkpt lat="35.2774361" lon="10.7037558"><ele>111.0</ele><time>2026-04-25T10:50:52.87Z</time></trkpt><trkpt lat="35.2772836" lon="10.7037265"><ele>111.0</ele><time>2026-04-25T10:50:53.871Z</time></trkpt><trkpt lat="35.2771335" lon="10.7037025"><ele>111.0</ele><time>2026-04-25T10:50:54.869Z</time></trkpt><trkpt lat="35.2769851" lon="10.7036776"><ele>111.33333333333334</ele><time>2026-04-25T10:50:55.87Z</time></trkpt><trkpt lat="35.2768327" lon="10.7036564"><ele>111.66666666666667</ele><time>2026-04-25T10:50:56.856Z</time></trkpt><trkpt lat="35.2766819" lon="10.703627"><ele>112.0</ele><time>2026-04-25T10:50:57.847Z</time></trkpt><trkpt lat="35.2765337" lon="10.703596"><ele>112.33333333333334</ele><time>2026-04-25T10:50:58.857Z</time></trkpt><trkpt lat="35.276387" lon="10.7035683"><ele>112.66666666666666</ele><time>2026-04-25T10:50:59.868Z</time></trkpt><trkpt lat="35.2762368" lon="10.7035443"><ele>113.0</ele><time>2026-04-25T10:51:00.864Z</time></trkpt><trkpt lat="35.2760816" lon="10.703517"><ele>113.0</ele><time>2026-04-25T10:51:01.859Z</time></trkpt><trkpt lat="35.275926" lon="10.7034894"><ele>113.0</ele><time>2026-04-25T10:51:02.861Z</time></trkpt><trkpt lat="35.2757735" lon="10.7034675"><ele>113.0</ele><time>2026-04-25T10:51:03.868Z</time></trkpt><trkpt lat="35.2756211" lon="10.7034436"><ele>112.33333333333333</ele><time>2026-04-25T10:51:04.865Z</time></trkpt><trkpt lat="35.2754593" lon="10.7034166"><ele>111.66666666666666</ele><time>2026-04-25T10:51:05.863Z</time></trkpt><trkpt lat="35.2752887" lon="10.7033882"><ele>111.0</ele><time>2026-04-25T10:51:06.891Z</time></trkpt><trkpt lat="35.2751126" lon="10.7033555"><ele>111.0</ele><time>2026-04-25T10:51:07.872Z</time></trkpt><trkpt lat="35.274932" lon="10.7033207"><ele>111.0</ele><time>2026-04-25T10:51:08.865Z</time></trkpt><trkpt lat="35.2747513" lon="10.703291"><ele>111.0</ele><time>2026-04-25T10:51:09.876Z</time></trkpt><trkpt lat="35.2745671" lon="10.7032599"><ele>111.66666666666666</ele><time>2026-04-25T10:51:10.868Z</time></trkpt><trkpt lat="35.274375" lon="10.703229"><ele>112.33333333333333</ele><time>2026-04-25T10:51:11.876Z</time></trkpt><trkpt lat="35.2741827" lon="10.7031926"><ele>113.0</ele><time>2026-04-25T10:51:12.874Z</time></trkpt><trkpt lat="35.273995" lon="10.7031563"><ele>113.33333333333333</ele><time>2026-04-25T10:51:13.882Z</time></trkpt><trkpt lat="35.2738063" lon="10.7031222"><ele>113.66666666666666</ele><time>2026-04-25T10:51:14.877Z</time></trkpt><trkpt lat="35.2736164" lon="10.7030907"><ele>114.0</ele><time>2026-04-25T10:51:15.868Z</time></trkpt><trkpt lat="35.2734287" lon="10.703059"><ele>114.0</ele><time>2026-04-25T10:51:16.863Z</time></trkpt><trkpt lat="35.2732435" lon="10.7030271"><ele>114.0</ele><time>2026-04-25T10:51:17.883Z</time></trkpt><trkpt lat="35.2730614" lon="10.7029918"><ele>114.0</ele><time>2026-04-25T10:51:18.872Z</time></trkpt><trkpt lat="35.272874" lon="10.7029587"><ele>114.0</ele><time>2026-04-25T10:51:19.865Z</time></trkpt><trkpt lat="35.2726869" lon="10.7029319"><ele>114.0</ele><time>2026-04-25T10:51:20.857Z</time></trkpt><trkpt lat="35.2725036" lon="10.7029046"><ele>114.0</ele><time>2026-04-25T10:51:21.877Z</time></trkpt><trkpt lat="35.2723168" lon="10.7028693"><ele>112.66666666666666</ele><time>2026-04-25T10:51:22.86Z</time></trkpt><trkpt lat="35.2721295" lon="10.7028352"><ele>111.33333333333333</ele><time>2026-04-25T10:51:23.872Z</time></trkpt><trkpt lat="35.2719434" lon="10.7027964"><ele>110.0</ele><time>2026-04-25T10:51:24.864Z</time></trkpt><trkpt lat="35.2717618" lon="10.7027637"><ele>110.0</ele><time>2026-04-25T10:51:25.854Z</time></trkpt><trkpt lat="35.2715732" lon="10.7027277"><ele>110.0</ele><time>2026-04-25T10:51:26.87Z</time></trkpt><trkpt lat="35.2713855" lon="10.7026927"><ele>110.0</ele><time>2026-04-25T10:51:27.871Z</time></trkpt><trkpt lat="35.2711995" lon="10.702663"><ele>110.66666666666666</ele><time>2026-04-25T10:51:28.864Z</time></trkpt><trkpt lat="35.2710147" lon="10.7026349"><ele>111.33333333333334</ele><time>2026-04-25T10:51:29.867Z</time></trkpt><trkpt lat="35.2708272" lon="10.7026054"><ele>112.0</ele><time>2026-04-25T10:51:30.858Z</time></trkpt><trkpt lat="35.270639" lon="10.7025732"><ele>111.33333333333334</ele><time>2026-04-25T10:51:31.866Z</time></trkpt><trkpt lat="35.2704522" lon="10.7025397"><ele>110.66666666666666</ele><time>2026-04-25T10:51:32.87Z</time></trkpt><trkpt lat="35.270265" lon="10.7025024"><ele>110.0</ele><time>2026-04-25T10:51:33.866Z</time></trkpt><trkpt lat="35.2700762" lon="10.7024698"><ele>110.0</ele><time>2026-04-25T10:51:34.874Z</time></trkpt><trkpt lat="35.269886" lon="10.7024371"><ele>110.0</ele><time>2026-04-25T10:51:35.868Z</time></trkpt><trkpt lat="35.2696987" lon="10.7024056"><ele>110.0</ele><time>2026-04-25T10:51:36.866Z</time></trkpt><trkpt lat="35.2695063" lon="10.7023778"><ele>109.0</ele><time>2026-04-25T10:51:37.866Z</time></trkpt><trkpt lat="35.2693225" lon="10.7023473"><ele>108.0</ele><time>2026-04-25T10:51:38.861Z</time></trkpt><trkpt lat="35.2691365" lon="10.7023136"><ele>107.0</ele><time>2026-04-25T10:51:39.862Z</time></trkpt><trkpt lat="35.2689522" lon="10.7022807"><ele>107.0</ele><time>2026-04-25T10:51:40.873Z</time></trkpt><trkpt lat="35.2687639" lon="10.7022465"><ele>107.0</ele><time>2026-04-25T10:51:41.88Z</time></trkpt><trkpt lat="35.2685763" lon="10.7022145"><ele>107.0</ele><time>2026-04-25T10:51:42.864Z</time></trkpt><trkpt lat="35.2683921" lon="10.7021807"><ele>107.0</ele><time>2026-04-25T10:51:43.875Z</time></trkpt><trkpt lat="35.2682058" lon="10.702147"><ele>107.0</ele><time>2026-04-25T10:51:44.855Z</time></trkpt><trkpt lat="35.2680217" lon="10.7021151"><ele>107.0</ele><time>2026-04-25T10:51:45.865Z</time></trkpt><trkpt lat="35.2678371" lon="10.7020843"><ele>107.66666666666666</ele><time>2026-04-25T10:51:46.873Z</time></trkpt><trkpt lat="35.2676536" lon="10.7020542"><ele>108.33333333333334</ele><time>2026-04-25T10:51:47.871Z</time></trkpt><trkpt lat="35.2674654" lon="10.7020269"><ele>109.0</ele><time>2026-04-25T10:51:48.873Z</time></trkpt><trkpt lat="35.2672784" lon="10.7020077"><ele>109.33333333333334</ele><time>2026-04-25T10:51:49.856Z</time></trkpt><trkpt lat="35.2670889" lon="10.7019963"><ele>109.66666666666666</ele><time>2026-04-25T10:51:50.859Z</time></trkpt><trkpt lat="35.2669007" lon="10.7020002"><ele>110.0</ele><time>2026-04-25T10:51:51.865Z</time></trkpt><trkpt lat="35.2667086" lon="10.7020121"><ele>110.0</ele><time>2026-04-25T10:51:52.876Z</time></trkpt><trkpt lat="35.2665176" lon="10.7020318"><ele>110.0</ele><time>2026-04-25T10:51:53.862Z</time></trkpt><trkpt lat="35.2663301" lon="10.7020565"><ele>110.0</ele><time>2026-04-25T10:51:54.877Z</time></trkpt><trkpt lat="35.2661426" lon="10.7020807"><ele>109.0</ele><time>2026-04-25T10:51:55.884Z</time></trkpt><trkpt lat="35.2659539" lon="10.7021031"><ele>108.0</ele><time>2026-04-25T10:51:56.866Z</time></trkpt><trkpt lat="35.2657666" lon="10.7021289"><ele>107.0</ele><time>2026-04-25T10:51:57.868Z</time></trkpt><trkpt lat="35.2655834" lon="10.702156"><ele>106.66666666666666</ele><time>2026-04-25T10:51:58.867Z</time></trkpt><trkpt lat="35.2653957" lon="10.7021788"><ele>106.33333333333334</ele><time>2026-04-25T10:51:59.888Z</time></trkpt><trkpt lat="35.2652103" lon="10.7022019"><ele>106.0</ele><time>2026-04-25T10:52:00.855Z</time></trkpt><trkpt lat="35.2650227" lon="10.7022258"><ele>106.0</ele><time>2026-04-25T10:52:01.868Z</time></trkpt><trkpt lat="35.2648368" lon="10.7022514"><ele>106.0</ele><time>2026-04-25T10:52:02.864Z</time></trkpt><trkpt lat="35.2646498" lon="10.7022777"><ele>106.0</ele><time>2026-04-25T10:52:03.892Z</time></trkpt><trkpt lat="35.2644664" lon="10.702306"><ele>106.0</ele><time>2026-04-25T10:52:04.867Z</time></trkpt><trkpt lat="35.2642795" lon="10.7023308"><ele>106.0</ele><time>2026-04-25T10:52:05.867Z</time></trkpt><trkpt lat="35.2640936" lon="10.7023543"><ele>106.0</ele><time>2026-04-25T10:52:06.879Z</time></trkpt><trkpt lat="35.2639078" lon="10.7023767"><ele>106.33333333333334</ele><time>2026-04-25T10:52:07.87Z</time></trkpt><trkpt lat="35.2637211" lon="10.7023981"><ele>106.66666666666666</ele><time>2026-04-25T10:52:08.877Z</time></trkpt><trkpt lat="35.2635314" lon="10.702418"><ele>107.0</ele><time>2026-04-25T10:52:09.871Z</time></trkpt><trkpt lat="35.263343" lon="10.7024375"><ele>107.0</ele><time>2026-04-25T10:52:10.876Z</time></trkpt><trkpt lat="35.2631547" lon="10.7024617"><ele>107.0</ele><time>2026-04-25T10:52:11.876Z</time></trkpt><trkpt lat="35.2629644" lon="10.7024847"><ele>107.0</ele><time>2026-04-25T10:52:12.87Z</time></trkpt><trkpt lat="35.2627774" lon="10.7025066"><ele>107.0</ele><time>2026-04-25T10:52:13.869Z</time></trkpt><trkpt lat="35.2625918" lon="10.70253"><ele>107.0</ele><time>2026-04-25T10:52:14.872Z</time></trkpt><trkpt lat="35.2624054" lon="10.7025512"><ele>107.0</ele><time>2026-04-25T10:52:15.872Z</time></trkpt><trkpt lat="35.262219" lon="10.7025725"><ele>106.33333333333333</ele><time>2026-04-25T10:52:16.87Z</time></trkpt><trkpt lat="35.2620321" lon="10.7025957"><ele>105.66666666666666</ele><time>2026-04-25T10:52:17.871Z</time></trkpt><trkpt lat="35.2618457" lon="10.7026209"><ele>105.0</ele><time>2026-04-25T10:52:18.875Z</time></trkpt><trkpt lat="35.2616586" lon="10.7026436"><ele>105.0</ele><time>2026-04-25T10:52:19.873Z</time></trkpt><trkpt lat="35.2614707" lon="10.702666"><ele>105.0</ele><time>2026-04-25T10:52:20.864Z</time></trkpt><trkpt lat="35.2612859" lon="10.702691"><ele>105.0</ele><time>2026-04-25T10:52:21.858Z</time></trkpt><trkpt lat="35.2610999" lon="10.7027137"><ele>104.66666666666666</ele><time>2026-04-25T10:52:22.868Z</time></trkpt><trkpt lat="35.2609134" lon="10.7027382"><ele>104.33333333333333</ele><time>2026-04-25T10:52:23.881Z</time></trkpt><trkpt lat="35.2607287" lon="10.7027632"><ele>104.0</ele><time>2026-04-25T10:52:24.882Z</time></trkpt><trkpt lat="35.2605434" lon="10.7027867"><ele>105.0</ele><time>2026-04-25T10:52:25.864Z</time></trkpt><trkpt lat="35.2603568" lon="10.7028103"><ele>106.0</ele><time>2026-04-25T10:52:26.873Z</time></trkpt><trkpt lat="35.2601696" lon="10.7028362"><ele>107.0</ele><time>2026-04-25T10:52:27.867Z</time></trkpt><trkpt lat="35.259983" lon="10.7028621"><ele>107.0</ele><time>2026-04-25T10:52:28.86Z</time></trkpt><trkpt lat="35.259795" lon="10.7028867"><ele>107.0</ele><time>2026-04-25T10:52:29.86Z</time></trkpt><trkpt lat="35.2596079" lon="10.7029107"><ele>107.0</ele><time>2026-04-25T10:52:30.864Z</time></trkpt><trkpt lat="35.2594158" lon="10.7029347"><ele>107.33333333333333</ele><time>2026-04-25T10:52:31.879Z</time></trkpt><trkpt lat="35.2592312" lon="10.7029559"><ele>107.66666666666666</ele><time>2026-04-25T10:52:32.869Z</time></trkpt><trkpt lat="35.2590561" lon="10.7029748"><ele>108.0</ele><time>2026-04-25T10:52:33.872Z</time></trkpt><trkpt lat="35.2588835" lon="10.7029927"><ele>108.0</ele><time>2026-04-25T10:52:34.867Z</time></trkpt><trkpt lat="35.2587096" lon="10.7030131"><ele>108.0</ele><time>2026-04-25T10:52:35.869Z</time></trkpt><trkpt lat="35.2585333" lon="10.7030371"><ele>108.0</ele><time>2026-04-25T10:52:36.864Z</time></trkpt><trkpt lat="35.2583547" lon="10.7030614"><ele>108.0</ele><time>2026-04-25T10:52:37.853Z</time></trkpt><trkpt lat="35.2581722" lon="10.7030857"><ele>108.0</ele><time>2026-04-25T10:52:38.867Z</time></trkpt><trkpt lat="35.2579839" lon="10.7031062"><ele>108.0</ele><time>2026-04-25T10:52:39.872Z</time></trkpt><trkpt lat="35.2577978" lon="10.7031271"><ele>107.0</ele><time>2026-04-25T10:52:40.884Z</time></trkpt><trkpt lat="35.25761" lon="10.7031487"><ele>106.0</ele><time>2026-04-25T10:52:41.86Z</time></trkpt><trkpt lat="35.2574221" lon="10.7031719"><ele>105.0</ele><time>2026-04-25T10:52:42.874Z</time></trkpt><trkpt lat="35.2572349" lon="10.7031961"><ele>105.0</ele><time>2026-04-25T10:52:43.897Z</time></trkpt><trkpt lat="35.2570459" lon="10.7032179"><ele>105.0</ele><time>2026-04-25T10:52:44.869Z</time></trkpt><trkpt lat="35.2568559" lon="10.70324"><ele>105.0</ele><time>2026-04-25T10:52:45.869Z</time></trkpt><trkpt lat="35.256668" lon="10.7032616"><ele>105.0</ele><time>2026-04-25T10:52:46.863Z</time></trkpt><trkpt lat="35.2564834" lon="10.7032884"><ele>105.0</ele><time>2026-04-25T10:52:47.864Z</time></trkpt><trkpt lat="35.2562983" lon="10.7033148"><ele>105.0</ele><time>2026-04-25T10:52:48.866Z</time></trkpt><trkpt lat="35.2561132" lon="10.7033417"><ele>104.33333333333334</ele><time>2026-04-25T10:52:49.868Z</time></trkpt><trkpt lat="35.2559281" lon="10.7033701"><ele>103.66666666666667</ele><time>2026-04-25T10:52:50.868Z</time></trkpt><trkpt lat="35.2557378" lon="10.7033988"><ele>103.0</ele><time>2026-04-25T10:52:51.882Z</time></trkpt><trkpt lat="35.2555505" lon="10.7034315"><ele>102.66666666666667</ele><time>2026-04-25T10:52:52.89Z</time></trkpt><trkpt lat="35.2553632" lon="10.7034665"><ele>102.33333333333334</ele><time>2026-04-25T10:52:53.87Z</time></trkpt><trkpt lat="35.2551811" lon="10.703501"><ele>102.0</ele><time>2026-04-25T10:52:54.863Z</time></trkpt><trkpt lat="35.2549939" lon="10.703539"><ele>101.66666666666666</ele><time>2026-04-25T10:52:55.861Z</time></trkpt><trkpt lat="35.2548066" lon="10.7035841"><ele>101.33333333333333</ele><time>2026-04-25T10:52:56.875Z</time></trkpt><trkpt lat="35.254625" lon="10.7036322"><ele>101.0</ele><time>2026-04-25T10:52:57.856Z</time></trkpt><trkpt lat="35.2544424" lon="10.7036786"><ele>100.66666666666666</ele><time>2026-04-25T10:52:58.873Z</time></trkpt><trkpt lat="35.2542572" lon="10.7037332"><ele>100.33333333333334</ele><time>2026-04-25T10:52:59.869Z</time></trkpt><trkpt lat="35.2540741" lon="10.7037845"><ele>100.0</ele><time>2026-04-25T10:53:00.873Z</time></trkpt><trkpt lat="35.2538934" lon="10.7038375"><ele>99.33333333333334</ele><time>2026-04-25T10:53:01.832Z</time></trkpt><trkpt lat="35.2537112" lon="10.7038893"><ele>98.66666666666666</ele><time>2026-04-25T10:53:02.882Z</time></trkpt><trkpt lat="35.2535274" lon="10.7039433"><ele>98.0</ele><time>2026-04-25T10:53:03.869Z</time></trkpt><trkpt lat="35.2533432" lon="10.7039924"><ele>98.0</ele><time>2026-04-25T10:53:04.875Z</time></trkpt><trkpt lat="35.2531591" lon="10.7040409"><ele>98.0</ele><time>2026-04-25T10:53:05.86Z</time></trkpt><trkpt lat="35.2529733" lon="10.7040918"><ele>98.0</ele><time>2026-04-25T10:53:06.864Z</time></trkpt><trkpt lat="35.2527912" lon="10.7041449"><ele>97.33333333333333</ele><time>2026-04-25T10:53:07.871Z</time></trkpt><trkpt lat="35.2526099" lon="10.7041932"><ele>96.66666666666666</ele><time>2026-04-25T10:53:08.872Z</time></trkpt><trkpt lat="35.2524258" lon="10.7042444"><ele>96.0</ele><time>2026-04-25T10:53:09.862Z</time></trkpt><trkpt lat="35.2522437" lon="10.7042924"><ele>96.0</ele><time>2026-04-25T10:53:10.871Z</time></trkpt><trkpt lat="35.2520591" lon="10.7043431"><ele>96.0</ele><time>2026-04-25T10:53:11.861Z</time></trkpt><trkpt lat="35.2518725" lon="10.7043927"><ele>96.0</ele><time>2026-04-25T10:53:12.87Z</time></trkpt><trkpt lat="35.2516893" lon="10.7044397"><ele>96.0</ele><time>2026-04-25T10:53:13.866Z</time></trkpt><trkpt lat="35.251506" lon="10.7044881"><ele>96.0</ele><time>2026-04-25T10:53:14.874Z</time></trkpt><trkpt lat="35.2513229" lon="10.7045364"><ele>96.0</ele><time>2026-04-25T10:53:15.88Z</time></trkpt><trkpt lat="35.2511427" lon="10.7045891"><ele>96.0</ele><time>2026-04-25T10:53:16.867Z</time></trkpt><trkpt lat="35.2509608" lon="10.7046411"><ele>96.0</ele><time>2026-04-25T10:53:17.861Z</time></trkpt><trkpt lat="35.250777" lon="10.7046901"><ele>96.0</ele><time>2026-04-25T10:53:18.869Z</time></trkpt><trkpt lat="35.2505918" lon="10.7047366"><ele>96.0</ele><time>2026-04-25T10:53:19.875Z</time></trkpt><trkpt lat="35.2504075" lon="10.7047846"><ele>96.0</ele><time>2026-04-25T10:53:20.871Z</time></trkpt><trkpt lat="35.2502232" lon="10.7048339"><ele>96.0</ele><time>2026-04-25T10:53:21.867Z</time></trkpt><trkpt lat="35.2500372" lon="10.7048833"><ele>96.0</ele><time>2026-04-25T10:53:22.856Z</time></trkpt><trkpt lat="35.2498541" lon="10.7049308"><ele>96.0</ele><time>2026-04-25T10:53:23.877Z</time></trkpt><trkpt lat="35.2496737" lon="10.7049813"><ele>96.0</ele><time>2026-04-25T10:53:24.869Z</time></trkpt><trkpt lat="35.2494912" lon="10.7050312"><ele>95.66666666666667</ele><time>2026-04-25T10:53:25.857Z</time></trkpt><trkpt lat="35.2493078" lon="10.7050781"><ele>95.33333333333334</ele><time>2026-04-25T10:53:26.859Z</time></trkpt><trkpt lat="35.2491218" lon="10.7051271"><ele>95.0</ele><time>2026-04-25T10:53:27.855Z</time></trkpt><trkpt lat="35.2489362" lon="10.7051755"><ele>94.66666666666667</ele><time>2026-04-25T10:53:28.863Z</time></trkpt><trkpt lat="35.2487525" lon="10.705228"><ele>94.33333333333333</ele><time>2026-04-25T10:53:29.867Z</time></trkpt><trkpt lat="35.2485666" lon="10.7052774"><ele>94.0</ele><time>2026-04-25T10:53:30.863Z</time></trkpt><trkpt lat="35.248385" lon="10.7053248"><ele>94.0</ele><time>2026-04-25T10:53:31.882Z</time></trkpt><trkpt lat="35.2482045" lon="10.7053749"><ele>94.0</ele><time>2026-04-25T10:53:32.865Z</time></trkpt><trkpt lat="35.2480196" lon="10.7054245"><ele>94.0</ele><time>2026-04-25T10:53:33.88Z</time></trkpt><trkpt lat="35.2478357" lon="10.7054773"><ele>94.0</ele><time>2026-04-25T10:53:34.871Z</time></trkpt><trkpt lat="35.247648" lon="10.7055304"><ele>94.0</ele><time>2026-04-25T10:53:35.868Z</time></trkpt><trkpt lat="35.2474602" lon="10.7055812"><ele>94.0</ele><time>2026-04-25T10:53:36.871Z</time></trkpt><trkpt lat="35.2472796" lon="10.705628"><ele>93.33333333333333</ele><time>2026-04-25T10:53:37.849Z</time></trkpt><trkpt lat="35.2470974" lon="10.705673"><ele>92.66666666666667</ele><time>2026-04-25T10:53:38.871Z</time></trkpt><trkpt lat="35.2469116" lon="10.7057243"><ele>92.0</ele><time>2026-04-25T10:53:39.88Z</time></trkpt><trkpt lat="35.2467297" lon="10.7057762"><ele>92.0</ele><time>2026-04-25T10:53:40.874Z</time></trkpt><trkpt lat="35.2465471" lon="10.7058252"><ele>92.0</ele><time>2026-04-25T10:53:41.86Z</time></trkpt><trkpt lat="35.2463649" lon="10.7058749"><ele>92.0</ele><time>2026-04-25T10:53:42.868Z</time></trkpt><trkpt lat="35.246179" lon="10.7059257"><ele>92.0</ele><time>2026-04-25T10:53:43.877Z</time></trkpt><trkpt lat="35.2459922" lon="10.7059762"><ele>92.0</ele><time>2026-04-25T10:53:44.867Z</time></trkpt><trkpt lat="35.2458086" lon="10.7060261"><ele>92.0</ele><time>2026-04-25T10:53:45.862Z</time></trkpt><trkpt lat="35.2456267" lon="10.7060753"><ele>92.0</ele><time>2026-04-25T10:53:46.867Z</time></trkpt><trkpt lat="35.2454437" lon="10.7061255"><ele>92.0</ele><time>2026-04-25T10:53:47.864Z</time></trkpt><trkpt lat="35.2452616" lon="10.706173"><ele>92.0</ele><time>2026-04-25T10:53:48.859Z</time></trkpt><trkpt lat="35.2450798" lon="10.7062246"><ele>92.0</ele><time>2026-04-25T10:53:49.865Z</time></trkpt><trkpt lat="35.2448977" lon="10.7062792"><ele>92.0</ele><time>2026-04-25T10:53:50.877Z</time></trkpt><trkpt lat="35.2447147" lon="10.7063304"><ele>92.0</ele><time>2026-04-25T10:53:51.855Z</time></trkpt><trkpt lat="35.24453" lon="10.7063786"><ele>91.66666666666667</ele><time>2026-04-25T10:53:52.855Z</time></trkpt><trkpt lat="35.2443432" lon="10.7064257"><ele>91.33333333333333</ele><time>2026-04-25T10:53:53.853Z</time></trkpt><trkpt lat="35.2441559" lon="10.7064715"><ele>91.0</ele><time>2026-04-25T10:53:54.868Z</time></trkpt><trkpt lat="35.2439704" lon="10.7065205"><ele>91.0</ele><time>2026-04-25T10:53:55.873Z</time></trkpt><trkpt lat="35.2437882" lon="10.7065682"><ele>91.0</ele><time>2026-04-25T10:53:56.853Z</time></trkpt><trkpt lat="35.2436068" lon="10.7066161"><ele>91.0</ele><time>2026-04-25T10:53:57.846Z</time></trkpt><trkpt lat="35.243423" lon="10.7066662"><ele>91.0</ele><time>2026-04-25T10:53:58.866Z</time></trkpt><trkpt lat="35.2432371" lon="10.7067122"><ele>91.0</ele><time>2026-04-25T10:53:59.881Z</time></trkpt><trkpt lat="35.2430503" lon="10.7067613"><ele>91.0</ele><time>2026-04-25T10:54:00.843Z</time></trkpt><trkpt lat="35.2428658" lon="10.7068121"><ele>91.33333333333333</ele><time>2026-04-25T10:54:01.848Z</time></trkpt><trkpt lat="35.242681" lon="10.7068649"><ele>91.66666666666667</ele><time>2026-04-25T10:54:02.861Z</time></trkpt><trkpt lat="35.242496" lon="10.7069187"><ele>92.0</ele><time>2026-04-25T10:54:03.852Z</time></trkpt><trkpt lat="35.2423133" lon="10.706972"><ele>91.66666666666667</ele><time>2026-04-25T10:54:04.866Z</time></trkpt><trkpt lat="35.2421322" lon="10.7070206"><ele>91.33333333333333</ele><time>2026-04-25T10:54:05.872Z</time></trkpt><trkpt lat="35.2419514" lon="10.7070681"><ele>91.0</ele><time>2026-04-25T10:54:06.857Z</time></trkpt><trkpt lat="35.2417679" lon="10.7071212"><ele>91.0</ele><time>2026-04-25T10:54:07.869Z</time></trkpt><trkpt lat="35.2415846" lon="10.7071764"><ele>91.0</ele><time>2026-04-25T10:54:08.866Z</time></trkpt><trkpt lat="35.2414035" lon="10.7072276"><ele>91.0</ele><time>2026-04-25T10:54:09.869Z</time></trkpt><trkpt lat="35.2412215" lon="10.7072783"><ele>91.0</ele><time>2026-04-25T10:54:10.866Z</time></trkpt><trkpt lat="35.2410402" lon="10.7073287"><ele>91.0</ele><time>2026-04-25T10:54:11.883Z</time></trkpt><trkpt lat="35.2408548" lon="10.7073769"><ele>91.0</ele><time>2026-04-25T10:54:12.872Z</time></trkpt><trkpt lat="35.240667" lon="10.7074247"><ele>91.0</ele><time>2026-04-25T10:54:13.869Z</time></trkpt><trkpt lat="35.2404799" lon="10.7074707"><ele>91.0</ele><time>2026-04-25T10:54:14.871Z</time></trkpt><trkpt lat="35.2402966" lon="10.7075194"><ele>91.0</ele><time>2026-04-25T10:54:15.873Z</time></trkpt><trkpt lat="35.2401126" lon="10.7075682"><ele>91.0</ele><time>2026-04-25T10:54:16.867Z</time></trkpt><trkpt lat="35.2399287" lon="10.7076181"><ele>91.0</ele><time>2026-04-25T10:54:17.919Z</time></trkpt><trkpt lat="35.2397449" lon="10.7076679"><ele>91.0</ele><time>2026-04-25T10:54:18.865Z</time></trkpt><trkpt lat="35.2395612" lon="10.7077173"><ele>91.33333333333333</ele><time>2026-04-25T10:54:19.867Z</time></trkpt><trkpt lat="35.2393763" lon="10.7077679"><ele>91.66666666666667</ele><time>2026-04-25T10:54:20.871Z</time></trkpt><trkpt lat="35.2391911" lon="10.7078204"><ele>92.0</ele><time>2026-04-25T10:54:21.859Z</time></trkpt><trkpt lat="35.2390014" lon="10.7078714"><ele>92.0</ele><time>2026-04-25T10:54:22.865Z</time></trkpt><trkpt lat="35.2388182" lon="10.7079131"><ele>92.0</ele><time>2026-04-25T10:54:23.86Z</time></trkpt><trkpt lat="35.2386333" lon="10.7079617"><ele>92.0</ele><time>2026-04-25T10:54:24.869Z</time></trkpt><trkpt lat="35.2384513" lon="10.7080093"><ele>92.0</ele><time>2026-04-25T10:54:25.868Z</time></trkpt><trkpt lat="35.2382717" lon="10.7080593"><ele>92.0</ele><time>2026-04-25T10:54:26.846Z</time></trkpt><trkpt lat="35.2380848" lon="10.7081116"><ele>92.0</ele><time>2026-04-25T10:54:27.861Z</time></trkpt><trkpt lat="35.2379017" lon="10.7081638"><ele>92.66666666666667</ele><time>2026-04-25T10:54:28.861Z</time></trkpt><trkpt lat="35.2377177" lon="10.7082102"><ele>93.33333333333333</ele><time>2026-04-25T10:54:29.847Z</time></trkpt><trkpt lat="35.2375327" lon="10.7082587"><ele>94.0</ele><time>2026-04-25T10:54:30.868Z</time></trkpt><trkpt lat="35.237347" lon="10.7083079"><ele>94.33333333333333</ele><time>2026-04-25T10:54:31.885Z</time></trkpt><trkpt lat="35.2371642" lon="10.7083558"><ele>94.66666666666667</ele><time>2026-04-25T10:54:32.853Z</time></trkpt><trkpt lat="35.2369822" lon="10.7084052"><ele>95.0</ele><time>2026-04-25T10:54:33.876Z</time></trkpt><trkpt lat="35.2367977" lon="10.708456"><ele>95.0</ele><time>2026-04-25T10:54:34.871Z</time></trkpt><trkpt lat="35.2366185" lon="10.7085071"><ele>95.0</ele><time>2026-04-25T10:54:35.867Z</time></trkpt><trkpt lat="35.2364337" lon="10.7085577"><ele>95.0</ele><time>2026-04-25T10:54:36.855Z</time></trkpt><trkpt lat="35.2362486" lon="10.70861"><ele>92.66666666666667</ele><time>2026-04-25T10:54:37.866Z</time></trkpt><trkpt lat="35.2360595" lon="10.7086528"><ele>90.33333333333333</ele><time>2026-04-25T10:54:38.857Z</time></trkpt><trkpt lat="35.2358746" lon="10.7087003"><ele>88.0</ele><time>2026-04-25T10:54:39.872Z</time></trkpt><trkpt lat="35.2356891" lon="10.7087494"><ele>88.0</ele><time>2026-04-25T10:54:40.888Z</time></trkpt><trkpt lat="35.2355054" lon="10.7088067"><ele>88.0</ele><time>2026-04-25T10:54:41.86Z</time></trkpt><trkpt lat="35.2353333" lon="10.7088575"><ele>88.0</ele><time>2026-04-25T10:54:42.869Z</time></trkpt><trkpt lat="35.2351801" lon="10.7089025"><ele>88.0</ele><time>2026-04-25T10:54:43.868Z</time></trkpt><trkpt lat="35.2350523" lon="10.7089362"><ele>88.0</ele><time>2026-04-25T10:54:44.867Z</time></trkpt><trkpt lat="35.2349485" lon="10.708968"><ele>88.0</ele><time>2026-04-25T10:54:45.872Z</time></trkpt><trkpt lat="35.2348664" lon="10.7089886"><ele>88.0</ele><time>2026-04-25T10:54:46.861Z</time></trkpt><trkpt lat="35.234796" lon="10.7090029"><ele>88.0</ele><time>2026-04-25T10:54:47.867Z</time></trkpt><trkpt lat="35.2346767" lon="10.7090295"><ele>88.16666666666666</ele><time>2026-04-25T10:54:49.875Z</time></trkpt><trkpt lat="35.234614" lon="10.709048"><ele>88.33333333333333</ele><time>2026-04-25T10:54:50.864Z</time></trkpt><trkpt lat="35.2345435" lon="10.7090704"><ele>88.5</ele><time>2026-04-25T10:54:51.878Z</time></trkpt><trkpt lat="35.2344603" lon="10.709093"><ele>88.66666666666667</ele><time>2026-04-25T10:54:52.873Z</time></trkpt><trkpt lat="35.2343771" lon="10.7091154"><ele>88.83333333333334</ele><time>2026-04-25T10:54:53.877Z</time></trkpt><trkpt lat="35.234289" lon="10.7091391"><ele>89.0</ele><time>2026-04-25T10:54:54.873Z</time></trkpt><trkpt lat="35.234201" lon="10.7091612"><ele>89.0</ele><time>2026-04-25T10:54:55.861Z</time></trkpt><trkpt lat="35.2341127" lon="10.709188"><ele>89.0</ele><time>2026-04-25T10:54:56.866Z</time></trkpt><trkpt lat="35.2340231" lon="10.7092079"><ele>89.0</ele><time>2026-04-25T10:54:57.873Z</time></trkpt><trkpt lat="35.2339331" lon="10.709234"><ele>89.0</ele><time>2026-04-25T10:54:58.855Z</time></trkpt><trkpt lat="35.2338505" lon="10.7092576"><ele>89.0</ele><time>2026-04-25T10:54:59.869Z</time></trkpt><trkpt lat="35.233781" lon="10.7092777"><ele>89.0</ele><time>2026-04-25T10:55:00.866Z</time></trkpt><trkpt lat="35.2336871" lon="10.7093111"><ele>88.80000000000001</ele><time>2026-04-25T10:55:02.872Z</time></trkpt><trkpt lat="35.2336073" lon="10.7093374"><ele>88.60000000000001</ele><time>2026-04-25T10:55:04.87Z</time></trkpt><trkpt lat="35.2334775" lon="10.7093771"><ele>88.4</ele><time>2026-04-25T10:55:06.868Z</time></trkpt><trkpt lat="35.2333934" lon="10.7093971"><ele>88.2</ele><time>2026-04-25T10:55:07.862Z</time></trkpt><trkpt lat="35.2332992" lon="10.7094235"><ele>88.0</ele><time>2026-04-25T10:55:08.867Z</time></trkpt><trkpt lat="35.2331991" lon="10.7094488"><ele>87.75</ele><time>2026-04-25T10:55:09.879Z</time></trkpt><trkpt lat="35.2330896" lon="10.7094783"><ele>87.5</ele><time>2026-04-25T10:55:10.869Z</time></trkpt><trkpt lat="35.2329802" lon="10.7095081"><ele>87.25</ele><time>2026-04-25T10:55:11.879Z</time></trkpt><trkpt lat="35.2328665" lon="10.7095399"><ele>87.0</ele><time>2026-04-25T10:55:12.876Z</time></trkpt><trkpt lat="35.2327541" lon="10.7095693"><ele>87.0</ele><time>2026-04-25T10:55:13.872Z</time></trkpt><trkpt lat="35.2326378" lon="10.7095983"><ele>87.0</ele><time>2026-04-25T10:55:14.876Z</time></trkpt><trkpt lat="35.2325232" lon="10.709627"><ele>87.0</ele><time>2026-04-25T10:55:15.868Z</time></trkpt><trkpt lat="35.232406" lon="10.7096576"><ele>87.0</ele><time>2026-04-25T10:55:16.868Z</time></trkpt><trkpt lat="35.2322903" lon="10.7096868"><ele>87.39999999999999</ele><time>2026-04-25T10:55:17.889Z</time></trkpt><trkpt lat="35.2321758" lon="10.7097148"><ele>87.8</ele><time>2026-04-25T10:55:18.867Z</time></trkpt><trkpt lat="35.2320674" lon="10.709746"><ele>88.2</ele><time>2026-04-25T10:55:19.872Z</time></trkpt><trkpt lat="35.2319624" lon="10.7097762"><ele>88.6</ele><time>2026-04-25T10:55:20.87Z</time></trkpt><trkpt lat="35.2318566" lon="10.7098075"><ele>89.0</ele><time>2026-04-25T10:55:21.861Z</time></trkpt><trkpt lat="35.231743" lon="10.709837"><ele>89.0</ele><time>2026-04-25T10:55:22.87Z</time></trkpt><trkpt lat="35.2316214" lon="10.7098728"><ele>89.0</ele><time>2026-04-25T10:55:23.879Z</time></trkpt><trkpt lat="35.231487" lon="10.7099068"><ele>89.0</ele><time>2026-04-25T10:55:24.861Z</time></trkpt><trkpt lat="35.2313459" lon="10.709946"><ele>89.0</ele><time>2026-04-25T10:55:25.869Z</time></trkpt><trkpt lat="35.2312021" lon="10.7099857"><ele>88.33333333333334</ele><time>2026-04-25T10:55:26.875Z</time></trkpt><trkpt lat="35.2310535" lon="10.7100248"><ele>87.66666666666667</ele><time>2026-04-25T10:55:27.859Z</time></trkpt><trkpt lat="35.2309025" lon="10.7100672"><ele>87.0</ele><time>2026-04-25T10:55:28.871Z</time></trkpt><trkpt lat="35.2307463" lon="10.7101084"><ele>87.66666666666667</ele><time>2026-04-25T10:55:29.872Z</time></trkpt><trkpt lat="35.2305894" lon="10.7101494"><ele>88.33333333333334</ele><time>2026-04-25T10:55:30.866Z</time></trkpt><trkpt lat="35.2304291" lon="10.710194"><ele>89.0</ele><time>2026-04-25T10:55:31.874Z</time></trkpt><trkpt lat="35.2302659" lon="10.7102375"><ele>88.0</ele><time>2026-04-25T10:55:32.86Z</time></trkpt><trkpt lat="35.230103" lon="10.7102789"><ele>87.0</ele><time>2026-04-25T10:55:33.866Z</time></trkpt><trkpt lat="35.2299425" lon="10.7103195"><ele>86.0</ele><time>2026-04-25T10:55:34.884Z</time></trkpt><trkpt lat="35.2297817" lon="10.7103665"><ele>85.66666666666667</ele><time>2026-04-25T10:55:35.881Z</time></trkpt><trkpt lat="35.2296211" lon="10.7104106"><ele>85.33333333333333</ele><time>2026-04-25T10:55:36.872Z</time></trkpt><trkpt lat="35.2294565" lon="10.7104588"><ele>85.0</ele><time>2026-04-25T10:55:37.865Z</time></trkpt><trkpt lat="35.2292961" lon="10.7105053"><ele>85.0</ele><time>2026-04-25T10:55:38.88Z</time></trkpt><trkpt lat="35.2291305" lon="10.7105474"><ele>85.0</ele><time>2026-04-25T10:55:39.868Z</time></trkpt><trkpt lat="35.2289666" lon="10.7105922"><ele>85.0</ele><time>2026-04-25T10:55:40.855Z</time></trkpt><trkpt lat="35.2288021" lon="10.7106438"><ele>84.33333333333333</ele><time>2026-04-25T10:55:41.881Z</time></trkpt><trkpt lat="35.2286354" lon="10.7106915"><ele>83.66666666666667</ele><time>2026-04-25T10:55:42.87Z</time></trkpt><trkpt lat="35.2284665" lon="10.7107344"><ele>83.0</ele><time>2026-04-25T10:55:43.867Z</time></trkpt><trkpt lat="35.2283059" lon="10.7107747"><ele>83.0</ele><time>2026-04-25T10:55:44.869Z</time></trkpt><trkpt lat="35.228144" lon="10.7108091"><ele>83.0</ele><time>2026-04-25T10:55:45.881Z</time></trkpt><trkpt lat="35.2279814" lon="10.7108456"><ele>83.0</ele><time>2026-04-25T10:55:46.845Z</time></trkpt><trkpt lat="35.2278228" lon="10.7108767"><ele>83.0</ele><time>2026-04-25T10:55:47.867Z</time></trkpt><trkpt lat="35.2276601" lon="10.7108974"><ele>83.0</ele><time>2026-04-25T10:55:48.865Z</time></trkpt><trkpt lat="35.2274938" lon="10.710907"><ele>83.0</ele><time>2026-04-25T10:55:49.878Z</time></trkpt><trkpt lat="35.2273266" lon="10.7109104"><ele>82.66666666666667</ele><time>2026-04-25T10:55:50.861Z</time></trkpt><trkpt lat="35.2271549" lon="10.7109067"><ele>82.33333333333333</ele><time>2026-04-25T10:55:51.867Z</time></trkpt><trkpt lat="35.2269858" lon="10.7109035"><ele>82.0</ele><time>2026-04-25T10:55:52.86Z</time></trkpt><trkpt lat="35.2268168" lon="10.7108998"><ele>82.0</ele><time>2026-04-25T10:55:53.875Z</time></trkpt><trkpt lat="35.2266454" lon="10.7108969"><ele>82.0</ele><time>2026-04-25T10:55:54.875Z</time></trkpt><trkpt lat="35.2264744" lon="10.7108961"><ele>82.0</ele><time>2026-04-25T10:55:55.869Z</time></trkpt><trkpt lat="35.2262994" lon="10.7108916"><ele>82.0</ele><time>2026-04-25T10:55:56.869Z</time></trkpt><trkpt lat="35.226126" lon="10.7108918"><ele>82.0</ele><time>2026-04-25T10:55:57.865Z</time></trkpt><trkpt lat="35.2259498" lon="10.710892"><ele>82.0</ele><time>2026-04-25T10:55:58.869Z</time></trkpt><trkpt lat="35.2257746" lon="10.7108914"><ele>82.66666666666666</ele><time>2026-04-25T10:55:59.871Z</time></trkpt><trkpt lat="35.2255973" lon="10.7108891"><ele>83.33333333333333</ele><time>2026-04-25T10:56:00.865Z</time></trkpt><trkpt lat="35.2254197" lon="10.7108866"><ele>84.0</ele><time>2026-04-25T10:56:01.856Z</time></trkpt><trkpt lat="35.2252408" lon="10.710882"><ele>84.0</ele><time>2026-04-25T10:56:02.864Z</time></trkpt><trkpt lat="35.2250617" lon="10.7108767"><ele>84.0</ele><time>2026-04-25T10:56:03.87Z</time></trkpt><trkpt lat="35.2248842" lon="10.7108712"><ele>84.0</ele><time>2026-04-25T10:56:04.914Z</time></trkpt><trkpt lat="35.2247008" lon="10.7108669"><ele>84.0</ele><time>2026-04-25T10:56:05.857Z</time></trkpt><trkpt lat="35.2245206" lon="10.7108638"><ele>84.0</ele><time>2026-04-25T10:56:06.855Z</time></trkpt><trkpt lat="35.2243359" lon="10.7108602"><ele>84.0</ele><time>2026-04-25T10:56:07.862Z</time></trkpt><trkpt lat="35.2241519" lon="10.7108553"><ele>83.0</ele><time>2026-04-25T10:56:08.863Z</time></trkpt><trkpt lat="35.2239651" lon="10.7108477"><ele>82.0</ele><time>2026-04-25T10:56:09.859Z</time></trkpt><trkpt lat="35.2237801" lon="10.7108473"><ele>81.0</ele><time>2026-04-25T10:56:10.858Z</time></trkpt><trkpt lat="35.223596" lon="10.710845"><ele>81.0</ele><time>2026-04-25T10:56:11.871Z</time></trkpt><trkpt lat="35.2234119" lon="10.7108425"><ele>81.0</ele><time>2026-04-25T10:56:12.867Z</time></trkpt><trkpt lat="35.2232313" lon="10.7108365"><ele>81.0</ele><time>2026-04-25T10:56:13.861Z</time></trkpt><trkpt lat="35.2230514" lon="10.7108321"><ele>80.33333333333333</ele><time>2026-04-25T10:56:14.865Z</time></trkpt><trkpt lat="35.2228739" lon="10.7108315"><ele>79.66666666666666</ele><time>2026-04-25T10:56:15.864Z</time></trkpt><trkpt lat="35.2226937" lon="10.7108273"><ele>79.0</ele><time>2026-04-25T10:56:16.875Z</time></trkpt><trkpt lat="35.2225101" lon="10.7108223"><ele>79.0</ele><time>2026-04-25T10:56:17.862Z</time></trkpt><trkpt lat="35.2223234" lon="10.7108186"><ele>79.0</ele><time>2026-04-25T10:56:18.873Z</time></trkpt><trkpt lat="35.2221364" lon="10.7108118"><ele>79.0</ele><time>2026-04-25T10:56:19.876Z</time></trkpt><trkpt lat="35.2219546" lon="10.7108093"><ele>78.66666666666666</ele><time>2026-04-25T10:56:20.864Z</time></trkpt><trkpt lat="35.2217777" lon="10.7108054"><ele>78.33333333333333</ele><time>2026-04-25T10:56:21.859Z</time></trkpt><trkpt lat="35.2216122" lon="10.7107993"><ele>78.0</ele><time>2026-04-25T10:56:22.869Z</time></trkpt><trkpt lat="35.2214519" lon="10.7107931"><ele>78.0</ele><time>2026-04-25T10:56:23.872Z</time></trkpt><trkpt lat="35.2212978" lon="10.7107906"><ele>78.0</ele><time>2026-04-25T10:56:24.862Z</time></trkpt><trkpt lat="35.2211624" lon="10.7107879"><ele>78.0</ele><time>2026-04-25T10:56:25.861Z</time></trkpt><trkpt lat="35.2210377" lon="10.7107834"><ele>78.0</ele><time>2026-04-25T10:56:26.853Z</time></trkpt><trkpt lat="35.220924" lon="10.7107749"><ele>78.0</ele><time>2026-04-25T10:56:27.869Z</time></trkpt><trkpt lat="35.2208159" lon="10.7107705"><ele>78.0</ele><time>2026-04-25T10:56:28.892Z</time></trkpt><trkpt lat="35.2207184" lon="10.7107684"><ele>78.0</ele><time>2026-04-25T10:56:29.877Z</time></trkpt><trkpt lat="35.2206241" lon="10.7107638"><ele>78.0</ele><time>2026-04-25T10:56:30.868Z</time></trkpt><trkpt lat="35.2205395" lon="10.710762"><ele>78.0</ele><time>2026-04-25T10:56:31.868Z</time></trkpt><trkpt lat="35.2204438" lon="10.7107618"><ele>77.4</ele><time>2026-04-25T10:56:32.86Z</time></trkpt><trkpt lat="35.2203416" lon="10.7107591"><ele>76.8</ele><time>2026-04-25T10:56:33.874Z</time></trkpt><trkpt lat="35.2202341" lon="10.7107586"><ele>76.2</ele><time>2026-04-25T10:56:34.879Z</time></trkpt><trkpt lat="35.2201243" lon="10.710759"><ele>75.6</ele><time>2026-04-25T10:56:35.857Z</time></trkpt><trkpt lat="35.2200124" lon="10.7107607"><ele>75.0</ele><time>2026-04-25T10:56:36.875Z</time></trkpt><trkpt lat="35.2198961" lon="10.7107604"><ele>75.0</ele><time>2026-04-25T10:56:37.865Z</time></trkpt><trkpt lat="35.2197767" lon="10.7107574"><ele>75.0</ele><time>2026-04-25T10:56:38.87Z</time></trkpt><trkpt lat="35.2196498" lon="10.7107565"><ele>75.0</ele><time>2026-04-25T10:56:39.857Z</time></trkpt><trkpt lat="35.2195151" lon="10.7107561"><ele>75.0</ele><time>2026-04-25T10:56:40.864Z</time></trkpt><trkpt lat="35.2193726" lon="10.71075"><ele>75.0</ele><time>2026-04-25T10:56:41.878Z</time></trkpt><trkpt lat="35.2192293" lon="10.7107474"><ele>75.0</ele><time>2026-04-25T10:56:42.876Z</time></trkpt><trkpt lat="35.2190808" lon="10.7107423"><ele>75.0</ele><time>2026-04-25T10:56:43.871Z</time></trkpt><trkpt lat="35.2189327" lon="10.7107367"><ele>75.0</ele><time>2026-04-25T10:56:44.867Z</time></trkpt><trkpt lat="35.2187833" lon="10.7107345"><ele>75.25</ele><time>2026-04-25T10:56:45.857Z</time></trkpt><trkpt lat="35.2186345" lon="10.7107291"><ele>75.5</ele><time>2026-04-25T10:56:46.871Z</time></trkpt><trkpt lat="35.2184876" lon="10.7107265"><ele>75.75</ele><time>2026-04-25T10:56:47.851Z</time></trkpt><trkpt lat="35.2183434" lon="10.7107257"><ele>76.0</ele><time>2026-04-25T10:56:48.898Z</time></trkpt><trkpt lat="35.2182029" lon="10.7107229"><ele>76.0</ele><time>2026-04-25T10:56:49.87Z</time></trkpt><trkpt lat="35.218058" lon="10.7107208"><ele>76.0</ele><time>2026-04-25T10:56:50.854Z</time></trkpt><trkpt lat="35.2179141" lon="10.7107204"><ele>76.0</ele><time>2026-04-25T10:56:51.854Z</time></trkpt><trkpt lat="35.2177714" lon="10.7107163"><ele>76.0</ele><time>2026-04-25T10:56:52.867Z</time></trkpt><trkpt lat="35.2176243" lon="10.7107082"><ele>76.0</ele><time>2026-04-25T10:56:53.868Z</time></trkpt><trkpt lat="35.2174813" lon="10.7107016"><ele>76.0</ele><time>2026-04-25T10:56:54.867Z</time></trkpt><trkpt lat="35.2173368" lon="10.7106964"><ele>76.0</ele><time>2026-04-25T10:56:55.875Z</time></trkpt><trkpt lat="35.2171903" lon="10.710692"><ele>76.0</ele><time>2026-04-25T10:56:56.879Z</time></trkpt><trkpt lat="35.2170411" lon="10.710691"><ele>75.33333333333333</ele><time>2026-04-25T10:56:57.873Z</time></trkpt><trkpt lat="35.2168873" lon="10.7106876"><ele>74.66666666666667</ele><time>2026-04-25T10:56:58.86Z</time></trkpt><trkpt lat="35.2167342" lon="10.7106822"><ele>74.0</ele><time>2026-04-25T10:56:59.865Z</time></trkpt><trkpt lat="35.2165782" lon="10.7106781"><ele>74.0</ele><time>2026-04-25T10:57:00.863Z</time></trkpt><trkpt lat="35.2164236" lon="10.7106725"><ele>74.0</ele><time>2026-04-25T10:57:01.883Z</time></trkpt><trkpt lat="35.2162754" lon="10.7106669"><ele>74.0</ele><time>2026-04-25T10:57:02.869Z</time></trkpt><trkpt lat="35.216137" lon="10.7106621"><ele>74.0</ele><time>2026-04-25T10:57:03.877Z</time></trkpt><trkpt lat="35.2160138" lon="10.7106609"><ele>74.0</ele><time>2026-04-25T10:57:04.861Z</time></trkpt><trkpt lat="35.2159115" lon="10.7106546"><ele>74.0</ele><time>2026-04-25T10:57:05.861Z</time></trkpt><trkpt lat="35.2158266" lon="10.7106558"><ele>74.0</ele><time>2026-04-25T10:57:06.878Z</time></trkpt><trkpt lat="35.215754" lon="10.7106604"><ele>74.0</ele><time>2026-04-25T10:57:07.858Z</time></trkpt><trkpt lat="35.2156743" lon="10.7106594"><ele>74.0</ele><time>2026-04-25T10:57:08.859Z</time></trkpt><trkpt lat="35.2155759" lon="10.7106594"><ele>74.0</ele><time>2026-04-25T10:57:09.862Z</time></trkpt><trkpt lat="35.2154591" lon="10.7106577"><ele>74.5</ele><time>2026-04-25T10:57:10.86Z</time></trkpt><trkpt lat="35.2153266" lon="10.7106524"><ele>75.0</ele><time>2026-04-25T10:57:11.87Z</time></trkpt><trkpt lat="35.2151964" lon="10.7106504"><ele>75.5</ele><time>2026-04-25T10:57:12.864Z</time></trkpt><trkpt lat="35.2150633" lon="10.7106505"><ele>76.0</ele><time>2026-04-25T10:57:13.87Z</time></trkpt><trkpt lat="35.2149304" lon="10.71065"><ele>74.5</ele><time>2026-04-25T10:57:14.857Z</time></trkpt><trkpt lat="35.2147939" lon="10.7106449"><ele>73.0</ele><time>2026-04-25T10:57:15.871Z</time></trkpt><trkpt lat="35.2146585" lon="10.7106448"><ele>71.5</ele><time>2026-04-25T10:57:16.869Z</time></trkpt><trkpt lat="35.2145195" lon="10.7106367"><ele>70.0</ele><time>2026-04-25T10:57:17.871Z</time></trkpt><trkpt lat="35.2143802" lon="10.7106331"><ele>70.0</ele><time>2026-04-25T10:57:18.849Z</time></trkpt><trkpt lat="35.2142397" lon="10.7106249"><ele>70.0</ele><time>2026-04-25T10:57:19.87Z</time></trkpt><trkpt lat="35.2141007" lon="10.7106203"><ele>70.0</ele><time>2026-04-25T10:57:20.869Z</time></trkpt><trkpt lat="35.213963" lon="10.7106142"><ele>70.0</ele><time>2026-04-25T10:57:21.867Z</time></trkpt><trkpt lat="35.2138239" lon="10.7106094"><ele>70.75</ele><time>2026-04-25T10:57:22.869Z</time></trkpt><trkpt lat="35.2136862" lon="10.7106071"><ele>71.5</ele><time>2026-04-25T10:57:23.867Z</time></trkpt><trkpt lat="35.2135538" lon="10.7106079"><ele>72.25</ele><time>2026-04-25T10:57:24.869Z</time></trkpt><trkpt lat="35.2134186" lon="10.7106099"><ele>73.0</ele><time>2026-04-25T10:57:25.872Z</time></trkpt><trkpt lat="35.2132847" lon="10.7106096"><ele>72.75</ele><time>2026-04-25T10:57:26.859Z</time></trkpt><trkpt lat="35.2131518" lon="10.7106024"><ele>72.5</ele><time>2026-04-25T10:57:27.862Z</time></trkpt><trkpt lat="35.2130187" lon="10.7105972"><ele>72.25</ele><time>2026-04-25T10:57:28.875Z</time></trkpt><trkpt lat="35.2128824" lon="10.7105926"><ele>72.0</ele><time>2026-04-25T10:57:29.87Z</time></trkpt><trkpt lat="35.2127388" lon="10.710584"><ele>72.0</ele><time>2026-04-25T10:57:30.862Z</time></trkpt><trkpt lat="35.2125992" lon="10.7105767"><ele>72.0</ele><time>2026-04-25T10:57:31.884Z</time></trkpt><trkpt lat="35.212457" lon="10.7105722"><ele>72.0</ele><time>2026-04-25T10:57:32.86Z</time></trkpt><trkpt lat="35.2123175" lon="10.7105687"><ele>72.0</ele><time>2026-04-25T10:57:33.865Z</time></trkpt><trkpt lat="35.2121736" lon="10.7105646"><ele>71.5</ele><time>2026-04-25T10:57:34.87Z</time></trkpt><trkpt lat="35.2120337" lon="10.7105597"><ele>71.0</ele><time>2026-04-25T10:57:35.861Z</time></trkpt><trkpt lat="35.211891" lon="10.710555"><ele>70.5</ele><time>2026-04-25T10:57:36.872Z</time></trkpt><trkpt lat="35.2117528" lon="10.7105533"><ele>70.0</ele><time>2026-04-25T10:57:37.86Z</time></trkpt><trkpt lat="35.2116304" lon="10.7105549"><ele>70.0</ele><time>2026-04-25T10:57:38.864Z</time></trkpt><trkpt lat="35.2115214" lon="10.7105493"><ele>70.0</ele><time>2026-04-25T10:57:39.855Z</time></trkpt><trkpt lat="35.2114253" lon="10.7105473"><ele>70.0</ele><time>2026-04-25T10:57:40.869Z</time></trkpt><trkpt lat="35.2113336" lon="10.7105451"><ele>70.0</ele><time>2026-04-25T10:57:41.858Z</time></trkpt><trkpt lat="35.211235" lon="10.7105444"><ele>70.0</ele><time>2026-04-25T10:57:42.873Z</time></trkpt><trkpt lat="35.2111261" lon="10.7105434"><ele>70.5</ele><time>2026-04-25T10:57:43.865Z</time></trkpt><trkpt lat="35.2110005" lon="10.7105454"><ele>71.0</ele><time>2026-04-25T10:57:44.87Z</time></trkpt><trkpt lat="35.2108655" lon="10.710541"><ele>71.5</ele><time>2026-04-25T10:57:45.864Z</time></trkpt><trkpt lat="35.2107299" lon="10.7105338"><ele>72.0</ele><time>2026-04-25T10:57:46.861Z</time></trkpt><trkpt lat="35.210589" lon="10.7105294"><ele>72.33333333333333</ele><time>2026-04-25T10:57:47.874Z</time></trkpt><trkpt lat="35.2104419" lon="10.7105266"><ele>72.66666666666666</ele><time>2026-04-25T10:57:48.864Z</time></trkpt><trkpt lat="35.2102901" lon="10.710527"><ele>73.0</ele><time>2026-04-25T10:57:49.857Z</time></trkpt><trkpt lat="35.2101371" lon="10.7105298"><ele>73.0</ele><time>2026-04-25T10:57:50.864Z</time></trkpt><trkpt lat="35.2099814" lon="10.7105266"><ele>73.0</ele><time>2026-04-25T10:57:51.86Z</time></trkpt><trkpt lat="35.2098269" lon="10.7105185"><ele>73.0</ele><time>2026-04-25T10:57:52.859Z</time></trkpt><trkpt lat="35.2096765" lon="10.7105177"><ele>72.0</ele><time>2026-04-25T10:57:53.874Z</time></trkpt><trkpt lat="35.209517" lon="10.7105156"><ele>71.0</ele><time>2026-04-25T10:57:54.872Z</time></trkpt><trkpt lat="35.2093603" lon="10.7105144"><ele>70.0</ele><time>2026-04-25T10:57:55.854Z</time></trkpt><trkpt lat="35.2092039" lon="10.7105107"><ele>70.0</ele><time>2026-04-25T10:57:56.861Z</time></trkpt><trkpt lat="35.2090457" lon="10.7105105"><ele>70.0</ele><time>2026-04-25T10:57:57.873Z</time></trkpt><trkpt lat="35.2088898" lon="10.710506"><ele>70.0</ele><time>2026-04-25T10:57:58.868Z</time></trkpt><trkpt lat="35.2087345" lon="10.7105028"><ele>70.0</ele><time>2026-04-25T10:57:59.865Z</time></trkpt><trkpt lat="35.2085779" lon="10.7104998"><ele>70.0</ele><time>2026-04-25T10:58:00.868Z</time></trkpt><trkpt lat="35.2084206" lon="10.7104954"><ele>70.0</ele><time>2026-04-25T10:58:01.864Z</time></trkpt><trkpt lat="35.2082651" lon="10.710492"><ele>70.0</ele><time>2026-04-25T10:58:02.871Z</time></trkpt><trkpt lat="35.2081119" lon="10.7104865"><ele>70.0</ele><time>2026-04-25T10:58:03.873Z</time></trkpt><trkpt lat="35.207957" lon="10.7104825"><ele>70.0</ele><time>2026-04-25T10:58:04.86Z</time></trkpt><trkpt lat="35.2078068" lon="10.7104762"><ele>70.0</ele><time>2026-04-25T10:58:05.868Z</time></trkpt><trkpt lat="35.2076538" lon="10.7104748"><ele>70.0</ele><time>2026-04-25T10:58:06.86Z</time></trkpt><trkpt lat="35.2074972" lon="10.7104673"><ele>70.0</ele><time>2026-04-25T10:58:07.87Z</time></trkpt><trkpt lat="35.2073413" lon="10.7104644"><ele>69.5</ele><time>2026-04-25T10:58:08.869Z</time></trkpt><trkpt lat="35.2071894" lon="10.7104619"><ele>69.0</ele><time>2026-04-25T10:58:09.874Z</time></trkpt><trkpt lat="35.2070437" lon="10.7104602"><ele>68.5</ele><time>2026-04-25T10:58:10.866Z</time></trkpt><trkpt lat="35.2068926" lon="10.7104586"><ele>68.0</ele><time>2026-04-25T10:58:11.871Z</time></trkpt><trkpt lat="35.2067422" lon="10.7104563"><ele>68.0</ele><time>2026-04-25T10:58:12.848Z</time></trkpt><trkpt lat="35.2065858" lon="10.7104519"><ele>68.0</ele><time>2026-04-25T10:58:13.856Z</time></trkpt><trkpt lat="35.2064271" lon="10.7104463"><ele>68.0</ele><time>2026-04-25T10:58:14.855Z</time></trkpt><trkpt lat="35.2062724" lon="10.7104432"><ele>68.0</ele><time>2026-04-25T10:58:15.868Z</time></trkpt><trkpt lat="35.2061212" lon="10.7104398"><ele>68.0</ele><time>2026-04-25T10:58:16.878Z</time></trkpt><trkpt lat="35.2059676" lon="10.7104379"><ele>68.0</ele><time>2026-04-25T10:58:17.853Z</time></trkpt><trkpt lat="35.2058121" lon="10.7104348"><ele>68.33333333333334</ele><time>2026-04-25T10:58:18.867Z</time></trkpt><trkpt lat="35.2056604" lon="10.7104277"><ele>68.66666666666667</ele><time>2026-04-25T10:58:19.869Z</time></trkpt><trkpt lat="35.2055057" lon="10.7104184"><ele>69.0</ele><time>2026-04-25T10:58:20.864Z</time></trkpt><trkpt lat="35.2053537" lon="10.7104119"><ele>69.0</ele><time>2026-04-25T10:58:21.881Z</time></trkpt><trkpt lat="35.2052045" lon="10.7104141"><ele>69.0</ele><time>2026-04-25T10:58:22.865Z</time></trkpt><trkpt lat="35.2050593" lon="10.7104209"><ele>69.0</ele><time>2026-04-25T10:58:23.876Z</time></trkpt><trkpt lat="35.204922" lon="10.710444"><ele>69.0</ele><time>2026-04-25T10:58:24.868Z</time></trkpt><trkpt lat="35.2047877" lon="10.7104758"><ele>68.8</ele><time>2026-04-25T10:58:25.869Z</time></trkpt><trkpt lat="35.2046596" lon="10.710526"><ele>68.60000000000001</ele><time>2026-04-25T10:58:26.865Z</time></trkpt><trkpt lat="35.2045508" lon="10.7105871"><ele>68.4</ele><time>2026-04-25T10:58:27.86Z</time></trkpt><trkpt lat="35.2044582" lon="10.7106503"><ele>68.2</ele><time>2026-04-25T10:58:28.905Z</time></trkpt><trkpt lat="35.2043847" lon="10.7106984"><ele>68.0</ele><time>2026-04-25T10:58:29.866Z</time></trkpt><trkpt lat="35.2042892" lon="10.7107544"><ele>68.0</ele><time>2026-04-25T10:58:31.866Z</time></trkpt><trkpt lat="35.2042138" lon="10.7108029"><ele>68.0</ele><time>2026-04-25T10:58:34.848Z</time></trkpt><trkpt lat="35.20415" lon="10.7108396"><ele>68.0</ele><time>2026-04-25T10:58:36.859Z</time></trkpt><trkpt lat="35.2040406" lon="10.7109031"><ele>68.0</ele><time>2026-04-25T10:58:38.853Z</time></trkpt><trkpt lat="35.2039773" lon="10.7109473"><ele>68.0</ele><time>2026-04-25T10:58:39.868Z</time></trkpt><trkpt lat="35.2039135" lon="10.7109876"><ele>68.0</ele><time>2026-04-25T10:58:40.859Z</time></trkpt><trkpt lat="35.2038421" lon="10.7110301"><ele>68.0</ele><time>2026-04-25T10:58:41.855Z</time></trkpt><trkpt lat="35.2037673" lon="10.7110768"><ele>68.0</ele><time>2026-04-25T10:58:42.868Z</time></trkpt><trkpt lat="35.2036918" lon="10.7111264"><ele>68.0</ele><time>2026-04-25T10:58:43.873Z</time></trkpt><trkpt lat="35.2036094" lon="10.711176"><ele>68.0</ele><time>2026-04-25T10:58:44.871Z</time></trkpt><trkpt lat="35.2035197" lon="10.7112328"><ele>68.0</ele><time>2026-04-25T10:58:45.875Z</time></trkpt><trkpt lat="35.2034282" lon="10.711288"><ele>68.0</ele><time>2026-04-25T10:58:46.868Z</time></trkpt><trkpt lat="35.2033256" lon="10.7113533"><ele>68.0</ele><time>2026-04-25T10:58:47.864Z</time></trkpt><trkpt lat="35.2032265" lon="10.7114219"><ele>68.0</ele><time>2026-04-25T10:58:48.877Z</time></trkpt><trkpt lat="35.2031187" lon="10.7114872"><ele>68.0</ele><time>2026-04-25T10:58:49.877Z</time></trkpt><trkpt lat="35.2030122" lon="10.7115506"><ele>68.0</ele><time>2026-04-25T10:58:50.88Z</time></trkpt><trkpt lat="35.2029002" lon="10.7116149"><ele>68.0</ele><time>2026-04-25T10:58:51.872Z</time></trkpt><trkpt lat="35.2027888" lon="10.7116889"><ele>68.0</ele><time>2026-04-25T10:58:52.868Z</time></trkpt><trkpt lat="35.2026799" lon="10.7117568"><ele>68.0</ele><time>2026-04-25T10:58:53.857Z</time></trkpt><trkpt lat="35.2025727" lon="10.7118232"><ele>68.0</ele><time>2026-04-25T10:58:54.886Z</time></trkpt><trkpt lat="35.2024663" lon="10.711891"><ele>68.0</ele><time>2026-04-25T10:58:55.872Z</time></trkpt><trkpt lat="35.2023625" lon="10.7119604"><ele>68.0</ele><time>2026-04-25T10:58:56.851Z</time></trkpt><trkpt lat="35.202259" lon="10.712025"><ele>68.0</ele><time>2026-04-25T10:58:57.887Z</time></trkpt><trkpt lat="35.2021559" lon="10.7120851"><ele>68.25</ele><time>2026-04-25T10:58:58.881Z</time></trkpt><trkpt lat="35.2020542" lon="10.712147"><ele>68.5</ele><time>2026-04-25T10:58:59.865Z</time></trkpt><trkpt lat="35.2019506" lon="10.7122097"><ele>68.75</ele><time>2026-04-25T10:59:00.87Z</time></trkpt><trkpt lat="35.2018478" lon="10.7122746"><ele>69.0</ele><time>2026-04-25T10:59:01.854Z</time></trkpt><trkpt lat="35.2017397" lon="10.7123375"><ele>69.0</ele><time>2026-04-25T10:59:02.861Z</time></trkpt><trkpt lat="35.2016308" lon="10.7124062"><ele>69.0</ele><time>2026-04-25T10:59:03.868Z</time></trkpt><trkpt lat="35.2015194" lon="10.7124744"><ele>69.0</ele><time>2026-04-25T10:59:04.87Z</time></trkpt><trkpt lat="35.2014077" lon="10.7125441"><ele>69.0</ele><time>2026-04-25T10:59:05.875Z</time></trkpt><trkpt lat="35.2012987" lon="10.7126128"><ele>69.25</ele><time>2026-04-25T10:59:06.864Z</time></trkpt><trkpt lat="35.2011873" lon="10.7126829"><ele>69.5</ele><time>2026-04-25T10:59:07.86Z</time></trkpt><trkpt lat="35.2010723" lon="10.7127514"><ele>69.75</ele><time>2026-04-25T10:59:08.858Z</time></trkpt><trkpt lat="35.2009585" lon="10.7128217"><ele>70.0</ele><time>2026-04-25T10:59:09.888Z</time></trkpt><trkpt lat="35.2008406" lon="10.7128946"><ele>70.0</ele><time>2026-04-25T10:59:10.868Z</time></trkpt><trkpt lat="35.200725" lon="10.7129699"><ele>70.0</ele><time>2026-04-25T10:59:11.859Z</time></trkpt><trkpt lat="35.2006137" lon="10.7130363"><ele>70.0</ele><time>2026-04-25T10:59:12.862Z</time></trkpt><trkpt lat="35.2005045" lon="10.7131036"><ele>70.0</ele><time>2026-04-25T10:59:13.861Z</time></trkpt><trkpt lat="35.2003973" lon="10.7131697"><ele>70.0</ele><time>2026-04-25T10:59:14.88Z</time></trkpt><trkpt lat="35.2002885" lon="10.7132372"><ele>70.0</ele><time>2026-04-25T10:59:15.86Z</time></trkpt><trkpt lat="35.2001828" lon="10.7133057"><ele>70.0</ele><time>2026-04-25T10:59:16.866Z</time></trkpt><trkpt lat="35.2000721" lon="10.7133749"><ele>70.0</ele><time>2026-04-25T10:59:17.864Z</time></trkpt><trkpt lat="35.1999622" lon="10.7134429"><ele>70.0</ele><time>2026-04-25T10:59:18.864Z</time></trkpt><trkpt lat="35.1998531" lon="10.7135097"><ele>70.0</ele><time>2026-04-25T10:59:19.865Z</time></trkpt><trkpt lat="35.1997425" lon="10.713577"><ele>70.0</ele><time>2026-04-25T10:59:20.864Z</time></trkpt><trkpt lat="35.1996351" lon="10.7136429"><ele>70.0</ele><time>2026-04-25T10:59:21.852Z</time></trkpt><trkpt lat="35.1995208" lon="10.7137112"><ele>70.75</ele><time>2026-04-25T10:59:22.863Z</time></trkpt><trkpt lat="35.199404" lon="10.7137857"><ele>71.5</ele><time>2026-04-25T10:59:23.861Z</time></trkpt><trkpt lat="35.1992829" lon="10.7138624"><ele>72.25</ele><time>2026-04-25T10:59:24.887Z</time></trkpt><trkpt lat="35.199163" lon="10.7139404"><ele>73.0</ele><time>2026-04-25T10:59:25.855Z</time></trkpt><trkpt lat="35.1990345" lon="10.7140213"><ele>71.0</ele><time>2026-04-25T10:59:26.879Z</time></trkpt><trkpt lat="35.1988892" lon="10.7141186"><ele>69.0</ele><time>2026-04-25T10:59:27.858Z</time></trkpt><trkpt lat="35.1987331" lon="10.7142195"><ele>67.0</ele><time>2026-04-25T10:59:28.863Z</time></trkpt><trkpt lat="35.1985719" lon="10.7143179"><ele>67.66666666666666</ele><time>2026-04-25T10:59:29.861Z</time></trkpt><trkpt lat="35.1984145" lon="10.7144144"><ele>68.33333333333333</ele><time>2026-04-25T10:59:30.863Z</time></trkpt><trkpt lat="35.1982545" lon="10.7145105"><ele>69.0</ele><time>2026-04-25T10:59:31.859Z</time></trkpt><trkpt lat="35.198099" lon="10.7146074"><ele>69.0</ele><time>2026-04-25T10:59:32.854Z</time></trkpt><trkpt lat="35.1979391" lon="10.7147073"><ele>69.0</ele><time>2026-04-25T10:59:33.857Z</time></trkpt><trkpt lat="35.1977833" lon="10.7148064"><ele>69.0</ele><time>2026-04-25T10:59:34.87Z</time></trkpt><trkpt lat="35.1976242" lon="10.7149094"><ele>69.0</ele><time>2026-04-25T10:59:35.86Z</time></trkpt><trkpt lat="35.1974662" lon="10.7150091"><ele>69.0</ele><time>2026-04-25T10:59:36.886Z</time></trkpt><trkpt lat="35.1973048" lon="10.7151116"><ele>69.0</ele><time>2026-04-25T10:59:37.896Z</time></trkpt><trkpt lat="35.1971469" lon="10.715215"><ele>68.66666666666667</ele><time>2026-04-25T10:59:38.863Z</time></trkpt><trkpt lat="35.1969863" lon="10.7153153"><ele>68.33333333333334</ele><time>2026-04-25T10:59:39.865Z</time></trkpt><trkpt lat="35.1968251" lon="10.7154159"><ele>68.0</ele><time>2026-04-25T10:59:40.854Z</time></trkpt><trkpt lat="35.1966645" lon="10.7155157"><ele>67.66666666666667</ele><time>2026-04-25T10:59:41.868Z</time></trkpt><trkpt lat="35.1965022" lon="10.7156196"><ele>67.33333333333333</ele><time>2026-04-25T10:59:42.86Z</time></trkpt><trkpt lat="35.1963402" lon="10.7157211"><ele>67.0</ele><time>2026-04-25T10:59:43.856Z</time></trkpt><trkpt lat="35.1961787" lon="10.7158239"><ele>67.0</ele><time>2026-04-25T10:59:44.865Z</time></trkpt><trkpt lat="35.1960174" lon="10.7159229"><ele>67.0</ele><time>2026-04-25T10:59:45.872Z</time></trkpt><trkpt lat="35.1958535" lon="10.7160255"><ele>67.0</ele><time>2026-04-25T10:59:46.863Z</time></trkpt><trkpt lat="35.1956925" lon="10.7161273"><ele>67.33333333333333</ele><time>2026-04-25T10:59:47.857Z</time></trkpt><trkpt lat="35.1955294" lon="10.7162261"><ele>67.66666666666667</ele><time>2026-04-25T10:59:48.853Z</time></trkpt><trkpt lat="35.1953698" lon="10.7163303"><ele>68.0</ele><time>2026-04-25T10:59:49.859Z</time></trkpt><trkpt lat="35.1952098" lon="10.7164266"><ele>68.0</ele><time>2026-04-25T10:59:50.852Z</time></trkpt><trkpt lat="35.195049" lon="10.7165292"><ele>68.0</ele><time>2026-04-25T10:59:51.868Z</time></trkpt><trkpt lat="35.1948917" lon="10.7166302"><ele>68.0</ele><time>2026-04-25T10:59:52.86Z</time></trkpt><trkpt lat="35.1947339" lon="10.7167312"><ele>67.0</ele><time>2026-04-25T10:59:53.867Z</time></trkpt><trkpt lat="35.194573" lon="10.7168335"><ele>66.0</ele><time>2026-04-25T10:59:54.896Z</time></trkpt><trkpt lat="35.1944096" lon="10.7169331"><ele>65.0</ele><time>2026-04-25T10:59:55.866Z</time></trkpt><trkpt lat="35.1942421" lon="10.7170361"><ele>65.0</ele><time>2026-04-25T10:59:56.859Z</time></trkpt><trkpt lat="35.1940799" lon="10.7171382"><ele>65.0</ele><time>2026-04-25T10:59:57.861Z</time></trkpt><trkpt lat="35.1939119" lon="10.7172441"><ele>65.0</ele><time>2026-04-25T10:59:58.866Z</time></trkpt><trkpt lat="35.1937346" lon="10.7173564"><ele>64.66666666666667</ele><time>2026-04-25T10:59:59.883Z</time></trkpt><trkpt lat="35.1935594" lon="10.7174677"><ele>64.33333333333333</ele><time>2026-04-25T11:00:00.877Z</time></trkpt><trkpt lat="35.1933827" lon="10.717579"><ele>64.0</ele><time>2026-04-25T11:00:01.855Z</time></trkpt><trkpt lat="35.193206" lon="10.717687"><ele>63.33333333333333</ele><time>2026-04-25T11:00:02.888Z</time></trkpt><trkpt lat="35.1930281" lon="10.7177951"><ele>62.66666666666667</ele><time>2026-04-25T11:00:03.862Z</time></trkpt><trkpt lat="35.1928503" lon="10.7179087"><ele>62.0</ele><time>2026-04-25T11:00:04.868Z</time></trkpt><trkpt lat="35.1926738" lon="10.7180188"><ele>62.0</ele><time>2026-04-25T11:00:05.865Z</time></trkpt><trkpt lat="35.1924956" lon="10.7181278"><ele>62.0</ele><time>2026-04-25T11:00:06.871Z</time></trkpt><trkpt lat="35.1923221" lon="10.7182377"><ele>62.0</ele><time>2026-04-25T11:00:07.866Z</time></trkpt><trkpt lat="35.1921471" lon="10.7183491"><ele>61.333333333333336</ele><time>2026-04-25T11:00:08.85Z</time></trkpt><trkpt lat="35.1919739" lon="10.7184599"><ele>60.66666666666667</ele><time>2026-04-25T11:00:09.872Z</time></trkpt><trkpt lat="35.1918012" lon="10.7185692"><ele>60.0</ele><time>2026-04-25T11:00:10.871Z</time></trkpt><trkpt lat="35.1916263" lon="10.7186765"><ele>60.0</ele><time>2026-04-25T11:00:11.86Z</time></trkpt><trkpt lat="35.191456" lon="10.7187849"><ele>60.0</ele><time>2026-04-25T11:00:12.883Z</time></trkpt><trkpt lat="35.1912812" lon="10.7188911"><ele>60.0</ele><time>2026-04-25T11:00:13.863Z</time></trkpt><trkpt lat="35.1911064" lon="10.7190002"><ele>60.0</ele><time>2026-04-25T11:00:14.86Z</time></trkpt><trkpt lat="35.1909301" lon="10.7191113"><ele>60.0</ele><time>2026-04-25T11:00:15.865Z</time></trkpt><trkpt lat="35.1907591" lon="10.7192175"><ele>60.0</ele><time>2026-04-25T11:00:16.868Z</time></trkpt><trkpt lat="35.1905878" lon="10.719323"><ele>59.66666666666667</ele><time>2026-04-25T11:00:17.858Z</time></trkpt><trkpt lat="35.1904254" lon="10.7194238"><ele>59.333333333333336</ele><time>2026-04-25T11:00:18.869Z</time></trkpt><trkpt lat="35.1902593" lon="10.7195251"><ele>59.0</ele><time>2026-04-25T11:00:19.875Z</time></trkpt><trkpt lat="35.1900911" lon="10.719626"><ele>59.0</ele><time>2026-04-25T11:00:20.865Z</time></trkpt><trkpt lat="35.1899236" lon="10.7197305"><ele>59.0</ele><time>2026-04-25T11:00:21.865Z</time></trkpt><trkpt lat="35.1897585" lon="10.7198372"><ele>59.0</ele><time>2026-04-25T11:00:22.879Z</time></trkpt><trkpt lat="35.1895951" lon="10.7199435"><ele>59.66666666666667</ele><time>2026-04-25T11:00:23.861Z</time></trkpt><trkpt lat="35.1894351" lon="10.7200422"><ele>60.33333333333333</ele><time>2026-04-25T11:00:24.874Z</time></trkpt><trkpt lat="35.1892721" lon="10.7201402"><ele>61.0</ele><time>2026-04-25T11:00:25.873Z</time></trkpt><trkpt lat="35.1891112" lon="10.7202398"><ele>61.0</ele><time>2026-04-25T11:00:26.867Z</time></trkpt><trkpt lat="35.1889489" lon="10.7203422"><ele>61.0</ele><time>2026-04-25T11:00:27.863Z</time></trkpt><trkpt lat="35.188785" lon="10.7204451"><ele>61.0</ele><time>2026-04-25T11:00:28.866Z</time></trkpt><trkpt lat="35.1886208" lon="10.7205464"><ele>61.0</ele><time>2026-04-25T11:00:29.876Z</time></trkpt><trkpt lat="35.1884562" lon="10.72065"><ele>61.0</ele><time>2026-04-25T11:00:30.856Z</time></trkpt><trkpt lat="35.1882887" lon="10.7207586"><ele>61.0</ele><time>2026-04-25T11:00:31.86Z</time></trkpt><trkpt lat="35.1881189" lon="10.7208636"><ele>60.33333333333333</ele><time>2026-04-25T11:00:32.869Z</time></trkpt><trkpt lat="35.1879493" lon="10.7209687"><ele>59.66666666666667</ele><time>2026-04-25T11:00:33.865Z</time></trkpt><trkpt lat="35.1877799" lon="10.7210775"><ele>59.0</ele><time>2026-04-25T11:00:34.867Z</time></trkpt><trkpt lat="35.1876103" lon="10.7211858"><ele>58.66666666666667</ele><time>2026-04-25T11:00:35.865Z</time></trkpt><trkpt lat="35.187436" lon="10.7212961"><ele>58.33333333333333</ele><time>2026-04-25T11:00:36.847Z</time></trkpt><trkpt lat="35.187268" lon="10.7214006"><ele>58.0</ele><time>2026-04-25T11:00:37.852Z</time></trkpt><trkpt lat="35.1871052" lon="10.7215043"><ele>57.33333333333333</ele><time>2026-04-25T11:00:38.866Z</time></trkpt><trkpt lat="35.1869399" lon="10.7216068"><ele>56.66666666666667</ele><time>2026-04-25T11:00:39.863Z</time></trkpt><trkpt lat="35.1867737" lon="10.7217067"><ele>56.0</ele><time>2026-04-25T11:00:40.867Z</time></trkpt><trkpt lat="35.1866086" lon="10.7218051"><ele>57.0</ele><time>2026-04-25T11:00:41.877Z</time></trkpt><trkpt lat="35.1864418" lon="10.7219019"><ele>58.0</ele><time>2026-04-25T11:00:42.866Z</time></trkpt><trkpt lat="35.1862812" lon="10.7219826"><ele>59.0</ele><time>2026-04-25T11:00:43.87Z</time></trkpt><trkpt lat="35.1859404" lon="10.7221177"><ele>59.0</ele><time>2026-04-25T11:00:45.855Z</time></trkpt><trkpt lat="35.1857647" lon="10.7221787"><ele>59.0</ele><time>2026-04-25T11:00:46.865Z</time></trkpt><trkpt lat="35.1855842" lon="10.7222356"><ele>59.0</ele><time>2026-04-25T11:00:47.855Z</time></trkpt><trkpt lat="35.185405" lon="10.7222884"><ele>58.0</ele><time>2026-04-25T11:00:48.855Z</time></trkpt><trkpt lat="35.1852227" lon="10.722344"><ele>57.0</ele><time>2026-04-25T11:00:49.86Z</time></trkpt><trkpt lat="35.1850426" lon="10.7223983"><ele>56.0</ele><time>2026-04-25T11:00:50.866Z</time></trkpt><trkpt lat="35.1848617" lon="10.7224525"><ele>55.0</ele><time>2026-04-25T11:00:51.859Z</time></trkpt><trkpt lat="35.1846846" lon="10.7225038"><ele>54.0</ele><time>2026-04-25T11:00:52.854Z</time></trkpt><trkpt lat="35.1845089" lon="10.7225477"><ele>53.0</ele><time>2026-04-25T11:00:53.854Z</time></trkpt><trkpt lat="35.1843371" lon="10.7225915"><ele>53.0</ele><time>2026-04-25T11:00:54.871Z</time></trkpt><trkpt lat="35.1841697" lon="10.7226354"><ele>53.0</ele><time>2026-04-25T11:00:55.866Z</time></trkpt><trkpt lat="35.184" lon="10.7226793"><ele>53.0</ele><time>2026-04-25T11:00:56.861Z</time></trkpt><trkpt lat="35.1838319" lon="10.7227277"><ele>53.66666666666667</ele><time>2026-04-25T11:00:57.868Z</time></trkpt><trkpt lat="35.1836657" lon="10.7227769"><ele>54.33333333333333</ele><time>2026-04-25T11:00:58.857Z</time></trkpt><trkpt lat="35.1834997" lon="10.7228267"><ele>55.0</ele><time>2026-04-25T11:00:59.862Z</time></trkpt><trkpt lat="35.1833298" lon="10.7228755"><ele>53.33333333333333</ele><time>2026-04-25T11:01:00.857Z</time></trkpt><trkpt lat="35.1831601" lon="10.7229227"><ele>51.66666666666667</ele><time>2026-04-25T11:01:01.859Z</time></trkpt><trkpt lat="35.1829893" lon="10.7229702"><ele>50.0</ele><time>2026-04-25T11:01:02.858Z</time></trkpt><trkpt lat="35.1828125" lon="10.7230168"><ele>50.0</ele><time>2026-04-25T11:01:03.874Z</time></trkpt><trkpt lat="35.1826389" lon="10.7230645"><ele>50.0</ele><time>2026-04-25T11:01:04.87Z</time></trkpt><trkpt lat="35.182464" lon="10.7231126"><ele>50.0</ele><time>2026-04-25T11:01:05.868Z</time></trkpt><trkpt lat="35.1822926" lon="10.7231617"><ele>48.66666666666667</ele><time>2026-04-25T11:01:06.875Z</time></trkpt><trkpt lat="35.1821157" lon="10.7232091"><ele>47.333333333333336</ele><time>2026-04-25T11:01:07.861Z</time></trkpt><trkpt lat="35.1819407" lon="10.7232625"><ele>46.0</ele><time>2026-04-25T11:01:08.873Z</time></trkpt><trkpt lat="35.1817647" lon="10.7233157"><ele>46.0</ele><time>2026-04-25T11:01:09.856Z</time></trkpt><trkpt lat="35.1815868" lon="10.7233715"><ele>46.0</ele><time>2026-04-25T11:01:10.858Z</time></trkpt><trkpt lat="35.1814069" lon="10.7234217"><ele>46.0</ele><time>2026-04-25T11:01:11.881Z</time></trkpt><trkpt lat="35.1812265" lon="10.723471"><ele>47.0</ele><time>2026-04-25T11:01:12.885Z</time></trkpt><trkpt lat="35.1810468" lon="10.723521"><ele>48.0</ele><time>2026-04-25T11:01:13.871Z</time></trkpt><trkpt lat="35.1808666" lon="10.7235702"><ele>49.0</ele><time>2026-04-25T11:01:14.86Z</time></trkpt><trkpt lat="35.1806889" lon="10.7236172"><ele>49.0</ele><time>2026-04-25T11:01:15.859Z</time></trkpt><trkpt lat="35.1805118" lon="10.7236636"><ele>49.0</ele><time>2026-04-25T11:01:16.868Z</time></trkpt><trkpt lat="35.1803402" lon="10.7237156"><ele>49.0</ele><time>2026-04-25T11:01:17.859Z</time></trkpt><trkpt lat="35.1801627" lon="10.7237652"><ele>49.0</ele><time>2026-04-25T11:01:18.868Z</time></trkpt><trkpt lat="35.1799871" lon="10.723819"><ele>49.0</ele><time>2026-04-25T11:01:19.866Z</time></trkpt><trkpt lat="35.1798135" lon="10.7238677"><ele>49.0</ele><time>2026-04-25T11:01:20.862Z</time></trkpt><trkpt lat="35.1796417" lon="10.723918"><ele>48.666666666666664</ele><time>2026-04-25T11:01:21.866Z</time></trkpt><trkpt lat="35.1794693" lon="10.7239678"><ele>48.33333333333333</ele><time>2026-04-25T11:01:22.871Z</time></trkpt><trkpt lat="35.1792926" lon="10.7240174"><ele>48.0</ele><time>2026-04-25T11:01:23.854Z</time></trkpt><trkpt lat="35.1791173" lon="10.724067"><ele>47.666666666666664</ele><time>2026-04-25T11:01:24.848Z</time></trkpt><trkpt lat="35.1789457" lon="10.7241214"><ele>47.33333333333333</ele><time>2026-04-25T11:01:25.844Z</time></trkpt><trkpt lat="35.1787759" lon="10.7241669"><ele>47.0</ele><time>2026-04-25T11:01:26.839Z</time></trkpt><trkpt lat="35.1786092" lon="10.7242114"><ele>47.0</ele><time>2026-04-25T11:01:27.86Z</time></trkpt><trkpt lat="35.1784396" lon="10.7242594"><ele>47.0</ele><time>2026-04-25T11:01:28.84Z</time></trkpt><trkpt lat="35.1782717" lon="10.7243087"><ele>47.0</ele><time>2026-04-25T11:01:29.864Z</time></trkpt><trkpt lat="35.1781025" lon="10.7243584"><ele>46.33333333333333</ele><time>2026-04-25T11:01:30.864Z</time></trkpt><trkpt lat="35.1779318" lon="10.7244095"><ele>45.666666666666664</ele><time>2026-04-25T11:01:31.846Z</time></trkpt><trkpt lat="35.1777626" lon="10.7244624"><ele>45.0</ele><time>2026-04-25T11:01:32.855Z</time></trkpt><trkpt lat="35.1775921" lon="10.7245097"><ele>45.0</ele><time>2026-04-25T11:01:33.858Z</time></trkpt><trkpt lat="35.1774255" lon="10.7245543"><ele>45.0</ele><time>2026-04-25T11:01:34.862Z</time></trkpt><trkpt lat="35.1772574" lon="10.7246023"><ele>45.0</ele><time>2026-04-25T11:01:35.852Z</time></trkpt><trkpt lat="35.1770876" lon="10.7246478"><ele>45.0</ele><time>2026-04-25T11:01:36.867Z</time></trkpt><trkpt lat="35.176923" lon="10.7246967"><ele>45.0</ele><time>2026-04-25T11:01:37.861Z</time></trkpt><trkpt lat="35.1767554" lon="10.7247479"><ele>45.0</ele><time>2026-04-25T11:01:38.858Z</time></trkpt><trkpt lat="35.1765873" lon="10.7247937"><ele>45.0</ele><time>2026-04-25T11:01:39.867Z</time></trkpt><trkpt lat="35.1764213" lon="10.724842"><ele>45.0</ele><time>2026-04-25T11:01:40.867Z</time></trkpt><trkpt lat="35.1762517" lon="10.7248886"><ele>45.0</ele><time>2026-04-25T11:01:41.87Z</time></trkpt><trkpt lat="35.1760815" lon="10.7249351"><ele>45.0</ele><time>2026-04-25T11:01:42.854Z</time></trkpt><trkpt lat="35.1759073" lon="10.724986"><ele>45.0</ele><time>2026-04-25T11:01:43.849Z</time></trkpt><trkpt lat="35.1757343" lon="10.7250347"><ele>45.0</ele><time>2026-04-25T11:01:44.869Z</time></trkpt><trkpt lat="35.1755607" lon="10.7250835"><ele>45.333333333333336</ele><time>2026-04-25T11:01:45.848Z</time></trkpt><trkpt lat="35.1753838" lon="10.7251341"><ele>45.66666666666667</ele><time>2026-04-25T11:01:46.851Z</time></trkpt><trkpt lat="35.1752106" lon="10.725186"><ele>46.0</ele><time>2026-04-25T11:01:47.875Z</time></trkpt><trkpt lat="35.1750314" lon="10.7252384"><ele>45.333333333333336</ele><time>2026-04-25T11:01:48.855Z</time></trkpt><trkpt lat="35.1748508" lon="10.7252885"><ele>44.666666666666664</ele><time>2026-04-25T11:01:49.87Z</time></trkpt><trkpt lat="35.1746746" lon="10.725337"><ele>44.0</ele><time>2026-04-25T11:01:50.864Z</time></trkpt><trkpt lat="35.1744946" lon="10.7253933"><ele>44.0</ele><time>2026-04-25T11:01:51.869Z</time></trkpt><trkpt lat="35.1743165" lon="10.72545"><ele>44.0</ele><time>2026-04-25T11:01:52.861Z</time></trkpt><trkpt lat="35.1741294" lon="10.7255058"><ele>44.0</ele><time>2026-04-25T11:01:53.879Z</time></trkpt><trkpt lat="35.1739411" lon="10.7255613"><ele>43.666666666666664</ele><time>2026-04-25T11:01:54.853Z</time></trkpt><trkpt lat="35.1737492" lon="10.7256169"><ele>43.333333333333336</ele><time>2026-04-25T11:01:55.858Z</time></trkpt><trkpt lat="35.1735586" lon="10.7256737"><ele>43.0</ele><time>2026-04-25T11:01:56.859Z</time></trkpt><trkpt lat="35.1733652" lon="10.7257239"><ele>42.333333333333336</ele><time>2026-04-25T11:01:57.864Z</time></trkpt><trkpt lat="35.17317" lon="10.7257737"><ele>41.666666666666664</ele><time>2026-04-25T11:01:58.852Z</time></trkpt><trkpt lat="35.1729771" lon="10.7258297"><ele>41.0</ele><time>2026-04-25T11:01:59.86Z</time></trkpt><trkpt lat="35.1727901" lon="10.7258858"><ele>41.0</ele><time>2026-04-25T11:02:00.868Z</time></trkpt><trkpt lat="35.1726062" lon="10.7259442"><ele>41.0</ele><time>2026-04-25T11:02:01.857Z</time></trkpt><trkpt lat="35.1724184" lon="10.726001"><ele>41.0</ele><time>2026-04-25T11:02:02.857Z</time></trkpt><trkpt lat="35.1722271" lon="10.7260545"><ele>41.33333333333333</ele><time>2026-04-25T11:02:03.85Z</time></trkpt><trkpt lat="35.1720299" lon="10.726111"><ele>41.666666666666664</ele><time>2026-04-25T11:02:04.865Z</time></trkpt><trkpt lat="35.1718399" lon="10.7261616"><ele>42.0</ele><time>2026-04-25T11:02:05.872Z</time></trkpt><trkpt lat="35.1716514" lon="10.7262098"><ele>41.666666666666664</ele><time>2026-04-25T11:02:06.855Z</time></trkpt><trkpt lat="35.1714617" lon="10.7262618"><ele>41.33333333333333</ele><time>2026-04-25T11:02:07.861Z</time></trkpt><trkpt lat="35.1712705" lon="10.7263196"><ele>41.0</ele><time>2026-04-25T11:02:08.852Z</time></trkpt><trkpt lat="35.1710791" lon="10.7263736"><ele>41.0</ele><time>2026-04-25T11:02:09.862Z</time></trkpt><trkpt lat="35.1708906" lon="10.7264276"><ele>41.0</ele><time>2026-04-25T11:02:10.857Z</time></trkpt><trkpt lat="35.170702" lon="10.7264778"><ele>41.0</ele><time>2026-04-25T11:02:11.857Z</time></trkpt><trkpt lat="35.1705136" lon="10.7265355"><ele>41.0</ele><time>2026-04-25T11:02:12.871Z</time></trkpt><trkpt lat="35.1703271" lon="10.7265943"><ele>41.0</ele><time>2026-04-25T11:02:13.864Z</time></trkpt><trkpt lat="35.1701371" lon="10.7266497"><ele>41.0</ele><time>2026-04-25T11:02:14.864Z</time></trkpt><trkpt lat="35.1699441" lon="10.7267029"><ele>41.33333333333333</ele><time>2026-04-25T11:02:15.866Z</time></trkpt><trkpt lat="35.1697553" lon="10.7267569"><ele>41.666666666666664</ele><time>2026-04-25T11:02:16.866Z</time></trkpt><trkpt lat="35.1695656" lon="10.7268118"><ele>42.0</ele><time>2026-04-25T11:02:17.869Z</time></trkpt><trkpt lat="35.1693741" lon="10.7268703"><ele>41.333333333333336</ele><time>2026-04-25T11:02:18.846Z</time></trkpt><trkpt lat="35.1691852" lon="10.7269282"><ele>40.66666666666667</ele><time>2026-04-25T11:02:19.865Z</time></trkpt><trkpt lat="35.1689965" lon="10.7269842"><ele>40.0</ele><time>2026-04-25T11:02:20.852Z</time></trkpt><trkpt lat="35.1688075" lon="10.727038"><ele>39.66666666666667</ele><time>2026-04-25T11:02:21.876Z</time></trkpt><trkpt lat="35.1686136" lon="10.727092"><ele>39.333333333333336</ele><time>2026-04-25T11:02:22.86Z</time></trkpt><trkpt lat="35.1684232" lon="10.7271449"><ele>39.0</ele><time>2026-04-25T11:02:23.875Z</time></trkpt><trkpt lat="35.1682349" lon="10.7271996"><ele>39.0</ele><time>2026-04-25T11:02:24.879Z</time></trkpt><trkpt lat="35.1680429" lon="10.7272565"><ele>39.0</ele><time>2026-04-25T11:02:25.862Z</time></trkpt><trkpt lat="35.1678484" lon="10.7273107"><ele>39.0</ele><time>2026-04-25T11:02:26.862Z</time></trkpt><trkpt lat="35.1676563" lon="10.7273657"><ele>39.0</ele><time>2026-04-25T11:02:27.869Z</time></trkpt><trkpt lat="35.1674666" lon="10.7274197"><ele>39.0</ele><time>2026-04-25T11:02:28.875Z</time></trkpt><trkpt lat="35.1672759" lon="10.7274713"><ele>39.0</ele><time>2026-04-25T11:02:29.866Z</time></trkpt><trkpt lat="35.1670878" lon="10.7275261"><ele>39.0</ele><time>2026-04-25T11:02:30.872Z</time></trkpt><trkpt lat="35.1668999" lon="10.7275842"><ele>39.0</ele><time>2026-04-25T11:02:31.862Z</time></trkpt><trkpt lat="35.1667109" lon="10.727642"><ele>39.0</ele><time>2026-04-25T11:02:32.893Z</time></trkpt><trkpt lat="35.1665212" lon="10.7276949"><ele>38.333333333333336</ele><time>2026-04-25T11:02:33.892Z</time></trkpt><trkpt lat="35.1663341" lon="10.7277498"><ele>37.66666666666667</ele><time>2026-04-25T11:02:34.864Z</time></trkpt><trkpt lat="35.1661496" lon="10.7278052"><ele>37.0</ele><time>2026-04-25T11:02:35.839Z</time></trkpt><trkpt lat="35.1659643" lon="10.7278563"><ele>37.0</ele><time>2026-04-25T11:02:36.871Z</time></trkpt><trkpt lat="35.1657844" lon="10.7279104"><ele>37.0</ele><time>2026-04-25T11:02:37.845Z</time></trkpt><trkpt lat="35.1656095" lon="10.7279621"><ele>37.0</ele><time>2026-04-25T11:02:38.868Z</time></trkpt><trkpt lat="35.1654325" lon="10.7280138"><ele>37.0</ele><time>2026-04-25T11:02:39.881Z</time></trkpt><trkpt lat="35.1652538" lon="10.728063"><ele>37.0</ele><time>2026-04-25T11:02:40.881Z</time></trkpt><trkpt lat="35.1650735" lon="10.7281166"><ele>37.0</ele><time>2026-04-25T11:02:41.858Z</time></trkpt><trkpt lat="35.1648928" lon="10.7281715"><ele>37.333333333333336</ele><time>2026-04-25T11:02:42.865Z</time></trkpt><trkpt lat="35.1647074" lon="10.728221"><ele>37.666666666666664</ele><time>2026-04-25T11:02:43.863Z</time></trkpt><trkpt lat="35.1645234" lon="10.7282715"><ele>38.0</ele><time>2026-04-25T11:02:44.863Z</time></trkpt><trkpt lat="35.1643381" lon="10.7283223"><ele>38.0</ele><time>2026-04-25T11:02:45.885Z</time></trkpt><trkpt lat="35.1641541" lon="10.7283711"><ele>38.0</ele><time>2026-04-25T11:02:46.887Z</time></trkpt><trkpt lat="35.1639714" lon="10.7284205"><ele>38.0</ele><time>2026-04-25T11:02:47.873Z</time></trkpt><trkpt lat="35.1637935" lon="10.7284724"><ele>38.0</ele><time>2026-04-25T11:02:48.879Z</time></trkpt><trkpt lat="35.1636127" lon="10.7285238"><ele>38.0</ele><time>2026-04-25T11:02:49.89Z</time></trkpt><trkpt lat="35.1634334" lon="10.7285751"><ele>38.0</ele><time>2026-04-25T11:02:50.882Z</time></trkpt><trkpt lat="35.1632598" lon="10.7286255"><ele>38.0</ele><time>2026-04-25T11:02:51.873Z</time></trkpt><trkpt lat="35.1630825" lon="10.7286773"><ele>38.0</ele><time>2026-04-25T11:02:52.871Z</time></trkpt><trkpt lat="35.1629056" lon="10.7287283"><ele>38.0</ele><time>2026-04-25T11:02:53.882Z</time></trkpt><trkpt lat="35.1627219" lon="10.7287807"><ele>38.0</ele><time>2026-04-25T11:02:54.896Z</time></trkpt><trkpt lat="35.1625348" lon="10.728836"><ele>38.0</ele><time>2026-04-25T11:02:55.895Z</time></trkpt><trkpt lat="35.1623567" lon="10.7288896"><ele>38.0</ele><time>2026-04-25T11:02:56.865Z</time></trkpt><trkpt lat="35.1621903" lon="10.7289382"><ele>37.33333333333333</ele><time>2026-04-25T11:02:57.871Z</time></trkpt><trkpt lat="35.1620351" lon="10.7289848"><ele>36.666666666666664</ele><time>2026-04-25T11:02:58.879Z</time></trkpt><trkpt lat="35.1618828" lon="10.7290253"><ele>36.0</ele><time>2026-04-25T11:02:59.898Z</time></trkpt><trkpt lat="35.1617371" lon="10.7290691"><ele>36.0</ele><time>2026-04-25T11:03:00.843Z</time></trkpt><trkpt lat="35.1615897" lon="10.7291125"><ele>36.0</ele><time>2026-04-25T11:03:01.886Z</time></trkpt><trkpt lat="35.1614418" lon="10.7291556"><ele>36.0</ele><time>2026-04-25T11:03:02.879Z</time></trkpt><trkpt lat="35.1612911" lon="10.7291997"><ele>36.666666666666664</ele><time>2026-04-25T11:03:03.893Z</time></trkpt><trkpt lat="35.1611377" lon="10.7292453"><ele>37.33333333333333</ele><time>2026-04-25T11:03:04.879Z</time></trkpt><trkpt lat="35.160981" lon="10.7292918"><ele>38.0</ele><time>2026-04-25T11:03:05.891Z</time></trkpt><trkpt lat="35.1608271" lon="10.7293381"><ele>37.33333333333333</ele><time>2026-04-25T11:03:06.879Z</time></trkpt><trkpt lat="35.1606726" lon="10.7293806"><ele>36.666666666666664</ele><time>2026-04-25T11:03:07.87Z</time></trkpt><trkpt lat="35.1605226" lon="10.7294234"><ele>36.0</ele><time>2026-04-25T11:03:08.893Z</time></trkpt><trkpt lat="35.1603737" lon="10.7294657"><ele>37.333333333333336</ele><time>2026-04-25T11:03:09.89Z</time></trkpt><trkpt lat="35.1602199" lon="10.7295115"><ele>38.66666666666667</ele><time>2026-04-25T11:03:10.858Z</time></trkpt><trkpt lat="35.1600739" lon="10.7295573"><ele>40.0</ele><time>2026-04-25T11:03:11.853Z</time></trkpt><trkpt lat="35.1599248" lon="10.7295965"><ele>39.0</ele><time>2026-04-25T11:03:12.851Z</time></trkpt><trkpt lat="35.1597725" lon="10.7296374"><ele>38.0</ele><time>2026-04-25T11:03:13.88Z</time></trkpt><trkpt lat="35.1596175" lon="10.7296823"><ele>37.0</ele><time>2026-04-25T11:03:14.886Z</time></trkpt><trkpt lat="35.1594648" lon="10.7297265"><ele>37.0</ele><time>2026-04-25T11:03:15.866Z</time></trkpt><trkpt lat="35.1593111" lon="10.7297731"><ele>37.0</ele><time>2026-04-25T11:03:16.865Z</time></trkpt><trkpt lat="35.1591599" lon="10.7298185"><ele>37.0</ele><time>2026-04-25T11:03:17.883Z</time></trkpt><trkpt lat="35.1590042" lon="10.7298575"><ele>37.0</ele><time>2026-04-25T11:03:18.881Z</time></trkpt><trkpt lat="35.1588514" lon="10.7298979"><ele>37.0</ele><time>2026-04-25T11:03:19.876Z</time></trkpt><trkpt lat="35.1586982" lon="10.7299386"><ele>37.0</ele><time>2026-04-25T11:03:20.868Z</time></trkpt><trkpt lat="35.1585475" lon="10.7299843"><ele>37.0</ele><time>2026-04-25T11:03:21.901Z</time></trkpt><trkpt lat="35.1583958" lon="10.730028"><ele>37.0</ele><time>2026-04-25T11:03:22.879Z</time></trkpt><trkpt lat="35.1582433" lon="10.7300732"><ele>37.0</ele><time>2026-04-25T11:03:23.894Z</time></trkpt><trkpt lat="35.1580941" lon="10.7301171"><ele>36.66666666666667</ele><time>2026-04-25T11:03:24.882Z</time></trkpt><trkpt lat="35.1579392" lon="10.7301627"><ele>36.333333333333336</ele><time>2026-04-25T11:03:25.885Z</time></trkpt><trkpt lat="35.1577838" lon="10.7302078"><ele>36.0</ele><time>2026-04-25T11:03:26.856Z</time></trkpt><trkpt lat="35.1576307" lon="10.7302522"><ele>36.0</ele><time>2026-04-25T11:03:27.883Z</time></trkpt><trkpt lat="35.1574759" lon="10.7303005"><ele>36.0</ele><time>2026-04-25T11:03:28.88Z</time></trkpt><trkpt lat="35.1573187" lon="10.7303459"><ele>36.0</ele><time>2026-04-25T11:03:29.871Z</time></trkpt><trkpt lat="35.1571626" lon="10.7303917"><ele>36.333333333333336</ele><time>2026-04-25T11:03:30.884Z</time></trkpt><trkpt lat="35.1570002" lon="10.7304373"><ele>36.66666666666667</ele><time>2026-04-25T11:03:31.889Z</time></trkpt><trkpt lat="35.1568369" lon="10.7304835"><ele>37.0</ele><time>2026-04-25T11:03:32.881Z</time></trkpt><trkpt lat="35.1566699" lon="10.7305296"><ele>37.333333333333336</ele><time>2026-04-25T11:03:33.872Z</time></trkpt><trkpt lat="35.1564989" lon="10.7305807"><ele>37.666666666666664</ele><time>2026-04-25T11:03:34.894Z</time></trkpt><trkpt lat="35.1563306" lon="10.7306295"><ele>38.0</ele><time>2026-04-25T11:03:35.904Z</time></trkpt><trkpt lat="35.1561665" lon="10.7306745"><ele>38.0</ele><time>2026-04-25T11:03:36.865Z</time></trkpt><trkpt lat="35.1560102" lon="10.7307186"><ele>38.0</ele><time>2026-04-25T11:03:37.887Z</time></trkpt><trkpt lat="35.155862" lon="10.7307551"><ele>38.0</ele><time>2026-04-25T11:03:38.89Z</time></trkpt><trkpt lat="35.1557152" lon="10.7307954"><ele>38.0</ele><time>2026-04-25T11:03:39.846Z</time></trkpt><trkpt lat="35.1555625" lon="10.7308421"><ele>38.0</ele><time>2026-04-25T11:03:40.886Z</time></trkpt><trkpt lat="35.1554089" lon="10.73089"><ele>38.0</ele><time>2026-04-25T11:03:41.84Z</time></trkpt><trkpt lat="35.1552563" lon="10.7309356"><ele>38.0</ele><time>2026-04-25T11:03:42.87Z</time></trkpt><trkpt lat="35.1551002" lon="10.7309792"><ele>38.0</ele><time>2026-04-25T11:03:43.874Z</time></trkpt><trkpt lat="35.1549408" lon="10.731024"><ele>38.0</ele><time>2026-04-25T11:03:44.884Z</time></trkpt><trkpt lat="35.1547769" lon="10.7310707"><ele>38.0</ele><time>2026-04-25T11:03:45.881Z</time></trkpt><trkpt lat="35.1546045" lon="10.7311212"><ele>38.0</ele><time>2026-04-25T11:03:46.878Z</time></trkpt><trkpt lat="35.1544222" lon="10.7311726"><ele>38.0</ele><time>2026-04-25T11:03:47.883Z</time></trkpt><trkpt lat="35.1542429" lon="10.7312253"><ele>38.0</ele><time>2026-04-25T11:03:48.875Z</time></trkpt><trkpt lat="35.1540618" lon="10.7312724"><ele>38.0</ele><time>2026-04-25T11:03:49.868Z</time></trkpt><trkpt lat="35.1538817" lon="10.7313231"><ele>38.0</ele><time>2026-04-25T11:03:50.885Z</time></trkpt><trkpt lat="35.1537046" lon="10.7313765"><ele>38.0</ele><time>2026-04-25T11:03:51.894Z</time></trkpt><trkpt lat="35.1535285" lon="10.7314296"><ele>38.0</ele><time>2026-04-25T11:03:52.876Z</time></trkpt><trkpt lat="35.1533552" lon="10.7314788"><ele>38.0</ele><time>2026-04-25T11:03:53.855Z</time></trkpt><trkpt lat="35.1531821" lon="10.7315292"><ele>38.0</ele><time>2026-04-25T11:03:54.86Z</time></trkpt><trkpt lat="35.153017" lon="10.7315798"><ele>38.0</ele><time>2026-04-25T11:03:55.878Z</time></trkpt><trkpt lat="35.1528529" lon="10.7316267"><ele>38.0</ele><time>2026-04-25T11:03:56.865Z</time></trkpt><trkpt lat="35.1526948" lon="10.7316726"><ele>38.0</ele><time>2026-04-25T11:03:57.873Z</time></trkpt><trkpt lat="35.1525319" lon="10.7317159"><ele>38.0</ele><time>2026-04-25T11:03:58.864Z</time></trkpt><trkpt lat="35.152366" lon="10.7317568"><ele>38.0</ele><time>2026-04-25T11:03:59.885Z</time></trkpt><trkpt lat="35.1522048" lon="10.7318012"><ele>38.0</ele><time>2026-04-25T11:04:00.846Z</time></trkpt><trkpt lat="35.1520411" lon="10.731851"><ele>38.0</ele><time>2026-04-25T11:04:01.891Z</time></trkpt><trkpt lat="35.1518841" lon="10.7318968"><ele>38.0</ele><time>2026-04-25T11:04:02.868Z</time></trkpt><trkpt lat="35.1517248" lon="10.7319389"><ele>38.33333333333333</ele><time>2026-04-25T11:04:03.893Z</time></trkpt><trkpt lat="35.1515675" lon="10.7319822"><ele>38.666666666666664</ele><time>2026-04-25T11:04:04.893Z</time></trkpt><trkpt lat="35.1514105" lon="10.7320276"><ele>39.0</ele><time>2026-04-25T11:04:05.89Z</time></trkpt><trkpt lat="35.1512561" lon="10.7320752"><ele>39.333333333333336</ele><time>2026-04-25T11:04:06.855Z</time></trkpt><trkpt lat="35.1511062" lon="10.7321196"><ele>39.66666666666667</ele><time>2026-04-25T11:04:07.893Z</time></trkpt><trkpt lat="35.1509546" lon="10.7321633"><ele>40.0</ele><time>2026-04-25T11:04:08.882Z</time></trkpt><trkpt lat="35.1508011" lon="10.7322044"><ele>40.333333333333336</ele><time>2026-04-25T11:04:09.865Z</time></trkpt><trkpt lat="35.1506478" lon="10.7322448"><ele>40.666666666666664</ele><time>2026-04-25T11:04:10.877Z</time></trkpt><trkpt lat="35.1505002" lon="10.7322881"><ele>41.0</ele><time>2026-04-25T11:04:11.878Z</time></trkpt><trkpt lat="35.1503506" lon="10.7323332"><ele>41.0</ele><time>2026-04-25T11:04:12.889Z</time></trkpt><trkpt lat="35.1502017" lon="10.7323774"><ele>41.0</ele><time>2026-04-25T11:04:13.888Z</time></trkpt><trkpt lat="35.1500527" lon="10.7324186"><ele>41.0</ele><time>2026-04-25T11:04:14.894Z</time></trkpt><trkpt lat="35.1499017" lon="10.732463"><ele>41.0</ele><time>2026-04-25T11:04:15.891Z</time></trkpt><trkpt lat="35.1497555" lon="10.7325036"><ele>41.0</ele><time>2026-04-25T11:04:16.872Z</time></trkpt><trkpt lat="35.1496097" lon="10.7325486"><ele>41.0</ele><time>2026-04-25T11:04:17.882Z</time></trkpt><trkpt lat="35.1494632" lon="10.7325921"><ele>41.0</ele><time>2026-04-25T11:04:18.877Z</time></trkpt><trkpt lat="35.1493094" lon="10.7326345"><ele>41.0</ele><time>2026-04-25T11:04:19.885Z</time></trkpt><trkpt lat="35.1491565" lon="10.7326794"><ele>41.0</ele><time>2026-04-25T11:04:20.883Z</time></trkpt><trkpt lat="35.1490031" lon="10.7327229"><ele>40.666666666666664</ele><time>2026-04-25T11:04:21.89Z</time></trkpt><trkpt lat="35.1488502" lon="10.732767"><ele>40.333333333333336</ele><time>2026-04-25T11:04:22.871Z</time></trkpt><trkpt lat="35.1486948" lon="10.732811"><ele>40.0</ele><time>2026-04-25T11:04:23.891Z</time></trkpt><trkpt lat="35.1485357" lon="10.7328579"><ele>40.0</ele><time>2026-04-25T11:04:24.888Z</time></trkpt><trkpt lat="35.1483778" lon="10.7329009"><ele>40.0</ele><time>2026-04-25T11:04:25.872Z</time></trkpt><trkpt lat="35.1482208" lon="10.7329407"><ele>40.0</ele><time>2026-04-25T11:04:26.859Z</time></trkpt><trkpt lat="35.1480608" lon="10.7329822"><ele>40.0</ele><time>2026-04-25T11:04:27.88Z</time></trkpt><trkpt lat="35.1479009" lon="10.7330251"><ele>40.0</ele><time>2026-04-25T11:04:28.887Z</time></trkpt><trkpt lat="35.1477434" lon="10.7330703"><ele>40.0</ele><time>2026-04-25T11:04:29.866Z</time></trkpt><trkpt lat="35.1475837" lon="10.7331158"><ele>40.0</ele><time>2026-04-25T11:04:30.882Z</time></trkpt><trkpt lat="35.1474242" lon="10.7331634"><ele>40.0</ele><time>2026-04-25T11:04:31.888Z</time></trkpt><trkpt lat="35.1472622" lon="10.7332177"><ele>40.0</ele><time>2026-04-25T11:04:32.871Z</time></trkpt><trkpt lat="35.1470962" lon="10.7332702"><ele>40.66666666666667</ele><time>2026-04-25T11:04:33.89Z</time></trkpt><trkpt lat="35.1469244" lon="10.7333198"><ele>41.333333333333336</ele><time>2026-04-25T11:04:34.869Z</time></trkpt><trkpt lat="35.1467532" lon="10.7333655"><ele>42.0</ele><time>2026-04-25T11:04:35.885Z</time></trkpt><trkpt lat="35.1465806" lon="10.7334123"><ele>42.0</ele><time>2026-04-25T11:04:36.863Z</time></trkpt><trkpt lat="35.1464098" lon="10.7334617"><ele>42.0</ele><time>2026-04-25T11:04:37.885Z</time></trkpt><trkpt lat="35.146244" lon="10.7335126"><ele>42.0</ele><time>2026-04-25T11:04:38.878Z</time></trkpt><trkpt lat="35.1460778" lon="10.7335643"><ele>42.0</ele><time>2026-04-25T11:04:39.862Z</time></trkpt><trkpt lat="35.1459111" lon="10.7336142"><ele>42.0</ele><time>2026-04-25T11:04:40.883Z</time></trkpt><trkpt lat="35.1457439" lon="10.7336619"><ele>42.0</ele><time>2026-04-25T11:04:41.877Z</time></trkpt><trkpt lat="35.1455747" lon="10.7337109"><ele>42.0</ele><time>2026-04-25T11:04:42.882Z</time></trkpt><trkpt lat="35.1454056" lon="10.7337612"><ele>42.0</ele><time>2026-04-25T11:04:43.881Z</time></trkpt><trkpt lat="35.1452317" lon="10.733811"><ele>42.0</ele><time>2026-04-25T11:04:44.888Z</time></trkpt><trkpt lat="35.1450552" lon="10.7338579"><ele>42.0</ele><time>2026-04-25T11:04:45.856Z</time></trkpt><trkpt lat="35.1448877" lon="10.7339071"><ele>42.0</ele><time>2026-04-25T11:04:46.864Z</time></trkpt><trkpt lat="35.1447214" lon="10.7339539"><ele>42.0</ele><time>2026-04-25T11:04:47.867Z</time></trkpt><trkpt lat="35.1445553" lon="10.733999"><ele>41.666666666666664</ele><time>2026-04-25T11:04:48.88Z</time></trkpt><trkpt lat="35.1443908" lon="10.7340486"><ele>41.33333333333333</ele><time>2026-04-25T11:04:49.853Z</time></trkpt><trkpt lat="35.1442177" lon="10.7340991"><ele>41.0</ele><time>2026-04-25T11:04:50.883Z</time></trkpt><trkpt lat="35.1440407" lon="10.7341516"><ele>41.666666666666664</ele><time>2026-04-25T11:04:51.883Z</time></trkpt><trkpt lat="35.1438616" lon="10.7342063"><ele>42.333333333333336</ele><time>2026-04-25T11:04:52.896Z</time></trkpt><trkpt lat="35.1436819" lon="10.7342589"><ele>43.0</ele><time>2026-04-25T11:04:53.884Z</time></trkpt><trkpt lat="35.1435013" lon="10.7343109"><ele>43.0</ele><time>2026-04-25T11:04:54.888Z</time></trkpt><trkpt lat="35.1433234" lon="10.734362"><ele>43.0</ele><time>2026-04-25T11:04:55.875Z</time></trkpt><trkpt lat="35.1431443" lon="10.7344082"><ele>43.0</ele><time>2026-04-25T11:04:56.885Z</time></trkpt><trkpt lat="35.1429678" lon="10.7344602"><ele>42.333333333333336</ele><time>2026-04-25T11:04:57.881Z</time></trkpt><trkpt lat="35.1427949" lon="10.7345089"><ele>41.666666666666664</ele><time>2026-04-25T11:04:58.878Z</time></trkpt><trkpt lat="35.1426261" lon="10.7345596"><ele>41.0</ele><time>2026-04-25T11:04:59.875Z</time></trkpt><trkpt lat="35.1424564" lon="10.7346119"><ele>41.666666666666664</ele><time>2026-04-25T11:05:00.861Z</time></trkpt><trkpt lat="35.1422875" lon="10.7346622"><ele>42.333333333333336</ele><time>2026-04-25T11:05:01.883Z</time></trkpt><trkpt lat="35.1421216" lon="10.7347094"><ele>43.0</ele><time>2026-04-25T11:05:02.882Z</time></trkpt><trkpt lat="35.141956" lon="10.7347518"><ele>43.0</ele><time>2026-04-25T11:05:03.896Z</time></trkpt><trkpt lat="35.1417886" lon="10.7347954"><ele>43.0</ele><time>2026-04-25T11:05:04.897Z</time></trkpt><trkpt lat="35.1416261" lon="10.7348383"><ele>43.0</ele><time>2026-04-25T11:05:05.884Z</time></trkpt><trkpt lat="35.1414613" lon="10.7348841"><ele>42.333333333333336</ele><time>2026-04-25T11:05:06.864Z</time></trkpt><trkpt lat="35.1412991" lon="10.7349328"><ele>41.666666666666664</ele><time>2026-04-25T11:05:07.885Z</time></trkpt><trkpt lat="35.1411338" lon="10.7349798"><ele>41.0</ele><time>2026-04-25T11:05:08.867Z</time></trkpt><trkpt lat="35.1409677" lon="10.7350315"><ele>41.0</ele><time>2026-04-25T11:05:09.89Z</time></trkpt><trkpt lat="35.1407982" lon="10.7350841"><ele>41.0</ele><time>2026-04-25T11:05:10.892Z</time></trkpt><trkpt lat="35.1406291" lon="10.735133"><ele>41.0</ele><time>2026-04-25T11:05:11.886Z</time></trkpt><trkpt lat="35.1404544" lon="10.7351825"><ele>41.0</ele><time>2026-04-25T11:05:12.886Z</time></trkpt><trkpt lat="35.1402728" lon="10.7352331"><ele>41.0</ele><time>2026-04-25T11:05:13.884Z</time></trkpt><trkpt lat="35.1400928" lon="10.7352848"><ele>41.0</ele><time>2026-04-25T11:05:14.881Z</time></trkpt><trkpt lat="35.1399135" lon="10.735337"><ele>41.33333333333333</ele><time>2026-04-25T11:05:15.856Z</time></trkpt><trkpt lat="35.1397331" lon="10.7353874"><ele>41.666666666666664</ele><time>2026-04-25T11:05:16.841Z</time></trkpt><trkpt lat="35.1395538" lon="10.7354403"><ele>42.0</ele><time>2026-04-25T11:05:17.855Z</time></trkpt><trkpt lat="35.1393754" lon="10.7354914"><ele>42.0</ele><time>2026-04-25T11:05:18.868Z</time></trkpt><trkpt lat="35.1391953" lon="10.7355469"><ele>42.0</ele><time>2026-04-25T11:05:19.837Z</time></trkpt><trkpt lat="35.1390173" lon="10.7355992"><ele>42.0</ele><time>2026-04-25T11:05:20.851Z</time></trkpt><trkpt lat="35.1388364" lon="10.7356507"><ele>42.0</ele><time>2026-04-25T11:05:21.836Z</time></trkpt><trkpt lat="35.1386589" lon="10.735703"><ele>42.0</ele><time>2026-04-25T11:05:22.869Z</time></trkpt><trkpt lat="35.1384787" lon="10.7357574"><ele>42.0</ele><time>2026-04-25T11:05:23.85Z</time></trkpt><trkpt lat="35.1382953" lon="10.7358098"><ele>42.333333333333336</ele><time>2026-04-25T11:05:24.875Z</time></trkpt><trkpt lat="35.1381114" lon="10.7358622"><ele>42.66666666666667</ele><time>2026-04-25T11:05:25.883Z</time></trkpt><trkpt lat="35.1379329" lon="10.7359173"><ele>43.0</ele><time>2026-04-25T11:05:26.86Z</time></trkpt><trkpt lat="35.1377597" lon="10.735972"><ele>43.0</ele><time>2026-04-25T11:05:27.874Z</time></trkpt><trkpt lat="35.1375871" lon="10.736022"><ele>43.0</ele><time>2026-04-25T11:05:28.863Z</time></trkpt><trkpt lat="35.1374087" lon="10.7360709"><ele>43.0</ele><time>2026-04-25T11:05:29.889Z</time></trkpt><trkpt lat="35.1372337" lon="10.7361147"><ele>42.66666666666667</ele><time>2026-04-25T11:05:30.872Z</time></trkpt><trkpt lat="35.1370623" lon="10.736153"><ele>42.333333333333336</ele><time>2026-04-25T11:05:31.855Z</time></trkpt><trkpt lat="35.1368912" lon="10.7361983"><ele>42.0</ele><time>2026-04-25T11:05:32.879Z</time></trkpt><trkpt lat="35.1367196" lon="10.7362484"><ele>42.0</ele><time>2026-04-25T11:05:33.889Z</time></trkpt><trkpt lat="35.136554" lon="10.7362951"><ele>42.0</ele><time>2026-04-25T11:05:34.879Z</time></trkpt><trkpt lat="35.1363929" lon="10.736339"><ele>42.0</ele><time>2026-04-25T11:05:35.895Z</time></trkpt><trkpt lat="35.1362341" lon="10.736388"><ele>42.666666666666664</ele><time>2026-04-25T11:05:36.867Z</time></trkpt><trkpt lat="35.1360726" lon="10.736438"><ele>43.33333333333333</ele><time>2026-04-25T11:05:37.881Z</time></trkpt><trkpt lat="35.1359102" lon="10.7364871"><ele>44.0</ele><time>2026-04-25T11:05:38.879Z</time></trkpt><trkpt lat="35.135748" lon="10.7365332"><ele>44.33333333333333</ele><time>2026-04-25T11:05:39.89Z</time></trkpt><trkpt lat="35.1355894" lon="10.7365815"><ele>44.666666666666664</ele><time>2026-04-25T11:05:40.895Z</time></trkpt><trkpt lat="35.1354309" lon="10.7366257"><ele>45.0</ele><time>2026-04-25T11:05:41.876Z</time></trkpt><trkpt lat="35.1352704" lon="10.7366659"><ele>45.0</ele><time>2026-04-25T11:05:42.857Z</time></trkpt><trkpt lat="35.135111" lon="10.7367105"><ele>45.0</ele><time>2026-04-25T11:05:43.838Z</time></trkpt><trkpt lat="35.1349563" lon="10.7367509"><ele>45.0</ele><time>2026-04-25T11:05:44.882Z</time></trkpt><trkpt lat="35.1348034" lon="10.7367918"><ele>45.0</ele><time>2026-04-25T11:05:45.881Z</time></trkpt><trkpt lat="35.1346627" lon="10.7368331"><ele>45.0</ele><time>2026-04-25T11:05:46.881Z</time></trkpt><trkpt lat="35.1345433" lon="10.73687"><ele>45.0</ele><time>2026-04-25T11:05:47.848Z</time></trkpt><trkpt lat="35.1344446" lon="10.7368997"><ele>45.0</ele><time>2026-04-25T11:05:48.864Z</time></trkpt><trkpt lat="35.1343563" lon="10.7369264"><ele>45.0</ele><time>2026-04-25T11:05:49.861Z</time></trkpt><trkpt lat="35.1342735" lon="10.7369513"><ele>45.0</ele><time>2026-04-25T11:05:50.872Z</time></trkpt><trkpt lat="35.1342019" lon="10.7369716"><ele>45.0</ele><time>2026-04-25T11:05:51.877Z</time></trkpt><trkpt lat="35.1340829" lon="10.7370072"><ele>45.0</ele><time>2026-04-25T11:05:53.87Z</time></trkpt><trkpt lat="35.1340166" lon="10.7370294"><ele>45.0</ele><time>2026-04-25T11:05:54.865Z</time></trkpt><trkpt lat="35.1339458" lon="10.7370517"><ele>45.0</ele><time>2026-04-25T11:05:55.874Z</time></trkpt><trkpt lat="35.1338695" lon="10.7370785"><ele>44.833333333333336</ele><time>2026-04-25T11:05:56.858Z</time></trkpt><trkpt lat="35.1337913" lon="10.7371086"><ele>44.666666666666664</ele><time>2026-04-25T11:05:57.86Z</time></trkpt><trkpt lat="35.1337173" lon="10.7371355"><ele>44.5</ele><time>2026-04-25T11:05:58.873Z</time></trkpt><trkpt lat="35.1336387" lon="10.7371626"><ele>44.33333333333333</ele><time>2026-04-25T11:05:59.875Z</time></trkpt><trkpt lat="35.1335567" lon="10.7371957"><ele>44.166666666666664</ele><time>2026-04-25T11:06:00.86Z</time></trkpt><trkpt lat="35.133473" lon="10.7372287"><ele>44.0</ele><time>2026-04-25T11:06:01.842Z</time></trkpt><trkpt lat="35.1333863" lon="10.7372604"><ele>44.0</ele><time>2026-04-25T11:06:02.888Z</time></trkpt><trkpt lat="35.1333022" lon="10.7372927"><ele>44.0</ele><time>2026-04-25T11:06:03.873Z</time></trkpt><trkpt lat="35.1332175" lon="10.7373227"><ele>44.0</ele><time>2026-04-25T11:06:04.881Z</time></trkpt><trkpt lat="35.133131" lon="10.7373581"><ele>44.0</ele><time>2026-04-25T11:06:05.868Z</time></trkpt><trkpt lat="35.1330453" lon="10.7373922"><ele>44.0</ele><time>2026-04-25T11:06:06.868Z</time></trkpt><trkpt lat="35.1329612" lon="10.7374263"><ele>44.0</ele><time>2026-04-25T11:06:07.889Z</time></trkpt><trkpt lat="35.1328695" lon="10.7374608"><ele>44.2</ele><time>2026-04-25T11:06:08.878Z</time></trkpt><trkpt lat="35.1327803" lon="10.7374941"><ele>44.400000000000006</ele><time>2026-04-25T11:06:09.892Z</time></trkpt><trkpt lat="35.1326901" lon="10.7375291"><ele>44.6</ele><time>2026-04-25T11:06:10.9Z</time></trkpt><trkpt lat="35.1325986" lon="10.7375703"><ele>44.8</ele><time>2026-04-25T11:06:11.878Z</time></trkpt><trkpt lat="35.1325081" lon="10.7376096"><ele>45.0</ele><time>2026-04-25T11:06:12.884Z</time></trkpt><trkpt lat="35.1324135" lon="10.7376429"><ele>45.2</ele><time>2026-04-25T11:06:13.846Z</time></trkpt><trkpt lat="35.1323223" lon="10.737679"><ele>45.4</ele><time>2026-04-25T11:06:14.883Z</time></trkpt><trkpt lat="35.1322291" lon="10.7377202"><ele>45.599999999999994</ele><time>2026-04-25T11:06:15.85Z</time></trkpt><trkpt lat="35.1321328" lon="10.737756"><ele>45.8</ele><time>2026-04-25T11:06:16.837Z</time></trkpt><trkpt lat="35.1320409" lon="10.73779"><ele>46.0</ele><time>2026-04-25T11:06:17.878Z</time></trkpt><trkpt lat="35.1319403" lon="10.7378288"><ele>46.0</ele><time>2026-04-25T11:06:18.877Z</time></trkpt><trkpt lat="35.1318456" lon="10.7378684"><ele>46.0</ele><time>2026-04-25T11:06:19.869Z</time></trkpt><trkpt lat="35.1317477" lon="10.7379072"><ele>46.0</ele><time>2026-04-25T11:06:20.843Z</time></trkpt><trkpt lat="35.1316498" lon="10.7379464"><ele>46.0</ele><time>2026-04-25T11:06:21.887Z</time></trkpt><trkpt lat="35.1315579" lon="10.7379849"><ele>46.0</ele><time>2026-04-25T11:06:22.872Z</time></trkpt><trkpt lat="35.1314706" lon="10.7380215"><ele>46.0</ele><time>2026-04-25T11:06:23.878Z</time></trkpt><trkpt lat="35.1313783" lon="10.7380541"><ele>46.0</ele><time>2026-04-25T11:06:24.891Z</time></trkpt><trkpt lat="35.1312905" lon="10.7380874"><ele>46.0</ele><time>2026-04-25T11:06:25.881Z</time></trkpt><trkpt lat="35.1311972" lon="10.7381218"><ele>46.0</ele><time>2026-04-25T11:06:26.861Z</time></trkpt><trkpt lat="35.131105" lon="10.7381596"><ele>46.0</ele><time>2026-04-25T11:06:27.855Z</time></trkpt><trkpt lat="35.131013" lon="10.7382009"><ele>46.0</ele><time>2026-04-25T11:06:28.879Z</time></trkpt><trkpt lat="35.1309193" lon="10.7382403"><ele>46.0</ele><time>2026-04-25T11:06:29.87Z</time></trkpt><trkpt lat="35.1308237" lon="10.7382794"><ele>46.0</ele><time>2026-04-25T11:06:30.862Z</time></trkpt><trkpt lat="35.1307303" lon="10.7383179"><ele>46.0</ele><time>2026-04-25T11:06:31.889Z</time></trkpt><trkpt lat="35.1306325" lon="10.7383566"><ele>46.0</ele><time>2026-04-25T11:06:32.881Z</time></trkpt><trkpt lat="35.1305364" lon="10.7383934"><ele>46.4</ele><time>2026-04-25T11:06:33.869Z</time></trkpt><trkpt lat="35.1304386" lon="10.738433"><ele>46.8</ele><time>2026-04-25T11:06:34.87Z</time></trkpt><trkpt lat="35.1303353" lon="10.7384741"><ele>47.199999999999996</ele><time>2026-04-25T11:06:35.892Z</time></trkpt><trkpt lat="35.1302284" lon="10.7385151"><ele>47.599999999999994</ele><time>2026-04-25T11:06:36.888Z</time></trkpt><trkpt lat="35.1301301" lon="10.7385551"><ele>48.0</ele><time>2026-04-25T11:06:37.894Z</time></trkpt><trkpt lat="35.1300294" lon="10.7385931"><ele>48.2</ele><time>2026-04-25T11:06:38.865Z</time></trkpt><trkpt lat="35.1299309" lon="10.7386291"><ele>48.4</ele><time>2026-04-25T11:06:39.882Z</time></trkpt><trkpt lat="35.1298336" lon="10.7386674"><ele>48.6</ele><time>2026-04-25T11:06:40.867Z</time></trkpt><trkpt lat="35.1297358" lon="10.7387066"><ele>48.800000000000004</ele><time>2026-04-25T11:06:41.872Z</time></trkpt><trkpt lat="35.1296361" lon="10.7387452"><ele>49.0</ele><time>2026-04-25T11:06:42.859Z</time></trkpt><trkpt lat="35.1295352" lon="10.7387867"><ele>49.0</ele><time>2026-04-25T11:06:43.879Z</time></trkpt><trkpt lat="35.1294356" lon="10.7388301"><ele>49.0</ele><time>2026-04-25T11:06:44.877Z</time></trkpt><trkpt lat="35.1293363" lon="10.7388682"><ele>49.0</ele><time>2026-04-25T11:06:45.876Z</time></trkpt><trkpt lat="35.1292384" lon="10.7389081"><ele>49.0</ele><time>2026-04-25T11:06:46.871Z</time></trkpt><trkpt lat="35.1291441" lon="10.7389503"><ele>49.0</ele><time>2026-04-25T11:06:47.861Z</time></trkpt><trkpt lat="35.1290508" lon="10.7389902"><ele>49.0</ele><time>2026-04-25T11:06:48.878Z</time></trkpt><trkpt lat="35.1289523" lon="10.7390286"><ele>49.0</ele><time>2026-04-25T11:06:49.855Z</time></trkpt><trkpt lat="35.1288573" lon="10.7390699"><ele>49.0</ele><time>2026-04-25T11:06:50.835Z</time></trkpt><trkpt lat="35.1287655" lon="10.7391065"><ele>49.0</ele><time>2026-04-25T11:06:51.874Z</time></trkpt><trkpt lat="35.1286696" lon="10.739145"><ele>49.0</ele><time>2026-04-25T11:06:52.874Z</time></trkpt><trkpt lat="35.1285754" lon="10.7391822"><ele>49.0</ele><time>2026-04-25T11:06:53.868Z</time></trkpt><trkpt lat="35.1284824" lon="10.7392184"><ele>49.0</ele><time>2026-04-25T11:06:54.886Z</time></trkpt><trkpt lat="35.1283865" lon="10.7392554"><ele>49.0</ele><time>2026-04-25T11:06:55.872Z</time></trkpt><trkpt lat="35.128293" lon="10.7392934"><ele>49.0</ele><time>2026-04-25T11:06:56.855Z</time></trkpt><trkpt lat="35.1281998" lon="10.7393285"><ele>49.0</ele><time>2026-04-25T11:06:57.874Z</time></trkpt><trkpt lat="35.1281108" lon="10.7393675"><ele>49.2</ele><time>2026-04-25T11:06:58.885Z</time></trkpt><trkpt lat="35.12802" lon="10.7394058"><ele>49.400000000000006</ele><time>2026-04-25T11:06:59.883Z</time></trkpt><trkpt lat="35.127925" lon="10.7394336"><ele>49.6</ele><time>2026-04-25T11:07:00.873Z</time></trkpt><trkpt lat="35.1278403" lon="10.7394756"><ele>49.8</ele><time>2026-04-25T11:07:01.875Z</time></trkpt><trkpt lat="35.1277539" lon="10.7395084"><ele>50.0</ele><time>2026-04-25T11:07:02.885Z</time></trkpt><trkpt lat="35.1276669" lon="10.7395431"><ele>50.0</ele><time>2026-04-25T11:07:03.899Z</time></trkpt><trkpt lat="35.1275772" lon="10.7395786"><ele>50.0</ele><time>2026-04-25T11:07:04.884Z</time></trkpt><trkpt lat="35.1274899" lon="10.7396161"><ele>50.0</ele><time>2026-04-25T11:07:05.882Z</time></trkpt><trkpt lat="35.1274001" lon="10.7396501"><ele>50.0</ele><time>2026-04-25T11:07:06.846Z</time></trkpt><trkpt lat="35.1273135" lon="10.7396863"><ele>50.0</ele><time>2026-04-25T11:07:07.873Z</time></trkpt><trkpt lat="35.1272278" lon="10.73972"><ele>50.2</ele><time>2026-04-25T11:07:08.864Z</time></trkpt><trkpt lat="35.1271367" lon="10.7397512"><ele>50.4</ele><time>2026-04-25T11:07:09.876Z</time></trkpt><trkpt lat="35.1270515" lon="10.7397827"><ele>50.599999999999994</ele><time>2026-04-25T11:07:10.863Z</time></trkpt><trkpt lat="35.1269638" lon="10.7398188"><ele>50.8</ele><time>2026-04-25T11:07:11.869Z</time></trkpt><trkpt lat="35.126871" lon="10.7398559"><ele>51.0</ele><time>2026-04-25T11:07:12.88Z</time></trkpt><trkpt lat="35.1267717" lon="10.7398982"><ele>51.0</ele><time>2026-04-25T11:07:13.882Z</time></trkpt><trkpt lat="35.1266663" lon="10.7399418"><ele>51.0</ele><time>2026-04-25T11:07:14.868Z</time></trkpt><trkpt lat="35.1265641" lon="10.7399814"><ele>51.0</ele><time>2026-04-25T11:07:15.858Z</time></trkpt><trkpt lat="35.1264609" lon="10.740018"><ele>51.0</ele><time>2026-04-25T11:07:16.869Z</time></trkpt><trkpt lat="35.126368" lon="10.7400541"><ele>51.0</ele><time>2026-04-25T11:07:17.874Z</time></trkpt><trkpt lat="35.1262802" lon="10.7400899"><ele>51.0</ele><time>2026-04-25T11:07:18.883Z</time></trkpt><trkpt lat="35.1261947" lon="10.740128"><ele>51.0</ele><time>2026-04-25T11:07:19.867Z</time></trkpt><trkpt lat="35.126106" lon="10.7401634"><ele>51.0</ele><time>2026-04-25T11:07:20.861Z</time></trkpt><trkpt lat="35.1260249" lon="10.7401897"><ele>51.0</ele><time>2026-04-25T11:07:21.876Z</time></trkpt><trkpt lat="35.1259526" lon="10.7402197"><ele>51.0</ele><time>2026-04-25T11:07:22.883Z</time></trkpt><trkpt lat="35.1258819" lon="10.7402484"><ele>51.0</ele><time>2026-04-25T11:07:23.857Z</time></trkpt><trkpt lat="35.1258075" lon="10.7402791"><ele>51.333333333333336</ele><time>2026-04-25T11:07:24.877Z</time></trkpt><trkpt lat="35.1257276" lon="10.7403077"><ele>51.66666666666667</ele><time>2026-04-25T11:07:25.879Z</time></trkpt><trkpt lat="35.1256506" lon="10.7403359"><ele>52.0</ele><time>2026-04-25T11:07:26.859Z</time></trkpt><trkpt lat="35.1255758" lon="10.740365"><ele>52.333333333333336</ele><time>2026-04-25T11:07:27.88Z</time></trkpt><trkpt lat="35.1254973" lon="10.7403952"><ele>52.66666666666667</ele><time>2026-04-25T11:07:28.866Z</time></trkpt><trkpt lat="35.1254193" lon="10.7404302"><ele>53.0</ele><time>2026-04-25T11:07:29.855Z</time></trkpt><trkpt lat="35.1253396" lon="10.7404661"><ele>53.00000000000001</ele><time>2026-04-25T11:07:30.892Z</time></trkpt><trkpt lat="35.1252615" lon="10.7405044"><ele>53.0</ele><time>2026-04-25T11:07:31.863Z</time></trkpt><trkpt lat="35.1251824" lon="10.7405379"><ele>53.0</ele><time>2026-04-25T11:07:32.894Z</time></trkpt><trkpt lat="35.1251023" lon="10.7405694"><ele>53.0</ele><time>2026-04-25T11:07:33.873Z</time></trkpt><trkpt lat="35.1250282" lon="10.7406003"><ele>53.00000000000001</ele><time>2026-04-25T11:07:34.87Z</time></trkpt><trkpt lat="35.1249552" lon="10.740631"><ele>53.0</ele><time>2026-04-25T11:07:35.892Z</time></trkpt><trkpt lat="35.1248834" lon="10.7406588"><ele>52.833333333333336</ele><time>2026-04-25T11:07:36.868Z</time></trkpt><trkpt lat="35.1248161" lon="10.740681"><ele>52.66666666666667</ele><time>2026-04-25T11:07:37.884Z</time></trkpt><trkpt lat="35.1247535" lon="10.740702"><ele>52.5</ele><time>2026-04-25T11:07:38.839Z</time></trkpt><trkpt lat="35.1246919" lon="10.7407273"><ele>52.33333333333333</ele><time>2026-04-25T11:07:39.834Z</time></trkpt><trkpt lat="35.1245953" lon="10.7407658"><ele>52.166666666666664</ele><time>2026-04-25T11:07:41.884Z</time></trkpt><trkpt lat="35.1244999" lon="10.7408044"><ele>52.0</ele><time>2026-04-25T11:07:43.883Z</time></trkpt><trkpt lat="35.1244083" lon="10.7408364"><ele>51.99999999999999</ele><time>2026-04-25T11:07:45.88Z</time></trkpt><trkpt lat="35.1243287" lon="10.7408733"><ele>52.0</ele><time>2026-04-25T11:07:47.853Z</time></trkpt><trkpt lat="35.1242602" lon="10.7408995"><ele>52.0</ele><time>2026-04-25T11:07:49.85Z</time></trkpt><trkpt lat="35.1241948" lon="10.7409252"><ele>52.0</ele><time>2026-04-25T11:07:51.84Z</time></trkpt><trkpt lat="35.1241204" lon="10.7409581"><ele>51.99999999999999</ele><time>2026-04-25T11:07:54.876Z</time></trkpt><trkpt lat="35.1240465" lon="10.7409878"><ele>52.0</ele><time>2026-04-25T11:07:57.865Z</time></trkpt><trkpt lat="35.123981" lon="10.7410232"><ele>52.166666666666664</ele><time>2026-04-25T11:08:00.846Z</time></trkpt><trkpt lat="35.1239189" lon="10.7410523"><ele>52.33333333333333</ele><time>2026-04-25T11:08:09.871Z</time></trkpt><trkpt lat="35.1238312" lon="10.741084"><ele>52.5</ele><time>2026-04-25T11:08:15.834Z</time></trkpt><trkpt lat="35.1237684" lon="10.7411132"><ele>52.66666666666667</ele><time>2026-04-25T11:08:17.834Z</time></trkpt><trkpt lat="35.1236761" lon="10.7411508"><ele>52.833333333333336</ele><time>2026-04-25T11:08:20.836Z</time></trkpt><trkpt lat="35.1235923" lon="10.7411866"><ele>53.0</ele><time>2026-04-25T11:08:22.836Z</time></trkpt><trkpt lat="35.1235196" lon="10.7412178"><ele>53.0</ele><time>2026-04-25T11:08:24.837Z</time></trkpt><trkpt lat="35.1234431" lon="10.7412432"><ele>53.0</ele><time>2026-04-25T11:08:27.834Z</time></trkpt><trkpt lat="35.1233675" lon="10.7412754"><ele>53.0</ele><time>2026-04-25T11:08:33.859Z</time></trkpt><trkpt lat="35.123291" lon="10.7413077"><ele>53.0</ele><time>2026-04-25T11:08:38.828Z</time></trkpt><trkpt lat="35.1232248" lon="10.7413164"><ele>53.0</ele><time>2026-04-25T11:08:42.84Z</time></trkpt><trkpt lat="35.1231568" lon="10.7413248"><ele>53.0</ele><time>2026-04-25T11:08:48.832Z</time></trkpt><trkpt lat="35.123089" lon="10.7413329"><ele>53.0</ele><time>2026-04-25T11:08:59.84Z</time></trkpt><trkpt lat="35.1230079" lon="10.7413262"><ele>53.333333333333336</ele><time>2026-04-25T11:09:12.84Z</time></trkpt><trkpt lat="35.1229388" lon="10.7413331"><ele>53.66666666666667</ele><time>2026-04-25T11:09:16.845Z</time></trkpt><trkpt lat="35.1228669" lon="10.7413613"><ele>54.0</ele><time>2026-04-25T11:09:21.843Z</time></trkpt><trkpt lat="35.122818" lon="10.7414121"><ele>54.33333333333333</ele><time>2026-04-25T11:09:23.839Z</time></trkpt><trkpt lat="35.1227478" lon="10.7414707"><ele>54.666666666666664</ele><time>2026-04-25T11:09:25.833Z</time></trkpt><trkpt lat="35.1226561" lon="10.7415281"><ele>55.0</ele><time>2026-04-25T11:09:27.846Z</time></trkpt><trkpt lat="35.1225641" lon="10.741572"><ele>55.0</ele><time>2026-04-25T11:09:29.845Z</time></trkpt><trkpt lat="35.1224643" lon="10.7416246"><ele>55.0</ele><time>2026-04-25T11:09:31.838Z</time></trkpt><trkpt lat="35.1223653" lon="10.7416629"><ele>55.0</ele><time>2026-04-25T11:09:33.829Z</time></trkpt><trkpt lat="35.1222854" lon="10.741686"><ele>55.0</ele><time>2026-04-25T11:09:35.837Z</time></trkpt><trkpt lat="35.1222113" lon="10.7417071"><ele>55.0</ele><time>2026-04-25T11:09:37.839Z</time></trkpt><trkpt lat="35.1221291" lon="10.7417382"><ele>55.2</ele><time>2026-04-25T11:09:39.839Z</time></trkpt><trkpt lat="35.1220261" lon="10.7417687"><ele>55.4</ele><time>2026-04-25T11:09:41.845Z</time></trkpt><trkpt lat="35.1219278" lon="10.7417926"><ele>55.599999999999994</ele><time>2026-04-25T11:09:43.853Z</time></trkpt><trkpt lat="35.1218341" lon="10.741806"><ele>55.8</ele><time>2026-04-25T11:09:45.837Z</time></trkpt><trkpt lat="35.1217193" lon="10.7418437"><ele>56.0</ele><time>2026-04-25T11:09:47.847Z</time></trkpt><trkpt lat="35.1216474" lon="10.7418664"><ele>55.833333333333336</ele><time>2026-04-25T11:09:48.842Z</time></trkpt><trkpt lat="35.1215736" lon="10.7418957"><ele>55.66666666666667</ele><time>2026-04-25T11:09:49.834Z</time></trkpt><trkpt lat="35.1215056" lon="10.7419209"><ele>55.5</ele><time>2026-04-25T11:09:50.828Z</time></trkpt><trkpt lat="35.1213882" lon="10.7419538"><ele>55.33333333333333</ele><time>2026-04-25T11:09:52.848Z</time></trkpt><trkpt lat="35.1212868" lon="10.7419773"><ele>55.166666666666664</ele><time>2026-04-25T11:09:54.837Z</time></trkpt><trkpt lat="35.1212133" lon="10.7419974"><ele>55.0</ele><time>2026-04-25T11:09:56.846Z</time></trkpt><trkpt lat="35.1211241" lon="10.7420239"><ele>54.83333333333333</ele><time>2026-04-25T11:09:59.847Z</time></trkpt><trkpt lat="35.1210491" lon="10.7420355"><ele>54.666666666666664</ele><time>2026-04-25T11:10:02.841Z</time></trkpt><trkpt lat="35.1209712" lon="10.7420591"><ele>54.5</ele><time>2026-04-25T11:10:05.832Z</time></trkpt><trkpt lat="35.1209075" lon="10.7420787"><ele>54.33333333333333</ele><time>2026-04-25T11:10:07.84Z</time></trkpt><trkpt lat="35.1208118" lon="10.7421096"><ele>54.166666666666664</ele><time>2026-04-25T11:10:10.843Z</time></trkpt><trkpt lat="35.1207147" lon="10.7421298"><ele>54.0</ele><time>2026-04-25T11:10:12.842Z</time></trkpt><trkpt lat="35.1205903" lon="10.7421568"><ele>54.400000000000006</ele><time>2026-04-25T11:10:14.846Z</time></trkpt><trkpt lat="35.1205239" lon="10.7421719"><ele>54.800000000000004</ele><time>2026-04-25T11:10:15.84Z</time></trkpt><trkpt lat="35.1204039" lon="10.7422034"><ele>55.199999999999996</ele><time>2026-04-25T11:10:17.841Z</time></trkpt><trkpt lat="35.1202864" lon="10.7422339"><ele>55.599999999999994</ele><time>2026-04-25T11:10:19.83Z</time></trkpt><trkpt lat="35.1201765" lon="10.7422559"><ele>56.0</ele><time>2026-04-25T11:10:21.839Z</time></trkpt><trkpt lat="35.1200903" lon="10.7422719"><ele>56.00000000000001</ele><time>2026-04-25T11:10:23.831Z</time></trkpt><trkpt lat="35.1199891" lon="10.7422922"><ele>56.0</ele><time>2026-04-25T11:10:25.838Z</time></trkpt><trkpt lat="35.1198821" lon="10.7423461"><ele>56.0</ele><time>2026-04-25T11:10:27.84Z</time></trkpt><trkpt lat="35.1198203" lon="10.7423665"><ele>56.0</ele><time>2026-04-25T11:10:28.838Z</time></trkpt><trkpt lat="35.119753" lon="10.7423834"><ele>56.00000000000001</ele><time>2026-04-25T11:10:29.845Z</time></trkpt><trkpt lat="35.1196837" lon="10.7423989"><ele>56.0</ele><time>2026-04-25T11:10:30.837Z</time></trkpt><trkpt lat="35.1196125" lon="10.7424085"><ele>55.66666666666667</ele><time>2026-04-25T11:10:31.832Z</time></trkpt><trkpt lat="35.1195357" lon="10.742422"><ele>55.333333333333336</ele><time>2026-04-25T11:10:32.834Z</time></trkpt><trkpt lat="35.1194563" lon="10.7424423"><ele>55.0</ele><time>2026-04-25T11:10:33.832Z</time></trkpt><trkpt lat="35.1193739" lon="10.7424587"><ele>54.66666666666667</ele><time>2026-04-25T11:10:34.834Z</time></trkpt><trkpt lat="35.1192902" lon="10.7424788"><ele>54.333333333333336</ele><time>2026-04-25T11:10:35.826Z</time></trkpt><trkpt lat="35.1192008" lon="10.7425039"><ele>54.0</ele><time>2026-04-25T11:10:36.835Z</time></trkpt><trkpt lat="35.1191172" lon="10.7425335"><ele>54.2</ele><time>2026-04-25T11:10:37.841Z</time></trkpt><trkpt lat="35.119037" lon="10.742561"><ele>54.400000000000006</ele><time>2026-04-25T11:10:38.831Z</time></trkpt><trkpt lat="35.1189537" lon="10.742583"><ele>54.6</ele><time>2026-04-25T11:10:39.841Z</time></trkpt><trkpt lat="35.1188676" lon="10.7426012"><ele>54.8</ele><time>2026-04-25T11:10:40.843Z</time></trkpt><trkpt lat="35.1187675" lon="10.7426238"><ele>55.0</ele><time>2026-04-25T11:10:41.825Z</time></trkpt><trkpt lat="35.1186637" lon="10.7426493"><ele>55.0</ele><time>2026-04-25T11:10:42.835Z</time></trkpt><trkpt lat="35.1185608" lon="10.7426746"><ele>55.0</ele><time>2026-04-25T11:10:43.839Z</time></trkpt><trkpt lat="35.1184603" lon="10.742709"><ele>55.0</ele><time>2026-04-25T11:10:44.84Z</time></trkpt><trkpt lat="35.1183622" lon="10.7427377"><ele>55.0</ele><time>2026-04-25T11:10:45.838Z</time></trkpt><trkpt lat="35.1182636" lon="10.7427651"><ele>55.0</ele><time>2026-04-25T11:10:46.846Z</time></trkpt><trkpt lat="35.1181673" lon="10.7427923"><ele>55.6</ele><time>2026-04-25T11:10:47.832Z</time></trkpt><trkpt lat="35.1180737" lon="10.7428157"><ele>56.2</ele><time>2026-04-25T11:10:48.849Z</time></trkpt><trkpt lat="35.1179796" lon="10.7428424"><ele>56.8</ele><time>2026-04-25T11:10:49.828Z</time></trkpt><trkpt lat="35.1178819" lon="10.7428694"><ele>57.4</ele><time>2026-04-25T11:10:50.838Z</time></trkpt><trkpt lat="35.1177875" lon="10.7429006"><ele>58.0</ele><time>2026-04-25T11:10:51.843Z</time></trkpt><trkpt lat="35.1176949" lon="10.7429308"><ele>58.0</ele><time>2026-04-25T11:10:52.832Z</time></trkpt><trkpt lat="35.1176018" lon="10.7429597"><ele>58.0</ele><time>2026-04-25T11:10:53.839Z</time></trkpt><trkpt lat="35.1174982" lon="10.7429864"><ele>58.0</ele><time>2026-04-25T11:10:54.832Z</time></trkpt><trkpt lat="35.1173902" lon="10.7430074"><ele>58.0</ele><time>2026-04-25T11:10:55.835Z</time></trkpt><trkpt lat="35.1172814" lon="10.7430376"><ele>58.0</ele><time>2026-04-25T11:10:56.847Z</time></trkpt><trkpt lat="35.117172" lon="10.7430582"><ele>58.0</ele><time>2026-04-25T11:10:57.844Z</time></trkpt><trkpt lat="35.1170673" lon="10.743088"><ele>58.0</ele><time>2026-04-25T11:10:58.837Z</time></trkpt><trkpt lat="35.1169603" lon="10.7431145"><ele>58.0</ele><time>2026-04-25T11:10:59.84Z</time></trkpt><trkpt lat="35.1168552" lon="10.7431351"><ele>58.0</ele><time>2026-04-25T11:11:00.829Z</time></trkpt><trkpt lat="35.1167515" lon="10.7431597"><ele>58.0</ele><time>2026-04-25T11:11:01.834Z</time></trkpt><trkpt lat="35.1166412" lon="10.7431892"><ele>58.4</ele><time>2026-04-25T11:11:02.828Z</time></trkpt><trkpt lat="35.1165352" lon="10.7432245"><ele>58.8</ele><time>2026-04-25T11:11:03.833Z</time></trkpt><trkpt lat="35.116428" lon="10.7432531"><ele>59.2</ele><time>2026-04-25T11:11:04.842Z</time></trkpt><trkpt lat="35.1163245" lon="10.7432834"><ele>59.6</ele><time>2026-04-25T11:11:05.833Z</time></trkpt><trkpt lat="35.1162194" lon="10.7433129"><ele>60.0</ele><time>2026-04-25T11:11:06.827Z</time></trkpt><trkpt lat="35.1161179" lon="10.7433442"><ele>60.0</ele><time>2026-04-25T11:11:07.833Z</time></trkpt><trkpt lat="35.1160135" lon="10.7433776"><ele>60.0</ele><time>2026-04-25T11:11:08.842Z</time></trkpt><trkpt lat="35.1159073" lon="10.7434106"><ele>60.0</ele><time>2026-04-25T11:11:09.846Z</time></trkpt><trkpt lat="35.1158073" lon="10.7434379"><ele>60.0</ele><time>2026-04-25T11:11:10.843Z</time></trkpt><trkpt lat="35.1157059" lon="10.7434682"><ele>60.0</ele><time>2026-04-25T11:11:11.844Z</time></trkpt><trkpt lat="35.115608" lon="10.7434998"><ele>60.0</ele><time>2026-04-25T11:11:12.835Z</time></trkpt><trkpt lat="35.1155028" lon="10.7435407"><ele>60.0</ele><time>2026-04-25T11:11:13.851Z</time></trkpt><trkpt lat="35.1153858" lon="10.7435831"><ele>60.0</ele><time>2026-04-25T11:11:14.842Z</time></trkpt><trkpt lat="35.1152471" lon="10.7436219"><ele>60.0</ele><time>2026-04-25T11:11:15.842Z</time></trkpt><trkpt lat="35.1150775" lon="10.7436717"><ele>60.33333333333333</ele><time>2026-04-25T11:11:16.84Z</time></trkpt><trkpt lat="35.114902" lon="10.74372"><ele>60.666666666666664</ele><time>2026-04-25T11:11:17.844Z</time></trkpt><trkpt lat="35.1147462" lon="10.7437513"><ele>61.0</ele><time>2026-04-25T11:11:18.833Z</time></trkpt><trkpt lat="35.114608" lon="10.7437797"><ele>61.0</ele><time>2026-04-25T11:11:19.838Z</time></trkpt><trkpt lat="35.1144949" lon="10.7437987"><ele>60.99999999999999</ele><time>2026-04-25T11:11:20.843Z</time></trkpt><trkpt lat="35.1143895" lon="10.7438259"><ele>60.99999999999999</ele><time>2026-04-25T11:11:21.832Z</time></trkpt><trkpt lat="35.114288" lon="10.743853"><ele>61.0</ele><time>2026-04-25T11:11:22.831Z</time></trkpt><trkpt lat="35.1141816" lon="10.7438825"><ele>61.0</ele><time>2026-04-25T11:11:23.838Z</time></trkpt><trkpt lat="35.1140751" lon="10.7439117"><ele>61.4</ele><time>2026-04-25T11:11:24.834Z</time></trkpt><trkpt lat="35.1139718" lon="10.7439372"><ele>61.8</ele><time>2026-04-25T11:11:25.842Z</time></trkpt><trkpt lat="35.1138705" lon="10.743963"><ele>62.199999999999996</ele><time>2026-04-25T11:11:26.84Z</time></trkpt><trkpt lat="35.1137627" lon="10.7439844"><ele>62.599999999999994</ele><time>2026-04-25T11:11:27.837Z</time></trkpt><trkpt lat="35.1136572" lon="10.744007"><ele>63.0</ele><time>2026-04-25T11:11:28.834Z</time></trkpt><trkpt lat="35.1135548" lon="10.744035"><ele>63.0</ele><time>2026-04-25T11:11:29.845Z</time></trkpt><trkpt lat="35.1134468" lon="10.7440618"><ele>63.0</ele><time>2026-04-25T11:11:30.836Z</time></trkpt><trkpt lat="35.1133359" lon="10.7440928"><ele>63.0</ele><time>2026-04-25T11:11:31.837Z</time></trkpt><trkpt lat="35.1132262" lon="10.7441217"><ele>63.0</ele><time>2026-04-25T11:11:32.829Z</time></trkpt><trkpt lat="35.1131069" lon="10.7441564"><ele>63.0</ele><time>2026-04-25T11:11:33.843Z</time></trkpt><trkpt lat="35.1129874" lon="10.7441967"><ele>63.0</ele><time>2026-04-25T11:11:34.831Z</time></trkpt><trkpt lat="35.1128589" lon="10.7442319"><ele>63.0</ele><time>2026-04-25T11:11:35.843Z</time></trkpt><trkpt lat="35.1127209" lon="10.7442676"><ele>63.0</ele><time>2026-04-25T11:11:36.836Z</time></trkpt><trkpt lat="35.1125795" lon="10.7443053"><ele>63.0</ele><time>2026-04-25T11:11:37.84Z</time></trkpt><trkpt lat="35.1124514" lon="10.74434"><ele>63.0</ele><time>2026-04-25T11:11:38.84Z</time></trkpt><trkpt lat="35.1123308" lon="10.7443682"><ele>63.0</ele><time>2026-04-25T11:11:39.83Z</time></trkpt><trkpt lat="35.1122187" lon="10.7443943"><ele>63.0</ele><time>2026-04-25T11:11:40.843Z</time></trkpt><trkpt lat="35.1121234" lon="10.7444181"><ele>63.333333333333336</ele><time>2026-04-25T11:11:41.843Z</time></trkpt><trkpt lat="35.1120455" lon="10.7444409"><ele>63.66666666666667</ele><time>2026-04-25T11:11:42.846Z</time></trkpt><trkpt lat="35.1119692" lon="10.7444624"><ele>64.0</ele><time>2026-04-25T11:11:43.838Z</time></trkpt><trkpt lat="35.1118879" lon="10.7444872"><ele>64.33333333333334</ele><time>2026-04-25T11:11:44.837Z</time></trkpt><trkpt lat="35.1117946" lon="10.7445071"><ele>64.66666666666667</ele><time>2026-04-25T11:11:45.834Z</time></trkpt><trkpt lat="35.1116935" lon="10.7445316"><ele>65.0</ele><time>2026-04-25T11:11:46.846Z</time></trkpt><trkpt lat="35.1115804" lon="10.744561"><ele>65.0</ele><time>2026-04-25T11:11:47.841Z</time></trkpt><trkpt lat="35.1114552" lon="10.7445934"><ele>65.0</ele><time>2026-04-25T11:11:48.839Z</time></trkpt><trkpt lat="35.1113209" lon="10.7446282"><ele>65.0</ele><time>2026-04-25T11:11:49.839Z</time></trkpt><trkpt lat="35.111177" lon="10.7446658"><ele>65.0</ele><time>2026-04-25T11:11:50.847Z</time></trkpt><trkpt lat="35.1110239" lon="10.7447047"><ele>65.0</ele><time>2026-04-25T11:11:51.835Z</time></trkpt><trkpt lat="35.1108625" lon="10.7447449"><ele>65.0</ele><time>2026-04-25T11:11:52.843Z</time></trkpt><trkpt lat="35.1106998" lon="10.744789"><ele>65.0</ele><time>2026-04-25T11:11:53.835Z</time></trkpt><trkpt lat="35.1105316" lon="10.7448294"><ele>64.0</ele><time>2026-04-25T11:11:54.843Z</time></trkpt><trkpt lat="35.1103608" lon="10.7448772"><ele>63.0</ele><time>2026-04-25T11:11:55.847Z</time></trkpt><trkpt lat="35.1101815" lon="10.7449214"><ele>62.0</ele><time>2026-04-25T11:11:56.84Z</time></trkpt><trkpt lat="35.1099984" lon="10.7449694"><ele>63.0</ele><time>2026-04-25T11:11:57.839Z</time></trkpt><trkpt lat="35.1098073" lon="10.7450197"><ele>64.0</ele><time>2026-04-25T11:11:58.845Z</time></trkpt><trkpt lat="35.1096154" lon="10.7450702"><ele>65.0</ele><time>2026-04-25T11:11:59.849Z</time></trkpt><trkpt lat="35.109421" lon="10.745123"><ele>65.0</ele><time>2026-04-25T11:12:00.836Z</time></trkpt><trkpt lat="35.1092224" lon="10.7451795"><ele>65.0</ele><time>2026-04-25T11:12:01.844Z</time></trkpt><trkpt lat="35.1090232" lon="10.7452384"><ele>65.0</ele><time>2026-04-25T11:12:02.834Z</time></trkpt><trkpt lat="35.1088229" lon="10.7452896"><ele>65.66666666666667</ele><time>2026-04-25T11:12:03.837Z</time></trkpt><trkpt lat="35.1086262" lon="10.7453402"><ele>66.33333333333333</ele><time>2026-04-25T11:12:04.837Z</time></trkpt><trkpt lat="35.1084332" lon="10.7453896"><ele>67.0</ele><time>2026-04-25T11:12:05.834Z</time></trkpt><trkpt lat="35.1082359" lon="10.7454442"><ele>67.66666666666666</ele><time>2026-04-25T11:12:06.831Z</time></trkpt><trkpt lat="35.1080373" lon="10.7454955"><ele>68.33333333333333</ele><time>2026-04-25T11:12:07.834Z</time></trkpt><trkpt lat="35.107842" lon="10.7455475"><ele>69.0</ele><time>2026-04-25T11:12:08.839Z</time></trkpt><trkpt lat="35.107645" lon="10.7455996"><ele>69.0</ele><time>2026-04-25T11:12:09.839Z</time></trkpt><trkpt lat="35.1074485" lon="10.7456531"><ele>69.0</ele><time>2026-04-25T11:12:10.839Z</time></trkpt><trkpt lat="35.1072504" lon="10.7457058"><ele>69.0</ele><time>2026-04-25T11:12:11.84Z</time></trkpt><trkpt lat="35.1070584" lon="10.7457559"><ele>69.0</ele><time>2026-04-25T11:12:12.842Z</time></trkpt><trkpt lat="35.1068633" lon="10.7458083"><ele>69.0</ele><time>2026-04-25T11:12:13.845Z</time></trkpt><trkpt lat="35.106669" lon="10.7458626"><ele>69.0</ele><time>2026-04-25T11:12:14.84Z</time></trkpt><trkpt lat="35.1064737" lon="10.7459163"><ele>69.0</ele><time>2026-04-25T11:12:15.841Z</time></trkpt><trkpt lat="35.1062777" lon="10.7459672"><ele>69.0</ele><time>2026-04-25T11:12:16.841Z</time></trkpt><trkpt lat="35.1060854" lon="10.7460181"><ele>69.0</ele><time>2026-04-25T11:12:17.834Z</time></trkpt><trkpt lat="35.105891" lon="10.7460713"><ele>69.0</ele><time>2026-04-25T11:12:18.833Z</time></trkpt><trkpt lat="35.1056926" lon="10.7461227"><ele>69.0</ele><time>2026-04-25T11:12:19.845Z</time></trkpt><trkpt lat="35.1054955" lon="10.7461782"><ele>69.0</ele><time>2026-04-25T11:12:20.843Z</time></trkpt><trkpt lat="35.1053002" lon="10.7462299"><ele>69.0</ele><time>2026-04-25T11:12:21.843Z</time></trkpt><trkpt lat="35.1051041" lon="10.746281"><ele>69.0</ele><time>2026-04-25T11:12:22.838Z</time></trkpt><trkpt lat="35.1049077" lon="10.7463311"><ele>69.0</ele><time>2026-04-25T11:12:23.838Z</time></trkpt><trkpt lat="35.1047134" lon="10.7463836"><ele>69.33333333333333</ele><time>2026-04-25T11:12:24.842Z</time></trkpt><trkpt lat="35.1045191" lon="10.7464334"><ele>69.66666666666666</ele><time>2026-04-25T11:12:25.844Z</time></trkpt><trkpt lat="35.1043204" lon="10.7464847"><ele>70.0</ele><time>2026-04-25T11:12:26.837Z</time></trkpt><trkpt lat="35.1041252" lon="10.7465355"><ele>70.0</ele><time>2026-04-25T11:12:27.834Z</time></trkpt><trkpt lat="35.1039312" lon="10.7465893"><ele>70.0</ele><time>2026-04-25T11:12:28.851Z</time></trkpt><trkpt lat="35.1037383" lon="10.7466403"><ele>70.0</ele><time>2026-04-25T11:12:29.839Z</time></trkpt><trkpt lat="35.1035448" lon="10.7466913"><ele>70.0</ele><time>2026-04-25T11:12:30.836Z</time></trkpt><trkpt lat="35.1033513" lon="10.746744"><ele>70.0</ele><time>2026-04-25T11:12:31.841Z</time></trkpt><trkpt lat="35.1031555" lon="10.7467959"><ele>70.0</ele><time>2026-04-25T11:12:32.839Z</time></trkpt><trkpt lat="35.1029646" lon="10.7468501"><ele>71.66666666666666</ele><time>2026-04-25T11:12:33.834Z</time></trkpt><trkpt lat="35.1027721" lon="10.7468991"><ele>73.33333333333333</ele><time>2026-04-25T11:12:34.839Z</time></trkpt><trkpt lat="35.1025727" lon="10.7469477"><ele>75.0</ele><time>2026-04-25T11:12:35.835Z</time></trkpt><trkpt lat="35.1023805" lon="10.7470001"><ele>75.66666666666667</ele><time>2026-04-25T11:12:36.83Z</time></trkpt><trkpt lat="35.1021866" lon="10.7470581"><ele>76.33333333333334</ele><time>2026-04-25T11:12:37.835Z</time></trkpt><trkpt lat="35.1019961" lon="10.747116"><ele>77.0</ele><time>2026-04-25T11:12:38.83Z</time></trkpt><trkpt lat="35.101805" lon="10.7471673"><ele>77.0</ele><time>2026-04-25T11:12:39.831Z</time></trkpt><trkpt lat="35.1016084" lon="10.7472135"><ele>77.0</ele><time>2026-04-25T11:12:40.836Z</time></trkpt><trkpt lat="35.1014085" lon="10.7472517"><ele>77.0</ele><time>2026-04-25T11:12:41.83Z</time></trkpt><trkpt lat="35.1012083" lon="10.7472819"><ele>77.66666666666667</ele><time>2026-04-25T11:12:42.829Z</time></trkpt><trkpt lat="35.1010063" lon="10.7473059"><ele>78.33333333333333</ele><time>2026-04-25T11:12:43.835Z</time></trkpt><trkpt lat="35.1008061" lon="10.7473182"><ele>79.0</ele><time>2026-04-25T11:12:44.841Z</time></trkpt><trkpt lat="35.1006046" lon="10.7473216"><ele>79.66666666666666</ele><time>2026-04-25T11:12:45.835Z</time></trkpt><trkpt lat="35.1004007" lon="10.7473234"><ele>80.33333333333333</ele><time>2026-04-25T11:12:46.833Z</time></trkpt><trkpt lat="35.1002028" lon="10.7473285"><ele>81.0</ele><time>2026-04-25T11:12:47.843Z</time></trkpt><trkpt lat="35.1000056" lon="10.7473339"><ele>81.0</ele><time>2026-04-25T11:12:48.835Z</time></trkpt><trkpt lat="35.0998058" lon="10.747337"><ele>81.0</ele><time>2026-04-25T11:12:49.838Z</time></trkpt><trkpt lat="35.0996111" lon="10.7473391"><ele>81.0</ele><time>2026-04-25T11:12:50.844Z</time></trkpt><trkpt lat="35.0994139" lon="10.7473405"><ele>81.0</ele><time>2026-04-25T11:12:51.839Z</time></trkpt><trkpt lat="35.0992207" lon="10.7473412"><ele>81.0</ele><time>2026-04-25T11:12:52.842Z</time></trkpt><trkpt lat="35.0990264" lon="10.7473509"><ele>81.0</ele><time>2026-04-25T11:12:53.837Z</time></trkpt><trkpt lat="35.0988273" lon="10.747355"><ele>82.0</ele><time>2026-04-25T11:12:54.838Z</time></trkpt><trkpt lat="35.0986246" lon="10.7473572"><ele>83.0</ele><time>2026-04-25T11:12:55.836Z</time></trkpt><trkpt lat="35.0984251" lon="10.7473578"><ele>84.0</ele><time>2026-04-25T11:12:56.841Z</time></trkpt><trkpt lat="35.0982225" lon="10.7473604"><ele>84.66666666666667</ele><time>2026-04-25T11:12:57.838Z</time></trkpt><trkpt lat="35.0980219" lon="10.7473715"><ele>85.33333333333334</ele><time>2026-04-25T11:12:58.833Z</time></trkpt><trkpt lat="35.0978198" lon="10.7473942"><ele>86.0</ele><time>2026-04-25T11:12:59.831Z</time></trkpt><trkpt lat="35.0976219" lon="10.7474272"><ele>86.0</ele><time>2026-04-25T11:13:00.837Z</time></trkpt><trkpt lat="35.0974241" lon="10.7474745"><ele>86.0</ele><time>2026-04-25T11:13:01.835Z</time></trkpt><trkpt lat="35.0972226" lon="10.7475285"><ele>86.0</ele><time>2026-04-25T11:13:02.835Z</time></trkpt><trkpt lat="35.097021" lon="10.7475873"><ele>85.66666666666667</ele><time>2026-04-25T11:13:03.835Z</time></trkpt><trkpt lat="35.0968295" lon="10.7476399"><ele>85.33333333333333</ele><time>2026-04-25T11:13:04.836Z</time></trkpt><trkpt lat="35.0966338" lon="10.7476932"><ele>85.0</ele><time>2026-04-25T11:13:05.841Z</time></trkpt><trkpt lat="35.0964382" lon="10.7477476"><ele>85.0</ele><time>2026-04-25T11:13:06.838Z</time></trkpt><trkpt lat="35.0962396" lon="10.7478005"><ele>85.0</ele><time>2026-04-25T11:13:07.838Z</time></trkpt><trkpt lat="35.0960404" lon="10.7478529"><ele>85.0</ele><time>2026-04-25T11:13:08.835Z</time></trkpt><trkpt lat="35.0958433" lon="10.7479084"><ele>84.0</ele><time>2026-04-25T11:13:09.837Z</time></trkpt><trkpt lat="35.0956436" lon="10.7479625"><ele>83.0</ele><time>2026-04-25T11:13:10.841Z</time></trkpt><trkpt lat="35.0954475" lon="10.7480132"><ele>82.0</ele><time>2026-04-25T11:13:11.839Z</time></trkpt><trkpt lat="35.0952593" lon="10.7480686"><ele>82.0</ele><time>2026-04-25T11:13:12.836Z</time></trkpt><trkpt lat="35.0950645" lon="10.7481214"><ele>82.0</ele><time>2026-04-25T11:13:13.839Z</time></trkpt><trkpt lat="35.0948752" lon="10.7481743"><ele>82.0</ele><time>2026-04-25T11:13:14.838Z</time></trkpt><trkpt lat="35.0946822" lon="10.7482249"><ele>81.66666666666666</ele><time>2026-04-25T11:13:15.839Z</time></trkpt><trkpt lat="35.094487" lon="10.7482758"><ele>81.33333333333333</ele><time>2026-04-25T11:13:16.842Z</time></trkpt><trkpt lat="35.0942919" lon="10.74833"><ele>81.0</ele><time>2026-04-25T11:13:17.834Z</time></trkpt><trkpt lat="35.0940989" lon="10.748384"><ele>81.0</ele><time>2026-04-25T11:13:18.84Z</time></trkpt><trkpt lat="35.0939052" lon="10.7484392"><ele>81.0</ele><time>2026-04-25T11:13:19.844Z</time></trkpt><trkpt lat="35.093707" lon="10.7484915"><ele>81.0</ele><time>2026-04-25T11:13:20.843Z</time></trkpt><trkpt lat="35.093514" lon="10.748545"><ele>81.0</ele><time>2026-04-25T11:13:21.844Z</time></trkpt><trkpt lat="35.0933213" lon="10.7485957"><ele>81.0</ele><time>2026-04-25T11:13:22.843Z</time></trkpt><trkpt lat="35.093122" lon="10.7486521"><ele>81.0</ele><time>2026-04-25T11:13:23.835Z</time></trkpt><trkpt lat="35.0929267" lon="10.7487085"><ele>80.0</ele><time>2026-04-25T11:13:24.838Z</time></trkpt><trkpt lat="35.0927328" lon="10.7487632"><ele>79.0</ele><time>2026-04-25T11:13:25.843Z</time></trkpt><trkpt lat="35.0925373" lon="10.7488173"><ele>78.0</ele><time>2026-04-25T11:13:26.839Z</time></trkpt><trkpt lat="35.0923413" lon="10.7488711"><ele>78.0</ele><time>2026-04-25T11:13:27.842Z</time></trkpt><trkpt lat="35.0921472" lon="10.7489243"><ele>78.0</ele><time>2026-04-25T11:13:28.84Z</time></trkpt><trkpt lat="35.0919532" lon="10.7489791"><ele>78.0</ele><time>2026-04-25T11:13:29.832Z</time></trkpt><trkpt lat="35.091761" lon="10.7490282"><ele>78.66666666666667</ele><time>2026-04-25T11:13:30.842Z</time></trkpt><trkpt lat="35.0915678" lon="10.7490811"><ele>79.33333333333334</ele><time>2026-04-25T11:13:31.839Z</time></trkpt><trkpt lat="35.091375" lon="10.7491342"><ele>80.0</ele><time>2026-04-25T11:13:32.842Z</time></trkpt><trkpt lat="35.0911824" lon="10.7491866"><ele>80.0</ele><time>2026-04-25T11:13:33.833Z</time></trkpt><trkpt lat="35.0909871" lon="10.7492372"><ele>80.0</ele><time>2026-04-25T11:13:34.846Z</time></trkpt><trkpt lat="35.0907924" lon="10.7492874"><ele>80.0</ele><time>2026-04-25T11:13:35.842Z</time></trkpt><trkpt lat="35.0905993" lon="10.7493434"><ele>78.66666666666667</ele><time>2026-04-25T11:13:36.843Z</time></trkpt><trkpt lat="35.0904035" lon="10.7493966"><ele>77.33333333333333</ele><time>2026-04-25T11:13:37.846Z</time></trkpt><trkpt lat="35.0902072" lon="10.7494504"><ele>76.0</ele><time>2026-04-25T11:13:38.835Z</time></trkpt><trkpt lat="35.0900121" lon="10.7495054"><ele>76.33333333333333</ele><time>2026-04-25T11:13:39.835Z</time></trkpt><trkpt lat="35.0898178" lon="10.7495643"><ele>76.66666666666667</ele><time>2026-04-25T11:13:40.841Z</time></trkpt><trkpt lat="35.0896241" lon="10.7496172"><ele>77.0</ele><time>2026-04-25T11:13:41.833Z</time></trkpt><trkpt lat="35.0894291" lon="10.749672"><ele>77.0</ele><time>2026-04-25T11:13:42.834Z</time></trkpt><trkpt lat="35.0892349" lon="10.7497254"><ele>77.0</ele><time>2026-04-25T11:13:43.839Z</time></trkpt><trkpt lat="35.0890375" lon="10.7497788"><ele>77.0</ele><time>2026-04-25T11:13:44.832Z</time></trkpt><trkpt lat="35.08884" lon="10.7498326"><ele>77.33333333333334</ele><time>2026-04-25T11:13:45.832Z</time></trkpt><trkpt lat="35.0886468" lon="10.7498859"><ele>77.66666666666667</ele><time>2026-04-25T11:13:46.835Z</time></trkpt><trkpt lat="35.0884492" lon="10.7499392"><ele>78.0</ele><time>2026-04-25T11:13:47.839Z</time></trkpt><trkpt lat="35.0882529" lon="10.7499923"><ele>78.66666666666667</ele><time>2026-04-25T11:13:48.836Z</time></trkpt><trkpt lat="35.0880617" lon="10.7500434"><ele>79.33333333333334</ele><time>2026-04-25T11:13:49.832Z</time></trkpt><trkpt lat="35.0878614" lon="10.7500939"><ele>80.0</ele><time>2026-04-25T11:13:50.839Z</time></trkpt><trkpt lat="35.0876683" lon="10.7501428"><ele>80.0</ele><time>2026-04-25T11:13:51.838Z</time></trkpt><trkpt lat="35.0874736" lon="10.7501926"><ele>80.0</ele><time>2026-04-25T11:13:52.837Z</time></trkpt><trkpt lat="35.087279" lon="10.7502438"><ele>80.0</ele><time>2026-04-25T11:13:53.835Z</time></trkpt><trkpt lat="35.0870853" lon="10.7502993"><ele>80.0</ele><time>2026-04-25T11:13:54.834Z</time></trkpt><trkpt lat="35.0868945" lon="10.7503513"><ele>80.0</ele><time>2026-04-25T11:13:55.834Z</time></trkpt><trkpt lat="35.0866998" lon="10.7504071"><ele>80.0</ele><time>2026-04-25T11:13:56.837Z</time></trkpt><trkpt lat="35.0865075" lon="10.750463"><ele>80.0</ele><time>2026-04-25T11:13:57.832Z</time></trkpt><trkpt lat="35.0863121" lon="10.7505143"><ele>80.0</ele><time>2026-04-25T11:13:58.839Z</time></trkpt><trkpt lat="35.0861158" lon="10.7505624"><ele>80.0</ele><time>2026-04-25T11:13:59.84Z</time></trkpt><trkpt lat="35.0859198" lon="10.7506027"><ele>81.0</ele><time>2026-04-25T11:14:00.834Z</time></trkpt><trkpt lat="35.0857216" lon="10.7506333"><ele>82.0</ele><time>2026-04-25T11:14:01.838Z</time></trkpt><trkpt lat="35.0855217" lon="10.7506527"><ele>83.0</ele><time>2026-04-25T11:14:02.843Z</time></trkpt><trkpt lat="35.0853215" lon="10.7506606"><ele>83.0</ele><time>2026-04-25T11:14:03.843Z</time></trkpt><trkpt lat="35.0851248" lon="10.7506655"><ele>83.0</ele><time>2026-04-25T11:14:04.837Z</time></trkpt><trkpt lat="35.0849211" lon="10.750666"><ele>83.0</ele><time>2026-04-25T11:14:05.838Z</time></trkpt><trkpt lat="35.0847194" lon="10.7506713"><ele>82.66666666666667</ele><time>2026-04-25T11:14:06.842Z</time></trkpt><trkpt lat="35.0845187" lon="10.750677"><ele>82.33333333333333</ele><time>2026-04-25T11:14:07.834Z</time></trkpt><trkpt lat="35.084317" lon="10.7506804"><ele>82.0</ele><time>2026-04-25T11:14:08.838Z</time></trkpt><trkpt lat="35.0841179" lon="10.7506804"><ele>82.0</ele><time>2026-04-25T11:14:09.839Z</time></trkpt><trkpt lat="35.0839203" lon="10.7506825"><ele>82.0</ele><time>2026-04-25T11:14:10.842Z</time></trkpt><trkpt lat="35.0837219" lon="10.7506808"><ele>82.0</ele><time>2026-04-25T11:14:11.826Z</time></trkpt><trkpt lat="35.0835194" lon="10.7506773"><ele>82.0</ele><time>2026-04-25T11:14:12.83Z</time></trkpt><trkpt lat="35.0833133" lon="10.7506757"><ele>82.0</ele><time>2026-04-25T11:14:13.836Z</time></trkpt><trkpt lat="35.0831091" lon="10.7506769"><ele>82.0</ele><time>2026-04-25T11:14:14.824Z</time></trkpt><trkpt lat="35.0828996" lon="10.7506801"><ele>81.66666666666666</ele><time>2026-04-25T11:14:15.841Z</time></trkpt><trkpt lat="35.0826904" lon="10.7506811"><ele>81.33333333333333</ele><time>2026-04-25T11:14:16.836Z</time></trkpt><trkpt lat="35.0824818" lon="10.7506818"><ele>81.0</ele><time>2026-04-25T11:14:17.833Z</time></trkpt><trkpt lat="35.0822759" lon="10.7506819"><ele>81.0</ele><time>2026-04-25T11:14:18.845Z</time></trkpt><trkpt lat="35.0820725" lon="10.7506836"><ele>81.0</ele><time>2026-04-25T11:14:19.836Z</time></trkpt><trkpt lat="35.0818775" lon="10.7506784"><ele>81.0</ele><time>2026-04-25T11:14:20.832Z</time></trkpt><trkpt lat="35.0816826" lon="10.750665"><ele>80.33333333333333</ele><time>2026-04-25T11:14:21.832Z</time></trkpt><trkpt lat="35.0814804" lon="10.7506442"><ele>79.66666666666666</ele><time>2026-04-25T11:14:22.841Z</time></trkpt><trkpt lat="35.0812763" lon="10.7506025"><ele>79.0</ele><time>2026-04-25T11:14:23.833Z</time></trkpt><trkpt lat="35.081066" lon="10.7505563"><ele>79.0</ele><time>2026-04-25T11:14:24.83Z</time></trkpt><trkpt lat="35.0808586" lon="10.750506"><ele>79.0</ele><time>2026-04-25T11:14:25.839Z</time></trkpt><trkpt lat="35.0806527" lon="10.7504575"><ele>79.0</ele><time>2026-04-25T11:14:26.833Z</time></trkpt><trkpt lat="35.0804441" lon="10.7504062"><ele>78.33333333333333</ele><time>2026-04-25T11:14:27.832Z</time></trkpt><trkpt lat="35.0802393" lon="10.7503502"><ele>77.66666666666667</ele><time>2026-04-25T11:14:28.839Z</time></trkpt><trkpt lat="35.0800371" lon="10.7502947"><ele>77.0</ele><time>2026-04-25T11:14:29.833Z</time></trkpt><trkpt lat="35.0798364" lon="10.7502413"><ele>76.0</ele><time>2026-04-25T11:14:30.827Z</time></trkpt><trkpt lat="35.079632" lon="10.7501845"><ele>75.0</ele><time>2026-04-25T11:14:31.835Z</time></trkpt><trkpt lat="35.0794228" lon="10.7501274"><ele>74.0</ele><time>2026-04-25T11:14:32.854Z</time></trkpt><trkpt lat="35.0792097" lon="10.7500719"><ele>74.0</ele><time>2026-04-25T11:14:33.837Z</time></trkpt><trkpt lat="35.0789896" lon="10.7500139"><ele>74.0</ele><time>2026-04-25T11:14:34.838Z</time></trkpt><trkpt lat="35.0787665" lon="10.7499561"><ele>74.0</ele><time>2026-04-25T11:14:35.838Z</time></trkpt><trkpt lat="35.0785449" lon="10.7499002"><ele>74.0</ele><time>2026-04-25T11:14:36.841Z</time></trkpt><trkpt lat="35.0783201" lon="10.7498397"><ele>74.0</ele><time>2026-04-25T11:14:37.837Z</time></trkpt><trkpt lat="35.0780921" lon="10.7497786"><ele>74.0</ele><time>2026-04-25T11:14:38.837Z</time></trkpt><trkpt lat="35.0778551" lon="10.7497193"><ele>74.0</ele><time>2026-04-25T11:14:39.841Z</time></trkpt><trkpt lat="35.0776189" lon="10.7496591"><ele>74.0</ele><time>2026-04-25T11:14:40.839Z</time></trkpt><trkpt lat="35.0773851" lon="10.7496015"><ele>73.0</ele><time>2026-04-25T11:14:41.84Z</time></trkpt><trkpt lat="35.0771478" lon="10.7495395"><ele>72.0</ele><time>2026-04-25T11:14:42.837Z</time></trkpt><trkpt lat="35.0769092" lon="10.7494769"><ele>72.0</ele><time>2026-04-25T11:14:43.832Z</time></trkpt><trkpt lat="35.0766724" lon="10.7494137"><ele>72.0</ele><time>2026-04-25T11:14:44.829Z</time></trkpt><trkpt lat="35.076435" lon="10.7493498"><ele>72.5</ele><time>2026-04-25T11:14:45.837Z</time></trkpt><trkpt lat="35.0761949" lon="10.7492867"><ele>73.0</ele><time>2026-04-25T11:14:46.838Z</time></trkpt><trkpt lat="35.0759591" lon="10.7492245"><ele>73.0</ele><time>2026-04-25T11:14:47.828Z</time></trkpt><trkpt lat="35.0757266" lon="10.7491645"><ele>73.0</ele><time>2026-04-25T11:14:48.835Z</time></trkpt><trkpt lat="35.0754935" lon="10.7491001"><ele>73.0</ele><time>2026-04-25T11:14:49.841Z</time></trkpt><trkpt lat="35.0752576" lon="10.7490368"><ele>73.0</ele><time>2026-04-25T11:14:50.844Z</time></trkpt><trkpt lat="35.0750235" lon="10.7489769"><ele>73.5</ele><time>2026-04-25T11:14:51.839Z</time></trkpt><trkpt lat="35.0747911" lon="10.7489158"><ele>74.0</ele><time>2026-04-25T11:14:52.843Z</time></trkpt><trkpt lat="35.0745602" lon="10.7488552"><ele>74.0</ele><time>2026-04-25T11:14:53.837Z</time></trkpt><trkpt lat="35.0743294" lon="10.7487949"><ele>74.0</ele><time>2026-04-25T11:14:54.841Z</time></trkpt><trkpt lat="35.0740996" lon="10.7487324"><ele>73.5</ele><time>2026-04-25T11:14:55.836Z</time></trkpt><trkpt lat="35.073869" lon="10.7486717"><ele>73.0</ele><time>2026-04-25T11:14:56.836Z</time></trkpt><trkpt lat="35.0736367" lon="10.7486077"><ele>73.0</ele><time>2026-04-25T11:14:57.839Z</time></trkpt><trkpt lat="35.0734046" lon="10.7485443"><ele>73.0</ele><time>2026-04-25T11:14:58.838Z</time></trkpt><trkpt lat="35.0731748" lon="10.7484834"><ele>74.5</ele><time>2026-04-25T11:14:59.84Z</time></trkpt><trkpt lat="35.0729449" lon="10.7484202"><ele>76.0</ele><time>2026-04-25T11:15:00.83Z</time></trkpt><trkpt lat="35.0727155" lon="10.7483594"><ele>76.0</ele><time>2026-04-25T11:15:01.84Z</time></trkpt><trkpt lat="35.0724841" lon="10.7483034"><ele>76.0</ele><time>2026-04-25T11:15:02.842Z</time></trkpt><trkpt lat="35.0722545" lon="10.7482431"><ele>76.5</ele><time>2026-04-25T11:15:03.834Z</time></trkpt><trkpt lat="35.0720276" lon="10.7481848"><ele>77.0</ele><time>2026-04-25T11:15:04.854Z</time></trkpt><trkpt lat="35.0717992" lon="10.7481269"><ele>75.5</ele><time>2026-04-25T11:15:05.839Z</time></trkpt><trkpt lat="35.0715737" lon="10.7480717"><ele>74.0</ele><time>2026-04-25T11:15:06.839Z</time></trkpt><trkpt lat="35.0713458" lon="10.7480122"><ele>74.0</ele><time>2026-04-25T11:15:07.838Z</time></trkpt><trkpt lat="35.0711212" lon="10.7479496"><ele>74.0</ele><time>2026-04-25T11:15:08.834Z</time></trkpt><trkpt lat="35.0708981" lon="10.7478879"><ele>73.5</ele><time>2026-04-25T11:15:09.837Z</time></trkpt><trkpt lat="35.0706688" lon="10.7478262"><ele>73.0</ele><time>2026-04-25T11:15:10.837Z</time></trkpt><trkpt lat="35.0704419" lon="10.7477657"><ele>73.0</ele><time>2026-04-25T11:15:11.834Z</time></trkpt><trkpt lat="35.0702168" lon="10.7477103"><ele>73.0</ele><time>2026-04-25T11:15:12.837Z</time></trkpt><trkpt lat="35.069991" lon="10.7476579"><ele>72.66666666666666</ele><time>2026-04-25T11:15:13.824Z</time></trkpt><trkpt lat="35.0697708" lon="10.7476088"><ele>72.33333333333333</ele><time>2026-04-25T11:15:14.834Z</time></trkpt><trkpt lat="35.0695503" lon="10.7475558"><ele>72.0</ele><time>2026-04-25T11:15:15.825Z</time></trkpt><trkpt lat="35.0693313" lon="10.7474931"><ele>72.0</ele><time>2026-04-25T11:15:16.836Z</time></trkpt><trkpt lat="35.0691154" lon="10.7474238"><ele>72.0</ele><time>2026-04-25T11:15:17.833Z</time></trkpt><trkpt lat="35.068893" lon="10.7473615"><ele>72.0</ele><time>2026-04-25T11:15:18.828Z</time></trkpt><trkpt lat="35.0686745" lon="10.7473028"><ele>72.0</ele><time>2026-04-25T11:15:19.834Z</time></trkpt><trkpt lat="35.0684544" lon="10.7472441"><ele>72.0</ele><time>2026-04-25T11:15:20.827Z</time></trkpt><trkpt lat="35.0682346" lon="10.7471788"><ele>72.0</ele><time>2026-04-25T11:15:21.842Z</time></trkpt><trkpt lat="35.0680212" lon="10.7471136"><ele>72.0</ele><time>2026-04-25T11:15:22.833Z</time></trkpt><trkpt lat="35.067809" lon="10.7470462"><ele>72.0</ele><time>2026-04-25T11:15:23.835Z</time></trkpt><trkpt lat="35.0676067" lon="10.7469799"><ele>72.33333333333333</ele><time>2026-04-25T11:15:24.834Z</time></trkpt><trkpt lat="35.0674125" lon="10.7469184"><ele>72.66666666666666</ele><time>2026-04-25T11:15:25.83Z</time></trkpt><trkpt lat="35.067226" lon="10.7468577"><ele>73.0</ele><time>2026-04-25T11:15:26.84Z</time></trkpt><trkpt lat="35.0670416" lon="10.7467947"><ele>74.0</ele><time>2026-04-25T11:15:27.837Z</time></trkpt><trkpt lat="35.0668617" lon="10.7467359"><ele>75.0</ele><time>2026-04-25T11:15:28.841Z</time></trkpt><trkpt lat="35.0666833" lon="10.7466744"><ele>76.0</ele><time>2026-04-25T11:15:29.837Z</time></trkpt><trkpt lat="35.0665106" lon="10.746613"><ele>77.33333333333333</ele><time>2026-04-25T11:15:30.847Z</time></trkpt><trkpt lat="35.0663385" lon="10.7465522"><ele>78.66666666666667</ele><time>2026-04-25T11:15:31.832Z</time></trkpt><trkpt lat="35.0661772" lon="10.7464973"><ele>80.0</ele><time>2026-04-25T11:15:32.838Z</time></trkpt><trkpt lat="35.0660255" lon="10.7464448"><ele>80.0</ele><time>2026-04-25T11:15:33.833Z</time></trkpt><trkpt lat="35.0658761" lon="10.7463942"><ele>80.0</ele><time>2026-04-25T11:15:34.84Z</time></trkpt><trkpt lat="35.0657392" lon="10.7463448"><ele>80.0</ele><time>2026-04-25T11:15:35.835Z</time></trkpt><trkpt lat="35.0656298" lon="10.7462993"><ele>80.0</ele><time>2026-04-25T11:15:36.841Z</time></trkpt><trkpt lat="35.0655467" lon="10.7462735"><ele>79.2</ele><time>2026-04-25T11:15:37.841Z</time></trkpt><trkpt lat="35.06547" lon="10.7462492"><ele>78.4</ele><time>2026-04-25T11:15:38.835Z</time></trkpt><trkpt lat="35.0653799" lon="10.7462185"><ele>77.6</ele><time>2026-04-25T11:15:39.843Z</time></trkpt><trkpt lat="35.0652799" lon="10.7461801"><ele>76.8</ele><time>2026-04-25T11:15:40.834Z</time></trkpt><trkpt lat="35.0651704" lon="10.7461418"><ele>76.0</ele><time>2026-04-25T11:15:41.839Z</time></trkpt><trkpt lat="35.0650482" lon="10.7460968"><ele>76.0</ele><time>2026-04-25T11:15:42.84Z</time></trkpt><trkpt lat="35.0649283" lon="10.746051"><ele>76.0</ele><time>2026-04-25T11:15:43.826Z</time></trkpt><trkpt lat="35.0648016" lon="10.7460092"><ele>76.0</ele><time>2026-04-25T11:15:44.83Z</time></trkpt><trkpt lat="35.064668" lon="10.7459632"><ele>76.0</ele><time>2026-04-25T11:15:45.83Z</time></trkpt><trkpt lat="35.0645328" lon="10.7459156"><ele>76.0</ele><time>2026-04-25T11:15:46.835Z</time></trkpt><trkpt lat="35.0644005" lon="10.7458639"><ele>76.0</ele><time>2026-04-25T11:15:47.844Z</time></trkpt><trkpt lat="35.064264" lon="10.7458158"><ele>76.0</ele><time>2026-04-25T11:15:48.842Z</time></trkpt><trkpt lat="35.0641266" lon="10.7457637"><ele>76.0</ele><time>2026-04-25T11:15:49.828Z</time></trkpt><trkpt lat="35.063987" lon="10.7457131"><ele>76.25</ele><time>2026-04-25T11:15:50.839Z</time></trkpt><trkpt lat="35.0638467" lon="10.745664"><ele>76.5</ele><time>2026-04-25T11:15:51.835Z</time></trkpt><trkpt lat="35.0637046" lon="10.7456134"><ele>76.75</ele><time>2026-04-25T11:15:52.838Z</time></trkpt><trkpt lat="35.0635579" lon="10.7455598"><ele>77.0</ele><time>2026-04-25T11:15:53.831Z</time></trkpt><trkpt lat="35.0634088" lon="10.7455054"><ele>77.66666666666667</ele><time>2026-04-25T11:15:54.836Z</time></trkpt><trkpt lat="35.0632611" lon="10.7454547"><ele>78.33333333333333</ele><time>2026-04-25T11:15:55.843Z</time></trkpt><trkpt lat="35.0631171" lon="10.7454008"><ele>79.0</ele><time>2026-04-25T11:15:56.836Z</time></trkpt><trkpt lat="35.0629726" lon="10.7453461"><ele>79.0</ele><time>2026-04-25T11:15:57.829Z</time></trkpt><trkpt lat="35.0628295" lon="10.7452964"><ele>79.0</ele><time>2026-04-25T11:15:58.839Z</time></trkpt><trkpt lat="35.0626816" lon="10.7452523"><ele>79.0</ele><time>2026-04-25T11:15:59.833Z</time></trkpt><trkpt lat="35.0625412" lon="10.7452078"><ele>79.0</ele><time>2026-04-25T11:16:00.834Z</time></trkpt><trkpt lat="35.0624046" lon="10.7451694"><ele>79.2</ele><time>2026-04-25T11:16:01.861Z</time></trkpt><trkpt lat="35.0622814" lon="10.7451379"><ele>79.4</ele><time>2026-04-25T11:16:02.838Z</time></trkpt><trkpt lat="35.062168" lon="10.7451141"><ele>79.6</ele><time>2026-04-25T11:16:03.832Z</time></trkpt><trkpt lat="35.0620732" lon="10.7450907"><ele>79.8</ele><time>2026-04-25T11:16:04.844Z</time></trkpt><trkpt lat="35.0619938" lon="10.7450678"><ele>80.0</ele><time>2026-04-25T11:16:05.836Z</time></trkpt><trkpt lat="35.0619241" lon="10.7450557"><ele>80.0</ele><time>2026-04-25T11:16:06.837Z</time></trkpt><trkpt lat="35.06186" lon="10.7450419"><ele>80.0</ele><time>2026-04-25T11:16:07.837Z</time></trkpt><trkpt lat="35.0617746" lon="10.7450322"><ele>80.0</ele><time>2026-04-25T11:16:08.835Z</time></trkpt><trkpt lat="35.0616691" lon="10.7450194"><ele>80.0</ele><time>2026-04-25T11:16:09.837Z</time></trkpt><trkpt lat="35.0615489" lon="10.7450055"><ele>80.0</ele><time>2026-04-25T11:16:10.844Z</time></trkpt><trkpt lat="35.0614198" lon="10.7449901"><ele>80.5</ele><time>2026-04-25T11:16:11.836Z</time></trkpt><trkpt lat="35.0612901" lon="10.7449693"><ele>81.0</ele><time>2026-04-25T11:16:12.84Z</time></trkpt><trkpt lat="35.0611576" lon="10.744946"><ele>81.5</ele><time>2026-04-25T11:16:13.831Z</time></trkpt><trkpt lat="35.0610156" lon="10.7449267"><ele>82.0</ele><time>2026-04-25T11:16:14.832Z</time></trkpt><trkpt lat="35.0608647" lon="10.7449061"><ele>83.0</ele><time>2026-04-25T11:16:15.836Z</time></trkpt><trkpt lat="35.0607081" lon="10.7448871"><ele>84.0</ele><time>2026-04-25T11:16:16.842Z</time></trkpt><trkpt lat="35.0605505" lon="10.7448665"><ele>85.0</ele><time>2026-04-25T11:16:17.835Z</time></trkpt><trkpt lat="35.0603941" lon="10.7448482"><ele>85.0</ele><time>2026-04-25T11:16:18.837Z</time></trkpt><trkpt lat="35.0602304" lon="10.7448291"><ele>85.0</ele><time>2026-04-25T11:16:19.837Z</time></trkpt><trkpt lat="35.0600712" lon="10.7448099"><ele>85.0</ele><time>2026-04-25T11:16:20.837Z</time></trkpt><trkpt lat="35.0599134" lon="10.7447924"><ele>85.33333333333333</ele><time>2026-04-25T11:16:21.838Z</time></trkpt><trkpt lat="35.0597496" lon="10.7447732"><ele>85.66666666666667</ele><time>2026-04-25T11:16:22.841Z</time></trkpt><trkpt lat="35.0595904" lon="10.7447509"><ele>86.0</ele><time>2026-04-25T11:16:23.839Z</time></trkpt><trkpt lat="35.0594308" lon="10.74473"><ele>86.0</ele><time>2026-04-25T11:16:24.839Z</time></trkpt><trkpt lat="35.0592666" lon="10.7447064"><ele>86.0</ele><time>2026-04-25T11:16:25.837Z</time></trkpt><trkpt lat="35.0591019" lon="10.7446836"><ele>86.0</ele><time>2026-04-25T11:16:26.836Z</time></trkpt><trkpt lat="35.0589332" lon="10.7446556"><ele>86.66666666666667</ele><time>2026-04-25T11:16:27.841Z</time></trkpt><trkpt lat="35.058759" lon="10.7446325"><ele>87.33333333333333</ele><time>2026-04-25T11:16:28.835Z</time></trkpt><trkpt lat="35.0585785" lon="10.7446135"><ele>88.0</ele><time>2026-04-25T11:16:29.837Z</time></trkpt><trkpt lat="35.0583939" lon="10.7445902"><ele>88.66666666666666</ele><time>2026-04-25T11:16:30.842Z</time></trkpt><trkpt lat="35.05821" lon="10.7445699"><ele>89.33333333333333</ele><time>2026-04-25T11:16:31.845Z</time></trkpt><trkpt lat="35.0580211" lon="10.7445484"><ele>90.0</ele><time>2026-04-25T11:16:32.835Z</time></trkpt><trkpt lat="35.0578379" lon="10.7445255"><ele>90.0</ele><time>2026-04-25T11:16:33.837Z</time></trkpt><trkpt lat="35.0576477" lon="10.7445002"><ele>90.0</ele><time>2026-04-25T11:16:34.839Z</time></trkpt><trkpt lat="35.0574568" lon="10.744474"><ele>90.0</ele><time>2026-04-25T11:16:35.832Z</time></trkpt><trkpt lat="35.0572574" lon="10.7444462"><ele>90.0</ele><time>2026-04-25T11:16:36.826Z</time></trkpt><trkpt lat="35.0570557" lon="10.7444195"><ele>90.0</ele><time>2026-04-25T11:16:37.839Z</time></trkpt><trkpt lat="35.0568548" lon="10.7443929"><ele>90.0</ele><time>2026-04-25T11:16:38.838Z</time></trkpt><trkpt lat="35.0566602" lon="10.7443679"><ele>90.33333333333333</ele><time>2026-04-25T11:16:39.835Z</time></trkpt><trkpt lat="35.0564628" lon="10.7443433"><ele>90.66666666666666</ele><time>2026-04-25T11:16:40.848Z</time></trkpt><trkpt lat="35.0562675" lon="10.7443205"><ele>91.0</ele><time>2026-04-25T11:16:41.834Z</time></trkpt><trkpt lat="35.0560692" lon="10.7442934"><ele>91.0</ele><time>2026-04-25T11:16:42.84Z</time></trkpt><trkpt lat="35.0558722" lon="10.7442674"><ele>91.0</ele><time>2026-04-25T11:16:43.83Z</time></trkpt><trkpt lat="35.0556757" lon="10.7442419"><ele>91.0</ele><time>2026-04-25T11:16:44.825Z</time></trkpt><trkpt lat="35.0554781" lon="10.744213"><ele>91.33333333333333</ele><time>2026-04-25T11:16:45.823Z</time></trkpt><trkpt lat="35.0552813" lon="10.7441866"><ele>91.66666666666667</ele><time>2026-04-25T11:16:46.822Z</time></trkpt><trkpt lat="35.0550823" lon="10.7441614"><ele>92.0</ele><time>2026-04-25T11:16:47.826Z</time></trkpt><trkpt lat="35.0548835" lon="10.7441372"><ele>92.33333333333334</ele><time>2026-04-25T11:16:48.829Z</time></trkpt><trkpt lat="35.0546853" lon="10.7441088"><ele>92.66666666666667</ele><time>2026-04-25T11:16:49.836Z</time></trkpt><trkpt lat="35.0544868" lon="10.7440806"><ele>93.0</ele><time>2026-04-25T11:16:50.84Z</time></trkpt><trkpt lat="35.0542876" lon="10.7440532"><ele>92.66666666666667</ele><time>2026-04-25T11:16:51.838Z</time></trkpt><trkpt lat="35.054088" lon="10.7440275"><ele>92.33333333333334</ele><time>2026-04-25T11:16:52.837Z</time></trkpt><trkpt lat="35.0538909" lon="10.7439979"><ele>92.0</ele><time>2026-04-25T11:16:53.833Z</time></trkpt><trkpt lat="35.0536918" lon="10.7439707"><ele>92.0</ele><time>2026-04-25T11:16:54.839Z</time></trkpt><trkpt lat="35.0534942" lon="10.7439456"><ele>92.0</ele><time>2026-04-25T11:16:55.838Z</time></trkpt><trkpt lat="35.0532941" lon="10.7439211"><ele>92.0</ele><time>2026-04-25T11:16:56.837Z</time></trkpt><trkpt lat="35.0530953" lon="10.7438982"><ele>92.66666666666667</ele><time>2026-04-25T11:16:57.836Z</time></trkpt><trkpt lat="35.0528987" lon="10.7438772"><ele>93.33333333333333</ele><time>2026-04-25T11:16:58.836Z</time></trkpt><trkpt lat="35.0527027" lon="10.7438582"><ele>94.0</ele><time>2026-04-25T11:16:59.832Z</time></trkpt><trkpt lat="35.0525024" lon="10.7438341"><ele>93.33333333333333</ele><time>2026-04-25T11:17:00.837Z</time></trkpt><trkpt lat="35.0523025" lon="10.7438078"><ele>92.66666666666667</ele><time>2026-04-25T11:17:01.841Z</time></trkpt><trkpt lat="35.0521005" lon="10.7437802"><ele>92.0</ele><time>2026-04-25T11:17:02.841Z</time></trkpt><trkpt lat="35.0518972" lon="10.7437546"><ele>92.0</ele><time>2026-04-25T11:17:03.836Z</time></trkpt><trkpt lat="35.0516959" lon="10.7437302"><ele>92.0</ele><time>2026-04-25T11:17:04.841Z</time></trkpt><trkpt lat="35.0514951" lon="10.7437031"><ele>92.0</ele><time>2026-04-25T11:17:05.835Z</time></trkpt><trkpt lat="35.051289" lon="10.7436802"><ele>93.0</ele><time>2026-04-25T11:17:06.845Z</time></trkpt><trkpt lat="35.0510852" lon="10.7436579"><ele>94.0</ele><time>2026-04-25T11:17:07.838Z</time></trkpt><trkpt lat="35.0508803" lon="10.7436306"><ele>95.0</ele><time>2026-04-25T11:17:08.828Z</time></trkpt><trkpt lat="35.0506821" lon="10.7436046"><ele>95.66666666666667</ele><time>2026-04-25T11:17:09.835Z</time></trkpt><trkpt lat="35.0504781" lon="10.7435766"><ele>96.33333333333334</ele><time>2026-04-25T11:17:10.838Z</time></trkpt><trkpt lat="35.0502707" lon="10.7435524"><ele>97.0</ele><time>2026-04-25T11:17:11.838Z</time></trkpt><trkpt lat="35.050062" lon="10.7435212"><ele>97.33333333333334</ele><time>2026-04-25T11:17:12.837Z</time></trkpt><trkpt lat="35.0498557" lon="10.7434999"><ele>97.66666666666666</ele><time>2026-04-25T11:17:13.836Z</time></trkpt><trkpt lat="35.0496533" lon="10.7434775"><ele>98.0</ele><time>2026-04-25T11:17:14.826Z</time></trkpt><trkpt lat="35.0494476" lon="10.7434502"><ele>98.0</ele><time>2026-04-25T11:17:15.823Z</time></trkpt><trkpt lat="35.049242" lon="10.7434217"><ele>98.0</ele><time>2026-04-25T11:17:16.837Z</time></trkpt><trkpt lat="35.0490381" lon="10.7433968"><ele>98.0</ele><time>2026-04-25T11:17:17.842Z</time></trkpt><trkpt lat="35.0488358" lon="10.7433689"><ele>98.33333333333333</ele><time>2026-04-25T11:17:18.837Z</time></trkpt><trkpt lat="35.0486338" lon="10.7433374"><ele>98.66666666666666</ele><time>2026-04-25T11:17:19.84Z</time></trkpt><trkpt lat="35.0484317" lon="10.7433072"><ele>99.0</ele><time>2026-04-25T11:17:20.832Z</time></trkpt><trkpt lat="35.0482276" lon="10.743278"><ele>99.66666666666666</ele><time>2026-04-25T11:17:21.839Z</time></trkpt><trkpt lat="35.0480224" lon="10.743251"><ele>100.33333333333333</ele><time>2026-04-25T11:17:22.836Z</time></trkpt><trkpt lat="35.0478214" lon="10.743226"><ele>101.0</ele><time>2026-04-25T11:17:23.831Z</time></trkpt><trkpt lat="35.0476224" lon="10.7432002"><ele>102.0</ele><time>2026-04-25T11:17:24.839Z</time></trkpt><trkpt lat="35.0474245" lon="10.7431755"><ele>103.0</ele><time>2026-04-25T11:17:25.842Z</time></trkpt><trkpt lat="35.0472279" lon="10.7431476"><ele>104.0</ele><time>2026-04-25T11:17:26.829Z</time></trkpt><trkpt lat="35.0470347" lon="10.7431179"><ele>104.0</ele><time>2026-04-25T11:17:27.842Z</time></trkpt><trkpt lat="35.0468414" lon="10.7430947"><ele>104.0</ele><time>2026-04-25T11:17:28.839Z</time></trkpt><trkpt lat="35.0466482" lon="10.7430712"><ele>104.0</ele><time>2026-04-25T11:17:29.839Z</time></trkpt><trkpt lat="35.0464552" lon="10.7430567"><ele>104.33333333333333</ele><time>2026-04-25T11:17:30.835Z</time></trkpt><trkpt lat="35.046264" lon="10.7430493"><ele>104.66666666666666</ele><time>2026-04-25T11:17:31.84Z</time></trkpt><trkpt lat="35.0460719" lon="10.7430548"><ele>105.0</ele><time>2026-04-25T11:17:32.842Z</time></trkpt><trkpt lat="35.0458765" lon="10.7430593"><ele>105.33333333333334</ele><time>2026-04-25T11:17:33.835Z</time></trkpt><trkpt lat="35.0456757" lon="10.7430689"><ele>105.66666666666667</ele><time>2026-04-25T11:17:34.836Z</time></trkpt><trkpt lat="35.0454675" lon="10.7430825"><ele>106.0</ele><time>2026-04-25T11:17:35.836Z</time></trkpt><trkpt lat="35.0452599" lon="10.7430979"><ele>106.0</ele><time>2026-04-25T11:17:36.829Z</time></trkpt><trkpt lat="35.045054" lon="10.7431094"><ele>106.0</ele><time>2026-04-25T11:17:37.831Z</time></trkpt><trkpt lat="35.0448426" lon="10.7431159"><ele>106.0</ele><time>2026-04-25T11:17:38.828Z</time></trkpt><trkpt lat="35.0446323" lon="10.7431214"><ele>105.66666666666667</ele><time>2026-04-25T11:17:39.84Z</time></trkpt><trkpt lat="35.0444171" lon="10.7431315"><ele>105.33333333333334</ele><time>2026-04-25T11:17:40.844Z</time></trkpt><trkpt lat="35.0442013" lon="10.7431446"><ele>105.0</ele><time>2026-04-25T11:17:41.831Z</time></trkpt><trkpt lat="35.0439817" lon="10.7431611"><ele>105.0</ele><time>2026-04-25T11:17:42.838Z</time></trkpt><trkpt lat="35.0437652" lon="10.7431741"><ele>105.0</ele><time>2026-04-25T11:17:43.84Z</time></trkpt><trkpt lat="35.0435512" lon="10.7431844"><ele>105.0</ele><time>2026-04-25T11:17:44.836Z</time></trkpt><trkpt lat="35.0433338" lon="10.7431994"><ele>104.66666666666666</ele><time>2026-04-25T11:17:45.826Z</time></trkpt><trkpt lat="35.0431174" lon="10.7432134"><ele>104.33333333333333</ele><time>2026-04-25T11:17:46.828Z</time></trkpt><trkpt lat="35.042906" lon="10.7432268"><ele>104.0</ele><time>2026-04-25T11:17:47.836Z</time></trkpt><trkpt lat="35.0426918" lon="10.7432368"><ele>104.0</ele><time>2026-04-25T11:17:48.832Z</time></trkpt><trkpt lat="35.0424758" lon="10.7432484"><ele>104.0</ele><time>2026-04-25T11:17:49.852Z</time></trkpt><trkpt lat="35.042256" lon="10.743261"><ele>104.0</ele><time>2026-04-25T11:17:50.839Z</time></trkpt><trkpt lat="35.042035" lon="10.7432728"><ele>104.33333333333333</ele><time>2026-04-25T11:17:51.843Z</time></trkpt><trkpt lat="35.0418133" lon="10.7432881"><ele>104.66666666666666</ele><time>2026-04-25T11:17:52.837Z</time></trkpt><trkpt lat="35.0415939" lon="10.7432957"><ele>105.0</ele><time>2026-04-25T11:17:53.831Z</time></trkpt><trkpt lat="35.0413771" lon="10.7433069"><ele>105.33333333333334</ele><time>2026-04-25T11:17:54.841Z</time></trkpt><trkpt lat="35.0411626" lon="10.7433139"><ele>105.66666666666667</ele><time>2026-04-25T11:17:55.831Z</time></trkpt><trkpt lat="35.0409473" lon="10.7433175"><ele>106.0</ele><time>2026-04-25T11:17:56.83Z</time></trkpt><trkpt lat="35.0407306" lon="10.7433135"><ele>106.0</ele><time>2026-04-25T11:17:57.836Z</time></trkpt><trkpt lat="35.0405148" lon="10.7433004"><ele>106.0</ele><time>2026-04-25T11:17:58.836Z</time></trkpt><trkpt lat="35.040301" lon="10.7432817"><ele>106.0</ele><time>2026-04-25T11:17:59.834Z</time></trkpt><trkpt lat="35.0400899" lon="10.7432658"><ele>105.66666666666667</ele><time>2026-04-25T11:18:00.835Z</time></trkpt><trkpt lat="35.0398791" lon="10.7432487"><ele>105.33333333333334</ele><time>2026-04-25T11:18:01.83Z</time></trkpt><trkpt lat="35.039667" lon="10.7432323"><ele>105.0</ele><time>2026-04-25T11:18:02.831Z</time></trkpt><trkpt lat="35.0394533" lon="10.7432234"><ele>105.0</ele><time>2026-04-25T11:18:03.826Z</time></trkpt><trkpt lat="35.039244" lon="10.7432109"><ele>105.0</ele><time>2026-04-25T11:18:04.833Z</time></trkpt><trkpt lat="35.0390338" lon="10.743199"><ele>105.0</ele><time>2026-04-25T11:18:05.85Z</time></trkpt><trkpt lat="35.0388213" lon="10.743185"><ele>104.66666666666666</ele><time>2026-04-25T11:18:06.828Z</time></trkpt><trkpt lat="35.0386016" lon="10.7431716"><ele>104.33333333333333</ele><time>2026-04-25T11:18:07.841Z</time></trkpt><trkpt lat="35.0383815" lon="10.7431596"><ele>104.0</ele><time>2026-04-25T11:18:08.83Z</time></trkpt><trkpt lat="35.0381644" lon="10.7431422"><ele>104.0</ele><time>2026-04-25T11:18:09.833Z</time></trkpt><trkpt lat="35.0379425" lon="10.7431208"><ele>104.0</ele><time>2026-04-25T11:18:10.833Z</time></trkpt><trkpt lat="35.0377231" lon="10.7431054"><ele>104.0</ele><time>2026-04-25T11:18:11.833Z</time></trkpt><trkpt lat="35.0375008" lon="10.7430904"><ele>104.0</ele><time>2026-04-25T11:18:12.83Z</time></trkpt><trkpt lat="35.0372811" lon="10.7430771"><ele>104.0</ele><time>2026-04-25T11:18:13.833Z</time></trkpt><trkpt lat="35.0370618" lon="10.7430637"><ele>104.0</ele><time>2026-04-25T11:18:14.834Z</time></trkpt><trkpt lat="35.0368386" lon="10.7430512"><ele>104.0</ele><time>2026-04-25T11:18:15.828Z</time></trkpt><trkpt lat="35.0366158" lon="10.7430354"><ele>104.0</ele><time>2026-04-25T11:18:16.836Z</time></trkpt><trkpt lat="35.0363996" lon="10.7430195"><ele>104.0</ele><time>2026-04-25T11:18:17.836Z</time></trkpt><trkpt lat="35.0361802" lon="10.743003"><ele>104.0</ele><time>2026-04-25T11:18:18.834Z</time></trkpt><trkpt lat="35.0359623" lon="10.7429873"><ele>104.0</ele><time>2026-04-25T11:18:19.83Z</time></trkpt><trkpt lat="35.0357443" lon="10.742971"><ele>104.0</ele><time>2026-04-25T11:18:20.836Z</time></trkpt><trkpt lat="35.0355229" lon="10.7429563"><ele>104.0</ele><time>2026-04-25T11:18:21.833Z</time></trkpt><trkpt lat="35.0352991" lon="10.7429403"><ele>104.0</ele><time>2026-04-25T11:18:22.843Z</time></trkpt><trkpt lat="35.0350722" lon="10.7429255"><ele>104.5</ele><time>2026-04-25T11:18:23.836Z</time></trkpt><trkpt lat="35.0348432" lon="10.7429061"><ele>105.0</ele><time>2026-04-25T11:18:24.832Z</time></trkpt><trkpt lat="35.0346101" lon="10.7428927"><ele>105.0</ele><time>2026-04-25T11:18:25.836Z</time></trkpt><trkpt lat="35.0343772" lon="10.7428797"><ele>105.0</ele><time>2026-04-25T11:18:26.83Z</time></trkpt><trkpt lat="35.0341441" lon="10.7428644"><ele>104.5</ele><time>2026-04-25T11:18:27.833Z</time></trkpt><trkpt lat="35.0339082" lon="10.7428461"><ele>104.0</ele><time>2026-04-25T11:18:28.831Z</time></trkpt><trkpt lat="35.0336698" lon="10.7428291"><ele>104.0</ele><time>2026-04-25T11:18:29.827Z</time></trkpt><trkpt lat="35.0334333" lon="10.7428132"><ele>104.0</ele><time>2026-04-25T11:18:30.859Z</time></trkpt><trkpt lat="35.0331967" lon="10.742796"><ele>104.5</ele><time>2026-04-25T11:18:31.847Z</time></trkpt><trkpt lat="35.0329646" lon="10.7427809"><ele>105.0</ele><time>2026-04-25T11:18:32.879Z</time></trkpt><trkpt lat="35.0327343" lon="10.7427649"><ele>105.0</ele><time>2026-04-25T11:18:33.881Z</time></trkpt><trkpt lat="35.0325073" lon="10.7427524"><ele>105.0</ele><time>2026-04-25T11:18:34.884Z</time></trkpt><trkpt lat="35.0322817" lon="10.7427375"><ele>104.66666666666666</ele><time>2026-04-25T11:18:35.882Z</time></trkpt><trkpt lat="35.0320576" lon="10.7427199"><ele>104.33333333333333</ele><time>2026-04-25T11:18:36.873Z</time></trkpt><trkpt lat="35.0318362" lon="10.7427026"><ele>104.0</ele><time>2026-04-25T11:18:37.869Z</time></trkpt><trkpt lat="35.0316191" lon="10.7426861"><ele>104.0</ele><time>2026-04-25T11:18:38.865Z</time></trkpt><trkpt lat="35.0314001" lon="10.7426723"><ele>104.0</ele><time>2026-04-25T11:18:39.878Z</time></trkpt><trkpt lat="35.031183" lon="10.742659"><ele>104.0</ele><time>2026-04-25T11:18:40.876Z</time></trkpt><trkpt lat="35.0309667" lon="10.7426436"><ele>104.33333333333333</ele><time>2026-04-25T11:18:41.878Z</time></trkpt><trkpt lat="35.0307528" lon="10.7426298"><ele>104.66666666666666</ele><time>2026-04-25T11:18:42.89Z</time></trkpt><trkpt lat="35.030537" lon="10.7426162"><ele>105.0</ele><time>2026-04-25T11:18:43.864Z</time></trkpt><trkpt lat="35.0303223" lon="10.7426027"><ele>105.0</ele><time>2026-04-25T11:18:44.84Z</time></trkpt><trkpt lat="35.0301114" lon="10.7425904"><ele>105.0</ele><time>2026-04-25T11:18:45.87Z</time></trkpt><trkpt lat="35.0298991" lon="10.7425743"><ele>105.0</ele><time>2026-04-25T11:18:46.835Z</time></trkpt><trkpt lat="35.0296882" lon="10.7425599"><ele>106.0</ele><time>2026-04-25T11:18:47.834Z</time></trkpt><trkpt lat="35.0294734" lon="10.7425463"><ele>107.0</ele><time>2026-04-25T11:18:48.832Z</time></trkpt><trkpt lat="35.0292609" lon="10.7425337"><ele>108.0</ele><time>2026-04-25T11:18:49.83Z</time></trkpt><trkpt lat="35.0290405" lon="10.7425202"><ele>109.0</ele><time>2026-04-25T11:18:50.838Z</time></trkpt><trkpt lat="35.028826" lon="10.7425033"><ele>110.0</ele><time>2026-04-25T11:18:51.843Z</time></trkpt><trkpt lat="35.0286113" lon="10.742487"><ele>111.0</ele><time>2026-04-25T11:18:52.84Z</time></trkpt><trkpt lat="35.0284003" lon="10.742471"><ele>111.33333333333334</ele><time>2026-04-25T11:18:53.826Z</time></trkpt><trkpt lat="35.0281877" lon="10.7424556"><ele>111.66666666666667</ele><time>2026-04-25T11:18:54.838Z</time></trkpt><trkpt lat="35.0279773" lon="10.742441"><ele>112.0</ele><time>2026-04-25T11:18:55.841Z</time></trkpt><trkpt lat="35.0277601" lon="10.7424267"><ele>112.0</ele><time>2026-04-25T11:18:56.833Z</time></trkpt><trkpt lat="35.0275507" lon="10.7424106"><ele>112.0</ele><time>2026-04-25T11:18:57.84Z</time></trkpt><trkpt lat="35.0273394" lon="10.7423981"><ele>112.0</ele><time>2026-04-25T11:18:58.84Z</time></trkpt><trkpt lat="35.027128" lon="10.7423816"><ele>113.66666666666667</ele><time>2026-04-25T11:18:59.844Z</time></trkpt><trkpt lat="35.0269158" lon="10.7423645"><ele>115.33333333333334</ele><time>2026-04-25T11:19:00.839Z</time></trkpt><trkpt lat="35.0267115" lon="10.7423448"><ele>117.0</ele><time>2026-04-25T11:19:01.841Z</time></trkpt><trkpt lat="35.026504" lon="10.7423264"><ele>117.33333333333334</ele><time>2026-04-25T11:19:02.842Z</time></trkpt><trkpt lat="35.0262959" lon="10.7423117"><ele>117.66666666666667</ele><time>2026-04-25T11:19:03.833Z</time></trkpt><trkpt lat="35.0260864" lon="10.7422971"><ele>118.0</ele><time>2026-04-25T11:19:04.84Z</time></trkpt><trkpt lat="35.0258774" lon="10.7422859"><ele>118.66666666666667</ele><time>2026-04-25T11:19:05.836Z</time></trkpt><trkpt lat="35.0256716" lon="10.7422766"><ele>119.33333333333334</ele><time>2026-04-25T11:19:06.827Z</time></trkpt><trkpt lat="35.0254599" lon="10.742278"><ele>120.0</ele><time>2026-04-25T11:19:07.832Z</time></trkpt><trkpt lat="35.0252476" lon="10.7422915"><ele>120.0</ele><time>2026-04-25T11:19:08.833Z</time></trkpt><trkpt lat="35.0250349" lon="10.742315"><ele>120.0</ele><time>2026-04-25T11:19:09.841Z</time></trkpt><trkpt lat="35.0248221" lon="10.7423461"><ele>120.0</ele><time>2026-04-25T11:19:10.841Z</time></trkpt><trkpt lat="35.0246074" lon="10.7423848"><ele>120.0</ele><time>2026-04-25T11:19:11.844Z</time></trkpt><trkpt lat="35.0243929" lon="10.7424229"><ele>120.0</ele><time>2026-04-25T11:19:12.836Z</time></trkpt><trkpt lat="35.0241782" lon="10.7424631"><ele>120.0</ele><time>2026-04-25T11:19:13.837Z</time></trkpt><trkpt lat="35.0239688" lon="10.7425069"><ele>119.66666666666666</ele><time>2026-04-25T11:19:14.838Z</time></trkpt><trkpt lat="35.0237544" lon="10.7425455"><ele>119.33333333333333</ele><time>2026-04-25T11:19:15.837Z</time></trkpt><trkpt lat="35.0235382" lon="10.742582"><ele>119.0</ele><time>2026-04-25T11:19:16.833Z</time></trkpt><trkpt lat="35.0233243" lon="10.742618"><ele>119.66666666666666</ele><time>2026-04-25T11:19:17.838Z</time></trkpt><trkpt lat="35.0231115" lon="10.7426533"><ele>120.33333333333334</ele><time>2026-04-25T11:19:18.835Z</time></trkpt><trkpt lat="35.0229017" lon="10.7426926"><ele>121.0</ele><time>2026-04-25T11:19:19.838Z</time></trkpt><trkpt lat="35.0226902" lon="10.7427332"><ele>121.0</ele><time>2026-04-25T11:19:20.841Z</time></trkpt><trkpt lat="35.022484" lon="10.7427727"><ele>121.0</ele><time>2026-04-25T11:19:21.836Z</time></trkpt><trkpt lat="35.0222772" lon="10.7428105"><ele>121.0</ele><time>2026-04-25T11:19:22.841Z</time></trkpt><trkpt lat="35.0220632" lon="10.7428468"><ele>121.66666666666667</ele><time>2026-04-25T11:19:23.835Z</time></trkpt><trkpt lat="35.0218505" lon="10.7428825"><ele>122.33333333333334</ele><time>2026-04-25T11:19:24.832Z</time></trkpt><trkpt lat="35.0216409" lon="10.7429162"><ele>123.0</ele><time>2026-04-25T11:19:25.833Z</time></trkpt><trkpt lat="35.0214339" lon="10.7429502"><ele>123.33333333333334</ele><time>2026-04-25T11:19:26.837Z</time></trkpt><trkpt lat="35.0212293" lon="10.7429862"><ele>123.66666666666667</ele><time>2026-04-25T11:19:27.828Z</time></trkpt><trkpt lat="35.0210263" lon="10.7430217"><ele>124.0</ele><time>2026-04-25T11:19:28.829Z</time></trkpt><trkpt lat="35.0208218" lon="10.7430578"><ele>126.0</ele><time>2026-04-25T11:19:29.836Z</time></trkpt><trkpt lat="35.0206197" lon="10.7430895"><ele>128.0</ele><time>2026-04-25T11:19:30.832Z</time></trkpt><trkpt lat="35.020417" lon="10.7431281"><ele>130.0</ele><time>2026-04-25T11:19:31.837Z</time></trkpt><trkpt lat="35.0202123" lon="10.7431616"><ele>130.0</ele><time>2026-04-25T11:19:32.838Z</time></trkpt><trkpt lat="35.0200126" lon="10.7432001"><ele>130.0</ele><time>2026-04-25T11:19:33.837Z</time></trkpt><trkpt lat="35.0198088" lon="10.7432328"><ele>130.0</ele><time>2026-04-25T11:19:34.836Z</time></trkpt><trkpt lat="35.0196052" lon="10.7432666"><ele>129.33333333333334</ele><time>2026-04-25T11:19:35.843Z</time></trkpt><trkpt lat="35.019399" lon="10.7432999"><ele>128.66666666666666</ele><time>2026-04-25T11:19:36.835Z</time></trkpt><trkpt lat="35.0191951" lon="10.7433329"><ele>128.0</ele><time>2026-04-25T11:19:37.827Z</time></trkpt><trkpt lat="35.0189949" lon="10.7433669"><ele>128.0</ele><time>2026-04-25T11:19:38.832Z</time></trkpt><trkpt lat="35.0187885" lon="10.7433986"><ele>128.0</ele><time>2026-04-25T11:19:39.833Z</time></trkpt><trkpt lat="35.0185832" lon="10.7434335"><ele>128.0</ele><time>2026-04-25T11:19:40.839Z</time></trkpt><trkpt lat="35.0183789" lon="10.7434683"><ele>128.33333333333331</ele><time>2026-04-25T11:19:41.832Z</time></trkpt><trkpt lat="35.0181774" lon="10.7435039"><ele>128.66666666666666</ele><time>2026-04-25T11:19:42.838Z</time></trkpt><trkpt lat="35.0179732" lon="10.7435418"><ele>129.0</ele><time>2026-04-25T11:19:43.846Z</time></trkpt><trkpt lat="35.0177711" lon="10.7435795"><ele>129.0</ele><time>2026-04-25T11:19:44.834Z</time></trkpt><trkpt lat="35.0175681" lon="10.7436144"><ele>129.0</ele><time>2026-04-25T11:19:45.83Z</time></trkpt><trkpt lat="35.0173626" lon="10.7436484"><ele>129.0</ele><time>2026-04-25T11:19:46.829Z</time></trkpt><trkpt lat="35.0171606" lon="10.7436848"><ele>129.33333333333334</ele><time>2026-04-25T11:19:47.825Z</time></trkpt><trkpt lat="35.0169569" lon="10.7437166"><ele>129.66666666666669</ele><time>2026-04-25T11:19:48.83Z</time></trkpt><trkpt lat="35.0167631" lon="10.7437531"><ele>130.0</ele><time>2026-04-25T11:19:49.828Z</time></trkpt><trkpt lat="35.0165719" lon="10.7437855"><ele>129.0</ele><time>2026-04-25T11:19:50.838Z</time></trkpt><trkpt lat="35.0163812" lon="10.7438211"><ele>128.0</ele><time>2026-04-25T11:19:51.841Z</time></trkpt><trkpt lat="35.0161923" lon="10.7438571"><ele>127.0</ele><time>2026-04-25T11:19:52.84Z</time></trkpt><trkpt lat="35.0160007" lon="10.7438917"><ele>126.33333333333334</ele><time>2026-04-25T11:19:53.842Z</time></trkpt><trkpt lat="35.0158032" lon="10.7439243"><ele>125.66666666666666</ele><time>2026-04-25T11:19:54.83Z</time></trkpt><trkpt lat="35.0156087" lon="10.7439523"><ele>125.0</ele><time>2026-04-25T11:19:55.835Z</time></trkpt><trkpt lat="35.015411" lon="10.7439836"><ele>125.0</ele><time>2026-04-25T11:19:56.835Z</time></trkpt><trkpt lat="35.0152145" lon="10.7440149"><ele>125.0</ele><time>2026-04-25T11:19:57.85Z</time></trkpt><trkpt lat="35.0150172" lon="10.744049"><ele>125.0</ele><time>2026-04-25T11:19:58.839Z</time></trkpt><trkpt lat="35.0148227" lon="10.744089"><ele>125.66666666666666</ele><time>2026-04-25T11:19:59.843Z</time></trkpt><trkpt lat="35.0146268" lon="10.7441233"><ele>126.33333333333334</ele><time>2026-04-25T11:20:00.832Z</time></trkpt><trkpt lat="35.0144303" lon="10.744157"><ele>127.0</ele><time>2026-04-25T11:20:01.833Z</time></trkpt><trkpt lat="35.0142338" lon="10.744188"><ele>126.33333333333334</ele><time>2026-04-25T11:20:02.831Z</time></trkpt><trkpt lat="35.0140367" lon="10.7442205"><ele>125.66666666666666</ele><time>2026-04-25T11:20:03.835Z</time></trkpt><trkpt lat="35.0138408" lon="10.7442593"><ele>125.0</ele><time>2026-04-25T11:20:04.837Z</time></trkpt><trkpt lat="35.0136416" lon="10.7442959"><ele>125.0</ele><time>2026-04-25T11:20:05.826Z</time></trkpt><trkpt lat="35.0134408" lon="10.7443269"><ele>125.0</ele><time>2026-04-25T11:20:06.841Z</time></trkpt><trkpt lat="35.0132393" lon="10.7443635"><ele>125.0</ele><time>2026-04-25T11:20:07.842Z</time></trkpt><trkpt lat="35.0130441" lon="10.7444049"><ele>124.66666666666666</ele><time>2026-04-25T11:20:08.83Z</time></trkpt><trkpt lat="35.0128522" lon="10.7444598"><ele>124.33333333333334</ele><time>2026-04-25T11:20:09.835Z</time></trkpt><trkpt lat="35.0126623" lon="10.7445271"><ele>124.0</ele><time>2026-04-25T11:20:10.843Z</time></trkpt><trkpt lat="35.0124738" lon="10.7446051"><ele>122.0</ele><time>2026-04-25T11:20:11.83Z</time></trkpt><trkpt lat="35.0122924" lon="10.7446893"><ele>120.0</ele><time>2026-04-25T11:20:12.832Z</time></trkpt><trkpt lat="35.0121075" lon="10.7447805"><ele>118.0</ele><time>2026-04-25T11:20:13.829Z</time></trkpt><trkpt lat="35.0119237" lon="10.7448724"><ele>118.0</ele><time>2026-04-25T11:20:14.831Z</time></trkpt><trkpt lat="35.0117409" lon="10.7449635"><ele>118.0</ele><time>2026-04-25T11:20:15.841Z</time></trkpt><trkpt lat="35.0115556" lon="10.7450549"><ele>118.0</ele><time>2026-04-25T11:20:16.835Z</time></trkpt><trkpt lat="35.011374" lon="10.7451482"><ele>117.33333333333334</ele><time>2026-04-25T11:20:17.834Z</time></trkpt><trkpt lat="35.0111917" lon="10.7452327"><ele>116.66666666666666</ele><time>2026-04-25T11:20:18.836Z</time></trkpt><trkpt lat="35.0110073" lon="10.7453219"><ele>116.0</ele><time>2026-04-25T11:20:19.832Z</time></trkpt><trkpt lat="35.0108237" lon="10.7454077"><ele>115.66666666666666</ele><time>2026-04-25T11:20:20.83Z</time></trkpt><trkpt lat="35.0106406" lon="10.7454927"><ele>115.33333333333334</ele><time>2026-04-25T11:20:21.83Z</time></trkpt><trkpt lat="35.0104548" lon="10.7455803"><ele>115.0</ele><time>2026-04-25T11:20:22.836Z</time></trkpt><trkpt lat="35.0102719" lon="10.745665"><ele>115.0</ele><time>2026-04-25T11:20:23.837Z</time></trkpt><trkpt lat="35.0100853" lon="10.7457527"><ele>115.0</ele><time>2026-04-25T11:20:24.832Z</time></trkpt><trkpt lat="35.0099029" lon="10.7458419"><ele>115.0</ele><time>2026-04-25T11:20:25.84Z</time></trkpt><trkpt lat="35.0097192" lon="10.7459298"><ele>114.66666666666667</ele><time>2026-04-25T11:20:26.838Z</time></trkpt><trkpt lat="35.0095363" lon="10.7460148"><ele>114.33333333333334</ele><time>2026-04-25T11:20:27.841Z</time></trkpt><trkpt lat="35.0093533" lon="10.7461014"><ele>114.0</ele><time>2026-04-25T11:20:28.834Z</time></trkpt><trkpt lat="35.0091699" lon="10.7461927"><ele>112.66666666666666</ele><time>2026-04-25T11:20:29.841Z</time></trkpt><trkpt lat="35.0089886" lon="10.7462825"><ele>111.33333333333333</ele><time>2026-04-25T11:20:30.842Z</time></trkpt><trkpt lat="35.0088059" lon="10.7463749"><ele>110.0</ele><time>2026-04-25T11:20:31.839Z</time></trkpt><trkpt lat="35.0086222" lon="10.7464654"><ele>110.0</ele><time>2026-04-25T11:20:32.839Z</time></trkpt><trkpt lat="35.0084364" lon="10.746555"><ele>110.0</ele><time>2026-04-25T11:20:33.844Z</time></trkpt><trkpt lat="35.0082495" lon="10.7466434"><ele>110.0</ele><time>2026-04-25T11:20:34.838Z</time></trkpt><trkpt lat="35.0080624" lon="10.7467296"><ele>110.0</ele><time>2026-04-25T11:20:35.844Z</time></trkpt><trkpt lat="35.0078806" lon="10.7468136"><ele>110.0</ele><time>2026-04-25T11:20:36.834Z</time></trkpt><trkpt lat="35.0076985" lon="10.7468975"><ele>110.0</ele><time>2026-04-25T11:20:37.838Z</time></trkpt><trkpt lat="35.0075148" lon="10.7469846"><ele>109.33333333333333</ele><time>2026-04-25T11:20:38.835Z</time></trkpt><trkpt lat="35.0073324" lon="10.7470739"><ele>108.66666666666666</ele><time>2026-04-25T11:20:39.837Z</time></trkpt><trkpt lat="35.0071468" lon="10.7471633"><ele>108.0</ele><time>2026-04-25T11:20:40.839Z</time></trkpt><trkpt lat="35.0069612" lon="10.7472514"><ele>108.0</ele><time>2026-04-25T11:20:41.84Z</time></trkpt><trkpt lat="35.0067746" lon="10.74734"><ele>108.0</ele><time>2026-04-25T11:20:42.84Z</time></trkpt><trkpt lat="35.0065902" lon="10.7474306"><ele>108.0</ele><time>2026-04-25T11:20:43.836Z</time></trkpt><trkpt lat="35.0064071" lon="10.7475178"><ele>108.0</ele><time>2026-04-25T11:20:44.839Z</time></trkpt><trkpt lat="35.0062246" lon="10.7476047"><ele>108.0</ele><time>2026-04-25T11:20:45.837Z</time></trkpt><trkpt lat="35.0060455" lon="10.7476932"><ele>108.0</ele><time>2026-04-25T11:20:46.839Z</time></trkpt><trkpt lat="35.0058598" lon="10.7477772"><ele>108.66666666666666</ele><time>2026-04-25T11:20:47.836Z</time></trkpt><trkpt lat="35.0056789" lon="10.7478684"><ele>109.33333333333333</ele><time>2026-04-25T11:20:48.838Z</time></trkpt><trkpt lat="35.0054947" lon="10.747956"><ele>110.0</ele><time>2026-04-25T11:20:49.844Z</time></trkpt><trkpt lat="35.0053108" lon="10.7480444"><ele>110.0</ele><time>2026-04-25T11:20:50.841Z</time></trkpt><trkpt lat="35.0051223" lon="10.748131"><ele>110.0</ele><time>2026-04-25T11:20:51.83Z</time></trkpt><trkpt lat="35.0049333" lon="10.7482095"><ele>110.0</ele><time>2026-04-25T11:20:52.846Z</time></trkpt><trkpt lat="35.004741" lon="10.7482849"><ele>108.33333333333333</ele><time>2026-04-25T11:20:53.835Z</time></trkpt><trkpt lat="35.0045525" lon="10.748352"><ele>106.66666666666666</ele><time>2026-04-25T11:20:54.855Z</time></trkpt><trkpt lat="35.0043585" lon="10.7484122"><ele>105.0</ele><time>2026-04-25T11:20:55.833Z</time></trkpt><trkpt lat="35.0041658" lon="10.7484671"><ele>104.33333333333334</ele><time>2026-04-25T11:20:56.833Z</time></trkpt><trkpt lat="35.0039706" lon="10.7485108"><ele>103.66666666666667</ele><time>2026-04-25T11:20:57.826Z</time></trkpt><trkpt lat="35.0037761" lon="10.7485605"><ele>103.0</ele><time>2026-04-25T11:20:58.833Z</time></trkpt><trkpt lat="35.0035828" lon="10.7486074"><ele>103.0</ele><time>2026-04-25T11:20:59.842Z</time></trkpt><trkpt lat="35.0033924" lon="10.7486521"><ele>103.0</ele><time>2026-04-25T11:21:00.832Z</time></trkpt><trkpt lat="35.0031991" lon="10.7486953"><ele>103.0</ele><time>2026-04-25T11:21:01.833Z</time></trkpt><trkpt lat="35.0030059" lon="10.7487401"><ele>102.33333333333334</ele><time>2026-04-25T11:21:02.834Z</time></trkpt><trkpt lat="35.0028106" lon="10.7487813"><ele>101.66666666666666</ele><time>2026-04-25T11:21:03.839Z</time></trkpt><trkpt lat="35.0026149" lon="10.7488205"><ele>101.0</ele><time>2026-04-25T11:21:04.833Z</time></trkpt><trkpt lat="35.0024205" lon="10.7488656"><ele>101.0</ele><time>2026-04-25T11:21:05.83Z</time></trkpt><trkpt lat="35.0022247" lon="10.7489078"><ele>101.0</ele><time>2026-04-25T11:21:06.839Z</time></trkpt><trkpt lat="35.0020268" lon="10.7489521"><ele>101.0</ele><time>2026-04-25T11:21:07.838Z</time></trkpt><trkpt lat="35.0018311" lon="10.7489893"><ele>101.0</ele><time>2026-04-25T11:21:08.83Z</time></trkpt><trkpt lat="35.0016342" lon="10.7490323"><ele>101.0</ele><time>2026-04-25T11:21:09.839Z</time></trkpt><trkpt lat="35.0014428" lon="10.7490754"><ele>101.0</ele><time>2026-04-25T11:21:10.842Z</time></trkpt><trkpt lat="35.00125" lon="10.7491219"><ele>101.0</ele><time>2026-04-25T11:21:11.827Z</time></trkpt><trkpt lat="35.0010578" lon="10.7491702"><ele>101.0</ele><time>2026-04-25T11:21:12.84Z</time></trkpt><trkpt lat="35.0008616" lon="10.7492094"><ele>101.0</ele><time>2026-04-25T11:21:13.841Z</time></trkpt><trkpt lat="35.0006672" lon="10.7492469"><ele>100.0</ele><time>2026-04-25T11:21:14.836Z</time></trkpt><trkpt lat="35.0004703" lon="10.7492711"><ele>99.0</ele><time>2026-04-25T11:21:15.841Z</time></trkpt><trkpt lat="35.000276" lon="10.7492884"><ele>98.0</ele><time>2026-04-25T11:21:16.831Z</time></trkpt><trkpt lat="35.0000783" lon="10.7492967"><ele>98.0</ele><time>2026-04-25T11:21:17.824Z</time></trkpt><trkpt lat="34.9998816" lon="10.7492928"><ele>98.0</ele><time>2026-04-25T11:21:18.831Z</time></trkpt><trkpt lat="34.9996843" lon="10.7492825"><ele>98.0</ele><time>2026-04-25T11:21:19.838Z</time></trkpt><trkpt lat="34.999486" lon="10.7492659"><ele>98.0</ele><time>2026-04-25T11:21:20.836Z</time></trkpt><trkpt lat="34.9992908" lon="10.7492457"><ele>98.0</ele><time>2026-04-25T11:21:21.835Z</time></trkpt><trkpt lat="34.9990932" lon="10.7492277"><ele>98.0</ele><time>2026-04-25T11:21:22.84Z</time></trkpt><trkpt lat="34.9988961" lon="10.7492123"><ele>97.66666666666666</ele><time>2026-04-25T11:21:23.834Z</time></trkpt><trkpt lat="34.9987007" lon="10.7491938"><ele>97.33333333333334</ele><time>2026-04-25T11:21:24.837Z</time></trkpt><trkpt lat="34.9985043" lon="10.7491768"><ele>97.0</ele><time>2026-04-25T11:21:25.842Z</time></trkpt><trkpt lat="34.9983071" lon="10.7491601"><ele>96.66666666666667</ele><time>2026-04-25T11:21:26.838Z</time></trkpt><trkpt lat="34.9981134" lon="10.7491476"><ele>96.33333333333334</ele><time>2026-04-25T11:21:27.837Z</time></trkpt><trkpt lat="34.9979177" lon="10.749132"><ele>96.0</ele><time>2026-04-25T11:21:28.83Z</time></trkpt><trkpt lat="34.9977219" lon="10.7491172"><ele>96.0</ele><time>2026-04-25T11:21:29.839Z</time></trkpt><trkpt lat="34.9975224" lon="10.7490983"><ele>96.0</ele><time>2026-04-25T11:21:30.839Z</time></trkpt><trkpt lat="34.9973297" lon="10.7490803"><ele>96.0</ele><time>2026-04-25T11:21:31.842Z</time></trkpt><trkpt lat="34.9971315" lon="10.7490598"><ele>95.66666666666667</ele><time>2026-04-25T11:21:32.832Z</time></trkpt><trkpt lat="34.9969365" lon="10.7490454"><ele>95.33333333333334</ele><time>2026-04-25T11:21:33.84Z</time></trkpt><trkpt lat="34.9967398" lon="10.7490331"><ele>95.0</ele><time>2026-04-25T11:21:34.841Z</time></trkpt><trkpt lat="34.9965417" lon="10.7490219"><ele>94.33333333333334</ele><time>2026-04-25T11:21:35.833Z</time></trkpt><trkpt lat="34.9963429" lon="10.7490077"><ele>93.66666666666667</ele><time>2026-04-25T11:21:36.844Z</time></trkpt><trkpt lat="34.9961447" lon="10.748995"><ele>93.0</ele><time>2026-04-25T11:21:37.837Z</time></trkpt><trkpt lat="34.9959427" lon="10.7489934"><ele>93.33333333333333</ele><time>2026-04-25T11:21:38.835Z</time></trkpt><trkpt lat="34.9957482" lon="10.7489978"><ele>93.66666666666666</ele><time>2026-04-25T11:21:39.841Z</time></trkpt><trkpt lat="34.9955477" lon="10.7490098"><ele>94.0</ele><time>2026-04-25T11:21:40.836Z</time></trkpt><trkpt lat="34.9953494" lon="10.7490303"><ele>94.0</ele><time>2026-04-25T11:21:41.832Z</time></trkpt><trkpt lat="34.9951505" lon="10.7490572"><ele>94.0</ele><time>2026-04-25T11:21:42.838Z</time></trkpt><trkpt lat="34.9949518" lon="10.7490873"><ele>94.0</ele><time>2026-04-25T11:21:43.83Z</time></trkpt><trkpt lat="34.9947549" lon="10.7491274"><ele>94.66666666666666</ele><time>2026-04-25T11:21:44.838Z</time></trkpt><trkpt lat="34.9945646" lon="10.7491763"><ele>95.33333333333333</ele><time>2026-04-25T11:21:45.829Z</time></trkpt><trkpt lat="34.9943728" lon="10.7492272"><ele>96.0</ele><time>2026-04-25T11:21:46.836Z</time></trkpt><trkpt lat="34.9941828" lon="10.7492813"><ele>95.0</ele><time>2026-04-25T11:21:47.833Z</time></trkpt><trkpt lat="34.9939894" lon="10.7493415"><ele>94.0</ele><time>2026-04-25T11:21:48.844Z</time></trkpt><trkpt lat="34.9937965" lon="10.7493981"><ele>93.0</ele><time>2026-04-25T11:21:49.831Z</time></trkpt><trkpt lat="34.9936055" lon="10.7494569"><ele>93.0</ele><time>2026-04-25T11:21:50.832Z</time></trkpt><trkpt lat="34.993414" lon="10.7495082"><ele>93.0</ele><time>2026-04-25T11:21:51.835Z</time></trkpt><trkpt lat="34.9932219" lon="10.7495629"><ele>93.0</ele><time>2026-04-25T11:21:52.846Z</time></trkpt><trkpt lat="34.9930308" lon="10.7496137"><ele>94.33333333333334</ele><time>2026-04-25T11:21:53.838Z</time></trkpt><trkpt lat="34.9928378" lon="10.7496554"><ele>95.66666666666667</ele><time>2026-04-25T11:21:54.834Z</time></trkpt><trkpt lat="34.9926472" lon="10.7496864"><ele>97.0</ele><time>2026-04-25T11:21:55.832Z</time></trkpt><trkpt lat="34.9924743" lon="10.7497104"><ele>97.33333333333334</ele><time>2026-04-25T11:21:56.833Z</time></trkpt><trkpt lat="34.992305" lon="10.7497288"><ele>97.66666666666666</ele><time>2026-04-25T11:21:57.842Z</time></trkpt><trkpt lat="34.9921381" lon="10.7497376"><ele>98.0</ele><time>2026-04-25T11:21:58.835Z</time></trkpt><trkpt lat="34.9919683" lon="10.7497373"><ele>98.0</ele><time>2026-04-25T11:21:59.84Z</time></trkpt><trkpt lat="34.9917947" lon="10.749738"><ele>98.0</ele><time>2026-04-25T11:22:00.833Z</time></trkpt><trkpt lat="34.9916173" lon="10.7497373"><ele>98.0</ele><time>2026-04-25T11:22:01.839Z</time></trkpt><trkpt lat="34.9914293" lon="10.7497311"><ele>98.0</ele><time>2026-04-25T11:22:02.838Z</time></trkpt><trkpt lat="34.9912359" lon="10.749715"><ele>98.0</ele><time>2026-04-25T11:22:03.83Z</time></trkpt><trkpt lat="34.9910356" lon="10.7496917"><ele>98.0</ele><time>2026-04-25T11:22:04.844Z</time></trkpt><trkpt lat="34.9908328" lon="10.7496648"><ele>98.0</ele><time>2026-04-25T11:22:05.841Z</time></trkpt><trkpt lat="34.9906256" lon="10.7496312"><ele>98.0</ele><time>2026-04-25T11:22:06.844Z</time></trkpt><trkpt lat="34.990415" lon="10.7495995"><ele>98.0</ele><time>2026-04-25T11:22:07.832Z</time></trkpt><trkpt lat="34.9902042" lon="10.7495645"><ele>98.33333333333333</ele><time>2026-04-25T11:22:08.837Z</time></trkpt><trkpt lat="34.9899962" lon="10.7495159"><ele>98.66666666666666</ele><time>2026-04-25T11:22:09.837Z</time></trkpt><trkpt lat="34.9897864" lon="10.7494566"><ele>99.0</ele><time>2026-04-25T11:22:10.839Z</time></trkpt><trkpt lat="34.9895751" lon="10.7493965"><ele>99.0</ele><time>2026-04-25T11:22:11.836Z</time></trkpt><trkpt lat="34.989363" lon="10.7493287"><ele>99.0</ele><time>2026-04-25T11:22:12.841Z</time></trkpt><trkpt lat="34.9891503" lon="10.7492471"><ele>99.0</ele><time>2026-04-25T11:22:13.827Z</time></trkpt><trkpt lat="34.9889413" lon="10.7491569"><ele>99.0</ele><time>2026-04-25T11:22:14.838Z</time></trkpt><trkpt lat="34.9887338" lon="10.7490626"><ele>99.0</ele><time>2026-04-25T11:22:15.841Z</time></trkpt><trkpt lat="34.9885237" lon="10.748971"><ele>99.0</ele><time>2026-04-25T11:22:16.833Z</time></trkpt><trkpt lat="34.9883148" lon="10.7488828"><ele>100.33333333333334</ele><time>2026-04-25T11:22:17.835Z</time></trkpt><trkpt lat="34.9881119" lon="10.7487967"><ele>101.66666666666667</ele><time>2026-04-25T11:22:18.842Z</time></trkpt><trkpt lat="34.9879109" lon="10.7487116"><ele>103.0</ele><time>2026-04-25T11:22:19.832Z</time></trkpt><trkpt lat="34.9877139" lon="10.7486326"><ele>103.0</ele><time>2026-04-25T11:22:20.84Z</time></trkpt><trkpt lat="34.9875212" lon="10.7485575"><ele>103.0</ele><time>2026-04-25T11:22:21.836Z</time></trkpt><trkpt lat="34.9873277" lon="10.7484832"><ele>103.0</ele><time>2026-04-25T11:22:22.832Z</time></trkpt><trkpt lat="34.9871379" lon="10.7484083"><ele>104.33333333333334</ele><time>2026-04-25T11:22:23.836Z</time></trkpt><trkpt lat="34.9869483" lon="10.7483356"><ele>105.66666666666666</ele><time>2026-04-25T11:22:24.835Z</time></trkpt><trkpt lat="34.9867616" lon="10.7482693"><ele>107.0</ele><time>2026-04-25T11:22:25.831Z</time></trkpt><trkpt lat="34.9865745" lon="10.7482037"><ele>107.0</ele><time>2026-04-25T11:22:26.835Z</time></trkpt><trkpt lat="34.9863867" lon="10.7481432"><ele>107.0</ele><time>2026-04-25T11:22:27.841Z</time></trkpt><trkpt lat="34.9861973" lon="10.7480874"><ele>107.0</ele><time>2026-04-25T11:22:28.838Z</time></trkpt><trkpt lat="34.9860065" lon="10.7480355"><ele>108.0</ele><time>2026-04-25T11:22:29.839Z</time></trkpt><trkpt lat="34.9858075" lon="10.7479929"><ele>109.0</ele><time>2026-04-25T11:22:30.836Z</time></trkpt><trkpt lat="34.9856093" lon="10.747949"><ele>110.0</ele><time>2026-04-25T11:22:31.838Z</time></trkpt><trkpt lat="34.98541" lon="10.7479063"><ele>110.0</ele><time>2026-04-25T11:22:32.829Z</time></trkpt><trkpt lat="34.9852105" lon="10.7478655"><ele>110.0</ele><time>2026-04-25T11:22:33.839Z</time></trkpt><trkpt lat="34.9850073" lon="10.7478222"><ele>110.0</ele><time>2026-04-25T11:22:34.841Z</time></trkpt><trkpt lat="34.9848085" lon="10.7477742"><ele>110.0</ele><time>2026-04-25T11:22:35.831Z</time></trkpt><trkpt lat="34.9846066" lon="10.7477303"><ele>110.0</ele><time>2026-04-25T11:22:36.84Z</time></trkpt><trkpt lat="34.9844028" lon="10.7476849"><ele>110.0</ele><time>2026-04-25T11:22:37.833Z</time></trkpt><trkpt lat="34.9842031" lon="10.7476355"><ele>108.33333333333333</ele><time>2026-04-25T11:22:38.831Z</time></trkpt><trkpt lat="34.984003" lon="10.7475917"><ele>106.66666666666666</ele><time>2026-04-25T11:22:39.84Z</time></trkpt><trkpt lat="34.9838008" lon="10.7475511"><ele>105.0</ele><time>2026-04-25T11:22:40.837Z</time></trkpt><trkpt lat="34.9835948" lon="10.7475068"><ele>105.0</ele><time>2026-04-25T11:22:41.836Z</time></trkpt><trkpt lat="34.9833857" lon="10.747464"><ele>105.0</ele><time>2026-04-25T11:22:42.834Z</time></trkpt><trkpt lat="34.9831709" lon="10.7474185"><ele>105.0</ele><time>2026-04-25T11:22:43.834Z</time></trkpt><trkpt lat="34.9829586" lon="10.7473693"><ele>103.66666666666666</ele><time>2026-04-25T11:22:44.837Z</time></trkpt><trkpt lat="34.9827429" lon="10.7473236"><ele>102.33333333333333</ele><time>2026-04-25T11:22:45.841Z</time></trkpt><trkpt lat="34.9825244" lon="10.7472756"><ele>101.0</ele><time>2026-04-25T11:22:46.828Z</time></trkpt><trkpt lat="34.9823059" lon="10.7472274"><ele>100.66666666666666</ele><time>2026-04-25T11:22:47.833Z</time></trkpt><trkpt lat="34.9820901" lon="10.7471782"><ele>100.33333333333334</ele><time>2026-04-25T11:22:48.865Z</time></trkpt><trkpt lat="34.9818733" lon="10.7471326"><ele>100.0</ele><time>2026-04-25T11:22:49.831Z</time></trkpt><trkpt lat="34.9816651" lon="10.7470881"><ele>100.0</ele><time>2026-04-25T11:22:50.84Z</time></trkpt><trkpt lat="34.9814586" lon="10.7470442"><ele>100.0</ele><time>2026-04-25T11:22:51.845Z</time></trkpt><trkpt lat="34.9812564" lon="10.746996"><ele>100.0</ele><time>2026-04-25T11:22:52.843Z</time></trkpt><trkpt lat="34.9810569" lon="10.7469499"><ele>100.0</ele><time>2026-04-25T11:22:53.835Z</time></trkpt><trkpt lat="34.9808596" lon="10.7469058"><ele>100.0</ele><time>2026-04-25T11:22:54.841Z</time></trkpt><trkpt lat="34.9806575" lon="10.7468634"><ele>100.0</ele><time>2026-04-25T11:22:55.844Z</time></trkpt><trkpt lat="34.9804545" lon="10.7468219"><ele>101.33333333333334</ele><time>2026-04-25T11:22:56.839Z</time></trkpt><trkpt lat="34.9802533" lon="10.7467779"><ele>102.66666666666666</ele><time>2026-04-25T11:22:57.838Z</time></trkpt><trkpt lat="34.9800535" lon="10.7467389"><ele>104.0</ele><time>2026-04-25T11:22:58.835Z</time></trkpt><trkpt lat="34.979849" lon="10.7467002"><ele>104.0</ele><time>2026-04-25T11:22:59.84Z</time></trkpt><trkpt lat="34.979651" lon="10.746665"><ele>104.0</ele><time>2026-04-25T11:23:00.828Z</time></trkpt><trkpt lat="34.9794534" lon="10.7466292"><ele>104.0</ele><time>2026-04-25T11:23:01.834Z</time></trkpt><trkpt lat="34.9792564" lon="10.7465915"><ele>104.0</ele><time>2026-04-25T11:23:02.829Z</time></trkpt><trkpt lat="34.9790585" lon="10.7465529"><ele>104.0</ele><time>2026-04-25T11:23:03.836Z</time></trkpt><trkpt lat="34.9788589" lon="10.7465078"><ele>104.0</ele><time>2026-04-25T11:23:04.829Z</time></trkpt><trkpt lat="34.9786595" lon="10.746448"><ele>104.0</ele><time>2026-04-25T11:23:05.837Z</time></trkpt><trkpt lat="34.9784609" lon="10.7463764"><ele>104.0</ele><time>2026-04-25T11:23:06.843Z</time></trkpt><trkpt lat="34.9782616" lon="10.7462957"><ele>104.0</ele><time>2026-04-25T11:23:07.838Z</time></trkpt><trkpt lat="34.97807" lon="10.7462007"><ele>103.66666666666666</ele><time>2026-04-25T11:23:08.837Z</time></trkpt><trkpt lat="34.9778804" lon="10.7461066"><ele>103.33333333333334</ele><time>2026-04-25T11:23:09.842Z</time></trkpt><trkpt lat="34.9776925" lon="10.7460147"><ele>103.0</ele><time>2026-04-25T11:23:10.836Z</time></trkpt><trkpt lat="34.9775083" lon="10.7459251"><ele>104.0</ele><time>2026-04-25T11:23:11.836Z</time></trkpt><trkpt lat="34.9773231" lon="10.7458337"><ele>105.0</ele><time>2026-04-25T11:23:12.844Z</time></trkpt><trkpt lat="34.9771379" lon="10.7457383"><ele>106.0</ele><time>2026-04-25T11:23:13.843Z</time></trkpt><trkpt lat="34.9769519" lon="10.7456467"><ele>106.0</ele><time>2026-04-25T11:23:14.847Z</time></trkpt><trkpt lat="34.9767607" lon="10.7455531"><ele>106.0</ele><time>2026-04-25T11:23:15.834Z</time></trkpt><trkpt lat="34.9765658" lon="10.7454593"><ele>106.0</ele><time>2026-04-25T11:23:16.838Z</time></trkpt><trkpt lat="34.9763734" lon="10.7453662"><ele>106.0</ele><time>2026-04-25T11:23:17.835Z</time></trkpt><trkpt lat="34.9761768" lon="10.7452788"><ele>106.0</ele><time>2026-04-25T11:23:18.838Z</time></trkpt><trkpt lat="34.975975" lon="10.7451956"><ele>106.0</ele><time>2026-04-25T11:23:19.839Z</time></trkpt><trkpt lat="34.9757741" lon="10.7451137"><ele>105.0</ele><time>2026-04-25T11:23:20.833Z</time></trkpt><trkpt lat="34.975568" lon="10.7450391"><ele>104.0</ele><time>2026-04-25T11:23:21.843Z</time></trkpt><trkpt lat="34.975364" lon="10.7449662"><ele>103.0</ele><time>2026-04-25T11:23:22.826Z</time></trkpt><trkpt lat="34.9751571" lon="10.7448977"><ele>103.0</ele><time>2026-04-25T11:23:23.836Z</time></trkpt><trkpt lat="34.9749537" lon="10.7448281"><ele>103.0</ele><time>2026-04-25T11:23:24.839Z</time></trkpt><trkpt lat="34.9747461" lon="10.7447669"><ele>103.0</ele><time>2026-04-25T11:23:25.834Z</time></trkpt><trkpt lat="34.9745355" lon="10.744713"><ele>103.0</ele><time>2026-04-25T11:23:26.828Z</time></trkpt><trkpt lat="34.9743321" lon="10.7446646"><ele>103.0</ele><time>2026-04-25T11:23:27.839Z</time></trkpt><trkpt lat="34.9741272" lon="10.7446204"><ele>103.0</ele><time>2026-04-25T11:23:28.831Z</time></trkpt><trkpt lat="34.9739215" lon="10.7445799"><ele>102.0</ele><time>2026-04-25T11:23:29.838Z</time></trkpt><trkpt lat="34.9737149" lon="10.7445445"><ele>101.0</ele><time>2026-04-25T11:23:30.845Z</time></trkpt><trkpt lat="34.973508" lon="10.744514"><ele>100.0</ele><time>2026-04-25T11:23:31.835Z</time></trkpt><trkpt lat="34.9733005" lon="10.7444873"><ele>99.33333333333334</ele><time>2026-04-25T11:23:32.833Z</time></trkpt><trkpt lat="34.9730931" lon="10.7444681"><ele>98.66666666666666</ele><time>2026-04-25T11:23:33.839Z</time></trkpt><trkpt lat="34.9728866" lon="10.7444483"><ele>98.0</ele><time>2026-04-25T11:23:34.841Z</time></trkpt><trkpt lat="34.9726842" lon="10.7444315"><ele>97.0</ele><time>2026-04-25T11:23:35.826Z</time></trkpt><trkpt lat="34.9724771" lon="10.7444236"><ele>96.0</ele><time>2026-04-25T11:23:36.835Z</time></trkpt><trkpt lat="34.9722749" lon="10.7444209"><ele>95.0</ele><time>2026-04-25T11:23:37.841Z</time></trkpt><trkpt lat="34.9720736" lon="10.744423"><ele>95.0</ele><time>2026-04-25T11:23:38.83Z</time></trkpt><trkpt lat="34.9718742" lon="10.7444292"><ele>95.0</ele><time>2026-04-25T11:23:39.843Z</time></trkpt><trkpt lat="34.9716757" lon="10.7444375"><ele>95.0</ele><time>2026-04-25T11:23:40.84Z</time></trkpt><trkpt lat="34.9714802" lon="10.7444483"><ele>95.0</ele><time>2026-04-25T11:23:41.84Z</time></trkpt><trkpt lat="34.9712842" lon="10.7444595"><ele>95.0</ele><time>2026-04-25T11:23:42.834Z</time></trkpt><trkpt lat="34.9710909" lon="10.7444708"><ele>95.0</ele><time>2026-04-25T11:23:43.832Z</time></trkpt><trkpt lat="34.9708994" lon="10.7444846"><ele>94.0</ele><time>2026-04-25T11:23:44.833Z</time></trkpt><trkpt lat="34.9707075" lon="10.7444945"><ele>93.0</ele><time>2026-04-25T11:23:45.83Z</time></trkpt><trkpt lat="34.9705187" lon="10.7445051"><ele>92.0</ele><time>2026-04-25T11:23:46.834Z</time></trkpt><trkpt lat="34.9703293" lon="10.7445189"><ele>92.0</ele><time>2026-04-25T11:23:47.837Z</time></trkpt><trkpt lat="34.9701392" lon="10.7445306"><ele>92.0</ele><time>2026-04-25T11:23:48.833Z</time></trkpt><trkpt lat="34.9699523" lon="10.7445422"><ele>92.0</ele><time>2026-04-25T11:23:49.828Z</time></trkpt><trkpt lat="34.9697662" lon="10.7445537"><ele>91.66666666666667</ele><time>2026-04-25T11:23:50.877Z</time></trkpt><trkpt lat="34.9695814" lon="10.7445635"><ele>91.33333333333333</ele><time>2026-04-25T11:23:51.831Z</time></trkpt><trkpt lat="34.9693984" lon="10.7445721"><ele>91.0</ele><time>2026-04-25T11:23:52.839Z</time></trkpt><trkpt lat="34.9692155" lon="10.7445846"><ele>91.33333333333333</ele><time>2026-04-25T11:23:53.829Z</time></trkpt><trkpt lat="34.9690341" lon="10.7445968"><ele>91.66666666666667</ele><time>2026-04-25T11:23:54.837Z</time></trkpt><trkpt lat="34.9688536" lon="10.7446094"><ele>92.0</ele><time>2026-04-25T11:23:55.837Z</time></trkpt><trkpt lat="34.9686751" lon="10.74462"><ele>92.0</ele><time>2026-04-25T11:23:56.838Z</time></trkpt><trkpt lat="34.9684894" lon="10.7446303"><ele>92.0</ele><time>2026-04-25T11:23:57.838Z</time></trkpt><trkpt lat="34.9682979" lon="10.7446396"><ele>92.0</ele><time>2026-04-25T11:23:58.832Z</time></trkpt><trkpt lat="34.9681046" lon="10.7446488"><ele>92.33333333333334</ele><time>2026-04-25T11:23:59.832Z</time></trkpt><trkpt lat="34.9679099" lon="10.7446598"><ele>92.66666666666667</ele><time>2026-04-25T11:24:00.83Z</time></trkpt><trkpt lat="34.9677176" lon="10.7446693"><ele>93.0</ele><time>2026-04-25T11:24:01.826Z</time></trkpt><trkpt lat="34.9675194" lon="10.7446809"><ele>93.66666666666667</ele><time>2026-04-25T11:24:02.84Z</time></trkpt><trkpt lat="34.9673267" lon="10.7446945"><ele>94.33333333333334</ele><time>2026-04-25T11:24:03.832Z</time></trkpt><trkpt lat="34.9671295" lon="10.744707"><ele>95.0</ele><time>2026-04-25T11:24:04.834Z</time></trkpt><trkpt lat="34.9669367" lon="10.7447212"><ele>95.0</ele><time>2026-04-25T11:24:05.839Z</time></trkpt><trkpt lat="34.9667438" lon="10.7447329"><ele>95.0</ele><time>2026-04-25T11:24:06.829Z</time></trkpt><trkpt lat="34.9665503" lon="10.7447446"><ele>95.0</ele><time>2026-04-25T11:24:07.831Z</time></trkpt><trkpt lat="34.9663566" lon="10.7447572"><ele>95.33333333333334</ele><time>2026-04-25T11:24:08.84Z</time></trkpt><trkpt lat="34.9661616" lon="10.7447707"><ele>95.66666666666667</ele><time>2026-04-25T11:24:09.838Z</time></trkpt><trkpt lat="34.9659634" lon="10.7447801"><ele>96.0</ele><time>2026-04-25T11:24:10.84Z</time></trkpt><trkpt lat="34.9657643" lon="10.7447912"><ele>95.33333333333333</ele><time>2026-04-25T11:24:11.837Z</time></trkpt><trkpt lat="34.9655649" lon="10.7447994"><ele>94.66666666666666</ele><time>2026-04-25T11:24:12.839Z</time></trkpt><trkpt lat="34.9653659" lon="10.7448093"><ele>94.0</ele><time>2026-04-25T11:24:13.84Z</time></trkpt><trkpt lat="34.9651639" lon="10.744818"><ele>93.0</ele><time>2026-04-25T11:24:14.832Z</time></trkpt><trkpt lat="34.9649593" lon="10.7448341"><ele>92.0</ele><time>2026-04-25T11:24:15.841Z</time></trkpt><trkpt lat="34.9647526" lon="10.7448463"><ele>91.0</ele><time>2026-04-25T11:24:16.834Z</time></trkpt><trkpt lat="34.9645495" lon="10.7448565"><ele>91.0</ele><time>2026-04-25T11:24:17.837Z</time></trkpt><trkpt lat="34.9643479" lon="10.7448685"><ele>91.0</ele><time>2026-04-25T11:24:18.829Z</time></trkpt><trkpt lat="34.9641486" lon="10.7448806"><ele>91.0</ele><time>2026-04-25T11:24:19.827Z</time></trkpt><trkpt lat="34.9639515" lon="10.7448944"><ele>91.0</ele><time>2026-04-25T11:24:20.841Z</time></trkpt><trkpt lat="34.963758" lon="10.7449074"><ele>91.0</ele><time>2026-04-25T11:24:21.835Z</time></trkpt><trkpt lat="34.9635629" lon="10.7449178"><ele>91.0</ele><time>2026-04-25T11:24:22.832Z</time></trkpt><trkpt lat="34.9633674" lon="10.7449296"><ele>91.66666666666666</ele><time>2026-04-25T11:24:23.831Z</time></trkpt><trkpt lat="34.9631763" lon="10.7449425"><ele>92.33333333333333</ele><time>2026-04-25T11:24:24.834Z</time></trkpt><trkpt lat="34.9629842" lon="10.7449557"><ele>93.0</ele><time>2026-04-25T11:24:25.839Z</time></trkpt><trkpt lat="34.9627946" lon="10.74497"><ele>93.0</ele><time>2026-04-25T11:24:26.838Z</time></trkpt><trkpt lat="34.9626105" lon="10.7449838"><ele>93.0</ele><time>2026-04-25T11:24:27.831Z</time></trkpt><trkpt lat="34.9624301" lon="10.7449922"><ele>93.0</ele><time>2026-04-25T11:24:28.84Z</time></trkpt><trkpt lat="34.9622501" lon="10.7450004"><ele>93.0</ele><time>2026-04-25T11:24:29.836Z</time></trkpt><trkpt lat="34.9620714" lon="10.7450132"><ele>93.0</ele><time>2026-04-25T11:24:30.841Z</time></trkpt><trkpt lat="34.9618924" lon="10.745027"><ele>93.0</ele><time>2026-04-25T11:24:31.837Z</time></trkpt><trkpt lat="34.9617095" lon="10.7450421"><ele>93.33333333333333</ele><time>2026-04-25T11:24:32.828Z</time></trkpt><trkpt lat="34.9615286" lon="10.7450566"><ele>93.66666666666666</ele><time>2026-04-25T11:24:33.837Z</time></trkpt><trkpt lat="34.9613478" lon="10.7450737"><ele>94.0</ele><time>2026-04-25T11:24:34.833Z</time></trkpt><trkpt lat="34.9611646" lon="10.7450875"><ele>94.0</ele><time>2026-04-25T11:24:35.836Z</time></trkpt><trkpt lat="34.9609761" lon="10.7450979"><ele>94.0</ele><time>2026-04-25T11:24:36.838Z</time></trkpt><trkpt lat="34.9607865" lon="10.7451083"><ele>94.0</ele><time>2026-04-25T11:24:37.831Z</time></trkpt><trkpt lat="34.9605978" lon="10.7451128"><ele>94.0</ele><time>2026-04-25T11:24:38.833Z</time></trkpt><trkpt lat="34.9604037" lon="10.7451184"><ele>94.0</ele><time>2026-04-25T11:24:39.834Z</time></trkpt><trkpt lat="34.9602032" lon="10.7451213"><ele>94.0</ele><time>2026-04-25T11:24:40.84Z</time></trkpt><trkpt lat="34.9600051" lon="10.7451352"><ele>92.66666666666666</ele><time>2026-04-25T11:24:41.836Z</time></trkpt><trkpt lat="34.9598029" lon="10.7451495"><ele>91.33333333333333</ele><time>2026-04-25T11:24:42.825Z</time></trkpt><trkpt lat="34.9596003" lon="10.7451659"><ele>90.0</ele><time>2026-04-25T11:24:43.843Z</time></trkpt><trkpt lat="34.9593939" lon="10.7451762"><ele>89.33333333333333</ele><time>2026-04-25T11:24:44.839Z</time></trkpt><trkpt lat="34.9591923" lon="10.7451906"><ele>88.66666666666666</ele><time>2026-04-25T11:24:45.836Z</time></trkpt><trkpt lat="34.958993" lon="10.7452006"><ele>88.0</ele><time>2026-04-25T11:24:46.826Z</time></trkpt><trkpt lat="34.9587901" lon="10.7452107"><ele>87.66666666666666</ele><time>2026-04-25T11:24:47.83Z</time></trkpt><trkpt lat="34.9585898" lon="10.7452211"><ele>87.33333333333333</ele><time>2026-04-25T11:24:48.829Z</time></trkpt><trkpt lat="34.9583888" lon="10.7452327"><ele>87.0</ele><time>2026-04-25T11:24:49.831Z</time></trkpt><trkpt lat="34.9581859" lon="10.745241"><ele>87.0</ele><time>2026-04-25T11:24:50.834Z</time></trkpt><trkpt lat="34.9579808" lon="10.7452509"><ele>87.0</ele><time>2026-04-25T11:24:51.835Z</time></trkpt><trkpt lat="34.9577778" lon="10.7452607"><ele>87.0</ele><time>2026-04-25T11:24:52.84Z</time></trkpt><trkpt lat="34.9575737" lon="10.7452704"><ele>87.33333333333333</ele><time>2026-04-25T11:24:53.837Z</time></trkpt><trkpt lat="34.957373" lon="10.7452812"><ele>87.66666666666666</ele><time>2026-04-25T11:24:54.836Z</time></trkpt><trkpt lat="34.9571708" lon="10.7452923"><ele>88.0</ele><time>2026-04-25T11:24:55.864Z</time></trkpt><trkpt lat="34.956969" lon="10.7453005"><ele>88.0</ele><time>2026-04-25T11:24:56.839Z</time></trkpt><trkpt lat="34.9567672" lon="10.7453127"><ele>88.0</ele><time>2026-04-25T11:24:57.842Z</time></trkpt><trkpt lat="34.9565637" lon="10.7453257"><ele>88.0</ele><time>2026-04-25T11:24:58.837Z</time></trkpt><trkpt lat="34.9563611" lon="10.7453429"><ele>89.0</ele><time>2026-04-25T11:24:59.839Z</time></trkpt><trkpt lat="34.9561588" lon="10.7453577"><ele>90.0</ele><time>2026-04-25T11:25:00.827Z</time></trkpt><trkpt lat="34.955962" lon="10.7453687"><ele>91.0</ele><time>2026-04-25T11:25:01.842Z</time></trkpt><trkpt lat="34.9557648" lon="10.7453823"><ele>92.33333333333333</ele><time>2026-04-25T11:25:02.834Z</time></trkpt><trkpt lat="34.9555642" lon="10.7453941"><ele>93.66666666666667</ele><time>2026-04-25T11:25:03.834Z</time></trkpt><trkpt lat="34.9553648" lon="10.7454081"><ele>95.0</ele><time>2026-04-25T11:25:04.839Z</time></trkpt><trkpt lat="34.955164" lon="10.7454207"><ele>95.66666666666667</ele><time>2026-04-25T11:25:05.842Z</time></trkpt><trkpt lat="34.9549613" lon="10.7454298"><ele>96.33333333333334</ele><time>2026-04-25T11:25:06.83Z</time></trkpt><trkpt lat="34.9547607" lon="10.7454432"><ele>97.0</ele><time>2026-04-25T11:25:07.838Z</time></trkpt><trkpt lat="34.9545623" lon="10.745453"><ele>97.0</ele><time>2026-04-25T11:25:08.836Z</time></trkpt><trkpt lat="34.9543631" lon="10.745464"><ele>97.0</ele><time>2026-04-25T11:25:09.84Z</time></trkpt><trkpt lat="34.9541647" lon="10.7454765"><ele>97.0</ele><time>2026-04-25T11:25:10.836Z</time></trkpt><trkpt lat="34.9539676" lon="10.7454916"><ele>97.0</ele><time>2026-04-25T11:25:11.837Z</time></trkpt><trkpt lat="34.9537649" lon="10.7455061"><ele>97.0</ele><time>2026-04-25T11:25:12.833Z</time></trkpt><trkpt lat="34.953562" lon="10.7455192"><ele>97.0</ele><time>2026-04-25T11:25:13.83Z</time></trkpt><trkpt lat="34.9533598" lon="10.7455337"><ele>97.0</ele><time>2026-04-25T11:25:14.839Z</time></trkpt><trkpt lat="34.9531606" lon="10.7455457"><ele>97.0</ele><time>2026-04-25T11:25:15.83Z</time></trkpt><trkpt lat="34.9529616" lon="10.7455568"><ele>97.0</ele><time>2026-04-25T11:25:16.859Z</time></trkpt><trkpt lat="34.9527632" lon="10.7455704"><ele>97.0</ele><time>2026-04-25T11:25:17.837Z</time></trkpt><trkpt lat="34.9525638" lon="10.745584"><ele>97.0</ele><time>2026-04-25T11:25:18.836Z</time></trkpt><trkpt lat="34.9523667" lon="10.7455985"><ele>97.0</ele><time>2026-04-25T11:25:19.837Z</time></trkpt><trkpt lat="34.9521696" lon="10.7456108"><ele>97.0</ele><time>2026-04-25T11:25:20.83Z</time></trkpt><trkpt lat="34.9519765" lon="10.7456238"><ele>97.0</ele><time>2026-04-25T11:25:21.829Z</time></trkpt><trkpt lat="34.9517789" lon="10.7456309"><ele>97.0</ele><time>2026-04-25T11:25:22.833Z</time></trkpt><trkpt lat="34.9515804" lon="10.7456322"><ele>97.66666666666667</ele><time>2026-04-25T11:25:23.83Z</time></trkpt><trkpt lat="34.9513843" lon="10.7456266"><ele>98.33333333333334</ele><time>2026-04-25T11:25:24.839Z</time></trkpt><trkpt lat="34.9511926" lon="10.7456112"><ele>99.0</ele><time>2026-04-25T11:25:25.826Z</time></trkpt><trkpt lat="34.9510023" lon="10.7455955"><ele>100.33333333333334</ele><time>2026-04-25T11:25:26.834Z</time></trkpt><trkpt lat="34.9508139" lon="10.7455737"><ele>101.66666666666667</ele><time>2026-04-25T11:25:27.834Z</time></trkpt><trkpt lat="34.9506265" lon="10.7455538"><ele>103.0</ele><time>2026-04-25T11:25:28.836Z</time></trkpt><trkpt lat="34.9504428" lon="10.7455352"><ele>103.0</ele><time>2026-04-25T11:25:29.836Z</time></trkpt><trkpt lat="34.9502718" lon="10.7455145"><ele>103.0</ele><time>2026-04-25T11:25:30.839Z</time></trkpt><trkpt lat="34.9501139" lon="10.7454938"><ele>103.0</ele><time>2026-04-25T11:25:31.829Z</time></trkpt><trkpt lat="34.9499705" lon="10.7454813"><ele>102.75</ele><time>2026-04-25T11:25:32.833Z</time></trkpt><trkpt lat="34.9498323" lon="10.7454668"><ele>102.5</ele><time>2026-04-25T11:25:33.839Z</time></trkpt><trkpt lat="34.9496986" lon="10.7454574"><ele>102.25</ele><time>2026-04-25T11:25:34.833Z</time></trkpt><trkpt lat="34.9495609" lon="10.7454447"><ele>102.0</ele><time>2026-04-25T11:25:35.839Z</time></trkpt><trkpt lat="34.9494206" lon="10.7454324"><ele>102.0</ele><time>2026-04-25T11:25:36.837Z</time></trkpt><trkpt lat="34.9492794" lon="10.7454161"><ele>102.0</ele><time>2026-04-25T11:25:37.834Z</time></trkpt><trkpt lat="34.9491395" lon="10.7453944"><ele>102.0</ele><time>2026-04-25T11:25:38.837Z</time></trkpt><trkpt lat="34.9490005" lon="10.7453751"><ele>102.0</ele><time>2026-04-25T11:25:39.834Z</time></trkpt><trkpt lat="34.9488661" lon="10.7453547"><ele>102.0</ele><time>2026-04-25T11:25:40.851Z</time></trkpt><trkpt lat="34.9487269" lon="10.7453404"><ele>102.0</ele><time>2026-04-25T11:25:41.832Z</time></trkpt><trkpt lat="34.9485881" lon="10.7453266"><ele>102.0</ele><time>2026-04-25T11:25:42.838Z</time></trkpt><trkpt lat="34.9484463" lon="10.7453122"><ele>102.0</ele><time>2026-04-25T11:25:43.837Z</time></trkpt><trkpt lat="34.9483057" lon="10.7452964"><ele>102.0</ele><time>2026-04-25T11:25:44.844Z</time></trkpt><trkpt lat="34.9481623" lon="10.7452798"><ele>102.0</ele><time>2026-04-25T11:25:45.834Z</time></trkpt><trkpt lat="34.9480153" lon="10.7452622"><ele>102.0</ele><time>2026-04-25T11:25:46.824Z</time></trkpt><trkpt lat="34.94787" lon="10.7452482"><ele>102.0</ele><time>2026-04-25T11:25:47.837Z</time></trkpt><trkpt lat="34.947724" lon="10.7452327"><ele>102.0</ele><time>2026-04-25T11:25:48.846Z</time></trkpt><trkpt lat="34.9475792" lon="10.7452128"><ele>102.0</ele><time>2026-04-25T11:25:49.831Z</time></trkpt><trkpt lat="34.9474372" lon="10.7451975"><ele>102.0</ele><time>2026-04-25T11:25:50.832Z</time></trkpt><trkpt lat="34.9472994" lon="10.7451819"><ele>102.0</ele><time>2026-04-25T11:25:51.834Z</time></trkpt><trkpt lat="34.94717" lon="10.7451657"><ele>102.16666666666667</ele><time>2026-04-25T11:25:52.837Z</time></trkpt><trkpt lat="34.9470594" lon="10.7451536"><ele>102.33333333333334</ele><time>2026-04-25T11:25:53.836Z</time></trkpt><trkpt lat="34.9469637" lon="10.7451498"><ele>102.5</ele><time>2026-04-25T11:25:54.833Z</time></trkpt><trkpt lat="34.9468966" lon="10.7451415"><ele>102.66666666666667</ele><time>2026-04-25T11:25:55.838Z</time></trkpt><trkpt lat="34.946831" lon="10.7451363"><ele>102.83333333333334</ele><time>2026-04-25T11:25:56.83Z</time></trkpt><trkpt lat="34.9467506" lon="10.7451296"><ele>103.0</ele><time>2026-04-25T11:25:57.833Z</time></trkpt><trkpt lat="34.9466551" lon="10.7451253"><ele>102.60000000000001</ele><time>2026-04-25T11:25:58.83Z</time></trkpt><trkpt lat="34.9465575" lon="10.7451125"><ele>102.2</ele><time>2026-04-25T11:25:59.865Z</time></trkpt><trkpt lat="34.946452" lon="10.7450968"><ele>101.8</ele><time>2026-04-25T11:26:00.84Z</time></trkpt><trkpt lat="34.9463461" lon="10.7450836"><ele>101.4</ele><time>2026-04-25T11:26:01.827Z</time></trkpt><trkpt lat="34.9462461" lon="10.7450711"><ele>101.0</ele><time>2026-04-25T11:26:02.836Z</time></trkpt><trkpt lat="34.9461435" lon="10.7450631"><ele>101.0</ele><time>2026-04-25T11:26:03.829Z</time></trkpt><trkpt lat="34.9460422" lon="10.7450514"><ele>101.0</ele><time>2026-04-25T11:26:04.829Z</time></trkpt><trkpt lat="34.9459422" lon="10.7450396"><ele>101.0</ele><time>2026-04-25T11:26:05.825Z</time></trkpt><trkpt lat="34.9458375" lon="10.7450261"><ele>101.0</ele><time>2026-04-25T11:26:06.83Z</time></trkpt><trkpt lat="34.9457403" lon="10.7450132"><ele>101.0</ele><time>2026-04-25T11:26:07.835Z</time></trkpt><trkpt lat="34.9456355" lon="10.7449986"><ele>100.8</ele><time>2026-04-25T11:26:08.83Z</time></trkpt><trkpt lat="34.9455342" lon="10.7449911"><ele>100.6</ele><time>2026-04-25T11:26:09.834Z</time></trkpt><trkpt lat="34.9454297" lon="10.7449816"><ele>100.4</ele><time>2026-04-25T11:26:10.827Z</time></trkpt><trkpt lat="34.9453313" lon="10.7449706"><ele>100.2</ele><time>2026-04-25T11:26:11.837Z</time></trkpt><trkpt lat="34.9452371" lon="10.7449627"><ele>100.0</ele><time>2026-04-25T11:26:12.827Z</time></trkpt><trkpt lat="34.9451485" lon="10.744951"><ele>100.0</ele><time>2026-04-25T11:26:13.837Z</time></trkpt><trkpt lat="34.9450663" lon="10.7449427"><ele>100.0</ele><time>2026-04-25T11:26:14.835Z</time></trkpt><trkpt lat="34.9449928" lon="10.7449303"><ele>100.0</ele><time>2026-04-25T11:26:15.83Z</time></trkpt><trkpt lat="34.944926" lon="10.7449228"><ele>100.0</ele><time>2026-04-25T11:26:16.836Z</time></trkpt><trkpt lat="34.9448045" lon="10.7449174"><ele>100.0</ele><time>2026-04-25T11:26:18.841Z</time></trkpt><trkpt lat="34.9446969" lon="10.744912"><ele>100.00000000000001</ele><time>2026-04-25T11:26:20.83Z</time></trkpt><trkpt lat="34.9445975" lon="10.7448913"><ele>100.0</ele><time>2026-04-25T11:26:22.829Z</time></trkpt><trkpt lat="34.9444706" lon="10.7448762"><ele>100.0</ele><time>2026-04-25T11:26:24.833Z</time></trkpt><trkpt lat="34.9444013" lon="10.7448672"><ele>100.0</ele><time>2026-04-25T11:26:25.83Z</time></trkpt><trkpt lat="34.9443373" lon="10.7448633"><ele>100.00000000000001</ele><time>2026-04-25T11:26:26.836Z</time></trkpt><trkpt lat="34.9442701" lon="10.7448622"><ele>100.0</ele><time>2026-04-25T11:26:27.836Z</time></trkpt><trkpt lat="34.9441927" lon="10.7448599"><ele>100.00000000000001</ele><time>2026-04-25T11:26:28.84Z</time></trkpt><trkpt lat="34.944117" lon="10.7448516"><ele>100.0</ele><time>2026-04-25T11:26:29.831Z</time></trkpt><trkpt lat="34.9440326" lon="10.7448452"><ele>100.0</ele><time>2026-04-25T11:26:30.842Z</time></trkpt><trkpt lat="34.9439442" lon="10.7448347"><ele>100.0</ele><time>2026-04-25T11:26:31.826Z</time></trkpt><trkpt lat="34.9438528" lon="10.7448238"><ele>100.00000000000001</ele><time>2026-04-25T11:26:32.834Z</time></trkpt><trkpt lat="34.9437727" lon="10.7448178"><ele>100.0</ele><time>2026-04-25T11:26:33.831Z</time></trkpt><trkpt lat="34.943697" lon="10.744813"><ele>100.00000000000001</ele><time>2026-04-25T11:26:34.836Z</time></trkpt><trkpt lat="34.9436285" lon="10.7448053"><ele>100.0</ele><time>2026-04-25T11:26:35.83Z</time></trkpt><trkpt lat="34.94356" lon="10.7447899"><ele>100.0</ele><time>2026-04-25T11:26:36.831Z</time></trkpt><trkpt lat="34.9434932" lon="10.744778"><ele>100.0</ele><time>2026-04-25T11:26:37.872Z</time></trkpt><trkpt lat="34.9434225" lon="10.7447696"><ele>100.0</ele><time>2026-04-25T11:26:38.827Z</time></trkpt><trkpt lat="34.9433487" lon="10.744765"><ele>100.00000000000001</ele><time>2026-04-25T11:26:39.83Z</time></trkpt><trkpt lat="34.9432745" lon="10.7447593"><ele>100.0</ele><time>2026-04-25T11:26:40.834Z</time></trkpt><trkpt lat="34.9431989" lon="10.7447518"><ele>99.83333333333334</ele><time>2026-04-25T11:26:41.845Z</time></trkpt><trkpt lat="34.9431182" lon="10.7447416"><ele>99.66666666666667</ele><time>2026-04-25T11:26:42.832Z</time></trkpt><trkpt lat="34.9430379" lon="10.7447292"><ele>99.5</ele><time>2026-04-25T11:26:43.826Z</time></trkpt><trkpt lat="34.9429489" lon="10.7447172"><ele>99.33333333333334</ele><time>2026-04-25T11:26:44.826Z</time></trkpt><trkpt lat="34.9428632" lon="10.7447078"><ele>99.16666666666667</ele><time>2026-04-25T11:26:45.854Z</time></trkpt><trkpt lat="34.9427779" lon="10.7446945"><ele>99.0</ele><time>2026-04-25T11:26:46.828Z</time></trkpt><trkpt lat="34.9426915" lon="10.7446844"><ele>99.0</ele><time>2026-04-25T11:26:47.837Z</time></trkpt><trkpt lat="34.9426056" lon="10.7446768"><ele>99.0</ele><time>2026-04-25T11:26:48.833Z</time></trkpt><trkpt lat="34.9425169" lon="10.7446659"><ele>99.0</ele><time>2026-04-25T11:26:49.837Z</time></trkpt><trkpt lat="34.9424283" lon="10.744658"><ele>99.0</ele><time>2026-04-25T11:26:50.842Z</time></trkpt><trkpt lat="34.9423424" lon="10.7446451"><ele>99.0</ele><time>2026-04-25T11:26:51.834Z</time></trkpt><trkpt lat="34.9422549" lon="10.7446333"><ele>99.0</ele><time>2026-04-25T11:26:52.837Z</time></trkpt><trkpt lat="34.9421679" lon="10.7446247"><ele>98.80000000000001</ele><time>2026-04-25T11:26:53.828Z</time></trkpt><trkpt lat="34.9420775" lon="10.7446136"><ele>98.60000000000001</ele><time>2026-04-25T11:26:54.837Z</time></trkpt><trkpt lat="34.941984" lon="10.7445993"><ele>98.4</ele><time>2026-04-25T11:26:55.831Z</time></trkpt><trkpt lat="34.9418874" lon="10.7445922"><ele>98.2</ele><time>2026-04-25T11:26:56.828Z</time></trkpt><trkpt lat="34.9417885" lon="10.7445824"><ele>98.0</ele><time>2026-04-25T11:26:57.827Z</time></trkpt><trkpt lat="34.9416917" lon="10.7445765"><ele>97.60000000000001</ele><time>2026-04-25T11:26:58.83Z</time></trkpt><trkpt lat="34.9415971" lon="10.7445693"><ele>97.2</ele><time>2026-04-25T11:26:59.83Z</time></trkpt><trkpt lat="34.9415023" lon="10.7445594"><ele>96.8</ele><time>2026-04-25T11:27:00.841Z</time></trkpt><trkpt lat="34.941409" lon="10.7445473"><ele>96.4</ele><time>2026-04-25T11:27:01.834Z</time></trkpt><trkpt lat="34.9413143" lon="10.7445367"><ele>96.0</ele><time>2026-04-25T11:27:02.836Z</time></trkpt><trkpt lat="34.9412258" lon="10.7445258"><ele>96.0</ele><time>2026-04-25T11:27:03.863Z</time></trkpt><trkpt lat="34.9411463" lon="10.7445147"><ele>96.0</ele><time>2026-04-25T11:27:04.875Z</time></trkpt><trkpt lat="34.9410775" lon="10.7445048"><ele>96.0</ele><time>2026-04-25T11:27:05.836Z</time></trkpt><trkpt lat="34.940944" lon="10.7444893"><ele>96.0</ele><time>2026-04-25T11:27:07.835Z</time></trkpt><trkpt lat="34.9408652" lon="10.7444766"><ele>96.0</ele><time>2026-04-25T11:27:08.835Z</time></trkpt><trkpt lat="34.9407874" lon="10.7444649"><ele>96.0</ele><time>2026-04-25T11:27:09.833Z</time></trkpt><trkpt lat="34.9407169" lon="10.7444486"><ele>95.8</ele><time>2026-04-25T11:27:10.828Z</time></trkpt><trkpt lat="34.9406095" lon="10.7444239"><ele>95.6</ele><time>2026-04-25T11:27:12.836Z</time></trkpt><trkpt lat="34.9405408" lon="10.7444109"><ele>95.4</ele><time>2026-04-25T11:27:15.836Z</time></trkpt><trkpt lat="34.9404576" lon="10.7444207"><ele>95.2</ele><time>2026-04-25T11:29:40.888Z</time></trkpt><trkpt lat="34.9403485" lon="10.7444116"><ele>95.0</ele><time>2026-04-25T11:29:42.876Z</time></trkpt><trkpt lat="34.94023" lon="10.7443931"><ele>95.0</ele><time>2026-04-25T11:29:44.889Z</time></trkpt><trkpt lat="34.9401641" lon="10.7443839"><ele>95.0</ele><time>2026-04-25T11:29:45.875Z</time></trkpt><trkpt lat="34.9400952" lon="10.7443754"><ele>95.0</ele><time>2026-04-25T11:29:46.877Z</time></trkpt><trkpt lat="34.9400232" lon="10.7443752"><ele>95.0</ele><time>2026-04-25T11:29:47.837Z</time></trkpt><trkpt lat="34.9399536" lon="10.7443695"><ele>95.0</ele><time>2026-04-25T11:29:48.847Z</time></trkpt><trkpt lat="34.9398858" lon="10.7443684"><ele>95.0</ele><time>2026-04-25T11:29:49.883Z</time></trkpt><trkpt lat="34.9398151" lon="10.7443663"><ele>95.0</ele><time>2026-04-25T11:29:50.899Z</time></trkpt><trkpt lat="34.9397398" lon="10.7443656"><ele>95.0</ele><time>2026-04-25T11:29:51.877Z</time></trkpt><trkpt lat="34.939662" lon="10.7443617"><ele>95.0</ele><time>2026-04-25T11:29:52.841Z</time></trkpt><trkpt lat="34.9395831" lon="10.7443557"><ele>95.0</ele><time>2026-04-25T11:29:53.834Z</time></trkpt><trkpt lat="34.9395077" lon="10.7443459"><ele>95.0</ele><time>2026-04-25T11:29:54.892Z</time></trkpt><trkpt lat="34.939432" lon="10.7443335"><ele>95.0</ele><time>2026-04-25T11:29:55.85Z</time></trkpt><trkpt lat="34.9393598" lon="10.7443191"><ele>95.0</ele><time>2026-04-25T11:29:56.836Z</time></trkpt><trkpt lat="34.9391113" lon="10.74427"><ele>94.4</ele><time>2026-04-25T11:30:00.852Z</time></trkpt><trkpt lat="34.9389651" lon="10.7442438"><ele>93.8</ele><time>2026-04-25T11:30:03.856Z</time></trkpt><trkpt lat="34.9388902" lon="10.74423"><ele>93.19999999999999</ele><time>2026-04-25T11:30:06.828Z</time></trkpt><trkpt lat="34.9388087" lon="10.7442363"><ele>92.6</ele><time>2026-04-25T11:30:57.866Z</time></trkpt><trkpt lat="34.9387328" lon="10.744231"><ele>92.0</ele><time>2026-04-25T11:30:59.862Z</time></trkpt><trkpt lat="34.9386413" lon="10.7442097"><ele>92.0</ele><time>2026-04-25T11:31:01.853Z</time></trkpt><trkpt lat="34.9385435" lon="10.7441941"><ele>92.0</ele><time>2026-04-25T11:31:03.849Z</time></trkpt><trkpt lat="34.9384431" lon="10.7441857"><ele>92.0</ele><time>2026-04-25T11:31:05.866Z</time></trkpt><trkpt lat="34.9383286" lon="10.7441719"><ele>92.0</ele><time>2026-04-25T11:31:07.85Z</time></trkpt><trkpt lat="34.9382126" lon="10.7441529"><ele>92.0</ele><time>2026-04-25T11:31:09.857Z</time></trkpt><trkpt lat="34.9380995" lon="10.7441423"><ele>92.6</ele><time>2026-04-25T11:31:11.858Z</time></trkpt><trkpt lat="34.937986" lon="10.7441331"><ele>93.19999999999999</ele><time>2026-04-25T11:31:13.866Z</time></trkpt><trkpt lat="34.9378797" lon="10.7441205"><ele>93.8</ele><time>2026-04-25T11:31:15.856Z</time></trkpt><trkpt lat="34.9377791" lon="10.74411"><ele>94.4</ele><time>2026-04-25T11:31:17.847Z</time></trkpt><trkpt lat="34.9376886" lon="10.7441019"><ele>95.0</ele><time>2026-04-25T11:31:19.839Z</time></trkpt><trkpt lat="34.9376089" lon="10.7440888"><ele>94.66666666666667</ele><time>2026-04-25T11:31:21.834Z</time></trkpt><trkpt lat="34.9375252" lon="10.7440665"><ele>94.33333333333334</ele><time>2026-04-25T11:31:24.864Z</time></trkpt><trkpt lat="34.9374524" lon="10.7440635"><ele>94.0</ele><time>2026-04-25T11:39:43.857Z</time></trkpt><trkpt lat="34.9373837" lon="10.744061"><ele>93.66666666666667</ele><time>2026-04-25T11:39:45.847Z</time></trkpt><trkpt lat="34.9373021" lon="10.7440586"><ele>93.33333333333333</ele><time>2026-04-25T11:39:48.852Z</time></trkpt><trkpt lat="34.9372109" lon="10.7440552"><ele>93.0</ele><time>2026-04-25T11:39:51.847Z</time></trkpt><trkpt lat="34.9371068" lon="10.7440538"><ele>93.00000000000001</ele><time>2026-04-25T11:39:53.857Z</time></trkpt><trkpt lat="34.9370405" lon="10.7440566"><ele>93.0</ele><time>2026-04-25T11:39:54.859Z</time></trkpt><trkpt lat="34.9369718" lon="10.744059"><ele>93.0</ele><time>2026-04-25T11:39:55.855Z</time></trkpt><trkpt lat="34.9368978" lon="10.7440604"><ele>93.0</ele><time>2026-04-25T11:39:56.828Z</time></trkpt><trkpt lat="34.9368281" lon="10.7440518"><ele>93.0</ele><time>2026-04-25T11:39:57.851Z</time></trkpt><trkpt lat="34.936764" lon="10.744042"><ele>93.00000000000001</ele><time>2026-04-25T11:39:58.854Z</time></trkpt><trkpt lat="34.936687" lon="10.7440348"><ele>93.0</ele><time>2026-04-25T11:39:59.858Z</time></trkpt><trkpt lat="34.9366039" lon="10.7440311"><ele>92.5</ele><time>2026-04-25T11:40:00.853Z</time></trkpt><trkpt lat="34.9365041" lon="10.7440193"><ele>92.0</ele><time>2026-04-25T11:40:01.868Z</time></trkpt><trkpt lat="34.936386" lon="10.7440096"><ele>91.5</ele><time>2026-04-25T11:40:02.852Z</time></trkpt><trkpt lat="34.936247" lon="10.7439974"><ele>91.0</ele><time>2026-04-25T11:40:03.85Z</time></trkpt><trkpt lat="34.9361049" lon="10.7439759"><ele>91.0</ele><time>2026-04-25T11:40:04.847Z</time></trkpt><trkpt lat="34.9359631" lon="10.7439553"><ele>91.0</ele><time>2026-04-25T11:40:05.86Z</time></trkpt><trkpt lat="34.9358383" lon="10.7439431"><ele>91.0</ele><time>2026-04-25T11:40:06.849Z</time></trkpt><trkpt lat="34.9357247" lon="10.7439306"><ele>91.0</ele><time>2026-04-25T11:40:07.865Z</time></trkpt><trkpt lat="34.9356124" lon="10.7439193"><ele>91.0</ele><time>2026-04-25T11:40:08.865Z</time></trkpt><trkpt lat="34.9354954" lon="10.7439081"><ele>91.0</ele><time>2026-04-25T11:40:09.859Z</time></trkpt><trkpt lat="34.9353706" lon="10.7439"><ele>91.0</ele><time>2026-04-25T11:40:10.924Z</time></trkpt><trkpt lat="34.935239" lon="10.7438963"><ele>91.0</ele><time>2026-04-25T11:40:11.897Z</time></trkpt><trkpt lat="34.9350893" lon="10.7439029"><ele>91.0</ele><time>2026-04-25T11:40:12.893Z</time></trkpt><trkpt lat="34.9349217" lon="10.7439319"><ele>91.0</ele><time>2026-04-25T11:40:13.904Z</time></trkpt><trkpt lat="34.9347447" lon="10.7439615"><ele>91.0</ele><time>2026-04-25T11:40:14.854Z</time></trkpt><trkpt lat="34.9345601" lon="10.7439886"><ele>91.0</ele><time>2026-04-25T11:40:15.865Z</time></trkpt><trkpt lat="34.9343717" lon="10.7440108"><ele>91.0</ele><time>2026-04-25T11:40:16.858Z</time></trkpt><trkpt lat="34.9341981" lon="10.7440348"><ele>91.0</ele><time>2026-04-25T11:40:17.857Z</time></trkpt><trkpt lat="34.9340289" lon="10.7440692"><ele>90.0</ele><time>2026-04-25T11:40:18.853Z</time></trkpt><trkpt lat="34.9338661" lon="10.7441117"><ele>89.0</ele><time>2026-04-25T11:40:19.862Z</time></trkpt><trkpt lat="34.9337006" lon="10.7441526"><ele>88.0</ele><time>2026-04-25T11:40:20.865Z</time></trkpt><trkpt lat="34.9335325" lon="10.7441938"><ele>88.0</ele><time>2026-04-25T11:40:21.853Z</time></trkpt><trkpt lat="34.9333679" lon="10.7442326"><ele>88.0</ele><time>2026-04-25T11:40:22.848Z</time></trkpt><trkpt lat="34.9332029" lon="10.7442708"><ele>88.0</ele><time>2026-04-25T11:40:23.904Z</time></trkpt><trkpt lat="34.9330392" lon="10.7443068"><ele>88.0</ele><time>2026-04-25T11:40:24.904Z</time></trkpt><trkpt lat="34.9328759" lon="10.7443456"><ele>88.0</ele><time>2026-04-25T11:40:25.912Z</time></trkpt><trkpt lat="34.9327105" lon="10.7443834"><ele>88.0</ele><time>2026-04-25T11:40:26.892Z</time></trkpt><trkpt lat="34.9325453" lon="10.7444237"><ele>88.0</ele><time>2026-04-25T11:40:27.899Z</time></trkpt><trkpt lat="34.9323775" lon="10.7444612"><ele>88.0</ele><time>2026-04-25T11:40:28.904Z</time></trkpt><trkpt lat="34.9322146" lon="10.7444987"><ele>88.0</ele><time>2026-04-25T11:40:29.882Z</time></trkpt><trkpt lat="34.9320548" lon="10.7445373"><ele>88.0</ele><time>2026-04-25T11:40:30.91Z</time></trkpt><trkpt lat="34.9318958" lon="10.7445735"><ele>88.0</ele><time>2026-04-25T11:40:31.889Z</time></trkpt><trkpt lat="34.9317405" lon="10.7446122"><ele>88.0</ele><time>2026-04-25T11:40:32.898Z</time></trkpt><trkpt lat="34.9315846" lon="10.7446495"><ele>88.0</ele><time>2026-04-25T11:40:33.892Z</time></trkpt><trkpt lat="34.9314294" lon="10.7446881"><ele>88.0</ele><time>2026-04-25T11:40:34.892Z</time></trkpt><trkpt lat="34.9312726" lon="10.7447238"><ele>88.0</ele><time>2026-04-25T11:40:35.907Z</time></trkpt><trkpt lat="34.9311154" lon="10.7447606"><ele>88.0</ele><time>2026-04-25T11:40:36.877Z</time></trkpt><trkpt lat="34.9309599" lon="10.7447981"><ele>88.0</ele><time>2026-04-25T11:40:37.895Z</time></trkpt><trkpt lat="34.9308023" lon="10.7448367"><ele>88.0</ele><time>2026-04-25T11:40:38.893Z</time></trkpt><trkpt lat="34.9306477" lon="10.7448756"><ele>87.33333333333333</ele><time>2026-04-25T11:40:39.909Z</time></trkpt><trkpt lat="34.9304911" lon="10.7449157"><ele>86.66666666666667</ele><time>2026-04-25T11:40:40.888Z</time></trkpt><trkpt lat="34.930336" lon="10.7449527"><ele>86.0</ele><time>2026-04-25T11:40:41.885Z</time></trkpt><trkpt lat="34.9301796" lon="10.7449908"><ele>85.33333333333334</ele><time>2026-04-25T11:40:42.905Z</time></trkpt><trkpt lat="34.9300137" lon="10.7450285"><ele>84.66666666666667</ele><time>2026-04-25T11:40:43.897Z</time></trkpt><trkpt lat="34.9298475" lon="10.7450662"><ele>84.0</ele><time>2026-04-25T11:40:44.895Z</time></trkpt><trkpt lat="34.9296773" lon="10.7451069"><ele>84.0</ele><time>2026-04-25T11:40:45.911Z</time></trkpt><trkpt lat="34.9295034" lon="10.7451511"><ele>84.0</ele><time>2026-04-25T11:40:46.897Z</time></trkpt><trkpt lat="34.9293286" lon="10.7451917"><ele>84.0</ele><time>2026-04-25T11:40:47.92Z</time></trkpt><trkpt lat="34.9291519" lon="10.7452317"><ele>84.33333333333333</ele><time>2026-04-25T11:40:48.892Z</time></trkpt><trkpt lat="34.9289775" lon="10.7452741"><ele>84.66666666666666</ele><time>2026-04-25T11:40:49.917Z</time></trkpt><trkpt lat="34.9288026" lon="10.7453149"><ele>85.0</ele><time>2026-04-25T11:40:50.885Z</time></trkpt><trkpt lat="34.9286262" lon="10.7453601"><ele>85.0</ele><time>2026-04-25T11:40:51.907Z</time></trkpt><trkpt lat="34.9284489" lon="10.7454054"><ele>85.0</ele><time>2026-04-25T11:40:52.895Z</time></trkpt><trkpt lat="34.9282716" lon="10.7454518"><ele>85.0</ele><time>2026-04-25T11:40:53.901Z</time></trkpt><trkpt lat="34.928092" lon="10.7454929"><ele>84.33333333333333</ele><time>2026-04-25T11:40:54.904Z</time></trkpt><trkpt lat="34.9279094" lon="10.7455336"><ele>83.66666666666667</ele><time>2026-04-25T11:40:55.893Z</time></trkpt><trkpt lat="34.9277216" lon="10.7455766"><ele>83.0</ele><time>2026-04-25T11:40:56.906Z</time></trkpt><trkpt lat="34.9275349" lon="10.745617"><ele>82.33333333333334</ele><time>2026-04-25T11:40:57.891Z</time></trkpt><trkpt lat="34.9273483" lon="10.7456619"><ele>81.66666666666667</ele><time>2026-04-25T11:40:58.887Z</time></trkpt><trkpt lat="34.9271568" lon="10.7457079"><ele>81.0</ele><time>2026-04-25T11:40:59.911Z</time></trkpt><trkpt lat="34.9269694" lon="10.7457559"><ele>81.0</ele><time>2026-04-25T11:41:00.895Z</time></trkpt><trkpt lat="34.9267808" lon="10.745803"><ele>81.0</ele><time>2026-04-25T11:41:01.907Z</time></trkpt><trkpt lat="34.926591" lon="10.7458482"><ele>81.0</ele><time>2026-04-25T11:41:02.888Z</time></trkpt><trkpt lat="34.9264035" lon="10.7458961"><ele>80.33333333333333</ele><time>2026-04-25T11:41:03.904Z</time></trkpt><trkpt lat="34.9262154" lon="10.7459475"><ele>79.66666666666666</ele><time>2026-04-25T11:41:04.908Z</time></trkpt><trkpt lat="34.9260223" lon="10.7459966"><ele>79.0</ele><time>2026-04-25T11:41:05.909Z</time></trkpt><trkpt lat="34.9258263" lon="10.7460429"><ele>79.66666666666666</ele><time>2026-04-25T11:41:06.909Z</time></trkpt><trkpt lat="34.9256348" lon="10.7460887"><ele>80.33333333333333</ele><time>2026-04-25T11:41:07.898Z</time></trkpt><trkpt lat="34.925445" lon="10.746135"><ele>81.0</ele><time>2026-04-25T11:41:08.907Z</time></trkpt><trkpt lat="34.9252559" lon="10.7461796"><ele>81.0</ele><time>2026-04-25T11:41:09.904Z</time></trkpt><trkpt lat="34.925068" lon="10.7462261"><ele>81.0</ele><time>2026-04-25T11:41:10.908Z</time></trkpt><trkpt lat="34.9248788" lon="10.7462717"><ele>81.0</ele><time>2026-04-25T11:41:11.92Z</time></trkpt><trkpt lat="34.9246946" lon="10.7463173"><ele>79.66666666666667</ele><time>2026-04-25T11:41:12.904Z</time></trkpt><trkpt lat="34.9245038" lon="10.7463639"><ele>78.33333333333334</ele><time>2026-04-25T11:41:13.899Z</time></trkpt><trkpt lat="34.9243221" lon="10.7464075"><ele>77.0</ele><time>2026-04-25T11:41:14.909Z</time></trkpt><trkpt lat="34.924139" lon="10.7464496"><ele>77.0</ele><time>2026-04-25T11:41:15.931Z</time></trkpt><trkpt lat="34.9239572" lon="10.7464934"><ele>77.0</ele><time>2026-04-25T11:41:16.901Z</time></trkpt><trkpt lat="34.9237757" lon="10.7465375"><ele>77.0</ele><time>2026-04-25T11:41:17.894Z</time></trkpt><trkpt lat="34.9235921" lon="10.7465834"><ele>77.0</ele><time>2026-04-25T11:41:18.905Z</time></trkpt><trkpt lat="34.9234079" lon="10.7466256"><ele>77.0</ele><time>2026-04-25T11:41:19.892Z</time></trkpt><trkpt lat="34.9232253" lon="10.7466674"><ele>77.0</ele><time>2026-04-25T11:41:20.9Z</time></trkpt><trkpt lat="34.9230385" lon="10.7467142"><ele>76.33333333333334</ele><time>2026-04-25T11:41:21.892Z</time></trkpt><trkpt lat="34.9228559" lon="10.7467598"><ele>75.66666666666667</ele><time>2026-04-25T11:41:22.904Z</time></trkpt><trkpt lat="34.9226696" lon="10.7468042"><ele>75.0</ele><time>2026-04-25T11:41:23.904Z</time></trkpt><trkpt lat="34.9224835" lon="10.7468473"><ele>74.33333333333333</ele><time>2026-04-25T11:41:24.909Z</time></trkpt><trkpt lat="34.9222918" lon="10.7468941"><ele>73.66666666666666</ele><time>2026-04-25T11:41:25.897Z</time></trkpt><trkpt lat="34.9221014" lon="10.7469447"><ele>73.0</ele><time>2026-04-25T11:41:26.891Z</time></trkpt><trkpt lat="34.9219096" lon="10.74699"><ele>72.33333333333333</ele><time>2026-04-25T11:41:27.911Z</time></trkpt><trkpt lat="34.921717" lon="10.7470347"><ele>71.66666666666667</ele><time>2026-04-25T11:41:28.884Z</time></trkpt><trkpt lat="34.9215222" lon="10.7470842"><ele>71.0</ele><time>2026-04-25T11:41:29.905Z</time></trkpt><trkpt lat="34.9213263" lon="10.7471337"><ele>71.0</ele><time>2026-04-25T11:41:30.9Z</time></trkpt><trkpt lat="34.921132" lon="10.7471843"><ele>71.0</ele><time>2026-04-25T11:41:31.906Z</time></trkpt><trkpt lat="34.9209368" lon="10.7472343"><ele>71.0</ele><time>2026-04-25T11:41:32.891Z</time></trkpt><trkpt lat="34.9207391" lon="10.7472805"><ele>71.0</ele><time>2026-04-25T11:41:33.934Z</time></trkpt><trkpt lat="34.9205461" lon="10.7473283"><ele>71.0</ele><time>2026-04-25T11:41:34.88Z</time></trkpt><trkpt lat="34.9203506" lon="10.7473766"><ele>71.0</ele><time>2026-04-25T11:41:35.906Z</time></trkpt><trkpt lat="34.9201582" lon="10.7474256"><ele>70.66666666666667</ele><time>2026-04-25T11:41:36.902Z</time></trkpt><trkpt lat="34.9199671" lon="10.7474749"><ele>70.33333333333333</ele><time>2026-04-25T11:41:37.901Z</time></trkpt><trkpt lat="34.9197765" lon="10.747521"><ele>70.0</ele><time>2026-04-25T11:41:38.905Z</time></trkpt><trkpt lat="34.9195821" lon="10.74757"><ele>70.0</ele><time>2026-04-25T11:41:39.911Z</time></trkpt><trkpt lat="34.9193925" lon="10.7476324"><ele>70.0</ele><time>2026-04-25T11:41:40.901Z</time></trkpt><trkpt lat="34.9192061" lon="10.7477132"><ele>70.0</ele><time>2026-04-25T11:41:41.904Z</time></trkpt><trkpt lat="34.9190228" lon="10.7478079"><ele>70.0</ele><time>2026-04-25T11:41:42.895Z</time></trkpt><trkpt lat="34.9188505" lon="10.7479253"><ele>70.0</ele><time>2026-04-25T11:41:43.908Z</time></trkpt><trkpt lat="34.918685" lon="10.7480602"><ele>70.0</ele><time>2026-04-25T11:41:44.904Z</time></trkpt><trkpt lat="34.9185241" lon="10.7481998"><ele>70.0</ele><time>2026-04-25T11:41:45.902Z</time></trkpt><trkpt lat="34.9183652" lon="10.7483394"><ele>70.0</ele><time>2026-04-25T11:41:46.885Z</time></trkpt><trkpt lat="34.9182039" lon="10.748483"><ele>70.0</ele><time>2026-04-25T11:41:47.894Z</time></trkpt><trkpt lat="34.9180462" lon="10.7486266"><ele>70.0</ele><time>2026-04-25T11:41:48.907Z</time></trkpt><trkpt lat="34.9178872" lon="10.7487702"><ele>70.0</ele><time>2026-04-25T11:41:49.902Z</time></trkpt><trkpt lat="34.9177297" lon="10.7489089"><ele>70.0</ele><time>2026-04-25T11:41:50.903Z</time></trkpt><trkpt lat="34.9175697" lon="10.7490511"><ele>71.0</ele><time>2026-04-25T11:41:51.881Z</time></trkpt><trkpt lat="34.9174114" lon="10.7491964"><ele>72.0</ele><time>2026-04-25T11:41:52.903Z</time></trkpt><trkpt lat="34.9172507" lon="10.7493387"><ele>73.0</ele><time>2026-04-25T11:41:53.896Z</time></trkpt><trkpt lat="34.9170924" lon="10.7494778"><ele>72.0</ele><time>2026-04-25T11:41:54.918Z</time></trkpt><trkpt lat="34.9169329" lon="10.7496197"><ele>71.0</ele><time>2026-04-25T11:41:55.901Z</time></trkpt><trkpt lat="34.9167733" lon="10.749763"><ele>70.0</ele><time>2026-04-25T11:41:56.9Z</time></trkpt><trkpt lat="34.916613" lon="10.7498977"><ele>70.0</ele><time>2026-04-25T11:41:57.894Z</time></trkpt><trkpt lat="34.9164458" lon="10.7500266"><ele>70.0</ele><time>2026-04-25T11:41:58.9Z</time></trkpt><trkpt lat="34.9162772" lon="10.750152"><ele>70.0</ele><time>2026-04-25T11:41:59.907Z</time></trkpt><trkpt lat="34.9161054" lon="10.7502733"><ele>69.33333333333333</ele><time>2026-04-25T11:42:00.899Z</time></trkpt><trkpt lat="34.9159308" lon="10.7503849"><ele>68.66666666666667</ele><time>2026-04-25T11:42:01.896Z</time></trkpt><trkpt lat="34.9157564" lon="10.7504926"><ele>68.0</ele><time>2026-04-25T11:42:02.896Z</time></trkpt><trkpt lat="34.9155815" lon="10.7506033"><ele>68.0</ele><time>2026-04-25T11:42:03.9Z</time></trkpt><trkpt lat="34.9154073" lon="10.7507117"><ele>68.0</ele><time>2026-04-25T11:42:04.924Z</time></trkpt><trkpt lat="34.9152289" lon="10.7508197"><ele>68.0</ele><time>2026-04-25T11:42:05.917Z</time></trkpt><trkpt lat="34.9150539" lon="10.7509257"><ele>68.33333333333334</ele><time>2026-04-25T11:42:06.891Z</time></trkpt><trkpt lat="34.9148804" lon="10.751033"><ele>68.66666666666667</ele><time>2026-04-25T11:42:07.908Z</time></trkpt><trkpt lat="34.9147057" lon="10.75114"><ele>69.0</ele><time>2026-04-25T11:42:08.878Z</time></trkpt><trkpt lat="34.9145296" lon="10.7512457"><ele>69.0</ele><time>2026-04-25T11:42:09.884Z</time></trkpt><trkpt lat="34.9143532" lon="10.7513536"><ele>69.0</ele><time>2026-04-25T11:42:10.896Z</time></trkpt><trkpt lat="34.9141733" lon="10.7514572"><ele>69.0</ele><time>2026-04-25T11:42:11.901Z</time></trkpt><trkpt lat="34.9139954" lon="10.7515647"><ele>69.0</ele><time>2026-04-25T11:42:12.891Z</time></trkpt><trkpt lat="34.9138176" lon="10.7516708"><ele>69.0</ele><time>2026-04-25T11:42:13.9Z</time></trkpt><trkpt lat="34.91364" lon="10.7517803"><ele>69.0</ele><time>2026-04-25T11:42:14.908Z</time></trkpt><trkpt lat="34.913464" lon="10.7518878"><ele>68.66666666666667</ele><time>2026-04-25T11:42:15.901Z</time></trkpt><trkpt lat="34.913288" lon="10.7519976"><ele>68.33333333333334</ele><time>2026-04-25T11:42:16.905Z</time></trkpt><trkpt lat="34.9131087" lon="10.7521077"><ele>68.0</ele><time>2026-04-25T11:42:17.893Z</time></trkpt><trkpt lat="34.9129293" lon="10.7522118"><ele>68.0</ele><time>2026-04-25T11:42:18.892Z</time></trkpt><trkpt lat="34.9127513" lon="10.75232"><ele>68.0</ele><time>2026-04-25T11:42:19.918Z</time></trkpt><trkpt lat="34.912576" lon="10.7524248"><ele>68.0</ele><time>2026-04-25T11:42:20.901Z</time></trkpt><trkpt lat="34.9123965" lon="10.7525245"><ele>68.66666666666667</ele><time>2026-04-25T11:42:21.884Z</time></trkpt><trkpt lat="34.9122194" lon="10.7526326"><ele>69.33333333333333</ele><time>2026-04-25T11:42:22.884Z</time></trkpt><trkpt lat="34.9120433" lon="10.7527411"><ele>70.0</ele><time>2026-04-25T11:42:23.901Z</time></trkpt><trkpt lat="34.9118675" lon="10.7528521"><ele>69.33333333333333</ele><time>2026-04-25T11:42:24.892Z</time></trkpt><trkpt lat="34.9116923" lon="10.7529588"><ele>68.66666666666667</ele><time>2026-04-25T11:42:25.896Z</time></trkpt><trkpt lat="34.9115192" lon="10.7530697"><ele>68.0</ele><time>2026-04-25T11:42:26.9Z</time></trkpt><trkpt lat="34.9113444" lon="10.7531736"><ele>68.0</ele><time>2026-04-25T11:42:27.921Z</time></trkpt><trkpt lat="34.9111678" lon="10.753281"><ele>68.0</ele><time>2026-04-25T11:42:28.913Z</time></trkpt><trkpt lat="34.9109907" lon="10.7533863"><ele>68.0</ele><time>2026-04-25T11:42:29.911Z</time></trkpt><trkpt lat="34.9108107" lon="10.7534923"><ele>67.33333333333334</ele><time>2026-04-25T11:42:30.898Z</time></trkpt><trkpt lat="34.9106307" lon="10.7536012"><ele>66.66666666666667</ele><time>2026-04-25T11:42:31.91Z</time></trkpt><trkpt lat="34.9104528" lon="10.753708"><ele>66.0</ele><time>2026-04-25T11:42:32.899Z</time></trkpt><trkpt lat="34.9102759" lon="10.75381"><ele>66.0</ele><time>2026-04-25T11:42:33.916Z</time></trkpt><trkpt lat="34.9101035" lon="10.7539147"><ele>66.0</ele><time>2026-04-25T11:42:34.908Z</time></trkpt><trkpt lat="34.9099265" lon="10.7540229"><ele>66.0</ele><time>2026-04-25T11:42:35.897Z</time></trkpt><trkpt lat="34.9097505" lon="10.754132"><ele>65.66666666666667</ele><time>2026-04-25T11:42:36.905Z</time></trkpt><trkpt lat="34.9095749" lon="10.754245"><ele>65.33333333333334</ele><time>2026-04-25T11:42:37.895Z</time></trkpt><trkpt lat="34.9093966" lon="10.7543556"><ele>65.0</ele><time>2026-04-25T11:42:38.904Z</time></trkpt><trkpt lat="34.9092163" lon="10.7544614"><ele>65.0</ele><time>2026-04-25T11:42:39.914Z</time></trkpt><trkpt lat="34.9090398" lon="10.7545653"><ele>65.0</ele><time>2026-04-25T11:42:40.904Z</time></trkpt><trkpt lat="34.9088588" lon="10.7546692"><ele>65.0</ele><time>2026-04-25T11:42:41.905Z</time></trkpt><trkpt lat="34.9086765" lon="10.7547791"><ele>65.0</ele><time>2026-04-25T11:42:42.885Z</time></trkpt><trkpt lat="34.908487" lon="10.7548969"><ele>65.0</ele><time>2026-04-25T11:42:43.907Z</time></trkpt><trkpt lat="34.9082973" lon="10.755012"><ele>65.0</ele><time>2026-04-25T11:42:44.907Z</time></trkpt><trkpt lat="34.9081065" lon="10.7551283"><ele>65.33333333333334</ele><time>2026-04-25T11:42:45.903Z</time></trkpt><trkpt lat="34.9079152" lon="10.7552455"><ele>65.66666666666667</ele><time>2026-04-25T11:42:46.903Z</time></trkpt><trkpt lat="34.9077257" lon="10.7553603"><ele>66.0</ele><time>2026-04-25T11:42:47.901Z</time></trkpt><trkpt lat="34.9075408" lon="10.7554738"><ele>66.0</ele><time>2026-04-25T11:42:48.885Z</time></trkpt><trkpt lat="34.9073555" lon="10.7555855"><ele>66.0</ele><time>2026-04-25T11:42:49.911Z</time></trkpt><trkpt lat="34.9071663" lon="10.7556973"><ele>66.0</ele><time>2026-04-25T11:42:50.898Z</time></trkpt><trkpt lat="34.9069847" lon="10.7558109"><ele>66.0</ele><time>2026-04-25T11:42:51.891Z</time></trkpt><trkpt lat="34.9068037" lon="10.75592"><ele>66.0</ele><time>2026-04-25T11:42:52.907Z</time></trkpt><trkpt lat="34.9066224" lon="10.7560331"><ele>66.0</ele><time>2026-04-25T11:42:53.905Z</time></trkpt><trkpt lat="34.9064433" lon="10.7561425"><ele>65.33333333333333</ele><time>2026-04-25T11:42:54.901Z</time></trkpt><trkpt lat="34.9062638" lon="10.7562533"><ele>64.66666666666666</ele><time>2026-04-25T11:42:55.905Z</time></trkpt><trkpt lat="34.906083" lon="10.7563647"><ele>64.0</ele><time>2026-04-25T11:42:56.895Z</time></trkpt><trkpt lat="34.9059004" lon="10.7564736"><ele>64.0</ele><time>2026-04-25T11:42:57.903Z</time></trkpt><trkpt lat="34.9057181" lon="10.7565812"><ele>64.0</ele><time>2026-04-25T11:42:58.903Z</time></trkpt><trkpt lat="34.9055297" lon="10.7566929"><ele>64.0</ele><time>2026-04-25T11:42:59.908Z</time></trkpt><trkpt lat="34.9053425" lon="10.7568086"><ele>63.33333333333333</ele><time>2026-04-25T11:43:00.9Z</time></trkpt><trkpt lat="34.9051553" lon="10.7569247"><ele>62.66666666666667</ele><time>2026-04-25T11:43:01.885Z</time></trkpt><trkpt lat="34.9049675" lon="10.7570373"><ele>62.0</ele><time>2026-04-25T11:43:02.896Z</time></trkpt><trkpt lat="34.9047805" lon="10.7571567"><ele>62.0</ele><time>2026-04-25T11:43:03.903Z</time></trkpt><trkpt lat="34.9045891" lon="10.7572735"><ele>62.0</ele><time>2026-04-25T11:43:04.904Z</time></trkpt><trkpt lat="34.9044032" lon="10.7573857"><ele>62.0</ele><time>2026-04-25T11:43:05.908Z</time></trkpt><trkpt lat="34.9042223" lon="10.7574941"><ele>62.333333333333336</ele><time>2026-04-25T11:43:06.892Z</time></trkpt><trkpt lat="34.904041" lon="10.7576025"><ele>62.66666666666667</ele><time>2026-04-25T11:43:07.908Z</time></trkpt><trkpt lat="34.9038613" lon="10.7577102"><ele>63.0</ele><time>2026-04-25T11:43:08.905Z</time></trkpt><trkpt lat="34.9036792" lon="10.7578078"><ele>62.66666666666667</ele><time>2026-04-25T11:43:09.889Z</time></trkpt><trkpt lat="34.9034954" lon="10.7578985"><ele>62.333333333333336</ele><time>2026-04-25T11:43:10.9Z</time></trkpt><trkpt lat="34.9033126" lon="10.7579883"><ele>62.0</ele><time>2026-04-25T11:43:11.899Z</time></trkpt><trkpt lat="34.9031329" lon="10.758081"><ele>62.0</ele><time>2026-04-25T11:43:12.908Z</time></trkpt><trkpt lat="34.902954" lon="10.7581731"><ele>62.0</ele><time>2026-04-25T11:43:13.902Z</time></trkpt><trkpt lat="34.90277" lon="10.7582636"><ele>62.0</ele><time>2026-04-25T11:43:14.912Z</time></trkpt><trkpt lat="34.902581" lon="10.7583533"><ele>62.333333333333336</ele><time>2026-04-25T11:43:15.897Z</time></trkpt><trkpt lat="34.9023952" lon="10.7584413"><ele>62.66666666666667</ele><time>2026-04-25T11:43:16.888Z</time></trkpt><trkpt lat="34.902213" lon="10.758531"><ele>63.0</ele><time>2026-04-25T11:43:17.899Z</time></trkpt><trkpt lat="34.9020299" lon="10.7586238"><ele>62.66666666666667</ele><time>2026-04-25T11:43:18.89Z</time></trkpt><trkpt lat="34.9018467" lon="10.758712"><ele>62.333333333333336</ele><time>2026-04-25T11:43:19.896Z</time></trkpt><trkpt lat="34.901666" lon="10.7588013"><ele>62.0</ele><time>2026-04-25T11:43:20.916Z</time></trkpt><trkpt lat="34.901487" lon="10.7588918"><ele>62.0</ele><time>2026-04-25T11:43:21.887Z</time></trkpt><trkpt lat="34.9013014" lon="10.7589807"><ele>62.0</ele><time>2026-04-25T11:43:22.896Z</time></trkpt><trkpt lat="34.9011179" lon="10.7590691"><ele>62.0</ele><time>2026-04-25T11:43:23.889Z</time></trkpt><trkpt lat="34.9009356" lon="10.7591568"><ele>61.66666666666667</ele><time>2026-04-25T11:43:24.894Z</time></trkpt><trkpt lat="34.9007542" lon="10.7592472"><ele>61.33333333333333</ele><time>2026-04-25T11:43:25.905Z</time></trkpt><trkpt lat="34.9005688" lon="10.759335"><ele>61.0</ele><time>2026-04-25T11:43:26.892Z</time></trkpt><trkpt lat="34.9003819" lon="10.7594252"><ele>60.666666666666664</ele><time>2026-04-25T11:43:27.909Z</time></trkpt><trkpt lat="34.9002011" lon="10.7595156"><ele>60.33333333333333</ele><time>2026-04-25T11:43:28.898Z</time></trkpt><trkpt lat="34.9000189" lon="10.7596069"><ele>60.0</ele><time>2026-04-25T11:43:29.928Z</time></trkpt><trkpt lat="34.8998313" lon="10.7596976"><ele>60.0</ele><time>2026-04-25T11:43:30.917Z</time></trkpt><trkpt lat="34.8996466" lon="10.759788"><ele>60.0</ele><time>2026-04-25T11:43:31.902Z</time></trkpt><trkpt lat="34.899463" lon="10.7598788"><ele>60.0</ele><time>2026-04-25T11:43:32.889Z</time></trkpt><trkpt lat="34.8992767" lon="10.7599711"><ele>59.66666666666667</ele><time>2026-04-25T11:43:33.906Z</time></trkpt><trkpt lat="34.8990956" lon="10.7600579"><ele>59.333333333333336</ele><time>2026-04-25T11:43:34.902Z</time></trkpt><trkpt lat="34.8989169" lon="10.760149"><ele>59.0</ele><time>2026-04-25T11:43:35.905Z</time></trkpt><trkpt lat="34.8987366" lon="10.7602405"><ele>59.0</ele><time>2026-04-25T11:43:36.89Z</time></trkpt><trkpt lat="34.8985551" lon="10.7603254"><ele>59.0</ele><time>2026-04-25T11:43:37.901Z</time></trkpt><trkpt lat="34.8983748" lon="10.7604158"><ele>59.0</ele><time>2026-04-25T11:43:38.928Z</time></trkpt><trkpt lat="34.8981911" lon="10.7605091"><ele>59.66666666666667</ele><time>2026-04-25T11:43:39.907Z</time></trkpt><trkpt lat="34.8980079" lon="10.760603"><ele>60.33333333333333</ele><time>2026-04-25T11:43:40.898Z</time></trkpt><trkpt lat="34.8978224" lon="10.7606952"><ele>61.0</ele><time>2026-04-25T11:43:41.901Z</time></trkpt><trkpt lat="34.8976384" lon="10.7607852"><ele>61.33333333333333</ele><time>2026-04-25T11:43:42.897Z</time></trkpt><trkpt lat="34.897453" lon="10.7608749"><ele>61.66666666666667</ele><time>2026-04-25T11:43:43.903Z</time></trkpt><trkpt lat="34.8972684" lon="10.7609681"><ele>62.0</ele><time>2026-04-25T11:43:44.881Z</time></trkpt><trkpt lat="34.897086" lon="10.7610584"><ele>61.333333333333336</ele><time>2026-04-25T11:43:45.902Z</time></trkpt><trkpt lat="34.8969038" lon="10.76115"><ele>60.66666666666667</ele><time>2026-04-25T11:43:46.904Z</time></trkpt><trkpt lat="34.8967206" lon="10.7612406"><ele>60.0</ele><time>2026-04-25T11:43:47.903Z</time></trkpt><trkpt lat="34.8965386" lon="10.7613292"><ele>60.0</ele><time>2026-04-25T11:43:48.89Z</time></trkpt><trkpt lat="34.8963522" lon="10.7614164"><ele>60.0</ele><time>2026-04-25T11:43:49.886Z</time></trkpt><trkpt lat="34.8961709" lon="10.7615055"><ele>60.0</ele><time>2026-04-25T11:43:50.892Z</time></trkpt><trkpt lat="34.8959891" lon="10.7616012"><ele>59.66666666666667</ele><time>2026-04-25T11:43:51.899Z</time></trkpt><trkpt lat="34.895807" lon="10.7616957"><ele>59.333333333333336</ele><time>2026-04-25T11:43:52.885Z</time></trkpt><trkpt lat="34.8956242" lon="10.7617887"><ele>59.0</ele><time>2026-04-25T11:43:53.888Z</time></trkpt><trkpt lat="34.895443" lon="10.7618826"><ele>58.66666666666667</ele><time>2026-04-25T11:43:54.894Z</time></trkpt><trkpt lat="34.8952568" lon="10.7619617"><ele>58.33333333333333</ele><time>2026-04-25T11:43:55.897Z</time></trkpt><trkpt lat="34.8950681" lon="10.7620329"><ele>58.0</ele><time>2026-04-25T11:43:56.891Z</time></trkpt><trkpt lat="34.8948763" lon="10.7620926"><ele>58.0</ele><time>2026-04-25T11:43:57.904Z</time></trkpt><trkpt lat="34.8946881" lon="10.7621429"><ele>58.0</ele><time>2026-04-25T11:43:58.884Z</time></trkpt><trkpt lat="34.8944977" lon="10.7621907"><ele>58.0</ele><time>2026-04-25T11:43:59.899Z</time></trkpt><trkpt lat="34.8943035" lon="10.76223"><ele>57.666666666666664</ele><time>2026-04-25T11:44:00.884Z</time></trkpt><trkpt lat="34.894106" lon="10.7622657"><ele>57.33333333333333</ele><time>2026-04-25T11:44:01.895Z</time></trkpt><trkpt lat="34.8939092" lon="10.762303"><ele>57.0</ele><time>2026-04-25T11:44:02.896Z</time></trkpt><trkpt lat="34.893712" lon="10.7623412"><ele>57.0</ele><time>2026-04-25T11:44:03.891Z</time></trkpt><trkpt lat="34.8935156" lon="10.7623761"><ele>57.0</ele><time>2026-04-25T11:44:04.889Z</time></trkpt><trkpt lat="34.8933207" lon="10.7624112"><ele>57.0</ele><time>2026-04-25T11:44:05.9Z</time></trkpt><trkpt lat="34.8931325" lon="10.7624452"><ele>57.33333333333333</ele><time>2026-04-25T11:44:06.889Z</time></trkpt><trkpt lat="34.8929519" lon="10.7624746"><ele>57.666666666666664</ele><time>2026-04-25T11:44:07.891Z</time></trkpt><trkpt lat="34.89278" lon="10.7625061"><ele>58.0</ele><time>2026-04-25T11:44:08.902Z</time></trkpt><trkpt lat="34.8926189" lon="10.7625378"><ele>57.666666666666664</ele><time>2026-04-25T11:44:09.891Z</time></trkpt><trkpt lat="34.8924583" lon="10.7625654"><ele>57.33333333333333</ele><time>2026-04-25T11:44:10.904Z</time></trkpt><trkpt lat="34.8923005" lon="10.7625876"><ele>57.0</ele><time>2026-04-25T11:44:11.905Z</time></trkpt><trkpt lat="34.8921388" lon="10.7626067"><ele>57.0</ele><time>2026-04-25T11:44:12.9Z</time></trkpt><trkpt lat="34.8919741" lon="10.7626355"><ele>57.0</ele><time>2026-04-25T11:44:13.893Z</time></trkpt><trkpt lat="34.8918076" lon="10.7626699"><ele>57.0</ele><time>2026-04-25T11:44:14.898Z</time></trkpt><trkpt lat="34.8916394" lon="10.762702"><ele>56.0</ele><time>2026-04-25T11:44:15.895Z</time></trkpt><trkpt lat="34.8914653" lon="10.7627335"><ele>55.0</ele><time>2026-04-25T11:44:16.888Z</time></trkpt><trkpt lat="34.8912885" lon="10.762764"><ele>54.0</ele><time>2026-04-25T11:44:17.9Z</time></trkpt><trkpt lat="34.8911147" lon="10.7627956"><ele>54.0</ele><time>2026-04-25T11:44:18.919Z</time></trkpt><trkpt lat="34.8909332" lon="10.7628204"><ele>54.0</ele><time>2026-04-25T11:44:19.9Z</time></trkpt><trkpt lat="34.8907525" lon="10.7628392"><ele>54.0</ele><time>2026-04-25T11:44:20.889Z</time></trkpt><trkpt lat="34.8905738" lon="10.7628435"><ele>53.66666666666667</ele><time>2026-04-25T11:44:21.901Z</time></trkpt><trkpt lat="34.8903903" lon="10.7628357"><ele>53.333333333333336</ele><time>2026-04-25T11:44:22.897Z</time></trkpt><trkpt lat="34.8902065" lon="10.7628197"><ele>53.0</ele><time>2026-04-25T11:44:23.897Z</time></trkpt><trkpt lat="34.8900262" lon="10.7627953"><ele>53.0</ele><time>2026-04-25T11:44:24.9Z</time></trkpt><trkpt lat="34.8898491" lon="10.7627687"><ele>53.0</ele><time>2026-04-25T11:44:25.907Z</time></trkpt><trkpt lat="34.8896701" lon="10.7627466"><ele>53.0</ele><time>2026-04-25T11:44:26.881Z</time></trkpt><trkpt lat="34.8894939" lon="10.7627253"><ele>54.0</ele><time>2026-04-25T11:44:27.902Z</time></trkpt><trkpt lat="34.889313" lon="10.7626961"><ele>55.0</ele><time>2026-04-25T11:44:28.881Z</time></trkpt><trkpt lat="34.8891376" lon="10.7626658"><ele>56.0</ele><time>2026-04-25T11:44:29.879Z</time></trkpt><trkpt lat="34.8889632" lon="10.7626357"><ele>56.0</ele><time>2026-04-25T11:44:30.88Z</time></trkpt><trkpt lat="34.8887925" lon="10.7626109"><ele>56.0</ele><time>2026-04-25T11:44:31.881Z</time></trkpt><trkpt lat="34.8886247" lon="10.7625865"><ele>56.0</ele><time>2026-04-25T11:44:32.87Z</time></trkpt><trkpt lat="34.8884651" lon="10.7625641"><ele>55.5</ele><time>2026-04-25T11:44:33.882Z</time></trkpt><trkpt lat="34.8883233" lon="10.7625434"><ele>55.0</ele><time>2026-04-25T11:44:34.902Z</time></trkpt><trkpt lat="34.8882" lon="10.7625281"><ele>54.5</ele><time>2026-04-25T11:44:35.89Z</time></trkpt><trkpt lat="34.88809" lon="10.7625132"><ele>54.0</ele><time>2026-04-25T11:44:36.898Z</time></trkpt><trkpt lat="34.887999" lon="10.7624998"><ele>54.0</ele><time>2026-04-25T11:44:37.897Z</time></trkpt><trkpt lat="34.8879157" lon="10.7624842"><ele>54.00000000000001</ele><time>2026-04-25T11:44:38.9Z</time></trkpt><trkpt lat="34.8878301" lon="10.7624707"><ele>54.00000000000001</ele><time>2026-04-25T11:44:39.899Z</time></trkpt><trkpt lat="34.8877308" lon="10.7624556"><ele>54.0</ele><time>2026-04-25T11:44:40.902Z</time></trkpt><trkpt lat="34.887618" lon="10.7624347"><ele>54.0</ele><time>2026-04-25T11:44:41.896Z</time></trkpt><trkpt lat="34.8875033" lon="10.7624124"><ele>53.75</ele><time>2026-04-25T11:44:42.893Z</time></trkpt><trkpt lat="34.8873891" lon="10.7623949"><ele>53.5</ele><time>2026-04-25T11:44:43.89Z</time></trkpt><trkpt lat="34.8872707" lon="10.7623782"><ele>53.25</ele><time>2026-04-25T11:44:44.917Z</time></trkpt><trkpt lat="34.8871458" lon="10.7623559"><ele>53.0</ele><time>2026-04-25T11:44:45.904Z</time></trkpt><trkpt lat="34.88702" lon="10.7623328"><ele>53.0</ele><time>2026-04-25T11:44:46.9Z</time></trkpt><trkpt lat="34.8868932" lon="10.7623092"><ele>53.0</ele><time>2026-04-25T11:44:47.907Z</time></trkpt><trkpt lat="34.8867606" lon="10.7622876"><ele>53.0</ele><time>2026-04-25T11:44:48.901Z</time></trkpt><trkpt lat="34.8866276" lon="10.7622692"><ele>53.0</ele><time>2026-04-25T11:44:49.908Z</time></trkpt><trkpt lat="34.8864901" lon="10.7622511"><ele>53.0</ele><time>2026-04-25T11:44:50.897Z</time></trkpt><trkpt lat="34.8863558" lon="10.7622301"><ele>53.0</ele><time>2026-04-25T11:44:51.896Z</time></trkpt><trkpt lat="34.8862229" lon="10.7622063"><ele>53.0</ele><time>2026-04-25T11:44:52.902Z</time></trkpt><trkpt lat="34.8860891" lon="10.7621777"><ele>53.0</ele><time>2026-04-25T11:44:53.89Z</time></trkpt><trkpt lat="34.8859594" lon="10.7621403"><ele>52.75</ele><time>2026-04-25T11:44:54.896Z</time></trkpt><trkpt lat="34.8858142" lon="10.7620948"><ele>52.5</ele><time>2026-04-25T11:44:55.907Z</time></trkpt><trkpt lat="34.8856845" lon="10.7620372"><ele>52.25</ele><time>2026-04-25T11:44:56.893Z</time></trkpt><trkpt lat="34.8855557" lon="10.7619739"><ele>52.0</ele><time>2026-04-25T11:44:57.905Z</time></trkpt><trkpt lat="34.8854292" lon="10.7619036"><ele>52.25</ele><time>2026-04-25T11:44:58.909Z</time></trkpt><trkpt lat="34.8853015" lon="10.7618324"><ele>52.5</ele><time>2026-04-25T11:44:59.922Z</time></trkpt><trkpt lat="34.8851729" lon="10.7617623"><ele>52.75</ele><time>2026-04-25T11:45:00.906Z</time></trkpt><trkpt lat="34.8850461" lon="10.7616899"><ele>53.0</ele><time>2026-04-25T11:45:01.89Z</time></trkpt><trkpt lat="34.8849193" lon="10.761618"><ele>53.0</ele><time>2026-04-25T11:45:02.892Z</time></trkpt><trkpt lat="34.88479" lon="10.7615475"><ele>53.0</ele><time>2026-04-25T11:45:03.883Z</time></trkpt><trkpt lat="34.8846578" lon="10.7614778"><ele>53.0</ele><time>2026-04-25T11:45:04.895Z</time></trkpt><trkpt lat="34.8845238" lon="10.7614025"><ele>53.0</ele><time>2026-04-25T11:45:05.888Z</time></trkpt><trkpt lat="34.8843875" lon="10.7613236"><ele>53.0</ele><time>2026-04-25T11:45:06.894Z</time></trkpt><trkpt lat="34.8842546" lon="10.7612496"><ele>53.0</ele><time>2026-04-25T11:45:07.903Z</time></trkpt><trkpt lat="34.8841176" lon="10.7611706"><ele>53.0</ele><time>2026-04-25T11:45:08.894Z</time></trkpt><trkpt lat="34.8839829" lon="10.7610899"><ele>53.0</ele><time>2026-04-25T11:45:09.892Z</time></trkpt><trkpt lat="34.8838457" lon="10.7610087"><ele>52.66666666666667</ele><time>2026-04-25T11:45:10.903Z</time></trkpt><trkpt lat="34.8837071" lon="10.7609263"><ele>52.33333333333333</ele><time>2026-04-25T11:45:11.899Z</time></trkpt><trkpt lat="34.8835665" lon="10.7608483"><ele>52.0</ele><time>2026-04-25T11:45:12.895Z</time></trkpt><trkpt lat="34.883424" lon="10.7607693"><ele>52.0</ele><time>2026-04-25T11:45:13.895Z</time></trkpt><trkpt lat="34.8832801" lon="10.7606934"><ele>52.0</ele><time>2026-04-25T11:45:14.895Z</time></trkpt><trkpt lat="34.8831362" lon="10.7606184"><ele>52.0</ele><time>2026-04-25T11:45:15.9Z</time></trkpt><trkpt lat="34.8829944" lon="10.7605423"><ele>52.0</ele><time>2026-04-25T11:45:16.901Z</time></trkpt><trkpt lat="34.8828557" lon="10.7604647"><ele>52.0</ele><time>2026-04-25T11:45:17.905Z</time></trkpt><trkpt lat="34.8827205" lon="10.7603885"><ele>52.0</ele><time>2026-04-25T11:45:18.897Z</time></trkpt><trkpt lat="34.8825878" lon="10.7603134"><ele>52.0</ele><time>2026-04-25T11:45:19.899Z</time></trkpt><trkpt lat="34.8824581" lon="10.7602395"><ele>52.5</ele><time>2026-04-25T11:45:20.894Z</time></trkpt><trkpt lat="34.8823287" lon="10.7601648"><ele>53.0</ele><time>2026-04-25T11:45:21.905Z</time></trkpt><trkpt lat="34.8822068" lon="10.7600943"><ele>53.5</ele><time>2026-04-25T11:45:22.9Z</time></trkpt><trkpt lat="34.8820903" lon="10.7600275"><ele>54.0</ele><time>2026-04-25T11:45:23.899Z</time></trkpt><trkpt lat="34.8819809" lon="10.7599613"><ele>54.0</ele><time>2026-04-25T11:45:24.896Z</time></trkpt><trkpt lat="34.8818725" lon="10.759895"><ele>54.0</ele><time>2026-04-25T11:45:25.905Z</time></trkpt><trkpt lat="34.8817612" lon="10.7598318"><ele>54.0</ele><time>2026-04-25T11:45:26.894Z</time></trkpt><trkpt lat="34.8816455" lon="10.7597664"><ele>54.0</ele><time>2026-04-25T11:45:27.897Z</time></trkpt><trkpt lat="34.8815273" lon="10.7596997"><ele>53.5</ele><time>2026-04-25T11:45:28.9Z</time></trkpt><trkpt lat="34.8814029" lon="10.7596297"><ele>53.0</ele><time>2026-04-25T11:45:29.892Z</time></trkpt><trkpt lat="34.8812743" lon="10.7595587"><ele>52.5</ele><time>2026-04-25T11:45:30.904Z</time></trkpt><trkpt lat="34.881146" lon="10.7594869"><ele>52.0</ele><time>2026-04-25T11:45:31.9Z</time></trkpt><trkpt lat="34.8810169" lon="10.7594122"><ele>51.5</ele><time>2026-04-25T11:45:32.877Z</time></trkpt><trkpt lat="34.8808845" lon="10.7593386"><ele>51.0</ele><time>2026-04-25T11:45:33.889Z</time></trkpt><trkpt lat="34.8807504" lon="10.7592647"><ele>50.5</ele><time>2026-04-25T11:45:34.895Z</time></trkpt><trkpt lat="34.880613" lon="10.7591887"><ele>50.0</ele><time>2026-04-25T11:45:35.913Z</time></trkpt><trkpt lat="34.8804759" lon="10.7591121"><ele>50.0</ele><time>2026-04-25T11:45:36.9Z</time></trkpt><trkpt lat="34.8803385" lon="10.7590337"><ele>50.0</ele><time>2026-04-25T11:45:37.892Z</time></trkpt><trkpt lat="34.8802024" lon="10.7589551"><ele>50.0</ele><time>2026-04-25T11:45:38.893Z</time></trkpt><trkpt lat="34.8800679" lon="10.7588771"><ele>49.5</ele><time>2026-04-25T11:45:39.907Z</time></trkpt><trkpt lat="34.8799346" lon="10.7587999"><ele>49.0</ele><time>2026-04-25T11:45:40.9Z</time></trkpt><trkpt lat="34.8798026" lon="10.7587227"><ele>48.5</ele><time>2026-04-25T11:45:41.89Z</time></trkpt><trkpt lat="34.8796716" lon="10.7586483"><ele>48.0</ele><time>2026-04-25T11:45:42.888Z</time></trkpt><trkpt lat="34.8795405" lon="10.7585741"><ele>48.0</ele><time>2026-04-25T11:45:43.905Z</time></trkpt><trkpt lat="34.8794107" lon="10.7585014"><ele>48.0</ele><time>2026-04-25T11:45:44.901Z</time></trkpt><trkpt lat="34.8792813" lon="10.7584288"><ele>48.0</ele><time>2026-04-25T11:45:45.893Z</time></trkpt><trkpt lat="34.8791511" lon="10.7583564"><ele>48.0</ele><time>2026-04-25T11:45:46.891Z</time></trkpt><trkpt lat="34.8790223" lon="10.7582838"><ele>48.25</ele><time>2026-04-25T11:45:47.906Z</time></trkpt><trkpt lat="34.8788924" lon="10.7582093"><ele>48.5</ele><time>2026-04-25T11:45:48.897Z</time></trkpt><trkpt lat="34.878765" lon="10.7581371"><ele>48.75</ele><time>2026-04-25T11:45:49.903Z</time></trkpt><trkpt lat="34.8786421" lon="10.7580671"><ele>49.0</ele><time>2026-04-25T11:45:50.891Z</time></trkpt><trkpt lat="34.8785239" lon="10.7579997"><ele>49.0</ele><time>2026-04-25T11:45:51.894Z</time></trkpt><trkpt lat="34.8784086" lon="10.757937"><ele>49.0</ele><time>2026-04-25T11:45:52.898Z</time></trkpt><trkpt lat="34.8783001" lon="10.7578768"><ele>49.0</ele><time>2026-04-25T11:45:53.89Z</time></trkpt><trkpt lat="34.8781962" lon="10.7578175"><ele>49.0</ele><time>2026-04-25T11:45:54.89Z</time></trkpt><trkpt lat="34.8780845" lon="10.7577571"><ele>49.25</ele><time>2026-04-25T11:45:55.904Z</time></trkpt><trkpt lat="34.8779697" lon="10.7576971"><ele>49.5</ele><time>2026-04-25T11:45:56.902Z</time></trkpt><trkpt lat="34.8778551" lon="10.7576342"><ele>49.75</ele><time>2026-04-25T11:45:57.905Z</time></trkpt><trkpt lat="34.8777403" lon="10.7575685"><ele>50.0</ele><time>2026-04-25T11:45:58.904Z</time></trkpt><trkpt lat="34.8776228" lon="10.7575054"><ele>49.25</ele><time>2026-04-25T11:45:59.899Z</time></trkpt><trkpt lat="34.8775027" lon="10.7574433"><ele>48.5</ele><time>2026-04-25T11:46:00.899Z</time></trkpt><trkpt lat="34.8773794" lon="10.7573816"><ele>47.75</ele><time>2026-04-25T11:46:01.893Z</time></trkpt><trkpt lat="34.877252" lon="10.7573134"><ele>47.0</ele><time>2026-04-25T11:46:02.895Z</time></trkpt><trkpt lat="34.8771196" lon="10.7572476"><ele>47.0</ele><time>2026-04-25T11:46:03.884Z</time></trkpt><trkpt lat="34.8769837" lon="10.7571818"><ele>47.0</ele><time>2026-04-25T11:46:04.9Z</time></trkpt><trkpt lat="34.8768472" lon="10.7571122"><ele>47.0</ele><time>2026-04-25T11:46:05.902Z</time></trkpt><trkpt lat="34.8767069" lon="10.7570402"><ele>47.0</ele><time>2026-04-25T11:46:06.898Z</time></trkpt><trkpt lat="34.876572" lon="10.7569713"><ele>47.0</ele><time>2026-04-25T11:46:07.895Z</time></trkpt><trkpt lat="34.8764353" lon="10.7569037"><ele>47.0</ele><time>2026-04-25T11:46:08.908Z</time></trkpt><trkpt lat="34.8762984" lon="10.7568343"><ele>47.0</ele><time>2026-04-25T11:46:09.904Z</time></trkpt><trkpt lat="34.8761571" lon="10.7567626"><ele>47.0</ele><time>2026-04-25T11:46:10.901Z</time></trkpt><trkpt lat="34.8760177" lon="10.7566899"><ele>46.0</ele><time>2026-04-25T11:46:11.9Z</time></trkpt><trkpt lat="34.8758768" lon="10.7566177"><ele>45.0</ele><time>2026-04-25T11:46:12.897Z</time></trkpt><trkpt lat="34.8757357" lon="10.7565422"><ele>44.0</ele><time>2026-04-25T11:46:13.9Z</time></trkpt><trkpt lat="34.8755919" lon="10.7564658"><ele>44.0</ele><time>2026-04-25T11:46:14.908Z</time></trkpt><trkpt lat="34.8754495" lon="10.7563923"><ele>44.0</ele><time>2026-04-25T11:46:15.906Z</time></trkpt><trkpt lat="34.8753024" lon="10.7563206"><ele>44.0</ele><time>2026-04-25T11:46:16.898Z</time></trkpt><trkpt lat="34.8751553" lon="10.7562563"><ele>44.0</ele><time>2026-04-25T11:46:17.91Z</time></trkpt><trkpt lat="34.8750044" lon="10.7561922"><ele>44.0</ele><time>2026-04-25T11:46:18.903Z</time></trkpt><trkpt lat="34.874854" lon="10.7561387"><ele>44.0</ele><time>2026-04-25T11:46:19.906Z</time></trkpt><trkpt lat="34.8746986" lon="10.7560864"><ele>44.0</ele><time>2026-04-25T11:46:20.892Z</time></trkpt><trkpt lat="34.8745426" lon="10.7560437"><ele>44.0</ele><time>2026-04-25T11:46:21.898Z</time></trkpt><trkpt lat="34.8743842" lon="10.7560051"><ele>44.0</ele><time>2026-04-25T11:46:22.896Z</time></trkpt><trkpt lat="34.8742258" lon="10.7559699"><ele>45.0</ele><time>2026-04-25T11:46:23.907Z</time></trkpt><trkpt lat="34.8740673" lon="10.7559415"><ele>46.0</ele><time>2026-04-25T11:46:24.894Z</time></trkpt><trkpt lat="34.8739081" lon="10.7559191"><ele>47.0</ele><time>2026-04-25T11:46:25.905Z</time></trkpt><trkpt lat="34.8737503" lon="10.755901"><ele>47.0</ele><time>2026-04-25T11:46:26.908Z</time></trkpt><trkpt lat="34.8735929" lon="10.7558894"><ele>47.0</ele><time>2026-04-25T11:46:27.895Z</time></trkpt><trkpt lat="34.8734338" lon="10.7558813"><ele>47.0</ele><time>2026-04-25T11:46:28.884Z</time></trkpt><trkpt lat="34.8732754" lon="10.7558747"><ele>46.33333333333333</ele><time>2026-04-25T11:46:29.908Z</time></trkpt><trkpt lat="34.8731161" lon="10.7558703"><ele>45.666666666666664</ele><time>2026-04-25T11:46:30.906Z</time></trkpt><trkpt lat="34.8729568" lon="10.755871"><ele>45.0</ele><time>2026-04-25T11:46:31.891Z</time></trkpt><trkpt lat="34.8727992" lon="10.7558699"><ele>45.0</ele><time>2026-04-25T11:46:32.911Z</time></trkpt><trkpt lat="34.8726426" lon="10.755867"><ele>45.0</ele><time>2026-04-25T11:46:33.908Z</time></trkpt><trkpt lat="34.8724847" lon="10.7558632"><ele>45.0</ele><time>2026-04-25T11:46:34.889Z</time></trkpt><trkpt lat="34.8723243" lon="10.7558647"><ele>45.666666666666664</ele><time>2026-04-25T11:46:35.891Z</time></trkpt><trkpt lat="34.8721642" lon="10.7558678"><ele>46.33333333333333</ele><time>2026-04-25T11:46:36.907Z</time></trkpt><trkpt lat="34.8720043" lon="10.7558742"><ele>47.0</ele><time>2026-04-25T11:46:37.897Z</time></trkpt><trkpt lat="34.8718408" lon="10.755893"><ele>47.0</ele><time>2026-04-25T11:46:38.899Z</time></trkpt><trkpt lat="34.8716772" lon="10.7559207"><ele>47.0</ele><time>2026-04-25T11:46:39.9Z</time></trkpt><trkpt lat="34.871515" lon="10.7559608"><ele>47.0</ele><time>2026-04-25T11:46:40.899Z</time></trkpt><trkpt lat="34.8713536" lon="10.7560112"><ele>47.33333333333333</ele><time>2026-04-25T11:46:41.908Z</time></trkpt><trkpt lat="34.8711927" lon="10.7560704"><ele>47.666666666666664</ele><time>2026-04-25T11:46:42.903Z</time></trkpt><trkpt lat="34.8710342" lon="10.756131"><ele>48.0</ele><time>2026-04-25T11:46:43.906Z</time></trkpt><trkpt lat="34.8708714" lon="10.7561945"><ele>48.0</ele><time>2026-04-25T11:46:44.901Z</time></trkpt><trkpt lat="34.8707135" lon="10.7562579"><ele>48.0</ele><time>2026-04-25T11:46:45.892Z</time></trkpt><trkpt lat="34.8705551" lon="10.7563192"><ele>48.0</ele><time>2026-04-25T11:46:46.912Z</time></trkpt><trkpt lat="34.8703951" lon="10.7563803"><ele>48.0</ele><time>2026-04-25T11:46:47.905Z</time></trkpt><trkpt lat="34.8702344" lon="10.75644"><ele>48.0</ele><time>2026-04-25T11:46:48.894Z</time></trkpt><trkpt lat="34.8700731" lon="10.7564999"><ele>48.0</ele><time>2026-04-25T11:46:49.889Z</time></trkpt><trkpt lat="34.8699138" lon="10.7565609"><ele>47.666666666666664</ele><time>2026-04-25T11:46:50.904Z</time></trkpt><trkpt lat="34.8697564" lon="10.7566211"><ele>47.33333333333333</ele><time>2026-04-25T11:46:51.896Z</time></trkpt><trkpt lat="34.8695967" lon="10.7566829"><ele>47.0</ele><time>2026-04-25T11:46:52.887Z</time></trkpt><trkpt lat="34.8694347" lon="10.7567491"><ele>46.0</ele><time>2026-04-25T11:46:53.917Z</time></trkpt><trkpt lat="34.8692733" lon="10.7568127"><ele>45.0</ele><time>2026-04-25T11:46:54.906Z</time></trkpt><trkpt lat="34.8691121" lon="10.7568752"><ele>44.0</ele><time>2026-04-25T11:46:55.897Z</time></trkpt><trkpt lat="34.8689505" lon="10.7569327"><ele>43.666666666666664</ele><time>2026-04-25T11:46:56.904Z</time></trkpt><trkpt lat="34.8687858" lon="10.7569836"><ele>43.333333333333336</ele><time>2026-04-25T11:46:57.906Z</time></trkpt><trkpt lat="34.8686213" lon="10.7570295"><ele>43.0</ele><time>2026-04-25T11:46:58.901Z</time></trkpt><trkpt lat="34.8684558" lon="10.7570748"><ele>44.0</ele><time>2026-04-25T11:46:59.899Z</time></trkpt><trkpt lat="34.8682933" lon="10.7571167"><ele>45.0</ele><time>2026-04-25T11:47:00.9Z</time></trkpt><trkpt lat="34.8681323" lon="10.7571578"><ele>46.0</ele><time>2026-04-25T11:47:01.909Z</time></trkpt><trkpt lat="34.8679701" lon="10.7571994"><ele>46.0</ele><time>2026-04-25T11:47:02.899Z</time></trkpt><trkpt lat="34.8678091" lon="10.7572391"><ele>46.0</ele><time>2026-04-25T11:47:03.897Z</time></trkpt><trkpt lat="34.8676473" lon="10.7572772"><ele>46.0</ele><time>2026-04-25T11:47:04.877Z</time></trkpt><trkpt lat="34.8674862" lon="10.7573126"><ele>45.66666666666667</ele><time>2026-04-25T11:47:05.902Z</time></trkpt><trkpt lat="34.8673232" lon="10.7573472"><ele>45.333333333333336</ele><time>2026-04-25T11:47:06.9Z</time></trkpt><trkpt lat="34.8671611" lon="10.7573854"><ele>45.0</ele><time>2026-04-25T11:47:07.89Z</time></trkpt><trkpt lat="34.8670019" lon="10.7574234"><ele>45.0</ele><time>2026-04-25T11:47:08.889Z</time></trkpt><trkpt lat="34.866845" lon="10.7574624"><ele>45.0</ele><time>2026-04-25T11:47:09.893Z</time></trkpt><trkpt lat="34.8666838" lon="10.7575023"><ele>45.0</ele><time>2026-04-25T11:47:10.906Z</time></trkpt><trkpt lat="34.8665241" lon="10.7575399"><ele>44.666666666666664</ele><time>2026-04-25T11:47:11.903Z</time></trkpt><trkpt lat="34.8663652" lon="10.7575753"><ele>44.33333333333333</ele><time>2026-04-25T11:47:12.887Z</time></trkpt><trkpt lat="34.8662071" lon="10.7576105"><ele>44.0</ele><time>2026-04-25T11:47:13.908Z</time></trkpt><trkpt lat="34.8660504" lon="10.7576484"><ele>44.0</ele><time>2026-04-25T11:47:14.912Z</time></trkpt><trkpt lat="34.8658979" lon="10.75769"><ele>44.0</ele><time>2026-04-25T11:47:15.899Z</time></trkpt><trkpt lat="34.865742" lon="10.7577292"><ele>44.0</ele><time>2026-04-25T11:47:16.901Z</time></trkpt><trkpt lat="34.8655891" lon="10.7577664"><ele>44.0</ele><time>2026-04-25T11:47:17.898Z</time></trkpt><trkpt lat="34.8654346" lon="10.7578026"><ele>44.0</ele><time>2026-04-25T11:47:18.901Z</time></trkpt><trkpt lat="34.8652828" lon="10.757839"><ele>44.0</ele><time>2026-04-25T11:47:19.903Z</time></trkpt><trkpt lat="34.8651324" lon="10.7578763"><ele>44.0</ele><time>2026-04-25T11:47:20.895Z</time></trkpt><trkpt lat="34.8649849" lon="10.7579137"><ele>44.0</ele><time>2026-04-25T11:47:21.908Z</time></trkpt><trkpt lat="34.8648375" lon="10.7579495"><ele>44.0</ele><time>2026-04-25T11:47:22.905Z</time></trkpt><trkpt lat="34.864692" lon="10.757983"><ele>44.0</ele><time>2026-04-25T11:47:23.902Z</time></trkpt><trkpt lat="34.8645454" lon="10.7580182"><ele>44.0</ele><time>2026-04-25T11:47:24.894Z</time></trkpt><trkpt lat="34.864406" lon="10.7580524"><ele>44.0</ele><time>2026-04-25T11:47:25.894Z</time></trkpt><trkpt lat="34.8642733" lon="10.7580871"><ele>44.0</ele><time>2026-04-25T11:47:26.911Z</time></trkpt><trkpt lat="34.8641401" lon="10.7581197"><ele>44.0</ele><time>2026-04-25T11:47:27.906Z</time></trkpt><trkpt lat="34.8640039" lon="10.7581519"><ele>44.25</ele><time>2026-04-25T11:47:28.897Z</time></trkpt><trkpt lat="34.863867" lon="10.7581837"><ele>44.5</ele><time>2026-04-25T11:47:29.907Z</time></trkpt><trkpt lat="34.8637285" lon="10.7582139"><ele>44.75</ele><time>2026-04-25T11:47:30.899Z</time></trkpt><trkpt lat="34.8635912" lon="10.7582461"><ele>45.0</ele><time>2026-04-25T11:47:31.923Z</time></trkpt><trkpt lat="34.8634501" lon="10.7582798"><ele>45.0</ele><time>2026-04-25T11:47:32.893Z</time></trkpt><trkpt lat="34.8633097" lon="10.7583123"><ele>45.0</ele><time>2026-04-25T11:47:33.902Z</time></trkpt><trkpt lat="34.8631677" lon="10.7583446"><ele>45.0</ele><time>2026-04-25T11:47:34.903Z</time></trkpt><trkpt lat="34.8630261" lon="10.7583793"><ele>45.0</ele><time>2026-04-25T11:47:35.908Z</time></trkpt><trkpt lat="34.862883" lon="10.7584176"><ele>45.0</ele><time>2026-04-25T11:47:36.894Z</time></trkpt><trkpt lat="34.8627371" lon="10.7584539"><ele>45.0</ele><time>2026-04-25T11:47:37.911Z</time></trkpt><trkpt lat="34.8625886" lon="10.7584891"><ele>45.0</ele><time>2026-04-25T11:47:38.905Z</time></trkpt><trkpt lat="34.8624444" lon="10.7585239"><ele>45.0</ele><time>2026-04-25T11:47:39.908Z</time></trkpt><trkpt lat="34.862296" lon="10.7585602"><ele>45.333333333333336</ele><time>2026-04-25T11:47:40.89Z</time></trkpt><trkpt lat="34.8621465" lon="10.7585948"><ele>45.66666666666667</ele><time>2026-04-25T11:47:41.897Z</time></trkpt><trkpt lat="34.8619954" lon="10.7586283"><ele>46.0</ele><time>2026-04-25T11:47:42.895Z</time></trkpt><trkpt lat="34.8618422" lon="10.7586633"><ele>45.333333333333336</ele><time>2026-04-25T11:47:43.897Z</time></trkpt><trkpt lat="34.8616849" lon="10.7587015"><ele>44.666666666666664</ele><time>2026-04-25T11:47:44.901Z</time></trkpt><trkpt lat="34.8615277" lon="10.7587399"><ele>44.0</ele><time>2026-04-25T11:47:45.905Z</time></trkpt><trkpt lat="34.8613677" lon="10.7587781"><ele>44.0</ele><time>2026-04-25T11:47:46.906Z</time></trkpt><trkpt lat="34.8612081" lon="10.7588164"><ele>44.0</ele><time>2026-04-25T11:47:47.904Z</time></trkpt><trkpt lat="34.8610407" lon="10.7588555"><ele>44.0</ele><time>2026-04-25T11:47:48.899Z</time></trkpt><trkpt lat="34.8608727" lon="10.7588972"><ele>44.0</ele><time>2026-04-25T11:47:49.908Z</time></trkpt><trkpt lat="34.8607011" lon="10.758939"><ele>44.0</ele><time>2026-04-25T11:47:50.904Z</time></trkpt><trkpt lat="34.8605302" lon="10.7589809"><ele>44.0</ele><time>2026-04-25T11:47:51.907Z</time></trkpt><trkpt lat="34.8603591" lon="10.7590205"><ele>44.0</ele><time>2026-04-25T11:47:52.898Z</time></trkpt><trkpt lat="34.8601919" lon="10.7590613"><ele>44.0</ele><time>2026-04-25T11:47:53.904Z</time></trkpt><trkpt lat="34.8600245" lon="10.7590998"><ele>44.0</ele><time>2026-04-25T11:47:54.894Z</time></trkpt><trkpt lat="34.85986" lon="10.7591387"><ele>43.666666666666664</ele><time>2026-04-25T11:47:55.902Z</time></trkpt><trkpt lat="34.8596967" lon="10.7591771"><ele>43.333333333333336</ele><time>2026-04-25T11:47:56.894Z</time></trkpt><trkpt lat="34.8595392" lon="10.7592161"><ele>43.0</ele><time>2026-04-25T11:47:57.906Z</time></trkpt><trkpt lat="34.8593828" lon="10.7592537"><ele>42.66666666666667</ele><time>2026-04-25T11:47:58.896Z</time></trkpt><trkpt lat="34.8592267" lon="10.7592921"><ele>42.333333333333336</ele><time>2026-04-25T11:47:59.903Z</time></trkpt><trkpt lat="34.8590757" lon="10.7593286"><ele>42.0</ele><time>2026-04-25T11:48:00.89Z</time></trkpt><trkpt lat="34.8589247" lon="10.7593655"><ele>41.666666666666664</ele><time>2026-04-25T11:48:01.91Z</time></trkpt><trkpt lat="34.8587745" lon="10.7594034"><ele>41.33333333333333</ele><time>2026-04-25T11:48:02.911Z</time></trkpt><trkpt lat="34.8586268" lon="10.7594431"><ele>41.0</ele><time>2026-04-25T11:48:03.911Z</time></trkpt><trkpt lat="34.8584818" lon="10.7594857"><ele>41.25</ele><time>2026-04-25T11:48:04.884Z</time></trkpt><trkpt lat="34.8583376" lon="10.7595298"><ele>41.5</ele><time>2026-04-25T11:48:05.879Z</time></trkpt><trkpt lat="34.8581947" lon="10.7595769"><ele>41.75</ele><time>2026-04-25T11:48:06.902Z</time></trkpt><trkpt lat="34.8580535" lon="10.7596257"><ele>42.0</ele><time>2026-04-25T11:48:07.905Z</time></trkpt><trkpt lat="34.857912" lon="10.7596769"><ele>42.0</ele><time>2026-04-25T11:48:08.905Z</time></trkpt><trkpt lat="34.8577739" lon="10.7597282"><ele>42.0</ele><time>2026-04-25T11:48:09.905Z</time></trkpt><trkpt lat="34.8576422" lon="10.7597758"><ele>42.0</ele><time>2026-04-25T11:48:10.903Z</time></trkpt><trkpt lat="34.8575174" lon="10.7598163"><ele>42.0</ele><time>2026-04-25T11:48:11.888Z</time></trkpt><trkpt lat="34.857401" lon="10.7598472"><ele>42.5</ele><time>2026-04-25T11:48:12.912Z</time></trkpt><trkpt lat="34.8572962" lon="10.7598693"><ele>43.0</ele><time>2026-04-25T11:48:13.896Z</time></trkpt><trkpt lat="34.8572153" lon="10.7598877"><ele>43.5</ele><time>2026-04-25T11:48:14.894Z</time></trkpt><trkpt lat="34.8571381" lon="10.7598909"><ele>44.0</ele><time>2026-04-25T11:48:15.893Z</time></trkpt><trkpt lat="34.8570669" lon="10.7598799"><ele>44.5</ele><time>2026-04-25T11:48:16.91Z</time></trkpt><trkpt lat="34.8569664" lon="10.7598365"><ele>45.0</ele><time>2026-04-25T11:48:18.902Z</time></trkpt><trkpt lat="34.8568867" lon="10.7597876"><ele>45.0</ele><time>2026-04-25T11:48:20.916Z</time></trkpt><trkpt lat="34.856817" lon="10.759738"><ele>45.0</ele><time>2026-04-25T11:48:22.906Z</time></trkpt><trkpt lat="34.8567466" lon="10.7596584"><ele>45.0</ele><time>2026-04-25T11:48:24.901Z</time></trkpt><trkpt lat="34.8566749" lon="10.7595593"><ele>45.0</ele><time>2026-04-25T11:48:26.88Z</time></trkpt><trkpt lat="34.8565963" lon="10.7594605"><ele>45.0</ele><time>2026-04-25T11:48:28.907Z</time></trkpt><trkpt lat="34.8565016" lon="10.7593954"><ele>45.0</ele><time>2026-04-25T11:48:30.908Z</time></trkpt><trkpt lat="34.8563711" lon="10.7593614"><ele>45.0</ele><time>2026-04-25T11:48:32.906Z</time></trkpt><trkpt lat="34.8562917" lon="10.7593685"><ele>45.0</ele><time>2026-04-25T11:48:33.904Z</time></trkpt><trkpt lat="34.8562036" lon="10.7593655"><ele>45.0</ele><time>2026-04-25T11:48:34.914Z</time></trkpt><trkpt lat="34.8561075" lon="10.7593527"><ele>45.0</ele><time>2026-04-25T11:48:35.916Z</time></trkpt><trkpt lat="34.8560085" lon="10.759318"><ele>44.75</ele><time>2026-04-25T11:48:36.9Z</time></trkpt><trkpt lat="34.8559089" lon="10.7592627"><ele>44.5</ele><time>2026-04-25T11:48:37.888Z</time></trkpt><trkpt lat="34.8558118" lon="10.7591927"><ele>44.25</ele><time>2026-04-25T11:48:38.898Z</time></trkpt><trkpt lat="34.8557153" lon="10.7591117"><ele>44.0</ele><time>2026-04-25T11:48:39.908Z</time></trkpt><trkpt lat="34.8556142" lon="10.7590181"><ele>44.0</ele><time>2026-04-25T11:48:40.911Z</time></trkpt><trkpt lat="34.8555082" lon="10.7589143"><ele>44.0</ele><time>2026-04-25T11:48:41.902Z</time></trkpt><trkpt lat="34.8553922" lon="10.7587824"><ele>44.0</ele><time>2026-04-25T11:48:42.924Z</time></trkpt><trkpt lat="34.8552736" lon="10.758632"><ele>44.0</ele><time>2026-04-25T11:48:43.904Z</time></trkpt><trkpt lat="34.8551566" lon="10.758474"><ele>44.0</ele><time>2026-04-25T11:48:44.902Z</time></trkpt><trkpt lat="34.8550366" lon="10.7583101"><ele>44.0</ele><time>2026-04-25T11:48:45.898Z</time></trkpt><trkpt lat="34.8549069" lon="10.7581299"><ele>43.5</ele><time>2026-04-25T11:48:46.905Z</time></trkpt><trkpt lat="34.8547624" lon="10.7579299"><ele>43.0</ele><time>2026-04-25T11:48:47.914Z</time></trkpt><trkpt lat="34.8546043" lon="10.7577227"><ele>43.5</ele><time>2026-04-25T11:48:48.905Z</time></trkpt><trkpt lat="34.8544388" lon="10.7575041"><ele>44.0</ele><time>2026-04-25T11:48:49.9Z</time></trkpt><trkpt lat="34.854269" lon="10.7572833"><ele>44.0</ele><time>2026-04-25T11:48:50.898Z</time></trkpt><trkpt lat="34.8541" lon="10.7570595"><ele>44.0</ele><time>2026-04-25T11:48:51.906Z</time></trkpt><trkpt lat="34.8539365" lon="10.7568396"><ele>45.0</ele><time>2026-04-25T11:48:52.912Z</time></trkpt><trkpt lat="34.8537757" lon="10.7566221"><ele>46.0</ele><time>2026-04-25T11:48:53.913Z</time></trkpt><trkpt lat="34.8536127" lon="10.7564041"><ele>45.5</ele><time>2026-04-25T11:48:54.911Z</time></trkpt><trkpt lat="34.8534527" lon="10.7561834"><ele>45.0</ele><time>2026-04-25T11:48:55.912Z</time></trkpt><trkpt lat="34.853288" lon="10.7559645"><ele>45.0</ele><time>2026-04-25T11:48:56.91Z</time></trkpt><trkpt lat="34.8531304" lon="10.755749"><ele>45.0</ele><time>2026-04-25T11:48:57.906Z</time></trkpt><trkpt lat="34.8529681" lon="10.7555338"><ele>45.0</ele><time>2026-04-25T11:48:58.91Z</time></trkpt><trkpt lat="34.852812" lon="10.7553148"><ele>45.0</ele><time>2026-04-25T11:48:59.92Z</time></trkpt><trkpt lat="34.8526508" lon="10.7550957"><ele>44.5</ele><time>2026-04-25T11:49:00.891Z</time></trkpt><trkpt lat="34.8524918" lon="10.7548722"><ele>44.0</ele><time>2026-04-25T11:49:01.896Z</time></trkpt><trkpt lat="34.8523357" lon="10.7546465"><ele>44.0</ele><time>2026-04-25T11:49:02.901Z</time></trkpt><trkpt lat="34.8521807" lon="10.7544193"><ele>44.0</ele><time>2026-04-25T11:49:03.909Z</time></trkpt><trkpt lat="34.8520262" lon="10.7541924"><ele>44.0</ele><time>2026-04-25T11:49:04.896Z</time></trkpt><trkpt lat="34.8518687" lon="10.7539674"><ele>44.0</ele><time>2026-04-25T11:49:05.921Z</time></trkpt><trkpt lat="34.8517091" lon="10.7537498"><ele>44.0</ele><time>2026-04-25T11:49:06.906Z</time></trkpt><trkpt lat="34.8515546" lon="10.7535376"><ele>44.0</ele><time>2026-04-25T11:49:07.888Z</time></trkpt><trkpt lat="34.8514048" lon="10.7533299"><ele>44.0</ele><time>2026-04-25T11:49:08.903Z</time></trkpt><trkpt lat="34.851255" lon="10.7531199"><ele>44.0</ele><time>2026-04-25T11:49:09.911Z</time></trkpt><trkpt lat="34.8511067" lon="10.7529139"><ele>44.0</ele><time>2026-04-25T11:49:10.909Z</time></trkpt><trkpt lat="34.8509613" lon="10.7527107"><ele>44.0</ele><time>2026-04-25T11:49:11.921Z</time></trkpt><trkpt lat="34.8508175" lon="10.7525124"><ele>44.0</ele><time>2026-04-25T11:49:12.909Z</time></trkpt><trkpt lat="34.8506736" lon="10.7523171"><ele>44.0</ele><time>2026-04-25T11:49:13.901Z</time></trkpt><trkpt lat="34.8505371" lon="10.7521276"><ele>44.0</ele><time>2026-04-25T11:49:14.894Z</time></trkpt><trkpt lat="34.8503989" lon="10.7519397"><ele>44.0</ele><time>2026-04-25T11:49:15.91Z</time></trkpt><trkpt lat="34.8502594" lon="10.751751"><ele>43.666666666666664</ele><time>2026-04-25T11:49:16.912Z</time></trkpt><trkpt lat="34.8501189" lon="10.7515643"><ele>43.333333333333336</ele><time>2026-04-25T11:49:17.924Z</time></trkpt><trkpt lat="34.8499783" lon="10.7513724"><ele>43.0</ele><time>2026-04-25T11:49:18.905Z</time></trkpt><trkpt lat="34.8498375" lon="10.7511768"><ele>43.0</ele><time>2026-04-25T11:49:19.916Z</time></trkpt><trkpt lat="34.8496957" lon="10.7509786"><ele>43.0</ele><time>2026-04-25T11:49:20.917Z</time></trkpt><trkpt lat="34.8495533" lon="10.750783"><ele>43.0</ele><time>2026-04-25T11:49:21.905Z</time></trkpt><trkpt lat="34.849413" lon="10.7505893"><ele>43.66666666666667</ele><time>2026-04-25T11:49:22.905Z</time></trkpt><trkpt lat="34.8492726" lon="10.7504003"><ele>44.333333333333336</ele><time>2026-04-25T11:49:23.907Z</time></trkpt><trkpt lat="34.8491347" lon="10.7502087"><ele>45.0</ele><time>2026-04-25T11:49:24.912Z</time></trkpt><trkpt lat="34.8489968" lon="10.7500172"><ele>45.666666666666664</ele><time>2026-04-25T11:49:25.897Z</time></trkpt><trkpt lat="34.8488559" lon="10.7498246"><ele>46.33333333333333</ele><time>2026-04-25T11:49:26.9Z</time></trkpt><trkpt lat="34.8487162" lon="10.7496332"><ele>47.0</ele><time>2026-04-25T11:49:27.9Z</time></trkpt><trkpt lat="34.8485768" lon="10.7494414"><ele>46.666666666666664</ele><time>2026-04-25T11:49:28.911Z</time></trkpt><trkpt lat="34.8484373" lon="10.7492508"><ele>46.333333333333336</ele><time>2026-04-25T11:49:29.911Z</time></trkpt><trkpt lat="34.8482965" lon="10.7490566"><ele>46.0</ele><time>2026-04-25T11:49:30.915Z</time></trkpt><trkpt lat="34.8481563" lon="10.7488675"><ele>46.0</ele><time>2026-04-25T11:49:31.899Z</time></trkpt><trkpt lat="34.8480169" lon="10.7486716"><ele>46.0</ele><time>2026-04-25T11:49:32.904Z</time></trkpt><trkpt lat="34.8478757" lon="10.7484765"><ele>46.0</ele><time>2026-04-25T11:49:33.928Z</time></trkpt><trkpt lat="34.8477397" lon="10.7482781"><ele>46.333333333333336</ele><time>2026-04-25T11:49:34.883Z</time></trkpt><trkpt lat="34.8476007" lon="10.7480822"><ele>46.666666666666664</ele><time>2026-04-25T11:49:35.893Z</time></trkpt><trkpt lat="34.847467" lon="10.7478783"><ele>47.0</ele><time>2026-04-25T11:49:36.895Z</time></trkpt><trkpt lat="34.8473304" lon="10.7476768"><ele>47.33333333333333</ele><time>2026-04-25T11:49:37.905Z</time></trkpt><trkpt lat="34.8471878" lon="10.7474739"><ele>47.666666666666664</ele><time>2026-04-25T11:49:38.923Z</time></trkpt><trkpt lat="34.8470439" lon="10.7472669"><ele>48.0</ele><time>2026-04-25T11:49:39.905Z</time></trkpt><trkpt lat="34.8469023" lon="10.7470569"><ele>47.666666666666664</ele><time>2026-04-25T11:49:40.893Z</time></trkpt><trkpt lat="34.8467596" lon="10.7468456"><ele>47.33333333333333</ele><time>2026-04-25T11:49:41.901Z</time></trkpt><trkpt lat="34.8466188" lon="10.7466336"><ele>47.0</ele><time>2026-04-25T11:49:42.909Z</time></trkpt><trkpt lat="34.8464792" lon="10.7464213"><ele>47.0</ele><time>2026-04-25T11:49:43.912Z</time></trkpt><trkpt lat="34.84634" lon="10.7462065"><ele>47.0</ele><time>2026-04-25T11:49:44.902Z</time></trkpt><trkpt lat="34.8462003" lon="10.7459951"><ele>47.0</ele><time>2026-04-25T11:49:45.906Z</time></trkpt><trkpt lat="34.8460617" lon="10.7457823"><ele>47.5</ele><time>2026-04-25T11:49:46.916Z</time></trkpt><trkpt lat="34.8459219" lon="10.7455694"><ele>48.0</ele><time>2026-04-25T11:49:47.903Z</time></trkpt><trkpt lat="34.845782" lon="10.7453526"><ele>48.0</ele><time>2026-04-25T11:49:48.905Z</time></trkpt><trkpt lat="34.8456422" lon="10.7451356"><ele>48.0</ele><time>2026-04-25T11:49:49.891Z</time></trkpt><trkpt lat="34.8455031" lon="10.7449177"><ele>48.0</ele><time>2026-04-25T11:49:50.913Z</time></trkpt><trkpt lat="34.8453618" lon="10.7447007"><ele>48.0</ele><time>2026-04-25T11:49:51.901Z</time></trkpt><trkpt lat="34.845222" lon="10.7444837"><ele>49.0</ele><time>2026-04-25T11:49:52.914Z</time></trkpt><trkpt lat="34.845082" lon="10.744267"><ele>50.0</ele><time>2026-04-25T11:49:53.918Z</time></trkpt><trkpt lat="34.8449411" lon="10.7440512"><ele>50.0</ele><time>2026-04-25T11:49:54.907Z</time></trkpt><trkpt lat="34.8447993" lon="10.7438354"><ele>50.0</ele><time>2026-04-25T11:49:55.912Z</time></trkpt><trkpt lat="34.8446594" lon="10.7436167"><ele>50.5</ele><time>2026-04-25T11:49:56.906Z</time></trkpt><trkpt lat="34.8445274" lon="10.7433933"><ele>51.0</ele><time>2026-04-25T11:49:57.902Z</time></trkpt><trkpt lat="34.8443952" lon="10.7431735"><ele>50.66666666666667</ele><time>2026-04-25T11:49:58.893Z</time></trkpt><trkpt lat="34.8442632" lon="10.7429526"><ele>50.333333333333336</ele><time>2026-04-25T11:49:59.896Z</time></trkpt><trkpt lat="34.8441257" lon="10.742739"><ele>50.0</ele><time>2026-04-25T11:50:00.894Z</time></trkpt><trkpt lat="34.8439912" lon="10.74253"><ele>50.0</ele><time>2026-04-25T11:50:01.911Z</time></trkpt><trkpt lat="34.8438558" lon="10.7423213"><ele>50.0</ele><time>2026-04-25T11:50:02.898Z</time></trkpt><trkpt lat="34.843723" lon="10.7421156"><ele>50.0</ele><time>2026-04-25T11:50:03.908Z</time></trkpt><trkpt lat="34.8435897" lon="10.7419089"><ele>49.333333333333336</ele><time>2026-04-25T11:50:04.893Z</time></trkpt><trkpt lat="34.8434589" lon="10.7417055"><ele>48.66666666666667</ele><time>2026-04-25T11:50:05.905Z</time></trkpt><trkpt lat="34.8433283" lon="10.7415051"><ele>48.0</ele><time>2026-04-25T11:50:06.904Z</time></trkpt><trkpt lat="34.8432003" lon="10.7413053"><ele>48.0</ele><time>2026-04-25T11:50:07.907Z</time></trkpt><trkpt lat="34.8430705" lon="10.741103"><ele>48.0</ele><time>2026-04-25T11:50:08.909Z</time></trkpt><trkpt lat="34.8429387" lon="10.7409016"><ele>48.0</ele><time>2026-04-25T11:50:09.942Z</time></trkpt><trkpt lat="34.8428058" lon="10.740704"><ele>48.66666666666667</ele><time>2026-04-25T11:50:10.904Z</time></trkpt><trkpt lat="34.8426708" lon="10.7405062"><ele>49.333333333333336</ele><time>2026-04-25T11:50:11.908Z</time></trkpt><trkpt lat="34.8425354" lon="10.7403114"><ele>50.0</ele><time>2026-04-25T11:50:12.925Z</time></trkpt><trkpt lat="34.8423975" lon="10.7401167"><ele>50.0</ele><time>2026-04-25T11:50:13.914Z</time></trkpt><trkpt lat="34.8422581" lon="10.7399238"><ele>50.0</ele><time>2026-04-25T11:50:14.907Z</time></trkpt><trkpt lat="34.8421194" lon="10.7397329"><ele>50.0</ele><time>2026-04-25T11:50:15.921Z</time></trkpt><trkpt lat="34.8419791" lon="10.7395405"><ele>49.66666666666667</ele><time>2026-04-25T11:50:16.939Z</time></trkpt><trkpt lat="34.8418358" lon="10.7393531"><ele>49.33333333333333</ele><time>2026-04-25T11:50:17.907Z</time></trkpt><trkpt lat="34.8416887" lon="10.7391658"><ele>49.0</ele><time>2026-04-25T11:50:18.904Z</time></trkpt><trkpt lat="34.84154" lon="10.7389786"><ele>49.0</ele><time>2026-04-25T11:50:19.9Z</time></trkpt><trkpt lat="34.8413892" lon="10.7387933"><ele>49.0</ele><time>2026-04-25T11:50:20.91Z</time></trkpt><trkpt lat="34.8412359" lon="10.7386079"><ele>49.0</ele><time>2026-04-25T11:50:21.912Z</time></trkpt><trkpt lat="34.841081" lon="10.7384218"><ele>48.666666666666664</ele><time>2026-04-25T11:50:22.912Z</time></trkpt><trkpt lat="34.8409263" lon="10.738236"><ele>48.33333333333333</ele><time>2026-04-25T11:50:23.915Z</time></trkpt><trkpt lat="34.8407709" lon="10.7380519"><ele>48.0</ele><time>2026-04-25T11:50:24.917Z</time></trkpt><trkpt lat="34.8406151" lon="10.7378685"><ele>48.0</ele><time>2026-04-25T11:50:25.924Z</time></trkpt><trkpt lat="34.8404583" lon="10.7376886"><ele>48.0</ele><time>2026-04-25T11:50:26.901Z</time></trkpt><trkpt lat="34.8403017" lon="10.7375075"><ele>48.0</ele><time>2026-04-25T11:50:27.914Z</time></trkpt><trkpt lat="34.8401427" lon="10.73733"><ele>48.0</ele><time>2026-04-25T11:50:28.914Z</time></trkpt><trkpt lat="34.8399853" lon="10.7371523"><ele>48.0</ele><time>2026-04-25T11:50:29.926Z</time></trkpt><trkpt lat="34.8398225" lon="10.73698"><ele>48.0</ele><time>2026-04-25T11:50:30.912Z</time></trkpt><trkpt lat="34.8396655" lon="10.7368049"><ele>48.0</ele><time>2026-04-25T11:50:31.909Z</time></trkpt><trkpt lat="34.8395017" lon="10.736633"><ele>48.0</ele><time>2026-04-25T11:50:32.897Z</time></trkpt><trkpt lat="34.8393443" lon="10.7364534"><ele>48.0</ele><time>2026-04-25T11:50:33.896Z</time></trkpt><trkpt lat="34.8391775" lon="10.7362755"><ele>48.0</ele><time>2026-04-25T11:50:34.913Z</time></trkpt><trkpt lat="34.839021" lon="10.7360944"><ele>48.0</ele><time>2026-04-25T11:50:35.904Z</time></trkpt><trkpt lat="34.8388591" lon="10.7359178"><ele>48.0</ele><time>2026-04-25T11:50:36.914Z</time></trkpt><trkpt lat="34.8387035" lon="10.7357332"><ele>48.0</ele><time>2026-04-25T11:50:37.911Z</time></trkpt><trkpt lat="34.8385452" lon="10.7355536"><ele>48.0</ele><time>2026-04-25T11:50:38.906Z</time></trkpt><trkpt lat="34.8383974" lon="10.7353628"><ele>48.0</ele><time>2026-04-25T11:50:39.903Z</time></trkpt><trkpt lat="34.8382473" lon="10.7351712"><ele>47.333333333333336</ele><time>2026-04-25T11:50:40.91Z</time></trkpt><trkpt lat="34.8381051" lon="10.734974"><ele>46.66666666666667</ele><time>2026-04-25T11:50:41.905Z</time></trkpt><trkpt lat="34.8379565" lon="10.7347814"><ele>46.0</ele><time>2026-04-25T11:50:42.914Z</time></trkpt><trkpt lat="34.8378137" lon="10.7345855"><ele>46.0</ele><time>2026-04-25T11:50:43.921Z</time></trkpt><trkpt lat="34.8376604" lon="10.7343944"><ele>46.0</ele><time>2026-04-25T11:50:44.904Z</time></trkpt><trkpt lat="34.8375146" lon="10.7342012"><ele>46.0</ele><time>2026-04-25T11:50:45.908Z</time></trkpt><trkpt lat="34.8373598" lon="10.734013"><ele>46.0</ele><time>2026-04-25T11:50:46.906Z</time></trkpt><trkpt lat="34.8372102" lon="10.7338249"><ele>46.0</ele><time>2026-04-25T11:50:47.907Z</time></trkpt><trkpt lat="34.8370535" lon="10.7336412"><ele>46.0</ele><time>2026-04-25T11:50:48.9Z</time></trkpt><trkpt lat="34.8369003" lon="10.7334568"><ele>46.333333333333336</ele><time>2026-04-25T11:50:49.896Z</time></trkpt><trkpt lat="34.836739" lon="10.733278"><ele>46.666666666666664</ele><time>2026-04-25T11:50:50.886Z</time></trkpt><trkpt lat="34.836579" lon="10.7330961"><ele>47.0</ele><time>2026-04-25T11:50:51.898Z</time></trkpt><trkpt lat="34.8364135" lon="10.7329217"><ele>47.0</ele><time>2026-04-25T11:50:52.94Z</time></trkpt><trkpt lat="34.8362514" lon="10.7327457"><ele>47.0</ele><time>2026-04-25T11:50:53.913Z</time></trkpt><trkpt lat="34.8360826" lon="10.7325754"><ele>47.0</ele><time>2026-04-25T11:50:54.925Z</time></trkpt><trkpt lat="34.8359203" lon="10.7324048"><ele>47.0</ele><time>2026-04-25T11:50:55.892Z</time></trkpt><trkpt lat="34.8357487" lon="10.7322388"><ele>47.0</ele><time>2026-04-25T11:50:56.911Z</time></trkpt><trkpt lat="34.8355866" lon="10.7320729"><ele>47.0</ele><time>2026-04-25T11:50:57.921Z</time></trkpt><trkpt lat="34.8354161" lon="10.7319081"><ele>47.33333333333333</ele><time>2026-04-25T11:50:58.91Z</time></trkpt><trkpt lat="34.8352526" lon="10.7317417"><ele>47.666666666666664</ele><time>2026-04-25T11:50:59.899Z</time></trkpt><trkpt lat="34.8350857" lon="10.7315709"><ele>48.0</ele><time>2026-04-25T11:51:00.905Z</time></trkpt><trkpt lat="34.8349235" lon="10.7313981"><ele>47.333333333333336</ele><time>2026-04-25T11:51:01.921Z</time></trkpt><trkpt lat="34.8347636" lon="10.7312197"><ele>46.66666666666667</ele><time>2026-04-25T11:51:02.909Z</time></trkpt><trkpt lat="34.8346087" lon="10.7310411"><ele>46.0</ele><time>2026-04-25T11:51:03.898Z</time></trkpt><trkpt lat="34.8344522" lon="10.7308604"><ele>45.0</ele><time>2026-04-25T11:51:04.899Z</time></trkpt><trkpt lat="34.8342973" lon="10.7306779"><ele>44.0</ele><time>2026-04-25T11:51:05.908Z</time></trkpt><trkpt lat="34.8341427" lon="10.7304948"><ele>43.0</ele><time>2026-04-25T11:51:06.915Z</time></trkpt><trkpt lat="34.8339909" lon="10.730308"><ele>43.333333333333336</ele><time>2026-04-25T11:51:07.906Z</time></trkpt><trkpt lat="34.833841" lon="10.7301182"><ele>43.666666666666664</ele><time>2026-04-25T11:51:08.928Z</time></trkpt><trkpt lat="34.8336932" lon="10.7299263"><ele>44.0</ele><time>2026-04-25T11:51:09.923Z</time></trkpt><trkpt lat="34.8335475" lon="10.7297296"><ele>44.0</ele><time>2026-04-25T11:51:10.919Z</time></trkpt><trkpt lat="34.8334052" lon="10.7295314"><ele>44.0</ele><time>2026-04-25T11:51:11.912Z</time></trkpt><trkpt lat="34.8332637" lon="10.7293301"><ele>44.0</ele><time>2026-04-25T11:51:12.912Z</time></trkpt><trkpt lat="34.8331265" lon="10.7291285"><ele>44.33333333333333</ele><time>2026-04-25T11:51:13.911Z</time></trkpt><trkpt lat="34.83299" lon="10.7289249"><ele>44.666666666666664</ele><time>2026-04-25T11:51:14.915Z</time></trkpt><trkpt lat="34.8328577" lon="10.7287196"><ele>45.0</ele><time>2026-04-25T11:51:15.92Z</time></trkpt><trkpt lat="34.8327252" lon="10.7285125"><ele>44.666666666666664</ele><time>2026-04-25T11:51:16.918Z</time></trkpt><trkpt lat="34.8325977" lon="10.7283012"><ele>44.33333333333333</ele><time>2026-04-25T11:51:17.896Z</time></trkpt><trkpt lat="34.8324681" lon="10.7280901"><ele>44.0</ele><time>2026-04-25T11:51:18.934Z</time></trkpt><trkpt lat="34.8323442" lon="10.7278743"><ele>45.0</ele><time>2026-04-25T11:51:19.893Z</time></trkpt><trkpt lat="34.8322231" lon="10.7276715"><ele>46.0</ele><time>2026-04-25T11:51:20.91Z</time></trkpt><trkpt lat="34.8321141" lon="10.7274747"><ele>47.0</ele><time>2026-04-25T11:51:21.935Z</time></trkpt><trkpt lat="34.8320074" lon="10.7272898"><ele>47.0</ele><time>2026-04-25T11:51:22.91Z</time></trkpt><trkpt lat="34.8319122" lon="10.7271116"><ele>47.0</ele><time>2026-04-25T11:51:23.913Z</time></trkpt><trkpt lat="34.8318183" lon="10.7269441"><ele>47.0</ele><time>2026-04-25T11:51:24.927Z</time></trkpt><trkpt lat="34.8317369" lon="10.7267817"><ele>46.75</ele><time>2026-04-25T11:51:25.917Z</time></trkpt><trkpt lat="34.8316569" lon="10.7266342"><ele>46.5</ele><time>2026-04-25T11:51:26.905Z</time></trkpt><trkpt lat="34.8315855" lon="10.7264972"><ele>46.25</ele><time>2026-04-25T11:51:27.91Z</time></trkpt><trkpt lat="34.8315173" lon="10.7263724"><ele>46.0</ele><time>2026-04-25T11:51:28.904Z</time></trkpt><trkpt lat="34.8314486" lon="10.7262491"><ele>46.0</ele><time>2026-04-25T11:51:29.892Z</time></trkpt><trkpt lat="34.8313831" lon="10.7261224"><ele>46.0</ele><time>2026-04-25T11:51:30.908Z</time></trkpt><trkpt lat="34.8313327" lon="10.7260131"><ele>46.0</ele><time>2026-04-25T11:51:31.907Z</time></trkpt><trkpt lat="34.831293" lon="10.7259207"><ele>46.0</ele><time>2026-04-25T11:51:32.914Z</time></trkpt><trkpt lat="34.8312656" lon="10.7258311"><ele>46.0</ele><time>2026-04-25T11:51:33.919Z</time></trkpt><trkpt lat="34.8312496" lon="10.7257388"><ele>46.0</ele><time>2026-04-25T11:51:34.891Z</time></trkpt><trkpt lat="34.8312403" lon="10.7256573"><ele>46.0</ele><time>2026-04-25T11:51:35.915Z</time></trkpt><trkpt lat="34.8312252" lon="10.725581"><ele>46.0</ele><time>2026-04-25T11:51:36.909Z</time></trkpt><trkpt lat="34.8311493" lon="10.7254732"><ele>46.0</ele><time>2026-04-25T11:51:38.912Z</time></trkpt><trkpt lat="34.8310462" lon="10.725438"><ele>46.0</ele><time>2026-04-25T11:51:40.91Z</time></trkpt><trkpt lat="34.8309336" lon="10.7255018"><ele>46.4</ele><time>2026-04-25T11:51:42.908Z</time></trkpt><trkpt lat="34.8308699" lon="10.7255603"><ele>46.8</ele><time>2026-04-25T11:51:43.926Z</time></trkpt><trkpt lat="34.8307937" lon="10.7256182"><ele>47.199999999999996</ele><time>2026-04-25T11:51:44.948Z</time></trkpt><trkpt lat="34.8307032" lon="10.7256659"><ele>47.599999999999994</ele><time>2026-04-25T11:51:45.901Z</time></trkpt><trkpt lat="34.8306015" lon="10.7257065"><ele>48.0</ele><time>2026-04-25T11:51:46.892Z</time></trkpt><trkpt lat="34.8304893" lon="10.7257489"><ele>48.0</ele><time>2026-04-25T11:51:47.9Z</time></trkpt><trkpt lat="34.8303782" lon="10.7257895"><ele>48.0</ele><time>2026-04-25T11:51:48.91Z</time></trkpt><trkpt lat="34.830257" lon="10.7258362"><ele>48.0</ele><time>2026-04-25T11:51:49.913Z</time></trkpt><trkpt lat="34.8301256" lon="10.7258849"><ele>48.0</ele><time>2026-04-25T11:51:50.899Z</time></trkpt><trkpt lat="34.8299899" lon="10.7259394"><ele>47.25</ele><time>2026-04-25T11:51:51.913Z</time></trkpt><trkpt lat="34.8298508" lon="10.7259947"><ele>46.5</ele><time>2026-04-25T11:51:52.913Z</time></trkpt><trkpt lat="34.8297054" lon="10.7260427"><ele>45.75</ele><time>2026-04-25T11:51:53.917Z</time></trkpt><trkpt lat="34.8295597" lon="10.7260867"><ele>45.0</ele><time>2026-04-25T11:51:54.916Z</time></trkpt><trkpt lat="34.8294183" lon="10.7261351"><ele>45.25</ele><time>2026-04-25T11:51:55.912Z</time></trkpt><trkpt lat="34.8292801" lon="10.7261857"><ele>45.5</ele><time>2026-04-25T11:51:56.895Z</time></trkpt><trkpt lat="34.8291447" lon="10.7262397"><ele>45.75</ele><time>2026-04-25T11:51:57.896Z</time></trkpt><trkpt lat="34.8290135" lon="10.7262941"><ele>46.0</ele><time>2026-04-25T11:51:58.9Z</time></trkpt><trkpt lat="34.8288815" lon="10.7263491"><ele>46.0</ele><time>2026-04-25T11:51:59.902Z</time></trkpt><trkpt lat="34.828748" lon="10.7264051"><ele>46.0</ele><time>2026-04-25T11:52:00.903Z</time></trkpt><trkpt lat="34.8286157" lon="10.7264626"><ele>46.0</ele><time>2026-04-25T11:52:01.91Z</time></trkpt><trkpt lat="34.828484" lon="10.7265203"><ele>46.0</ele><time>2026-04-25T11:52:02.885Z</time></trkpt><trkpt lat="34.8283506" lon="10.7265764"><ele>46.0</ele><time>2026-04-25T11:52:03.909Z</time></trkpt><trkpt lat="34.8282164" lon="10.7266351"><ele>46.0</ele><time>2026-04-25T11:52:04.895Z</time></trkpt><trkpt lat="34.828079" lon="10.7266957"><ele>46.0</ele><time>2026-04-25T11:52:05.898Z</time></trkpt><trkpt lat="34.8279384" lon="10.7267558"><ele>46.0</ele><time>2026-04-25T11:52:06.894Z</time></trkpt><trkpt lat="34.8277948" lon="10.7268158"><ele>46.0</ele><time>2026-04-25T11:52:07.917Z</time></trkpt><trkpt lat="34.8276478" lon="10.7268763"><ele>46.0</ele><time>2026-04-25T11:52:08.914Z</time></trkpt><trkpt lat="34.8275028" lon="10.7269357"><ele>46.0</ele><time>2026-04-25T11:52:09.896Z</time></trkpt><trkpt lat="34.8273581" lon="10.7269951"><ele>46.0</ele><time>2026-04-25T11:52:10.907Z</time></trkpt><trkpt lat="34.8272133" lon="10.727051"><ele>46.0</ele><time>2026-04-25T11:52:11.917Z</time></trkpt><trkpt lat="34.82707" lon="10.7271098"><ele>46.0</ele><time>2026-04-25T11:52:12.921Z</time></trkpt><trkpt lat="34.8269281" lon="10.727166"><ele>46.333333333333336</ele><time>2026-04-25T11:52:13.879Z</time></trkpt><trkpt lat="34.8267864" lon="10.7272252"><ele>46.666666666666664</ele><time>2026-04-25T11:52:14.908Z</time></trkpt><trkpt lat="34.8266408" lon="10.7272851"><ele>47.0</ele><time>2026-04-25T11:52:15.914Z</time></trkpt><trkpt lat="34.826496" lon="10.7273437"><ele>47.0</ele><time>2026-04-25T11:52:16.916Z</time></trkpt><trkpt lat="34.8263475" lon="10.7274071"><ele>47.0</ele><time>2026-04-25T11:52:17.91Z</time></trkpt><trkpt lat="34.8261816" lon="10.7274732"><ele>47.0</ele><time>2026-04-25T11:52:18.915Z</time></trkpt><trkpt lat="34.8260197" lon="10.7275406"><ele>46.33333333333333</ele><time>2026-04-25T11:52:19.892Z</time></trkpt><trkpt lat="34.8258534" lon="10.7276059"><ele>45.666666666666664</ele><time>2026-04-25T11:52:20.905Z</time></trkpt><trkpt lat="34.8256927" lon="10.7276734"><ele>45.0</ele><time>2026-04-25T11:52:21.91Z</time></trkpt><trkpt lat="34.8255309" lon="10.7277364"><ele>44.666666666666664</ele><time>2026-04-25T11:52:22.905Z</time></trkpt><trkpt lat="34.8253707" lon="10.7278049"><ele>44.33333333333333</ele><time>2026-04-25T11:52:23.912Z</time></trkpt><trkpt lat="34.8252104" lon="10.7278668"><ele>44.0</ele><time>2026-04-25T11:52:24.9Z</time></trkpt><trkpt lat="34.8250515" lon="10.7279308"><ele>43.33333333333333</ele><time>2026-04-25T11:52:25.92Z</time></trkpt><trkpt lat="34.8248948" lon="10.7279962"><ele>42.666666666666664</ele><time>2026-04-25T11:52:26.918Z</time></trkpt><trkpt lat="34.82474" lon="10.7280585"><ele>42.0</ele><time>2026-04-25T11:52:27.904Z</time></trkpt><trkpt lat="34.8245763" lon="10.7281228"><ele>42.0</ele><time>2026-04-25T11:52:28.911Z</time></trkpt><trkpt lat="34.8244129" lon="10.7281873"><ele>42.0</ele><time>2026-04-25T11:52:29.902Z</time></trkpt><trkpt lat="34.8242569" lon="10.7282505"><ele>42.0</ele><time>2026-04-25T11:52:30.919Z</time></trkpt><trkpt lat="34.8240991" lon="10.7283156"><ele>41.666666666666664</ele><time>2026-04-25T11:52:31.913Z</time></trkpt><trkpt lat="34.8239432" lon="10.7283834"><ele>41.33333333333333</ele><time>2026-04-25T11:52:32.907Z</time></trkpt><trkpt lat="34.8237904" lon="10.7284502"><ele>41.0</ele><time>2026-04-25T11:52:33.9Z</time></trkpt><trkpt lat="34.8236389" lon="10.7285192"><ele>40.666666666666664</ele><time>2026-04-25T11:52:34.911Z</time></trkpt><trkpt lat="34.8234887" lon="10.7285895"><ele>40.333333333333336</ele><time>2026-04-25T11:52:35.931Z</time></trkpt><trkpt lat="34.8233439" lon="10.7286638"><ele>40.0</ele><time>2026-04-25T11:52:36.911Z</time></trkpt><trkpt lat="34.8231958" lon="10.7287404"><ele>39.333333333333336</ele><time>2026-04-25T11:52:37.901Z</time></trkpt><trkpt lat="34.8230535" lon="10.7288211"><ele>38.666666666666664</ele><time>2026-04-25T11:52:38.895Z</time></trkpt><trkpt lat="34.8229164" lon="10.7289055"><ele>38.0</ele><time>2026-04-25T11:52:39.915Z</time></trkpt><trkpt lat="34.8227753" lon="10.7289878"><ele>38.666666666666664</ele><time>2026-04-25T11:52:40.905Z</time></trkpt><trkpt lat="34.8226344" lon="10.7290699"><ele>39.333333333333336</ele><time>2026-04-25T11:52:41.907Z</time></trkpt><trkpt lat="34.8224964" lon="10.7291554"><ele>40.0</ele><time>2026-04-25T11:52:42.925Z</time></trkpt><trkpt lat="34.8223596" lon="10.7292389"><ele>40.0</ele><time>2026-04-25T11:52:43.908Z</time></trkpt><trkpt lat="34.8222235" lon="10.729327"><ele>40.0</ele><time>2026-04-25T11:52:44.895Z</time></trkpt><trkpt lat="34.8220883" lon="10.7294151"><ele>40.0</ele><time>2026-04-25T11:52:45.904Z</time></trkpt><trkpt lat="34.8219534" lon="10.7295008"><ele>40.333333333333336</ele><time>2026-04-25T11:52:46.909Z</time></trkpt><trkpt lat="34.8218189" lon="10.7295851"><ele>40.666666666666664</ele><time>2026-04-25T11:52:47.914Z</time></trkpt><trkpt lat="34.8216842" lon="10.7296727"><ele>41.0</ele><time>2026-04-25T11:52:48.902Z</time></trkpt><trkpt lat="34.8215491" lon="10.7297623"><ele>41.0</ele><time>2026-04-25T11:52:49.899Z</time></trkpt><trkpt lat="34.8214146" lon="10.7298493"><ele>41.0</ele><time>2026-04-25T11:52:50.91Z</time></trkpt><trkpt lat="34.8212766" lon="10.7299368"><ele>41.0</ele><time>2026-04-25T11:52:51.93Z</time></trkpt><trkpt lat="34.8211377" lon="10.7300244"><ele>41.0</ele><time>2026-04-25T11:52:52.903Z</time></trkpt><trkpt lat="34.8209947" lon="10.7301134"><ele>41.0</ele><time>2026-04-25T11:52:53.905Z</time></trkpt><trkpt lat="34.8208509" lon="10.7302014"><ele>41.0</ele><time>2026-04-25T11:52:54.906Z</time></trkpt><trkpt lat="34.8207097" lon="10.730291"><ele>40.33333333333333</ele><time>2026-04-25T11:52:55.906Z</time></trkpt><trkpt lat="34.8205688" lon="10.730384"><ele>39.666666666666664</ele><time>2026-04-25T11:52:56.905Z</time></trkpt><trkpt lat="34.8204314" lon="10.7304764"><ele>39.0</ele><time>2026-04-25T11:52:57.896Z</time></trkpt><trkpt lat="34.8202941" lon="10.7305694"><ele>39.0</ele><time>2026-04-25T11:52:58.913Z</time></trkpt><trkpt lat="34.8201575" lon="10.7306626"><ele>39.0</ele><time>2026-04-25T11:52:59.901Z</time></trkpt><trkpt lat="34.8200255" lon="10.7307506"><ele>39.0</ele><time>2026-04-25T11:53:00.917Z</time></trkpt><trkpt lat="34.8198954" lon="10.7308426"><ele>39.0</ele><time>2026-04-25T11:53:01.922Z</time></trkpt><trkpt lat="34.8197656" lon="10.7309369"><ele>39.0</ele><time>2026-04-25T11:53:02.912Z</time></trkpt><trkpt lat="34.8196366" lon="10.7310337"><ele>39.0</ele><time>2026-04-25T11:53:03.909Z</time></trkpt><trkpt lat="34.8195114" lon="10.7311327"><ele>39.0</ele><time>2026-04-25T11:53:04.886Z</time></trkpt><trkpt lat="34.8193886" lon="10.7312312"><ele>39.0</ele><time>2026-04-25T11:53:05.904Z</time></trkpt><trkpt lat="34.8192684" lon="10.7313267"><ele>39.0</ele><time>2026-04-25T11:53:06.903Z</time></trkpt><trkpt lat="34.8191455" lon="10.7314245"><ele>39.0</ele><time>2026-04-25T11:53:07.893Z</time></trkpt><trkpt lat="34.8190232" lon="10.7315209"><ele>39.0</ele><time>2026-04-25T11:53:08.89Z</time></trkpt><trkpt lat="34.8189045" lon="10.7316191"><ele>39.0</ele><time>2026-04-25T11:53:09.903Z</time></trkpt><trkpt lat="34.8187867" lon="10.7317159"><ele>39.0</ele><time>2026-04-25T11:53:10.892Z</time></trkpt><trkpt lat="34.8186709" lon="10.7318121"><ele>39.0</ele><time>2026-04-25T11:53:11.906Z</time></trkpt><trkpt lat="34.8185563" lon="10.7319115"><ele>39.5</ele><time>2026-04-25T11:53:12.909Z</time></trkpt><trkpt lat="34.8184384" lon="10.7320091"><ele>40.0</ele><time>2026-04-25T11:53:13.904Z</time></trkpt><trkpt lat="34.8183259" lon="10.7321085"><ele>40.5</ele><time>2026-04-25T11:53:14.902Z</time></trkpt><trkpt lat="34.81821" lon="10.7322033"><ele>41.0</ele><time>2026-04-25T11:53:15.909Z</time></trkpt><trkpt lat="34.8180954" lon="10.7322988"><ele>41.0</ele><time>2026-04-25T11:53:16.908Z</time></trkpt><trkpt lat="34.8179815" lon="10.7323959"><ele>41.0</ele><time>2026-04-25T11:53:17.914Z</time></trkpt><trkpt lat="34.8178698" lon="10.7324931"><ele>41.0</ele><time>2026-04-25T11:53:18.894Z</time></trkpt><trkpt lat="34.8177558" lon="10.7325922"><ele>41.0</ele><time>2026-04-25T11:53:19.92Z</time></trkpt><trkpt lat="34.817641" lon="10.7326893"><ele>40.5</ele><time>2026-04-25T11:53:20.909Z</time></trkpt><trkpt lat="34.8175275" lon="10.732785"><ele>40.0</ele><time>2026-04-25T11:53:21.903Z</time></trkpt><trkpt lat="34.8174142" lon="10.7328789"><ele>39.5</ele><time>2026-04-25T11:53:22.901Z</time></trkpt><trkpt lat="34.8173017" lon="10.732975"><ele>39.0</ele><time>2026-04-25T11:53:23.92Z</time></trkpt><trkpt lat="34.8171898" lon="10.7330721"><ele>39.0</ele><time>2026-04-25T11:53:24.898Z</time></trkpt><trkpt lat="34.8170786" lon="10.7331681"><ele>39.0</ele><time>2026-04-25T11:53:25.884Z</time></trkpt><trkpt lat="34.8169682" lon="10.7332651"><ele>39.0</ele><time>2026-04-25T11:53:26.89Z</time></trkpt><trkpt lat="34.8168574" lon="10.7333616"><ele>39.0</ele><time>2026-04-25T11:53:27.913Z</time></trkpt><trkpt lat="34.8167457" lon="10.7334547"><ele>39.0</ele><time>2026-04-25T11:53:28.908Z</time></trkpt><trkpt lat="34.8166351" lon="10.7335445"><ele>39.0</ele><time>2026-04-25T11:53:29.919Z</time></trkpt><trkpt lat="34.8165261" lon="10.7336324"><ele>39.0</ele><time>2026-04-25T11:53:30.911Z</time></trkpt><trkpt lat="34.8164215" lon="10.7337193"><ele>39.0</ele><time>2026-04-25T11:53:31.908Z</time></trkpt><trkpt lat="34.8163241" lon="10.7338079"><ele>39.0</ele><time>2026-04-25T11:53:32.908Z</time></trkpt><trkpt lat="34.8162279" lon="10.7338895"><ele>39.0</ele><time>2026-04-25T11:53:33.893Z</time></trkpt><trkpt lat="34.8161268" lon="10.7339778"><ele>39.0</ele><time>2026-04-25T11:53:34.913Z</time></trkpt><trkpt lat="34.8160231" lon="10.7340671"><ele>39.0</ele><time>2026-04-25T11:53:35.915Z</time></trkpt><trkpt lat="34.8159148" lon="10.7341566"><ele>39.0</ele><time>2026-04-25T11:53:36.897Z</time></trkpt><trkpt lat="34.8158073" lon="10.7342493"><ele>39.0</ele><time>2026-04-25T11:53:37.895Z</time></trkpt><trkpt lat="34.8156983" lon="10.7343403"><ele>39.0</ele><time>2026-04-25T11:53:38.905Z</time></trkpt><trkpt lat="34.8155875" lon="10.7344315"><ele>39.0</ele><time>2026-04-25T11:53:39.896Z</time></trkpt><trkpt lat="34.8154844" lon="10.7345184"><ele>38.8</ele><time>2026-04-25T11:53:40.917Z</time></trkpt><trkpt lat="34.8153869" lon="10.7345991"><ele>38.599999999999994</ele><time>2026-04-25T11:53:41.912Z</time></trkpt><trkpt lat="34.8152927" lon="10.7346808"><ele>38.4</ele><time>2026-04-25T11:53:42.891Z</time></trkpt><trkpt lat="34.8152077" lon="10.7347575"><ele>38.199999999999996</ele><time>2026-04-25T11:53:43.896Z</time></trkpt><trkpt lat="34.8151254" lon="10.7348292"><ele>38.0</ele><time>2026-04-25T11:53:44.898Z</time></trkpt><trkpt lat="34.8150583" lon="10.7348804"><ele>38.0</ele><time>2026-04-25T11:53:45.883Z</time></trkpt><trkpt lat="34.8149661" lon="10.7349528"><ele>38.0</ele><time>2026-04-25T11:53:47.927Z</time></trkpt><trkpt lat="34.8148954" lon="10.7349888"><ele>38.0</ele><time>2026-04-25T11:53:49.889Z</time></trkpt><trkpt lat="34.8148272" lon="10.7350064"><ele>38.0</ele><time>2026-04-25T11:53:51.906Z</time></trkpt><trkpt lat="34.8147298" lon="10.7350295"><ele>38.0</ele><time>2026-04-25T11:53:53.903Z</time></trkpt><trkpt lat="34.8146327" lon="10.7350461"><ele>38.0</ele><time>2026-04-25T11:53:55.921Z</time></trkpt><trkpt lat="34.8145472" lon="10.735129"><ele>38.0</ele><time>2026-04-25T11:53:57.914Z</time></trkpt><trkpt lat="34.8145013" lon="10.7351893"><ele>38.0</ele><time>2026-04-25T11:53:58.904Z</time></trkpt><trkpt lat="34.8144507" lon="10.735247"><ele>38.0</ele><time>2026-04-25T11:53:59.911Z</time></trkpt><trkpt lat="34.8143868" lon="10.7352977"><ele>38.0</ele><time>2026-04-25T11:54:00.909Z</time></trkpt><trkpt lat="34.8143254" lon="10.7353361"><ele>38.0</ele><time>2026-04-25T11:54:01.906Z</time></trkpt><trkpt lat="34.814264" lon="10.735369"><ele>37.857142857142854</ele><time>2026-04-25T11:54:02.902Z</time></trkpt><trkpt lat="34.8141978" lon="10.7354003"><ele>37.714285714285715</ele><time>2026-04-25T11:54:03.901Z</time></trkpt><trkpt lat="34.8141283" lon="10.7354312"><ele>37.57142857142857</ele><time>2026-04-25T11:54:04.888Z</time></trkpt><trkpt lat="34.8140633" lon="10.7354619"><ele>37.42857142857143</ele><time>2026-04-25T11:54:05.902Z</time></trkpt><trkpt lat="34.8139971" lon="10.735492"><ele>37.285714285714285</ele><time>2026-04-25T11:54:06.905Z</time></trkpt><trkpt lat="34.8139318" lon="10.7355232"><ele>37.142857142857146</ele><time>2026-04-25T11:54:07.893Z</time></trkpt><trkpt lat="34.8138624" lon="10.735559"><ele>37.0</ele><time>2026-04-25T11:54:08.894Z</time></trkpt><trkpt lat="34.8137888" lon="10.7355986"><ele>37.0</ele><time>2026-04-25T11:54:09.896Z</time></trkpt><trkpt lat="34.81372" lon="10.7356303"><ele>37.0</ele><time>2026-04-25T11:54:10.878Z</time></trkpt><trkpt lat="34.8136546" lon="10.7356575"><ele>37.0</ele><time>2026-04-25T11:54:11.903Z</time></trkpt><trkpt lat="34.8135877" lon="10.7356898"><ele>37.0</ele><time>2026-04-25T11:54:12.903Z</time></trkpt><trkpt lat="34.8135219" lon="10.7357208"><ele>37.0</ele><time>2026-04-25T11:54:13.885Z</time></trkpt><trkpt lat="34.813461" lon="10.7357524"><ele>37.0</ele><time>2026-04-25T11:54:14.88Z</time></trkpt><trkpt lat="34.8133478" lon="10.7358085"><ele>37.142857142857146</ele><time>2026-04-25T11:54:16.909Z</time></trkpt><trkpt lat="34.8132886" lon="10.73584"><ele>37.285714285714285</ele><time>2026-04-25T11:54:17.898Z</time></trkpt><trkpt lat="34.8132249" lon="10.7358653"><ele>37.42857142857143</ele><time>2026-04-25T11:54:18.893Z</time></trkpt><trkpt lat="34.8131592" lon="10.7358888"><ele>37.57142857142857</ele><time>2026-04-25T11:54:19.879Z</time></trkpt><trkpt lat="34.8130959" lon="10.7359114"><ele>37.714285714285715</ele><time>2026-04-25T11:54:20.891Z</time></trkpt><trkpt lat="34.8130308" lon="10.735937"><ele>37.857142857142854</ele><time>2026-04-25T11:54:21.897Z</time></trkpt><trkpt lat="34.8129627" lon="10.7359653"><ele>38.0</ele><time>2026-04-25T11:54:22.891Z</time></trkpt><trkpt lat="34.8128935" lon="10.7359942"><ele>38.0</ele><time>2026-04-25T11:54:23.911Z</time></trkpt><trkpt lat="34.8128208" lon="10.7360198"><ele>38.0</ele><time>2026-04-25T11:54:24.912Z</time></trkpt><trkpt lat="34.8127425" lon="10.7360473"><ele>38.0</ele><time>2026-04-25T11:54:25.901Z</time></trkpt><trkpt lat="34.8126572" lon="10.7360748"><ele>38.0</ele><time>2026-04-25T11:54:26.906Z</time></trkpt><trkpt lat="34.812568" lon="10.7361064"><ele>38.0</ele><time>2026-04-25T11:54:27.924Z</time></trkpt><trkpt lat="34.8124691" lon="10.7361391"><ele>38.0</ele><time>2026-04-25T11:54:28.902Z</time></trkpt><trkpt lat="34.8123695" lon="10.7361738"><ele>37.8</ele><time>2026-04-25T11:54:29.886Z</time></trkpt><trkpt lat="34.8122709" lon="10.7362097"><ele>37.599999999999994</ele><time>2026-04-25T11:54:30.897Z</time></trkpt><trkpt lat="34.8121701" lon="10.7362486"><ele>37.400000000000006</ele><time>2026-04-25T11:54:31.905Z</time></trkpt><trkpt lat="34.8120673" lon="10.736292"><ele>37.2</ele><time>2026-04-25T11:54:32.904Z</time></trkpt><trkpt lat="34.8119688" lon="10.7363341"><ele>37.0</ele><time>2026-04-25T11:54:33.904Z</time></trkpt><trkpt lat="34.8118692" lon="10.736377"><ele>37.0</ele><time>2026-04-25T11:54:34.898Z</time></trkpt><trkpt lat="34.8117691" lon="10.7364191"><ele>37.0</ele><time>2026-04-25T11:54:35.908Z</time></trkpt><trkpt lat="34.8116672" lon="10.7364586"><ele>37.0</ele><time>2026-04-25T11:54:36.891Z</time></trkpt><trkpt lat="34.8115646" lon="10.7364968"><ele>37.0</ele><time>2026-04-25T11:54:37.896Z</time></trkpt><trkpt lat="34.8114616" lon="10.7365329"><ele>37.0</ele><time>2026-04-25T11:54:38.904Z</time></trkpt><trkpt lat="34.8113596" lon="10.736571"><ele>37.0</ele><time>2026-04-25T11:54:39.9Z</time></trkpt><trkpt lat="34.8112565" lon="10.7366104"><ele>37.0</ele><time>2026-04-25T11:54:40.912Z</time></trkpt><trkpt lat="34.8111536" lon="10.7366482"><ele>37.0</ele><time>2026-04-25T11:54:41.906Z</time></trkpt><trkpt lat="34.8110527" lon="10.7366887"><ele>37.0</ele><time>2026-04-25T11:54:42.909Z</time></trkpt><trkpt lat="34.8109524" lon="10.7367296"><ele>37.0</ele><time>2026-04-25T11:54:43.904Z</time></trkpt><trkpt lat="34.8108544" lon="10.7367682"><ele>36.66666666666667</ele><time>2026-04-25T11:54:44.91Z</time></trkpt><trkpt lat="34.8107632" lon="10.7368056"><ele>36.333333333333336</ele><time>2026-04-25T11:54:45.891Z</time></trkpt><trkpt lat="34.810678" lon="10.7368407"><ele>36.0</ele><time>2026-04-25T11:54:46.904Z</time></trkpt><trkpt lat="34.8106005" lon="10.7368746"><ele>35.666666666666664</ele><time>2026-04-25T11:54:47.913Z</time></trkpt><trkpt lat="34.810526" lon="10.7369032"><ele>35.33333333333333</ele><time>2026-04-25T11:54:48.897Z</time></trkpt><trkpt lat="34.8104514" lon="10.7369316"><ele>35.0</ele><time>2026-04-25T11:54:49.891Z</time></trkpt><trkpt lat="34.8103723" lon="10.7369614"><ele>35.0</ele><time>2026-04-25T11:54:50.908Z</time></trkpt><trkpt lat="34.8102885" lon="10.7369963"><ele>35.0</ele><time>2026-04-25T11:54:51.907Z</time></trkpt><trkpt lat="34.8102064" lon="10.7370264"><ele>35.0</ele><time>2026-04-25T11:54:52.913Z</time></trkpt><trkpt lat="34.8101237" lon="10.7370535"><ele>35.0</ele><time>2026-04-25T11:54:53.892Z</time></trkpt><trkpt lat="34.8100359" lon="10.7370853"><ele>35.0</ele><time>2026-04-25T11:54:54.893Z</time></trkpt><trkpt lat="34.8099495" lon="10.737118"><ele>35.0</ele><time>2026-04-25T11:54:55.913Z</time></trkpt><trkpt lat="34.8098609" lon="10.7371526"><ele>35.0</ele><time>2026-04-25T11:54:56.893Z</time></trkpt><trkpt lat="34.8097704" lon="10.7371839"><ele>35.0</ele><time>2026-04-25T11:54:57.915Z</time></trkpt><trkpt lat="34.8096796" lon="10.7372165"><ele>35.0</ele><time>2026-04-25T11:54:58.898Z</time></trkpt><trkpt lat="34.8095897" lon="10.7372496"><ele>35.0</ele><time>2026-04-25T11:54:59.885Z</time></trkpt><trkpt lat="34.8095008" lon="10.7372865"><ele>35.0</ele><time>2026-04-25T11:55:00.899Z</time></trkpt><trkpt lat="34.8094158" lon="10.7373241"><ele>35.0</ele><time>2026-04-25T11:55:01.913Z</time></trkpt><trkpt lat="34.8093322" lon="10.7373594"><ele>35.0</ele><time>2026-04-25T11:55:02.909Z</time></trkpt><trkpt lat="34.809248" lon="10.7373922"><ele>35.0</ele><time>2026-04-25T11:55:03.897Z</time></trkpt><trkpt lat="34.8091603" lon="10.7374238"><ele>35.0</ele><time>2026-04-25T11:55:04.9Z</time></trkpt><trkpt lat="34.8090727" lon="10.7374587"><ele>35.0</ele><time>2026-04-25T11:55:05.9Z</time></trkpt><trkpt lat="34.8089829" lon="10.7374971"><ele>34.8</ele><time>2026-04-25T11:55:06.903Z</time></trkpt><trkpt lat="34.8088866" lon="10.7375375"><ele>34.6</ele><time>2026-04-25T11:55:07.906Z</time></trkpt><trkpt lat="34.8087876" lon="10.7375775"><ele>34.4</ele><time>2026-04-25T11:55:08.891Z</time></trkpt><trkpt lat="34.8086861" lon="10.7376196"><ele>34.2</ele><time>2026-04-25T11:55:09.898Z</time></trkpt><trkpt lat="34.8085855" lon="10.7376618"><ele>34.0</ele><time>2026-04-25T11:55:10.912Z</time></trkpt><trkpt lat="34.8084841" lon="10.7377022"><ele>34.0</ele><time>2026-04-25T11:55:11.894Z</time></trkpt><trkpt lat="34.8083854" lon="10.7377376"><ele>34.0</ele><time>2026-04-25T11:55:12.907Z</time></trkpt><trkpt lat="34.8082825" lon="10.7377704"><ele>34.0</ele><time>2026-04-25T11:55:13.906Z</time></trkpt><trkpt lat="34.8081807" lon="10.7378078"><ele>34.0</ele><time>2026-04-25T11:55:14.907Z</time></trkpt><trkpt lat="34.8080836" lon="10.7378439"><ele>34.0</ele><time>2026-04-25T11:55:15.902Z</time></trkpt><trkpt lat="34.8079868" lon="10.7378798"><ele>34.0</ele><time>2026-04-25T11:55:16.889Z</time></trkpt><trkpt lat="34.8078888" lon="10.7379183"><ele>34.0</ele><time>2026-04-25T11:55:17.896Z</time></trkpt><trkpt lat="34.8077894" lon="10.7379571"><ele>34.0</ele><time>2026-04-25T11:55:18.905Z</time></trkpt><trkpt lat="34.807686" lon="10.7379967"><ele>34.0</ele><time>2026-04-25T11:55:19.884Z</time></trkpt><trkpt lat="34.8075845" lon="10.7380368"><ele>34.0</ele><time>2026-04-25T11:55:20.888Z</time></trkpt><trkpt lat="34.8074812" lon="10.738079"><ele>34.0</ele><time>2026-04-25T11:55:21.901Z</time></trkpt><trkpt lat="34.8073766" lon="10.738123"><ele>34.0</ele><time>2026-04-25T11:55:22.892Z</time></trkpt><trkpt lat="34.8072766" lon="10.7381625"><ele>34.0</ele><time>2026-04-25T11:55:23.903Z</time></trkpt><trkpt lat="34.8071853" lon="10.7382029"><ele>34.0</ele><time>2026-04-25T11:55:24.887Z</time></trkpt><trkpt lat="34.8070974" lon="10.7382421"><ele>34.0</ele><time>2026-04-25T11:55:25.897Z</time></trkpt><trkpt lat="34.8070043" lon="10.7382832"><ele>34.0</ele><time>2026-04-25T11:55:26.891Z</time></trkpt><trkpt lat="34.8069072" lon="10.7383251"><ele>34.0</ele><time>2026-04-25T11:55:27.886Z</time></trkpt><trkpt lat="34.8068069" lon="10.7383666"><ele>34.0</ele><time>2026-04-25T11:55:28.888Z</time></trkpt><trkpt lat="34.8067054" lon="10.7384137"><ele>34.0</ele><time>2026-04-25T11:55:29.903Z</time></trkpt><trkpt lat="34.8066027" lon="10.7384646"><ele>34.0</ele><time>2026-04-25T11:55:30.914Z</time></trkpt><trkpt lat="34.8065011" lon="10.7385121"><ele>33.6</ele><time>2026-04-25T11:55:31.896Z</time></trkpt><trkpt lat="34.8064042" lon="10.7385589"><ele>33.2</ele><time>2026-04-25T11:55:32.9Z</time></trkpt><trkpt lat="34.8063124" lon="10.7386026"><ele>32.800000000000004</ele><time>2026-04-25T11:55:33.885Z</time></trkpt><trkpt lat="34.8062281" lon="10.7386424"><ele>32.4</ele><time>2026-04-25T11:55:34.908Z</time></trkpt><trkpt lat="34.8061473" lon="10.738681"><ele>32.0</ele><time>2026-04-25T11:55:35.885Z</time></trkpt><trkpt lat="34.8060714" lon="10.738718"><ele>31.999999999999996</ele><time>2026-04-25T11:55:36.894Z</time></trkpt><trkpt lat="34.8060012" lon="10.7387539"><ele>32.0</ele><time>2026-04-25T11:55:37.894Z</time></trkpt><trkpt lat="34.8059319" lon="10.738795"><ele>32.0</ele><time>2026-04-25T11:55:38.908Z</time></trkpt><trkpt lat="34.8058594" lon="10.73883"><ele>32.0</ele><time>2026-04-25T11:55:39.917Z</time></trkpt><trkpt lat="34.8057836" lon="10.7388641"><ele>31.999999999999996</ele><time>2026-04-25T11:55:40.914Z</time></trkpt><trkpt lat="34.8057103" lon="10.7389023"><ele>32.0</ele><time>2026-04-25T11:55:41.911Z</time></trkpt><trkpt lat="34.8056383" lon="10.7389396"><ele>31.999999999999996</ele><time>2026-04-25T11:55:42.905Z</time></trkpt><trkpt lat="34.805567" lon="10.7389765"><ele>32.0</ele><time>2026-04-25T11:55:43.905Z</time></trkpt><trkpt lat="34.8054972" lon="10.7390142"><ele>32.0</ele><time>2026-04-25T11:55:44.893Z</time></trkpt><trkpt lat="34.8054292" lon="10.7390505"><ele>32.0</ele><time>2026-04-25T11:55:45.884Z</time></trkpt><trkpt lat="34.8053594" lon="10.7390825"><ele>31.999999999999996</ele><time>2026-04-25T11:55:46.899Z</time></trkpt><trkpt lat="34.8052861" lon="10.7391113"><ele>32.0</ele><time>2026-04-25T11:55:47.879Z</time></trkpt><trkpt lat="34.8052164" lon="10.7391418"><ele>32.33333333333333</ele><time>2026-04-25T11:55:48.89Z</time></trkpt><trkpt lat="34.805151" lon="10.7391789"><ele>32.666666666666664</ele><time>2026-04-25T11:55:49.88Z</time></trkpt><trkpt lat="34.805083" lon="10.7392159"><ele>33.0</ele><time>2026-04-25T11:55:50.893Z</time></trkpt><trkpt lat="34.805018" lon="10.7392483"><ele>33.333333333333336</ele><time>2026-04-25T11:55:51.891Z</time></trkpt><trkpt lat="34.8049576" lon="10.7392767"><ele>33.66666666666667</ele><time>2026-04-25T11:55:52.895Z</time></trkpt><trkpt lat="34.8048982" lon="10.7393036"><ele>34.0</ele><time>2026-04-25T11:55:53.894Z</time></trkpt><trkpt lat="34.8047911" lon="10.7393491"><ele>34.0</ele><time>2026-04-25T11:55:55.885Z</time></trkpt><trkpt lat="34.8046808" lon="10.7394148"><ele>34.0</ele><time>2026-04-25T11:55:57.911Z</time></trkpt><trkpt lat="34.80462" lon="10.7394532"><ele>34.0</ele><time>2026-04-25T11:55:58.902Z</time></trkpt><trkpt lat="34.8045596" lon="10.7394886"><ele>34.0</ele><time>2026-04-25T11:55:59.889Z</time></trkpt><trkpt lat="34.8044982" lon="10.73952"><ele>34.0</ele><time>2026-04-25T11:56:00.905Z</time></trkpt><trkpt lat="34.8043913" lon="10.7395785"><ele>34.0</ele><time>2026-04-25T11:56:02.897Z</time></trkpt><trkpt lat="34.8042914" lon="10.7396356"><ele>33.833333333333336</ele><time>2026-04-25T11:56:04.882Z</time></trkpt><trkpt lat="34.8042071" lon="10.7396692"><ele>33.66666666666667</ele><time>2026-04-25T11:56:06.911Z</time></trkpt><trkpt lat="34.8041302" lon="10.7397068"><ele>33.5</ele><time>2026-04-25T11:56:08.898Z</time></trkpt><trkpt lat="34.8040722" lon="10.7397388"><ele>33.333333333333336</ele><time>2026-04-25T11:56:10.908Z</time></trkpt><trkpt lat="34.8039869" lon="10.739793"><ele>33.166666666666664</ele><time>2026-04-25T11:56:13.894Z</time></trkpt><trkpt lat="34.8039002" lon="10.7398338"><ele>33.0</ele><time>2026-04-25T11:56:15.892Z</time></trkpt><trkpt lat="34.8037967" lon="10.7398891"><ele>33.0</ele><time>2026-04-25T11:56:17.895Z</time></trkpt><trkpt lat="34.8036834" lon="10.7399561"><ele>33.0</ele><time>2026-04-25T11:56:19.881Z</time></trkpt><trkpt lat="34.8036224" lon="10.739992"><ele>33.0</ele><time>2026-04-25T11:56:20.892Z</time></trkpt><trkpt lat="34.8035596" lon="10.7400276"><ele>33.0</ele><time>2026-04-25T11:56:21.911Z</time></trkpt><trkpt lat="34.8034421" lon="10.7400938"><ele>33.0</ele><time>2026-04-25T11:56:23.895Z</time></trkpt><trkpt lat="34.8033754" lon="10.7401273"><ele>33.0</ele><time>2026-04-25T11:56:24.901Z</time></trkpt><trkpt lat="34.8033069" lon="10.7401611"><ele>33.0</ele><time>2026-04-25T11:56:25.901Z</time></trkpt><trkpt lat="34.8032381" lon="10.7402006"><ele>33.0</ele><time>2026-04-25T11:56:26.898Z</time></trkpt><trkpt lat="34.8031663" lon="10.7402396"><ele>33.0</ele><time>2026-04-25T11:56:27.894Z</time></trkpt><trkpt lat="34.803093" lon="10.740285"><ele>33.0</ele><time>2026-04-25T11:56:28.884Z</time></trkpt><trkpt lat="34.8030175" lon="10.7403324"><ele>33.0</ele><time>2026-04-25T11:56:29.902Z</time></trkpt><trkpt lat="34.8029393" lon="10.7403775"><ele>33.0</ele><time>2026-04-25T11:56:30.895Z</time></trkpt><trkpt lat="34.802861" lon="10.7404231"><ele>33.0</ele><time>2026-04-25T11:56:31.878Z</time></trkpt><trkpt lat="34.8027838" lon="10.7404676"><ele>33.0</ele><time>2026-04-25T11:56:32.885Z</time></trkpt><trkpt lat="34.8027096" lon="10.7405108"><ele>33.0</ele><time>2026-04-25T11:56:33.9Z</time></trkpt><trkpt lat="34.8026358" lon="10.7405565"><ele>33.0</ele><time>2026-04-25T11:56:34.886Z</time></trkpt><trkpt lat="34.8025611" lon="10.7406027"><ele>33.0</ele><time>2026-04-25T11:56:35.892Z</time></trkpt><trkpt lat="34.8024881" lon="10.7406478"><ele>33.0</ele><time>2026-04-25T11:56:36.884Z</time></trkpt><trkpt lat="34.8024188" lon="10.7406882"><ele>33.0</ele><time>2026-04-25T11:56:37.894Z</time></trkpt><trkpt lat="34.8023519" lon="10.7407242"><ele>33.0</ele><time>2026-04-25T11:56:38.891Z</time></trkpt><trkpt lat="34.8022877" lon="10.7407547"><ele>33.0</ele><time>2026-04-25T11:56:39.9Z</time></trkpt><trkpt lat="34.802227" lon="10.740787"><ele>33.0</ele><time>2026-04-25T11:56:40.911Z</time></trkpt><trkpt lat="34.8021237" lon="10.7408406"><ele>33.0</ele><time>2026-04-25T11:56:42.886Z</time></trkpt><trkpt lat="34.8020304" lon="10.7408968"><ele>33.0</ele><time>2026-04-25T11:56:44.887Z</time></trkpt><trkpt lat="34.8019746" lon="10.7409327"><ele>33.0</ele><time>2026-04-25T11:56:45.895Z</time></trkpt><trkpt lat="34.8019111" lon="10.7409669"><ele>33.0</ele><time>2026-04-25T11:56:46.917Z</time></trkpt><trkpt lat="34.801848" lon="10.7410026"><ele>33.0</ele><time>2026-04-25T11:56:47.893Z</time></trkpt><trkpt lat="34.8017842" lon="10.7410368"><ele>33.0</ele><time>2026-04-25T11:56:48.901Z</time></trkpt><trkpt lat="34.8017179" lon="10.7410702"><ele>33.0</ele><time>2026-04-25T11:56:49.896Z</time></trkpt><trkpt lat="34.801652" lon="10.7411023"><ele>33.0</ele><time>2026-04-25T11:56:50.907Z</time></trkpt><trkpt lat="34.8015824" lon="10.7411355"><ele>32.5</ele><time>2026-04-25T11:56:51.892Z</time></trkpt><trkpt lat="34.8015113" lon="10.7411704"><ele>32.0</ele><time>2026-04-25T11:56:52.909Z</time></trkpt><trkpt lat="34.8014442" lon="10.7412078"><ele>31.5</ele><time>2026-04-25T11:56:53.886Z</time></trkpt><trkpt lat="34.8013793" lon="10.7412437"><ele>31.0</ele><time>2026-04-25T11:56:54.92Z</time></trkpt><trkpt lat="34.8013167" lon="10.741277"><ele>30.5</ele><time>2026-04-25T11:56:55.898Z</time></trkpt><trkpt lat="34.8012583" lon="10.7413064"><ele>30.0</ele><time>2026-04-25T11:56:56.883Z</time></trkpt><trkpt lat="34.801146" lon="10.7413569"><ele>30.0</ele><time>2026-04-25T11:56:58.904Z</time></trkpt><trkpt lat="34.8010235" lon="10.741416"><ele>30.0</ele><time>2026-04-25T11:57:00.913Z</time></trkpt><trkpt lat="34.8009596" lon="10.7414474"><ele>30.0</ele><time>2026-04-25T11:57:01.891Z</time></trkpt><trkpt lat="34.8008942" lon="10.7414752"><ele>30.0</ele><time>2026-04-25T11:57:02.889Z</time></trkpt><trkpt lat="34.8008276" lon="10.7415009"><ele>30.0</ele><time>2026-04-25T11:57:03.902Z</time></trkpt><trkpt lat="34.8007605" lon="10.7415281"><ele>30.0</ele><time>2026-04-25T11:57:04.897Z</time></trkpt><trkpt lat="34.8006913" lon="10.7415514"><ele>29.857142857142858</ele><time>2026-04-25T11:57:05.904Z</time></trkpt><trkpt lat="34.8006213" lon="10.741578"><ele>29.714285714285715</ele><time>2026-04-25T11:57:06.897Z</time></trkpt><trkpt lat="34.8005521" lon="10.7416041"><ele>29.571428571428573</ele><time>2026-04-25T11:57:07.905Z</time></trkpt><trkpt lat="34.8004838" lon="10.74163"><ele>29.42857142857143</ele><time>2026-04-25T11:57:08.901Z</time></trkpt><trkpt lat="34.8004174" lon="10.7416572"><ele>29.285714285714285</ele><time>2026-04-25T11:57:09.886Z</time></trkpt><trkpt lat="34.8003534" lon="10.7416832"><ele>29.142857142857146</ele><time>2026-04-25T11:57:10.918Z</time></trkpt><trkpt lat="34.8002895" lon="10.7417072"><ele>29.000000000000004</ele><time>2026-04-25T11:57:11.919Z</time></trkpt><trkpt lat="34.8002261" lon="10.7417299"><ele>29.166666666666664</ele><time>2026-04-25T11:57:12.909Z</time></trkpt><trkpt lat="34.8001642" lon="10.7417489"><ele>29.333333333333332</ele><time>2026-04-25T11:57:13.885Z</time></trkpt><trkpt lat="34.8000946" lon="10.7417744"><ele>29.5</ele><time>2026-04-25T11:57:14.908Z</time></trkpt><trkpt lat="34.800021" lon="10.7418038"><ele>29.666666666666664</ele><time>2026-04-25T11:57:15.895Z</time></trkpt><trkpt lat="34.7999478" lon="10.7418335"><ele>29.833333333333332</ele><time>2026-04-25T11:57:16.884Z</time></trkpt><trkpt lat="34.7998698" lon="10.7418664"><ele>30.0</ele><time>2026-04-25T11:57:17.914Z</time></trkpt><trkpt lat="34.7997933" lon="10.7418943"><ele>29.666666666666668</ele><time>2026-04-25T11:57:18.898Z</time></trkpt><trkpt lat="34.7997162" lon="10.7419233"><ele>29.333333333333336</ele><time>2026-04-25T11:57:19.898Z</time></trkpt><trkpt lat="34.79964" lon="10.7419552"><ele>29.0</ele><time>2026-04-25T11:57:20.913Z</time></trkpt><trkpt lat="34.7995635" lon="10.7419879"><ele>28.666666666666668</ele><time>2026-04-25T11:57:21.897Z</time></trkpt><trkpt lat="34.7994916" lon="10.7420158"><ele>28.333333333333336</ele><time>2026-04-25T11:57:22.884Z</time></trkpt><trkpt lat="34.7994196" lon="10.7420402"><ele>28.0</ele><time>2026-04-25T11:57:23.907Z</time></trkpt><trkpt lat="34.7993507" lon="10.7420575"><ele>28.142857142857142</ele><time>2026-04-25T11:57:24.912Z</time></trkpt><trkpt lat="34.7992813" lon="10.7420733"><ele>28.285714285714285</ele><time>2026-04-25T11:57:25.874Z</time></trkpt><trkpt lat="34.7992096" lon="10.7420891"><ele>28.42857142857143</ele><time>2026-04-25T11:57:26.892Z</time></trkpt><trkpt lat="34.7991364" lon="10.7421063"><ele>28.571428571428573</ele><time>2026-04-25T11:57:27.891Z</time></trkpt><trkpt lat="34.7990611" lon="10.74212"><ele>28.714285714285715</ele><time>2026-04-25T11:57:28.895Z</time></trkpt><trkpt lat="34.7989895" lon="10.7421318"><ele>28.85714285714286</ele><time>2026-04-25T11:57:29.893Z</time></trkpt><trkpt lat="34.7989215" lon="10.7421493"><ele>29.000000000000004</ele><time>2026-04-25T11:57:30.894Z</time></trkpt><trkpt lat="34.7988527" lon="10.7421643"><ele>28.999999999999996</ele><time>2026-04-25T11:57:31.884Z</time></trkpt><trkpt lat="34.7987772" lon="10.7421796"><ele>29.0</ele><time>2026-04-25T11:57:32.893Z</time></trkpt><trkpt lat="34.7986966" lon="10.7421918"><ele>29.0</ele><time>2026-04-25T11:57:33.903Z</time></trkpt><trkpt lat="34.7986182" lon="10.7422045"><ele>29.0</ele><time>2026-04-25T11:57:34.889Z</time></trkpt><trkpt lat="34.7985423" lon="10.7422222"><ele>28.999999999999996</ele><time>2026-04-25T11:57:35.893Z</time></trkpt><trkpt lat="34.7984613" lon="10.7422386"><ele>29.0</ele><time>2026-04-25T11:57:36.9Z</time></trkpt><trkpt lat="34.7983785" lon="10.742248"><ele>28.999999999999996</ele><time>2026-04-25T11:57:37.895Z</time></trkpt><trkpt lat="34.7982937" lon="10.7422577"><ele>29.0</ele><time>2026-04-25T11:57:38.898Z</time></trkpt><trkpt lat="34.7982138" lon="10.7422671"><ele>29.0</ele><time>2026-04-25T11:57:39.89Z</time></trkpt><trkpt lat="34.798132" lon="10.7422795"><ele>29.0</ele><time>2026-04-25T11:57:40.9Z</time></trkpt><trkpt lat="34.7980465" lon="10.7422906"><ele>28.999999999999996</ele><time>2026-04-25T11:57:41.908Z</time></trkpt><trkpt lat="34.7979669" lon="10.7423023"><ele>29.0</ele><time>2026-04-25T11:57:42.895Z</time></trkpt><trkpt lat="34.7978844" lon="10.7423158"><ele>28.999999999999996</ele><time>2026-04-25T11:57:43.902Z</time></trkpt><trkpt lat="34.7977959" lon="10.7423301"><ele>29.0</ele><time>2026-04-25T11:57:44.896Z</time></trkpt><trkpt lat="34.7977134" lon="10.742347"><ele>29.0</ele><time>2026-04-25T11:57:45.887Z</time></trkpt><trkpt lat="34.7976309" lon="10.7423593"><ele>29.0</ele><time>2026-04-25T11:57:46.88Z</time></trkpt><trkpt lat="34.7975538" lon="10.7423689"><ele>28.999999999999996</ele><time>2026-04-25T11:57:47.903Z</time></trkpt><trkpt lat="34.797475" lon="10.7423788"><ele>29.0</ele><time>2026-04-25T11:57:48.909Z</time></trkpt><trkpt lat="34.7973973" lon="10.7423923"><ele>29.333333333333332</ele><time>2026-04-25T11:57:49.894Z</time></trkpt><trkpt lat="34.7973189" lon="10.742403"><ele>29.666666666666664</ele><time>2026-04-25T11:57:50.888Z</time></trkpt><trkpt lat="34.7972407" lon="10.7424097"><ele>30.0</ele><time>2026-04-25T11:57:51.914Z</time></trkpt><trkpt lat="34.7971663" lon="10.7424136"><ele>30.333333333333336</ele><time>2026-04-25T11:57:52.909Z</time></trkpt><trkpt lat="34.797086" lon="10.7424157"><ele>30.666666666666668</ele><time>2026-04-25T11:57:53.894Z</time></trkpt><trkpt lat="34.7970083" lon="10.7424239"><ele>31.0</ele><time>2026-04-25T11:57:54.899Z</time></trkpt><trkpt lat="34.7969329" lon="10.742437"><ele>31.0</ele><time>2026-04-25T11:57:55.894Z</time></trkpt><trkpt lat="34.7968601" lon="10.7424527"><ele>31.000000000000004</ele><time>2026-04-25T11:57:56.891Z</time></trkpt><trkpt lat="34.796786" lon="10.7424627"><ele>31.0</ele><time>2026-04-25T11:57:57.905Z</time></trkpt><trkpt lat="34.796714" lon="10.7424738"><ele>31.0</ele><time>2026-04-25T11:57:58.912Z</time></trkpt><trkpt lat="34.7966437" lon="10.742487"><ele>31.000000000000004</ele><time>2026-04-25T11:57:59.899Z</time></trkpt><trkpt lat="34.7965708" lon="10.7424997"><ele>31.0</ele><time>2026-04-25T11:58:00.894Z</time></trkpt><trkpt lat="34.7965036" lon="10.7425076"><ele>31.0</ele><time>2026-04-25T11:58:01.898Z</time></trkpt><trkpt lat="34.7964408" lon="10.7425161"><ele>30.833333333333336</ele><time>2026-04-25T11:58:02.906Z</time></trkpt><trkpt lat="34.796323" lon="10.7425264"><ele>30.666666666666668</ele><time>2026-04-25T11:58:04.906Z</time></trkpt><trkpt lat="34.7962077" lon="10.7425485"><ele>30.5</ele><time>2026-04-25T11:58:06.903Z</time></trkpt><trkpt lat="34.7961416" lon="10.742573"><ele>30.333333333333336</ele><time>2026-04-25T11:58:07.901Z</time></trkpt><trkpt lat="34.7960714" lon="10.7425973"><ele>30.166666666666668</ele><time>2026-04-25T11:58:08.886Z</time></trkpt><trkpt lat="34.7960083" lon="10.742613"><ele>30.0</ele><time>2026-04-25T11:58:09.9Z</time></trkpt><trkpt lat="34.7959412" lon="10.7426286"><ele>29.714285714285715</ele><time>2026-04-25T11:58:10.913Z</time></trkpt><trkpt lat="34.7958741" lon="10.7426426"><ele>29.428571428571427</ele><time>2026-04-25T11:58:11.906Z</time></trkpt><trkpt lat="34.7958088" lon="10.7426578"><ele>29.142857142857142</ele><time>2026-04-25T11:58:12.918Z</time></trkpt><trkpt lat="34.7957399" lon="10.7426794"><ele>28.857142857142858</ele><time>2026-04-25T11:58:13.921Z</time></trkpt><trkpt lat="34.7956677" lon="10.7427017"><ele>28.57142857142857</ele><time>2026-04-25T11:58:14.91Z</time></trkpt><trkpt lat="34.7955948" lon="10.7427259"><ele>28.285714285714285</ele><time>2026-04-25T11:58:15.906Z</time></trkpt><trkpt lat="34.7955247" lon="10.7427493"><ele>28.0</ele><time>2026-04-25T11:58:16.896Z</time></trkpt><trkpt lat="34.795454" lon="10.7427722"><ele>28.000000000000004</ele><time>2026-04-25T11:58:17.9Z</time></trkpt><trkpt lat="34.7953836" lon="10.7427899"><ele>28.0</ele><time>2026-04-25T11:58:18.909Z</time></trkpt><trkpt lat="34.7953206" lon="10.7428045"><ele>28.0</ele><time>2026-04-25T11:58:19.902Z</time></trkpt><trkpt lat="34.7951996" lon="10.7428358"><ele>28.0</ele><time>2026-04-25T11:58:21.895Z</time></trkpt><trkpt lat="34.7951383" lon="10.7428539"><ele>28.000000000000004</ele><time>2026-04-25T11:58:22.906Z</time></trkpt><trkpt lat="34.7950759" lon="10.7428729"><ele>28.0</ele><time>2026-04-25T11:58:23.906Z</time></trkpt><trkpt lat="34.795013" lon="10.7428928"><ele>28.142857142857142</ele><time>2026-04-25T11:58:24.898Z</time></trkpt><trkpt lat="34.7949508" lon="10.7429131"><ele>28.285714285714285</ele><time>2026-04-25T11:58:25.902Z</time></trkpt><trkpt lat="34.7948891" lon="10.742935"><ele>28.42857142857143</ele><time>2026-04-25T11:58:26.905Z</time></trkpt><trkpt lat="34.7948264" lon="10.7429576"><ele>28.571428571428573</ele><time>2026-04-25T11:58:27.911Z</time></trkpt><trkpt lat="34.7947629" lon="10.7429808"><ele>28.714285714285715</ele><time>2026-04-25T11:58:28.91Z</time></trkpt><trkpt lat="34.7946961" lon="10.7430007"><ele>28.85714285714286</ele><time>2026-04-25T11:58:29.898Z</time></trkpt><trkpt lat="34.7946288" lon="10.7430189"><ele>29.000000000000004</ele><time>2026-04-25T11:58:30.896Z</time></trkpt><trkpt lat="34.7945631" lon="10.7430373"><ele>29.000000000000004</ele><time>2026-04-25T11:58:31.906Z</time></trkpt><trkpt lat="34.7944996" lon="10.743057"><ele>29.0</ele><time>2026-04-25T11:58:32.913Z</time></trkpt><trkpt lat="34.7944298" lon="10.7430758"><ele>29.000000000000004</ele><time>2026-04-25T11:58:33.922Z</time></trkpt><trkpt lat="34.7943664" lon="10.7430959"><ele>29.000000000000004</ele><time>2026-04-25T11:58:34.911Z</time></trkpt><trkpt lat="34.7943044" lon="10.7431141"><ele>29.0</ele><time>2026-04-25T11:58:35.912Z</time></trkpt><trkpt lat="34.7942426" lon="10.7431327"><ele>29.000000000000004</ele><time>2026-04-25T11:58:36.907Z</time></trkpt><trkpt lat="34.7941751" lon="10.7431504"><ele>29.000000000000004</ele><time>2026-04-25T11:58:37.908Z</time></trkpt><trkpt lat="34.7941056" lon="10.7431669"><ele>28.833333333333332</ele><time>2026-04-25T11:58:38.916Z</time></trkpt><trkpt lat="34.7940326" lon="10.7431884"><ele>28.666666666666664</ele><time>2026-04-25T11:58:39.893Z</time></trkpt><trkpt lat="34.7939604" lon="10.7432089"><ele>28.5</ele><time>2026-04-25T11:58:40.903Z</time></trkpt><trkpt lat="34.7938902" lon="10.7432342"><ele>28.333333333333336</ele><time>2026-04-25T11:58:41.914Z</time></trkpt><trkpt lat="34.7938171" lon="10.7432596"><ele>28.166666666666668</ele><time>2026-04-25T11:58:42.899Z</time></trkpt><trkpt lat="34.7937431" lon="10.7432815"><ele>28.0</ele><time>2026-04-25T11:58:43.91Z</time></trkpt><trkpt lat="34.7936695" lon="10.7433049"><ele>28.0</ele><time>2026-04-25T11:58:44.911Z</time></trkpt><trkpt lat="34.7935968" lon="10.7433285"><ele>28.0</ele><time>2026-04-25T11:58:45.897Z</time></trkpt><trkpt lat="34.7935239" lon="10.7433518"><ele>28.0</ele><time>2026-04-25T11:58:46.903Z</time></trkpt><trkpt lat="34.7934485" lon="10.7433728"><ele>28.0</ele><time>2026-04-25T11:58:47.912Z</time></trkpt><trkpt lat="34.7933779" lon="10.7433932"><ele>28.0</ele><time>2026-04-25T11:58:48.905Z</time></trkpt><trkpt lat="34.793311" lon="10.7434142"><ele>28.0</ele><time>2026-04-25T11:58:49.886Z</time></trkpt><trkpt lat="34.7932479" lon="10.7434332"><ele>28.0</ele><time>2026-04-25T11:58:50.907Z</time></trkpt><trkpt lat="34.7931308" lon="10.7434689"><ele>28.166666666666668</ele><time>2026-04-25T11:58:52.91Z</time></trkpt><trkpt lat="34.7930302" lon="10.7435039"><ele>28.333333333333336</ele><time>2026-04-25T11:58:54.896Z</time></trkpt><trkpt lat="34.7929396" lon="10.7435322"><ele>28.5</ele><time>2026-04-25T11:58:56.913Z</time></trkpt><trkpt lat="34.7928626" lon="10.7435587"><ele>28.666666666666664</ele><time>2026-04-25T11:58:58.906Z</time></trkpt><trkpt lat="34.7927865" lon="10.7435869"><ele>28.833333333333332</ele><time>2026-04-25T11:59:00.893Z</time></trkpt><trkpt lat="34.7927041" lon="10.7436142"><ele>29.0</ele><time>2026-04-25T11:59:02.914Z</time></trkpt><trkpt lat="34.7926197" lon="10.7436432"><ele>29.25</ele><time>2026-04-25T11:59:04.895Z</time></trkpt><trkpt lat="34.7925134" lon="10.7436794"><ele>29.5</ele><time>2026-04-25T11:59:06.906Z</time></trkpt><trkpt lat="34.7923913" lon="10.7437175"><ele>29.75</ele><time>2026-04-25T11:59:08.907Z</time></trkpt><trkpt lat="34.7922721" lon="10.7437647"><ele>30.0</ele><time>2026-04-25T11:59:10.891Z</time></trkpt><trkpt lat="34.7921604" lon="10.7438076"><ele>30.0</ele><time>2026-04-25T11:59:12.897Z</time></trkpt><trkpt lat="34.7920448" lon="10.7438513"><ele>30.0</ele><time>2026-04-25T11:59:14.892Z</time></trkpt><trkpt lat="34.7919267" lon="10.7438981"><ele>30.0</ele><time>2026-04-25T11:59:16.889Z</time></trkpt><trkpt lat="34.7918626" lon="10.7439227"><ele>30.0</ele><time>2026-04-25T11:59:17.901Z</time></trkpt><trkpt lat="34.7917966" lon="10.7439468"><ele>30.0</ele><time>2026-04-25T11:59:18.898Z</time></trkpt><trkpt lat="34.7917277" lon="10.7439739"><ele>29.714285714285715</ele><time>2026-04-25T11:59:19.889Z</time></trkpt><trkpt lat="34.7916611" lon="10.7440013"><ele>29.428571428571427</ele><time>2026-04-25T11:59:20.891Z</time></trkpt><trkpt lat="34.7915946" lon="10.7440221"><ele>29.142857142857142</ele><time>2026-04-25T11:59:21.889Z</time></trkpt><trkpt lat="34.7915222" lon="10.7440443"><ele>28.857142857142858</ele><time>2026-04-25T11:59:22.884Z</time></trkpt><trkpt lat="34.7914485" lon="10.744071"><ele>28.57142857142857</ele><time>2026-04-25T11:59:23.897Z</time></trkpt><trkpt lat="34.7913726" lon="10.7440988"><ele>28.285714285714285</ele><time>2026-04-25T11:59:24.904Z</time></trkpt><trkpt lat="34.7912977" lon="10.7441267"><ele>28.0</ele><time>2026-04-25T11:59:25.888Z</time></trkpt><trkpt lat="34.7912272" lon="10.7441561"><ele>28.000000000000004</ele><time>2026-04-25T11:59:26.894Z</time></trkpt><trkpt lat="34.7911509" lon="10.7441904"><ele>28.0</ele><time>2026-04-25T11:59:27.892Z</time></trkpt><trkpt lat="34.7910813" lon="10.7442213"><ele>28.0</ele><time>2026-04-25T11:59:28.892Z</time></trkpt><trkpt lat="34.7910157" lon="10.7442458"><ele>28.0</ele><time>2026-04-25T11:59:29.889Z</time></trkpt><trkpt lat="34.7909551" lon="10.7442713"><ele>28.000000000000004</ele><time>2026-04-25T11:59:30.894Z</time></trkpt><trkpt lat="34.7908384" lon="10.7443174"><ele>28.0</ele><time>2026-04-25T11:59:32.893Z</time></trkpt><trkpt lat="34.7907342" lon="10.744364"><ele>28.000000000000004</ele><time>2026-04-25T11:59:34.9Z</time></trkpt><trkpt lat="34.7906498" lon="10.7443992"><ele>28.0</ele><time>2026-04-25T11:59:36.912Z</time></trkpt><trkpt lat="34.7905754" lon="10.7444312"><ele>28.0</ele><time>2026-04-25T11:59:38.895Z</time></trkpt><trkpt lat="34.7904962" lon="10.7444683"><ele>28.0</ele><time>2026-04-25T11:59:40.904Z</time></trkpt><trkpt lat="34.7904123" lon="10.7445069"><ele>28.000000000000004</ele><time>2026-04-25T11:59:42.897Z</time></trkpt><trkpt lat="34.7903417" lon="10.7445366"><ele>28.0</ele><time>2026-04-25T11:59:44.904Z</time></trkpt><trkpt lat="34.7902793" lon="10.7445624"><ele>28.0</ele><time>2026-04-25T11:59:46.901Z</time></trkpt><trkpt lat="34.7901965" lon="10.7446035"><ele>27.999999999999996</ele><time>2026-04-25T11:59:49.88Z</time></trkpt><trkpt lat="34.7901349" lon="10.7446256"><ele>27.999999999999996</ele><time>2026-04-25T11:59:51.903Z</time></trkpt><trkpt lat="34.7900375" lon="10.7446606"><ele>28.0</ele><time>2026-04-25T11:59:54.897Z</time></trkpt><trkpt lat="34.789937" lon="10.7447025"><ele>28.0</ele><time>2026-04-25T11:59:56.89Z</time></trkpt><trkpt lat="34.7898237" lon="10.7447367"><ele>27.599999999999998</ele><time>2026-04-25T11:59:58.898Z</time></trkpt><trkpt lat="34.7897131" lon="10.7447699"><ele>27.199999999999996</ele><time>2026-04-25T12:00:00.896Z</time></trkpt><trkpt lat="34.7896207" lon="10.7448043"><ele>26.8</ele><time>2026-04-25T12:00:02.902Z</time></trkpt><trkpt lat="34.7895417" lon="10.7448381"><ele>26.4</ele><time>2026-04-25T12:00:04.895Z</time></trkpt><trkpt lat="34.7894754" lon="10.7448649"><ele>26.0</ele><time>2026-04-25T12:00:06.89Z</time></trkpt><trkpt lat="34.7893855" lon="10.7448837"><ele>26.333333333333332</ele><time>2026-04-25T12:00:08.901Z</time></trkpt><trkpt lat="34.7892825" lon="10.7449221"><ele>26.666666666666664</ele><time>2026-04-25T12:00:10.906Z</time></trkpt><trkpt lat="34.7892067" lon="10.7449554"><ele>27.0</ele><time>2026-04-25T12:00:12.912Z</time></trkpt><trkpt lat="34.7891475" lon="10.7449831"><ele>27.333333333333336</ele><time>2026-04-25T12:00:15.884Z</time></trkpt><trkpt lat="34.7890555" lon="10.7450125"><ele>27.666666666666668</ele><time>2026-04-25T12:00:19.893Z</time></trkpt><trkpt lat="34.7889855" lon="10.7450358"><ele>28.0</ele><time>2026-04-25T12:00:21.909Z</time></trkpt><trkpt lat="34.7889148" lon="10.7450622"><ele>28.0</ele><time>2026-04-25T12:00:23.888Z</time></trkpt><trkpt lat="34.7888452" lon="10.7450864"><ele>28.0</ele><time>2026-04-25T12:00:25.896Z</time></trkpt><trkpt lat="34.7887758" lon="10.7451061"><ele>28.0</ele><time>2026-04-25T12:00:27.909Z</time></trkpt><trkpt lat="34.7887065" lon="10.7451392"><ele>28.0</ele><time>2026-04-25T12:00:29.904Z</time></trkpt><trkpt lat="34.7886378" lon="10.7451745"><ele>28.0</ele><time>2026-04-25T12:00:31.898Z</time></trkpt><trkpt lat="34.7885564" lon="10.745201"><ele>28.0</ele><time>2026-04-25T12:00:33.914Z</time></trkpt><trkpt lat="34.7884914" lon="10.745217"><ele>28.0</ele><time>2026-04-25T12:00:35.911Z</time></trkpt><trkpt lat="34.7884175" lon="10.7452482"><ele>27.500000000000004</ele><time>2026-04-25T12:00:38.894Z</time></trkpt><trkpt lat="34.7883536" lon="10.74527"><ele>27.0</ele><time>2026-04-25T12:00:41.883Z</time></trkpt><trkpt lat="34.7882837" lon="10.7452797"><ele>26.5</ele><time>2026-04-25T12:00:44.913Z</time></trkpt><trkpt lat="34.7882177" lon="10.7452994"><ele>26.0</ele><time>2026-04-25T12:00:46.888Z</time></trkpt><trkpt lat="34.7881392" lon="10.7453285"><ele>25.500000000000004</ele><time>2026-04-25T12:00:49.901Z</time></trkpt><trkpt lat="34.788066" lon="10.7453503"><ele>25.0</ele><time>2026-04-25T12:00:53.844Z</time></trkpt><trkpt lat="34.7879821" lon="10.7453803"><ele>25.0</ele><time>2026-04-25T12:00:56.848Z</time></trkpt><trkpt lat="34.7878725" lon="10.7454125"><ele>25.0</ele><time>2026-04-25T12:00:58.845Z</time></trkpt><trkpt lat="34.7877609" lon="10.7454445"><ele>25.0</ele><time>2026-04-25T12:01:00.841Z</time></trkpt><trkpt lat="34.7876483" lon="10.7454871"><ele>25.0</ele><time>2026-04-25T12:01:02.837Z</time></trkpt><trkpt lat="34.7875306" lon="10.7455283"><ele>25.0</ele><time>2026-04-25T12:01:04.856Z</time></trkpt><trkpt lat="34.787408" lon="10.7455668"><ele>25.0</ele><time>2026-04-25T12:01:06.851Z</time></trkpt><trkpt lat="34.7872868" lon="10.7456077"><ele>25.0</ele><time>2026-04-25T12:01:08.852Z</time></trkpt><trkpt lat="34.7872239" lon="10.7456358"><ele>25.0</ele><time>2026-04-25T12:01:09.856Z</time></trkpt><trkpt lat="34.787162" lon="10.7456618"><ele>25.0</ele><time>2026-04-25T12:01:10.859Z</time></trkpt><trkpt lat="34.7870969" lon="10.7456834"><ele>25.000000000000004</ele><time>2026-04-25T12:01:11.847Z</time></trkpt><trkpt lat="34.7870253" lon="10.7456995"><ele>25.0</ele><time>2026-04-25T12:01:12.849Z</time></trkpt><trkpt lat="34.7869499" lon="10.7457232"><ele>25.0</ele><time>2026-04-25T12:01:13.865Z</time></trkpt><trkpt lat="34.786877" lon="10.7457533"><ele>25.0</ele><time>2026-04-25T12:01:14.849Z</time></trkpt><trkpt lat="34.786807" lon="10.7457794"><ele>25.0</ele><time>2026-04-25T12:01:15.859Z</time></trkpt><trkpt lat="34.7867364" lon="10.7458021"><ele>25.000000000000004</ele><time>2026-04-25T12:01:16.848Z</time></trkpt><trkpt lat="34.7866691" lon="10.7458173"><ele>25.0</ele><time>2026-04-25T12:01:17.847Z</time></trkpt><trkpt lat="34.7866038" lon="10.74583"><ele>25.000000000000004</ele><time>2026-04-25T12:01:18.844Z</time></trkpt><trkpt lat="34.7865401" lon="10.7458404"><ele>25.0</ele><time>2026-04-25T12:01:19.857Z</time></trkpt><trkpt lat="34.7864691" lon="10.7458512"><ele>25.0</ele><time>2026-04-25T12:01:20.861Z</time></trkpt><trkpt lat="34.786402" lon="10.7458599"><ele>25.0</ele><time>2026-04-25T12:01:21.852Z</time></trkpt><trkpt lat="34.7862835" lon="10.745883"><ele>25.000000000000004</ele><time>2026-04-25T12:01:23.85Z</time></trkpt><trkpt lat="34.7862131" lon="10.7458995"><ele>25.0</ele><time>2026-04-25T12:01:24.84Z</time></trkpt><trkpt lat="34.7861414" lon="10.7459098"><ele>25.000000000000004</ele><time>2026-04-25T12:01:25.844Z</time></trkpt><trkpt lat="34.7860685" lon="10.7459168"><ele>25.0</ele><time>2026-04-25T12:01:26.841Z</time></trkpt><trkpt lat="34.7859937" lon="10.7459332"><ele>25.0</ele><time>2026-04-25T12:01:27.856Z</time></trkpt><trkpt lat="34.7859161" lon="10.7459513"><ele>25.0</ele><time>2026-04-25T12:01:28.853Z</time></trkpt><trkpt lat="34.7858422" lon="10.7459689"><ele>25.0</ele><time>2026-04-25T12:01:29.858Z</time></trkpt><trkpt lat="34.7857713" lon="10.7459764"><ele>25.000000000000004</ele><time>2026-04-25T12:01:30.854Z</time></trkpt><trkpt lat="34.7857036" lon="10.745983"><ele>25.0</ele><time>2026-04-25T12:01:31.849Z</time></trkpt><trkpt lat="34.7856399" lon="10.7459895"><ele>25.0</ele><time>2026-04-25T12:01:32.857Z</time></trkpt><trkpt lat="34.7855336" lon="10.7460105"><ele>25.0</ele><time>2026-04-25T12:01:34.844Z</time></trkpt><trkpt lat="34.7854678" lon="10.7460284"><ele>25.0</ele><time>2026-04-25T12:01:36.84Z</time></trkpt><trkpt lat="34.7853918" lon="10.7460579"><ele>25.0</ele><time>2026-04-25T12:01:38.839Z</time></trkpt><trkpt lat="34.7853049" lon="10.746091"><ele>25.0</ele><time>2026-04-25T12:01:40.844Z</time></trkpt><trkpt lat="34.7852007" lon="10.7461036"><ele>25.0</ele><time>2026-04-25T12:01:42.84Z</time></trkpt><trkpt lat="34.7850998" lon="10.7461141"><ele>25.0</ele><time>2026-04-25T12:01:44.854Z</time></trkpt><trkpt lat="34.7849865" lon="10.746128"><ele>25.0</ele><time>2026-04-25T12:01:46.837Z</time></trkpt><trkpt lat="34.7848789" lon="10.7461516"><ele>25.0</ele><time>2026-04-25T12:01:48.845Z</time></trkpt><trkpt lat="34.7847738" lon="10.7461775"><ele>25.0</ele><time>2026-04-25T12:01:50.852Z</time></trkpt><trkpt lat="34.7846634" lon="10.7461924"><ele>25.0</ele><time>2026-04-25T12:01:52.849Z</time></trkpt><trkpt lat="34.7845499" lon="10.7462157"><ele>25.0</ele><time>2026-04-25T12:01:54.85Z</time></trkpt><trkpt lat="34.78443" lon="10.7462392"><ele>25.0</ele><time>2026-04-25T12:01:56.847Z</time></trkpt><trkpt lat="34.7843154" lon="10.7462675"><ele>25.0</ele><time>2026-04-25T12:01:58.845Z</time></trkpt><trkpt lat="34.7841997" lon="10.746289"><ele>24.8</ele><time>2026-04-25T12:02:00.84Z</time></trkpt><trkpt lat="34.7840921" lon="10.7463168"><ele>24.6</ele><time>2026-04-25T12:02:02.845Z</time></trkpt><trkpt lat="34.7839857" lon="10.7463377"><ele>24.4</ele><time>2026-04-25T12:02:04.851Z</time></trkpt><trkpt lat="34.7838972" lon="10.7463562"><ele>24.2</ele><time>2026-04-25T12:02:06.85Z</time></trkpt><trkpt lat="34.7838272" lon="10.7463753"><ele>24.0</ele><time>2026-04-25T12:02:08.853Z</time></trkpt><trkpt lat="34.7837456" lon="10.7463926"><ele>24.0</ele><time>2026-04-25T12:02:10.848Z</time></trkpt><trkpt lat="34.7836644" lon="10.7464132"><ele>24.0</ele><time>2026-04-25T12:02:12.848Z</time></trkpt><trkpt lat="34.7835884" lon="10.7464351"><ele>24.0</ele><time>2026-04-25T12:02:14.86Z</time></trkpt><trkpt lat="34.7835018" lon="10.7464648"><ele>24.0</ele><time>2026-04-25T12:02:16.86Z</time></trkpt><trkpt lat="34.7834447" lon="10.7465003"><ele>24.0</ele><time>2026-04-25T12:02:18.847Z</time></trkpt><trkpt lat="34.7833833" lon="10.7465292"><ele>24.0</ele><time>2026-04-25T12:02:21.858Z</time></trkpt><trkpt lat="34.7833046" lon="10.7465534"><ele>23.799999999999997</ele><time>2026-04-25T12:02:24.834Z</time></trkpt><trkpt lat="34.7832359" lon="10.7465806"><ele>23.599999999999998</ele><time>2026-04-25T12:02:26.85Z</time></trkpt><trkpt lat="34.7831435" lon="10.7466173"><ele>23.4</ele><time>2026-04-25T12:02:28.86Z</time></trkpt><trkpt lat="34.7830268" lon="10.7466609"><ele>23.2</ele><time>2026-04-25T12:02:30.852Z</time></trkpt><trkpt lat="34.7829192" lon="10.7466967"><ele>23.0</ele><time>2026-04-25T12:02:32.857Z</time></trkpt><trkpt lat="34.7828087" lon="10.7467298"><ele>23.0</ele><time>2026-04-25T12:02:34.852Z</time></trkpt><trkpt lat="34.7827105" lon="10.7467607"><ele>23.0</ele><time>2026-04-25T12:02:36.831Z</time></trkpt><trkpt lat="34.7826305" lon="10.7467955"><ele>23.0</ele><time>2026-04-25T12:02:39.843Z</time></trkpt><trkpt lat="34.7825312" lon="10.7468265"><ele>23.0</ele><time>2026-04-25T12:02:42.857Z</time></trkpt><trkpt lat="34.7824265" lon="10.746857"><ele>23.0</ele><time>2026-04-25T12:02:44.841Z</time></trkpt><trkpt lat="34.7822991" lon="10.7468983"><ele>23.142857142857142</ele><time>2026-04-25T12:02:46.842Z</time></trkpt><trkpt lat="34.7822296" lon="10.7469251"><ele>23.285714285714285</ele><time>2026-04-25T12:02:47.85Z</time></trkpt><trkpt lat="34.7821622" lon="10.746954"><ele>23.428571428571427</ele><time>2026-04-25T12:02:48.846Z</time></trkpt><trkpt lat="34.7820978" lon="10.7469784"><ele>23.57142857142857</ele><time>2026-04-25T12:02:49.837Z</time></trkpt><trkpt lat="34.7820253" lon="10.7469997"><ele>23.714285714285715</ele><time>2026-04-25T12:02:50.848Z</time></trkpt><trkpt lat="34.7819558" lon="10.7470276"><ele>23.857142857142854</ele><time>2026-04-25T12:02:51.857Z</time></trkpt><trkpt lat="34.7818813" lon="10.7470472"><ele>24.0</ele><time>2026-04-25T12:02:52.848Z</time></trkpt><trkpt lat="34.7818042" lon="10.7470704"><ele>23.5</ele><time>2026-04-25T12:02:53.857Z</time></trkpt><trkpt lat="34.781728" lon="10.7470929"><ele>23.0</ele><time>2026-04-25T12:02:54.863Z</time></trkpt><trkpt lat="34.7816542" lon="10.7471162"><ele>22.5</ele><time>2026-04-25T12:02:55.841Z</time></trkpt><trkpt lat="34.7815844" lon="10.7471414"><ele>22.0</ele><time>2026-04-25T12:02:56.857Z</time></trkpt><trkpt lat="34.7815212" lon="10.747166"><ele>21.5</ele><time>2026-04-25T12:02:57.839Z</time></trkpt><trkpt lat="34.7814255" lon="10.7472011"><ele>21.0</ele><time>2026-04-25T12:02:59.857Z</time></trkpt><trkpt lat="34.7813397" lon="10.7472187"><ele>21.0</ele><time>2026-04-25T12:03:01.846Z</time></trkpt><trkpt lat="34.7812644" lon="10.7472326"><ele>21.0</ele><time>2026-04-25T12:03:03.852Z</time></trkpt><trkpt lat="34.7812046" lon="10.7472607"><ele>21.0</ele><time>2026-04-25T12:03:10.844Z</time></trkpt><trkpt lat="34.7811371" lon="10.7472998"><ele>21.0</ele><time>2026-04-25T12:03:13.854Z</time></trkpt><trkpt lat="34.7810515" lon="10.7473387"><ele>21.0</ele><time>2026-04-25T12:03:15.859Z</time></trkpt><trkpt lat="34.7809764" lon="10.7473622"><ele>21.0</ele><time>2026-04-25T12:03:17.875Z</time></trkpt><trkpt lat="34.7809035" lon="10.7473732"><ele>22.0</ele><time>2026-04-25T12:03:20.848Z</time></trkpt><trkpt lat="34.7808389" lon="10.7473772"><ele>22.0</ele><time>2026-04-25T12:03:24.882Z</time></trkpt><trkpt lat="34.7809189" lon="10.7473871"><ele>22.0</ele><time>2026-04-25T12:04:27.826Z</time></trkpt></trkseg><trkseg><trkpt lat="34.7809081" lon="10.7473959"><ele>22.0</ele><time>2026-04-25T12:31:25.837Z</time></trkpt><trkpt lat="34.7808334" lon="10.7474403"><ele>22.0</ele><time>2026-04-25T12:31:34.85Z</time></trkpt><trkpt lat="34.7807635" lon="10.7474745"><ele>22.0</ele><time>2026-04-25T12:31:36.838Z</time></trkpt><trkpt lat="34.7806702" lon="10.7475104"><ele>22.0</ele><time>2026-04-25T12:31:38.842Z</time></trkpt><trkpt lat="34.7805652" lon="10.747537"><ele>22.0</ele><time>2026-04-25T12:31:40.836Z</time></trkpt><trkpt lat="34.780466" lon="10.7475697"><ele>22.0</ele><time>2026-04-25T12:31:42.846Z</time></trkpt><trkpt lat="34.7803454" lon="10.7476117"><ele>22.0</ele><time>2026-04-25T12:31:44.839Z</time></trkpt><trkpt lat="34.7802769" lon="10.7476383"><ele>22.0</ele><time>2026-04-25T12:31:45.843Z</time></trkpt><trkpt lat="34.7802027" lon="10.7476628"><ele>22.0</ele><time>2026-04-25T12:31:46.849Z</time></trkpt><trkpt lat="34.7801283" lon="10.7476898"><ele>22.0</ele><time>2026-04-25T12:31:47.841Z</time></trkpt><trkpt lat="34.7800608" lon="10.7477143"><ele>22.0</ele><time>2026-04-25T12:31:48.839Z</time></trkpt><trkpt lat="34.7799945" lon="10.7477412"><ele>21.833333333333332</ele><time>2026-04-25T12:31:49.845Z</time></trkpt><trkpt lat="34.779921" lon="10.7477719"><ele>21.666666666666664</ele><time>2026-04-25T12:31:50.842Z</time></trkpt><trkpt lat="34.7798491" lon="10.7478039"><ele>21.5</ele><time>2026-04-25T12:31:51.856Z</time></trkpt><trkpt lat="34.7797781" lon="10.7478325"><ele>21.333333333333332</ele><time>2026-04-25T12:31:52.839Z</time></trkpt><trkpt lat="34.7797011" lon="10.747858"><ele>21.166666666666668</ele><time>2026-04-25T12:31:53.846Z</time></trkpt><trkpt lat="34.7796275" lon="10.7478857"><ele>21.0</ele><time>2026-04-25T12:31:54.836Z</time></trkpt><trkpt lat="34.7795536" lon="10.7479135"><ele>21.0</ele><time>2026-04-25T12:31:55.837Z</time></trkpt><trkpt lat="34.7794788" lon="10.7479439"><ele>21.0</ele><time>2026-04-25T12:31:56.843Z</time></trkpt><trkpt lat="34.7793988" lon="10.7479769"><ele>21.0</ele><time>2026-04-25T12:31:57.833Z</time></trkpt><trkpt lat="34.7793166" lon="10.7480134"><ele>21.0</ele><time>2026-04-25T12:31:58.841Z</time></trkpt><trkpt lat="34.7792359" lon="10.7480502"><ele>21.0</ele><time>2026-04-25T12:31:59.851Z</time></trkpt><trkpt lat="34.7791501" lon="10.7480936"><ele>21.0</ele><time>2026-04-25T12:32:00.838Z</time></trkpt><trkpt lat="34.7790665" lon="10.7481319"><ele>21.200000000000003</ele><time>2026-04-25T12:32:01.852Z</time></trkpt><trkpt lat="34.7789787" lon="10.7481732"><ele>21.400000000000002</ele><time>2026-04-25T12:32:02.829Z</time></trkpt><trkpt lat="34.7788905" lon="10.7482161"><ele>21.6</ele><time>2026-04-25T12:32:03.843Z</time></trkpt><trkpt lat="34.7788" lon="10.748261"><ele>21.8</ele><time>2026-04-25T12:32:04.838Z</time></trkpt><trkpt lat="34.7787119" lon="10.7483073"><ele>22.0</ele><time>2026-04-25T12:32:05.853Z</time></trkpt><trkpt lat="34.7786232" lon="10.7483521"><ele>22.0</ele><time>2026-04-25T12:32:06.846Z</time></trkpt><trkpt lat="34.7785363" lon="10.7483956"><ele>22.0</ele><time>2026-04-25T12:32:07.841Z</time></trkpt><trkpt lat="34.7784495" lon="10.7484453"><ele>22.0</ele><time>2026-04-25T12:32:08.839Z</time></trkpt><trkpt lat="34.7783586" lon="10.7484909"><ele>22.0</ele><time>2026-04-25T12:32:09.838Z</time></trkpt><trkpt lat="34.7782672" lon="10.7485396"><ele>22.0</ele><time>2026-04-25T12:32:10.84Z</time></trkpt><trkpt lat="34.7781797" lon="10.748593"><ele>22.0</ele><time>2026-04-25T12:32:11.848Z</time></trkpt><trkpt lat="34.7780905" lon="10.7486446"><ele>22.0</ele><time>2026-04-25T12:32:12.836Z</time></trkpt><trkpt lat="34.7780001" lon="10.7487009"><ele>22.0</ele><time>2026-04-25T12:32:13.852Z</time></trkpt><trkpt lat="34.7779103" lon="10.748756"><ele>22.0</ele><time>2026-04-25T12:32:14.838Z</time></trkpt><trkpt lat="34.7778227" lon="10.748813"><ele>22.0</ele><time>2026-04-25T12:32:15.848Z</time></trkpt><trkpt lat="34.777732" lon="10.7488738"><ele>22.0</ele><time>2026-04-25T12:32:16.848Z</time></trkpt><trkpt lat="34.7776458" lon="10.7489356"><ele>22.0</ele><time>2026-04-25T12:32:17.858Z</time></trkpt><trkpt lat="34.777562" lon="10.7489981"><ele>22.0</ele><time>2026-04-25T12:32:18.86Z</time></trkpt><trkpt lat="34.7774754" lon="10.7490605"><ele>22.0</ele><time>2026-04-25T12:32:19.836Z</time></trkpt><trkpt lat="34.7773881" lon="10.7491197"><ele>22.0</ele><time>2026-04-25T12:32:20.842Z</time></trkpt><trkpt lat="34.7773013" lon="10.7491814"><ele>22.0</ele><time>2026-04-25T12:32:21.843Z</time></trkpt><trkpt lat="34.7772171" lon="10.7492436"><ele>22.0</ele><time>2026-04-25T12:32:22.842Z</time></trkpt><trkpt lat="34.7771392" lon="10.7493037"><ele>22.0</ele><time>2026-04-25T12:32:23.836Z</time></trkpt><trkpt lat="34.77706" lon="10.749369"><ele>22.0</ele><time>2026-04-25T12:32:24.855Z</time></trkpt><trkpt lat="34.7769845" lon="10.7494296"><ele>22.0</ele><time>2026-04-25T12:32:25.836Z</time></trkpt><trkpt lat="34.7769107" lon="10.7494869"><ele>21.5</ele><time>2026-04-25T12:32:26.847Z</time></trkpt><trkpt lat="34.7768424" lon="10.749543"><ele>21.0</ele><time>2026-04-25T12:32:27.847Z</time></trkpt><trkpt lat="34.7767706" lon="10.7496008"><ele>20.5</ele><time>2026-04-25T12:32:28.847Z</time></trkpt><trkpt lat="34.7766964" lon="10.7496636"><ele>20.0</ele><time>2026-04-25T12:32:29.835Z</time></trkpt><trkpt lat="34.7766183" lon="10.7497307"><ele>19.5</ele><time>2026-04-25T12:32:30.843Z</time></trkpt><trkpt lat="34.7765408" lon="10.7497925"><ele>19.0</ele><time>2026-04-25T12:32:31.851Z</time></trkpt><trkpt lat="34.7764643" lon="10.7498563"><ele>19.0</ele><time>2026-04-25T12:32:32.836Z</time></trkpt><trkpt lat="34.7763831" lon="10.7499207"><ele>19.0</ele><time>2026-04-25T12:32:33.844Z</time></trkpt><trkpt lat="34.7763073" lon="10.7499834"><ele>19.0</ele><time>2026-04-25T12:32:34.817Z</time></trkpt><trkpt lat="34.7762336" lon="10.7500424"><ele>19.0</ele><time>2026-04-25T12:32:35.827Z</time></trkpt><trkpt lat="34.7761586" lon="10.7501014"><ele>19.0</ele><time>2026-04-25T12:32:36.837Z</time></trkpt><trkpt lat="34.7760833" lon="10.7501644"><ele>19.0</ele><time>2026-04-25T12:32:37.857Z</time></trkpt><trkpt lat="34.7760107" lon="10.7502289"><ele>19.0</ele><time>2026-04-25T12:32:38.83Z</time></trkpt><trkpt lat="34.7759354" lon="10.75029"><ele>19.0</ele><time>2026-04-25T12:32:39.848Z</time></trkpt><trkpt lat="34.7758606" lon="10.7503527"><ele>19.0</ele><time>2026-04-25T12:32:40.841Z</time></trkpt><trkpt lat="34.7757814" lon="10.7504133"><ele>19.0</ele><time>2026-04-25T12:32:41.834Z</time></trkpt><trkpt lat="34.7757054" lon="10.7504726"><ele>19.0</ele><time>2026-04-25T12:32:42.854Z</time></trkpt><trkpt lat="34.7756296" lon="10.7505277"><ele>19.0</ele><time>2026-04-25T12:32:43.84Z</time></trkpt><trkpt lat="34.7755566" lon="10.7505846"><ele>19.0</ele><time>2026-04-25T12:32:44.839Z</time></trkpt><trkpt lat="34.7754843" lon="10.7506423"><ele>19.0</ele><time>2026-04-25T12:32:45.851Z</time></trkpt><trkpt lat="34.7754107" lon="10.7506992"><ele>19.0</ele><time>2026-04-25T12:32:46.836Z</time></trkpt><trkpt lat="34.7753381" lon="10.7507544"><ele>19.0</ele><time>2026-04-25T12:32:47.841Z</time></trkpt><trkpt lat="34.7752626" lon="10.7508147"><ele>18.8</ele><time>2026-04-25T12:32:48.846Z</time></trkpt><trkpt lat="34.7751826" lon="10.7508704"><ele>18.599999999999998</ele><time>2026-04-25T12:32:49.852Z</time></trkpt><trkpt lat="34.7751052" lon="10.7509283"><ele>18.4</ele><time>2026-04-25T12:32:50.853Z</time></trkpt><trkpt lat="34.7750284" lon="10.750992"><ele>18.2</ele><time>2026-04-25T12:32:51.854Z</time></trkpt><trkpt lat="34.7749516" lon="10.751052"><ele>18.0</ele><time>2026-04-25T12:32:52.835Z</time></trkpt><trkpt lat="34.7748794" lon="10.7511087"><ele>18.0</ele><time>2026-04-25T12:32:53.846Z</time></trkpt><trkpt lat="34.7748024" lon="10.7511645"><ele>18.0</ele><time>2026-04-25T12:32:54.847Z</time></trkpt><trkpt lat="34.7747285" lon="10.7512183"><ele>18.0</ele><time>2026-04-25T12:32:55.841Z</time></trkpt><trkpt lat="34.7746563" lon="10.7512725"><ele>18.0</ele><time>2026-04-25T12:32:56.84Z</time></trkpt><trkpt lat="34.7745794" lon="10.7513172"><ele>18.0</ele><time>2026-04-25T12:32:57.851Z</time></trkpt><trkpt lat="34.7745058" lon="10.7513632"><ele>18.0</ele><time>2026-04-25T12:32:58.842Z</time></trkpt><trkpt lat="34.7744315" lon="10.7514079"><ele>18.0</ele><time>2026-04-25T12:32:59.844Z</time></trkpt><trkpt lat="34.7743566" lon="10.7514514"><ele>18.0</ele><time>2026-04-25T12:33:00.838Z</time></trkpt><trkpt lat="34.7742795" lon="10.7514963"><ele>18.0</ele><time>2026-04-25T12:33:01.842Z</time></trkpt><trkpt lat="34.7741968" lon="10.7515352"><ele>18.0</ele><time>2026-04-25T12:33:02.838Z</time></trkpt><trkpt lat="34.7741177" lon="10.7515702"><ele>18.0</ele><time>2026-04-25T12:33:03.844Z</time></trkpt><trkpt lat="34.7740438" lon="10.7516116"><ele>18.0</ele><time>2026-04-25T12:33:04.844Z</time></trkpt><trkpt lat="34.773971" lon="10.7516583"><ele>17.833333333333332</ele><time>2026-04-25T12:33:05.838Z</time></trkpt><trkpt lat="34.7738952" lon="10.7517065"><ele>17.666666666666668</ele><time>2026-04-25T12:33:06.852Z</time></trkpt><trkpt lat="34.7738178" lon="10.7517381"><ele>17.5</ele><time>2026-04-25T12:33:07.843Z</time></trkpt><trkpt lat="34.773736" lon="10.7517656"><ele>17.333333333333336</ele><time>2026-04-25T12:33:08.843Z</time></trkpt><trkpt lat="34.7736578" lon="10.7517981"><ele>17.166666666666668</ele><time>2026-04-25T12:33:09.843Z</time></trkpt><trkpt lat="34.7735807" lon="10.7518251"><ele>17.0</ele><time>2026-04-25T12:33:10.837Z</time></trkpt><trkpt lat="34.7735066" lon="10.7518535"><ele>16.833333333333336</ele><time>2026-04-25T12:33:11.852Z</time></trkpt><trkpt lat="34.7734303" lon="10.7518856"><ele>16.666666666666668</ele><time>2026-04-25T12:33:12.844Z</time></trkpt><trkpt lat="34.7733497" lon="10.7519094"><ele>16.5</ele><time>2026-04-25T12:33:13.837Z</time></trkpt><trkpt lat="34.7732654" lon="10.7519382"><ele>16.333333333333332</ele><time>2026-04-25T12:33:14.83Z</time></trkpt><trkpt lat="34.7731754" lon="10.7519657"><ele>16.166666666666664</ele><time>2026-04-25T12:33:15.845Z</time></trkpt><trkpt lat="34.7730911" lon="10.7519921"><ele>16.0</ele><time>2026-04-25T12:33:16.866Z</time></trkpt><trkpt lat="34.7730067" lon="10.7520234"><ele>15.999999999999998</ele><time>2026-04-25T12:33:17.852Z</time></trkpt><trkpt lat="34.7729239" lon="10.7520495"><ele>16.0</ele><time>2026-04-25T12:33:18.845Z</time></trkpt><trkpt lat="34.7728326" lon="10.752073"><ele>16.0</ele><time>2026-04-25T12:33:19.834Z</time></trkpt><trkpt lat="34.7727478" lon="10.7520916"><ele>16.0</ele><time>2026-04-25T12:33:20.833Z</time></trkpt><trkpt lat="34.772669" lon="10.7521138"><ele>15.999999999999998</ele><time>2026-04-25T12:33:21.842Z</time></trkpt><trkpt lat="34.7725924" lon="10.752133"><ele>16.0</ele><time>2026-04-25T12:33:22.83Z</time></trkpt><trkpt lat="34.772517" lon="10.7521556"><ele>15.666666666666666</ele><time>2026-04-25T12:33:23.82Z</time></trkpt><trkpt lat="34.7724348" lon="10.7521819"><ele>15.333333333333332</ele><time>2026-04-25T12:33:24.848Z</time></trkpt><trkpt lat="34.7723495" lon="10.7522099"><ele>15.0</ele><time>2026-04-25T12:33:25.841Z</time></trkpt><trkpt lat="34.7722646" lon="10.7522372"><ele>14.666666666666668</ele><time>2026-04-25T12:33:26.825Z</time></trkpt><trkpt lat="34.7721761" lon="10.7522597"><ele>14.333333333333334</ele><time>2026-04-25T12:33:27.824Z</time></trkpt><trkpt lat="34.7720869" lon="10.7522849"><ele>14.0</ele><time>2026-04-25T12:33:28.851Z</time></trkpt><trkpt lat="34.7719999" lon="10.7523106"><ele>14.0</ele><time>2026-04-25T12:33:29.836Z</time></trkpt><trkpt lat="34.7719152" lon="10.7523345"><ele>13.999999999999998</ele><time>2026-04-25T12:33:30.845Z</time></trkpt><trkpt lat="34.7718266" lon="10.7523605"><ele>13.999999999999998</ele><time>2026-04-25T12:33:31.845Z</time></trkpt><trkpt lat="34.7717405" lon="10.7523883"><ele>14.0</ele><time>2026-04-25T12:33:32.831Z</time></trkpt><trkpt lat="34.7716518" lon="10.7524198"><ele>14.0</ele><time>2026-04-25T12:33:33.845Z</time></trkpt><trkpt lat="34.7715575" lon="10.7524449"><ele>14.2</ele><time>2026-04-25T12:33:34.833Z</time></trkpt><trkpt lat="34.771466" lon="10.7524693"><ele>14.399999999999999</ele><time>2026-04-25T12:33:35.842Z</time></trkpt><trkpt lat="34.7713782" lon="10.7524947"><ele>14.6</ele><time>2026-04-25T12:33:36.824Z</time></trkpt><trkpt lat="34.7712904" lon="10.7525172"><ele>14.8</ele><time>2026-04-25T12:33:37.828Z</time></trkpt><trkpt lat="34.7711933" lon="10.7525366"><ele>15.0</ele><time>2026-04-25T12:33:38.853Z</time></trkpt><trkpt lat="34.7710979" lon="10.7525567"><ele>15.166666666666666</ele><time>2026-04-25T12:33:39.842Z</time></trkpt><trkpt lat="34.7710045" lon="10.7525796"><ele>15.333333333333332</ele><time>2026-04-25T12:33:40.839Z</time></trkpt><trkpt lat="34.7709143" lon="10.7525989"><ele>15.5</ele><time>2026-04-25T12:33:41.834Z</time></trkpt><trkpt lat="34.7708283" lon="10.7526221"><ele>15.666666666666666</ele><time>2026-04-25T12:33:42.841Z</time></trkpt><trkpt lat="34.7707494" lon="10.7526444"><ele>15.833333333333332</ele><time>2026-04-25T12:33:43.855Z</time></trkpt><trkpt lat="34.7706715" lon="10.7526635"><ele>16.0</ele><time>2026-04-25T12:33:44.828Z</time></trkpt><trkpt lat="34.7705936" lon="10.7526808"><ele>16.0</ele><time>2026-04-25T12:33:45.836Z</time></trkpt><trkpt lat="34.770524" lon="10.7526983"><ele>15.999999999999998</ele><time>2026-04-25T12:33:46.83Z</time></trkpt><trkpt lat="34.7704211" lon="10.7527245"><ele>16.0</ele><time>2026-04-25T12:33:48.848Z</time></trkpt><trkpt lat="34.7703507" lon="10.7527346"><ele>16.0</ele><time>2026-04-25T12:33:50.826Z</time></trkpt><trkpt lat="34.770287" lon="10.7527443"><ele>15.999999999999998</ele><time>2026-04-25T12:33:57.821Z</time></trkpt><trkpt lat="34.7702232" lon="10.7527623"><ele>16.0</ele><time>2026-04-25T12:34:13.848Z</time></trkpt><trkpt lat="34.7701603" lon="10.7527698"><ele>16.0</ele><time>2026-04-25T12:34:17.839Z</time></trkpt><trkpt lat="34.770086" lon="10.7527801"><ele>15.666666666666666</ele><time>2026-04-25T12:34:23.825Z</time></trkpt><trkpt lat="34.7700107" lon="10.7527896"><ele>15.333333333333332</ele><time>2026-04-25T12:34:28.839Z</time></trkpt><trkpt lat="34.7699322" lon="10.7527904"><ele>15.0</ele><time>2026-04-25T12:34:40.829Z</time></trkpt><trkpt lat="34.7698737" lon="10.7527603"><ele>14.666666666666668</ele><time>2026-04-25T12:34:42.836Z</time></trkpt><trkpt lat="34.7698087" lon="10.7526827"><ele>14.333333333333334</ele><time>2026-04-25T12:34:45.829Z</time></trkpt><trkpt lat="34.7697613" lon="10.7526071"><ele>14.0</ele><time>2026-04-25T12:34:47.837Z</time></trkpt><trkpt lat="34.7697075" lon="10.7524795"><ele>14.0</ele><time>2026-04-25T12:34:49.824Z</time></trkpt><trkpt lat="34.7696805" lon="10.7524059"><ele>14.0</ele><time>2026-04-25T12:34:50.841Z</time></trkpt><trkpt lat="34.7696526" lon="10.7523232"><ele>14.0</ele><time>2026-04-25T12:34:51.824Z</time></trkpt><trkpt lat="34.7696243" lon="10.7522499"><ele>14.0</ele><time>2026-04-25T12:34:52.839Z</time></trkpt><trkpt lat="34.7695967" lon="10.7521735"><ele>14.0</ele><time>2026-04-25T12:34:53.845Z</time></trkpt><trkpt lat="34.7695687" lon="10.7520873"><ele>14.0</ele><time>2026-04-25T12:34:54.84Z</time></trkpt><trkpt lat="34.7695415" lon="10.752001"><ele>14.0</ele><time>2026-04-25T12:34:55.822Z</time></trkpt><trkpt lat="34.7695112" lon="10.7519086"><ele>14.166666666666668</ele><time>2026-04-25T12:34:56.845Z</time></trkpt><trkpt lat="34.7694928" lon="10.7518105"><ele>14.333333333333334</ele><time>2026-04-25T12:34:57.832Z</time></trkpt><trkpt lat="34.7694706" lon="10.7517112"><ele>14.5</ele><time>2026-04-25T12:34:58.836Z</time></trkpt><trkpt lat="34.7694449" lon="10.751616"><ele>14.666666666666668</ele><time>2026-04-25T12:34:59.832Z</time></trkpt><trkpt lat="34.7694205" lon="10.7515286"><ele>14.833333333333334</ele><time>2026-04-25T12:35:00.848Z</time></trkpt><trkpt lat="34.7693928" lon="10.7514409"><ele>15.0</ele><time>2026-04-25T12:35:01.829Z</time></trkpt><trkpt lat="34.7693684" lon="10.7513587"><ele>15.0</ele><time>2026-04-25T12:35:02.835Z</time></trkpt><trkpt lat="34.7693455" lon="10.75128"><ele>15.0</ele><time>2026-04-25T12:35:03.839Z</time></trkpt><trkpt lat="34.7693141" lon="10.7512052"><ele>15.0</ele><time>2026-04-25T12:35:04.83Z</time></trkpt><trkpt lat="34.7692852" lon="10.7511314"><ele>15.0</ele><time>2026-04-25T12:35:05.843Z</time></trkpt><trkpt lat="34.7692578" lon="10.7510558"><ele>15.0</ele><time>2026-04-25T12:35:06.85Z</time></trkpt><trkpt lat="34.7692339" lon="10.7509785"><ele>15.0</ele><time>2026-04-25T12:35:07.845Z</time></trkpt><trkpt lat="34.7692168" lon="10.7508983"><ele>15.0</ele><time>2026-04-25T12:35:08.853Z</time></trkpt><trkpt lat="34.7691974" lon="10.7508199"><ele>15.0</ele><time>2026-04-25T12:35:09.831Z</time></trkpt><trkpt lat="34.7691733" lon="10.7507342"><ele>15.0</ele><time>2026-04-25T12:35:10.844Z</time></trkpt><trkpt lat="34.7691491" lon="10.7506571"><ele>15.0</ele><time>2026-04-25T12:35:11.832Z</time></trkpt><trkpt lat="34.769125" lon="10.7505746"><ele>15.0</ele><time>2026-04-25T12:35:12.831Z</time></trkpt><trkpt lat="34.7690981" lon="10.7504988"><ele>15.0</ele><time>2026-04-25T12:35:13.837Z</time></trkpt><trkpt lat="34.7690715" lon="10.7504233"><ele>15.0</ele><time>2026-04-25T12:35:14.843Z</time></trkpt><trkpt lat="34.7690425" lon="10.7503428"><ele>15.0</ele><time>2026-04-25T12:35:15.836Z</time></trkpt><trkpt lat="34.7690154" lon="10.7502674"><ele>15.166666666666666</ele><time>2026-04-25T12:35:16.829Z</time></trkpt><trkpt lat="34.7689831" lon="10.7501972"><ele>15.333333333333332</ele><time>2026-04-25T12:35:17.831Z</time></trkpt><trkpt lat="34.7689509" lon="10.7501248"><ele>15.5</ele><time>2026-04-25T12:35:18.823Z</time></trkpt><trkpt lat="34.7689054" lon="10.7500415"><ele>15.666666666666666</ele><time>2026-04-25T12:35:19.828Z</time></trkpt><trkpt lat="34.7688645" lon="10.7499455"><ele>15.833333333333332</ele><time>2026-04-25T12:35:20.823Z</time></trkpt><trkpt lat="34.7688217" lon="10.749839"><ele>16.0</ele><time>2026-04-25T12:35:21.855Z</time></trkpt><trkpt lat="34.7687748" lon="10.7497272"><ele>16.0</ele><time>2026-04-25T12:35:22.846Z</time></trkpt><trkpt lat="34.7687321" lon="10.7496119"><ele>16.0</ele><time>2026-04-25T12:35:23.841Z</time></trkpt><trkpt lat="34.7686895" lon="10.7494908"><ele>16.0</ele><time>2026-04-25T12:35:24.845Z</time></trkpt><trkpt lat="34.7686478" lon="10.7493726"><ele>16.0</ele><time>2026-04-25T12:35:25.833Z</time></trkpt><trkpt lat="34.768602" lon="10.749255"><ele>16.0</ele><time>2026-04-25T12:35:26.837Z</time></trkpt><trkpt lat="34.7685517" lon="10.7491278"><ele>16.0</ele><time>2026-04-25T12:35:27.832Z</time></trkpt><trkpt lat="34.768499" lon="10.7490074"><ele>16.0</ele><time>2026-04-25T12:35:28.831Z</time></trkpt><trkpt lat="34.7684444" lon="10.7488845"><ele>16.0</ele><time>2026-04-25T12:35:29.835Z</time></trkpt><trkpt lat="34.7683872" lon="10.7487563"><ele>16.0</ele><time>2026-04-25T12:35:30.833Z</time></trkpt><trkpt lat="34.7683336" lon="10.7486293"><ele>16.0</ele><time>2026-04-25T12:35:31.854Z</time></trkpt><trkpt lat="34.7682758" lon="10.748502"><ele>16.0</ele><time>2026-04-25T12:35:32.834Z</time></trkpt><trkpt lat="34.7682117" lon="10.7483784"><ele>16.0</ele><time>2026-04-25T12:35:33.839Z</time></trkpt><trkpt lat="34.7681485" lon="10.7482565"><ele>16.0</ele><time>2026-04-25T12:35:34.835Z</time></trkpt><trkpt lat="34.7680852" lon="10.748133"><ele>16.0</ele><time>2026-04-25T12:35:35.841Z</time></trkpt><trkpt lat="34.7680203" lon="10.748008"><ele>16.0</ele><time>2026-04-25T12:35:36.844Z</time></trkpt><trkpt lat="34.7679534" lon="10.7478839"><ele>16.0</ele><time>2026-04-25T12:35:37.823Z</time></trkpt><trkpt lat="34.7678843" lon="10.7477572"><ele>16.0</ele><time>2026-04-25T12:35:38.836Z</time></trkpt><trkpt lat="34.7678132" lon="10.7476176"><ele>15.75</ele><time>2026-04-25T12:35:39.834Z</time></trkpt><trkpt lat="34.7677377" lon="10.7474727"><ele>15.5</ele><time>2026-04-25T12:35:40.84Z</time></trkpt><trkpt lat="34.7676595" lon="10.7473246"><ele>15.25</ele><time>2026-04-25T12:35:41.844Z</time></trkpt><trkpt lat="34.7675775" lon="10.7471751"><ele>15.0</ele><time>2026-04-25T12:35:42.838Z</time></trkpt><trkpt lat="34.7674966" lon="10.7470237"><ele>15.5</ele><time>2026-04-25T12:35:43.843Z</time></trkpt><trkpt lat="34.7674087" lon="10.7468835"><ele>16.0</ele><time>2026-04-25T12:35:44.835Z</time></trkpt><trkpt lat="34.7673203" lon="10.7467458"><ele>16.5</ele><time>2026-04-25T12:35:45.825Z</time></trkpt><trkpt lat="34.7672237" lon="10.7466023"><ele>17.0</ele><time>2026-04-25T12:35:46.822Z</time></trkpt><trkpt lat="34.7671302" lon="10.7464575"><ele>17.0</ele><time>2026-04-25T12:35:47.851Z</time></trkpt><trkpt lat="34.7670359" lon="10.7463065"><ele>17.0</ele><time>2026-04-25T12:35:48.821Z</time></trkpt><trkpt lat="34.7669389" lon="10.7461618"><ele>17.0</ele><time>2026-04-25T12:35:49.825Z</time></trkpt><trkpt lat="34.7668448" lon="10.746018"><ele>17.0</ele><time>2026-04-25T12:35:50.829Z</time></trkpt><trkpt lat="34.7667513" lon="10.7458791"><ele>17.0</ele><time>2026-04-25T12:35:51.841Z</time></trkpt><trkpt lat="34.7666578" lon="10.7457454"><ele>17.0</ele><time>2026-04-25T12:35:52.834Z</time></trkpt><trkpt lat="34.7665677" lon="10.7456144"><ele>17.0</ele><time>2026-04-25T12:35:53.845Z</time></trkpt><trkpt lat="34.7664737" lon="10.7454872"><ele>17.0</ele><time>2026-04-25T12:35:54.838Z</time></trkpt><trkpt lat="34.7663752" lon="10.7453575"><ele>17.0</ele><time>2026-04-25T12:35:55.844Z</time></trkpt><trkpt lat="34.7662769" lon="10.7452278"><ele>17.0</ele><time>2026-04-25T12:35:56.837Z</time></trkpt><trkpt lat="34.7661744" lon="10.7450985"><ele>17.0</ele><time>2026-04-25T12:35:57.844Z</time></trkpt><trkpt lat="34.7660701" lon="10.7449713"><ele>17.0</ele><time>2026-04-25T12:35:58.842Z</time></trkpt><trkpt lat="34.7659644" lon="10.7448462"><ele>17.0</ele><time>2026-04-25T12:35:59.84Z</time></trkpt><trkpt lat="34.7658616" lon="10.7447271"><ele>17.0</ele><time>2026-04-25T12:36:00.839Z</time></trkpt><trkpt lat="34.7657588" lon="10.7446022"><ele>17.0</ele><time>2026-04-25T12:36:01.842Z</time></trkpt><trkpt lat="34.765653" lon="10.744484"><ele>16.666666666666668</ele><time>2026-04-25T12:36:02.83Z</time></trkpt><trkpt lat="34.765546" lon="10.7443603"><ele>16.333333333333332</ele><time>2026-04-25T12:36:03.844Z</time></trkpt><trkpt lat="34.7654338" lon="10.7442268"><ele>16.0</ele><time>2026-04-25T12:36:04.83Z</time></trkpt><trkpt lat="34.7653253" lon="10.7440957"><ele>16.0</ele><time>2026-04-25T12:36:05.825Z</time></trkpt><trkpt lat="34.7652182" lon="10.7439632"><ele>16.0</ele><time>2026-04-25T12:36:06.838Z</time></trkpt><trkpt lat="34.7651116" lon="10.7438357"><ele>16.0</ele><time>2026-04-25T12:36:07.845Z</time></trkpt><trkpt lat="34.7650024" lon="10.7437103"><ele>16.25</ele><time>2026-04-25T12:36:08.841Z</time></trkpt><trkpt lat="34.7648935" lon="10.743586"><ele>16.5</ele><time>2026-04-25T12:36:09.828Z</time></trkpt><trkpt lat="34.7647909" lon="10.74346"><ele>16.75</ele><time>2026-04-25T12:36:10.827Z</time></trkpt><trkpt lat="34.7646853" lon="10.7433345"><ele>17.0</ele><time>2026-04-25T12:36:11.841Z</time></trkpt><trkpt lat="34.7645774" lon="10.7432086"><ele>17.0</ele><time>2026-04-25T12:36:12.84Z</time></trkpt><trkpt lat="34.7644712" lon="10.7430837"><ele>17.0</ele><time>2026-04-25T12:36:13.834Z</time></trkpt><trkpt lat="34.7643655" lon="10.7429596"><ele>17.0</ele><time>2026-04-25T12:36:14.847Z</time></trkpt><trkpt lat="34.7642617" lon="10.7428388"><ele>17.0</ele><time>2026-04-25T12:36:15.844Z</time></trkpt><trkpt lat="34.7641547" lon="10.7427162"><ele>17.25</ele><time>2026-04-25T12:36:16.826Z</time></trkpt><trkpt lat="34.7640534" lon="10.7425983"><ele>17.5</ele><time>2026-04-25T12:36:17.823Z</time></trkpt><trkpt lat="34.7639517" lon="10.7424809"><ele>17.75</ele><time>2026-04-25T12:36:18.832Z</time></trkpt><trkpt lat="34.763849" lon="10.7423628"><ele>18.0</ele><time>2026-04-25T12:36:19.829Z</time></trkpt><trkpt lat="34.763749" lon="10.7422438"><ele>18.0</ele><time>2026-04-25T12:36:20.836Z</time></trkpt><trkpt lat="34.7636459" lon="10.7421236"><ele>18.0</ele><time>2026-04-25T12:36:21.836Z</time></trkpt><trkpt lat="34.7635462" lon="10.7420037"><ele>18.0</ele><time>2026-04-25T12:36:22.83Z</time></trkpt><trkpt lat="34.76345" lon="10.7418855"><ele>18.0</ele><time>2026-04-25T12:36:23.815Z</time></trkpt><trkpt lat="34.7633506" lon="10.7417696"><ele>18.25</ele><time>2026-04-25T12:36:24.84Z</time></trkpt><trkpt lat="34.7632548" lon="10.7416498"><ele>18.5</ele><time>2026-04-25T12:36:25.828Z</time></trkpt><trkpt lat="34.7631584" lon="10.7415268"><ele>18.75</ele><time>2026-04-25T12:36:26.836Z</time></trkpt><trkpt lat="34.7630543" lon="10.7414063"><ele>19.0</ele><time>2026-04-25T12:36:27.874Z</time></trkpt><trkpt lat="34.7629459" lon="10.7412805"><ele>19.0</ele><time>2026-04-25T12:36:28.829Z</time></trkpt><trkpt lat="34.7628393" lon="10.7411441"><ele>19.0</ele><time>2026-04-25T12:36:29.834Z</time></trkpt><trkpt lat="34.7627363" lon="10.7410091"><ele>19.0</ele><time>2026-04-25T12:36:30.827Z</time></trkpt><trkpt lat="34.7626361" lon="10.740878"><ele>18.0</ele><time>2026-04-25T12:36:31.833Z</time></trkpt><trkpt lat="34.7625327" lon="10.7407411"><ele>17.0</ele><time>2026-04-25T12:36:32.835Z</time></trkpt><trkpt lat="34.7624292" lon="10.7406034"><ele>16.0</ele><time>2026-04-25T12:36:33.839Z</time></trkpt><trkpt lat="34.7623254" lon="10.7404655"><ele>16.0</ele><time>2026-04-25T12:36:34.84Z</time></trkpt><trkpt lat="34.7622197" lon="10.7403281"><ele>16.0</ele><time>2026-04-25T12:36:35.824Z</time></trkpt><trkpt lat="34.7621285" lon="10.7401844"><ele>16.0</ele><time>2026-04-25T12:36:36.844Z</time></trkpt><trkpt lat="34.7620279" lon="10.7400441"><ele>16.0</ele><time>2026-04-25T12:36:37.848Z</time></trkpt><trkpt lat="34.7619263" lon="10.7399012"><ele>16.0</ele><time>2026-04-25T12:36:38.839Z</time></trkpt><trkpt lat="34.7618286" lon="10.739755"><ele>16.0</ele><time>2026-04-25T12:36:39.831Z</time></trkpt><trkpt lat="34.7617262" lon="10.7395972"><ele>16.0</ele><time>2026-04-25T12:36:40.838Z</time></trkpt><trkpt lat="34.7616261" lon="10.739457"><ele>16.0</ele><time>2026-04-25T12:36:41.839Z</time></trkpt><trkpt lat="34.7615261" lon="10.7393158"><ele>16.0</ele><time>2026-04-25T12:36:42.829Z</time></trkpt><trkpt lat="34.7614267" lon="10.7391756"><ele>16.25</ele><time>2026-04-25T12:36:43.845Z</time></trkpt><trkpt lat="34.7613268" lon="10.7390441"><ele>16.5</ele><time>2026-04-25T12:36:44.84Z</time></trkpt><trkpt lat="34.7612296" lon="10.7389142"><ele>16.75</ele><time>2026-04-25T12:36:45.856Z</time></trkpt><trkpt lat="34.7611355" lon="10.7387829"><ele>17.0</ele><time>2026-04-25T12:36:46.834Z</time></trkpt><trkpt lat="34.761043" lon="10.7386598"><ele>17.0</ele><time>2026-04-25T12:36:47.842Z</time></trkpt><trkpt lat="34.7609464" lon="10.7385429"><ele>17.0</ele><time>2026-04-25T12:36:48.844Z</time></trkpt><trkpt lat="34.7608426" lon="10.7384296"><ele>17.0</ele><time>2026-04-25T12:36:49.846Z</time></trkpt><trkpt lat="34.7607426" lon="10.7383112"><ele>17.0</ele><time>2026-04-25T12:36:50.836Z</time></trkpt><trkpt lat="34.7606416" lon="10.7381973"><ele>17.0</ele><time>2026-04-25T12:36:51.834Z</time></trkpt><trkpt lat="34.760539" lon="10.7380816"><ele>17.0</ele><time>2026-04-25T12:36:52.837Z</time></trkpt><trkpt lat="34.7604352" lon="10.7379766"><ele>17.0</ele><time>2026-04-25T12:36:53.839Z</time></trkpt><trkpt lat="34.7603285" lon="10.737868"><ele>17.0</ele><time>2026-04-25T12:36:54.824Z</time></trkpt><trkpt lat="34.7602223" lon="10.7377533"><ele>17.25</ele><time>2026-04-25T12:36:55.829Z</time></trkpt><trkpt lat="34.7601127" lon="10.7376401"><ele>17.5</ele><time>2026-04-25T12:36:56.832Z</time></trkpt><trkpt lat="34.760004" lon="10.7375265"><ele>17.75</ele><time>2026-04-25T12:36:57.847Z</time></trkpt><trkpt lat="34.759897" lon="10.7374185"><ele>18.0</ele><time>2026-04-25T12:36:58.833Z</time></trkpt><trkpt lat="34.7597825" lon="10.7373144"><ele>18.0</ele><time>2026-04-25T12:36:59.843Z</time></trkpt><trkpt lat="34.7596704" lon="10.7372147"><ele>18.0</ele><time>2026-04-25T12:37:00.837Z</time></trkpt><trkpt lat="34.7595592" lon="10.7371091"><ele>18.0</ele><time>2026-04-25T12:37:01.83Z</time></trkpt><trkpt lat="34.759447" lon="10.737"><ele>18.0</ele><time>2026-04-25T12:37:02.831Z</time></trkpt><trkpt lat="34.7593339" lon="10.7368917"><ele>17.75</ele><time>2026-04-25T12:37:03.834Z</time></trkpt><trkpt lat="34.7592176" lon="10.7367906"><ele>17.5</ele><time>2026-04-25T12:37:04.828Z</time></trkpt><trkpt lat="34.7590996" lon="10.7366846"><ele>17.25</ele><time>2026-04-25T12:37:05.838Z</time></trkpt><trkpt lat="34.7589778" lon="10.7365802"><ele>17.0</ele><time>2026-04-25T12:37:06.844Z</time></trkpt><trkpt lat="34.758849" lon="10.7364716"><ele>17.0</ele><time>2026-04-25T12:37:07.839Z</time></trkpt><trkpt lat="34.7587213" lon="10.7363674"><ele>17.0</ele><time>2026-04-25T12:37:08.824Z</time></trkpt><trkpt lat="34.7585945" lon="10.7362633"><ele>17.0</ele><time>2026-04-25T12:37:09.825Z</time></trkpt><trkpt lat="34.7584654" lon="10.7361556"><ele>16.333333333333336</ele><time>2026-04-25T12:37:10.827Z</time></trkpt><trkpt lat="34.7583343" lon="10.7360452"><ele>15.666666666666668</ele><time>2026-04-25T12:37:11.828Z</time></trkpt><trkpt lat="34.7581931" lon="10.7359287"><ele>15.0</ele><time>2026-04-25T12:37:12.834Z</time></trkpt><trkpt lat="34.7580356" lon="10.7358061"><ele>15.0</ele><time>2026-04-25T12:37:13.838Z</time></trkpt><trkpt lat="34.7578712" lon="10.7356816"><ele>15.0</ele><time>2026-04-25T12:37:14.84Z</time></trkpt><trkpt lat="34.7577154" lon="10.7355579"><ele>15.0</ele><time>2026-04-25T12:37:15.838Z</time></trkpt><trkpt lat="34.757568" lon="10.7354297"><ele>15.0</ele><time>2026-04-25T12:37:16.845Z</time></trkpt><trkpt lat="34.757425" lon="10.7353064"><ele>15.0</ele><time>2026-04-25T12:37:17.828Z</time></trkpt><trkpt lat="34.7572878" lon="10.7351874"><ele>15.0</ele><time>2026-04-25T12:37:18.838Z</time></trkpt><trkpt lat="34.7571507" lon="10.7350676"><ele>14.0</ele><time>2026-04-25T12:37:19.836Z</time></trkpt><trkpt lat="34.7570148" lon="10.7349466"><ele>13.0</ele><time>2026-04-25T12:37:20.841Z</time></trkpt><trkpt lat="34.7568785" lon="10.7348297"><ele>12.0</ele><time>2026-04-25T12:37:21.835Z</time></trkpt><trkpt lat="34.756741" lon="10.7347144"><ele>12.0</ele><time>2026-04-25T12:37:22.837Z</time></trkpt><trkpt lat="34.7566071" lon="10.7345936"><ele>12.0</ele><time>2026-04-25T12:37:23.833Z</time></trkpt><trkpt lat="34.7564722" lon="10.7344724"><ele>12.0</ele><time>2026-04-25T12:37:24.839Z</time></trkpt><trkpt lat="34.756337" lon="10.734355"><ele>12.0</ele><time>2026-04-25T12:37:25.84Z</time></trkpt><trkpt lat="34.7561973" lon="10.7342351"><ele>12.0</ele><time>2026-04-25T12:37:26.843Z</time></trkpt><trkpt lat="34.7560522" lon="10.7341156"><ele>12.0</ele><time>2026-04-25T12:37:27.853Z</time></trkpt><trkpt lat="34.7559045" lon="10.7339906"><ele>11.666666666666666</ele><time>2026-04-25T12:37:28.838Z</time></trkpt><trkpt lat="34.7557607" lon="10.7338652"><ele>11.333333333333332</ele><time>2026-04-25T12:37:29.84Z</time></trkpt><trkpt lat="34.7556128" lon="10.73374"><ele>11.0</ele><time>2026-04-25T12:37:30.836Z</time></trkpt><trkpt lat="34.7554634" lon="10.733611"><ele>11.666666666666666</ele><time>2026-04-25T12:37:31.836Z</time></trkpt><trkpt lat="34.7553157" lon="10.7334798"><ele>12.333333333333332</ele><time>2026-04-25T12:37:32.844Z</time></trkpt><trkpt lat="34.7551706" lon="10.7333505"><ele>13.0</ele><time>2026-04-25T12:37:33.836Z</time></trkpt><trkpt lat="34.7550267" lon="10.7332292"><ele>13.0</ele><time>2026-04-25T12:37:34.837Z</time></trkpt><trkpt lat="34.7548889" lon="10.7331064"><ele>13.0</ele><time>2026-04-25T12:37:35.838Z</time></trkpt><trkpt lat="34.7547498" lon="10.7329838"><ele>13.0</ele><time>2026-04-25T12:37:36.828Z</time></trkpt><trkpt lat="34.7546123" lon="10.7328615"><ele>13.0</ele><time>2026-04-25T12:37:37.838Z</time></trkpt><trkpt lat="34.754479" lon="10.7327423"><ele>13.0</ele><time>2026-04-25T12:37:38.834Z</time></trkpt><trkpt lat="34.75434" lon="10.7326256"><ele>13.0</ele><time>2026-04-25T12:37:39.83Z</time></trkpt><trkpt lat="34.7542038" lon="10.7325068"><ele>13.666666666666666</ele><time>2026-04-25T12:37:40.836Z</time></trkpt><trkpt lat="34.7540732" lon="10.7323914"><ele>14.333333333333332</ele><time>2026-04-25T12:37:41.841Z</time></trkpt><trkpt lat="34.7539417" lon="10.732276"><ele>15.0</ele><time>2026-04-25T12:37:42.835Z</time></trkpt><trkpt lat="34.7538104" lon="10.732161"><ele>15.0</ele><time>2026-04-25T12:37:43.837Z</time></trkpt><trkpt lat="34.7536717" lon="10.732041"><ele>15.0</ele><time>2026-04-25T12:37:44.833Z</time></trkpt><trkpt lat="34.7535301" lon="10.7319174"><ele>15.0</ele><time>2026-04-25T12:37:45.828Z</time></trkpt><trkpt lat="34.7533859" lon="10.7317841"><ele>14.333333333333332</ele><time>2026-04-25T12:37:46.836Z</time></trkpt><trkpt lat="34.753245" lon="10.7316495"><ele>13.666666666666666</ele><time>2026-04-25T12:37:47.84Z</time></trkpt><trkpt lat="34.753108" lon="10.731517"><ele>13.0</ele><time>2026-04-25T12:37:48.839Z</time></trkpt><trkpt lat="34.7529697" lon="10.7313868"><ele>13.0</ele><time>2026-04-25T12:37:49.841Z</time></trkpt><trkpt lat="34.7528461" lon="10.7312564"><ele>13.0</ele><time>2026-04-25T12:37:50.834Z</time></trkpt><trkpt lat="34.7527189" lon="10.731135"><ele>13.0</ele><time>2026-04-25T12:37:51.835Z</time></trkpt><trkpt lat="34.7525984" lon="10.7310195"><ele>12.666666666666666</ele><time>2026-04-25T12:37:52.844Z</time></trkpt><trkpt lat="34.7524751" lon="10.7309066"><ele>12.333333333333332</ele><time>2026-04-25T12:37:53.843Z</time></trkpt><trkpt lat="34.7523514" lon="10.730795"><ele>12.0</ele><time>2026-04-25T12:37:54.828Z</time></trkpt><trkpt lat="34.7522305" lon="10.7306864"><ele>12.0</ele><time>2026-04-25T12:37:55.834Z</time></trkpt><trkpt lat="34.7521095" lon="10.7305765"><ele>12.0</ele><time>2026-04-25T12:37:56.839Z</time></trkpt><trkpt lat="34.7519904" lon="10.7304673"><ele>12.0</ele><time>2026-04-25T12:37:57.846Z</time></trkpt><trkpt lat="34.7518714" lon="10.7303557"><ele>12.333333333333332</ele><time>2026-04-25T12:37:58.825Z</time></trkpt><trkpt lat="34.7517475" lon="10.7302461"><ele>12.666666666666666</ele><time>2026-04-25T12:37:59.843Z</time></trkpt><trkpt lat="34.751618" lon="10.7301446"><ele>13.0</ele><time>2026-04-25T12:38:00.844Z</time></trkpt><trkpt lat="34.7514901" lon="10.7300449"><ele>13.0</ele><time>2026-04-25T12:38:01.838Z</time></trkpt><trkpt lat="34.751364" lon="10.7299467"><ele>13.0</ele><time>2026-04-25T12:38:02.839Z</time></trkpt><trkpt lat="34.7512344" lon="10.7298536"><ele>13.0</ele><time>2026-04-25T12:38:03.837Z</time></trkpt><trkpt lat="34.7511064" lon="10.729767"><ele>13.0</ele><time>2026-04-25T12:38:04.843Z</time></trkpt><trkpt lat="34.7509741" lon="10.7296828"><ele>12.333333333333332</ele><time>2026-04-25T12:38:05.848Z</time></trkpt><trkpt lat="34.750834" lon="10.7296053"><ele>11.666666666666666</ele><time>2026-04-25T12:38:06.82Z</time></trkpt><trkpt lat="34.7506904" lon="10.7295287"><ele>11.0</ele><time>2026-04-25T12:38:07.837Z</time></trkpt><trkpt lat="34.750544" lon="10.7294534"><ele>11.0</ele><time>2026-04-25T12:38:08.831Z</time></trkpt><trkpt lat="34.7504" lon="10.7293721"><ele>11.0</ele><time>2026-04-25T12:38:09.844Z</time></trkpt><trkpt lat="34.7502511" lon="10.7292947"><ele>11.0</ele><time>2026-04-25T12:38:10.838Z</time></trkpt><trkpt lat="34.7501055" lon="10.7292127"><ele>11.0</ele><time>2026-04-25T12:38:11.829Z</time></trkpt><trkpt lat="34.749958" lon="10.7291246"><ele>11.0</ele><time>2026-04-25T12:38:12.841Z</time></trkpt><trkpt lat="34.7498082" lon="10.7290385"><ele>11.0</ele><time>2026-04-25T12:38:13.826Z</time></trkpt><trkpt lat="34.7496621" lon="10.7289439"><ele>11.0</ele><time>2026-04-25T12:38:14.84Z</time></trkpt><trkpt lat="34.7495179" lon="10.7288407"><ele>11.0</ele><time>2026-04-25T12:38:15.836Z</time></trkpt><trkpt lat="34.7493745" lon="10.7287388"><ele>11.0</ele><time>2026-04-25T12:38:16.837Z</time></trkpt><trkpt lat="34.7492329" lon="10.728638"><ele>11.333333333333332</ele><time>2026-04-25T12:38:17.821Z</time></trkpt><trkpt lat="34.749089" lon="10.7285326"><ele>11.666666666666666</ele><time>2026-04-25T12:38:18.835Z</time></trkpt><trkpt lat="34.7489463" lon="10.7284289"><ele>12.0</ele><time>2026-04-25T12:38:19.838Z</time></trkpt><trkpt lat="34.7488046" lon="10.7283245"><ele>12.0</ele><time>2026-04-25T12:38:20.819Z</time></trkpt><trkpt lat="34.7486595" lon="10.7282235"><ele>12.0</ele><time>2026-04-25T12:38:21.838Z</time></trkpt><trkpt lat="34.7485155" lon="10.7281175"><ele>12.0</ele><time>2026-04-25T12:38:22.831Z</time></trkpt><trkpt lat="34.7483673" lon="10.7280082"><ele>11.666666666666666</ele><time>2026-04-25T12:38:23.829Z</time></trkpt><trkpt lat="34.7482184" lon="10.7279012"><ele>11.333333333333332</ele><time>2026-04-25T12:38:24.822Z</time></trkpt><trkpt lat="34.7480704" lon="10.7277941"><ele>11.0</ele><time>2026-04-25T12:38:25.832Z</time></trkpt><trkpt lat="34.7479198" lon="10.7276831"><ele>11.0</ele><time>2026-04-25T12:38:26.849Z</time></trkpt><trkpt lat="34.7477684" lon="10.727569"><ele>11.0</ele><time>2026-04-25T12:38:27.839Z</time></trkpt><trkpt lat="34.747618" lon="10.7274504"><ele>11.0</ele><time>2026-04-25T12:38:28.833Z</time></trkpt><trkpt lat="34.7474716" lon="10.7273324"><ele>11.0</ele><time>2026-04-25T12:38:29.827Z</time></trkpt><trkpt lat="34.7473251" lon="10.7272074"><ele>11.0</ele><time>2026-04-25T12:38:30.837Z</time></trkpt><trkpt lat="34.7471796" lon="10.7270906"><ele>11.0</ele><time>2026-04-25T12:38:31.833Z</time></trkpt><trkpt lat="34.7470322" lon="10.7269736"><ele>10.666666666666666</ele><time>2026-04-25T12:38:32.861Z</time></trkpt><trkpt lat="34.7468894" lon="10.7268558"><ele>10.333333333333334</ele><time>2026-04-25T12:38:33.843Z</time></trkpt><trkpt lat="34.7467466" lon="10.7267388"><ele>10.0</ele><time>2026-04-25T12:38:34.843Z</time></trkpt><trkpt lat="34.7466079" lon="10.7266249"><ele>9.666666666666668</ele><time>2026-04-25T12:38:35.832Z</time></trkpt><trkpt lat="34.7464678" lon="10.7265102"><ele>9.333333333333334</ele><time>2026-04-25T12:38:36.818Z</time></trkpt><trkpt lat="34.7463258" lon="10.7263937"><ele>9.0</ele><time>2026-04-25T12:38:37.842Z</time></trkpt><trkpt lat="34.746188" lon="10.7262811"><ele>9.0</ele><time>2026-04-25T12:38:38.831Z</time></trkpt><trkpt lat="34.7460511" lon="10.7261713"><ele>9.0</ele><time>2026-04-25T12:38:39.831Z</time></trkpt><trkpt lat="34.7459078" lon="10.7260565"><ele>9.0</ele><time>2026-04-25T12:38:40.842Z</time></trkpt><trkpt lat="34.7457664" lon="10.7259394"><ele>9.0</ele><time>2026-04-25T12:38:41.845Z</time></trkpt><trkpt lat="34.7456223" lon="10.7258308"><ele>9.0</ele><time>2026-04-25T12:38:42.837Z</time></trkpt><trkpt lat="34.7454786" lon="10.7257193"><ele>9.0</ele><time>2026-04-25T12:38:43.838Z</time></trkpt><trkpt lat="34.7453288" lon="10.7256133"><ele>9.333333333333334</ele><time>2026-04-25T12:38:44.834Z</time></trkpt><trkpt lat="34.7451763" lon="10.7255106"><ele>9.666666666666668</ele><time>2026-04-25T12:38:45.835Z</time></trkpt><trkpt lat="34.7450176" lon="10.7254108"><ele>10.0</ele><time>2026-04-25T12:38:46.828Z</time></trkpt><trkpt lat="34.7448541" lon="10.7253193"><ele>10.0</ele><time>2026-04-25T12:38:47.826Z</time></trkpt><trkpt lat="34.7446872" lon="10.7252272"><ele>10.0</ele><time>2026-04-25T12:38:48.84Z</time></trkpt><trkpt lat="34.7445176" lon="10.7251384"><ele>10.0</ele><time>2026-04-25T12:38:49.836Z</time></trkpt><trkpt lat="34.7443458" lon="10.7250532"><ele>10.666666666666668</ele><time>2026-04-25T12:38:50.837Z</time></trkpt><trkpt lat="34.74417" lon="10.7249764"><ele>11.333333333333334</ele><time>2026-04-25T12:38:51.833Z</time></trkpt><trkpt lat="34.743995" lon="10.7249013"><ele>12.0</ele><time>2026-04-25T12:38:52.845Z</time></trkpt><trkpt lat="34.7438182" lon="10.7248303"><ele>12.0</ele><time>2026-04-25T12:38:53.836Z</time></trkpt><trkpt lat="34.7436439" lon="10.7247658"><ele>12.0</ele><time>2026-04-25T12:38:54.832Z</time></trkpt><trkpt lat="34.7434739" lon="10.7247031"><ele>12.0</ele><time>2026-04-25T12:38:55.839Z</time></trkpt><trkpt lat="34.7433042" lon="10.7246396"><ele>12.0</ele><time>2026-04-25T12:38:56.833Z</time></trkpt><trkpt lat="34.7431386" lon="10.72458"><ele>12.0</ele><time>2026-04-25T12:38:57.833Z</time></trkpt><trkpt lat="34.7429785" lon="10.7245238"><ele>12.0</ele><time>2026-04-25T12:38:58.83Z</time></trkpt><trkpt lat="34.7428202" lon="10.7244642"><ele>11.333333333333334</ele><time>2026-04-25T12:38:59.853Z</time></trkpt><trkpt lat="34.7426685" lon="10.7244047"><ele>10.666666666666668</ele><time>2026-04-25T12:39:00.837Z</time></trkpt><trkpt lat="34.7425188" lon="10.724347"><ele>10.0</ele><time>2026-04-25T12:39:01.844Z</time></trkpt><trkpt lat="34.7423693" lon="10.7242802"><ele>9.666666666666668</ele><time>2026-04-25T12:39:02.832Z</time></trkpt><trkpt lat="34.7422165" lon="10.7242156"><ele>9.333333333333334</ele><time>2026-04-25T12:39:03.831Z</time></trkpt><trkpt lat="34.7420648" lon="10.724157"><ele>9.0</ele><time>2026-04-25T12:39:04.845Z</time></trkpt><trkpt lat="34.7419168" lon="10.7241025"><ele>8.666666666666666</ele><time>2026-04-25T12:39:05.832Z</time></trkpt><trkpt lat="34.7417686" lon="10.7240514"><ele>8.333333333333332</ele><time>2026-04-25T12:39:06.827Z</time></trkpt><trkpt lat="34.7416217" lon="10.724002"><ele>8.0</ele><time>2026-04-25T12:39:07.845Z</time></trkpt><trkpt lat="34.7414731" lon="10.7239575"><ele>8.0</ele><time>2026-04-25T12:39:08.836Z</time></trkpt><trkpt lat="34.7413198" lon="10.7239179"><ele>8.0</ele><time>2026-04-25T12:39:09.834Z</time></trkpt><trkpt lat="34.7411708" lon="10.7238761"><ele>8.0</ele><time>2026-04-25T12:39:10.836Z</time></trkpt><trkpt lat="34.7410133" lon="10.7238422"><ele>8.0</ele><time>2026-04-25T12:39:11.834Z</time></trkpt><trkpt lat="34.7408551" lon="10.7238141"><ele>8.0</ele><time>2026-04-25T12:39:12.838Z</time></trkpt><trkpt lat="34.7406931" lon="10.7237865"><ele>8.0</ele><time>2026-04-25T12:39:13.828Z</time></trkpt><trkpt lat="34.7405397" lon="10.7237549"><ele>8.0</ele><time>2026-04-25T12:39:14.827Z</time></trkpt><trkpt lat="34.7403825" lon="10.7237275"><ele>8.0</ele><time>2026-04-25T12:39:15.842Z</time></trkpt><trkpt lat="34.7402226" lon="10.7236997"><ele>8.0</ele><time>2026-04-25T12:39:16.833Z</time></trkpt><trkpt lat="34.7400582" lon="10.7236812"><ele>8.333333333333332</ele><time>2026-04-25T12:39:17.833Z</time></trkpt><trkpt lat="34.7398938" lon="10.7236759"><ele>8.666666666666666</ele><time>2026-04-25T12:39:18.832Z</time></trkpt><trkpt lat="34.739733" lon="10.7236664"><ele>9.0</ele><time>2026-04-25T12:39:19.837Z</time></trkpt><trkpt lat="34.7395672" lon="10.723662"><ele>9.0</ele><time>2026-04-25T12:39:20.834Z</time></trkpt><trkpt lat="34.7394025" lon="10.7236559"><ele>9.0</ele><time>2026-04-25T12:39:21.831Z</time></trkpt><trkpt lat="34.7392332" lon="10.7236566"><ele>9.0</ele><time>2026-04-25T12:39:22.833Z</time></trkpt><trkpt lat="34.7390666" lon="10.7236569"><ele>8.333333333333334</ele><time>2026-04-25T12:39:23.822Z</time></trkpt><trkpt lat="34.738901" lon="10.7236649"><ele>7.666666666666667</ele><time>2026-04-25T12:39:24.834Z</time></trkpt><trkpt lat="34.7387352" lon="10.723672"><ele>7.0</ele><time>2026-04-25T12:39:25.83Z</time></trkpt><trkpt lat="34.7385666" lon="10.7236773"><ele>7.333333333333334</ele><time>2026-04-25T12:39:26.841Z</time></trkpt><trkpt lat="34.7384074" lon="10.7236881"><ele>7.666666666666666</ele><time>2026-04-25T12:39:27.844Z</time></trkpt><trkpt lat="34.7382394" lon="10.7236856"><ele>8.0</ele><time>2026-04-25T12:39:28.838Z</time></trkpt><trkpt lat="34.7380731" lon="10.7236841"><ele>8.0</ele><time>2026-04-25T12:39:29.822Z</time></trkpt><trkpt lat="34.7379076" lon="10.723682"><ele>8.0</ele><time>2026-04-25T12:39:30.84Z</time></trkpt><trkpt lat="34.7377422" lon="10.7236848"><ele>8.0</ele><time>2026-04-25T12:39:31.845Z</time></trkpt><trkpt lat="34.7375762" lon="10.7236912"><ele>8.333333333333332</ele><time>2026-04-25T12:39:32.821Z</time></trkpt><trkpt lat="34.7374113" lon="10.7237036"><ele>8.666666666666666</ele><time>2026-04-25T12:39:33.824Z</time></trkpt><trkpt lat="34.7372481" lon="10.7237187"><ele>9.0</ele><time>2026-04-25T12:39:34.834Z</time></trkpt><trkpt lat="34.7370824" lon="10.7237367"><ele>9.0</ele><time>2026-04-25T12:39:35.831Z</time></trkpt><trkpt lat="34.7369157" lon="10.7237597"><ele>9.0</ele><time>2026-04-25T12:39:36.838Z</time></trkpt><trkpt lat="34.736748" lon="10.7237827"><ele>9.0</ele><time>2026-04-25T12:39:37.829Z</time></trkpt><trkpt lat="34.7365819" lon="10.7238075"><ele>9.666666666666666</ele><time>2026-04-25T12:39:38.839Z</time></trkpt><trkpt lat="34.7364136" lon="10.7238373"><ele>10.333333333333332</ele><time>2026-04-25T12:39:39.837Z</time></trkpt><trkpt lat="34.7362473" lon="10.723868"><ele>11.0</ele><time>2026-04-25T12:39:40.834Z</time></trkpt><trkpt lat="34.7360795" lon="10.723902"><ele>10.333333333333332</ele><time>2026-04-25T12:39:41.836Z</time></trkpt><trkpt lat="34.7359079" lon="10.7239311"><ele>9.666666666666666</ele><time>2026-04-25T12:39:42.835Z</time></trkpt><trkpt lat="34.7357366" lon="10.7239704"><ele>9.0</ele><time>2026-04-25T12:39:43.845Z</time></trkpt><trkpt lat="34.7355652" lon="10.723999"><ele>9.0</ele><time>2026-04-25T12:39:44.833Z</time></trkpt><trkpt lat="34.7353951" lon="10.7240329"><ele>9.0</ele><time>2026-04-25T12:39:45.83Z</time></trkpt><trkpt lat="34.7352258" lon="10.7240676"><ele>9.0</ele><time>2026-04-25T12:39:46.836Z</time></trkpt><trkpt lat="34.7350563" lon="10.7241081"><ele>8.333333333333334</ele><time>2026-04-25T12:39:47.83Z</time></trkpt><trkpt lat="34.7348854" lon="10.724146"><ele>7.666666666666667</ele><time>2026-04-25T12:39:48.825Z</time></trkpt><trkpt lat="34.7347145" lon="10.7241797"><ele>7.0</ele><time>2026-04-25T12:39:49.842Z</time></trkpt><trkpt lat="34.7345442" lon="10.7242119"><ele>6.666666666666667</ele><time>2026-04-25T12:39:50.824Z</time></trkpt><trkpt lat="34.7343754" lon="10.7242414"><ele>6.333333333333334</ele><time>2026-04-25T12:39:51.835Z</time></trkpt><trkpt lat="34.7342109" lon="10.724272"><ele>6.0</ele><time>2026-04-25T12:39:52.836Z</time></trkpt><trkpt lat="34.7340434" lon="10.7243069"><ele>6.0</ele><time>2026-04-25T12:39:53.821Z</time></trkpt><trkpt lat="34.7338786" lon="10.7243424"><ele>6.0</ele><time>2026-04-25T12:39:54.833Z</time></trkpt><trkpt lat="34.7337146" lon="10.7243755"><ele>6.0</ele><time>2026-04-25T12:39:55.832Z</time></trkpt><trkpt lat="34.7335465" lon="10.7244071"><ele>7.0</ele><time>2026-04-25T12:39:56.831Z</time></trkpt><trkpt lat="34.733378" lon="10.7244405"><ele>8.0</ele><time>2026-04-25T12:39:57.824Z</time></trkpt><trkpt lat="34.733209" lon="10.7244734"><ele>9.0</ele><time>2026-04-25T12:39:58.861Z</time></trkpt><trkpt lat="34.7330442" lon="10.7245091"><ele>9.0</ele><time>2026-04-25T12:39:59.839Z</time></trkpt><trkpt lat="34.732882" lon="10.7245426"><ele>9.0</ele><time>2026-04-25T12:40:00.831Z</time></trkpt><trkpt lat="34.7327186" lon="10.7245775"><ele>9.0</ele><time>2026-04-25T12:40:01.839Z</time></trkpt><trkpt lat="34.7325502" lon="10.7246123"><ele>8.666666666666666</ele><time>2026-04-25T12:40:02.829Z</time></trkpt><trkpt lat="34.7323794" lon="10.7246438"><ele>8.333333333333332</ele><time>2026-04-25T12:40:03.83Z</time></trkpt><trkpt lat="34.732214" lon="10.7246788"><ele>8.0</ele><time>2026-04-25T12:40:04.833Z</time></trkpt><trkpt lat="34.7320511" lon="10.7247096"><ele>8.0</ele><time>2026-04-25T12:40:05.818Z</time></trkpt><trkpt lat="34.7318899" lon="10.7247445"><ele>8.0</ele><time>2026-04-25T12:40:06.824Z</time></trkpt><trkpt lat="34.7317241" lon="10.7247753"><ele>8.0</ele><time>2026-04-25T12:40:07.84Z</time></trkpt><trkpt lat="34.731559" lon="10.7248054"><ele>8.0</ele><time>2026-04-25T12:40:08.82Z</time></trkpt><trkpt lat="34.7313957" lon="10.7248385"><ele>8.0</ele><time>2026-04-25T12:40:09.83Z</time></trkpt><trkpt lat="34.7312324" lon="10.7248698"><ele>8.0</ele><time>2026-04-25T12:40:10.837Z</time></trkpt><trkpt lat="34.7310729" lon="10.724902"><ele>8.333333333333332</ele><time>2026-04-25T12:40:11.832Z</time></trkpt><trkpt lat="34.7309188" lon="10.7249388"><ele>8.666666666666666</ele><time>2026-04-25T12:40:12.837Z</time></trkpt><trkpt lat="34.7307656" lon="10.7249769"><ele>9.0</ele><time>2026-04-25T12:40:13.829Z</time></trkpt><trkpt lat="34.730612" lon="10.7250126"><ele>9.0</ele><time>2026-04-25T12:40:14.828Z</time></trkpt><trkpt lat="34.7304577" lon="10.7250526"><ele>9.0</ele><time>2026-04-25T12:40:15.824Z</time></trkpt><trkpt lat="34.730307" lon="10.7250892"><ele>9.0</ele><time>2026-04-25T12:40:16.835Z</time></trkpt><trkpt lat="34.7301579" lon="10.725125"><ele>8.0</ele><time>2026-04-25T12:40:17.828Z</time></trkpt><trkpt lat="34.7300094" lon="10.7251605"><ele>7.0</ele><time>2026-04-25T12:40:18.838Z</time></trkpt><trkpt lat="34.7298652" lon="10.7251997"><ele>6.0</ele><time>2026-04-25T12:40:19.825Z</time></trkpt><trkpt lat="34.7297144" lon="10.7252362"><ele>6.0</ele><time>2026-04-25T12:40:20.823Z</time></trkpt><trkpt lat="34.7295651" lon="10.7252726"><ele>6.0</ele><time>2026-04-25T12:40:21.839Z</time></trkpt><trkpt lat="34.7294181" lon="10.725312"><ele>6.0</ele><time>2026-04-25T12:40:22.828Z</time></trkpt><trkpt lat="34.7292763" lon="10.72535"><ele>6.0</ele><time>2026-04-25T12:40:23.828Z</time></trkpt><trkpt lat="34.7291317" lon="10.7253942"><ele>6.0</ele><time>2026-04-25T12:40:24.834Z</time></trkpt><trkpt lat="34.7289824" lon="10.7254384"><ele>6.0</ele><time>2026-04-25T12:40:25.835Z</time></trkpt><trkpt lat="34.7288405" lon="10.7254853"><ele>6.0</ele><time>2026-04-25T12:40:26.835Z</time></trkpt><trkpt lat="34.7287048" lon="10.7255251"><ele>6.0</ele><time>2026-04-25T12:40:27.828Z</time></trkpt><trkpt lat="34.7285715" lon="10.7255649"><ele>5.6</ele><time>2026-04-25T12:40:28.828Z</time></trkpt><trkpt lat="34.7284512" lon="10.7256037"><ele>5.199999999999999</ele><time>2026-04-25T12:40:29.835Z</time></trkpt><trkpt lat="34.7283407" lon="10.7256379"><ele>4.800000000000001</ele><time>2026-04-25T12:40:30.83Z</time></trkpt><trkpt lat="34.7282362" lon="10.7256667"><ele>4.4</ele><time>2026-04-25T12:40:31.838Z</time></trkpt><trkpt lat="34.7281401" lon="10.7256969"><ele>4.0</ele><time>2026-04-25T12:40:32.829Z</time></trkpt><trkpt lat="34.7280647" lon="10.7257192"><ele>3.9999999999999996</ele><time>2026-04-25T12:40:33.831Z</time></trkpt><trkpt lat="34.7279931" lon="10.7257405"><ele>4.0</ele><time>2026-04-25T12:40:34.835Z</time></trkpt><trkpt lat="34.7278917" lon="10.7257663"><ele>4.0</ele><time>2026-04-25T12:40:36.834Z</time></trkpt><trkpt lat="34.7278296" lon="10.7257905"><ele>4.0</ele><time>2026-04-25T12:40:39.833Z</time></trkpt><trkpt lat="34.7277424" lon="10.7258232"><ele>3.9999999999999996</ele><time>2026-04-25T12:40:50.808Z</time></trkpt><trkpt lat="34.7276697" lon="10.7258381"><ele>4.0</ele><time>2026-04-25T12:40:52.804Z</time></trkpt><trkpt lat="34.7275944" lon="10.7258603"><ele>4.166666666666666</ele><time>2026-04-25T12:40:57.849Z</time></trkpt><trkpt lat="34.7275258" lon="10.7258691"><ele>4.333333333333333</ele><time>2026-04-25T12:40:59.844Z</time></trkpt><trkpt lat="34.7274499" lon="10.7258692"><ele>4.5</ele><time>2026-04-25T12:41:01.834Z</time></trkpt><trkpt lat="34.7273664" lon="10.7258904"><ele>4.666666666666667</ele><time>2026-04-25T12:41:03.807Z</time></trkpt><trkpt lat="34.7272792" lon="10.7259068"><ele>4.833333333333334</ele><time>2026-04-25T12:41:05.83Z</time></trkpt><trkpt lat="34.7272046" lon="10.7259187"><ele>5.0</ele><time>2026-04-25T12:41:07.813Z</time></trkpt><trkpt lat="34.7271378" lon="10.7259366"><ele>5.0</ele><time>2026-04-25T12:41:09.836Z</time></trkpt><trkpt lat="34.7270762" lon="10.7259601"><ele>5.0</ele><time>2026-04-25T12:41:12.845Z</time></trkpt><trkpt lat="34.7270078" lon="10.7259887"><ele>5.0</ele><time>2026-04-25T12:43:04.828Z</time></trkpt><trkpt lat="34.7269407" lon="10.7260125"><ele>5.0</ele><time>2026-04-25T12:43:08.846Z</time></trkpt><trkpt lat="34.7268612" lon="10.7260513"><ele>5.0</ele><time>2026-04-25T12:43:10.849Z</time></trkpt><trkpt lat="34.7268033" lon="10.7260823"><ele>5.0</ele><time>2026-04-25T12:43:11.856Z</time></trkpt><trkpt lat="34.7267415" lon="10.7261137"><ele>5.0</ele><time>2026-04-25T12:43:12.854Z</time></trkpt><trkpt lat="34.7266719" lon="10.7261511"><ele>5.5</ele><time>2026-04-25T12:43:13.864Z</time></trkpt><trkpt lat="34.7265759" lon="10.7261924"><ele>6.0</ele><time>2026-04-25T12:43:14.835Z</time></trkpt><trkpt lat="34.7264397" lon="10.726243"><ele>6.5</ele><time>2026-04-25T12:43:15.853Z</time></trkpt><trkpt lat="34.7262673" lon="10.7262975"><ele>7.0</ele><time>2026-04-25T12:43:16.826Z</time></trkpt><trkpt lat="34.7260636" lon="10.7263538"><ele>6.666666666666667</ele><time>2026-04-25T12:43:17.84Z</time></trkpt><trkpt lat="34.7258594" lon="10.7264048"><ele>6.333333333333334</ele><time>2026-04-25T12:43:18.838Z</time></trkpt><trkpt lat="34.7256805" lon="10.7264437"><ele>6.0</ele><time>2026-04-25T12:43:19.851Z</time></trkpt><trkpt lat="34.725522" lon="10.7264943"><ele>6.0</ele><time>2026-04-25T12:43:20.843Z</time></trkpt><trkpt lat="34.7253765" lon="10.7265367"><ele>6.0</ele><time>2026-04-25T12:43:21.854Z</time></trkpt><trkpt lat="34.7252384" lon="10.7265799"><ele>6.0</ele><time>2026-04-25T12:43:22.82Z</time></trkpt><trkpt lat="34.7251099" lon="10.7266146"><ele>6.0</ele><time>2026-04-25T12:43:23.825Z</time></trkpt><trkpt lat="34.7249834" lon="10.7266542"><ele>6.0</ele><time>2026-04-25T12:43:24.811Z</time></trkpt><trkpt lat="34.7248569" lon="10.7266961"><ele>6.0</ele><time>2026-04-25T12:43:25.81Z</time></trkpt><trkpt lat="34.7247284" lon="10.7267307"><ele>6.0</ele><time>2026-04-25T12:43:26.815Z</time></trkpt><trkpt lat="34.7246072" lon="10.7267671"><ele>6.0</ele><time>2026-04-25T12:43:27.83Z</time></trkpt><trkpt lat="34.7244891" lon="10.7268009"><ele>5.8</ele><time>2026-04-25T12:43:28.847Z</time></trkpt><trkpt lat="34.7243804" lon="10.7268375"><ele>5.6</ele><time>2026-04-25T12:43:29.834Z</time></trkpt><trkpt lat="34.7242706" lon="10.7268781"><ele>5.4</ele><time>2026-04-25T12:43:30.838Z</time></trkpt><trkpt lat="34.7241642" lon="10.7269199"><ele>5.2</ele><time>2026-04-25T12:43:31.836Z</time></trkpt><trkpt lat="34.7240649" lon="10.7269542"><ele>5.0</ele><time>2026-04-25T12:43:32.832Z</time></trkpt><trkpt lat="34.7239721" lon="10.7269892"><ele>4.857142857142857</ele><time>2026-04-25T12:43:33.83Z</time></trkpt><trkpt lat="34.7238911" lon="10.7270112"><ele>4.714285714285714</ele><time>2026-04-25T12:43:34.88Z</time></trkpt><trkpt lat="34.7238293" lon="10.7270289"><ele>4.571428571428571</ele><time>2026-04-25T12:43:35.836Z</time></trkpt><trkpt lat="34.7237578" lon="10.7270505"><ele>4.428571428571429</ele><time>2026-04-25T12:43:37.825Z</time></trkpt><trkpt lat="34.7236867" lon="10.7270647"><ele>4.285714285714286</ele><time>2026-04-25T12:43:51.822Z</time></trkpt><trkpt lat="34.723624" lon="10.7270717"><ele>4.142857142857142</ele><time>2026-04-25T12:44:09.836Z</time></trkpt><trkpt lat="34.7235416" lon="10.7270913"><ele>4.0</ele><time>2026-04-25T12:44:12.835Z</time></trkpt><trkpt lat="34.7234275" lon="10.7271293"><ele>4.666666666666666</ele><time>2026-04-25T12:44:14.829Z</time></trkpt><trkpt lat="34.7233531" lon="10.7271505"><ele>5.333333333333333</ele><time>2026-04-25T12:44:15.824Z</time></trkpt><trkpt lat="34.7232786" lon="10.7271734"><ele>6.0</ele><time>2026-04-25T12:44:16.824Z</time></trkpt><trkpt lat="34.7231954" lon="10.7271988"><ele>6.666666666666666</ele><time>2026-04-25T12:44:17.831Z</time></trkpt><trkpt lat="34.7231035" lon="10.7272409"><ele>7.333333333333333</ele><time>2026-04-25T12:44:18.824Z</time></trkpt><trkpt lat="34.7230103" lon="10.7272758"><ele>8.0</ele><time>2026-04-25T12:44:19.835Z</time></trkpt><trkpt lat="34.7229198" lon="10.7273133"><ele>8.0</ele><time>2026-04-25T12:44:20.835Z</time></trkpt><trkpt lat="34.7228202" lon="10.7273533"><ele>8.0</ele><time>2026-04-25T12:44:21.817Z</time></trkpt><trkpt lat="34.7227169" lon="10.7273928"><ele>8.0</ele><time>2026-04-25T12:44:22.83Z</time></trkpt><trkpt lat="34.7226194" lon="10.727439"><ele>8.0</ele><time>2026-04-25T12:44:23.843Z</time></trkpt><trkpt lat="34.7225117" lon="10.7274841"><ele>8.0</ele><time>2026-04-25T12:44:24.836Z</time></trkpt><trkpt lat="34.7224005" lon="10.7275375"><ele>8.0</ele><time>2026-04-25T12:44:25.839Z</time></trkpt><trkpt lat="34.7222878" lon="10.7275863"><ele>8.0</ele><time>2026-04-25T12:44:26.807Z</time></trkpt><trkpt lat="34.7221736" lon="10.7276434"><ele>8.0</ele><time>2026-04-25T12:44:27.806Z</time></trkpt><trkpt lat="34.7220602" lon="10.7276991"><ele>8.0</ele><time>2026-04-25T12:44:28.838Z</time></trkpt><trkpt lat="34.7219499" lon="10.7277498"><ele>8.0</ele><time>2026-04-25T12:44:29.832Z</time></trkpt><trkpt lat="34.7218397" lon="10.7278017"><ele>8.0</ele><time>2026-04-25T12:44:30.836Z</time></trkpt><trkpt lat="34.72173" lon="10.727854"><ele>8.0</ele><time>2026-04-25T12:44:31.84Z</time></trkpt><trkpt lat="34.7216215" lon="10.7279105"><ele>8.0</ele><time>2026-04-25T12:44:32.833Z</time></trkpt><trkpt lat="34.721513" lon="10.7279661"><ele>8.0</ele><time>2026-04-25T12:44:33.817Z</time></trkpt><trkpt lat="34.7214067" lon="10.7280249"><ele>8.0</ele><time>2026-04-25T12:44:34.842Z</time></trkpt><trkpt lat="34.7213016" lon="10.7280854"><ele>8.0</ele><time>2026-04-25T12:44:35.84Z</time></trkpt><trkpt lat="34.7211966" lon="10.728143"><ele>8.0</ele><time>2026-04-25T12:44:36.827Z</time></trkpt><trkpt lat="34.7210817" lon="10.7282015"><ele>7.75</ele><time>2026-04-25T12:44:37.834Z</time></trkpt><trkpt lat="34.720975" lon="10.7282601"><ele>7.5</ele><time>2026-04-25T12:44:38.832Z</time></trkpt><trkpt lat="34.7208653" lon="10.728323"><ele>7.25</ele><time>2026-04-25T12:44:39.832Z</time></trkpt><trkpt lat="34.7207567" lon="10.7283854"><ele>7.0</ele><time>2026-04-25T12:44:40.819Z</time></trkpt><trkpt lat="34.7206389" lon="10.7284497"><ele>7.0</ele><time>2026-04-25T12:44:41.825Z</time></trkpt><trkpt lat="34.7205218" lon="10.7285209"><ele>7.0</ele><time>2026-04-25T12:44:42.834Z</time></trkpt><trkpt lat="34.7204124" lon="10.7285838"><ele>7.0</ele><time>2026-04-25T12:44:43.818Z</time></trkpt><trkpt lat="34.7203062" lon="10.728646"><ele>7.0</ele><time>2026-04-25T12:44:44.831Z</time></trkpt><trkpt lat="34.7202009" lon="10.728704"><ele>6.25</ele><time>2026-04-25T12:44:45.821Z</time></trkpt><trkpt lat="34.7200967" lon="10.7287607"><ele>5.5</ele><time>2026-04-25T12:44:46.834Z</time></trkpt><trkpt lat="34.7199896" lon="10.7288187"><ele>4.75</ele><time>2026-04-25T12:44:47.821Z</time></trkpt><trkpt lat="34.7198871" lon="10.728881"><ele>4.0</ele><time>2026-04-25T12:44:48.822Z</time></trkpt><trkpt lat="34.719781" lon="10.7289517"><ele>4.0</ele><time>2026-04-25T12:44:49.827Z</time></trkpt><trkpt lat="34.7196724" lon="10.729028"><ele>4.0</ele><time>2026-04-25T12:44:50.815Z</time></trkpt><trkpt lat="34.7195713" lon="10.729104"><ele>4.0</ele><time>2026-04-25T12:44:51.827Z</time></trkpt><trkpt lat="34.7194693" lon="10.7291819"><ele>4.0</ele><time>2026-04-25T12:44:52.833Z</time></trkpt><trkpt lat="34.7193735" lon="10.7292592"><ele>4.0</ele><time>2026-04-25T12:44:53.819Z</time></trkpt><trkpt lat="34.7192767" lon="10.7293376"><ele>4.0</ele><time>2026-04-25T12:44:54.823Z</time></trkpt><trkpt lat="34.7191762" lon="10.7294111"><ele>4.0</ele><time>2026-04-25T12:44:55.817Z</time></trkpt><trkpt lat="34.7190691" lon="10.7294841"><ele>4.0</ele><time>2026-04-25T12:44:56.825Z</time></trkpt><trkpt lat="34.7189726" lon="10.7295545"><ele>4.0</ele><time>2026-04-25T12:44:57.828Z</time></trkpt><trkpt lat="34.7188767" lon="10.7296277"><ele>4.0</ele><time>2026-04-25T12:44:58.828Z</time></trkpt><trkpt lat="34.7187824" lon="10.7296882"><ele>4.0</ele><time>2026-04-25T12:44:59.838Z</time></trkpt><trkpt lat="34.7186953" lon="10.7297475"><ele>4.0</ele><time>2026-04-25T12:45:00.859Z</time></trkpt><trkpt lat="34.7186037" lon="10.7297996"><ele>4.0</ele><time>2026-04-25T12:45:01.833Z</time></trkpt><trkpt lat="34.7185084" lon="10.7298493"><ele>4.0</ele><time>2026-04-25T12:45:02.825Z</time></trkpt><trkpt lat="34.7184119" lon="10.7298904"><ele>4.0</ele><time>2026-04-25T12:45:03.814Z</time></trkpt><trkpt lat="34.7183137" lon="10.7299182"><ele>4.0</ele><time>2026-04-25T12:45:04.815Z</time></trkpt><trkpt lat="34.7182163" lon="10.7299587"><ele>4.0</ele><time>2026-04-25T12:45:05.839Z</time></trkpt><trkpt lat="34.7181208" lon="10.7299996"><ele>4.0</ele><time>2026-04-25T12:45:06.838Z</time></trkpt><trkpt lat="34.718024" lon="10.7300334"><ele>4.0</ele><time>2026-04-25T12:45:07.827Z</time></trkpt><trkpt lat="34.7179248" lon="10.7300638"><ele>4.0</ele><time>2026-04-25T12:45:08.823Z</time></trkpt><trkpt lat="34.7178171" lon="10.7300826"><ele>4.0</ele><time>2026-04-25T12:45:09.826Z</time></trkpt><trkpt lat="34.7177082" lon="10.7300989"><ele>4.0</ele><time>2026-04-25T12:45:10.835Z</time></trkpt><trkpt lat="34.7175983" lon="10.7300959"><ele>4.0</ele><time>2026-04-25T12:45:11.816Z</time></trkpt><trkpt lat="34.7174901" lon="10.7300859"><ele>3.6</ele><time>2026-04-25T12:45:12.822Z</time></trkpt><trkpt lat="34.7173805" lon="10.7300749"><ele>3.2</ele><time>2026-04-25T12:45:13.824Z</time></trkpt><trkpt lat="34.7172708" lon="10.7300576"><ele>2.8000000000000003</ele><time>2026-04-25T12:45:14.831Z</time></trkpt><trkpt lat="34.7171628" lon="10.7300242"><ele>2.4000000000000004</ele><time>2026-04-25T12:45:15.821Z</time></trkpt><trkpt lat="34.7170618" lon="10.7299808"><ele>2.0</ele><time>2026-04-25T12:45:16.834Z</time></trkpt><trkpt lat="34.7169655" lon="10.7299293"><ele>2.4000000000000004</ele><time>2026-04-25T12:45:17.836Z</time></trkpt><trkpt lat="34.7168703" lon="10.729882"><ele>2.8000000000000003</ele><time>2026-04-25T12:45:18.827Z</time></trkpt><trkpt lat="34.7167835" lon="10.7298357"><ele>3.2</ele><time>2026-04-25T12:45:19.83Z</time></trkpt><trkpt lat="34.7167022" lon="10.7297932"><ele>3.6</ele><time>2026-04-25T12:45:20.838Z</time></trkpt><trkpt lat="34.7166242" lon="10.7297437"><ele>4.0</ele><time>2026-04-25T12:45:21.842Z</time></trkpt><trkpt lat="34.7165461" lon="10.729695"><ele>4.0</ele><time>2026-04-25T12:45:22.834Z</time></trkpt><trkpt lat="34.7164615" lon="10.7296401"><ele>4.0</ele><time>2026-04-25T12:45:23.83Z</time></trkpt><trkpt lat="34.7163832" lon="10.7295779"><ele>4.0</ele><time>2026-04-25T12:45:24.833Z</time></trkpt><trkpt lat="34.7162953" lon="10.7295127"><ele>4.0</ele><time>2026-04-25T12:45:25.839Z</time></trkpt><trkpt lat="34.7162069" lon="10.7294445"><ele>4.0</ele><time>2026-04-25T12:45:26.83Z</time></trkpt><trkpt lat="34.7161205" lon="10.7293748"><ele>4.0</ele><time>2026-04-25T12:45:27.824Z</time></trkpt><trkpt lat="34.7160372" lon="10.7293028"><ele>4.0</ele><time>2026-04-25T12:45:28.83Z</time></trkpt><trkpt lat="34.7159578" lon="10.7292329"><ele>4.0</ele><time>2026-04-25T12:45:29.842Z</time></trkpt><trkpt lat="34.7158705" lon="10.7291605"><ele>4.0</ele><time>2026-04-25T12:45:30.849Z</time></trkpt><trkpt lat="34.7157814" lon="10.7290894"><ele>4.0</ele><time>2026-04-25T12:45:31.843Z</time></trkpt><trkpt lat="34.7156923" lon="10.7290164"><ele>4.0</ele><time>2026-04-25T12:45:32.831Z</time></trkpt><trkpt lat="34.7156023" lon="10.7289356"><ele>4.0</ele><time>2026-04-25T12:45:33.83Z</time></trkpt><trkpt lat="34.7155146" lon="10.7288577"><ele>4.0</ele><time>2026-04-25T12:45:34.816Z</time></trkpt><trkpt lat="34.7154318" lon="10.7287862"><ele>4.0</ele><time>2026-04-25T12:45:35.82Z</time></trkpt><trkpt lat="34.7153488" lon="10.7287097"><ele>4.0</ele><time>2026-04-25T12:45:36.827Z</time></trkpt><trkpt lat="34.7152625" lon="10.7286352"><ele>4.2</ele><time>2026-04-25T12:45:37.84Z</time></trkpt><trkpt lat="34.7151731" lon="10.7285621"><ele>4.4</ele><time>2026-04-25T12:45:38.827Z</time></trkpt><trkpt lat="34.715085" lon="10.7284854"><ele>4.6</ele><time>2026-04-25T12:45:39.835Z</time></trkpt><trkpt lat="34.7149925" lon="10.7284134"><ele>4.8</ele><time>2026-04-25T12:45:40.826Z</time></trkpt><trkpt lat="34.7148975" lon="10.7283347"><ele>5.0</ele><time>2026-04-25T12:45:41.849Z</time></trkpt><trkpt lat="34.7148067" lon="10.728262"><ele>5.0</ele><time>2026-04-25T12:45:42.814Z</time></trkpt><trkpt lat="34.7147132" lon="10.7281836"><ele>5.0</ele><time>2026-04-25T12:45:43.825Z</time></trkpt><trkpt lat="34.7146172" lon="10.7281105"><ele>5.0</ele><time>2026-04-25T12:45:44.835Z</time></trkpt><trkpt lat="34.7145178" lon="10.7280285"><ele>5.0</ele><time>2026-04-25T12:45:45.834Z</time></trkpt><trkpt lat="34.7144191" lon="10.7279467"><ele>5.0</ele><time>2026-04-25T12:45:46.829Z</time></trkpt><trkpt lat="34.7143272" lon="10.7278679"><ele>5.0</ele><time>2026-04-25T12:45:47.824Z</time></trkpt><trkpt lat="34.7142391" lon="10.7277982"><ele>5.0</ele><time>2026-04-25T12:45:48.85Z</time></trkpt><trkpt lat="34.7141534" lon="10.7277328"><ele>5.0</ele><time>2026-04-25T12:45:49.822Z</time></trkpt><trkpt lat="34.7140761" lon="10.7276659"><ele>5.0</ele><time>2026-04-25T12:45:50.829Z</time></trkpt><trkpt lat="34.7140035" lon="10.7276071"><ele>5.0</ele><time>2026-04-25T12:45:51.851Z</time></trkpt><trkpt lat="34.7139366" lon="10.727549"><ele>5.0</ele><time>2026-04-25T12:45:52.832Z</time></trkpt><trkpt lat="34.7138739" lon="10.7274931"><ele>5.0</ele><time>2026-04-25T12:45:53.831Z</time></trkpt><trkpt lat="34.7138151" lon="10.7274387"><ele>5.0</ele><time>2026-04-25T12:45:54.843Z</time></trkpt><trkpt lat="34.7137545" lon="10.7273826"><ele>5.0</ele><time>2026-04-25T12:45:55.851Z</time></trkpt><trkpt lat="34.7136929" lon="10.7273364"><ele>5.0</ele><time>2026-04-25T12:45:56.833Z</time></trkpt><trkpt lat="34.7136307" lon="10.7272893"><ele>5.166666666666667</ele><time>2026-04-25T12:45:57.834Z</time></trkpt><trkpt lat="34.7135677" lon="10.7272378"><ele>5.333333333333334</ele><time>2026-04-25T12:45:58.843Z</time></trkpt><trkpt lat="34.7134961" lon="10.7271758"><ele>5.5</ele><time>2026-04-25T12:45:59.842Z</time></trkpt><trkpt lat="34.7134233" lon="10.727106"><ele>5.666666666666667</ele><time>2026-04-25T12:46:00.818Z</time></trkpt><trkpt lat="34.7133492" lon="10.7270387"><ele>5.833333333333333</ele><time>2026-04-25T12:46:01.818Z</time></trkpt><trkpt lat="34.7132775" lon="10.7269772"><ele>6.0</ele><time>2026-04-25T12:46:02.834Z</time></trkpt><trkpt lat="34.7132099" lon="10.7269169"><ele>5.666666666666667</ele><time>2026-04-25T12:46:03.84Z</time></trkpt><trkpt lat="34.7131391" lon="10.7268544"><ele>5.333333333333333</ele><time>2026-04-25T12:46:04.844Z</time></trkpt><trkpt lat="34.7130698" lon="10.7267983"><ele>5.0</ele><time>2026-04-25T12:46:05.833Z</time></trkpt><trkpt lat="34.7130036" lon="10.7267412"><ele>4.666666666666666</ele><time>2026-04-25T12:46:06.836Z</time></trkpt><trkpt lat="34.7129425" lon="10.726694"><ele>4.333333333333333</ele><time>2026-04-25T12:46:07.84Z</time></trkpt><trkpt lat="34.712885" lon="10.7266471"><ele>4.0</ele><time>2026-04-25T12:46:08.826Z</time></trkpt><trkpt lat="34.7128286" lon="10.7266027"><ele>4.0</ele><time>2026-04-25T12:46:09.842Z</time></trkpt><trkpt lat="34.7127776" lon="10.7265574"><ele>4.0</ele><time>2026-04-25T12:46:10.836Z</time></trkpt><trkpt lat="34.7127261" lon="10.7265132"><ele>4.0</ele><time>2026-04-25T12:46:11.833Z</time></trkpt><trkpt lat="34.7126203" lon="10.7264255"><ele>4.0</ele><time>2026-04-25T12:46:13.838Z</time></trkpt><trkpt lat="34.7125229" lon="10.7263466"><ele>4.0</ele><time>2026-04-25T12:46:15.836Z</time></trkpt><trkpt lat="34.7124066" lon="10.7262523"><ele>4.0</ele><time>2026-04-25T12:46:17.845Z</time></trkpt><trkpt lat="34.7123359" lon="10.7261958"><ele>4.0</ele><time>2026-04-25T12:46:18.832Z</time></trkpt><trkpt lat="34.7122662" lon="10.7261365"><ele>4.0</ele><time>2026-04-25T12:46:19.842Z</time></trkpt><trkpt lat="34.7122101" lon="10.7260839"><ele>4.0</ele><time>2026-04-25T12:46:20.842Z</time></trkpt><trkpt lat="34.7121189" lon="10.7259958"><ele>4.0</ele><time>2026-04-25T12:46:22.84Z</time></trkpt><trkpt lat="34.7120393" lon="10.7259161"><ele>4.166666666666666</ele><time>2026-04-25T12:46:24.844Z</time></trkpt><trkpt lat="34.7119565" lon="10.7258397"><ele>4.333333333333333</ele><time>2026-04-25T12:46:26.833Z</time></trkpt><trkpt lat="34.7118966" lon="10.7257896"><ele>4.5</ele><time>2026-04-25T12:46:27.828Z</time></trkpt><trkpt lat="34.7118303" lon="10.7257381"><ele>4.666666666666667</ele><time>2026-04-25T12:46:28.836Z</time></trkpt><trkpt lat="34.7117656" lon="10.7256855"><ele>4.833333333333334</ele><time>2026-04-25T12:46:29.836Z</time></trkpt><trkpt lat="34.7116954" lon="10.7256215"><ele>5.0</ele><time>2026-04-25T12:46:30.845Z</time></trkpt><trkpt lat="34.711616" lon="10.7255564"><ele>5.0</ele><time>2026-04-25T12:46:31.837Z</time></trkpt><trkpt lat="34.7115283" lon="10.7254867"><ele>5.0</ele><time>2026-04-25T12:46:32.826Z</time></trkpt><trkpt lat="34.7114429" lon="10.7254081"><ele>5.0</ele><time>2026-04-25T12:46:33.839Z</time></trkpt><trkpt lat="34.7113561" lon="10.7253298"><ele>5.0</ele><time>2026-04-25T12:46:34.826Z</time></trkpt><trkpt lat="34.7112642" lon="10.7252437"><ele>5.0</ele><time>2026-04-25T12:46:35.828Z</time></trkpt><trkpt lat="34.7111714" lon="10.7251493"><ele>4.75</ele><time>2026-04-25T12:46:36.828Z</time></trkpt><trkpt lat="34.7110702" lon="10.7250387"><ele>4.5</ele><time>2026-04-25T12:46:37.826Z</time></trkpt><trkpt lat="34.7109755" lon="10.7249382"><ele>4.25</ele><time>2026-04-25T12:46:38.833Z</time></trkpt><trkpt lat="34.7108782" lon="10.7248416"><ele>4.0</ele><time>2026-04-25T12:46:39.83Z</time></trkpt><trkpt lat="34.7107819" lon="10.7247501"><ele>4.0</ele><time>2026-04-25T12:46:40.834Z</time></trkpt><trkpt lat="34.7106722" lon="10.7246611"><ele>4.0</ele><time>2026-04-25T12:46:41.845Z</time></trkpt><trkpt lat="34.7105653" lon="10.72457"><ele>4.0</ele><time>2026-04-25T12:46:42.837Z</time></trkpt><trkpt lat="34.7104554" lon="10.7244731"><ele>4.0</ele><time>2026-04-25T12:46:43.833Z</time></trkpt><trkpt lat="34.7103398" lon="10.7243746"><ele>3.25</ele><time>2026-04-25T12:46:44.835Z</time></trkpt><trkpt lat="34.710222" lon="10.7242724"><ele>2.5</ele><time>2026-04-25T12:46:45.833Z</time></trkpt><trkpt lat="34.7101005" lon="10.7241704"><ele>1.75</ele><time>2026-04-25T12:46:46.826Z</time></trkpt><trkpt lat="34.7099794" lon="10.7240678"><ele>1.0</ele><time>2026-04-25T12:46:47.84Z</time></trkpt><trkpt lat="34.7098628" lon="10.7239654"><ele>1.0</ele><time>2026-04-25T12:46:48.828Z</time></trkpt><trkpt lat="34.7097457" lon="10.72387"><ele>1.0</ele><time>2026-04-25T12:46:49.85Z</time></trkpt><trkpt lat="34.7096244" lon="10.7237669"><ele>1.0</ele><time>2026-04-25T12:46:50.83Z</time></trkpt><trkpt lat="34.7094977" lon="10.7236581"><ele>1.0</ele><time>2026-04-25T12:46:51.828Z</time></trkpt><trkpt lat="34.7093655" lon="10.7235426"><ele>1.0</ele><time>2026-04-25T12:46:52.837Z</time></trkpt><trkpt lat="34.709223" lon="10.7234167"><ele>1.0</ele><time>2026-04-25T12:46:53.837Z</time></trkpt><trkpt lat="34.7090792" lon="10.723285"><ele>1.0</ele><time>2026-04-25T12:46:54.821Z</time></trkpt><trkpt lat="34.7089384" lon="10.723151"><ele>1.0</ele><time>2026-04-25T12:46:55.839Z</time></trkpt><trkpt lat="34.708799" lon="10.72302"><ele>1.0</ele><time>2026-04-25T12:46:56.856Z</time></trkpt><trkpt lat="34.7086619" lon="10.7229003"><ele>1.0</ele><time>2026-04-25T12:46:57.842Z</time></trkpt><trkpt lat="34.7085245" lon="10.7227826"><ele>1.6666666666666665</ele><time>2026-04-25T12:46:58.824Z</time></trkpt><trkpt lat="34.708386" lon="10.7226741"><ele>2.3333333333333335</ele><time>2026-04-25T12:46:59.828Z</time></trkpt><trkpt lat="34.7082424" lon="10.7225729"><ele>3.0</ele><time>2026-04-25T12:47:00.831Z</time></trkpt><trkpt lat="34.7081013" lon="10.7224788"><ele>3.0</ele><time>2026-04-25T12:47:01.822Z</time></trkpt><trkpt lat="34.7079654" lon="10.7223832"><ele>3.0</ele><time>2026-04-25T12:47:02.834Z</time></trkpt><trkpt lat="34.707829" lon="10.7222936"><ele>3.0</ele><time>2026-04-25T12:47:03.833Z</time></trkpt><trkpt lat="34.7076928" lon="10.7222071"><ele>2.6666666666666665</ele><time>2026-04-25T12:47:04.827Z</time></trkpt><trkpt lat="34.7075549" lon="10.7221269"><ele>2.333333333333333</ele><time>2026-04-25T12:47:05.829Z</time></trkpt><trkpt lat="34.7074118" lon="10.7220502"><ele>2.0</ele><time>2026-04-25T12:47:06.841Z</time></trkpt><trkpt lat="34.7072685" lon="10.7219714"><ele>1.3333333333333333</ele><time>2026-04-25T12:47:07.845Z</time></trkpt><trkpt lat="34.7071203" lon="10.7218951"><ele>0.6666666666666666</ele><time>2026-04-25T12:47:08.826Z</time></trkpt><trkpt lat="34.7069688" lon="10.721823"><ele>0.0</ele><time>2026-04-25T12:47:09.835Z</time></trkpt><trkpt lat="34.7068084" lon="10.7217402"><ele>1.3333333333333333</ele><time>2026-04-25T12:47:10.822Z</time></trkpt><trkpt lat="34.7066335" lon="10.7216559"><ele>2.6666666666666665</ele><time>2026-04-25T12:47:11.838Z</time></trkpt><trkpt lat="34.7064546" lon="10.7215712"><ele>4.0</ele><time>2026-04-25T12:47:12.827Z</time></trkpt><trkpt lat="34.7062724" lon="10.7214896"><ele>4.0</ele><time>2026-04-25T12:47:13.826Z</time></trkpt><trkpt lat="34.7060944" lon="10.7214017"><ele>4.0</ele><time>2026-04-25T12:47:14.854Z</time></trkpt><trkpt lat="34.7059211" lon="10.721319"><ele>4.0</ele><time>2026-04-25T12:47:15.835Z</time></trkpt><trkpt lat="34.7057595" lon="10.7212342"><ele>3.6666666666666665</ele><time>2026-04-25T12:47:16.838Z</time></trkpt><trkpt lat="34.7055989" lon="10.7211522"><ele>3.333333333333333</ele><time>2026-04-25T12:47:17.838Z</time></trkpt><trkpt lat="34.7054422" lon="10.7210728"><ele>3.0</ele><time>2026-04-25T12:47:18.848Z</time></trkpt><trkpt lat="34.7052898" lon="10.7209966"><ele>4.0</ele><time>2026-04-25T12:47:19.814Z</time></trkpt><trkpt lat="34.7051388" lon="10.7209169"><ele>5.0</ele><time>2026-04-25T12:47:20.821Z</time></trkpt><trkpt lat="34.7049829" lon="10.7208373"><ele>6.0</ele><time>2026-04-25T12:47:21.847Z</time></trkpt><trkpt lat="34.7048261" lon="10.7207508"><ele>6.0</ele><time>2026-04-25T12:47:22.848Z</time></trkpt><trkpt lat="34.7046728" lon="10.7206671"><ele>6.0</ele><time>2026-04-25T12:47:23.814Z</time></trkpt><trkpt lat="34.7045186" lon="10.7205839"><ele>6.0</ele><time>2026-04-25T12:47:24.858Z</time></trkpt><trkpt lat="34.7043525" lon="10.7205"><ele>6.666666666666666</ele><time>2026-04-25T12:47:25.861Z</time></trkpt><trkpt lat="34.7041837" lon="10.720414"><ele>7.333333333333333</ele><time>2026-04-25T12:47:26.851Z</time></trkpt><trkpt lat="34.7040174" lon="10.7203277"><ele>8.0</ele><time>2026-04-25T12:47:27.853Z</time></trkpt><trkpt lat="34.7038663" lon="10.7202501"><ele>7.333333333333333</ele><time>2026-04-25T12:47:28.828Z</time></trkpt><trkpt lat="34.7037206" lon="10.7201765"><ele>6.666666666666666</ele><time>2026-04-25T12:47:29.839Z</time></trkpt><trkpt lat="34.7035764" lon="10.7201009"><ele>6.0</ele><time>2026-04-25T12:47:30.834Z</time></trkpt><trkpt lat="34.7034243" lon="10.7200211"><ele>6.0</ele><time>2026-04-25T12:47:31.825Z</time></trkpt><trkpt lat="34.7032644" lon="10.7199447"><ele>6.0</ele><time>2026-04-25T12:47:32.832Z</time></trkpt><trkpt lat="34.703107" lon="10.7198699"><ele>6.0</ele><time>2026-04-25T12:47:33.821Z</time></trkpt><trkpt lat="34.7029468" lon="10.7197942"><ele>6.0</ele><time>2026-04-25T12:47:34.829Z</time></trkpt><trkpt lat="34.7027789" lon="10.719718"><ele>6.0</ele><time>2026-04-25T12:47:35.841Z</time></trkpt><trkpt lat="34.7026081" lon="10.7196483"><ele>6.0</ele><time>2026-04-25T12:47:36.831Z</time></trkpt><trkpt lat="34.7024338" lon="10.7195841"><ele>5.666666666666667</ele><time>2026-04-25T12:47:37.836Z</time></trkpt><trkpt lat="34.7022566" lon="10.7195242"><ele>5.333333333333334</ele><time>2026-04-25T12:47:38.836Z</time></trkpt><trkpt lat="34.7020811" lon="10.7194657"><ele>5.0</ele><time>2026-04-25T12:47:39.839Z</time></trkpt><trkpt lat="34.7019057" lon="10.7194085"><ele>5.666666666666667</ele><time>2026-04-25T12:47:40.834Z</time></trkpt><trkpt lat="34.7017308" lon="10.7193489"><ele>6.333333333333334</ele><time>2026-04-25T12:47:41.846Z</time></trkpt><trkpt lat="34.7015609" lon="10.7192903"><ele>7.0</ele><time>2026-04-25T12:47:42.827Z</time></trkpt><trkpt lat="34.7013945" lon="10.7192305"><ele>7.0</ele><time>2026-04-25T12:47:43.835Z</time></trkpt><trkpt lat="34.7012352" lon="10.7191688"><ele>7.0</ele><time>2026-04-25T12:47:44.845Z</time></trkpt><trkpt lat="34.7010854" lon="10.7191116"><ele>7.0</ele><time>2026-04-25T12:47:45.843Z</time></trkpt><trkpt lat="34.7009444" lon="10.7190544"><ele>7.0</ele><time>2026-04-25T12:47:46.835Z</time></trkpt><trkpt lat="34.7008134" lon="10.7189963"><ele>7.0</ele><time>2026-04-25T12:47:47.836Z</time></trkpt><trkpt lat="34.7006867" lon="10.7189367"><ele>7.0</ele><time>2026-04-25T12:47:48.84Z</time></trkpt><trkpt lat="34.7005688" lon="10.7188813"><ele>7.0</ele><time>2026-04-25T12:47:49.833Z</time></trkpt><trkpt lat="34.7004501" lon="10.7188269"><ele>7.0</ele><time>2026-04-25T12:47:50.83Z</time></trkpt><trkpt lat="34.7003387" lon="10.7187734"><ele>7.0</ele><time>2026-04-25T12:47:51.841Z</time></trkpt><trkpt lat="34.7002311" lon="10.7187206"><ele>7.0</ele><time>2026-04-25T12:47:52.822Z</time></trkpt><trkpt lat="34.7001241" lon="10.7186682"><ele>7.0</ele><time>2026-04-25T12:47:53.865Z</time></trkpt><trkpt lat="34.700026" lon="10.7186198"><ele>6.8</ele><time>2026-04-25T12:47:54.842Z</time></trkpt><trkpt lat="34.6999284" lon="10.718573"><ele>6.6</ele><time>2026-04-25T12:47:55.848Z</time></trkpt><trkpt lat="34.6998366" lon="10.7185301"><ele>6.3999999999999995</ele><time>2026-04-25T12:47:56.83Z</time></trkpt><trkpt lat="34.6997498" lon="10.7184843"><ele>6.199999999999999</ele><time>2026-04-25T12:47:57.834Z</time></trkpt><trkpt lat="34.6996622" lon="10.7184326"><ele>6.0</ele><time>2026-04-25T12:47:58.844Z</time></trkpt><trkpt lat="34.699574" lon="10.7183775"><ele>6.0</ele><time>2026-04-25T12:47:59.837Z</time></trkpt><trkpt lat="34.6994855" lon="10.7183238"><ele>6.0</ele><time>2026-04-25T12:48:00.85Z</time></trkpt><trkpt lat="34.699399" lon="10.7182701"><ele>6.0</ele><time>2026-04-25T12:48:01.833Z</time></trkpt><trkpt lat="34.6993113" lon="10.7182147"><ele>6.0</ele><time>2026-04-25T12:48:02.829Z</time></trkpt><trkpt lat="34.6992185" lon="10.7181548"><ele>6.0</ele><time>2026-04-25T12:48:03.833Z</time></trkpt><trkpt lat="34.699129" lon="10.7180861"><ele>6.5</ele><time>2026-04-25T12:48:04.835Z</time></trkpt><trkpt lat="34.6990338" lon="10.7180135"><ele>7.0</ele><time>2026-04-25T12:48:05.834Z</time></trkpt><trkpt lat="34.6989304" lon="10.7179396"><ele>7.5</ele><time>2026-04-25T12:48:06.832Z</time></trkpt><trkpt lat="34.6988214" lon="10.7178657"><ele>8.0</ele><time>2026-04-25T12:48:07.85Z</time></trkpt><trkpt lat="34.6987144" lon="10.7177995"><ele>7.75</ele><time>2026-04-25T12:48:08.827Z</time></trkpt><trkpt lat="34.6986033" lon="10.7177278"><ele>7.5</ele><time>2026-04-25T12:48:09.833Z</time></trkpt><trkpt lat="34.6984916" lon="10.7176506"><ele>7.25</ele><time>2026-04-25T12:48:10.827Z</time></trkpt><trkpt lat="34.6983785" lon="10.7175703"><ele>7.0</ele><time>2026-04-25T12:48:11.83Z</time></trkpt><trkpt lat="34.698264" lon="10.7174821"><ele>7.0</ele><time>2026-04-25T12:48:12.837Z</time></trkpt><trkpt lat="34.6981479" lon="10.7173928"><ele>7.0</ele><time>2026-04-25T12:48:13.835Z</time></trkpt><trkpt lat="34.6980267" lon="10.7173048"><ele>7.0</ele><time>2026-04-25T12:48:14.842Z</time></trkpt><trkpt lat="34.6979036" lon="10.7172164"><ele>7.0</ele><time>2026-04-25T12:48:15.84Z</time></trkpt><trkpt lat="34.6977791" lon="10.7171308"><ele>6.75</ele><time>2026-04-25T12:48:16.836Z</time></trkpt><trkpt lat="34.6976583" lon="10.7170469"><ele>6.5</ele><time>2026-04-25T12:48:17.832Z</time></trkpt><trkpt lat="34.697539" lon="10.7169619"><ele>6.25</ele><time>2026-04-25T12:48:18.813Z</time></trkpt><trkpt lat="34.6974203" lon="10.716874"><ele>6.0</ele><time>2026-04-25T12:48:19.832Z</time></trkpt><trkpt lat="34.6973047" lon="10.7167884"><ele>6.0</ele><time>2026-04-25T12:48:20.841Z</time></trkpt><trkpt lat="34.6971923" lon="10.716701"><ele>6.0</ele><time>2026-04-25T12:48:21.827Z</time></trkpt><trkpt lat="34.6970798" lon="10.7166138"><ele>6.0</ele><time>2026-04-25T12:48:22.826Z</time></trkpt><trkpt lat="34.6969744" lon="10.7165354"><ele>6.0</ele><time>2026-04-25T12:48:23.853Z</time></trkpt><trkpt lat="34.6968645" lon="10.7164587"><ele>7.0</ele><time>2026-04-25T12:48:24.842Z</time></trkpt><trkpt lat="34.6967411" lon="10.7163739"><ele>8.0</ele><time>2026-04-25T12:48:25.846Z</time></trkpt><trkpt lat="34.6966192" lon="10.7162807"><ele>9.0</ele><time>2026-04-25T12:48:26.831Z</time></trkpt><trkpt lat="34.6964957" lon="10.716183"><ele>10.0</ele><time>2026-04-25T12:48:27.833Z</time></trkpt><trkpt lat="34.6963731" lon="10.7160873"><ele>9.0</ele><time>2026-04-25T12:48:28.833Z</time></trkpt><trkpt lat="34.6962537" lon="10.7159908"><ele>8.0</ele><time>2026-04-25T12:48:29.83Z</time></trkpt><trkpt lat="34.6961348" lon="10.715896"><ele>7.0</ele><time>2026-04-25T12:48:30.835Z</time></trkpt><trkpt lat="34.6960168" lon="10.7157998"><ele>6.0</ele><time>2026-04-25T12:48:31.835Z</time></trkpt><trkpt lat="34.6959003" lon="10.7156999"><ele>5.5</ele><time>2026-04-25T12:48:32.836Z</time></trkpt><trkpt lat="34.6957855" lon="10.7155961"><ele>5.0</ele><time>2026-04-25T12:48:33.848Z</time></trkpt><trkpt lat="34.6956745" lon="10.7154939"><ele>4.5</ele><time>2026-04-25T12:48:34.844Z</time></trkpt><trkpt lat="34.6955628" lon="10.7153939"><ele>4.0</ele><time>2026-04-25T12:48:35.826Z</time></trkpt><trkpt lat="34.6954491" lon="10.7152921"><ele>4.0</ele><time>2026-04-25T12:48:36.835Z</time></trkpt><trkpt lat="34.6953354" lon="10.7151883"><ele>4.0</ele><time>2026-04-25T12:48:37.832Z</time></trkpt><trkpt lat="34.695223" lon="10.715084"><ele>4.0</ele><time>2026-04-25T12:48:38.817Z</time></trkpt><trkpt lat="34.6951109" lon="10.7149775"><ele>4.0</ele><time>2026-04-25T12:48:39.839Z</time></trkpt><trkpt lat="34.695006" lon="10.7148784"><ele>4.0</ele><time>2026-04-25T12:48:40.842Z</time></trkpt><trkpt lat="34.694912" lon="10.7147852"><ele>4.0</ele><time>2026-04-25T12:48:41.837Z</time></trkpt><trkpt lat="34.6948242" lon="10.7146972"><ele>4.0</ele><time>2026-04-25T12:48:42.842Z</time></trkpt><trkpt lat="34.6947391" lon="10.7146093"><ele>4.0</ele><time>2026-04-25T12:48:43.831Z</time></trkpt><trkpt lat="34.69465" lon="10.7145211"><ele>4.0</ele><time>2026-04-25T12:48:44.825Z</time></trkpt><trkpt lat="34.6945545" lon="10.7144335"><ele>4.0</ele><time>2026-04-25T12:48:45.831Z</time></trkpt><trkpt lat="34.6944565" lon="10.7143429"><ele>4.0</ele><time>2026-04-25T12:48:46.83Z</time></trkpt><trkpt lat="34.6943558" lon="10.7142519"><ele>4.0</ele><time>2026-04-25T12:48:47.835Z</time></trkpt><trkpt lat="34.6942557" lon="10.7141659"><ele>4.0</ele><time>2026-04-25T12:48:48.836Z</time></trkpt><trkpt lat="34.6941561" lon="10.7140794"><ele>4.0</ele><time>2026-04-25T12:48:49.827Z</time></trkpt><trkpt lat="34.6940537" lon="10.7139939"><ele>4.0</ele><time>2026-04-25T12:48:50.84Z</time></trkpt><trkpt lat="34.6939502" lon="10.7139059"><ele>4.0</ele><time>2026-04-25T12:48:51.823Z</time></trkpt><trkpt lat="34.6938419" lon="10.7138119"><ele>4.0</ele><time>2026-04-25T12:48:52.82Z</time></trkpt><trkpt lat="34.6937331" lon="10.7137168"><ele>4.0</ele><time>2026-04-25T12:48:53.821Z</time></trkpt><trkpt lat="34.6936287" lon="10.7136173"><ele>4.0</ele><time>2026-04-25T12:48:54.845Z</time></trkpt><trkpt lat="34.6935276" lon="10.7135231"><ele>4.0</ele><time>2026-04-25T12:48:55.846Z</time></trkpt><trkpt lat="34.6934322" lon="10.7134355"><ele>4.2</ele><time>2026-04-25T12:48:56.851Z</time></trkpt><trkpt lat="34.6933449" lon="10.713351"><ele>4.4</ele><time>2026-04-25T12:48:57.85Z</time></trkpt><trkpt lat="34.6932594" lon="10.7132698"><ele>4.6</ele><time>2026-04-25T12:48:58.842Z</time></trkpt><trkpt lat="34.6931766" lon="10.7131911"><ele>4.8</ele><time>2026-04-25T12:48:59.837Z</time></trkpt><trkpt lat="34.693093" lon="10.7131108"><ele>5.0</ele><time>2026-04-25T12:49:00.831Z</time></trkpt><trkpt lat="34.6930105" lon="10.7130274"><ele>5.0</ele><time>2026-04-25T12:49:01.82Z</time></trkpt><trkpt lat="34.6929296" lon="10.7129466"><ele>5.0</ele><time>2026-04-25T12:49:02.833Z</time></trkpt><trkpt lat="34.692858" lon="10.7128741"><ele>5.0</ele><time>2026-04-25T12:49:03.833Z</time></trkpt><trkpt lat="34.6927928" lon="10.7128045"><ele>5.0</ele><time>2026-04-25T12:49:04.836Z</time></trkpt><trkpt lat="34.6927321" lon="10.7127395"><ele>5.0</ele><time>2026-04-25T12:49:05.84Z</time></trkpt><trkpt lat="34.6926718" lon="10.7126808"><ele>5.0</ele><time>2026-04-25T12:49:06.871Z</time></trkpt><trkpt lat="34.6926185" lon="10.7126265"><ele>5.333333333333334</ele><time>2026-04-25T12:49:07.84Z</time></trkpt><trkpt lat="34.692556" lon="10.7125656"><ele>5.666666666666667</ele><time>2026-04-25T12:49:08.833Z</time></trkpt><trkpt lat="34.6924943" lon="10.7125051"><ele>6.0</ele><time>2026-04-25T12:49:09.836Z</time></trkpt><trkpt lat="34.6924281" lon="10.7124421"><ele>6.333333333333334</ele><time>2026-04-25T12:49:10.835Z</time></trkpt><trkpt lat="34.692356" lon="10.7123737"><ele>6.666666666666667</ele><time>2026-04-25T12:49:11.832Z</time></trkpt><trkpt lat="34.6922819" lon="10.7123018"><ele>7.0</ele><time>2026-04-25T12:49:12.838Z</time></trkpt><trkpt lat="34.6922141" lon="10.7122307"><ele>7.000000000000001</ele><time>2026-04-25T12:49:13.86Z</time></trkpt><trkpt lat="34.6921472" lon="10.7121643"><ele>7.0</ele><time>2026-04-25T12:49:14.832Z</time></trkpt><trkpt lat="34.6920864" lon="10.7120949"><ele>7.0</ele><time>2026-04-25T12:49:15.845Z</time></trkpt><trkpt lat="34.6920195" lon="10.712027"><ele>7.0</ele><time>2026-04-25T12:49:16.828Z</time></trkpt><trkpt lat="34.6919602" lon="10.7119573"><ele>7.000000000000001</ele><time>2026-04-25T12:49:17.832Z</time></trkpt><trkpt lat="34.6919007" lon="10.7118938"><ele>7.0</ele><time>2026-04-25T12:49:18.83Z</time></trkpt><trkpt lat="34.6918414" lon="10.7118322"><ele>7.142857142857142</ele><time>2026-04-25T12:49:19.835Z</time></trkpt><trkpt lat="34.6917878" lon="10.711771"><ele>7.285714285714286</ele><time>2026-04-25T12:49:20.843Z</time></trkpt><trkpt lat="34.6917393" lon="10.7117129"><ele>7.428571428571429</ele><time>2026-04-25T12:49:21.848Z</time></trkpt><trkpt lat="34.6916882" lon="10.7116614"><ele>7.571428571428571</ele><time>2026-04-25T12:49:22.843Z</time></trkpt><trkpt lat="34.6916386" lon="10.7116051"><ele>7.7142857142857135</ele><time>2026-04-25T12:49:23.833Z</time></trkpt><trkpt lat="34.6915842" lon="10.7115459"><ele>7.857142857142857</ele><time>2026-04-25T12:49:24.832Z</time></trkpt><trkpt lat="34.6915306" lon="10.7114798"><ele>8.0</ele><time>2026-04-25T12:49:25.826Z</time></trkpt><trkpt lat="34.6914771" lon="10.711416"><ele>7.999999999999999</ele><time>2026-04-25T12:49:26.846Z</time></trkpt><trkpt lat="34.6914171" lon="10.7113516"><ele>8.0</ele><time>2026-04-25T12:49:27.845Z</time></trkpt><trkpt lat="34.6913561" lon="10.7112804"><ele>8.0</ele><time>2026-04-25T12:49:28.842Z</time></trkpt><trkpt lat="34.6912901" lon="10.7112077"><ele>8.0</ele><time>2026-04-25T12:49:29.832Z</time></trkpt><trkpt lat="34.6912333" lon="10.7111388"><ele>7.999999999999999</ele><time>2026-04-25T12:49:30.831Z</time></trkpt><trkpt lat="34.6911766" lon="10.7110776"><ele>8.0</ele><time>2026-04-25T12:49:31.825Z</time></trkpt><trkpt lat="34.6911186" lon="10.7110266"><ele>7.999999999999999</ele><time>2026-04-25T12:49:32.844Z</time></trkpt><trkpt lat="34.6910685" lon="10.7109702"><ele>8.0</ele><time>2026-04-25T12:49:33.853Z</time></trkpt><trkpt lat="34.6910164" lon="10.7109087"><ele>8.0</ele><time>2026-04-25T12:49:34.859Z</time></trkpt><trkpt lat="34.6909636" lon="10.7108477"><ele>8.0</ele><time>2026-04-25T12:49:35.845Z</time></trkpt><trkpt lat="34.6909123" lon="10.7107931"><ele>7.999999999999999</ele><time>2026-04-25T12:49:36.823Z</time></trkpt><trkpt lat="34.6908213" lon="10.7106834"><ele>8.0</ele><time>2026-04-25T12:49:38.857Z</time></trkpt><trkpt lat="34.6907702" lon="10.7106225"><ele>8.0</ele><time>2026-04-25T12:49:39.858Z</time></trkpt><trkpt lat="34.690719" lon="10.7105583"><ele>7.999999999999999</ele><time>2026-04-25T12:49:40.837Z</time></trkpt><trkpt lat="34.6906676" lon="10.7104975"><ele>8.0</ele><time>2026-04-25T12:49:41.832Z</time></trkpt><trkpt lat="34.6906147" lon="10.7104417"><ele>8.0</ele><time>2026-04-25T12:49:42.858Z</time></trkpt><trkpt lat="34.6905598" lon="10.7103784"><ele>7.999999999999999</ele><time>2026-04-25T12:49:43.828Z</time></trkpt><trkpt lat="34.6905005" lon="10.7103135"><ele>8.0</ele><time>2026-04-25T12:49:44.835Z</time></trkpt><trkpt lat="34.6904472" lon="10.7102541"><ele>8.0</ele><time>2026-04-25T12:49:45.827Z</time></trkpt><trkpt lat="34.6903966" lon="10.710201"><ele>8.166666666666666</ele><time>2026-04-25T12:49:46.817Z</time></trkpt><trkpt lat="34.6903114" lon="10.7101048"><ele>8.333333333333332</ele><time>2026-04-25T12:49:48.828Z</time></trkpt><trkpt lat="34.6902379" lon="10.71002"><ele>8.5</ele><time>2026-04-25T12:49:50.816Z</time></trkpt><trkpt lat="34.6901778" lon="10.7099521"><ele>8.666666666666666</ele><time>2026-04-25T12:49:52.831Z</time></trkpt><trkpt lat="34.6901244" lon="10.7098928"><ele>8.833333333333334</ele><time>2026-04-25T12:49:54.828Z</time></trkpt><trkpt lat="34.6900833" lon="10.7098246"><ele>9.0</ele><time>2026-04-25T12:49:56.824Z</time></trkpt><trkpt lat="34.6900328" lon="10.7097592"><ele>9.142857142857144</ele><time>2026-04-25T12:49:58.826Z</time></trkpt><trkpt lat="34.6899746" lon="10.7096782"><ele>9.285714285714286</ele><time>2026-04-25T12:50:01.836Z</time></trkpt><trkpt lat="34.689924" lon="10.7096153"><ele>9.428571428571429</ele><time>2026-04-25T12:50:04.829Z</time></trkpt><trkpt lat="34.6898827" lon="10.7095491"><ele>9.571428571428573</ele><time>2026-04-25T12:50:07.837Z</time></trkpt><trkpt lat="34.6898371" lon="10.7094853"><ele>9.714285714285715</ele><time>2026-04-25T12:50:09.838Z</time></trkpt><trkpt lat="34.6897874" lon="10.7094269"><ele>9.857142857142858</ele><time>2026-04-25T12:50:11.849Z</time></trkpt><trkpt lat="34.6897376" lon="10.7093796"><ele>10.0</ele><time>2026-04-25T12:50:14.838Z</time></trkpt><trkpt lat="34.6896859" lon="10.7093345"><ele>10.0</ele><time>2026-04-25T12:50:16.838Z</time></trkpt><trkpt lat="34.6896397" lon="10.7092813"><ele>10.0</ele><time>2026-04-25T12:50:18.825Z</time></trkpt><trkpt lat="34.6895849" lon="10.7092113"><ele>10.0</ele><time>2026-04-25T12:50:21.821Z</time></trkpt><trkpt lat="34.6895374" lon="10.7091471"><ele>10.0</ele><time>2026-04-25T12:50:24.833Z</time></trkpt><trkpt lat="34.6894973" lon="10.7090834"><ele>10.0</ele><time>2026-04-25T12:50:28.844Z</time></trkpt><trkpt lat="34.6894404" lon="10.7090331"><ele>10.0</ele><time>2026-04-25T12:50:31.845Z</time></trkpt><trkpt lat="34.6893863" lon="10.708964"><ele>10.0</ele><time>2026-04-25T12:50:33.829Z</time></trkpt><trkpt lat="34.6893388" lon="10.7088819"><ele>10.0</ele><time>2026-04-25T12:50:35.856Z</time></trkpt><trkpt lat="34.6892714" lon="10.7088077"><ele>10.0</ele><time>2026-04-25T12:50:37.844Z</time></trkpt><trkpt lat="34.6892166" lon="10.7087472"><ele>10.0</ele><time>2026-04-25T12:50:39.852Z</time></trkpt><trkpt lat="34.6891684" lon="10.7086768"><ele>10.0</ele><time>2026-04-25T12:50:42.827Z</time></trkpt><trkpt lat="34.6891164" lon="10.708633"><ele>10.0</ele><time>2026-04-25T12:50:47.872Z</time></trkpt><trkpt lat="34.6890695" lon="10.7085772"><ele>10.0</ele><time>2026-04-25T12:50:50.814Z</time></trkpt><trkpt lat="34.689015" lon="10.7085138"><ele>10.0</ele><time>2026-04-25T12:50:54.834Z</time></trkpt><trkpt lat="34.6889606" lon="10.7084538"><ele>9.857142857142858</ele><time>2026-04-25T12:50:57.826Z</time></trkpt><trkpt lat="34.6889084" lon="10.7083849"><ele>9.714285714285715</ele><time>2026-04-25T12:51:01.828Z</time></trkpt><trkpt lat="34.688855" lon="10.7083274"><ele>9.571428571428573</ele><time>2026-04-25T12:51:06.817Z</time></trkpt><trkpt lat="34.6887959" lon="10.7082763"><ele>9.428571428571429</ele><time>2026-04-25T12:51:11.838Z</time></trkpt><trkpt lat="34.6887486" lon="10.7082217"><ele>9.285714285714286</ele><time>2026-04-25T12:51:15.832Z</time></trkpt><trkpt lat="34.6886955" lon="10.708164"><ele>9.142857142857144</ele><time>2026-04-25T12:51:21.856Z</time></trkpt><trkpt lat="34.6886239" lon="10.7081059"><ele>9.0</ele><time>2026-04-25T12:51:24.837Z</time></trkpt><trkpt lat="34.6885771" lon="10.7080504"><ele>9.142857142857144</ele><time>2026-04-25T12:51:26.838Z</time></trkpt><trkpt lat="34.688531" lon="10.7079942"><ele>9.285714285714286</ele><time>2026-04-25T12:51:28.83Z</time></trkpt><trkpt lat="34.6884698" lon="10.7079298"><ele>9.428571428571429</ele><time>2026-04-25T12:51:31.822Z</time></trkpt><trkpt lat="34.688422" lon="10.70786"><ele>9.571428571428573</ele><time>2026-04-25T12:51:33.829Z</time></trkpt><trkpt lat="34.6883657" lon="10.7077866"><ele>9.714285714285715</ele><time>2026-04-25T12:51:35.838Z</time></trkpt><trkpt lat="34.6883147" lon="10.7077185"><ele>9.857142857142858</ele><time>2026-04-25T12:51:37.834Z</time></trkpt><trkpt lat="34.6882625" lon="10.7076631"><ele>10.0</ele><time>2026-04-25T12:51:40.833Z</time></trkpt><trkpt lat="34.6882177" lon="10.707602"><ele>10.0</ele><time>2026-04-25T12:51:44.838Z</time></trkpt><trkpt lat="34.6881924" lon="10.707525"><ele>10.0</ele><time>2026-04-25T12:51:47.843Z</time></trkpt><trkpt lat="34.6881487" lon="10.7074376"><ele>10.0</ele><time>2026-04-25T12:51:50.831Z</time></trkpt><trkpt lat="34.6880928" lon="10.7073946"><ele>10.0</ele><time>2026-04-25T12:51:53.849Z</time></trkpt><trkpt lat="34.688025" lon="10.7073688"><ele>10.0</ele><time>2026-04-25T12:51:57.843Z</time></trkpt><trkpt lat="34.6879621" lon="10.7073431"><ele>10.0</ele><time>2026-04-25T12:52:02.83Z</time></trkpt><trkpt lat="34.6879034" lon="10.7072925"><ele>10.0</ele><time>2026-04-25T12:52:08.836Z</time></trkpt><trkpt lat="34.6878586" lon="10.7072363"><ele>10.0</ele><time>2026-04-25T12:52:10.826Z</time></trkpt><trkpt lat="34.6877855" lon="10.7071587"><ele>10.0</ele><time>2026-04-25T12:52:12.831Z</time></trkpt><trkpt lat="34.6877095" lon="10.7070989"><ele>10.0</ele><time>2026-04-25T12:52:14.84Z</time></trkpt><trkpt lat="34.6876398" lon="10.7070326"><ele>10.0</ele><time>2026-04-25T12:52:16.833Z</time></trkpt><trkpt lat="34.6875711" lon="10.7069594"><ele>10.0</ele><time>2026-04-25T12:52:18.834Z</time></trkpt><trkpt lat="34.6874986" lon="10.7068834"><ele>9.8</ele><time>2026-04-25T12:52:20.84Z</time></trkpt><trkpt lat="34.6874188" lon="10.706803"><ele>9.6</ele><time>2026-04-25T12:52:22.839Z</time></trkpt><trkpt lat="34.6873389" lon="10.7067163"><ele>9.4</ele><time>2026-04-25T12:52:24.841Z</time></trkpt><trkpt lat="34.6872641" lon="10.7066228"><ele>9.2</ele><time>2026-04-25T12:52:26.821Z</time></trkpt><trkpt lat="34.6871787" lon="10.7065399"><ele>9.0</ele><time>2026-04-25T12:52:28.835Z</time></trkpt><trkpt lat="34.687128" lon="10.7064871"><ele>9.0</ele><time>2026-04-25T12:52:29.834Z</time></trkpt><trkpt lat="34.6870751" lon="10.7064306"><ele>9.0</ele><time>2026-04-25T12:52:30.832Z</time></trkpt><trkpt lat="34.6870238" lon="10.7063775"><ele>9.0</ele><time>2026-04-25T12:52:31.819Z</time></trkpt><trkpt lat="34.6869711" lon="10.7063268"><ele>9.0</ele><time>2026-04-25T12:52:32.839Z</time></trkpt><trkpt lat="34.6868855" lon="10.7062304"><ele>9.0</ele><time>2026-04-25T12:52:34.833Z</time></trkpt><trkpt lat="34.6868171" lon="10.7061533"><ele>9.0</ele><time>2026-04-25T12:52:36.833Z</time></trkpt><trkpt lat="34.6867532" lon="10.7060961"><ele>9.5</ele><time>2026-04-25T12:52:38.827Z</time></trkpt><trkpt lat="34.6866874" lon="10.7060333"><ele>10.0</ele><time>2026-04-25T12:52:40.831Z</time></trkpt><trkpt lat="34.6866183" lon="10.7059592"><ele>10.5</ele><time>2026-04-25T12:52:42.839Z</time></trkpt><trkpt lat="34.6865595" lon="10.7058952"><ele>11.0</ele><time>2026-04-25T12:52:44.827Z</time></trkpt><trkpt lat="34.6865049" lon="10.7058366"><ele>11.5</ele><time>2026-04-25T12:52:47.818Z</time></trkpt><trkpt lat="34.6864405" lon="10.7057661"><ele>12.0</ele><time>2026-04-25T12:52:50.825Z</time></trkpt><trkpt lat="34.686358" lon="10.7056833"><ele>12.0</ele><time>2026-04-25T12:52:53.834Z</time></trkpt><trkpt lat="34.6862896" lon="10.7056163"><ele>12.0</ele><time>2026-04-25T12:52:55.841Z</time></trkpt><trkpt lat="34.6862202" lon="10.7055538"><ele>12.0</ele><time>2026-04-25T12:52:57.827Z</time></trkpt><trkpt lat="34.6861607" lon="10.7054966"><ele>12.0</ele><time>2026-04-25T12:53:00.853Z</time></trkpt><trkpt lat="34.6861091" lon="10.7054484"><ele>12.0</ele><time>2026-04-25T12:53:02.831Z</time></trkpt><trkpt lat="34.6860476" lon="10.7053767"><ele>12.0</ele><time>2026-04-25T12:53:04.849Z</time></trkpt><trkpt lat="34.685985" lon="10.705301"><ele>11.6</ele><time>2026-04-25T12:53:06.839Z</time></trkpt><trkpt lat="34.685915" lon="10.7052298"><ele>11.2</ele><time>2026-04-25T12:53:08.846Z</time></trkpt><trkpt lat="34.6858397" lon="10.705158"><ele>10.8</ele><time>2026-04-25T12:53:10.838Z</time></trkpt><trkpt lat="34.6857671" lon="10.705078"><ele>10.4</ele><time>2026-04-25T12:53:12.833Z</time></trkpt><trkpt lat="34.6856876" lon="10.7049854"><ele>10.0</ele><time>2026-04-25T12:53:14.839Z</time></trkpt><trkpt lat="34.6855947" lon="10.7048932"><ele>10.0</ele><time>2026-04-25T12:53:16.826Z</time></trkpt><trkpt lat="34.6855442" lon="10.7048409"><ele>10.0</ele><time>2026-04-25T12:53:17.841Z</time></trkpt><trkpt lat="34.6854876" lon="10.7047857"><ele>10.0</ele><time>2026-04-25T12:53:18.831Z</time></trkpt><trkpt lat="34.685432" lon="10.7047256"><ele>10.0</ele><time>2026-04-25T12:53:19.844Z</time></trkpt><trkpt lat="34.6853762" lon="10.7046657"><ele>10.0</ele><time>2026-04-25T12:53:20.835Z</time></trkpt><trkpt lat="34.6853285" lon="10.7046123"><ele>10.0</ele><time>2026-04-25T12:53:21.831Z</time></trkpt><trkpt lat="34.6852536" lon="10.7045305"><ele>10.0</ele><time>2026-04-25T12:53:23.839Z</time></trkpt><trkpt lat="34.6851863" lon="10.704461"><ele>10.0</ele><time>2026-04-25T12:53:25.826Z</time></trkpt><trkpt lat="34.6851019" lon="10.7043691"><ele>10.0</ele><time>2026-04-25T12:53:27.835Z</time></trkpt><trkpt lat="34.6850534" lon="10.7043182"><ele>10.0</ele><time>2026-04-25T12:53:28.844Z</time></trkpt><trkpt lat="34.6850029" lon="10.7042699"><ele>10.0</ele><time>2026-04-25T12:53:29.839Z</time></trkpt><trkpt lat="34.6849431" lon="10.7042135"><ele>10.0</ele><time>2026-04-25T12:53:30.819Z</time></trkpt><trkpt lat="34.684886" lon="10.7041586"><ele>10.142857142857142</ele><time>2026-04-25T12:53:31.841Z</time></trkpt><trkpt lat="34.6848325" lon="10.7041048"><ele>10.285714285714286</ele><time>2026-04-25T12:53:32.825Z</time></trkpt><trkpt lat="34.6847749" lon="10.7040477"><ele>10.428571428571429</ele><time>2026-04-25T12:53:33.84Z</time></trkpt><trkpt lat="34.6847213" lon="10.7039914"><ele>10.571428571428571</ele><time>2026-04-25T12:53:34.837Z</time></trkpt><trkpt lat="34.6846659" lon="10.7039411"><ele>10.714285714285714</ele><time>2026-04-25T12:53:35.842Z</time></trkpt><trkpt lat="34.6846135" lon="10.7038862"><ele>10.857142857142858</ele><time>2026-04-25T12:53:36.823Z</time></trkpt><trkpt lat="34.6845603" lon="10.7038311"><ele>11.0</ele><time>2026-04-25T12:53:37.828Z</time></trkpt><trkpt lat="34.6845056" lon="10.7037779"><ele>11.0</ele><time>2026-04-25T12:53:38.835Z</time></trkpt><trkpt lat="34.6844496" lon="10.7037195"><ele>11.0</ele><time>2026-04-25T12:53:39.844Z</time></trkpt><trkpt lat="34.684391" lon="10.7036594"><ele>11.0</ele><time>2026-04-25T12:53:40.874Z</time></trkpt><trkpt lat="34.6843306" lon="10.7035945"><ele>11.0</ele><time>2026-04-25T12:53:41.83Z</time></trkpt><trkpt lat="34.684266" lon="10.7035306"><ele>11.0</ele><time>2026-04-25T12:53:42.835Z</time></trkpt><trkpt lat="34.6842059" lon="10.7034674"><ele>11.0</ele><time>2026-04-25T12:53:43.838Z</time></trkpt><trkpt lat="34.6841439" lon="10.7034016"><ele>11.0</ele><time>2026-04-25T12:53:44.832Z</time></trkpt><trkpt lat="34.6840845" lon="10.7033479"><ele>11.0</ele><time>2026-04-25T12:53:45.839Z</time></trkpt><trkpt lat="34.6840318" lon="10.7032852"><ele>11.0</ele><time>2026-04-25T12:53:46.829Z</time></trkpt><trkpt lat="34.6839825" lon="10.7032304"><ele>11.0</ele><time>2026-04-25T12:53:47.841Z</time></trkpt><trkpt lat="34.6839349" lon="10.7031772"><ele>11.0</ele><time>2026-04-25T12:53:48.826Z</time></trkpt><trkpt lat="34.6838443" lon="10.7030869"><ele>11.0</ele><time>2026-04-25T12:53:50.827Z</time></trkpt><trkpt lat="34.6837669" lon="10.7029928"><ele>11.0</ele><time>2026-04-25T12:53:52.839Z</time></trkpt><trkpt lat="34.6836925" lon="10.7029092"><ele>11.0</ele><time>2026-04-25T12:53:54.842Z</time></trkpt><trkpt lat="34.6836214" lon="10.7028372"><ele>11.0</ele><time>2026-04-25T12:53:56.822Z</time></trkpt><trkpt lat="34.6835703" lon="10.7027906"><ele>11.0</ele><time>2026-04-25T12:53:58.835Z</time></trkpt><trkpt lat="34.6835122" lon="10.7027215"><ele>11.0</ele><time>2026-04-25T12:54:01.842Z</time></trkpt><trkpt lat="34.6834576" lon="10.7026609"><ele>11.0</ele><time>2026-04-25T12:54:03.845Z</time></trkpt><trkpt lat="34.6834024" lon="10.7025976"><ele>10.666666666666666</ele><time>2026-04-25T12:54:05.82Z</time></trkpt><trkpt lat="34.6833537" lon="10.7025347"><ele>10.333333333333332</ele><time>2026-04-25T12:54:12.841Z</time></trkpt><trkpt lat="34.6833099" lon="10.7024588"><ele>10.0</ele><time>2026-04-25T12:54:16.807Z</time></trkpt><trkpt lat="34.683259" lon="10.7024031"><ele>9.666666666666666</ele><time>2026-04-25T12:54:19.818Z</time></trkpt><trkpt lat="34.6832003" lon="10.7023432"><ele>9.333333333333334</ele><time>2026-04-25T12:54:22.831Z</time></trkpt><trkpt lat="34.6831293" lon="10.7022661"><ele>9.0</ele><time>2026-04-25T12:54:25.824Z</time></trkpt><trkpt lat="34.6830776" lon="10.7022213"><ele>9.0</ele><time>2026-04-25T12:54:27.847Z</time></trkpt><trkpt lat="34.6830131" lon="10.7021465"><ele>9.0</ele><time>2026-04-25T12:54:29.814Z</time></trkpt><trkpt lat="34.6829463" lon="10.7020585"><ele>9.0</ele><time>2026-04-25T12:54:31.85Z</time></trkpt><trkpt lat="34.6828746" lon="10.7019812"><ele>9.0</ele><time>2026-04-25T12:54:33.841Z</time></trkpt><trkpt lat="34.6827401" lon="10.701848"><ele>9.4</ele><time>2026-04-25T12:54:36.811Z</time></trkpt><trkpt lat="34.6826527" lon="10.7017601"><ele>9.8</ele><time>2026-04-25T12:54:38.822Z</time></trkpt><trkpt lat="34.6825756" lon="10.7016875"><ele>10.200000000000001</ele><time>2026-04-25T12:54:40.831Z</time></trkpt><trkpt lat="34.6825021" lon="10.7016072"><ele>10.600000000000001</ele><time>2026-04-25T12:54:42.825Z</time></trkpt><trkpt lat="34.6824338" lon="10.7015282"><ele>11.0</ele><time>2026-04-25T12:54:44.831Z</time></trkpt><trkpt lat="34.682361" lon="10.7014509"><ele>11.0</ele><time>2026-04-25T12:54:46.819Z</time></trkpt><trkpt lat="34.682296" lon="10.7013718"><ele>11.0</ele><time>2026-04-25T12:54:48.819Z</time></trkpt><trkpt lat="34.6822258" lon="10.7013004"><ele>11.0</ele><time>2026-04-25T12:54:50.84Z</time></trkpt><trkpt lat="34.6821406" lon="10.7012112"><ele>11.0</ele><time>2026-04-25T12:54:52.823Z</time></trkpt><trkpt lat="34.6820468" lon="10.7011183"><ele>11.0</ele><time>2026-04-25T12:54:54.829Z</time></trkpt><trkpt lat="34.6820018" lon="10.7010585"><ele>11.166666666666666</ele><time>2026-04-25T12:54:55.821Z</time></trkpt><trkpt lat="34.6819529" lon="10.7009905"><ele>11.333333333333332</ele><time>2026-04-25T12:54:56.837Z</time></trkpt><trkpt lat="34.681899" lon="10.7009183"><ele>11.5</ele><time>2026-04-25T12:54:57.827Z</time></trkpt><trkpt lat="34.6818384" lon="10.7008412"><ele>11.666666666666666</ele><time>2026-04-25T12:54:58.824Z</time></trkpt><trkpt lat="34.6817696" lon="10.7007657"><ele>11.833333333333334</ele><time>2026-04-25T12:54:59.82Z</time></trkpt><trkpt lat="34.6817006" lon="10.7006923"><ele>12.0</ele><time>2026-04-25T12:55:00.825Z</time></trkpt><trkpt lat="34.681634" lon="10.7006274"><ele>12.0</ele><time>2026-04-25T12:55:01.826Z</time></trkpt><trkpt lat="34.6815744" lon="10.7005629"><ele>12.0</ele><time>2026-04-25T12:55:02.826Z</time></trkpt><trkpt lat="34.6815234" lon="10.700502"><ele>12.0</ele><time>2026-04-25T12:55:03.827Z</time></trkpt><trkpt lat="34.68147" lon="10.7004321"><ele>12.0</ele><time>2026-04-25T12:55:04.83Z</time></trkpt><trkpt lat="34.6814066" lon="10.7003461"><ele>12.0</ele><time>2026-04-25T12:55:05.825Z</time></trkpt><trkpt lat="34.681329" lon="10.7002425"><ele>12.0</ele><time>2026-04-25T12:55:06.817Z</time></trkpt><trkpt lat="34.6812213" lon="10.7001238"><ele>12.0</ele><time>2026-04-25T12:55:07.845Z</time></trkpt><trkpt lat="34.6811211" lon="10.7000051"><ele>12.0</ele><time>2026-04-25T12:55:08.827Z</time></trkpt><trkpt lat="34.6810182" lon="10.6998918"><ele>12.0</ele><time>2026-04-25T12:55:09.828Z</time></trkpt><trkpt lat="34.6809173" lon="10.6997774"><ele>12.0</ele><time>2026-04-25T12:55:10.823Z</time></trkpt><trkpt lat="34.6808269" lon="10.6996725"><ele>12.0</ele><time>2026-04-25T12:55:11.836Z</time></trkpt><trkpt lat="34.680733" lon="10.6995621"><ele>12.0</ele><time>2026-04-25T12:55:12.824Z</time></trkpt><trkpt lat="34.6806426" lon="10.6994587"><ele>12.0</ele><time>2026-04-25T12:55:13.836Z</time></trkpt><trkpt lat="34.6805487" lon="10.6993506"><ele>12.0</ele><time>2026-04-25T12:55:14.835Z</time></trkpt><trkpt lat="34.6804579" lon="10.6992415"><ele>12.0</ele><time>2026-04-25T12:55:15.828Z</time></trkpt><trkpt lat="34.6803713" lon="10.6991364"><ele>12.0</ele><time>2026-04-25T12:55:16.831Z</time></trkpt><trkpt lat="34.6802901" lon="10.6990389"><ele>12.0</ele><time>2026-04-25T12:55:17.825Z</time></trkpt><trkpt lat="34.6802131" lon="10.6989449"><ele>12.0</ele><time>2026-04-25T12:55:18.825Z</time></trkpt><trkpt lat="34.6801378" lon="10.6988547"><ele>11.8</ele><time>2026-04-25T12:55:19.846Z</time></trkpt><trkpt lat="34.6800666" lon="10.6987676"><ele>11.6</ele><time>2026-04-25T12:55:20.826Z</time></trkpt><trkpt lat="34.6800027" lon="10.6986849"><ele>11.4</ele><time>2026-04-25T12:55:21.838Z</time></trkpt><trkpt lat="34.6799338" lon="10.6986058"><ele>11.200000000000001</ele><time>2026-04-25T12:55:22.823Z</time></trkpt><trkpt lat="34.6798706" lon="10.6985193"><ele>11.0</ele><time>2026-04-25T12:55:23.816Z</time></trkpt><trkpt lat="34.6798048" lon="10.6984358"><ele>11.0</ele><time>2026-04-25T12:55:24.845Z</time></trkpt><trkpt lat="34.6797334" lon="10.6983483"><ele>11.0</ele><time>2026-04-25T12:55:25.835Z</time></trkpt><trkpt lat="34.6796572" lon="10.6982579"><ele>11.0</ele><time>2026-04-25T12:55:26.836Z</time></trkpt><trkpt lat="34.6795767" lon="10.6981606"><ele>11.0</ele><time>2026-04-25T12:55:27.814Z</time></trkpt><trkpt lat="34.6794934" lon="10.6980593"><ele>11.0</ele><time>2026-04-25T12:55:28.817Z</time></trkpt><trkpt lat="34.6794117" lon="10.6979581"><ele>11.0</ele><time>2026-04-25T12:55:29.822Z</time></trkpt><trkpt lat="34.6793337" lon="10.6978613"><ele>11.0</ele><time>2026-04-25T12:55:30.829Z</time></trkpt><trkpt lat="34.6792507" lon="10.6977589"><ele>11.0</ele><time>2026-04-25T12:55:31.834Z</time></trkpt><trkpt lat="34.6791653" lon="10.6976509"><ele>11.0</ele><time>2026-04-25T12:55:32.822Z</time></trkpt><trkpt lat="34.679078" lon="10.6975444"><ele>11.25</ele><time>2026-04-25T12:55:33.832Z</time></trkpt><trkpt lat="34.6789923" lon="10.697438"><ele>11.5</ele><time>2026-04-25T12:55:34.827Z</time></trkpt><trkpt lat="34.6789023" lon="10.6973307"><ele>11.75</ele><time>2026-04-25T12:55:35.829Z</time></trkpt><trkpt lat="34.6788119" lon="10.6972217"><ele>12.0</ele><time>2026-04-25T12:55:36.846Z</time></trkpt><trkpt lat="34.6787238" lon="10.6971132"><ele>12.0</ele><time>2026-04-25T12:55:37.846Z</time></trkpt><trkpt lat="34.6786315" lon="10.6970031"><ele>12.0</ele><time>2026-04-25T12:55:38.831Z</time></trkpt><trkpt lat="34.6785419" lon="10.6968971"><ele>12.0</ele><time>2026-04-25T12:55:39.829Z</time></trkpt><trkpt lat="34.678451" lon="10.6967873"><ele>12.0</ele><time>2026-04-25T12:55:40.821Z</time></trkpt><trkpt lat="34.6783618" lon="10.6966792"><ele>11.75</ele><time>2026-04-25T12:55:41.834Z</time></trkpt><trkpt lat="34.6782741" lon="10.6965694"><ele>11.5</ele><time>2026-04-25T12:55:42.822Z</time></trkpt><trkpt lat="34.6781895" lon="10.6964616"><ele>11.25</ele><time>2026-04-25T12:55:43.835Z</time></trkpt><trkpt lat="34.6781008" lon="10.696353"><ele>11.0</ele><time>2026-04-25T12:55:44.832Z</time></trkpt><trkpt lat="34.6780134" lon="10.6962514"><ele>11.0</ele><time>2026-04-25T12:55:45.848Z</time></trkpt><trkpt lat="34.6779327" lon="10.6961577"><ele>11.0</ele><time>2026-04-25T12:55:46.834Z</time></trkpt><trkpt lat="34.6778542" lon="10.6960651"><ele>11.0</ele><time>2026-04-25T12:55:47.834Z</time></trkpt><trkpt lat="34.6777837" lon="10.6959658"><ele>11.0</ele><time>2026-04-25T12:55:48.83Z</time></trkpt><trkpt lat="34.6777155" lon="10.6958806"><ele>11.0</ele><time>2026-04-25T12:55:49.827Z</time></trkpt><trkpt lat="34.6776539" lon="10.695797"><ele>11.0</ele><time>2026-04-25T12:55:50.823Z</time></trkpt><trkpt lat="34.677588" lon="10.6957167"><ele>11.0</ele><time>2026-04-25T12:55:51.827Z</time></trkpt><trkpt lat="34.6775245" lon="10.6956384"><ele>11.0</ele><time>2026-04-25T12:55:52.839Z</time></trkpt><trkpt lat="34.6774605" lon="10.6955556"><ele>11.0</ele><time>2026-04-25T12:55:53.845Z</time></trkpt><trkpt lat="34.6773849" lon="10.6954705"><ele>11.0</ele><time>2026-04-25T12:55:54.838Z</time></trkpt><trkpt lat="34.6773029" lon="10.6953781"><ele>11.0</ele><time>2026-04-25T12:55:55.842Z</time></trkpt><trkpt lat="34.6772247" lon="10.6952761"><ele>11.0</ele><time>2026-04-25T12:55:56.831Z</time></trkpt><trkpt lat="34.6771461" lon="10.6951766"><ele>11.0</ele><time>2026-04-25T12:55:57.827Z</time></trkpt><trkpt lat="34.6770598" lon="10.6950758"><ele>11.0</ele><time>2026-04-25T12:55:58.829Z</time></trkpt><trkpt lat="34.6769724" lon="10.6949764"><ele>11.0</ele><time>2026-04-25T12:55:59.838Z</time></trkpt><trkpt lat="34.6768901" lon="10.6948779"><ele>11.0</ele><time>2026-04-25T12:56:00.834Z</time></trkpt><trkpt lat="34.676802" lon="10.6947751"><ele>11.0</ele><time>2026-04-25T12:56:01.846Z</time></trkpt><trkpt lat="34.6767112" lon="10.694668"><ele>11.0</ele><time>2026-04-25T12:56:02.847Z</time></trkpt><trkpt lat="34.6766233" lon="10.6945639"><ele>11.0</ele><time>2026-04-25T12:56:03.837Z</time></trkpt><trkpt lat="34.6765373" lon="10.6944603"><ele>11.0</ele><time>2026-04-25T12:56:04.844Z</time></trkpt><trkpt lat="34.6764517" lon="10.6943535"><ele>11.0</ele><time>2026-04-25T12:56:05.829Z</time></trkpt><trkpt lat="34.6763718" lon="10.6942512"><ele>11.0</ele><time>2026-04-25T12:56:06.84Z</time></trkpt><trkpt lat="34.6762995" lon="10.6941548"><ele>11.0</ele><time>2026-04-25T12:56:07.835Z</time></trkpt><trkpt lat="34.6762271" lon="10.6940612"><ele>11.0</ele><time>2026-04-25T12:56:08.837Z</time></trkpt><trkpt lat="34.6761522" lon="10.6939751"><ele>11.0</ele><time>2026-04-25T12:56:09.851Z</time></trkpt><trkpt lat="34.6760807" lon="10.6938927"><ele>11.0</ele><time>2026-04-25T12:56:10.844Z</time></trkpt><trkpt lat="34.6760096" lon="10.6938119"><ele>11.0</ele><time>2026-04-25T12:56:11.829Z</time></trkpt><trkpt lat="34.6759471" lon="10.6937368"><ele>11.0</ele><time>2026-04-25T12:56:12.826Z</time></trkpt><trkpt lat="34.6758837" lon="10.6936555"><ele>11.0</ele><time>2026-04-25T12:56:13.828Z</time></trkpt><trkpt lat="34.6758232" lon="10.6935741"><ele>11.0</ele><time>2026-04-25T12:56:14.824Z</time></trkpt><trkpt lat="34.6757566" lon="10.6934854"><ele>11.0</ele><time>2026-04-25T12:56:15.821Z</time></trkpt><trkpt lat="34.6756874" lon="10.6933994"><ele>11.0</ele><time>2026-04-25T12:56:16.838Z</time></trkpt><trkpt lat="34.6756138" lon="10.693309"><ele>10.75</ele><time>2026-04-25T12:56:17.845Z</time></trkpt><trkpt lat="34.6755381" lon="10.6932133"><ele>10.5</ele><time>2026-04-25T12:56:18.837Z</time></trkpt><trkpt lat="34.6754544" lon="10.69312"><ele>10.25</ele><time>2026-04-25T12:56:19.83Z</time></trkpt><trkpt lat="34.6753712" lon="10.6930178"><ele>10.0</ele><time>2026-04-25T12:56:20.83Z</time></trkpt><trkpt lat="34.6752911" lon="10.69291"><ele>10.0</ele><time>2026-04-25T12:56:21.83Z</time></trkpt><trkpt lat="34.6752125" lon="10.6927975"><ele>10.0</ele><time>2026-04-25T12:56:22.829Z</time></trkpt><trkpt lat="34.6751332" lon="10.6926876"><ele>10.0</ele><time>2026-04-25T12:56:23.836Z</time></trkpt><trkpt lat="34.6750516" lon="10.6925801"><ele>10.0</ele><time>2026-04-25T12:56:24.84Z</time></trkpt><trkpt lat="34.6749729" lon="10.6924749"><ele>9.75</ele><time>2026-04-25T12:56:25.835Z</time></trkpt><trkpt lat="34.6749019" lon="10.6923657"><ele>9.5</ele><time>2026-04-25T12:56:26.829Z</time></trkpt><trkpt lat="34.6748251" lon="10.6922647"><ele>9.25</ele><time>2026-04-25T12:56:27.836Z</time></trkpt><trkpt lat="34.6747525" lon="10.6921579"><ele>9.0</ele><time>2026-04-25T12:56:28.843Z</time></trkpt><trkpt lat="34.674677" lon="10.6920452"><ele>9.0</ele><time>2026-04-25T12:56:29.837Z</time></trkpt><trkpt lat="34.6746012" lon="10.6919374"><ele>9.0</ele><time>2026-04-25T12:56:30.843Z</time></trkpt><trkpt lat="34.6745247" lon="10.6918341"><ele>9.0</ele><time>2026-04-25T12:56:31.844Z</time></trkpt><trkpt lat="34.6744536" lon="10.6917254"><ele>9.0</ele><time>2026-04-25T12:56:32.831Z</time></trkpt><trkpt lat="34.6743851" lon="10.6916267"><ele>9.0</ele><time>2026-04-25T12:56:33.831Z</time></trkpt><trkpt lat="34.6743187" lon="10.6915267"><ele>9.0</ele><time>2026-04-25T12:56:34.822Z</time></trkpt><trkpt lat="34.6742534" lon="10.6914276"><ele>9.0</ele><time>2026-04-25T12:56:35.833Z</time></trkpt><trkpt lat="34.6741892" lon="10.6913331"><ele>9.0</ele><time>2026-04-25T12:56:36.828Z</time></trkpt><trkpt lat="34.6741242" lon="10.6912374"><ele>9.0</ele><time>2026-04-25T12:56:37.831Z</time></trkpt><trkpt lat="34.6740606" lon="10.6911429"><ele>8.8</ele><time>2026-04-25T12:56:38.837Z</time></trkpt><trkpt lat="34.6739962" lon="10.6910461"><ele>8.600000000000001</ele><time>2026-04-25T12:56:39.836Z</time></trkpt><trkpt lat="34.6739294" lon="10.6909579"><ele>8.4</ele><time>2026-04-25T12:56:40.845Z</time></trkpt><trkpt lat="34.673865" lon="10.6908717"><ele>8.200000000000001</ele><time>2026-04-25T12:56:41.835Z</time></trkpt><trkpt lat="34.6737953" lon="10.690784"><ele>8.0</ele><time>2026-04-25T12:56:42.833Z</time></trkpt><trkpt lat="34.673724" lon="10.6906902"><ele>8.0</ele><time>2026-04-25T12:56:43.838Z</time></trkpt><trkpt lat="34.6736516" lon="10.6905929"><ele>8.0</ele><time>2026-04-25T12:56:44.83Z</time></trkpt><trkpt lat="34.6735827" lon="10.6904894"><ele>8.0</ele><time>2026-04-25T12:56:45.833Z</time></trkpt><trkpt lat="34.673516" lon="10.6903923"><ele>8.0</ele><time>2026-04-25T12:56:46.826Z</time></trkpt><trkpt lat="34.6734485" lon="10.6902982"><ele>8.0</ele><time>2026-04-25T12:56:47.832Z</time></trkpt><trkpt lat="34.6733774" lon="10.6902077"><ele>8.5</ele><time>2026-04-25T12:56:48.83Z</time></trkpt><trkpt lat="34.6733057" lon="10.690108"><ele>9.0</ele><time>2026-04-25T12:56:49.829Z</time></trkpt><trkpt lat="34.6732235" lon="10.6899983"><ele>9.5</ele><time>2026-04-25T12:56:50.833Z</time></trkpt><trkpt lat="34.6731389" lon="10.6898751"><ele>10.0</ele><time>2026-04-25T12:56:51.819Z</time></trkpt><trkpt lat="34.6730471" lon="10.6897409"><ele>10.0</ele><time>2026-04-25T12:56:52.834Z</time></trkpt><trkpt lat="34.6729592" lon="10.6896061"><ele>10.0</ele><time>2026-04-25T12:56:53.836Z</time></trkpt><trkpt lat="34.6728776" lon="10.689473"><ele>10.0</ele><time>2026-04-25T12:56:54.845Z</time></trkpt><trkpt lat="34.6727902" lon="10.6893495"><ele>10.0</ele><time>2026-04-25T12:56:55.813Z</time></trkpt><trkpt lat="34.6727031" lon="10.6892259"><ele>9.75</ele><time>2026-04-25T12:56:56.83Z</time></trkpt><trkpt lat="34.6726111" lon="10.6891044"><ele>9.5</ele><time>2026-04-25T12:56:57.832Z</time></trkpt><trkpt lat="34.6725209" lon="10.6889736"><ele>9.25</ele><time>2026-04-25T12:56:58.817Z</time></trkpt><trkpt lat="34.6724285" lon="10.6888393"><ele>9.0</ele><time>2026-04-25T12:56:59.836Z</time></trkpt><trkpt lat="34.6723279" lon="10.6886947"><ele>8.666666666666666</ele><time>2026-04-25T12:57:00.829Z</time></trkpt><trkpt lat="34.6722155" lon="10.6885453"><ele>8.333333333333332</ele><time>2026-04-25T12:57:01.817Z</time></trkpt><trkpt lat="34.672105" lon="10.6884007"><ele>8.0</ele><time>2026-04-25T12:57:02.833Z</time></trkpt><trkpt lat="34.6719975" lon="10.6882551"><ele>8.666666666666666</ele><time>2026-04-25T12:57:03.83Z</time></trkpt><trkpt lat="34.6718915" lon="10.6881143"><ele>9.333333333333334</ele><time>2026-04-25T12:57:04.814Z</time></trkpt><trkpt lat="34.6717948" lon="10.6879695"><ele>10.0</ele><time>2026-04-25T12:57:05.843Z</time></trkpt><trkpt lat="34.671698" lon="10.6878273"><ele>9.5</ele><time>2026-04-25T12:57:06.824Z</time></trkpt><trkpt lat="34.6716036" lon="10.6876857"><ele>9.0</ele><time>2026-04-25T12:57:07.837Z</time></trkpt><trkpt lat="34.6715103" lon="10.6875488"><ele>8.5</ele><time>2026-04-25T12:57:08.842Z</time></trkpt><trkpt lat="34.6714259" lon="10.6874197"><ele>8.0</ele><time>2026-04-25T12:57:09.84Z</time></trkpt><trkpt lat="34.6713436" lon="10.6872892"><ele>8.0</ele><time>2026-04-25T12:57:10.826Z</time></trkpt><trkpt lat="34.6712616" lon="10.6871664"><ele>8.0</ele><time>2026-04-25T12:57:11.845Z</time></trkpt><trkpt lat="34.6711826" lon="10.6870373"><ele>8.0</ele><time>2026-04-25T12:57:12.831Z</time></trkpt><trkpt lat="34.6711068" lon="10.6869094"><ele>8.0</ele><time>2026-04-25T12:57:13.843Z</time></trkpt><trkpt lat="34.6710217" lon="10.6867798"><ele>8.0</ele><time>2026-04-25T12:57:14.83Z</time></trkpt><trkpt lat="34.6709278" lon="10.6866426"><ele>8.0</ele><time>2026-04-25T12:57:15.816Z</time></trkpt><trkpt lat="34.670826" lon="10.6865052"><ele>8.0</ele><time>2026-04-25T12:57:16.844Z</time></trkpt><trkpt lat="34.6707196" lon="10.686362"><ele>8.0</ele><time>2026-04-25T12:57:17.835Z</time></trkpt><trkpt lat="34.6706182" lon="10.6862178"><ele>8.0</ele><time>2026-04-25T12:57:18.829Z</time></trkpt><trkpt lat="34.6705149" lon="10.6860712"><ele>8.0</ele><time>2026-04-25T12:57:19.839Z</time></trkpt><trkpt lat="34.670411" lon="10.6859183"><ele>8.0</ele><time>2026-04-25T12:57:20.836Z</time></trkpt><trkpt lat="34.6703041" lon="10.6857643"><ele>8.0</ele><time>2026-04-25T12:57:21.835Z</time></trkpt><trkpt lat="34.6701859" lon="10.6856054"><ele>8.0</ele><time>2026-04-25T12:57:22.83Z</time></trkpt><trkpt lat="34.6700628" lon="10.6854378"><ele>8.333333333333332</ele><time>2026-04-25T12:57:23.833Z</time></trkpt><trkpt lat="34.6699382" lon="10.6852669"><ele>8.666666666666666</ele><time>2026-04-25T12:57:24.83Z</time></trkpt><trkpt lat="34.6698126" lon="10.6850987"><ele>9.0</ele><time>2026-04-25T12:57:25.829Z</time></trkpt><trkpt lat="34.6696874" lon="10.6849254"><ele>9.0</ele><time>2026-04-25T12:57:26.834Z</time></trkpt><trkpt lat="34.6695608" lon="10.6847472"><ele>9.0</ele><time>2026-04-25T12:57:27.84Z</time></trkpt><trkpt lat="34.6694322" lon="10.6845678"><ele>9.0</ele><time>2026-04-25T12:57:28.837Z</time></trkpt><trkpt lat="34.6693049" lon="10.684385"><ele>9.0</ele><time>2026-04-25T12:57:29.831Z</time></trkpt><trkpt lat="34.6691776" lon="10.6841981"><ele>9.0</ele><time>2026-04-25T12:57:30.837Z</time></trkpt><trkpt lat="34.6690484" lon="10.6840107"><ele>9.0</ele><time>2026-04-25T12:57:31.833Z</time></trkpt><trkpt lat="34.6689215" lon="10.6838332"><ele>9.0</ele><time>2026-04-25T12:57:32.84Z</time></trkpt><trkpt lat="34.6687954" lon="10.6836542"><ele>9.0</ele><time>2026-04-25T12:57:33.823Z</time></trkpt><trkpt lat="34.6686767" lon="10.6834913"><ele>9.0</ele><time>2026-04-25T12:57:34.83Z</time></trkpt><trkpt lat="34.6685666" lon="10.6833367"><ele>10.333333333333332</ele><time>2026-04-25T12:57:35.843Z</time></trkpt><trkpt lat="34.6684569" lon="10.6831843"><ele>11.666666666666666</ele><time>2026-04-25T12:57:36.83Z</time></trkpt><trkpt lat="34.6683445" lon="10.6830252"><ele>13.0</ele><time>2026-04-25T12:57:37.827Z</time></trkpt><trkpt lat="34.6682281" lon="10.6828642"><ele>13.0</ele><time>2026-04-25T12:57:38.85Z</time></trkpt><trkpt lat="34.6681145" lon="10.682698"><ele>13.0</ele><time>2026-04-25T12:57:39.846Z</time></trkpt><trkpt lat="34.6679979" lon="10.6825348"><ele>13.0</ele><time>2026-04-25T12:57:40.832Z</time></trkpt><trkpt lat="34.6678816" lon="10.6823722"><ele>12.666666666666666</ele><time>2026-04-25T12:57:41.825Z</time></trkpt><trkpt lat="34.6677597" lon="10.6822109"><ele>12.333333333333332</ele><time>2026-04-25T12:57:42.836Z</time></trkpt><trkpt lat="34.6676412" lon="10.6820448"><ele>12.0</ele><time>2026-04-25T12:57:43.831Z</time></trkpt><trkpt lat="34.6675234" lon="10.6818764"><ele>11.666666666666666</ele><time>2026-04-25T12:57:44.826Z</time></trkpt><trkpt lat="34.667404" lon="10.6817091"><ele>11.333333333333332</ele><time>2026-04-25T12:57:45.818Z</time></trkpt><trkpt lat="34.667283" lon="10.6815485"><ele>11.0</ele><time>2026-04-25T12:57:46.83Z</time></trkpt><trkpt lat="34.6671643" lon="10.6813791"><ele>11.0</ele><time>2026-04-25T12:57:47.819Z</time></trkpt><trkpt lat="34.6670507" lon="10.6812127"><ele>11.0</ele><time>2026-04-25T12:57:48.829Z</time></trkpt><trkpt lat="34.666936" lon="10.6810461"><ele>11.0</ele><time>2026-04-25T12:57:49.841Z</time></trkpt><trkpt lat="34.6668158" lon="10.6808834"><ele>11.0</ele><time>2026-04-25T12:57:50.833Z</time></trkpt><trkpt lat="34.6667002" lon="10.6807196"><ele>11.0</ele><time>2026-04-25T12:57:51.831Z</time></trkpt><trkpt lat="34.6665858" lon="10.6805556"><ele>11.0</ele><time>2026-04-25T12:57:52.83Z</time></trkpt><trkpt lat="34.6664705" lon="10.6803951"><ele>10.333333333333332</ele><time>2026-04-25T12:57:53.835Z</time></trkpt><trkpt lat="34.6663585" lon="10.6802362"><ele>9.666666666666666</ele><time>2026-04-25T12:57:54.842Z</time></trkpt><trkpt lat="34.6662452" lon="10.6800748"><ele>9.0</ele><time>2026-04-25T12:57:55.836Z</time></trkpt><trkpt lat="34.6661246" lon="10.6799168"><ele>9.333333333333334</ele><time>2026-04-25T12:57:56.834Z</time></trkpt><trkpt lat="34.6660126" lon="10.6797459"><ele>9.666666666666668</ele><time>2026-04-25T12:57:57.824Z</time></trkpt><trkpt lat="34.6658935" lon="10.6795747"><ele>10.0</ele><time>2026-04-25T12:57:58.826Z</time></trkpt><trkpt lat="34.6657705" lon="10.6793982"><ele>10.0</ele><time>2026-04-25T12:57:59.838Z</time></trkpt><trkpt lat="34.665647" lon="10.6792266"><ele>10.0</ele><time>2026-04-25T12:58:00.847Z</time></trkpt><trkpt lat="34.6655195" lon="10.6790517"><ele>10.0</ele><time>2026-04-25T12:58:01.831Z</time></trkpt><trkpt lat="34.6653938" lon="10.6788754"><ele>10.333333333333334</ele><time>2026-04-25T12:58:02.818Z</time></trkpt><trkpt lat="34.6652649" lon="10.6786989"><ele>10.666666666666666</ele><time>2026-04-25T12:58:03.832Z</time></trkpt><trkpt lat="34.6651376" lon="10.6785218"><ele>11.0</ele><time>2026-04-25T12:58:04.816Z</time></trkpt><trkpt lat="34.6650121" lon="10.6783461"><ele>10.333333333333332</ele><time>2026-04-25T12:58:05.83Z</time></trkpt><trkpt lat="34.6648898" lon="10.6781671"><ele>9.666666666666666</ele><time>2026-04-25T12:58:06.835Z</time></trkpt><trkpt lat="34.6647683" lon="10.6779927"><ele>9.0</ele><time>2026-04-25T12:58:07.819Z</time></trkpt><trkpt lat="34.6646465" lon="10.6778199"><ele>8.666666666666666</ele><time>2026-04-25T12:58:08.823Z</time></trkpt><trkpt lat="34.6645249" lon="10.6776454"><ele>8.333333333333332</ele><time>2026-04-25T12:58:09.827Z</time></trkpt><trkpt lat="34.664403" lon="10.6774726"><ele>8.0</ele><time>2026-04-25T12:58:10.827Z</time></trkpt><trkpt lat="34.6642819" lon="10.6772887"><ele>8.333333333333332</ele><time>2026-04-25T12:58:11.846Z</time></trkpt><trkpt lat="34.6641601" lon="10.6771102"><ele>8.666666666666666</ele><time>2026-04-25T12:58:12.821Z</time></trkpt><trkpt lat="34.6640333" lon="10.676931"><ele>9.0</ele><time>2026-04-25T12:58:13.834Z</time></trkpt><trkpt lat="34.6639074" lon="10.6767553"><ele>9.0</ele><time>2026-04-25T12:58:14.841Z</time></trkpt><trkpt lat="34.6637845" lon="10.6765825"><ele>9.0</ele><time>2026-04-25T12:58:15.831Z</time></trkpt><trkpt lat="34.6636632" lon="10.6764074"><ele>9.0</ele><time>2026-04-25T12:58:16.825Z</time></trkpt><trkpt lat="34.6635402" lon="10.6762403"><ele>9.666666666666666</ele><time>2026-04-25T12:58:17.833Z</time></trkpt><trkpt lat="34.6634157" lon="10.6760679"><ele>10.333333333333332</ele><time>2026-04-25T12:58:18.834Z</time></trkpt><trkpt lat="34.6632908" lon="10.6759035"><ele>11.0</ele><time>2026-04-25T12:58:19.831Z</time></trkpt><trkpt lat="34.6631699" lon="10.675738"><ele>11.0</ele><time>2026-04-25T12:58:20.828Z</time></trkpt><trkpt lat="34.6630448" lon="10.6755784"><ele>11.0</ele><time>2026-04-25T12:58:21.823Z</time></trkpt><trkpt lat="34.6629114" lon="10.6754324"><ele>11.0</ele><time>2026-04-25T12:58:22.837Z</time></trkpt><trkpt lat="34.6627676" lon="10.6752891"><ele>10.666666666666666</ele><time>2026-04-25T12:58:23.812Z</time></trkpt><trkpt lat="34.6626248" lon="10.6751564"><ele>10.333333333333334</ele><time>2026-04-25T12:58:24.842Z</time></trkpt><trkpt lat="34.6624832" lon="10.6750187"><ele>10.0</ele><time>2026-04-25T12:58:25.838Z</time></trkpt><trkpt lat="34.6623388" lon="10.6748845"><ele>10.0</ele><time>2026-04-25T12:58:26.844Z</time></trkpt><trkpt lat="34.6621972" lon="10.6747536"><ele>10.0</ele><time>2026-04-25T12:58:27.821Z</time></trkpt><trkpt lat="34.6620499" lon="10.6746222"><ele>10.0</ele><time>2026-04-25T12:58:28.812Z</time></trkpt><trkpt lat="34.6619053" lon="10.6744834"><ele>9.666666666666668</ele><time>2026-04-25T12:58:29.836Z</time></trkpt><trkpt lat="34.6617639" lon="10.6743402"><ele>9.333333333333334</ele><time>2026-04-25T12:58:30.825Z</time></trkpt><trkpt lat="34.6616197" lon="10.6742015"><ele>9.0</ele><time>2026-04-25T12:58:31.836Z</time></trkpt><trkpt lat="34.6614757" lon="10.6740666"><ele>9.0</ele><time>2026-04-25T12:58:32.829Z</time></trkpt><trkpt lat="34.6613345" lon="10.6739296"><ele>9.0</ele><time>2026-04-25T12:58:33.834Z</time></trkpt><trkpt lat="34.6611944" lon="10.6737949"><ele>9.0</ele><time>2026-04-25T12:58:34.825Z</time></trkpt><trkpt lat="34.6610539" lon="10.6736613"><ele>9.333333333333334</ele><time>2026-04-25T12:58:35.835Z</time></trkpt><trkpt lat="34.6609155" lon="10.67353"><ele>9.666666666666668</ele><time>2026-04-25T12:58:36.831Z</time></trkpt><trkpt lat="34.6607716" lon="10.6733986"><ele>10.0</ele><time>2026-04-25T12:58:37.843Z</time></trkpt><trkpt lat="34.6606253" lon="10.6732654"><ele>10.0</ele><time>2026-04-25T12:58:38.826Z</time></trkpt><trkpt lat="34.6604789" lon="10.6731288"><ele>10.0</ele><time>2026-04-25T12:58:39.824Z</time></trkpt><trkpt lat="34.6603319" lon="10.6729921"><ele>10.0</ele><time>2026-04-25T12:58:40.832Z</time></trkpt><trkpt lat="34.6601848" lon="10.6728573"><ele>10.0</ele><time>2026-04-25T12:58:41.861Z</time></trkpt><trkpt lat="34.6600412" lon="10.6727145"><ele>10.0</ele><time>2026-04-25T12:58:42.838Z</time></trkpt><trkpt lat="34.6598938" lon="10.6725689"><ele>10.0</ele><time>2026-04-25T12:58:43.831Z</time></trkpt><trkpt lat="34.6597485" lon="10.672418"><ele>10.0</ele><time>2026-04-25T12:58:44.833Z</time></trkpt><trkpt lat="34.6596082" lon="10.672269"><ele>10.0</ele><time>2026-04-25T12:58:45.831Z</time></trkpt><trkpt lat="34.6594682" lon="10.6721192"><ele>10.0</ele><time>2026-04-25T12:58:46.838Z</time></trkpt><trkpt lat="34.6593344" lon="10.6719652"><ele>9.666666666666668</ele><time>2026-04-25T12:58:47.826Z</time></trkpt><trkpt lat="34.659202" lon="10.6718108"><ele>9.333333333333334</ele><time>2026-04-25T12:58:48.845Z</time></trkpt><trkpt lat="34.6590682" lon="10.6716643"><ele>9.0</ele><time>2026-04-25T12:58:49.832Z</time></trkpt><trkpt lat="34.6589372" lon="10.6715178"><ele>9.0</ele><time>2026-04-25T12:58:50.836Z</time></trkpt><trkpt lat="34.6588048" lon="10.6713736"><ele>9.0</ele><time>2026-04-25T12:58:51.836Z</time></trkpt><trkpt lat="34.6586719" lon="10.6712359"><ele>9.0</ele><time>2026-04-25T12:58:52.828Z</time></trkpt><trkpt lat="34.6585406" lon="10.6710932"><ele>9.0</ele><time>2026-04-25T12:58:53.83Z</time></trkpt><trkpt lat="34.6584155" lon="10.6709491"><ele>9.0</ele><time>2026-04-25T12:58:54.836Z</time></trkpt><trkpt lat="34.6582888" lon="10.6708047"><ele>9.0</ele><time>2026-04-25T12:58:55.84Z</time></trkpt><trkpt lat="34.65816" lon="10.6706583"><ele>9.0</ele><time>2026-04-25T12:58:56.85Z</time></trkpt><trkpt lat="34.6580334" lon="10.6705094"><ele>9.0</ele><time>2026-04-25T12:58:57.837Z</time></trkpt><trkpt lat="34.6579061" lon="10.6703663"><ele>9.0</ele><time>2026-04-25T12:58:58.825Z</time></trkpt><trkpt lat="34.6577814" lon="10.6702216"><ele>9.0</ele><time>2026-04-25T12:58:59.827Z</time></trkpt><trkpt lat="34.6576555" lon="10.6700776"><ele>9.0</ele><time>2026-04-25T12:59:00.827Z</time></trkpt><trkpt lat="34.6575285" lon="10.6699381"><ele>9.0</ele><time>2026-04-25T12:59:01.825Z</time></trkpt><trkpt lat="34.6574033" lon="10.6698016"><ele>9.0</ele><time>2026-04-25T12:59:02.832Z</time></trkpt><trkpt lat="34.6572827" lon="10.6696634"><ele>9.0</ele><time>2026-04-25T12:59:03.829Z</time></trkpt><trkpt lat="34.6571618" lon="10.6695242"><ele>9.0</ele><time>2026-04-25T12:59:04.833Z</time></trkpt><trkpt lat="34.6570381" lon="10.669383"><ele>9.0</ele><time>2026-04-25T12:59:05.838Z</time></trkpt><trkpt lat="34.6569132" lon="10.6692417"><ele>9.0</ele><time>2026-04-25T12:59:06.826Z</time></trkpt><trkpt lat="34.6567849" lon="10.6691027"><ele>9.0</ele><time>2026-04-25T12:59:07.863Z</time></trkpt><trkpt lat="34.6566566" lon="10.6689661"><ele>9.0</ele><time>2026-04-25T12:59:08.828Z</time></trkpt><trkpt lat="34.6565334" lon="10.6688262"><ele>9.0</ele><time>2026-04-25T12:59:09.829Z</time></trkpt><trkpt lat="34.6564098" lon="10.668681"><ele>9.0</ele><time>2026-04-25T12:59:10.832Z</time></trkpt><trkpt lat="34.6562862" lon="10.668538"><ele>8.666666666666666</ele><time>2026-04-25T12:59:11.844Z</time></trkpt><trkpt lat="34.6561608" lon="10.6683937"><ele>8.333333333333332</ele><time>2026-04-25T12:59:12.818Z</time></trkpt><trkpt lat="34.6560412" lon="10.6682573"><ele>8.0</ele><time>2026-04-25T12:59:13.835Z</time></trkpt><trkpt lat="34.6559249" lon="10.6681291"><ele>8.0</ele><time>2026-04-25T12:59:14.825Z</time></trkpt><trkpt lat="34.655814" lon="10.6680044"><ele>8.0</ele><time>2026-04-25T12:59:15.816Z</time></trkpt><trkpt lat="34.6557122" lon="10.6678886"><ele>8.0</ele><time>2026-04-25T12:59:16.836Z</time></trkpt><trkpt lat="34.65562" lon="10.6677825"><ele>8.0</ele><time>2026-04-25T12:59:17.832Z</time></trkpt><trkpt lat="34.6555333" lon="10.6676788"><ele>7.6000000000000005</ele><time>2026-04-25T12:59:18.82Z</time></trkpt><trkpt lat="34.6554559" lon="10.6675817"><ele>7.200000000000001</ele><time>2026-04-25T12:59:19.837Z</time></trkpt><trkpt lat="34.6553886" lon="10.6674783"><ele>6.8</ele><time>2026-04-25T12:59:20.826Z</time></trkpt><trkpt lat="34.6553415" lon="10.6673632"><ele>6.4</ele><time>2026-04-25T12:59:21.821Z</time></trkpt><trkpt lat="34.6552963" lon="10.6672468"><ele>6.0</ele><time>2026-04-25T12:59:22.823Z</time></trkpt><trkpt lat="34.6552426" lon="10.6671419"><ele>6.0</ele><time>2026-04-25T12:59:23.832Z</time></trkpt><trkpt lat="34.6551764" lon="10.6670634"><ele>6.0</ele><time>2026-04-25T12:59:24.829Z</time></trkpt><trkpt lat="34.6550854" lon="10.6670001"><ele>6.0</ele><time>2026-04-25T12:59:25.838Z</time></trkpt><trkpt lat="34.6549815" lon="10.6669414"><ele>6.0</ele><time>2026-04-25T12:59:26.83Z</time></trkpt><trkpt lat="34.6548803" lon="10.6668791"><ele>6.0</ele><time>2026-04-25T12:59:27.821Z</time></trkpt><trkpt lat="34.6547877" lon="10.6667827"><ele>6.25</ele><time>2026-04-25T12:59:28.83Z</time></trkpt><trkpt lat="34.6547006" lon="10.6666692"><ele>6.5</ele><time>2026-04-25T12:59:29.84Z</time></trkpt><trkpt lat="34.6546131" lon="10.6665326"><ele>6.75</ele><time>2026-04-25T12:59:30.829Z</time></trkpt><trkpt lat="34.6545179" lon="10.6663947"><ele>7.0</ele><time>2026-04-25T12:59:31.821Z</time></trkpt><trkpt lat="34.6544196" lon="10.6662564"><ele>7.333333333333334</ele><time>2026-04-25T12:59:32.826Z</time></trkpt><trkpt lat="34.6543155" lon="10.6661087"><ele>7.666666666666666</ele><time>2026-04-25T12:59:33.851Z</time></trkpt><trkpt lat="34.6542046" lon="10.6659441"><ele>8.0</ele><time>2026-04-25T12:59:34.828Z</time></trkpt><trkpt lat="34.654088" lon="10.6657731"><ele>8.0</ele><time>2026-04-25T12:59:35.823Z</time></trkpt><trkpt lat="34.6539676" lon="10.6655987"><ele>8.0</ele><time>2026-04-25T12:59:36.828Z</time></trkpt><trkpt lat="34.6538402" lon="10.6654168"><ele>8.0</ele><time>2026-04-25T12:59:37.825Z</time></trkpt><trkpt lat="34.6537141" lon="10.6652382"><ele>7.0</ele><time>2026-04-25T12:59:38.844Z</time></trkpt><trkpt lat="34.6535891" lon="10.6650544"><ele>6.0</ele><time>2026-04-25T12:59:39.831Z</time></trkpt><trkpt lat="34.6534643" lon="10.6648683"><ele>5.0</ele><time>2026-04-25T12:59:40.819Z</time></trkpt><trkpt lat="34.6533296" lon="10.6646858"><ele>5.0</ele><time>2026-04-25T12:59:41.829Z</time></trkpt><trkpt lat="34.6531989" lon="10.6644973"><ele>5.0</ele><time>2026-04-25T12:59:42.821Z</time></trkpt><trkpt lat="34.6530651" lon="10.6643118"><ele>5.0</ele><time>2026-04-25T12:59:43.834Z</time></trkpt><trkpt lat="34.6529282" lon="10.6641303"><ele>5.333333333333334</ele><time>2026-04-25T12:59:44.832Z</time></trkpt><trkpt lat="34.6527922" lon="10.6639531"><ele>5.666666666666667</ele><time>2026-04-25T12:59:45.829Z</time></trkpt><trkpt lat="34.6526532" lon="10.6637851"><ele>6.0</ele><time>2026-04-25T12:59:46.835Z</time></trkpt><trkpt lat="34.6525044" lon="10.6636259"><ele>6.666666666666666</ele><time>2026-04-25T12:59:47.827Z</time></trkpt><trkpt lat="34.6523483" lon="10.6634715"><ele>7.333333333333333</ele><time>2026-04-25T12:59:48.827Z</time></trkpt><trkpt lat="34.652186" lon="10.6633171"><ele>8.0</ele><time>2026-04-25T12:59:49.813Z</time></trkpt><trkpt lat="34.6520247" lon="10.6631706"><ele>8.0</ele><time>2026-04-25T12:59:50.825Z</time></trkpt><trkpt lat="34.6518471" lon="10.663024"><ele>8.0</ele><time>2026-04-25T12:59:51.823Z</time></trkpt><trkpt lat="34.6516567" lon="10.6628901"><ele>8.0</ele><time>2026-04-25T12:59:52.819Z</time></trkpt><trkpt lat="34.6514611" lon="10.6627551"><ele>7.0</ele><time>2026-04-25T12:59:53.827Z</time></trkpt><trkpt lat="34.6512593" lon="10.6626227"><ele>6.0</ele><time>2026-04-25T12:59:54.823Z</time></trkpt><trkpt lat="34.651052" lon="10.6624897"><ele>6.0</ele><time>2026-04-25T12:59:55.823Z</time></trkpt><trkpt lat="34.6508398" lon="10.6623604"><ele>6.0</ele><time>2026-04-25T12:59:56.833Z</time></trkpt><trkpt lat="34.650629" lon="10.6622367"><ele>6.0</ele><time>2026-04-25T12:59:57.826Z</time></trkpt><trkpt lat="34.650417" lon="10.6621097"><ele>6.0</ele><time>2026-04-25T12:59:58.833Z</time></trkpt><trkpt lat="34.650206" lon="10.6619854"><ele>6.0</ele><time>2026-04-25T12:59:59.836Z</time></trkpt><trkpt lat="34.649997" lon="10.661861"><ele>6.0</ele><time>2026-04-25T13:00:00.835Z</time></trkpt><trkpt lat="34.649787" lon="10.6617347"><ele>6.0</ele><time>2026-04-25T13:00:01.814Z</time></trkpt><trkpt lat="34.6495782" lon="10.6616113"><ele>6.0</ele><time>2026-04-25T13:00:02.828Z</time></trkpt><trkpt lat="34.6493719" lon="10.6614865"><ele>6.0</ele><time>2026-04-25T13:00:03.842Z</time></trkpt><trkpt lat="34.6491646" lon="10.6613588"><ele>6.0</ele><time>2026-04-25T13:00:04.823Z</time></trkpt><trkpt lat="34.6489587" lon="10.6612359"><ele>6.5</ele><time>2026-04-25T13:00:05.825Z</time></trkpt><trkpt lat="34.6487597" lon="10.6611076"><ele>7.0</ele><time>2026-04-25T13:00:06.825Z</time></trkpt><trkpt lat="34.6485629" lon="10.6609696"><ele>6.333333333333334</ele><time>2026-04-25T13:00:07.832Z</time></trkpt><trkpt lat="34.6483716" lon="10.6608246"><ele>5.666666666666667</ele><time>2026-04-25T13:00:08.833Z</time></trkpt><trkpt lat="34.6481867" lon="10.6606799"><ele>5.0</ele><time>2026-04-25T13:00:09.832Z</time></trkpt><trkpt lat="34.648004" lon="10.660531"><ele>5.0</ele><time>2026-04-25T13:00:10.831Z</time></trkpt><trkpt lat="34.6478334" lon="10.6603847"><ele>5.0</ele><time>2026-04-25T13:00:11.86Z</time></trkpt><trkpt lat="34.6476635" lon="10.6602386"><ele>5.0</ele><time>2026-04-25T13:00:12.828Z</time></trkpt><trkpt lat="34.6474934" lon="10.6600889"><ele>5.0</ele><time>2026-04-25T13:00:13.828Z</time></trkpt><trkpt lat="34.6473245" lon="10.6599343"><ele>5.0</ele><time>2026-04-25T13:00:14.827Z</time></trkpt><trkpt lat="34.6471589" lon="10.6597807"><ele>5.0</ele><time>2026-04-25T13:00:15.828Z</time></trkpt><trkpt lat="34.6469913" lon="10.6596285"><ele>4.666666666666667</ele><time>2026-04-25T13:00:16.821Z</time></trkpt><trkpt lat="34.6468236" lon="10.659475"><ele>4.333333333333333</ele><time>2026-04-25T13:00:17.837Z</time></trkpt><trkpt lat="34.6466542" lon="10.6593228"><ele>4.0</ele><time>2026-04-25T13:00:18.834Z</time></trkpt><trkpt lat="34.6464875" lon="10.6591734"><ele>4.333333333333333</ele><time>2026-04-25T13:00:19.837Z</time></trkpt><trkpt lat="34.6463187" lon="10.659018"><ele>4.666666666666667</ele><time>2026-04-25T13:00:20.827Z</time></trkpt><trkpt lat="34.6461484" lon="10.6588659"><ele>5.0</ele><time>2026-04-25T13:00:21.832Z</time></trkpt><trkpt lat="34.645976" lon="10.6587107"><ele>5.333333333333334</ele><time>2026-04-25T13:00:22.826Z</time></trkpt><trkpt lat="34.645807" lon="10.6585596"><ele>5.666666666666667</ele><time>2026-04-25T13:00:23.834Z</time></trkpt><trkpt lat="34.6456357" lon="10.6584075"><ele>6.0</ele><time>2026-04-25T13:00:24.842Z</time></trkpt><trkpt lat="34.6454655" lon="10.6582549"><ele>6.0</ele><time>2026-04-25T13:00:25.824Z</time></trkpt><trkpt lat="34.6452958" lon="10.6580993"><ele>6.0</ele><time>2026-04-25T13:00:26.831Z</time></trkpt><trkpt lat="34.645127" lon="10.6579477"><ele>6.0</ele><time>2026-04-25T13:00:27.829Z</time></trkpt><trkpt lat="34.6449552" lon="10.6577983"><ele>5.666666666666667</ele><time>2026-04-25T13:00:28.829Z</time></trkpt><trkpt lat="34.644785" lon="10.6576507"><ele>5.333333333333334</ele><time>2026-04-25T13:00:29.818Z</time></trkpt><trkpt lat="34.6446093" lon="10.6574974"><ele>5.0</ele><time>2026-04-25T13:00:30.813Z</time></trkpt><trkpt lat="34.6444371" lon="10.6573462"><ele>4.666666666666667</ele><time>2026-04-25T13:00:31.831Z</time></trkpt><trkpt lat="34.6442618" lon="10.6571966"><ele>4.333333333333333</ele><time>2026-04-25T13:00:32.817Z</time></trkpt><trkpt lat="34.6440899" lon="10.6570479"><ele>4.0</ele><time>2026-04-25T13:00:33.821Z</time></trkpt><trkpt lat="34.6439171" lon="10.6568968"><ele>4.0</ele><time>2026-04-25T13:00:34.829Z</time></trkpt><trkpt lat="34.6437428" lon="10.6567456"><ele>4.0</ele><time>2026-04-25T13:00:35.822Z</time></trkpt><trkpt lat="34.6435706" lon="10.6565976"><ele>4.0</ele><time>2026-04-25T13:00:36.827Z</time></trkpt><trkpt lat="34.6433973" lon="10.6564466"><ele>4.333333333333333</ele><time>2026-04-25T13:00:37.82Z</time></trkpt><trkpt lat="34.6432241" lon="10.6562996"><ele>4.666666666666667</ele><time>2026-04-25T13:00:38.817Z</time></trkpt><trkpt lat="34.6430536" lon="10.6561496"><ele>5.0</ele><time>2026-04-25T13:00:39.83Z</time></trkpt><trkpt lat="34.6428855" lon="10.6559921"><ele>5.0</ele><time>2026-04-25T13:00:40.832Z</time></trkpt><trkpt lat="34.6427184" lon="10.6558407"><ele>5.0</ele><time>2026-04-25T13:00:41.837Z</time></trkpt><trkpt lat="34.6425522" lon="10.6556865"><ele>5.0</ele><time>2026-04-25T13:00:42.821Z</time></trkpt><trkpt lat="34.6423872" lon="10.6555253"><ele>5.0</ele><time>2026-04-25T13:00:43.822Z</time></trkpt><trkpt lat="34.6422159" lon="10.6553584"><ele>5.0</ele><time>2026-04-25T13:00:44.818Z</time></trkpt><trkpt lat="34.6420395" lon="10.6551814"><ele>5.0</ele><time>2026-04-25T13:00:45.817Z</time></trkpt><trkpt lat="34.6418607" lon="10.655"><ele>5.0</ele><time>2026-04-25T13:00:46.827Z</time></trkpt><trkpt lat="34.6416824" lon="10.6548133"><ele>5.0</ele><time>2026-04-25T13:00:47.825Z</time></trkpt><trkpt lat="34.6415031" lon="10.6546249"><ele>5.0</ele><time>2026-04-25T13:00:48.822Z</time></trkpt><trkpt lat="34.6413303" lon="10.6544385"><ele>5.0</ele><time>2026-04-25T13:00:49.815Z</time></trkpt><trkpt lat="34.641156" lon="10.6542514"><ele>4.0</ele><time>2026-04-25T13:00:50.825Z</time></trkpt><trkpt lat="34.6409799" lon="10.6540529"><ele>3.0</ele><time>2026-04-25T13:00:51.816Z</time></trkpt><trkpt lat="34.6408036" lon="10.653854"><ele>3.0</ele><time>2026-04-25T13:00:52.821Z</time></trkpt><trkpt lat="34.6406264" lon="10.6536469"><ele>3.0</ele><time>2026-04-25T13:00:53.83Z</time></trkpt><trkpt lat="34.6404447" lon="10.6534458"><ele>2.5</ele><time>2026-04-25T13:00:54.819Z</time></trkpt><trkpt lat="34.6402628" lon="10.6532407"><ele>2.0</ele><time>2026-04-25T13:00:55.828Z</time></trkpt><trkpt lat="34.6400815" lon="10.6530331"><ele>2.0</ele><time>2026-04-25T13:00:56.835Z</time></trkpt><trkpt lat="34.6399066" lon="10.652823"><ele>2.0</ele><time>2026-04-25T13:00:57.822Z</time></trkpt><trkpt lat="34.6397269" lon="10.6526099"><ele>2.5</ele><time>2026-04-25T13:00:58.826Z</time></trkpt><trkpt lat="34.6395522" lon="10.652407"><ele>3.0</ele><time>2026-04-25T13:00:59.826Z</time></trkpt><trkpt lat="34.6393796" lon="10.6522045"><ele>2.5</ele><time>2026-04-25T13:01:00.836Z</time></trkpt><trkpt lat="34.6392034" lon="10.6520021"><ele>2.0</ele><time>2026-04-25T13:01:01.831Z</time></trkpt><trkpt lat="34.6390295" lon="10.6518032"><ele>2.0</ele><time>2026-04-25T13:01:02.833Z</time></trkpt><trkpt lat="34.6388553" lon="10.6516044"><ele>2.0</ele><time>2026-04-25T13:01:03.83Z</time></trkpt><trkpt lat="34.6386802" lon="10.6514001"><ele>1.5</ele><time>2026-04-25T13:01:04.829Z</time></trkpt><trkpt lat="34.6385024" lon="10.6511992"><ele>1.0</ele><time>2026-04-25T13:01:05.829Z</time></trkpt><trkpt lat="34.6383241" lon="10.6509952"><ele>2.0</ele><time>2026-04-25T13:01:06.829Z</time></trkpt><trkpt lat="34.6381458" lon="10.6507868"><ele>3.0</ele><time>2026-04-25T13:01:07.825Z</time></trkpt><trkpt lat="34.6379725" lon="10.6505789"><ele>2.0</ele><time>2026-04-25T13:01:08.828Z</time></trkpt><trkpt lat="34.6377935" lon="10.6503684"><ele>1.0</ele><time>2026-04-25T13:01:09.825Z</time></trkpt><trkpt lat="34.6376202" lon="10.6501596"><ele>1.0</ele><time>2026-04-25T13:01:10.819Z</time></trkpt><trkpt lat="34.637443" lon="10.6499487"><ele>1.0</ele><time>2026-04-25T13:01:11.815Z</time></trkpt><trkpt lat="34.637272" lon="10.6497504"><ele>1.0</ele><time>2026-04-25T13:01:12.834Z</time></trkpt><trkpt lat="34.6370979" lon="10.6495479"><ele>1.0</ele><time>2026-04-25T13:01:13.824Z</time></trkpt><trkpt lat="34.6369216" lon="10.649345"><ele>0.0</ele><time>2026-04-25T13:01:14.835Z</time></trkpt><trkpt lat="34.6367415" lon="10.6491406"><ele>-1.0</ele><time>2026-04-25T13:01:15.823Z</time></trkpt><trkpt lat="34.6365598" lon="10.6489351"><ele>-1.0</ele><time>2026-04-25T13:01:16.829Z</time></trkpt><trkpt lat="34.6363807" lon="10.648737"><ele>-1.0</ele><time>2026-04-25T13:01:17.82Z</time></trkpt><trkpt lat="34.6362031" lon="10.6485456"><ele>-1.0</ele><time>2026-04-25T13:01:18.826Z</time></trkpt><trkpt lat="34.6360349" lon="10.6483662"><ele>-1.0</ele><time>2026-04-25T13:01:19.827Z</time></trkpt><trkpt lat="34.6358771" lon="10.6481996"><ele>-1.0</ele><time>2026-04-25T13:01:20.83Z</time></trkpt><trkpt lat="34.6357361" lon="10.6480504"><ele>-1.0</ele><time>2026-04-25T13:01:21.826Z</time></trkpt><trkpt lat="34.6356086" lon="10.6479188"><ele>-1.0</ele><time>2026-04-25T13:01:22.834Z</time></trkpt><trkpt lat="34.6354915" lon="10.6477957"><ele>-1.0</ele><time>2026-04-25T13:01:23.836Z</time></trkpt><trkpt lat="34.63538" lon="10.6476819"><ele>-0.75</ele><time>2026-04-25T13:01:24.837Z</time></trkpt><trkpt lat="34.6352767" lon="10.6475756"><ele>-0.5</ele><time>2026-04-25T13:01:25.834Z</time></trkpt><trkpt lat="34.6351848" lon="10.6474782"><ele>-0.25</ele><time>2026-04-25T13:01:26.813Z</time></trkpt><trkpt lat="34.6350935" lon="10.6473846"><ele>0.0</ele><time>2026-04-25T13:01:27.819Z</time></trkpt><trkpt lat="34.6350026" lon="10.6472905"><ele>0.0</ele><time>2026-04-25T13:01:28.829Z</time></trkpt><trkpt lat="34.6349022" lon="10.6471867"><ele>0.0</ele><time>2026-04-25T13:01:29.816Z</time></trkpt><trkpt lat="34.6347961" lon="10.6470793"><ele>0.0</ele><time>2026-04-25T13:01:30.823Z</time></trkpt><trkpt lat="34.6346827" lon="10.6469555"><ele>0.0</ele><time>2026-04-25T13:01:31.826Z</time></trkpt><trkpt lat="34.6345621" lon="10.6468276"><ele>0.0</ele><time>2026-04-25T13:01:32.822Z</time></trkpt><trkpt lat="34.6344312" lon="10.646683"><ele>0.0</ele><time>2026-04-25T13:01:33.83Z</time></trkpt><trkpt lat="34.6342823" lon="10.6465225"><ele>0.0</ele><time>2026-04-25T13:01:34.84Z</time></trkpt><trkpt lat="34.6341303" lon="10.646356"><ele>0.0</ele><time>2026-04-25T13:01:35.826Z</time></trkpt><trkpt lat="34.6339822" lon="10.6461979"><ele>0.0</ele><time>2026-04-25T13:01:36.829Z</time></trkpt><trkpt lat="34.6338506" lon="10.6460586"><ele>0.0</ele><time>2026-04-25T13:01:37.818Z</time></trkpt><trkpt lat="34.6337324" lon="10.6459312"><ele>0.6666666666666666</ele><time>2026-04-25T13:01:38.83Z</time></trkpt><trkpt lat="34.6336088" lon="10.6458046"><ele>1.3333333333333333</ele><time>2026-04-25T13:01:39.814Z</time></trkpt><trkpt lat="34.633479" lon="10.6456755"><ele>2.0</ele><time>2026-04-25T13:01:40.828Z</time></trkpt><trkpt lat="34.6333464" lon="10.6455375"><ele>2.0</ele><time>2026-04-25T13:01:41.877Z</time></trkpt><trkpt lat="34.6332118" lon="10.6453953"><ele>2.0</ele><time>2026-04-25T13:01:42.821Z</time></trkpt><trkpt lat="34.633077" lon="10.6452542"><ele>2.0</ele><time>2026-04-25T13:01:43.823Z</time></trkpt><trkpt lat="34.632945" lon="10.6451097"><ele>2.0</ele><time>2026-04-25T13:01:44.825Z</time></trkpt><trkpt lat="34.6328099" lon="10.6449579"><ele>2.0</ele><time>2026-04-25T13:01:45.805Z</time></trkpt><trkpt lat="34.6326657" lon="10.6448105"><ele>2.0</ele><time>2026-04-25T13:01:46.82Z</time></trkpt><trkpt lat="34.632519" lon="10.6446635"><ele>2.0</ele><time>2026-04-25T13:01:47.826Z</time></trkpt><trkpt lat="34.6323707" lon="10.6445126"><ele>2.0</ele><time>2026-04-25T13:01:48.823Z</time></trkpt><trkpt lat="34.6322233" lon="10.6443616"><ele>2.0</ele><time>2026-04-25T13:01:49.833Z</time></trkpt><trkpt lat="34.632074" lon="10.6442031"><ele>1.6666666666666665</ele><time>2026-04-25T13:01:50.825Z</time></trkpt><trkpt lat="34.6319221" lon="10.6440432"><ele>1.3333333333333333</ele><time>2026-04-25T13:01:51.829Z</time></trkpt><trkpt lat="34.631772" lon="10.6438796"><ele>1.0</ele><time>2026-04-25T13:01:52.814Z</time></trkpt><trkpt lat="34.6316137" lon="10.6437145"><ele>1.3333333333333333</ele><time>2026-04-25T13:01:53.82Z</time></trkpt><trkpt lat="34.6314583" lon="10.6435509"><ele>1.6666666666666665</ele><time>2026-04-25T13:01:54.824Z</time></trkpt><trkpt lat="34.6313023" lon="10.6433799"><ele>2.0</ele><time>2026-04-25T13:01:55.821Z</time></trkpt><trkpt lat="34.6311418" lon="10.6432029"><ele>1.5</ele><time>2026-04-25T13:01:56.861Z</time></trkpt><trkpt lat="34.6309612" lon="10.6430169"><ele>1.0</ele><time>2026-04-25T13:01:57.825Z</time></trkpt><trkpt lat="34.630771" lon="10.642819"><ele>1.5</ele><time>2026-04-25T13:01:58.833Z</time></trkpt><trkpt lat="34.6305717" lon="10.6426113"><ele>2.0</ele><time>2026-04-25T13:01:59.824Z</time></trkpt><trkpt lat="34.6303726" lon="10.6424033"><ele>1.0</ele><time>2026-04-25T13:02:00.82Z</time></trkpt><trkpt lat="34.6301706" lon="10.6421929"><ele>0.0</ele><time>2026-04-25T13:02:01.828Z</time></trkpt><trkpt lat="34.6299662" lon="10.6419781"><ele>0.5</ele><time>2026-04-25T13:02:02.823Z</time></trkpt><trkpt lat="34.6297625" lon="10.6417594"><ele>1.0</ele><time>2026-04-25T13:02:03.83Z</time></trkpt><trkpt lat="34.6295606" lon="10.6415369"><ele>1.0</ele><time>2026-04-25T13:02:04.829Z</time></trkpt><trkpt lat="34.6293583" lon="10.6413148"><ele>1.0</ele><time>2026-04-25T13:02:05.823Z</time></trkpt><trkpt lat="34.629159" lon="10.6411033"><ele>1.5</ele><time>2026-04-25T13:02:06.825Z</time></trkpt><trkpt lat="34.6289564" lon="10.6408934"><ele>2.0</ele><time>2026-04-25T13:02:07.828Z</time></trkpt><trkpt lat="34.6287554" lon="10.6406812"><ele>1.5</ele><time>2026-04-25T13:02:08.819Z</time></trkpt><trkpt lat="34.6285535" lon="10.6404764"><ele>1.0</ele><time>2026-04-25T13:02:09.813Z</time></trkpt><trkpt lat="34.6283571" lon="10.6402664"><ele>2.0</ele><time>2026-04-25T13:02:10.824Z</time></trkpt><trkpt lat="34.6281581" lon="10.6400594"><ele>3.0</ele><time>2026-04-25T13:02:11.853Z</time></trkpt><trkpt lat="34.6279629" lon="10.6398533"><ele>3.0</ele><time>2026-04-25T13:02:12.821Z</time></trkpt><trkpt lat="34.627773" lon="10.6396466"><ele>3.0</ele><time>2026-04-25T13:02:13.813Z</time></trkpt><trkpt lat="34.6275798" lon="10.6394369"><ele>3.0</ele><time>2026-04-25T13:02:14.814Z</time></trkpt><trkpt lat="34.6273895" lon="10.6392288"><ele>3.0</ele><time>2026-04-25T13:02:15.821Z</time></trkpt><trkpt lat="34.6271954" lon="10.6390197"><ele>3.0</ele><time>2026-04-25T13:02:16.827Z</time></trkpt><trkpt lat="34.6270066" lon="10.6388148"><ele>3.0</ele><time>2026-04-25T13:02:17.826Z</time></trkpt><trkpt lat="34.6268267" lon="10.6385993"><ele>2.5</ele><time>2026-04-25T13:02:18.817Z</time></trkpt><trkpt lat="34.6266554" lon="10.6383791"><ele>2.0</ele><time>2026-04-25T13:02:19.817Z</time></trkpt><trkpt lat="34.6264894" lon="10.6381605"><ele>2.0</ele><time>2026-04-25T13:02:20.817Z</time></trkpt><trkpt lat="34.6263327" lon="10.6379419"><ele>2.0</ele><time>2026-04-25T13:02:21.813Z</time></trkpt><trkpt lat="34.6261771" lon="10.6377174"><ele>1.5</ele><time>2026-04-25T13:02:22.825Z</time></trkpt><trkpt lat="34.6260313" lon="10.6374816"><ele>1.0</ele><time>2026-04-25T13:02:23.813Z</time></trkpt><trkpt lat="34.6258897" lon="10.6372367"><ele>1.0</ele><time>2026-04-25T13:02:24.819Z</time></trkpt><trkpt lat="34.6257518" lon="10.6369902"><ele>1.0</ele><time>2026-04-25T13:02:25.824Z</time></trkpt><trkpt lat="34.6256122" lon="10.6367365"><ele>2.0</ele><time>2026-04-25T13:02:26.866Z</time></trkpt><trkpt lat="34.6254709" lon="10.6364858"><ele>3.0</ele><time>2026-04-25T13:02:27.818Z</time></trkpt><trkpt lat="34.6253216" lon="10.6362443"><ele>2.5</ele><time>2026-04-25T13:02:28.817Z</time></trkpt><trkpt lat="34.6251702" lon="10.6360016"><ele>2.0</ele><time>2026-04-25T13:02:29.818Z</time></trkpt><trkpt lat="34.6250245" lon="10.6357642"><ele>2.0</ele><time>2026-04-25T13:02:30.834Z</time></trkpt><trkpt lat="34.624876" lon="10.6355207"><ele>2.0</ele><time>2026-04-25T13:02:31.82Z</time></trkpt><trkpt lat="34.6247262" lon="10.6352776"><ele>2.0</ele><time>2026-04-25T13:02:32.817Z</time></trkpt><trkpt lat="34.6245758" lon="10.6350331"><ele>2.0</ele><time>2026-04-25T13:02:33.821Z</time></trkpt><trkpt lat="34.624424" lon="10.6347897"><ele>2.5</ele><time>2026-04-25T13:02:34.82Z</time></trkpt><trkpt lat="34.6242723" lon="10.6345452"><ele>3.0</ele><time>2026-04-25T13:02:35.82Z</time></trkpt><trkpt lat="34.6241208" lon="10.6342983"><ele>3.0</ele><time>2026-04-25T13:02:36.815Z</time></trkpt><trkpt lat="34.6239774" lon="10.6340548"><ele>3.0</ele><time>2026-04-25T13:02:37.818Z</time></trkpt><trkpt lat="34.6238294" lon="10.6338134"><ele>2.5</ele><time>2026-04-25T13:02:38.814Z</time></trkpt><trkpt lat="34.62368" lon="10.6335695"><ele>2.0</ele><time>2026-04-25T13:02:39.834Z</time></trkpt><trkpt lat="34.6235334" lon="10.6333338"><ele>2.0</ele><time>2026-04-25T13:02:40.827Z</time></trkpt><trkpt lat="34.6233871" lon="10.6330949"><ele>2.0</ele><time>2026-04-25T13:02:41.858Z</time></trkpt><trkpt lat="34.6232376" lon="10.6328518"><ele>2.5</ele><time>2026-04-25T13:02:42.814Z</time></trkpt><trkpt lat="34.6230913" lon="10.632612"><ele>3.0</ele><time>2026-04-25T13:02:43.807Z</time></trkpt><trkpt lat="34.6229476" lon="10.6323732"><ele>3.0</ele><time>2026-04-25T13:02:44.816Z</time></trkpt><trkpt lat="34.6228031" lon="10.6321346"><ele>3.0</ele><time>2026-04-25T13:02:45.815Z</time></trkpt><trkpt lat="34.6226604" lon="10.6318958"><ele>3.0</ele><time>2026-04-25T13:02:46.825Z</time></trkpt><trkpt lat="34.6225159" lon="10.631658"><ele>3.0</ele><time>2026-04-25T13:02:47.823Z</time></trkpt><trkpt lat="34.622372" lon="10.6314207"><ele>3.0</ele><time>2026-04-25T13:02:48.818Z</time></trkpt><trkpt lat="34.6222351" lon="10.6311844"><ele>3.0</ele><time>2026-04-25T13:02:49.82Z</time></trkpt><trkpt lat="34.6220953" lon="10.6309514"><ele>2.5</ele><time>2026-04-25T13:02:50.822Z</time></trkpt><trkpt lat="34.6219559" lon="10.6307178"><ele>2.0</ele><time>2026-04-25T13:02:51.821Z</time></trkpt><trkpt lat="34.6218134" lon="10.630491"><ele>2.5</ele><time>2026-04-25T13:02:52.827Z</time></trkpt><trkpt lat="34.6216726" lon="10.630267"><ele>3.0</ele><time>2026-04-25T13:02:53.818Z</time></trkpt><trkpt lat="34.621529" lon="10.630048"><ele>3.0</ele><time>2026-04-25T13:02:54.821Z</time></trkpt><trkpt lat="34.6213889" lon="10.629833"><ele>3.0</ele><time>2026-04-25T13:02:55.828Z</time></trkpt><trkpt lat="34.6212519" lon="10.629621"><ele>3.0</ele><time>2026-04-25T13:02:56.842Z</time></trkpt><trkpt lat="34.6211193" lon="10.62941"><ele>3.0</ele><time>2026-04-25T13:02:57.827Z</time></trkpt><trkpt lat="34.6209885" lon="10.6291951"><ele>3.0</ele><time>2026-04-25T13:02:58.824Z</time></trkpt><trkpt lat="34.6208582" lon="10.6289821"><ele>3.0</ele><time>2026-04-25T13:02:59.826Z</time></trkpt><trkpt lat="34.6207279" lon="10.6287709"><ele>2.6666666666666665</ele><time>2026-04-25T13:03:00.821Z</time></trkpt><trkpt lat="34.6206002" lon="10.628553"><ele>2.333333333333333</ele><time>2026-04-25T13:03:01.815Z</time></trkpt><trkpt lat="34.6204683" lon="10.6283344"><ele>2.0</ele><time>2026-04-25T13:03:02.814Z</time></trkpt><trkpt lat="34.6203363" lon="10.6281108"><ele>2.5</ele><time>2026-04-25T13:03:03.824Z</time></trkpt><trkpt lat="34.6202028" lon="10.6278882"><ele>3.0</ele><time>2026-04-25T13:03:04.822Z</time></trkpt><trkpt lat="34.6200657" lon="10.6276661"><ele>3.0</ele><time>2026-04-25T13:03:05.831Z</time></trkpt><trkpt lat="34.6199293" lon="10.6274446"><ele>3.0</ele><time>2026-04-25T13:03:06.82Z</time></trkpt><trkpt lat="34.619791" lon="10.6272216"><ele>3.0</ele><time>2026-04-25T13:03:07.821Z</time></trkpt><trkpt lat="34.6196533" lon="10.626998"><ele>3.0</ele><time>2026-04-25T13:03:08.809Z</time></trkpt><trkpt lat="34.6195172" lon="10.6267716"><ele>2.5</ele><time>2026-04-25T13:03:09.827Z</time></trkpt><trkpt lat="34.619379" lon="10.6265452"><ele>2.0</ele><time>2026-04-25T13:03:10.82Z</time></trkpt><trkpt lat="34.6192377" lon="10.6263196"><ele>2.5</ele><time>2026-04-25T13:03:11.842Z</time></trkpt><trkpt lat="34.6190996" lon="10.6260887"><ele>3.0</ele><time>2026-04-25T13:03:12.814Z</time></trkpt><trkpt lat="34.6189562" lon="10.6258592"><ele>3.0</ele><time>2026-04-25T13:03:13.826Z</time></trkpt><trkpt lat="34.6188175" lon="10.6256252"><ele>3.0</ele><time>2026-04-25T13:03:14.815Z</time></trkpt><trkpt lat="34.6186873" lon="10.6253877"><ele>3.0</ele><time>2026-04-25T13:03:15.815Z</time></trkpt><trkpt lat="34.6185565" lon="10.625151"><ele>3.0</ele><time>2026-04-25T13:03:16.816Z</time></trkpt><trkpt lat="34.6184288" lon="10.6249304"><ele>3.0</ele><time>2026-04-25T13:03:17.821Z</time></trkpt><trkpt lat="34.6183005" lon="10.6247087"><ele>3.0</ele><time>2026-04-25T13:03:18.823Z</time></trkpt><trkpt lat="34.6181696" lon="10.624497"><ele>3.0</ele><time>2026-04-25T13:03:19.82Z</time></trkpt><trkpt lat="34.6180383" lon="10.6242897"><ele>3.333333333333333</ele><time>2026-04-25T13:03:20.817Z</time></trkpt><trkpt lat="34.6179091" lon="10.6240825"><ele>3.6666666666666665</ele><time>2026-04-25T13:03:21.82Z</time></trkpt><trkpt lat="34.6177874" lon="10.6238826"><ele>4.0</ele><time>2026-04-25T13:03:22.812Z</time></trkpt><trkpt lat="34.6176719" lon="10.6236956"><ele>4.0</ele><time>2026-04-25T13:03:23.819Z</time></trkpt><trkpt lat="34.6175579" lon="10.6235148"><ele>4.0</ele><time>2026-04-25T13:03:24.829Z</time></trkpt><trkpt lat="34.6174495" lon="10.6233537"><ele>4.0</ele><time>2026-04-25T13:03:25.817Z</time></trkpt><trkpt lat="34.6173486" lon="10.6232097"><ele>4.0</ele><time>2026-04-25T13:03:26.868Z</time></trkpt><trkpt lat="34.6172523" lon="10.623082"><ele>4.0</ele><time>2026-04-25T13:03:27.82Z</time></trkpt><trkpt lat="34.6171605" lon="10.6229644"><ele>4.0</ele><time>2026-04-25T13:03:28.83Z</time></trkpt><trkpt lat="34.6170729" lon="10.6228555"><ele>4.0</ele><time>2026-04-25T13:03:29.834Z</time></trkpt><trkpt lat="34.6169951" lon="10.6227523"><ele>3.75</ele><time>2026-04-25T13:03:30.84Z</time></trkpt><trkpt lat="34.6169209" lon="10.622652"><ele>3.5</ele><time>2026-04-25T13:03:31.821Z</time></trkpt><trkpt lat="34.6168415" lon="10.6225381"><ele>3.25</ele><time>2026-04-25T13:03:32.816Z</time></trkpt><trkpt lat="34.616758" lon="10.6224039"><ele>3.0</ele><time>2026-04-25T13:03:33.83Z</time></trkpt><trkpt lat="34.6166801" lon="10.6222472"><ele>3.0</ele><time>2026-04-25T13:03:34.829Z</time></trkpt><trkpt lat="34.6166058" lon="10.6220675"><ele>3.0</ele><time>2026-04-25T13:03:35.834Z</time></trkpt><trkpt lat="34.6165334" lon="10.6218859"><ele>3.0</ele><time>2026-04-25T13:03:36.816Z</time></trkpt><trkpt lat="34.616458" lon="10.6217003"><ele>3.666666666666667</ele><time>2026-04-25T13:03:37.827Z</time></trkpt><trkpt lat="34.6163667" lon="10.621514"><ele>4.333333333333334</ele><time>2026-04-25T13:03:38.822Z</time></trkpt><trkpt lat="34.6162606" lon="10.6213242"><ele>5.0</ele><time>2026-04-25T13:03:39.814Z</time></trkpt><trkpt lat="34.6161507" lon="10.6211316"><ele>5.0</ele><time>2026-04-25T13:03:40.823Z</time></trkpt><trkpt lat="34.616023" lon="10.6209323"><ele>5.0</ele><time>2026-04-25T13:03:41.822Z</time></trkpt><trkpt lat="34.6158954" lon="10.6207288"><ele>5.0</ele><time>2026-04-25T13:03:42.814Z</time></trkpt><trkpt lat="34.615764" lon="10.6205238"><ele>5.0</ele><time>2026-04-25T13:03:43.82Z</time></trkpt><trkpt lat="34.6156334" lon="10.6203166"><ele>5.0</ele><time>2026-04-25T13:03:44.829Z</time></trkpt><trkpt lat="34.6154919" lon="10.6201135"><ele>5.0</ele><time>2026-04-25T13:03:45.816Z</time></trkpt><trkpt lat="34.6153524" lon="10.6199065"><ele>5.333333333333334</ele><time>2026-04-25T13:03:46.824Z</time></trkpt><trkpt lat="34.6152081" lon="10.6197006"><ele>5.666666666666667</ele><time>2026-04-25T13:03:47.821Z</time></trkpt><trkpt lat="34.6150625" lon="10.619496"><ele>6.0</ele><time>2026-04-25T13:03:48.819Z</time></trkpt><trkpt lat="34.6149117" lon="10.6192923"><ele>6.333333333333334</ele><time>2026-04-25T13:03:49.833Z</time></trkpt><trkpt lat="34.6147618" lon="10.6190921"><ele>6.666666666666667</ele><time>2026-04-25T13:03:50.826Z</time></trkpt><trkpt lat="34.6146089" lon="10.618899"><ele>7.0</ele><time>2026-04-25T13:03:51.804Z</time></trkpt><trkpt lat="34.6144559" lon="10.6187025"><ele>6.333333333333334</ele><time>2026-04-25T13:03:52.825Z</time></trkpt><trkpt lat="34.614308" lon="10.6185124"><ele>5.666666666666667</ele><time>2026-04-25T13:03:53.824Z</time></trkpt><trkpt lat="34.6141587" lon="10.6183228"><ele>5.0</ele><time>2026-04-25T13:03:54.817Z</time></trkpt><trkpt lat="34.6140068" lon="10.6181338"><ele>5.0</ele><time>2026-04-25T13:03:55.812Z</time></trkpt><trkpt lat="34.6138579" lon="10.6179503"><ele>5.0</ele><time>2026-04-25T13:03:56.839Z</time></trkpt><trkpt lat="34.6137007" lon="10.6177696"><ele>5.0</ele><time>2026-04-25T13:03:57.83Z</time></trkpt><trkpt lat="34.6135429" lon="10.6175868"><ele>5.333333333333334</ele><time>2026-04-25T13:03:58.827Z</time></trkpt><trkpt lat="34.6133862" lon="10.6174067"><ele>5.666666666666667</ele><time>2026-04-25T13:03:59.832Z</time></trkpt><trkpt lat="34.6132234" lon="10.6172293"><ele>6.0</ele><time>2026-04-25T13:04:00.817Z</time></trkpt><trkpt lat="34.6130598" lon="10.6170547"><ele>6.0</ele><time>2026-04-25T13:04:01.831Z</time></trkpt><trkpt lat="34.612892" lon="10.6168793"><ele>6.0</ele><time>2026-04-25T13:04:02.827Z</time></trkpt><trkpt lat="34.6127263" lon="10.6167031"><ele>6.0</ele><time>2026-04-25T13:04:03.824Z</time></trkpt><trkpt lat="34.6125578" lon="10.6165275"><ele>6.0</ele><time>2026-04-25T13:04:04.825Z</time></trkpt><trkpt lat="34.6123811" lon="10.6163507"><ele>6.0</ele><time>2026-04-25T13:04:05.821Z</time></trkpt><trkpt lat="34.6122059" lon="10.6161801"><ele>6.5</ele><time>2026-04-25T13:04:06.807Z</time></trkpt><trkpt lat="34.6120259" lon="10.6160115"><ele>7.0</ele><time>2026-04-25T13:04:07.818Z</time></trkpt><trkpt lat="34.6118427" lon="10.6158484"><ele>7.5</ele><time>2026-04-25T13:04:08.836Z</time></trkpt><trkpt lat="34.6116596" lon="10.6156827"><ele>8.0</ele><time>2026-04-25T13:04:09.814Z</time></trkpt><trkpt lat="34.6114744" lon="10.6155194"><ele>8.0</ele><time>2026-04-25T13:04:10.819Z</time></trkpt><trkpt lat="34.6113001" lon="10.6153624"><ele>8.0</ele><time>2026-04-25T13:04:11.855Z</time></trkpt><trkpt lat="34.611139" lon="10.6152087"><ele>8.0</ele><time>2026-04-25T13:04:12.834Z</time></trkpt><trkpt lat="34.6109877" lon="10.6150671"><ele>7.666666666666666</ele><time>2026-04-25T13:04:13.826Z</time></trkpt><trkpt lat="34.6108497" lon="10.6149252"><ele>7.333333333333334</ele><time>2026-04-25T13:04:14.818Z</time></trkpt><trkpt lat="34.6107197" lon="10.6147933"><ele>7.0</ele><time>2026-04-25T13:04:15.819Z</time></trkpt><trkpt lat="34.6106021" lon="10.6146716"><ele>7.0</ele><time>2026-04-25T13:04:16.818Z</time></trkpt><trkpt lat="34.6104935" lon="10.6145634"><ele>7.0</ele><time>2026-04-25T13:04:17.823Z</time></trkpt><trkpt lat="34.6103928" lon="10.6144517"><ele>7.0</ele><time>2026-04-25T13:04:18.824Z</time></trkpt><trkpt lat="34.6103111" lon="10.6143392"><ele>7.0</ele><time>2026-04-25T13:04:19.826Z</time></trkpt><trkpt lat="34.610246" lon="10.6142253"><ele>7.0</ele><time>2026-04-25T13:04:20.824Z</time></trkpt><trkpt lat="34.6101845" lon="10.6141119"><ele>6.999999999999999</ele><time>2026-04-25T13:04:21.826Z</time></trkpt><trkpt lat="34.6101107" lon="10.6140104"><ele>6.999999999999999</ele><time>2026-04-25T13:04:22.825Z</time></trkpt><trkpt lat="34.6100228" lon="10.6139466"><ele>7.0</ele><time>2026-04-25T13:04:23.816Z</time></trkpt><trkpt lat="34.6099154" lon="10.6139047"><ele>7.0</ele><time>2026-04-25T13:04:24.835Z</time></trkpt><trkpt lat="34.6097936" lon="10.6138661"><ele>7.0</ele><time>2026-04-25T13:04:25.827Z</time></trkpt><trkpt lat="34.6096674" lon="10.6137962"><ele>7.0</ele><time>2026-04-25T13:04:26.864Z</time></trkpt><trkpt lat="34.60953" lon="10.613704"><ele>7.0</ele><time>2026-04-25T13:04:27.828Z</time></trkpt><trkpt lat="34.6093809" lon="10.613596"><ele>7.333333333333334</ele><time>2026-04-25T13:04:28.827Z</time></trkpt><trkpt lat="34.6092193" lon="10.613462"><ele>7.666666666666666</ele><time>2026-04-25T13:04:29.819Z</time></trkpt><trkpt lat="34.6090568" lon="10.6133267"><ele>8.0</ele><time>2026-04-25T13:04:30.821Z</time></trkpt><trkpt lat="34.6088835" lon="10.6131661"><ele>8.0</ele><time>2026-04-25T13:04:31.819Z</time></trkpt><trkpt lat="34.608701" lon="10.612989"><ele>8.0</ele><time>2026-04-25T13:04:32.824Z</time></trkpt><trkpt lat="34.6085129" lon="10.6128061"><ele>8.0</ele><time>2026-04-25T13:04:33.82Z</time></trkpt><trkpt lat="34.6083285" lon="10.6126287"><ele>8.0</ele><time>2026-04-25T13:04:34.824Z</time></trkpt><trkpt lat="34.608141" lon="10.6124537"><ele>8.0</ele><time>2026-04-25T13:04:35.824Z</time></trkpt><trkpt lat="34.6079527" lon="10.6122813"><ele>8.0</ele><time>2026-04-25T13:04:36.819Z</time></trkpt><trkpt lat="34.6077654" lon="10.6121114"><ele>7.5</ele><time>2026-04-25T13:04:37.821Z</time></trkpt><trkpt lat="34.6075803" lon="10.6119465"><ele>7.0</ele><time>2026-04-25T13:04:38.824Z</time></trkpt><trkpt lat="34.6073975" lon="10.6117814"><ele>7.0</ele><time>2026-04-25T13:04:39.829Z</time></trkpt><trkpt lat="34.6072183" lon="10.6116196"><ele>7.0</ele><time>2026-04-25T13:04:40.824Z</time></trkpt><trkpt lat="34.6070383" lon="10.6114595"><ele>7.0</ele><time>2026-04-25T13:04:41.876Z</time></trkpt><trkpt lat="34.6068619" lon="10.6112991"><ele>7.0</ele><time>2026-04-25T13:04:42.813Z</time></trkpt><trkpt lat="34.606688" lon="10.6111415"><ele>7.0</ele><time>2026-04-25T13:04:43.817Z</time></trkpt><trkpt lat="34.6065146" lon="10.6109833"><ele>7.0</ele><time>2026-04-25T13:04:44.826Z</time></trkpt><trkpt lat="34.6063413" lon="10.6108262"><ele>7.0</ele><time>2026-04-25T13:04:45.828Z</time></trkpt><trkpt lat="34.6061705" lon="10.6106674"><ele>7.0</ele><time>2026-04-25T13:04:46.817Z</time></trkpt><trkpt lat="34.6060008" lon="10.6105111"><ele>7.0</ele><time>2026-04-25T13:04:47.827Z</time></trkpt><trkpt lat="34.6058342" lon="10.6103571"><ele>7.0</ele><time>2026-04-25T13:04:48.818Z</time></trkpt><trkpt lat="34.6056706" lon="10.6102092"><ele>7.0</ele><time>2026-04-25T13:04:49.828Z</time></trkpt><trkpt lat="34.6055041" lon="10.6100603"><ele>7.0</ele><time>2026-04-25T13:04:50.811Z</time></trkpt><trkpt lat="34.6053398" lon="10.6099112"><ele>6.666666666666667</ele><time>2026-04-25T13:04:51.824Z</time></trkpt><trkpt lat="34.6051777" lon="10.6097637"><ele>6.333333333333334</ele><time>2026-04-25T13:04:52.823Z</time></trkpt><trkpt lat="34.6050158" lon="10.6096154"><ele>6.0</ele><time>2026-04-25T13:04:53.831Z</time></trkpt><trkpt lat="34.6048523" lon="10.6094656"><ele>6.0</ele><time>2026-04-25T13:04:54.825Z</time></trkpt><trkpt lat="34.6046869" lon="10.6093177"><ele>6.0</ele><time>2026-04-25T13:04:55.817Z</time></trkpt><trkpt lat="34.6045231" lon="10.6091746"><ele>6.0</ele><time>2026-04-25T13:04:56.861Z</time></trkpt><trkpt lat="34.6043613" lon="10.6090308"><ele>5.666666666666667</ele><time>2026-04-25T13:04:57.826Z</time></trkpt><trkpt lat="34.6042003" lon="10.6088833"><ele>5.333333333333334</ele><time>2026-04-25T13:04:58.82Z</time></trkpt><trkpt lat="34.604035" lon="10.6087357"><ele>5.0</ele><time>2026-04-25T13:04:59.823Z</time></trkpt><trkpt lat="34.6038705" lon="10.6085893"><ele>5.0</ele><time>2026-04-25T13:05:00.821Z</time></trkpt><trkpt lat="34.6037052" lon="10.6084386"><ele>5.0</ele><time>2026-04-25T13:05:01.824Z</time></trkpt><trkpt lat="34.6035372" lon="10.6082875"><ele>5.0</ele><time>2026-04-25T13:05:02.825Z</time></trkpt><trkpt lat="34.6033716" lon="10.6081373"><ele>4.666666666666667</ele><time>2026-04-25T13:05:03.82Z</time></trkpt><trkpt lat="34.6032091" lon="10.607988"><ele>4.333333333333333</ele><time>2026-04-25T13:05:04.827Z</time></trkpt><trkpt lat="34.6030477" lon="10.6078385"><ele>4.0</ele><time>2026-04-25T13:05:05.824Z</time></trkpt><trkpt lat="34.6028837" lon="10.6076886"><ele>4.333333333333333</ele><time>2026-04-25T13:05:06.826Z</time></trkpt><trkpt lat="34.6027193" lon="10.6075363"><ele>4.666666666666667</ele><time>2026-04-25T13:05:07.828Z</time></trkpt><trkpt lat="34.6025541" lon="10.607386"><ele>5.0</ele><time>2026-04-25T13:05:08.827Z</time></trkpt><trkpt lat="34.6023893" lon="10.6072397"><ele>5.0</ele><time>2026-04-25T13:05:09.82Z</time></trkpt><trkpt lat="34.6022226" lon="10.6070917"><ele>5.0</ele><time>2026-04-25T13:05:10.827Z</time></trkpt><trkpt lat="34.602058" lon="10.6069429"><ele>5.0</ele><time>2026-04-25T13:05:11.814Z</time></trkpt><trkpt lat="34.6018945" lon="10.6067937"><ele>5.0</ele><time>2026-04-25T13:05:12.823Z</time></trkpt><trkpt lat="34.6017307" lon="10.6066454"><ele>5.0</ele><time>2026-04-25T13:05:13.821Z</time></trkpt><trkpt lat="34.6015694" lon="10.6064975"><ele>5.0</ele><time>2026-04-25T13:05:14.819Z</time></trkpt><trkpt lat="34.601407" lon="10.6063503"><ele>5.0</ele><time>2026-04-25T13:05:15.821Z</time></trkpt><trkpt lat="34.6012471" lon="10.6062034"><ele>5.0</ele><time>2026-04-25T13:05:16.816Z</time></trkpt><trkpt lat="34.6010843" lon="10.606056"><ele>5.0</ele><time>2026-04-25T13:05:17.832Z</time></trkpt><trkpt lat="34.6009224" lon="10.6059096"><ele>4.666666666666667</ele><time>2026-04-25T13:05:18.827Z</time></trkpt><trkpt lat="34.6007571" lon="10.6057598"><ele>4.333333333333333</ele><time>2026-04-25T13:05:19.805Z</time></trkpt><trkpt lat="34.6005907" lon="10.6056106"><ele>4.0</ele><time>2026-04-25T13:05:20.819Z</time></trkpt><trkpt lat="34.6004184" lon="10.6054605"><ele>4.0</ele><time>2026-04-25T13:05:21.817Z</time></trkpt><trkpt lat="34.6002484" lon="10.6053034"><ele>4.0</ele><time>2026-04-25T13:05:22.827Z</time></trkpt><trkpt lat="34.6000756" lon="10.6051486"><ele>4.0</ele><time>2026-04-25T13:05:23.82Z</time></trkpt><trkpt lat="34.5999022" lon="10.6049929"><ele>4.0</ele><time>2026-04-25T13:05:24.828Z</time></trkpt><trkpt lat="34.599734" lon="10.6048412"><ele>4.0</ele><time>2026-04-25T13:05:25.834Z</time></trkpt><trkpt lat="34.5995676" lon="10.6046869"><ele>4.0</ele><time>2026-04-25T13:05:26.837Z</time></trkpt><trkpt lat="34.5993961" lon="10.6045349"><ele>4.0</ele><time>2026-04-25T13:05:27.815Z</time></trkpt><trkpt lat="34.599224" lon="10.6043785"><ele>4.0</ele><time>2026-04-25T13:05:28.814Z</time></trkpt><trkpt lat="34.5990544" lon="10.6042221"><ele>4.0</ele><time>2026-04-25T13:05:29.825Z</time></trkpt><trkpt lat="34.5988828" lon="10.6040639"><ele>4.0</ele><time>2026-04-25T13:05:30.821Z</time></trkpt><trkpt lat="34.5987121" lon="10.6039106"><ele>4.0</ele><time>2026-04-25T13:05:31.826Z</time></trkpt><trkpt lat="34.5985395" lon="10.6037526"><ele>4.0</ele><time>2026-04-25T13:05:32.822Z</time></trkpt><trkpt lat="34.5983674" lon="10.6035939"><ele>4.0</ele><time>2026-04-25T13:05:33.823Z</time></trkpt><trkpt lat="34.5981944" lon="10.6034399"><ele>4.0</ele><time>2026-04-25T13:05:34.824Z</time></trkpt><trkpt lat="34.5980255" lon="10.6032841"><ele>4.0</ele><time>2026-04-25T13:05:35.817Z</time></trkpt><trkpt lat="34.5978541" lon="10.6031244"><ele>3.6666666666666665</ele><time>2026-04-25T13:05:36.827Z</time></trkpt><trkpt lat="34.5976819" lon="10.602968"><ele>3.333333333333333</ele><time>2026-04-25T13:05:37.833Z</time></trkpt><trkpt lat="34.5975114" lon="10.6028095"><ele>3.0</ele><time>2026-04-25T13:05:38.816Z</time></trkpt><trkpt lat="34.59734" lon="10.6026546"><ele>3.0</ele><time>2026-04-25T13:05:39.821Z</time></trkpt><trkpt lat="34.5971708" lon="10.6025006"><ele>3.0</ele><time>2026-04-25T13:05:40.813Z</time></trkpt><trkpt lat="34.5969986" lon="10.602348"><ele>3.0</ele><time>2026-04-25T13:05:41.811Z</time></trkpt><trkpt lat="34.5968252" lon="10.6021919"><ele>3.0</ele><time>2026-04-25T13:05:42.812Z</time></trkpt><trkpt lat="34.5966533" lon="10.6020387"><ele>3.0</ele><time>2026-04-25T13:05:43.816Z</time></trkpt><trkpt lat="34.5964815" lon="10.6018817"><ele>3.0</ele><time>2026-04-25T13:05:44.816Z</time></trkpt><trkpt lat="34.5963109" lon="10.6017253"><ele>3.0</ele><time>2026-04-25T13:05:45.827Z</time></trkpt><trkpt lat="34.5961416" lon="10.6015647"><ele>3.0</ele><time>2026-04-25T13:05:46.825Z</time></trkpt><trkpt lat="34.5959731" lon="10.6014041"><ele>3.0</ele><time>2026-04-25T13:05:47.819Z</time></trkpt><trkpt lat="34.5958019" lon="10.6012492"><ele>3.333333333333333</ele><time>2026-04-25T13:05:48.823Z</time></trkpt><trkpt lat="34.595629" lon="10.6010902"><ele>3.6666666666666665</ele><time>2026-04-25T13:05:49.82Z</time></trkpt><trkpt lat="34.5954578" lon="10.6009337"><ele>4.0</ele><time>2026-04-25T13:05:50.82Z</time></trkpt><trkpt lat="34.5952864" lon="10.6007803"><ele>4.0</ele><time>2026-04-25T13:05:51.829Z</time></trkpt><trkpt lat="34.5951139" lon="10.6006306"><ele>4.0</ele><time>2026-04-25T13:05:52.817Z</time></trkpt><trkpt lat="34.5949433" lon="10.6004743"><ele>4.0</ele><time>2026-04-25T13:05:53.825Z</time></trkpt><trkpt lat="34.5947746" lon="10.6003198"><ele>4.0</ele><time>2026-04-25T13:05:54.827Z</time></trkpt><trkpt lat="34.5946061" lon="10.6001628"><ele>4.0</ele><time>2026-04-25T13:05:55.839Z</time></trkpt><trkpt lat="34.5944347" lon="10.6000075"><ele>4.0</ele><time>2026-04-25T13:05:56.829Z</time></trkpt><trkpt lat="34.5942635" lon="10.5998482"><ele>4.333333333333333</ele><time>2026-04-25T13:05:57.813Z</time></trkpt><trkpt lat="34.5940926" lon="10.5996941"><ele>4.666666666666667</ele><time>2026-04-25T13:05:58.82Z</time></trkpt><trkpt lat="34.593922" lon="10.5995434"><ele>5.0</ele><time>2026-04-25T13:05:59.818Z</time></trkpt><trkpt lat="34.593748" lon="10.5993893"><ele>5.333333333333334</ele><time>2026-04-25T13:06:00.819Z</time></trkpt><trkpt lat="34.5935762" lon="10.5992377"><ele>5.666666666666667</ele><time>2026-04-25T13:06:01.823Z</time></trkpt><trkpt lat="34.5934068" lon="10.5990857"><ele>6.0</ele><time>2026-04-25T13:06:02.81Z</time></trkpt><trkpt lat="34.593239" lon="10.598924"><ele>6.0</ele><time>2026-04-25T13:06:03.822Z</time></trkpt><trkpt lat="34.5930684" lon="10.5987693"><ele>6.0</ele><time>2026-04-25T13:06:04.82Z</time></trkpt><trkpt lat="34.5928973" lon="10.5986153"><ele>6.0</ele><time>2026-04-25T13:06:05.825Z</time></trkpt><trkpt lat="34.592727" lon="10.5984584"><ele>5.666666666666667</ele><time>2026-04-25T13:06:06.819Z</time></trkpt><trkpt lat="34.5925534" lon="10.5983072"><ele>5.333333333333334</ele><time>2026-04-25T13:06:07.833Z</time></trkpt><trkpt lat="34.5923824" lon="10.598156"><ele>5.0</ele><time>2026-04-25T13:06:08.825Z</time></trkpt><trkpt lat="34.5922114" lon="10.5979951"><ele>5.0</ele><time>2026-04-25T13:06:09.83Z</time></trkpt><trkpt lat="34.5920483" lon="10.5978419"><ele>5.0</ele><time>2026-04-25T13:06:10.824Z</time></trkpt><trkpt lat="34.5918991" lon="10.5976946"><ele>5.0</ele><time>2026-04-25T13:06:11.823Z</time></trkpt><trkpt lat="34.5917726" lon="10.5975594"><ele>5.25</ele><time>2026-04-25T13:06:12.814Z</time></trkpt><trkpt lat="34.5916652" lon="10.5974277"><ele>5.5</ele><time>2026-04-25T13:06:13.808Z</time></trkpt><trkpt lat="34.5915668" lon="10.5973108"><ele>5.75</ele><time>2026-04-25T13:06:14.814Z</time></trkpt><trkpt lat="34.5914896" lon="10.5971949"><ele>6.0</ele><time>2026-04-25T13:06:15.824Z</time></trkpt><trkpt lat="34.5914297" lon="10.5970971"><ele>6.0</ele><time>2026-04-25T13:06:16.819Z</time></trkpt><trkpt lat="34.5913811" lon="10.5970212"><ele>6.0</ele><time>2026-04-25T13:06:17.822Z</time></trkpt><trkpt lat="34.5913236" lon="10.5969559"><ele>6.0</ele><time>2026-04-25T13:06:18.822Z</time></trkpt><trkpt lat="34.5912582" lon="10.5969126"><ele>6.0</ele><time>2026-04-25T13:06:19.823Z</time></trkpt><trkpt lat="34.5911694" lon="10.5968858"><ele>6.0</ele><time>2026-04-25T13:06:20.822Z</time></trkpt><trkpt lat="34.5910687" lon="10.5968606"><ele>6.0</ele><time>2026-04-25T13:06:21.832Z</time></trkpt><trkpt lat="34.590951" lon="10.5967942"><ele>6.333333333333334</ele><time>2026-04-25T13:06:22.818Z</time></trkpt><trkpt lat="34.5908154" lon="10.5967029"><ele>6.666666666666667</ele><time>2026-04-25T13:06:23.821Z</time></trkpt><trkpt lat="34.5906801" lon="10.5965907"><ele>7.0</ele><time>2026-04-25T13:06:24.837Z</time></trkpt><trkpt lat="34.590542" lon="10.5964738"><ele>7.0</ele><time>2026-04-25T13:06:25.831Z</time></trkpt><trkpt lat="34.5903935" lon="10.5963444"><ele>7.0</ele><time>2026-04-25T13:06:26.848Z</time></trkpt><trkpt lat="34.5902421" lon="10.5962026"><ele>7.0</ele><time>2026-04-25T13:06:27.821Z</time></trkpt><trkpt lat="34.5900889" lon="10.5960598"><ele>7.0</ele><time>2026-04-25T13:06:28.816Z</time></trkpt><trkpt lat="34.5899281" lon="10.5959139"><ele>7.0</ele><time>2026-04-25T13:06:29.835Z</time></trkpt><trkpt lat="34.589761" lon="10.5957707"><ele>7.0</ele><time>2026-04-25T13:06:30.82Z</time></trkpt><trkpt lat="34.5895945" lon="10.5956188"><ele>7.333333333333334</ele><time>2026-04-25T13:06:31.821Z</time></trkpt><trkpt lat="34.5894294" lon="10.5954675"><ele>7.666666666666666</ele><time>2026-04-25T13:06:32.816Z</time></trkpt><trkpt lat="34.5892697" lon="10.5953231"><ele>8.0</ele><time>2026-04-25T13:06:33.818Z</time></trkpt><trkpt lat="34.5891157" lon="10.595182"><ele>8.0</ele><time>2026-04-25T13:06:34.832Z</time></trkpt><trkpt lat="34.58896" lon="10.5950393"><ele>8.0</ele><time>2026-04-25T13:06:35.827Z</time></trkpt><trkpt lat="34.5888022" lon="10.5948941"><ele>8.0</ele><time>2026-04-25T13:06:36.816Z</time></trkpt><trkpt lat="34.588644" lon="10.5947498"><ele>8.0</ele><time>2026-04-25T13:06:37.829Z</time></trkpt><trkpt lat="34.5884814" lon="10.5946048"><ele>8.0</ele><time>2026-04-25T13:06:38.827Z</time></trkpt><trkpt lat="34.5883195" lon="10.5944589"><ele>8.0</ele><time>2026-04-25T13:06:39.832Z</time></trkpt><trkpt lat="34.5881563" lon="10.5943141"><ele>8.0</ele><time>2026-04-25T13:06:40.814Z</time></trkpt><trkpt lat="34.5879912" lon="10.5941633"><ele>8.0</ele><time>2026-04-25T13:06:41.828Z</time></trkpt><trkpt lat="34.5878323" lon="10.5940166"><ele>8.0</ele><time>2026-04-25T13:06:42.81Z</time></trkpt><trkpt lat="34.5876687" lon="10.593873"><ele>7.666666666666666</ele><time>2026-04-25T13:06:43.822Z</time></trkpt><trkpt lat="34.5875031" lon="10.5937222"><ele>7.333333333333334</ele><time>2026-04-25T13:06:44.82Z</time></trkpt><trkpt lat="34.587336" lon="10.5935676"><ele>7.0</ele><time>2026-04-25T13:06:45.828Z</time></trkpt><trkpt lat="34.5871693" lon="10.5934146"><ele>7.666666666666667</ele><time>2026-04-25T13:06:46.821Z</time></trkpt><trkpt lat="34.5870043" lon="10.5932643"><ele>8.333333333333334</ele><time>2026-04-25T13:06:47.82Z</time></trkpt><trkpt lat="34.5868431" lon="10.5931222"><ele>9.0</ele><time>2026-04-25T13:06:48.821Z</time></trkpt><trkpt lat="34.5866807" lon="10.5929712"><ele>8.333333333333334</ele><time>2026-04-25T13:06:49.82Z</time></trkpt><trkpt lat="34.5865195" lon="10.5928217"><ele>7.666666666666667</ele><time>2026-04-25T13:06:50.823Z</time></trkpt><trkpt lat="34.5863574" lon="10.5926708"><ele>7.0</ele><time>2026-04-25T13:06:51.817Z</time></trkpt><trkpt lat="34.5861924" lon="10.5925229"><ele>7.0</ele><time>2026-04-25T13:06:52.829Z</time></trkpt><trkpt lat="34.5860275" lon="10.5923717"><ele>7.0</ele><time>2026-04-25T13:06:53.825Z</time></trkpt><trkpt lat="34.5858601" lon="10.5922193"><ele>7.0</ele><time>2026-04-25T13:06:54.81Z</time></trkpt><trkpt lat="34.5856966" lon="10.5920644"><ele>6.666666666666667</ele><time>2026-04-25T13:06:55.833Z</time></trkpt><trkpt lat="34.5855378" lon="10.5919131"><ele>6.333333333333334</ele><time>2026-04-25T13:06:56.86Z</time></trkpt><trkpt lat="34.5853783" lon="10.5917582"><ele>6.0</ele><time>2026-04-25T13:06:57.821Z</time></trkpt><trkpt lat="34.5852191" lon="10.5916083"><ele>5.666666666666667</ele><time>2026-04-25T13:06:58.825Z</time></trkpt><trkpt lat="34.5850568" lon="10.5914589"><ele>5.333333333333334</ele><time>2026-04-25T13:06:59.819Z</time></trkpt><trkpt lat="34.5848953" lon="10.5913078"><ele>5.0</ele><time>2026-04-25T13:07:00.826Z</time></trkpt><trkpt lat="34.5847317" lon="10.5911514"><ele>5.0</ele><time>2026-04-25T13:07:01.821Z</time></trkpt><trkpt lat="34.5845704" lon="10.5909992"><ele>5.0</ele><time>2026-04-25T13:07:02.832Z</time></trkpt><trkpt lat="34.5844168" lon="10.5908567"><ele>5.0</ele><time>2026-04-25T13:07:03.82Z</time></trkpt><trkpt lat="34.5842791" lon="10.5907174"><ele>5.0</ele><time>2026-04-25T13:07:04.827Z</time></trkpt><trkpt lat="34.5841374" lon="10.5905835"><ele>5.0</ele><time>2026-04-25T13:07:05.827Z</time></trkpt><trkpt lat="34.5839944" lon="10.5904479"><ele>5.0</ele><time>2026-04-25T13:07:06.831Z</time></trkpt><trkpt lat="34.5838563" lon="10.5903161"><ele>5.0</ele><time>2026-04-25T13:07:07.838Z</time></trkpt><trkpt lat="34.5837174" lon="10.590183"><ele>5.0</ele><time>2026-04-25T13:07:08.828Z</time></trkpt><trkpt lat="34.5835794" lon="10.5900564"><ele>5.0</ele><time>2026-04-25T13:07:09.827Z</time></trkpt><trkpt lat="34.5834425" lon="10.5899223"><ele>5.333333333333334</ele><time>2026-04-25T13:07:10.83Z</time></trkpt><trkpt lat="34.5833053" lon="10.5897961"><ele>5.666666666666667</ele><time>2026-04-25T13:07:11.826Z</time></trkpt><trkpt lat="34.5831696" lon="10.5896629"><ele>6.0</ele><time>2026-04-25T13:07:12.819Z</time></trkpt><trkpt lat="34.583035" lon="10.5895305"><ele>6.0</ele><time>2026-04-25T13:07:13.821Z</time></trkpt><trkpt lat="34.582897" lon="10.5894009"><ele>6.0</ele><time>2026-04-25T13:07:14.823Z</time></trkpt><trkpt lat="34.5827528" lon="10.5892769"><ele>6.0</ele><time>2026-04-25T13:07:15.811Z</time></trkpt><trkpt lat="34.58261" lon="10.5891529"><ele>6.666666666666666</ele><time>2026-04-25T13:07:16.818Z</time></trkpt><trkpt lat="34.5824612" lon="10.5890222"><ele>7.333333333333333</ele><time>2026-04-25T13:07:17.816Z</time></trkpt><trkpt lat="34.5823118" lon="10.5888968"><ele>8.0</ele><time>2026-04-25T13:07:18.821Z</time></trkpt><trkpt lat="34.5821637" lon="10.5887694"><ele>7.333333333333333</ele><time>2026-04-25T13:07:19.839Z</time></trkpt><trkpt lat="34.5820121" lon="10.5886386"><ele>6.666666666666666</ele><time>2026-04-25T13:07:20.822Z</time></trkpt><trkpt lat="34.5818627" lon="10.5885039"><ele>6.0</ele><time>2026-04-25T13:07:21.823Z</time></trkpt><trkpt lat="34.5817158" lon="10.5883734"><ele>6.0</ele><time>2026-04-25T13:07:22.82Z</time></trkpt><trkpt lat="34.5815695" lon="10.5882421"><ele>6.0</ele><time>2026-04-25T13:07:23.815Z</time></trkpt><trkpt lat="34.5814268" lon="10.5881101"><ele>6.0</ele><time>2026-04-25T13:07:24.821Z</time></trkpt><trkpt lat="34.5812809" lon="10.5879789"><ele>6.333333333333334</ele><time>2026-04-25T13:07:25.82Z</time></trkpt><trkpt lat="34.5811321" lon="10.5878436"><ele>6.666666666666667</ele><time>2026-04-25T13:07:26.83Z</time></trkpt><trkpt lat="34.5809868" lon="10.5877105"><ele>7.0</ele><time>2026-04-25T13:07:27.827Z</time></trkpt><trkpt lat="34.5808433" lon="10.5875794"><ele>7.0</ele><time>2026-04-25T13:07:28.824Z</time></trkpt><trkpt lat="34.5806961" lon="10.587447"><ele>7.0</ele><time>2026-04-25T13:07:29.81Z</time></trkpt><trkpt lat="34.5805482" lon="10.5873113"><ele>7.0</ele><time>2026-04-25T13:07:30.822Z</time></trkpt><trkpt lat="34.5804064" lon="10.5871797"><ele>7.0</ele><time>2026-04-25T13:07:31.837Z</time></trkpt><trkpt lat="34.5802581" lon="10.5870463"><ele>7.0</ele><time>2026-04-25T13:07:32.828Z</time></trkpt><trkpt lat="34.5801112" lon="10.586918"><ele>7.0</ele><time>2026-04-25T13:07:33.83Z</time></trkpt><trkpt lat="34.5799709" lon="10.5867972"><ele>7.0</ele><time>2026-04-25T13:07:34.845Z</time></trkpt><trkpt lat="34.5798322" lon="10.5866738"><ele>7.0</ele><time>2026-04-25T13:07:35.822Z</time></trkpt><trkpt lat="34.5796943" lon="10.586549"><ele>7.0</ele><time>2026-04-25T13:07:36.814Z</time></trkpt><trkpt lat="34.5795547" lon="10.5864303"><ele>7.0</ele><time>2026-04-25T13:07:37.822Z</time></trkpt><trkpt lat="34.5794252" lon="10.5863083"><ele>7.0</ele><time>2026-04-25T13:07:38.823Z</time></trkpt><trkpt lat="34.5792904" lon="10.5861896"><ele>7.0</ele><time>2026-04-25T13:07:39.83Z</time></trkpt><trkpt lat="34.5791592" lon="10.5860695"><ele>7.666666666666667</ele><time>2026-04-25T13:07:40.826Z</time></trkpt><trkpt lat="34.5790299" lon="10.5859512"><ele>8.333333333333334</ele><time>2026-04-25T13:07:41.829Z</time></trkpt><trkpt lat="34.5789065" lon="10.5858347"><ele>9.0</ele><time>2026-04-25T13:07:42.827Z</time></trkpt><trkpt lat="34.5787766" lon="10.5857164"><ele>8.666666666666666</ele><time>2026-04-25T13:07:43.807Z</time></trkpt><trkpt lat="34.5786479" lon="10.5855983"><ele>8.333333333333332</ele><time>2026-04-25T13:07:44.827Z</time></trkpt><trkpt lat="34.5785256" lon="10.585491"><ele>8.0</ele><time>2026-04-25T13:07:45.813Z</time></trkpt><trkpt lat="34.5784081" lon="10.5853841"><ele>8.5</ele><time>2026-04-25T13:07:46.818Z</time></trkpt><trkpt lat="34.5782984" lon="10.5852814"><ele>9.0</ele><time>2026-04-25T13:07:47.829Z</time></trkpt><trkpt lat="34.5781894" lon="10.5851866"><ele>9.5</ele><time>2026-04-25T13:07:48.838Z</time></trkpt><trkpt lat="34.578082" lon="10.5850909"><ele>10.0</ele><time>2026-04-25T13:07:49.804Z</time></trkpt><trkpt lat="34.5779628" lon="10.5849874"><ele>9.666666666666668</ele><time>2026-04-25T13:07:50.825Z</time></trkpt><trkpt lat="34.5778341" lon="10.5848716"><ele>9.333333333333334</ele><time>2026-04-25T13:07:51.82Z</time></trkpt><trkpt lat="34.577701" lon="10.5847553"><ele>9.0</ele><time>2026-04-25T13:07:52.824Z</time></trkpt><trkpt lat="34.5775673" lon="10.5846343"><ele>8.666666666666666</ele><time>2026-04-25T13:07:53.842Z</time></trkpt><trkpt lat="34.577431" lon="10.5845095"><ele>8.333333333333332</ele><time>2026-04-25T13:07:54.824Z</time></trkpt><trkpt lat="34.577294" lon="10.5843862"><ele>8.0</ele><time>2026-04-25T13:07:55.822Z</time></trkpt><trkpt lat="34.5771577" lon="10.5842623"><ele>8.0</ele><time>2026-04-25T13:07:56.842Z</time></trkpt><trkpt lat="34.5770199" lon="10.5841396"><ele>8.0</ele><time>2026-04-25T13:07:57.82Z</time></trkpt><trkpt lat="34.5768835" lon="10.5840187"><ele>8.0</ele><time>2026-04-25T13:07:58.809Z</time></trkpt><trkpt lat="34.5767461" lon="10.5838981"><ele>8.333333333333332</ele><time>2026-04-25T13:07:59.828Z</time></trkpt><trkpt lat="34.5766089" lon="10.5837779"><ele>8.666666666666666</ele><time>2026-04-25T13:08:00.815Z</time></trkpt><trkpt lat="34.5764706" lon="10.5836546"><ele>9.0</ele><time>2026-04-25T13:08:01.831Z</time></trkpt><trkpt lat="34.5763311" lon="10.5835359"><ele>9.0</ele><time>2026-04-25T13:08:02.814Z</time></trkpt><trkpt lat="34.5761906" lon="10.58342"><ele>9.0</ele><time>2026-04-25T13:08:03.828Z</time></trkpt><trkpt lat="34.5760619" lon="10.5833151"><ele>9.0</ele><time>2026-04-25T13:08:04.823Z</time></trkpt><trkpt lat="34.5759392" lon="10.5832188"><ele>9.2</ele><time>2026-04-25T13:08:05.826Z</time></trkpt><trkpt lat="34.5758281" lon="10.5831261"><ele>9.4</ele><time>2026-04-25T13:08:06.821Z</time></trkpt><trkpt lat="34.5757249" lon="10.5830456"><ele>9.6</ele><time>2026-04-25T13:08:07.827Z</time></trkpt><trkpt lat="34.575637" lon="10.5829763"><ele>9.8</ele><time>2026-04-25T13:08:08.82Z</time></trkpt><trkpt lat="34.5755665" lon="10.5829198"><ele>10.0</ele><time>2026-04-25T13:08:09.82Z</time></trkpt><trkpt lat="34.5755086" lon="10.5828728"><ele>10.0</ele><time>2026-04-25T13:08:10.817Z</time></trkpt><trkpt lat="34.5754297" lon="10.5827719"><ele>10.0</ele><time>2026-04-25T13:08:12.821Z</time></trkpt><trkpt lat="34.5753489" lon="10.5826838"><ele>10.0</ele><time>2026-04-25T13:08:14.825Z</time></trkpt><trkpt lat="34.5752837" lon="10.5826444"><ele>10.0</ele><time>2026-04-25T13:08:15.831Z</time></trkpt><trkpt lat="34.575197" lon="10.582599"><ele>10.0</ele><time>2026-04-25T13:08:16.816Z</time></trkpt><trkpt lat="34.5750914" lon="10.5825227"><ele>10.25</ele><time>2026-04-25T13:08:17.824Z</time></trkpt><trkpt lat="34.5749807" lon="10.5824312"><ele>10.5</ele><time>2026-04-25T13:08:18.822Z</time></trkpt><trkpt lat="34.5748624" lon="10.5823224"><ele>10.75</ele><time>2026-04-25T13:08:19.822Z</time></trkpt><trkpt lat="34.5747408" lon="10.5821972"><ele>11.0</ele><time>2026-04-25T13:08:20.834Z</time></trkpt><trkpt lat="34.5746211" lon="10.5820593"><ele>11.0</ele><time>2026-04-25T13:08:21.818Z</time></trkpt><trkpt lat="34.5744942" lon="10.5819297"><ele>11.0</ele><time>2026-04-25T13:08:22.836Z</time></trkpt><trkpt lat="34.5743643" lon="10.5818038"><ele>11.0</ele><time>2026-04-25T13:08:23.822Z</time></trkpt><trkpt lat="34.5742315" lon="10.5816817"><ele>11.0</ele><time>2026-04-25T13:08:24.821Z</time></trkpt><trkpt lat="34.5741039" lon="10.5815607"><ele>11.0</ele><time>2026-04-25T13:08:25.812Z</time></trkpt><trkpt lat="34.5739765" lon="10.5814446"><ele>11.0</ele><time>2026-04-25T13:08:26.822Z</time></trkpt><trkpt lat="34.5738441" lon="10.5813283"><ele>11.0</ele><time>2026-04-25T13:08:27.816Z</time></trkpt><trkpt lat="34.5737063" lon="10.5812074"><ele>11.0</ele><time>2026-04-25T13:08:28.827Z</time></trkpt><trkpt lat="34.5735623" lon="10.5810784"><ele>11.0</ele><time>2026-04-25T13:08:29.818Z</time></trkpt><trkpt lat="34.573416" lon="10.5809431"><ele>10.666666666666666</ele><time>2026-04-25T13:08:30.814Z</time></trkpt><trkpt lat="34.5732757" lon="10.5807987"><ele>10.333333333333334</ele><time>2026-04-25T13:08:31.833Z</time></trkpt><trkpt lat="34.573134" lon="10.5806488"><ele>10.0</ele><time>2026-04-25T13:08:32.817Z</time></trkpt><trkpt lat="34.5729943" lon="10.5804863"><ele>10.666666666666668</ele><time>2026-04-25T13:08:33.827Z</time></trkpt><trkpt lat="34.5728527" lon="10.5803221"><ele>11.333333333333334</ele><time>2026-04-25T13:08:34.822Z</time></trkpt><trkpt lat="34.5727141" lon="10.5801538"><ele>12.0</ele><time>2026-04-25T13:08:35.816Z</time></trkpt><trkpt lat="34.5725781" lon="10.5799838"><ele>12.0</ele><time>2026-04-25T13:08:36.825Z</time></trkpt><trkpt lat="34.5724421" lon="10.5798065"><ele>12.0</ele><time>2026-04-25T13:08:37.821Z</time></trkpt><trkpt lat="34.5723028" lon="10.5796268"><ele>12.0</ele><time>2026-04-25T13:08:38.82Z</time></trkpt><trkpt lat="34.5721566" lon="10.5794408"><ele>12.0</ele><time>2026-04-25T13:08:39.823Z</time></trkpt><trkpt lat="34.5720086" lon="10.57925"><ele>12.0</ele><time>2026-04-25T13:08:40.825Z</time></trkpt><trkpt lat="34.5718617" lon="10.5790629"><ele>12.0</ele><time>2026-04-25T13:08:41.871Z</time></trkpt><trkpt lat="34.5717197" lon="10.5788722"><ele>12.0</ele><time>2026-04-25T13:08:42.819Z</time></trkpt><trkpt lat="34.5715729" lon="10.5786877"><ele>12.0</ele><time>2026-04-25T13:08:43.804Z</time></trkpt><trkpt lat="34.571425" lon="10.5785027"><ele>12.0</ele><time>2026-04-25T13:08:44.834Z</time></trkpt><trkpt lat="34.5712786" lon="10.5783139"><ele>12.0</ele><time>2026-04-25T13:08:45.828Z</time></trkpt><trkpt lat="34.5711321" lon="10.5781248"><ele>12.0</ele><time>2026-04-25T13:08:46.831Z</time></trkpt><trkpt lat="34.5709862" lon="10.5779372"><ele>12.0</ele><time>2026-04-25T13:08:47.818Z</time></trkpt><trkpt lat="34.5708378" lon="10.5777492"><ele>12.0</ele><time>2026-04-25T13:08:48.825Z</time></trkpt><trkpt lat="34.5706818" lon="10.5775548"><ele>12.0</ele><time>2026-04-25T13:08:49.819Z</time></trkpt><trkpt lat="34.5705224" lon="10.5773597"><ele>12.0</ele><time>2026-04-25T13:08:50.826Z</time></trkpt><trkpt lat="34.5703592" lon="10.577166"><ele>12.0</ele><time>2026-04-25T13:08:51.812Z</time></trkpt><trkpt lat="34.5701983" lon="10.5769669"><ele>11.5</ele><time>2026-04-25T13:08:52.819Z</time></trkpt><trkpt lat="34.5700355" lon="10.5767622"><ele>11.0</ele><time>2026-04-25T13:08:53.828Z</time></trkpt><trkpt lat="34.5698719" lon="10.5765531"><ele>11.0</ele><time>2026-04-25T13:08:54.828Z</time></trkpt><trkpt lat="34.5697087" lon="10.5763415"><ele>11.0</ele><time>2026-04-25T13:08:55.823Z</time></trkpt><trkpt lat="34.569547" lon="10.5761305"><ele>11.0</ele><time>2026-04-25T13:08:56.864Z</time></trkpt><trkpt lat="34.5693854" lon="10.5759199"><ele>11.0</ele><time>2026-04-25T13:08:57.81Z</time></trkpt><trkpt lat="34.5692202" lon="10.5757061"><ele>11.0</ele><time>2026-04-25T13:08:58.826Z</time></trkpt><trkpt lat="34.569053" lon="10.5754938"><ele>11.0</ele><time>2026-04-25T13:08:59.811Z</time></trkpt><trkpt lat="34.5688878" lon="10.5752814"><ele>11.0</ele><time>2026-04-25T13:09:00.832Z</time></trkpt><trkpt lat="34.5687221" lon="10.5750684"><ele>11.0</ele><time>2026-04-25T13:09:01.829Z</time></trkpt><trkpt lat="34.5685555" lon="10.574855"><ele>11.0</ele><time>2026-04-25T13:09:02.812Z</time></trkpt><trkpt lat="34.5683905" lon="10.574644"><ele>11.0</ele><time>2026-04-25T13:09:03.821Z</time></trkpt><trkpt lat="34.5682235" lon="10.5744318"><ele>11.5</ele><time>2026-04-25T13:09:04.83Z</time></trkpt><trkpt lat="34.5680594" lon="10.5742226"><ele>12.0</ele><time>2026-04-25T13:09:05.826Z</time></trkpt><trkpt lat="34.5678922" lon="10.5740104"><ele>12.0</ele><time>2026-04-25T13:09:06.815Z</time></trkpt><trkpt lat="34.5677274" lon="10.5737978"><ele>12.0</ele><time>2026-04-25T13:09:07.816Z</time></trkpt><trkpt lat="34.5675578" lon="10.5735876"><ele>12.0</ele><time>2026-04-25T13:09:08.827Z</time></trkpt><trkpt lat="34.5673892" lon="10.5733772"><ele>12.0</ele><time>2026-04-25T13:09:09.829Z</time></trkpt><trkpt lat="34.5672243" lon="10.5731637"><ele>12.0</ele><time>2026-04-25T13:09:10.822Z</time></trkpt><trkpt lat="34.5670627" lon="10.5729503"><ele>12.0</ele><time>2026-04-25T13:09:11.866Z</time></trkpt><trkpt lat="34.5669082" lon="10.5727254"><ele>12.0</ele><time>2026-04-25T13:09:12.812Z</time></trkpt><trkpt lat="34.5667594" lon="10.572507"><ele>12.0</ele><time>2026-04-25T13:09:13.816Z</time></trkpt><trkpt lat="34.5666054" lon="10.5722942"><ele>12.0</ele><time>2026-04-25T13:09:14.815Z</time></trkpt><trkpt lat="34.5664441" lon="10.5720905"><ele>12.0</ele><time>2026-04-25T13:09:15.812Z</time></trkpt><trkpt lat="34.566281" lon="10.571892"><ele>12.0</ele><time>2026-04-25T13:09:16.821Z</time></trkpt><trkpt lat="34.5661198" lon="10.5716963"><ele>12.0</ele><time>2026-04-25T13:09:17.816Z</time></trkpt><trkpt lat="34.5659591" lon="10.5715052"><ele>12.0</ele><time>2026-04-25T13:09:18.82Z</time></trkpt><trkpt lat="34.5658101" lon="10.5713129"><ele>12.0</ele><time>2026-04-25T13:09:19.814Z</time></trkpt><trkpt lat="34.5656662" lon="10.5711272"><ele>12.0</ele><time>2026-04-25T13:09:20.818Z</time></trkpt><trkpt lat="34.5655256" lon="10.5709625"><ele>12.0</ele><time>2026-04-25T13:09:21.819Z</time></trkpt><trkpt lat="34.5654022" lon="10.5708078"><ele>12.0</ele><time>2026-04-25T13:09:22.814Z</time></trkpt><trkpt lat="34.565291" lon="10.5706675"><ele>12.0</ele><time>2026-04-25T13:09:23.821Z</time></trkpt><trkpt lat="34.5651928" lon="10.5705405"><ele>12.0</ele><time>2026-04-25T13:09:24.822Z</time></trkpt><trkpt lat="34.5651087" lon="10.5704162"><ele>12.0</ele><time>2026-04-25T13:09:25.819Z</time></trkpt><trkpt lat="34.5650364" lon="10.570298"><ele>12.0</ele><time>2026-04-25T13:09:26.839Z</time></trkpt><trkpt lat="34.5649813" lon="10.5701892"><ele>12.0</ele><time>2026-04-25T13:09:27.818Z</time></trkpt><trkpt lat="34.5649275" lon="10.5700782"><ele>12.0</ele><time>2026-04-25T13:09:28.824Z</time></trkpt><trkpt lat="34.5648511" lon="10.5699701"><ele>12.0</ele><time>2026-04-25T13:09:29.818Z</time></trkpt><trkpt lat="34.5647458" lon="10.5698645"><ele>12.0</ele><time>2026-04-25T13:09:30.826Z</time></trkpt><trkpt lat="34.5646358" lon="10.5697352"><ele>12.0</ele><time>2026-04-25T13:09:31.821Z</time></trkpt><trkpt lat="34.5645065" lon="10.5695743"><ele>12.0</ele><time>2026-04-25T13:09:32.815Z</time></trkpt><trkpt lat="34.5643736" lon="10.5693895"><ele>12.0</ele><time>2026-04-25T13:09:33.83Z</time></trkpt><trkpt lat="34.5642465" lon="10.5691911"><ele>12.0</ele><time>2026-04-25T13:09:34.827Z</time></trkpt><trkpt lat="34.5641208" lon="10.5689853"><ele>12.0</ele><time>2026-04-25T13:09:35.838Z</time></trkpt><trkpt lat="34.563995" lon="10.5687741"><ele>12.0</ele><time>2026-04-25T13:09:36.817Z</time></trkpt><trkpt lat="34.5638742" lon="10.568555"><ele>12.0</ele><time>2026-04-25T13:09:37.815Z</time></trkpt><trkpt lat="34.5637587" lon="10.5683329"><ele>11.666666666666666</ele><time>2026-04-25T13:09:38.828Z</time></trkpt><trkpt lat="34.5636499" lon="10.568099"><ele>11.333333333333332</ele><time>2026-04-25T13:09:39.827Z</time></trkpt><trkpt lat="34.5635481" lon="10.5678666"><ele>11.0</ele><time>2026-04-25T13:09:40.831Z</time></trkpt><trkpt lat="34.563449" lon="10.5676315"><ele>11.0</ele><time>2026-04-25T13:09:41.847Z</time></trkpt><trkpt lat="34.5633523" lon="10.5673968"><ele>11.0</ele><time>2026-04-25T13:09:42.829Z</time></trkpt><trkpt lat="34.563254" lon="10.5671661"><ele>11.0</ele><time>2026-04-25T13:09:43.815Z</time></trkpt><trkpt lat="34.5631571" lon="10.5669349"><ele>11.666666666666666</ele><time>2026-04-25T13:09:44.818Z</time></trkpt><trkpt lat="34.5630597" lon="10.5667035"><ele>12.333333333333332</ele><time>2026-04-25T13:09:45.82Z</time></trkpt><trkpt lat="34.5629687" lon="10.5664687"><ele>13.0</ele><time>2026-04-25T13:09:46.812Z</time></trkpt><trkpt lat="34.562878" lon="10.5662439"><ele>13.666666666666666</ele><time>2026-04-25T13:09:47.819Z</time></trkpt><trkpt lat="34.5627873" lon="10.5660139"><ele>14.333333333333332</ele><time>2026-04-25T13:09:48.816Z</time></trkpt><trkpt lat="34.5627041" lon="10.5657853"><ele>15.0</ele><time>2026-04-25T13:09:49.821Z</time></trkpt><trkpt lat="34.5626246" lon="10.565549"><ele>14.0</ele><time>2026-04-25T13:09:50.817Z</time></trkpt><trkpt lat="34.5625406" lon="10.5653185"><ele>13.0</ele><time>2026-04-25T13:09:51.803Z</time></trkpt><trkpt lat="34.5624515" lon="10.565091"><ele>12.0</ele><time>2026-04-25T13:09:52.816Z</time></trkpt><trkpt lat="34.562362" lon="10.5648637"><ele>12.0</ele><time>2026-04-25T13:09:53.812Z</time></trkpt><trkpt lat="34.5622719" lon="10.564635"><ele>12.0</ele><time>2026-04-25T13:09:54.828Z</time></trkpt><trkpt lat="34.5621842" lon="10.564407"><ele>12.0</ele><time>2026-04-25T13:09:55.832Z</time></trkpt><trkpt lat="34.5620955" lon="10.5641757"><ele>12.666666666666668</ele><time>2026-04-25T13:09:56.833Z</time></trkpt><trkpt lat="34.5620044" lon="10.5639403"><ele>13.333333333333334</ele><time>2026-04-25T13:09:57.815Z</time></trkpt><trkpt lat="34.5619106" lon="10.5637064"><ele>14.0</ele><time>2026-04-25T13:09:58.813Z</time></trkpt><trkpt lat="34.561818" lon="10.5634756"><ele>14.0</ele><time>2026-04-25T13:09:59.823Z</time></trkpt><trkpt lat="34.5617247" lon="10.5632444"><ele>14.0</ele><time>2026-04-25T13:10:00.814Z</time></trkpt><trkpt lat="34.5616325" lon="10.5630143"><ele>14.0</ele><time>2026-04-25T13:10:01.822Z</time></trkpt><trkpt lat="34.5615424" lon="10.5627847"><ele>13.333333333333334</ele><time>2026-04-25T13:10:02.819Z</time></trkpt><trkpt lat="34.5614555" lon="10.5625545"><ele>12.666666666666668</ele><time>2026-04-25T13:10:03.829Z</time></trkpt><trkpt lat="34.5613628" lon="10.5623291"><ele>12.0</ele><time>2026-04-25T13:10:04.816Z</time></trkpt><trkpt lat="34.5612725" lon="10.5621058"><ele>11.333333333333334</ele><time>2026-04-25T13:10:05.827Z</time></trkpt><trkpt lat="34.5611856" lon="10.5618858"><ele>10.666666666666668</ele><time>2026-04-25T13:10:06.817Z</time></trkpt><trkpt lat="34.5611081" lon="10.5616809"><ele>10.0</ele><time>2026-04-25T13:10:07.828Z</time></trkpt><trkpt lat="34.5610438" lon="10.5615108"><ele>10.0</ele><time>2026-04-25T13:10:08.817Z</time></trkpt><trkpt lat="34.560988" lon="10.5613708"><ele>10.0</ele><time>2026-04-25T13:10:09.812Z</time></trkpt><trkpt lat="34.560934" lon="10.561241"><ele>10.0</ele><time>2026-04-25T13:10:10.833Z</time></trkpt><trkpt lat="34.5608896" lon="10.5611156"><ele>10.0</ele><time>2026-04-25T13:10:11.833Z</time></trkpt><trkpt lat="34.560869" lon="10.5609853"><ele>10.8</ele><time>2026-04-25T13:10:12.815Z</time></trkpt><trkpt lat="34.560873" lon="10.5608552"><ele>11.6</ele><time>2026-04-25T13:10:13.831Z</time></trkpt><trkpt lat="34.5608648" lon="10.5607385"><ele>12.399999999999999</ele><time>2026-04-25T13:10:14.814Z</time></trkpt><trkpt lat="34.5608295" lon="10.5606411"><ele>13.2</ele><time>2026-04-25T13:10:15.846Z</time></trkpt><trkpt lat="34.5607684" lon="10.56055"><ele>14.0</ele><time>2026-04-25T13:10:16.819Z</time></trkpt><trkpt lat="34.560689" lon="10.5604461"><ele>14.0</ele><time>2026-04-25T13:10:17.815Z</time></trkpt><trkpt lat="34.560617" lon="10.5603366"><ele>14.0</ele><time>2026-04-25T13:10:18.818Z</time></trkpt><trkpt lat="34.5605569" lon="10.5601808"><ele>14.0</ele><time>2026-04-25T13:10:19.816Z</time></trkpt><trkpt lat="34.5604996" lon="10.5599963"><ele>14.0</ele><time>2026-04-25T13:10:20.817Z</time></trkpt><trkpt lat="34.5604593" lon="10.5597998"><ele>14.0</ele><time>2026-04-25T13:10:21.81Z</time></trkpt><trkpt lat="34.5604255" lon="10.5595717"><ele>14.0</ele><time>2026-04-25T13:10:22.812Z</time></trkpt><trkpt lat="34.5604023" lon="10.5593311"><ele>14.0</ele><time>2026-04-25T13:10:23.82Z</time></trkpt><trkpt lat="34.5603914" lon="10.559085"><ele>13.666666666666668</ele><time>2026-04-25T13:10:24.828Z</time></trkpt><trkpt lat="34.5603869" lon="10.5588393"><ele>13.333333333333332</ele><time>2026-04-25T13:10:25.813Z</time></trkpt><trkpt lat="34.5603924" lon="10.5585943"><ele>13.0</ele><time>2026-04-25T13:10:26.85Z</time></trkpt><trkpt lat="34.5604064" lon="10.5583474"><ele>13.0</ele><time>2026-04-25T13:10:27.816Z</time></trkpt><trkpt lat="34.5604301" lon="10.5581088"><ele>13.0</ele><time>2026-04-25T13:10:28.818Z</time></trkpt><trkpt lat="34.5604624" lon="10.5578843"><ele>13.0</ele><time>2026-04-25T13:10:29.814Z</time></trkpt><trkpt lat="34.5604966" lon="10.5576755"><ele>13.666666666666666</ele><time>2026-04-25T13:10:30.818Z</time></trkpt><trkpt lat="34.5605264" lon="10.5574721"><ele>14.333333333333332</ele><time>2026-04-25T13:10:31.805Z</time></trkpt><trkpt lat="34.5605493" lon="10.5572763"><ele>15.0</ele><time>2026-04-25T13:10:32.8Z</time></trkpt><trkpt lat="34.56057" lon="10.5570787"><ele>14.333333333333332</ele><time>2026-04-25T13:10:33.823Z</time></trkpt><trkpt lat="34.5605844" lon="10.5568777"><ele>13.666666666666666</ele><time>2026-04-25T13:10:34.821Z</time></trkpt><trkpt lat="34.5605921" lon="10.5566709"><ele>13.0</ele><time>2026-04-25T13:10:35.83Z</time></trkpt><trkpt lat="34.5605794" lon="10.5564648"><ele>13.0</ele><time>2026-04-25T13:10:36.81Z</time></trkpt><trkpt lat="34.5605621" lon="10.556267"><ele>13.0</ele><time>2026-04-25T13:10:37.827Z</time></trkpt><trkpt lat="34.5605348" lon="10.5560726"><ele>13.0</ele><time>2026-04-25T13:10:38.829Z</time></trkpt><trkpt lat="34.5605" lon="10.5558747"><ele>13.0</ele><time>2026-04-25T13:10:39.816Z</time></trkpt><trkpt lat="34.5604571" lon="10.5556809"><ele>13.0</ele><time>2026-04-25T13:10:40.823Z</time></trkpt><trkpt lat="34.5604021" lon="10.5554961"><ele>13.0</ele><time>2026-04-25T13:10:41.834Z</time></trkpt><trkpt lat="34.5603415" lon="10.5553147"><ele>12.333333333333332</ele><time>2026-04-25T13:10:42.827Z</time></trkpt><trkpt lat="34.5602711" lon="10.5551376"><ele>11.666666666666666</ele><time>2026-04-25T13:10:43.82Z</time></trkpt><trkpt lat="34.5601907" lon="10.5549623"><ele>11.0</ele><time>2026-04-25T13:10:44.813Z</time></trkpt><trkpt lat="34.5601148" lon="10.5547894"><ele>11.0</ele><time>2026-04-25T13:10:45.828Z</time></trkpt><trkpt lat="34.5600353" lon="10.5546143"><ele>11.0</ele><time>2026-04-25T13:10:46.814Z</time></trkpt><trkpt lat="34.5599542" lon="10.5544363"><ele>11.0</ele><time>2026-04-25T13:10:47.81Z</time></trkpt><trkpt lat="34.5598712" lon="10.5542578"><ele>11.666666666666666</ele><time>2026-04-25T13:10:48.819Z</time></trkpt><trkpt lat="34.5597917" lon="10.5540861"><ele>12.333333333333332</ele><time>2026-04-25T13:10:49.81Z</time></trkpt><trkpt lat="34.5597144" lon="10.5539169"><ele>13.0</ele><time>2026-04-25T13:10:50.813Z</time></trkpt><trkpt lat="34.5596336" lon="10.5537416"><ele>12.333333333333332</ele><time>2026-04-25T13:10:51.829Z</time></trkpt><trkpt lat="34.5595546" lon="10.5535627"><ele>11.666666666666666</ele><time>2026-04-25T13:10:52.826Z</time></trkpt><trkpt lat="34.5594778" lon="10.5533835"><ele>11.0</ele><time>2026-04-25T13:10:53.827Z</time></trkpt><trkpt lat="34.5594024" lon="10.5531987"><ele>11.0</ele><time>2026-04-25T13:10:54.823Z</time></trkpt><trkpt lat="34.5593298" lon="10.553014"><ele>11.0</ele><time>2026-04-25T13:10:55.831Z</time></trkpt><trkpt lat="34.5592557" lon="10.5528315"><ele>11.0</ele><time>2026-04-25T13:10:56.822Z</time></trkpt><trkpt lat="34.5591782" lon="10.5526405"><ele>11.333333333333332</ele><time>2026-04-25T13:10:57.822Z</time></trkpt><trkpt lat="34.5591037" lon="10.5524428"><ele>11.666666666666666</ele><time>2026-04-25T13:10:58.809Z</time></trkpt><trkpt lat="34.5590276" lon="10.5522432"><ele>12.0</ele><time>2026-04-25T13:10:59.819Z</time></trkpt><trkpt lat="34.558948" lon="10.5520462"><ele>11.666666666666666</ele><time>2026-04-25T13:11:00.817Z</time></trkpt><trkpt lat="34.5588653" lon="10.5518458"><ele>11.333333333333332</ele><time>2026-04-25T13:11:01.843Z</time></trkpt><trkpt lat="34.5587815" lon="10.5516451"><ele>11.0</ele><time>2026-04-25T13:11:02.812Z</time></trkpt><trkpt lat="34.5586977" lon="10.5514431"><ele>10.666666666666666</ele><time>2026-04-25T13:11:03.819Z</time></trkpt><trkpt lat="34.5586039" lon="10.5512452"><ele>10.333333333333334</ele><time>2026-04-25T13:11:04.841Z</time></trkpt><trkpt lat="34.5585018" lon="10.55105"><ele>10.0</ele><time>2026-04-25T13:11:05.812Z</time></trkpt><trkpt lat="34.5583905" lon="10.5508638"><ele>10.0</ele><time>2026-04-25T13:11:06.814Z</time></trkpt><trkpt lat="34.5582707" lon="10.5506777"><ele>10.0</ele><time>2026-04-25T13:11:07.829Z</time></trkpt><trkpt lat="34.5581439" lon="10.5504956"><ele>10.0</ele><time>2026-04-25T13:11:08.834Z</time></trkpt><trkpt lat="34.5580042" lon="10.5503212"><ele>10.0</ele><time>2026-04-25T13:11:09.857Z</time></trkpt><trkpt lat="34.5578591" lon="10.5501504"><ele>10.0</ele><time>2026-04-25T13:11:10.833Z</time></trkpt><trkpt lat="34.5577064" lon="10.549986"><ele>10.0</ele><time>2026-04-25T13:11:11.831Z</time></trkpt><trkpt lat="34.5575544" lon="10.5498213"><ele>10.0</ele><time>2026-04-25T13:11:12.824Z</time></trkpt><trkpt lat="34.5573975" lon="10.5496616"><ele>10.0</ele><time>2026-04-25T13:11:13.826Z</time></trkpt><trkpt lat="34.5572421" lon="10.5495016"><ele>10.0</ele><time>2026-04-25T13:11:14.824Z</time></trkpt><trkpt lat="34.5570818" lon="10.5493454"><ele>9.333333333333334</ele><time>2026-04-25T13:11:15.81Z</time></trkpt><trkpt lat="34.5569261" lon="10.5491894"><ele>8.666666666666666</ele><time>2026-04-25T13:11:16.823Z</time></trkpt><trkpt lat="34.5567723" lon="10.5490364"><ele>8.0</ele><time>2026-04-25T13:11:17.815Z</time></trkpt><trkpt lat="34.5566179" lon="10.5488841"><ele>8.0</ele><time>2026-04-25T13:11:18.834Z</time></trkpt><trkpt lat="34.556462" lon="10.5487316"><ele>8.0</ele><time>2026-04-25T13:11:19.818Z</time></trkpt><trkpt lat="34.5563054" lon="10.5485795"><ele>8.0</ele><time>2026-04-25T13:11:20.817Z</time></trkpt><trkpt lat="34.5561514" lon="10.5484303"><ele>8.333333333333332</ele><time>2026-04-25T13:11:21.816Z</time></trkpt><trkpt lat="34.5559975" lon="10.5482833"><ele>8.666666666666666</ele><time>2026-04-25T13:11:22.815Z</time></trkpt><trkpt lat="34.555844" lon="10.5481365"><ele>9.0</ele><time>2026-04-25T13:11:23.818Z</time></trkpt><trkpt lat="34.5556869" lon="10.5479845"><ele>9.0</ele><time>2026-04-25T13:11:24.832Z</time></trkpt><trkpt lat="34.5555359" lon="10.5478379"><ele>9.0</ele><time>2026-04-25T13:11:25.827Z</time></trkpt><trkpt lat="34.5553876" lon="10.5476858"><ele>9.0</ele><time>2026-04-25T13:11:26.826Z</time></trkpt><trkpt lat="34.5552388" lon="10.5475407"><ele>9.0</ele><time>2026-04-25T13:11:27.819Z</time></trkpt><trkpt lat="34.5550909" lon="10.5473943"><ele>9.0</ele><time>2026-04-25T13:11:28.828Z</time></trkpt><trkpt lat="34.5549459" lon="10.5472531"><ele>9.0</ele><time>2026-04-25T13:11:29.811Z</time></trkpt><trkpt lat="34.5547964" lon="10.5471112"><ele>9.0</ele><time>2026-04-25T13:11:30.812Z</time></trkpt><trkpt lat="34.554648" lon="10.5469706"><ele>9.0</ele><time>2026-04-25T13:11:31.804Z</time></trkpt><trkpt lat="34.5545053" lon="10.5468328"><ele>9.0</ele><time>2026-04-25T13:11:32.826Z</time></trkpt><trkpt lat="34.554362" lon="10.5466938"><ele>9.0</ele><time>2026-04-25T13:11:33.821Z</time></trkpt><trkpt lat="34.5542203" lon="10.5465489"><ele>9.0</ele><time>2026-04-25T13:11:34.82Z</time></trkpt><trkpt lat="34.5540756" lon="10.5464047"><ele>9.0</ele><time>2026-04-25T13:11:35.82Z</time></trkpt><trkpt lat="34.5539308" lon="10.546258"><ele>9.333333333333334</ele><time>2026-04-25T13:11:36.812Z</time></trkpt><trkpt lat="34.5537834" lon="10.546118"><ele>9.666666666666668</ele><time>2026-04-25T13:11:37.822Z</time></trkpt><trkpt lat="34.5536337" lon="10.5459691"><ele>10.0</ele><time>2026-04-25T13:11:38.829Z</time></trkpt><trkpt lat="34.5534848" lon="10.5458206"><ele>10.0</ele><time>2026-04-25T13:11:39.814Z</time></trkpt><trkpt lat="34.5533354" lon="10.5456667"><ele>10.0</ele><time>2026-04-25T13:11:40.815Z</time></trkpt><trkpt lat="34.5531901" lon="10.5455129"><ele>10.0</ele><time>2026-04-25T13:11:41.82Z</time></trkpt><trkpt lat="34.5530406" lon="10.5453529"><ele>10.0</ele><time>2026-04-25T13:11:42.827Z</time></trkpt><trkpt lat="34.5528868" lon="10.5451895"><ele>10.0</ele><time>2026-04-25T13:11:43.808Z</time></trkpt><trkpt lat="34.5527274" lon="10.5450146"><ele>10.0</ele><time>2026-04-25T13:11:44.819Z</time></trkpt><trkpt lat="34.5525688" lon="10.544839"><ele>9.333333333333334</ele><time>2026-04-25T13:11:45.836Z</time></trkpt><trkpt lat="34.5524095" lon="10.5446646"><ele>8.666666666666666</ele><time>2026-04-25T13:11:46.857Z</time></trkpt><trkpt lat="34.5522493" lon="10.5444941"><ele>8.0</ele><time>2026-04-25T13:11:47.825Z</time></trkpt><trkpt lat="34.5520855" lon="10.5443209"><ele>7.666666666666666</ele><time>2026-04-25T13:11:48.817Z</time></trkpt><trkpt lat="34.5519244" lon="10.5441485"><ele>7.333333333333334</ele><time>2026-04-25T13:11:49.821Z</time></trkpt><trkpt lat="34.5517614" lon="10.5439782"><ele>7.0</ele><time>2026-04-25T13:11:50.814Z</time></trkpt><trkpt lat="34.5515961" lon="10.543803"><ele>7.0</ele><time>2026-04-25T13:11:51.816Z</time></trkpt><trkpt lat="34.5514303" lon="10.5436262"><ele>7.0</ele><time>2026-04-25T13:11:52.816Z</time></trkpt><trkpt lat="34.5512611" lon="10.5434454"><ele>7.0</ele><time>2026-04-25T13:11:53.822Z</time></trkpt><trkpt lat="34.551092" lon="10.5432732"><ele>7.0</ele><time>2026-04-25T13:11:54.819Z</time></trkpt><trkpt lat="34.5509268" lon="10.5430987"><ele>7.0</ele><time>2026-04-25T13:11:55.824Z</time></trkpt><trkpt lat="34.5507644" lon="10.5429285"><ele>7.0</ele><time>2026-04-25T13:11:56.817Z</time></trkpt><trkpt lat="34.5506024" lon="10.5427595"><ele>6.666666666666667</ele><time>2026-04-25T13:11:57.814Z</time></trkpt><trkpt lat="34.5504487" lon="10.5425903"><ele>6.333333333333334</ele><time>2026-04-25T13:11:58.818Z</time></trkpt><trkpt lat="34.5502923" lon="10.5424235"><ele>6.0</ele><time>2026-04-25T13:11:59.823Z</time></trkpt><trkpt lat="34.5501359" lon="10.5422608"><ele>6.0</ele><time>2026-04-25T13:12:00.818Z</time></trkpt><trkpt lat="34.549983" lon="10.5420974"><ele>6.0</ele><time>2026-04-25T13:12:01.848Z</time></trkpt><trkpt lat="34.5498317" lon="10.5419315"><ele>6.0</ele><time>2026-04-25T13:12:02.819Z</time></trkpt><trkpt lat="34.5496818" lon="10.541764"><ele>6.333333333333334</ele><time>2026-04-25T13:12:03.812Z</time></trkpt><trkpt lat="34.5495318" lon="10.5416013"><ele>6.666666666666667</ele><time>2026-04-25T13:12:04.82Z</time></trkpt><trkpt lat="34.5493778" lon="10.541444"><ele>7.0</ele><time>2026-04-25T13:12:05.813Z</time></trkpt><trkpt lat="34.5492278" lon="10.5412854"><ele>6.333333333333334</ele><time>2026-04-25T13:12:06.818Z</time></trkpt><trkpt lat="34.5490791" lon="10.541131"><ele>5.666666666666667</ele><time>2026-04-25T13:12:07.814Z</time></trkpt><trkpt lat="34.5489357" lon="10.5409762"><ele>5.0</ele><time>2026-04-25T13:12:08.819Z</time></trkpt><trkpt lat="34.5487997" lon="10.540829"><ele>5.0</ele><time>2026-04-25T13:12:09.824Z</time></trkpt><trkpt lat="34.5486681" lon="10.54069"><ele>5.0</ele><time>2026-04-25T13:12:10.824Z</time></trkpt><trkpt lat="34.5485409" lon="10.5405603"><ele>5.0</ele><time>2026-04-25T13:12:11.827Z</time></trkpt><trkpt lat="34.5484218" lon="10.540436"><ele>5.25</ele><time>2026-04-25T13:12:12.819Z</time></trkpt><trkpt lat="34.5483101" lon="10.5403216"><ele>5.5</ele><time>2026-04-25T13:12:13.819Z</time></trkpt><trkpt lat="34.5482209" lon="10.5402133"><ele>5.75</ele><time>2026-04-25T13:12:14.824Z</time></trkpt><trkpt lat="34.5481423" lon="10.5401071"><ele>6.0</ele><time>2026-04-25T13:12:15.844Z</time></trkpt><trkpt lat="34.5480721" lon="10.5399997"><ele>6.0</ele><time>2026-04-25T13:12:16.863Z</time></trkpt><trkpt lat="34.548012" lon="10.5398889"><ele>6.0</ele><time>2026-04-25T13:12:17.826Z</time></trkpt><trkpt lat="34.5479395" lon="10.5397925"><ele>6.0</ele><time>2026-04-25T13:12:18.823Z</time></trkpt><trkpt lat="34.5478478" lon="10.5397057"><ele>6.0</ele><time>2026-04-25T13:12:19.814Z</time></trkpt><trkpt lat="34.547726" lon="10.5396122"><ele>6.0</ele><time>2026-04-25T13:12:20.827Z</time></trkpt><trkpt lat="34.5475957" lon="10.5394992"><ele>6.0</ele><time>2026-04-25T13:12:21.818Z</time></trkpt><trkpt lat="34.5474569" lon="10.5393714"><ele>6.0</ele><time>2026-04-25T13:12:22.816Z</time></trkpt><trkpt lat="34.5473182" lon="10.5392305"><ele>6.0</ele><time>2026-04-25T13:12:23.817Z</time></trkpt><trkpt lat="34.5471729" lon="10.5390822"><ele>6.0</ele><time>2026-04-25T13:12:24.816Z</time></trkpt><trkpt lat="34.5470231" lon="10.5389229"><ele>6.0</ele><time>2026-04-25T13:12:25.824Z</time></trkpt><trkpt lat="34.5468672" lon="10.5387579"><ele>6.333333333333334</ele><time>2026-04-25T13:12:26.814Z</time></trkpt><trkpt lat="34.5467057" lon="10.5385901"><ele>6.666666666666667</ele><time>2026-04-25T13:12:27.816Z</time></trkpt><trkpt lat="34.5465438" lon="10.538417"><ele>7.0</ele><time>2026-04-25T13:12:28.832Z</time></trkpt><trkpt lat="34.5463805" lon="10.538241"><ele>7.0</ele><time>2026-04-25T13:12:29.83Z</time></trkpt><trkpt lat="34.5462182" lon="10.5380659"><ele>7.0</ele><time>2026-04-25T13:12:30.818Z</time></trkpt><trkpt lat="34.5460513" lon="10.5378877"><ele>7.0</ele><time>2026-04-25T13:12:31.808Z</time></trkpt><trkpt lat="34.5458799" lon="10.5377121"><ele>6.0</ele><time>2026-04-25T13:12:32.83Z</time></trkpt><trkpt lat="34.5457101" lon="10.5375343"><ele>5.0</ele><time>2026-04-25T13:12:33.812Z</time></trkpt><trkpt lat="34.5455357" lon="10.537354"><ele>5.0</ele><time>2026-04-25T13:12:34.841Z</time></trkpt><trkpt lat="34.5453582" lon="10.537177"><ele>5.0</ele><time>2026-04-25T13:12:35.844Z</time></trkpt><trkpt lat="34.545176" lon="10.5370033"><ele>5.0</ele><time>2026-04-25T13:12:36.838Z</time></trkpt><trkpt lat="34.544991" lon="10.5368279"><ele>5.0</ele><time>2026-04-25T13:12:37.808Z</time></trkpt><trkpt lat="34.5448109" lon="10.5366603"><ele>5.0</ele><time>2026-04-25T13:12:38.809Z</time></trkpt><trkpt lat="34.5446296" lon="10.5364959"><ele>5.0</ele><time>2026-04-25T13:12:39.817Z</time></trkpt><trkpt lat="34.544444" lon="10.5363339"><ele>5.5</ele><time>2026-04-25T13:12:40.811Z</time></trkpt><trkpt lat="34.5442572" lon="10.5361736"><ele>6.0</ele><time>2026-04-25T13:12:41.816Z</time></trkpt><trkpt lat="34.5440711" lon="10.5360103"><ele>6.0</ele><time>2026-04-25T13:12:42.819Z</time></trkpt><trkpt lat="34.5438807" lon="10.535857"><ele>6.0</ele><time>2026-04-25T13:12:43.818Z</time></trkpt><trkpt lat="34.5436962" lon="10.535695"><ele>5.666666666666667</ele><time>2026-04-25T13:12:44.818Z</time></trkpt><trkpt lat="34.5435123" lon="10.5355367"><ele>5.333333333333334</ele><time>2026-04-25T13:12:45.822Z</time></trkpt><trkpt lat="34.5433331" lon="10.5353781"><ele>5.0</ele><time>2026-04-25T13:12:46.813Z</time></trkpt><trkpt lat="34.5431535" lon="10.5352154"><ele>5.5</ele><time>2026-04-25T13:12:47.818Z</time></trkpt><trkpt lat="34.5429692" lon="10.535058"><ele>6.0</ele><time>2026-04-25T13:12:48.836Z</time></trkpt><trkpt lat="34.5427831" lon="10.5348966"><ele>6.0</ele><time>2026-04-25T13:12:49.811Z</time></trkpt><trkpt lat="34.5425957" lon="10.5347362"><ele>6.0</ele><time>2026-04-25T13:12:50.803Z</time></trkpt><trkpt lat="34.5424098" lon="10.5345719"><ele>6.5</ele><time>2026-04-25T13:12:51.824Z</time></trkpt><trkpt lat="34.5422243" lon="10.5343989"><ele>7.0</ele><time>2026-04-25T13:12:52.809Z</time></trkpt><trkpt lat="34.5420368" lon="10.5342251"><ele>6.0</ele><time>2026-04-25T13:12:53.822Z</time></trkpt><trkpt lat="34.5418513" lon="10.5340429"><ele>5.0</ele><time>2026-04-25T13:12:54.81Z</time></trkpt><trkpt lat="34.5416682" lon="10.5338629"><ele>5.5</ele><time>2026-04-25T13:12:55.817Z</time></trkpt><trkpt lat="34.5414826" lon="10.5336817"><ele>6.0</ele><time>2026-04-25T13:12:56.816Z</time></trkpt><trkpt lat="34.5412981" lon="10.5335"><ele>5.5</ele><time>2026-04-25T13:12:57.818Z</time></trkpt><trkpt lat="34.5411127" lon="10.5333184"><ele>5.0</ele><time>2026-04-25T13:12:58.81Z</time></trkpt><trkpt lat="34.5409321" lon="10.5331371"><ele>5.0</ele><time>2026-04-25T13:12:59.817Z</time></trkpt><trkpt lat="34.5407476" lon="10.5329504"><ele>5.0</ele><time>2026-04-25T13:13:00.812Z</time></trkpt><trkpt lat="34.5405701" lon="10.5327641"><ele>5.0</ele><time>2026-04-25T13:13:01.858Z</time></trkpt><trkpt lat="34.54039" lon="10.5325748"><ele>5.0</ele><time>2026-04-25T13:13:02.819Z</time></trkpt><trkpt lat="34.5402171" lon="10.5323823"><ele>5.0</ele><time>2026-04-25T13:13:03.816Z</time></trkpt><trkpt lat="34.5400445" lon="10.5321882"><ele>5.0</ele><time>2026-04-25T13:13:04.826Z</time></trkpt><trkpt lat="34.5398691" lon="10.5319926"><ele>4.0</ele><time>2026-04-25T13:13:05.805Z</time></trkpt><trkpt lat="34.5396997" lon="10.531804"><ele>3.0</ele><time>2026-04-25T13:13:06.81Z</time></trkpt><trkpt lat="34.5395266" lon="10.5316159"><ele>3.0</ele><time>2026-04-25T13:13:07.814Z</time></trkpt><trkpt lat="34.539354" lon="10.5314342"><ele>3.0</ele><time>2026-04-25T13:13:08.807Z</time></trkpt><trkpt lat="34.5391842" lon="10.5312506"><ele>4.0</ele><time>2026-04-25T13:13:09.811Z</time></trkpt><trkpt lat="34.5390162" lon="10.5310678"><ele>5.0</ele><time>2026-04-25T13:13:10.822Z</time></trkpt><trkpt lat="34.5388461" lon="10.530884"><ele>4.5</ele><time>2026-04-25T13:13:11.837Z</time></trkpt><trkpt lat="34.5386751" lon="10.5307076"><ele>4.0</ele><time>2026-04-25T13:13:12.815Z</time></trkpt><trkpt lat="34.5385063" lon="10.5305248"><ele>4.0</ele><time>2026-04-25T13:13:13.819Z</time></trkpt><trkpt lat="34.5383353" lon="10.5303431"><ele>4.0</ele><time>2026-04-25T13:13:14.821Z</time></trkpt><trkpt lat="34.5381631" lon="10.5301576"><ele>4.0</ele><time>2026-04-25T13:13:15.813Z</time></trkpt><trkpt lat="34.5379936" lon="10.5299738"><ele>4.0</ele><time>2026-04-25T13:13:16.811Z</time></trkpt><trkpt lat="34.5378274" lon="10.5297807"><ele>4.0</ele><time>2026-04-25T13:13:17.819Z</time></trkpt><trkpt lat="34.5376641" lon="10.5295817"><ele>4.0</ele><time>2026-04-25T13:13:18.811Z</time></trkpt><trkpt lat="34.5375061" lon="10.5293775"><ele>3.5</ele><time>2026-04-25T13:13:19.821Z</time></trkpt><trkpt lat="34.5373546" lon="10.529168"><ele>3.0</ele><time>2026-04-25T13:13:20.819Z</time></trkpt><trkpt lat="34.5372083" lon="10.5289574"><ele>3.0</ele><time>2026-04-25T13:13:21.816Z</time></trkpt><trkpt lat="34.5370656" lon="10.5287392"><ele>3.0</ele><time>2026-04-25T13:13:22.816Z</time></trkpt><trkpt lat="34.5369249" lon="10.5285177"><ele>3.0</ele><time>2026-04-25T13:13:23.806Z</time></trkpt><trkpt lat="34.5367835" lon="10.5282916"><ele>3.0</ele><time>2026-04-25T13:13:24.818Z</time></trkpt><trkpt lat="34.5366519" lon="10.5280649"><ele>4.5</ele><time>2026-04-25T13:13:25.822Z</time></trkpt><trkpt lat="34.5365235" lon="10.5278384"><ele>6.0</ele><time>2026-04-25T13:13:26.822Z</time></trkpt><trkpt lat="34.5363938" lon="10.5276138"><ele>6.0</ele><time>2026-04-25T13:13:27.821Z</time></trkpt><trkpt lat="34.5362628" lon="10.5273829"><ele>6.0</ele><time>2026-04-25T13:13:28.805Z</time></trkpt><trkpt lat="34.5361346" lon="10.5271533"><ele>5.0</ele><time>2026-04-25T13:13:29.811Z</time></trkpt><trkpt lat="34.5360095" lon="10.5269254"><ele>4.0</ele><time>2026-04-25T13:13:30.825Z</time></trkpt><trkpt lat="34.5358844" lon="10.5267019"><ele>3.0</ele><time>2026-04-25T13:13:31.823Z</time></trkpt><trkpt lat="34.5357631" lon="10.5264751"><ele>3.0</ele><time>2026-04-25T13:13:32.826Z</time></trkpt><trkpt lat="34.5356398" lon="10.5262554"><ele>3.0</ele><time>2026-04-25T13:13:33.824Z</time></trkpt><trkpt lat="34.5355154" lon="10.5260304"><ele>3.0</ele><time>2026-04-25T13:13:34.82Z</time></trkpt><trkpt lat="34.5353881" lon="10.5258072"><ele>3.0</ele><time>2026-04-25T13:13:35.821Z</time></trkpt><trkpt lat="34.5352625" lon="10.5255783"><ele>3.0</ele><time>2026-04-25T13:13:36.816Z</time></trkpt><trkpt lat="34.5351407" lon="10.5253551"><ele>3.0</ele><time>2026-04-25T13:13:37.819Z</time></trkpt><trkpt lat="34.5350131" lon="10.5251274"><ele>4.5</ele><time>2026-04-25T13:13:38.819Z</time></trkpt><trkpt lat="34.5348854" lon="10.5248988"><ele>6.0</ele><time>2026-04-25T13:13:39.818Z</time></trkpt><trkpt lat="34.53476" lon="10.5246715"><ele>6.5</ele><time>2026-04-25T13:13:40.819Z</time></trkpt><trkpt lat="34.5346312" lon="10.5244444"><ele>7.0</ele><time>2026-04-25T13:13:41.824Z</time></trkpt><trkpt lat="34.534505" lon="10.5242159"><ele>6.0</ele><time>2026-04-25T13:13:42.813Z</time></trkpt><trkpt lat="34.5343795" lon="10.523991"><ele>5.0</ele><time>2026-04-25T13:13:43.811Z</time></trkpt><trkpt lat="34.5342531" lon="10.5237676"><ele>4.0</ele><time>2026-04-25T13:13:44.824Z</time></trkpt><trkpt lat="34.53413" lon="10.5235427"><ele>4.0</ele><time>2026-04-25T13:13:45.828Z</time></trkpt><trkpt lat="34.5340029" lon="10.523321"><ele>4.0</ele><time>2026-04-25T13:13:46.827Z</time></trkpt><trkpt lat="34.5338794" lon="10.5230983"><ele>4.0</ele><time>2026-04-25T13:13:47.82Z</time></trkpt><trkpt lat="34.5337574" lon="10.5228749"><ele>3.6666666666666665</ele><time>2026-04-25T13:13:48.817Z</time></trkpt><trkpt lat="34.5336337" lon="10.5226518"><ele>3.333333333333333</ele><time>2026-04-25T13:13:49.814Z</time></trkpt><trkpt lat="34.5335119" lon="10.5224326"><ele>3.0</ele><time>2026-04-25T13:13:50.819Z</time></trkpt><trkpt lat="34.5333917" lon="10.5222133"><ele>3.666666666666667</ele><time>2026-04-25T13:13:51.815Z</time></trkpt><trkpt lat="34.5332701" lon="10.5219904"><ele>4.333333333333334</ele><time>2026-04-25T13:13:52.817Z</time></trkpt><trkpt lat="34.5331508" lon="10.5217721"><ele>5.0</ele><time>2026-04-25T13:13:53.813Z</time></trkpt><trkpt lat="34.5330275" lon="10.5215523"><ele>5.0</ele><time>2026-04-25T13:13:54.829Z</time></trkpt><trkpt lat="34.5329042" lon="10.5213334"><ele>5.0</ele><time>2026-04-25T13:13:55.806Z</time></trkpt><trkpt lat="34.5327821" lon="10.5211173"><ele>5.0</ele><time>2026-04-25T13:13:56.82Z</time></trkpt><trkpt lat="34.5326605" lon="10.5209007"><ele>5.333333333333334</ele><time>2026-04-25T13:13:57.817Z</time></trkpt><trkpt lat="34.5325412" lon="10.5206798"><ele>5.666666666666667</ele><time>2026-04-25T13:13:58.823Z</time></trkpt><trkpt lat="34.5324203" lon="10.5204639"><ele>6.0</ele><time>2026-04-25T13:13:59.822Z</time></trkpt><trkpt lat="34.5322992" lon="10.5202445"><ele>6.0</ele><time>2026-04-25T13:14:00.815Z</time></trkpt><trkpt lat="34.5321772" lon="10.520028"><ele>6.0</ele><time>2026-04-25T13:14:01.846Z</time></trkpt><trkpt lat="34.5320559" lon="10.5198112"><ele>6.0</ele><time>2026-04-25T13:14:02.811Z</time></trkpt><trkpt lat="34.531931" lon="10.519594"><ele>5.666666666666667</ele><time>2026-04-25T13:14:03.822Z</time></trkpt><trkpt lat="34.5318118" lon="10.5193859"><ele>5.333333333333334</ele><time>2026-04-25T13:14:04.818Z</time></trkpt><trkpt lat="34.5317092" lon="10.5191964"><ele>5.0</ele><time>2026-04-25T13:14:05.81Z</time></trkpt><trkpt lat="34.5316089" lon="10.5190125"><ele>5.0</ele><time>2026-04-25T13:14:06.823Z</time></trkpt><trkpt lat="34.5315135" lon="10.5188453"><ele>5.0</ele><time>2026-04-25T13:14:07.82Z</time></trkpt><trkpt lat="34.5314142" lon="10.5186845"><ele>5.0</ele><time>2026-04-25T13:14:08.818Z</time></trkpt><trkpt lat="34.531312" lon="10.5185334"><ele>4.5</ele><time>2026-04-25T13:14:09.814Z</time></trkpt><trkpt lat="34.5312153" lon="10.5183861"><ele>4.0</ele><time>2026-04-25T13:14:10.809Z</time></trkpt><trkpt lat="34.5311261" lon="10.5182456"><ele>3.5</ele><time>2026-04-25T13:14:11.811Z</time></trkpt><trkpt lat="34.5310441" lon="10.5181063"><ele>3.0</ele><time>2026-04-25T13:14:12.816Z</time></trkpt><trkpt lat="34.530975" lon="10.5179682"><ele>3.0</ele><time>2026-04-25T13:14:13.828Z</time></trkpt><trkpt lat="34.5309045" lon="10.517828"><ele>3.0</ele><time>2026-04-25T13:14:14.814Z</time></trkpt><trkpt lat="34.5308454" lon="10.5176826"><ele>3.0</ele><time>2026-04-25T13:14:15.802Z</time></trkpt><trkpt lat="34.5307881" lon="10.5175387"><ele>3.0</ele><time>2026-04-25T13:14:16.812Z</time></trkpt><trkpt lat="34.5307364" lon="10.5173991"><ele>3.0</ele><time>2026-04-25T13:14:17.824Z</time></trkpt><trkpt lat="34.5306805" lon="10.5172617"><ele>3.0</ele><time>2026-04-25T13:14:18.808Z</time></trkpt><trkpt lat="34.5306278" lon="10.5171219"><ele>3.0</ele><time>2026-04-25T13:14:19.808Z</time></trkpt><trkpt lat="34.5305784" lon="10.5169796"><ele>3.0</ele><time>2026-04-25T13:14:20.821Z</time></trkpt><trkpt lat="34.5305292" lon="10.5168374"><ele>3.0</ele><time>2026-04-25T13:14:21.825Z</time></trkpt><trkpt lat="34.5304767" lon="10.5166959"><ele>3.0</ele><time>2026-04-25T13:14:22.819Z</time></trkpt><trkpt lat="34.5304261" lon="10.5165525"><ele>3.0</ele><time>2026-04-25T13:14:23.813Z</time></trkpt><trkpt lat="34.5303736" lon="10.5164141"><ele>3.0</ele><time>2026-04-25T13:14:24.823Z</time></trkpt><trkpt lat="34.530322" lon="10.5162853"><ele>3.0</ele><time>2026-04-25T13:14:25.826Z</time></trkpt><trkpt lat="34.5302741" lon="10.5161627"><ele>3.0</ele><time>2026-04-25T13:14:26.8Z</time></trkpt><trkpt lat="34.530231" lon="10.5160433"><ele>3.0</ele><time>2026-04-25T13:14:27.81Z</time></trkpt><trkpt lat="34.5301916" lon="10.5159372"><ele>3.0</ele><time>2026-04-25T13:14:28.812Z</time></trkpt><trkpt lat="34.530163" lon="10.5158365"><ele>3.0</ele><time>2026-04-25T13:14:29.815Z</time></trkpt><trkpt lat="34.5301336" lon="10.5157491"><ele>3.0</ele><time>2026-04-25T13:14:30.814Z</time></trkpt><trkpt lat="34.5300978" lon="10.5156671"><ele>3.0</ele><time>2026-04-25T13:14:31.868Z</time></trkpt><trkpt lat="34.5300549" lon="10.5155781"><ele>3.0</ele><time>2026-04-25T13:14:32.813Z</time></trkpt><trkpt lat="34.5299999" lon="10.5154694"><ele>3.0</ele><time>2026-04-25T13:14:33.829Z</time></trkpt><trkpt lat="34.5299479" lon="10.5153466"><ele>3.0</ele><time>2026-04-25T13:14:34.814Z</time></trkpt><trkpt lat="34.5298927" lon="10.5152124"><ele>3.25</ele><time>2026-04-25T13:14:35.824Z</time></trkpt><trkpt lat="34.5298401" lon="10.5150679"><ele>3.5</ele><time>2026-04-25T13:14:36.818Z</time></trkpt><trkpt lat="34.5297928" lon="10.5149177"><ele>3.75</ele><time>2026-04-25T13:14:37.823Z</time></trkpt><trkpt lat="34.5297421" lon="10.5147566"><ele>4.0</ele><time>2026-04-25T13:14:38.816Z</time></trkpt><trkpt lat="34.5296853" lon="10.5146089"><ele>4.0</ele><time>2026-04-25T13:14:39.811Z</time></trkpt><trkpt lat="34.5296264" lon="10.514469"><ele>4.0</ele><time>2026-04-25T13:14:40.817Z</time></trkpt><trkpt lat="34.5295689" lon="10.5143394"><ele>4.0</ele><time>2026-04-25T13:14:41.81Z</time></trkpt><trkpt lat="34.5295178" lon="10.5142126"><ele>4.0</ele><time>2026-04-25T13:14:42.82Z</time></trkpt><trkpt lat="34.5294657" lon="10.5140829"><ele>4.0</ele><time>2026-04-25T13:14:43.822Z</time></trkpt><trkpt lat="34.5294132" lon="10.5139531"><ele>4.0</ele><time>2026-04-25T13:14:44.825Z</time></trkpt><trkpt lat="34.5293628" lon="10.5138206"><ele>4.0</ele><time>2026-04-25T13:14:45.82Z</time></trkpt><trkpt lat="34.5293117" lon="10.5136909"><ele>4.0</ele><time>2026-04-25T13:14:46.839Z</time></trkpt><trkpt lat="34.5292585" lon="10.5135574"><ele>4.25</ele><time>2026-04-25T13:14:47.811Z</time></trkpt><trkpt lat="34.5292046" lon="10.5134212"><ele>4.5</ele><time>2026-04-25T13:14:48.822Z</time></trkpt><trkpt lat="34.5291472" lon="10.5132833"><ele>4.75</ele><time>2026-04-25T13:14:49.82Z</time></trkpt><trkpt lat="34.5290931" lon="10.5131437"><ele>5.0</ele><time>2026-04-25T13:14:50.819Z</time></trkpt><trkpt lat="34.5290347" lon="10.5130015"><ele>5.0</ele><time>2026-04-25T13:14:51.822Z</time></trkpt><trkpt lat="34.5289787" lon="10.5128603"><ele>5.0</ele><time>2026-04-25T13:14:52.818Z</time></trkpt><trkpt lat="34.5289217" lon="10.5127194"><ele>5.0</ele><time>2026-04-25T13:14:53.825Z</time></trkpt><trkpt lat="34.5288647" lon="10.5125769"><ele>5.0</ele><time>2026-04-25T13:14:54.82Z</time></trkpt><trkpt lat="34.5288104" lon="10.5124364"><ele>5.0</ele><time>2026-04-25T13:14:55.821Z</time></trkpt><trkpt lat="34.5287535" lon="10.5122949"><ele>5.0</ele><time>2026-04-25T13:14:56.821Z</time></trkpt><trkpt lat="34.5286944" lon="10.5121576"><ele>5.0</ele><time>2026-04-25T13:14:57.823Z</time></trkpt><trkpt lat="34.5286401" lon="10.5120194"><ele>5.0</ele><time>2026-04-25T13:14:58.834Z</time></trkpt><trkpt lat="34.5285827" lon="10.5118819"><ele>4.5</ele><time>2026-04-25T13:14:59.821Z</time></trkpt><trkpt lat="34.5285284" lon="10.51175"><ele>4.0</ele><time>2026-04-25T13:15:00.821Z</time></trkpt><trkpt lat="34.5284711" lon="10.5116177"><ele>3.5</ele><time>2026-04-25T13:15:01.853Z</time></trkpt><trkpt lat="34.5284114" lon="10.5114974"><ele>3.0</ele><time>2026-04-25T13:15:02.807Z</time></trkpt><trkpt lat="34.5283505" lon="10.5113749"><ele>3.0</ele><time>2026-04-25T13:15:03.809Z</time></trkpt><trkpt lat="34.5282918" lon="10.5112537"><ele>3.0</ele><time>2026-04-25T13:15:04.826Z</time></trkpt><trkpt lat="34.5282273" lon="10.5111304"><ele>3.0</ele><time>2026-04-25T13:15:05.824Z</time></trkpt><trkpt lat="34.5281602" lon="10.5110153"><ele>3.0</ele><time>2026-04-25T13:15:06.815Z</time></trkpt><trkpt lat="34.5280899" lon="10.5109028"><ele>3.25</ele><time>2026-04-25T13:15:07.815Z</time></trkpt><trkpt lat="34.5280151" lon="10.5107854"><ele>3.5</ele><time>2026-04-25T13:15:08.808Z</time></trkpt><trkpt lat="34.527942" lon="10.5106728"><ele>3.75</ele><time>2026-04-25T13:15:09.812Z</time></trkpt><trkpt lat="34.5278668" lon="10.5105638"><ele>4.0</ele><time>2026-04-25T13:15:10.813Z</time></trkpt><trkpt lat="34.5277945" lon="10.5104557"><ele>4.0</ele><time>2026-04-25T13:15:11.827Z</time></trkpt><trkpt lat="34.5277201" lon="10.5103475"><ele>4.0</ele><time>2026-04-25T13:15:12.818Z</time></trkpt><trkpt lat="34.5276469" lon="10.5102327"><ele>4.0</ele><time>2026-04-25T13:15:13.819Z</time></trkpt><trkpt lat="34.5275749" lon="10.5101147"><ele>4.0</ele><time>2026-04-25T13:15:14.82Z</time></trkpt><trkpt lat="34.5275011" lon="10.5100024"><ele>4.0</ele><time>2026-04-25T13:15:15.821Z</time></trkpt><trkpt lat="34.5274253" lon="10.5098841"><ele>4.0</ele><time>2026-04-25T13:15:16.866Z</time></trkpt><trkpt lat="34.5273482" lon="10.5097678"><ele>4.0</ele><time>2026-04-25T13:15:17.817Z</time></trkpt><trkpt lat="34.5272745" lon="10.5096537"><ele>4.0</ele><time>2026-04-25T13:15:18.83Z</time></trkpt><trkpt lat="34.5271993" lon="10.5095393"><ele>3.75</ele><time>2026-04-25T13:15:19.811Z</time></trkpt><trkpt lat="34.5271214" lon="10.509419"><ele>3.5</ele><time>2026-04-25T13:15:20.813Z</time></trkpt><trkpt lat="34.5270445" lon="10.5093022"><ele>3.25</ele><time>2026-04-25T13:15:21.828Z</time></trkpt><trkpt lat="34.5269635" lon="10.5091857"><ele>3.0</ele><time>2026-04-25T13:15:22.81Z</time></trkpt><trkpt lat="34.526882" lon="10.509071"><ele>3.0</ele><time>2026-04-25T13:15:23.814Z</time></trkpt><trkpt lat="34.5268032" lon="10.5089562"><ele>3.0</ele><time>2026-04-25T13:15:24.808Z</time></trkpt><trkpt lat="34.5267252" lon="10.5088431"><ele>3.0</ele><time>2026-04-25T13:15:25.824Z</time></trkpt><trkpt lat="34.5266484" lon="10.5087339"><ele>3.0</ele><time>2026-04-25T13:15:26.816Z</time></trkpt><trkpt lat="34.5265749" lon="10.5086171"><ele>4.0</ele><time>2026-04-25T13:15:27.816Z</time></trkpt><trkpt lat="34.5264992" lon="10.5085013"><ele>5.0</ele><time>2026-04-25T13:15:28.822Z</time></trkpt><trkpt lat="34.5264202" lon="10.5083862"><ele>6.0</ele><time>2026-04-25T13:15:29.838Z</time></trkpt><trkpt lat="34.526343" lon="10.5082613"><ele>7.0</ele><time>2026-04-25T13:15:30.825Z</time></trkpt><trkpt lat="34.5262642" lon="10.5081329"><ele>6.75</ele><time>2026-04-25T13:15:31.831Z</time></trkpt><trkpt lat="34.5261878" lon="10.5080028"><ele>6.5</ele><time>2026-04-25T13:15:32.808Z</time></trkpt><trkpt lat="34.5261085" lon="10.5078715"><ele>6.25</ele><time>2026-04-25T13:15:33.808Z</time></trkpt><trkpt lat="34.5260344" lon="10.5077376"><ele>6.0</ele><time>2026-04-25T13:15:34.814Z</time></trkpt><trkpt lat="34.525963" lon="10.5075988"><ele>6.0</ele><time>2026-04-25T13:15:35.816Z</time></trkpt><trkpt lat="34.5258978" lon="10.5074671"><ele>6.0</ele><time>2026-04-25T13:15:36.822Z</time></trkpt><trkpt lat="34.525831" lon="10.5073327"><ele>6.0</ele><time>2026-04-25T13:15:37.823Z</time></trkpt><trkpt lat="34.5257692" lon="10.5071999"><ele>6.0</ele><time>2026-04-25T13:15:38.818Z</time></trkpt><trkpt lat="34.525712" lon="10.5070636"><ele>6.25</ele><time>2026-04-25T13:15:39.808Z</time></trkpt><trkpt lat="34.5256551" lon="10.5069227"><ele>6.5</ele><time>2026-04-25T13:15:40.826Z</time></trkpt><trkpt lat="34.5255956" lon="10.5067901"><ele>6.75</ele><time>2026-04-25T13:15:41.81Z</time></trkpt><trkpt lat="34.5255407" lon="10.5066585"><ele>7.0</ele><time>2026-04-25T13:15:42.807Z</time></trkpt><trkpt lat="34.5254839" lon="10.5065279"><ele>7.0</ele><time>2026-04-25T13:15:43.82Z</time></trkpt><trkpt lat="34.5254255" lon="10.506391"><ele>7.0</ele><time>2026-04-25T13:15:44.82Z</time></trkpt><trkpt lat="34.5253759" lon="10.5062497"><ele>7.0</ele><time>2026-04-25T13:15:45.814Z</time></trkpt><trkpt lat="34.5253206" lon="10.5061062"><ele>7.0</ele><time>2026-04-25T13:15:46.823Z</time></trkpt><trkpt lat="34.5252637" lon="10.5059575"><ele>6.0</ele><time>2026-04-25T13:15:47.806Z</time></trkpt><trkpt lat="34.5252065" lon="10.5058119"><ele>5.0</ele><time>2026-04-25T13:15:48.813Z</time></trkpt><trkpt lat="34.5251505" lon="10.5056691"><ele>4.0</ele><time>2026-04-25T13:15:49.818Z</time></trkpt><trkpt lat="34.5250939" lon="10.5055261"><ele>3.0</ele><time>2026-04-25T13:15:50.816Z</time></trkpt><trkpt lat="34.5250295" lon="10.5053847"><ele>3.0</ele><time>2026-04-25T13:15:51.823Z</time></trkpt><trkpt lat="34.5249665" lon="10.505234"><ele>3.0</ele><time>2026-04-25T13:15:52.814Z</time></trkpt><trkpt lat="34.5249088" lon="10.5050825"><ele>3.0</ele><time>2026-04-25T13:15:53.82Z</time></trkpt><trkpt lat="34.5248471" lon="10.5049297"><ele>3.0</ele><time>2026-04-25T13:15:54.823Z</time></trkpt><trkpt lat="34.5247842" lon="10.5047792"><ele>3.0</ele><time>2026-04-25T13:15:55.821Z</time></trkpt><trkpt lat="34.5247197" lon="10.5046289"><ele>3.0</ele><time>2026-04-25T13:15:56.811Z</time></trkpt><trkpt lat="34.5246568" lon="10.5044792"><ele>3.0</ele><time>2026-04-25T13:15:57.817Z</time></trkpt><trkpt lat="34.5245942" lon="10.5043343"><ele>3.0</ele><time>2026-04-25T13:15:58.819Z</time></trkpt><trkpt lat="34.5245302" lon="10.5041954"><ele>2.75</ele><time>2026-04-25T13:15:59.815Z</time></trkpt><trkpt lat="34.5244654" lon="10.5040595"><ele>2.5</ele><time>2026-04-25T13:16:00.809Z</time></trkpt><trkpt lat="34.5244005" lon="10.5039263"><ele>2.25</ele><time>2026-04-25T13:16:01.852Z</time></trkpt><trkpt lat="34.5243335" lon="10.5037924"><ele>2.0</ele><time>2026-04-25T13:16:02.819Z</time></trkpt><trkpt lat="34.5242631" lon="10.5036608"><ele>2.0</ele><time>2026-04-25T13:16:03.821Z</time></trkpt><trkpt lat="34.5241918" lon="10.5035285"><ele>2.0</ele><time>2026-04-25T13:16:04.825Z</time></trkpt><trkpt lat="34.5241274" lon="10.5033976"><ele>2.0</ele><time>2026-04-25T13:16:05.822Z</time></trkpt><trkpt lat="34.5240668" lon="10.5032711"><ele>2.0</ele><time>2026-04-25T13:16:06.814Z</time></trkpt><trkpt lat="34.524004" lon="10.5031512"><ele>2.0</ele><time>2026-04-25T13:16:07.803Z</time></trkpt><trkpt lat="34.5239422" lon="10.5030298"><ele>2.0</ele><time>2026-04-25T13:16:08.819Z</time></trkpt><trkpt lat="34.5238835" lon="10.5029129"><ele>2.0</ele><time>2026-04-25T13:16:09.809Z</time></trkpt><trkpt lat="34.5238233" lon="10.5027944"><ele>2.0</ele><time>2026-04-25T13:16:10.818Z</time></trkpt><trkpt lat="34.5237655" lon="10.5026774"><ele>2.0</ele><time>2026-04-25T13:16:11.822Z</time></trkpt><trkpt lat="34.5237094" lon="10.502563"><ele>2.0</ele><time>2026-04-25T13:16:12.82Z</time></trkpt><trkpt lat="34.523652" lon="10.5024554"><ele>2.0</ele><time>2026-04-25T13:16:13.816Z</time></trkpt><trkpt lat="34.5235968" lon="10.5023566"><ele>2.0</ele><time>2026-04-25T13:16:14.827Z</time></trkpt><trkpt lat="34.523548" lon="10.5022554"><ele>2.0</ele><time>2026-04-25T13:16:15.819Z</time></trkpt><trkpt lat="34.5235015" lon="10.5021592"><ele>2.2</ele><time>2026-04-25T13:16:16.833Z</time></trkpt><trkpt lat="34.5234572" lon="10.5020716"><ele>2.4000000000000004</ele><time>2026-04-25T13:16:17.808Z</time></trkpt><trkpt lat="34.5234107" lon="10.5019744"><ele>2.5999999999999996</ele><time>2026-04-25T13:16:18.818Z</time></trkpt><trkpt lat="34.5233636" lon="10.5018732"><ele>2.8</ele><time>2026-04-25T13:16:19.813Z</time></trkpt><trkpt lat="34.5233133" lon="10.5017702"><ele>3.0</ele><time>2026-04-25T13:16:20.829Z</time></trkpt><trkpt lat="34.5232619" lon="10.5016649"><ele>3.0</ele><time>2026-04-25T13:16:21.825Z</time></trkpt><trkpt lat="34.523209" lon="10.5015539"><ele>3.0</ele><time>2026-04-25T13:16:22.81Z</time></trkpt><trkpt lat="34.523153" lon="10.5014416"><ele>3.0</ele><time>2026-04-25T13:16:23.809Z</time></trkpt><trkpt lat="34.5230965" lon="10.501338"><ele>3.0</ele><time>2026-04-25T13:16:24.814Z</time></trkpt><trkpt lat="34.523045" lon="10.5012312"><ele>3.0</ele><time>2026-04-25T13:16:25.825Z</time></trkpt><trkpt lat="34.5229942" lon="10.501121"><ele>3.2</ele><time>2026-04-25T13:16:26.836Z</time></trkpt><trkpt lat="34.5229413" lon="10.5010162"><ele>3.4</ele><time>2026-04-25T13:16:27.813Z</time></trkpt><trkpt lat="34.5228904" lon="10.5009179"><ele>3.6000000000000005</ele><time>2026-04-25T13:16:28.819Z</time></trkpt><trkpt lat="34.5228378" lon="10.5008214"><ele>3.8000000000000003</ele><time>2026-04-25T13:16:29.813Z</time></trkpt><trkpt lat="34.5227887" lon="10.5007263"><ele>4.0</ele><time>2026-04-25T13:16:30.817Z</time></trkpt><trkpt lat="34.5227402" lon="10.5006258"><ele>3.6</ele><time>2026-04-25T13:16:31.824Z</time></trkpt><trkpt lat="34.5226868" lon="10.5005174"><ele>3.2</ele><time>2026-04-25T13:16:32.81Z</time></trkpt><trkpt lat="34.522635" lon="10.5004166"><ele>2.8000000000000003</ele><time>2026-04-25T13:16:33.817Z</time></trkpt><trkpt lat="34.5225835" lon="10.5003163"><ele>2.4000000000000004</ele><time>2026-04-25T13:16:34.824Z</time></trkpt><trkpt lat="34.5225342" lon="10.5002225"><ele>2.0</ele><time>2026-04-25T13:16:35.811Z</time></trkpt><trkpt lat="34.5224804" lon="10.5001224"><ele>2.0</ele><time>2026-04-25T13:16:36.815Z</time></trkpt><trkpt lat="34.5224297" lon="10.500021"><ele>2.0</ele><time>2026-04-25T13:16:37.817Z</time></trkpt><trkpt lat="34.5223849" lon="10.4999222"><ele>2.0</ele><time>2026-04-25T13:16:38.811Z</time></trkpt><trkpt lat="34.5223456" lon="10.4998247"><ele>2.0</ele><time>2026-04-25T13:16:39.815Z</time></trkpt><trkpt lat="34.5223025" lon="10.4997278"><ele>2.0</ele><time>2026-04-25T13:16:40.816Z</time></trkpt><trkpt lat="34.5222561" lon="10.4996309"><ele>2.1666666666666665</ele><time>2026-04-25T13:16:41.815Z</time></trkpt><trkpt lat="34.5222127" lon="10.4995364"><ele>2.333333333333333</ele><time>2026-04-25T13:16:42.82Z</time></trkpt><trkpt lat="34.522169" lon="10.4994465"><ele>2.5</ele><time>2026-04-25T13:16:43.826Z</time></trkpt><trkpt lat="34.5221209" lon="10.4993565"><ele>2.6666666666666665</ele><time>2026-04-25T13:16:44.817Z</time></trkpt><trkpt lat="34.5220761" lon="10.4992647"><ele>2.8333333333333335</ele><time>2026-04-25T13:16:45.821Z</time></trkpt><trkpt lat="34.5220328" lon="10.4991769"><ele>3.0</ele><time>2026-04-25T13:16:46.821Z</time></trkpt><trkpt lat="34.5219943" lon="10.4990895"><ele>3.0</ele><time>2026-04-25T13:16:47.814Z</time></trkpt><trkpt lat="34.521959" lon="10.4990026"><ele>3.0</ele><time>2026-04-25T13:16:48.827Z</time></trkpt><trkpt lat="34.521932" lon="10.4989201"><ele>3.0</ele><time>2026-04-25T13:16:49.814Z</time></trkpt><trkpt lat="34.5219109" lon="10.4988378"><ele>3.0</ele><time>2026-04-25T13:16:50.823Z</time></trkpt><trkpt lat="34.521895" lon="10.4987526"><ele>3.0</ele><time>2026-04-25T13:16:51.822Z</time></trkpt><trkpt lat="34.5218787" lon="10.4986759"><ele>3.0</ele><time>2026-04-25T13:16:52.833Z</time></trkpt><trkpt lat="34.5218587" lon="10.4985291"><ele>2.8333333333333335</ele><time>2026-04-25T13:16:54.82Z</time></trkpt><trkpt lat="34.5218473" lon="10.4983786"><ele>2.6666666666666665</ele><time>2026-04-25T13:16:56.808Z</time></trkpt><trkpt lat="34.5218398" lon="10.4983008"><ele>2.5</ele><time>2026-04-25T13:16:57.81Z</time></trkpt><trkpt lat="34.521828" lon="10.4982213"><ele>2.333333333333333</ele><time>2026-04-25T13:16:58.812Z</time></trkpt><trkpt lat="34.5218212" lon="10.4981409"><ele>2.1666666666666665</ele><time>2026-04-25T13:16:59.825Z</time></trkpt><trkpt lat="34.5218123" lon="10.4980611"><ele>2.0</ele><time>2026-04-25T13:17:00.816Z</time></trkpt><trkpt lat="34.521799" lon="10.4979861"><ele>1.9999999999999998</ele><time>2026-04-25T13:17:01.836Z</time></trkpt><trkpt lat="34.5217871" lon="10.4979074"><ele>2.0</ele><time>2026-04-25T13:17:02.81Z</time></trkpt><trkpt lat="34.5217784" lon="10.4978305"><ele>2.0</ele><time>2026-04-25T13:17:03.822Z</time></trkpt><trkpt lat="34.5217579" lon="10.4977016"><ele>2.0</ele><time>2026-04-25T13:17:05.823Z</time></trkpt><trkpt lat="34.5217446" lon="10.4975731"><ele>1.9999999999999998</ele><time>2026-04-25T13:17:07.828Z</time></trkpt><trkpt lat="34.5217397" lon="10.4974545"><ele>2.0</ele><time>2026-04-25T13:17:09.826Z</time></trkpt><trkpt lat="34.5217281" lon="10.497349"><ele>2.0</ele><time>2026-04-25T13:17:11.822Z</time></trkpt><trkpt lat="34.5217141" lon="10.4972333"><ele>2.0</ele><time>2026-04-25T13:17:13.822Z</time></trkpt><trkpt lat="34.521711" lon="10.4971021"><ele>2.0</ele><time>2026-04-25T13:17:15.81Z</time></trkpt><trkpt lat="34.5217004" lon="10.496958"><ele>2.0</ele><time>2026-04-25T13:17:17.818Z</time></trkpt><trkpt lat="34.5216858" lon="10.4968062"><ele>1.9999999999999998</ele><time>2026-04-25T13:17:19.814Z</time></trkpt><trkpt lat="34.5216768" lon="10.49672"><ele>2.0</ele><time>2026-04-25T13:17:20.83Z</time></trkpt><trkpt lat="34.5216666" lon="10.4966266"><ele>2.0</ele><time>2026-04-25T13:17:21.822Z</time></trkpt><trkpt lat="34.5216594" lon="10.4965232"><ele>2.0</ele><time>2026-04-25T13:17:22.811Z</time></trkpt><trkpt lat="34.5216505" lon="10.4964214"><ele>1.9999999999999998</ele><time>2026-04-25T13:17:23.811Z</time></trkpt><trkpt lat="34.5216378" lon="10.4963191"><ele>2.0</ele><time>2026-04-25T13:17:24.814Z</time></trkpt><trkpt lat="34.5216231" lon="10.4962148"><ele>1.9999999999999998</ele><time>2026-04-25T13:17:25.811Z</time></trkpt><trkpt lat="34.5216098" lon="10.496109"><ele>2.0</ele><time>2026-04-25T13:17:26.821Z</time></trkpt><trkpt lat="34.5215984" lon="10.4960049"><ele>2.0</ele><time>2026-04-25T13:17:27.815Z</time></trkpt><trkpt lat="34.5215878" lon="10.4958994"><ele>2.0</ele><time>2026-04-25T13:17:28.821Z</time></trkpt><trkpt lat="34.5215739" lon="10.4957886"><ele>1.9999999999999998</ele><time>2026-04-25T13:17:29.794Z</time></trkpt><trkpt lat="34.521559" lon="10.4956798"><ele>2.0</ele><time>2026-04-25T13:17:30.816Z</time></trkpt><trkpt lat="34.5215422" lon="10.4955684"><ele>2.0</ele><time>2026-04-25T13:17:31.878Z</time></trkpt><trkpt lat="34.5215298" lon="10.4954539"><ele>2.0</ele><time>2026-04-25T13:17:32.823Z</time></trkpt><trkpt lat="34.5215195" lon="10.4953423"><ele>2.0</ele><time>2026-04-25T13:17:33.809Z</time></trkpt><trkpt lat="34.5215103" lon="10.495233"><ele>2.0</ele><time>2026-04-25T13:17:34.802Z</time></trkpt><trkpt lat="34.5214984" lon="10.4951166"><ele>2.0</ele><time>2026-04-25T13:17:35.823Z</time></trkpt><trkpt lat="34.5214824" lon="10.4949953"><ele>2.0</ele><time>2026-04-25T13:17:36.821Z</time></trkpt><trkpt lat="34.521467" lon="10.4948684"><ele>2.0</ele><time>2026-04-25T13:17:37.814Z</time></trkpt><trkpt lat="34.5214502" lon="10.4947368"><ele>2.0</ele><time>2026-04-25T13:17:38.814Z</time></trkpt><trkpt lat="34.5214388" lon="10.4946052"><ele>2.0</ele><time>2026-04-25T13:17:39.819Z</time></trkpt><trkpt lat="34.5214285" lon="10.4944815"><ele>2.0</ele><time>2026-04-25T13:17:40.82Z</time></trkpt><trkpt lat="34.5214209" lon="10.4943563"><ele>2.0</ele><time>2026-04-25T13:17:41.819Z</time></trkpt><trkpt lat="34.5214075" lon="10.4942291"><ele>2.0</ele><time>2026-04-25T13:17:42.823Z</time></trkpt><trkpt lat="34.5213959" lon="10.4940975"><ele>2.0</ele><time>2026-04-25T13:17:43.808Z</time></trkpt><trkpt lat="34.5213831" lon="10.4939695"><ele>2.0</ele><time>2026-04-25T13:17:44.812Z</time></trkpt><trkpt lat="34.5213683" lon="10.4938356"><ele>2.0</ele><time>2026-04-25T13:17:45.811Z</time></trkpt><trkpt lat="34.5213562" lon="10.4937022"><ele>1.75</ele><time>2026-04-25T13:17:46.821Z</time></trkpt><trkpt lat="34.5213467" lon="10.4935669"><ele>1.5</ele><time>2026-04-25T13:17:47.83Z</time></trkpt><trkpt lat="34.5213306" lon="10.4934276"><ele>1.25</ele><time>2026-04-25T13:17:48.816Z</time></trkpt><trkpt lat="34.5213153" lon="10.4932902"><ele>1.0</ele><time>2026-04-25T13:17:49.812Z</time></trkpt><trkpt lat="34.5213026" lon="10.493146"><ele>1.0</ele><time>2026-04-25T13:17:50.813Z</time></trkpt><trkpt lat="34.5212892" lon="10.4929948"><ele>1.0</ele><time>2026-04-25T13:17:51.809Z</time></trkpt><trkpt lat="34.5212763" lon="10.4928474"><ele>1.0</ele><time>2026-04-25T13:17:52.824Z</time></trkpt><trkpt lat="34.5212641" lon="10.4926949"><ele>1.0</ele><time>2026-04-25T13:17:53.83Z</time></trkpt><trkpt lat="34.5212516" lon="10.4925376"><ele>1.0</ele><time>2026-04-25T13:17:54.831Z</time></trkpt><trkpt lat="34.5212406" lon="10.4923767"><ele>1.0</ele><time>2026-04-25T13:17:55.817Z</time></trkpt><trkpt lat="34.5212219" lon="10.4922097"><ele>1.0</ele><time>2026-04-25T13:17:56.823Z</time></trkpt><trkpt lat="34.5211982" lon="10.4920451"><ele>1.0</ele><time>2026-04-25T13:17:57.827Z</time></trkpt><trkpt lat="34.52117" lon="10.4918814"><ele>1.0</ele><time>2026-04-25T13:17:58.813Z</time></trkpt><trkpt lat="34.5211395" lon="10.4917161"><ele>1.0</ele><time>2026-04-25T13:17:59.803Z</time></trkpt><trkpt lat="34.5211063" lon="10.4915565"><ele>1.0</ele><time>2026-04-25T13:18:00.815Z</time></trkpt><trkpt lat="34.5210743" lon="10.4914005"><ele>1.0</ele><time>2026-04-25T13:18:01.837Z</time></trkpt><trkpt lat="34.5210387" lon="10.4912472"><ele>0.75</ele><time>2026-04-25T13:18:02.806Z</time></trkpt><trkpt lat="34.5210058" lon="10.4910957"><ele>0.5</ele><time>2026-04-25T13:18:03.815Z</time></trkpt><trkpt lat="34.5209732" lon="10.4909458"><ele>0.25</ele><time>2026-04-25T13:18:04.807Z</time></trkpt><trkpt lat="34.5209432" lon="10.4907986"><ele>0.0</ele><time>2026-04-25T13:18:05.815Z</time></trkpt><trkpt lat="34.5209101" lon="10.4906502"><ele>0.0</ele><time>2026-04-25T13:18:06.81Z</time></trkpt><trkpt lat="34.5208849" lon="10.4905044"><ele>0.0</ele><time>2026-04-25T13:18:07.82Z</time></trkpt><trkpt lat="34.52086" lon="10.4903609"><ele>0.0</ele><time>2026-04-25T13:18:08.813Z</time></trkpt><trkpt lat="34.5208276" lon="10.4902159"><ele>0.0</ele><time>2026-04-25T13:18:09.806Z</time></trkpt><trkpt lat="34.5207932" lon="10.4900746"><ele>0.25</ele><time>2026-04-25T13:18:10.81Z</time></trkpt><trkpt lat="34.5207617" lon="10.4899387"><ele>0.5</ele><time>2026-04-25T13:18:11.814Z</time></trkpt><trkpt lat="34.5207344" lon="10.4897984"><ele>0.75</ele><time>2026-04-25T13:18:12.816Z</time></trkpt><trkpt lat="34.5207059" lon="10.489657"><ele>1.0</ele><time>2026-04-25T13:18:13.817Z</time></trkpt><trkpt lat="34.520676" lon="10.489515"><ele>0.5</ele><time>2026-04-25T13:18:14.802Z</time></trkpt><trkpt lat="34.5206472" lon="10.4893719"><ele>0.0</ele><time>2026-04-25T13:18:15.814Z</time></trkpt><trkpt lat="34.5206229" lon="10.4892275"><ele>-0.5</ele><time>2026-04-25T13:18:16.843Z</time></trkpt><trkpt lat="34.5205921" lon="10.4890774"><ele>-1.0</ele><time>2026-04-25T13:18:17.82Z</time></trkpt><trkpt lat="34.5205613" lon="10.4889239"><ele>-1.0</ele><time>2026-04-25T13:18:18.817Z</time></trkpt><trkpt lat="34.5205299" lon="10.4887694"><ele>-1.0</ele><time>2026-04-25T13:18:19.821Z</time></trkpt><trkpt lat="34.5205025" lon="10.4886197"><ele>-1.0</ele><time>2026-04-25T13:18:20.816Z</time></trkpt><trkpt lat="34.5204781" lon="10.4884644"><ele>-1.0</ele><time>2026-04-25T13:18:21.818Z</time></trkpt><trkpt lat="34.5204503" lon="10.4883147"><ele>-1.0</ele><time>2026-04-25T13:18:22.818Z</time></trkpt><trkpt lat="34.5204277" lon="10.4881629"><ele>-1.0</ele><time>2026-04-25T13:18:23.816Z</time></trkpt><trkpt lat="34.5204" lon="10.4880126"><ele>-1.0</ele><time>2026-04-25T13:18:24.819Z</time></trkpt><trkpt lat="34.5203715" lon="10.4878642"><ele>-1.0</ele><time>2026-04-25T13:18:25.824Z</time></trkpt><trkpt lat="34.5203467" lon="10.4877146"><ele>-1.0</ele><time>2026-04-25T13:18:26.808Z</time></trkpt><trkpt lat="34.5203223" lon="10.487576"><ele>-1.0</ele><time>2026-04-25T13:18:27.817Z</time></trkpt><trkpt lat="34.520297" lon="10.4874437"><ele>-1.0</ele><time>2026-04-25T13:18:28.826Z</time></trkpt><trkpt lat="34.5202736" lon="10.4873071"><ele>-1.0</ele><time>2026-04-25T13:18:29.809Z</time></trkpt><trkpt lat="34.5202493" lon="10.4871801"><ele>-0.6000000000000001</ele><time>2026-04-25T13:18:30.808Z</time></trkpt><trkpt lat="34.5202246" lon="10.4870595"><ele>-0.20000000000000007</ele><time>2026-04-25T13:18:31.819Z</time></trkpt><trkpt lat="34.5201983" lon="10.4869353"><ele>0.20000000000000007</ele><time>2026-04-25T13:18:32.813Z</time></trkpt><trkpt lat="34.5201695" lon="10.4868182"><ele>0.6000000000000001</ele><time>2026-04-25T13:18:33.804Z</time></trkpt><trkpt lat="34.5201425" lon="10.486709"><ele>1.0</ele><time>2026-04-25T13:18:34.82Z</time></trkpt><trkpt lat="34.5201171" lon="10.4866038"><ele>1.0</ele><time>2026-04-25T13:18:35.814Z</time></trkpt><trkpt lat="34.5200909" lon="10.4864971"><ele>1.0</ele><time>2026-04-25T13:18:36.823Z</time></trkpt><trkpt lat="34.5200651" lon="10.4863787"><ele>1.0</ele><time>2026-04-25T13:18:37.817Z</time></trkpt><trkpt lat="34.5200425" lon="10.486245"><ele>1.0</ele><time>2026-04-25T13:18:38.81Z</time></trkpt><trkpt lat="34.5200243" lon="10.4861059"><ele>1.0</ele><time>2026-04-25T13:18:39.809Z</time></trkpt><trkpt lat="34.5200002" lon="10.485963"><ele>1.5</ele><time>2026-04-25T13:18:40.809Z</time></trkpt><trkpt lat="34.5199682" lon="10.4858185"><ele>2.0</ele><time>2026-04-25T13:18:41.815Z</time></trkpt><trkpt lat="34.5199352" lon="10.485671"><ele>2.5</ele><time>2026-04-25T13:18:42.821Z</time></trkpt><trkpt lat="34.5199019" lon="10.4855266"><ele>3.0</ele><time>2026-04-25T13:18:43.816Z</time></trkpt><trkpt lat="34.5198768" lon="10.4853885"><ele>3.0</ele><time>2026-04-25T13:18:44.82Z</time></trkpt><trkpt lat="34.5198485" lon="10.4852537"><ele>3.0</ele><time>2026-04-25T13:18:45.823Z</time></trkpt><trkpt lat="34.5198222" lon="10.4851257"><ele>3.0</ele><time>2026-04-25T13:18:46.827Z</time></trkpt><trkpt lat="34.5197892" lon="10.4849839"><ele>3.0</ele><time>2026-04-25T13:18:47.813Z</time></trkpt><trkpt lat="34.5197491" lon="10.4848406"><ele>3.0</ele><time>2026-04-25T13:18:48.812Z</time></trkpt><trkpt lat="34.5197154" lon="10.4847006"><ele>3.0</ele><time>2026-04-25T13:18:49.817Z</time></trkpt><trkpt lat="34.5196787" lon="10.4845524"><ele>3.0</ele><time>2026-04-25T13:18:50.82Z</time></trkpt><trkpt lat="34.5196452" lon="10.4844052"><ele>3.0</ele><time>2026-04-25T13:18:51.826Z</time></trkpt><trkpt lat="34.5196201" lon="10.4842621"><ele>3.0</ele><time>2026-04-25T13:18:52.815Z</time></trkpt><trkpt lat="34.5195925" lon="10.4841173"><ele>3.0</ele><time>2026-04-25T13:18:53.819Z</time></trkpt><trkpt lat="34.5195694" lon="10.4839667"><ele>3.0</ele><time>2026-04-25T13:18:54.814Z</time></trkpt><trkpt lat="34.5195486" lon="10.4838182"><ele>3.0</ele><time>2026-04-25T13:18:55.811Z</time></trkpt><trkpt lat="34.519529" lon="10.4836709"><ele>3.0</ele><time>2026-04-25T13:18:56.837Z</time></trkpt><trkpt lat="34.5195034" lon="10.4835328"><ele>3.0</ele><time>2026-04-25T13:18:57.807Z</time></trkpt><trkpt lat="34.5194741" lon="10.4833917"><ele>3.0</ele><time>2026-04-25T13:18:58.816Z</time></trkpt><trkpt lat="34.5194461" lon="10.4832519"><ele>3.0</ele><time>2026-04-25T13:18:59.838Z</time></trkpt><trkpt lat="34.5194128" lon="10.4831138"><ele>3.0</ele><time>2026-04-25T13:19:00.819Z</time></trkpt><trkpt lat="34.5193815" lon="10.4829684"><ele>3.0</ele><time>2026-04-25T13:19:01.824Z</time></trkpt><trkpt lat="34.519349" lon="10.4828272"><ele>3.0</ele><time>2026-04-25T13:19:02.816Z</time></trkpt><trkpt lat="34.5193171" lon="10.4826909"><ele>3.0</ele><time>2026-04-25T13:19:03.809Z</time></trkpt><trkpt lat="34.5192847" lon="10.4825478"><ele>3.0</ele><time>2026-04-25T13:19:04.822Z</time></trkpt><trkpt lat="34.519254" lon="10.4824049"><ele>3.0</ele><time>2026-04-25T13:19:05.822Z</time></trkpt><trkpt lat="34.519223" lon="10.4822567"><ele>3.0</ele><time>2026-04-25T13:19:06.822Z</time></trkpt><trkpt lat="34.5191964" lon="10.4821025"><ele>3.0</ele><time>2026-04-25T13:19:07.817Z</time></trkpt><trkpt lat="34.519164" lon="10.4819544"><ele>3.0</ele><time>2026-04-25T13:19:08.817Z</time></trkpt><trkpt lat="34.5191259" lon="10.4818063"><ele>3.0</ele><time>2026-04-25T13:19:09.819Z</time></trkpt><trkpt lat="34.5190915" lon="10.4816512"><ele>3.0</ele><time>2026-04-25T13:19:10.81Z</time></trkpt><trkpt lat="34.5190526" lon="10.481497"><ele>3.0</ele><time>2026-04-25T13:19:11.811Z</time></trkpt><trkpt lat="34.5190173" lon="10.4813343"><ele>3.0</ele><time>2026-04-25T13:19:12.82Z</time></trkpt><trkpt lat="34.5189829" lon="10.4811772"><ele>3.0</ele><time>2026-04-25T13:19:13.821Z</time></trkpt><trkpt lat="34.518947" lon="10.4810164"><ele>3.0</ele><time>2026-04-25T13:19:14.807Z</time></trkpt><trkpt lat="34.5189114" lon="10.4808556"><ele>3.0</ele><time>2026-04-25T13:19:15.814Z</time></trkpt><trkpt lat="34.5188733" lon="10.4806933"><ele>3.0</ele><time>2026-04-25T13:19:16.805Z</time></trkpt><trkpt lat="34.5188367" lon="10.4805366"><ele>3.0</ele><time>2026-04-25T13:19:17.805Z</time></trkpt><trkpt lat="34.5188005" lon="10.4803786"><ele>3.0</ele><time>2026-04-25T13:19:18.816Z</time></trkpt><trkpt lat="34.518764" lon="10.4802216"><ele>3.0</ele><time>2026-04-25T13:19:19.824Z</time></trkpt><trkpt lat="34.5187335" lon="10.4800679"><ele>3.0</ele><time>2026-04-25T13:19:20.815Z</time></trkpt><trkpt lat="34.518703" lon="10.47991"><ele>3.0</ele><time>2026-04-25T13:19:21.829Z</time></trkpt><trkpt lat="34.5186684" lon="10.479758"><ele>3.0</ele><time>2026-04-25T13:19:22.819Z</time></trkpt><trkpt lat="34.5186297" lon="10.4796004"><ele>3.0</ele><time>2026-04-25T13:19:23.811Z</time></trkpt><trkpt lat="34.518596" lon="10.4794459"><ele>3.25</ele><time>2026-04-25T13:19:24.82Z</time></trkpt><trkpt lat="34.5185606" lon="10.4792908"><ele>3.5</ele><time>2026-04-25T13:19:25.811Z</time></trkpt><trkpt lat="34.5185219" lon="10.4791377"><ele>3.75</ele><time>2026-04-25T13:19:26.802Z</time></trkpt><trkpt lat="34.5184823" lon="10.4789865"><ele>4.0</ele><time>2026-04-25T13:19:27.814Z</time></trkpt><trkpt lat="34.5184453" lon="10.4788363"><ele>3.75</ele><time>2026-04-25T13:19:28.8Z</time></trkpt><trkpt lat="34.518409" lon="10.4786831"><ele>3.5</ele><time>2026-04-25T13:19:29.814Z</time></trkpt><trkpt lat="34.5183728" lon="10.4785265"><ele>3.25</ele><time>2026-04-25T13:19:30.826Z</time></trkpt><trkpt lat="34.5183393" lon="10.47837"><ele>3.0</ele><time>2026-04-25T13:19:31.809Z</time></trkpt><trkpt lat="34.5183049" lon="10.4782154"><ele>3.0</ele><time>2026-04-25T13:19:32.806Z</time></trkpt><trkpt lat="34.5182749" lon="10.4780644"><ele>3.0</ele><time>2026-04-25T13:19:33.812Z</time></trkpt><trkpt lat="34.5182434" lon="10.4779085"><ele>3.0</ele><time>2026-04-25T13:19:34.819Z</time></trkpt><trkpt lat="34.5182122" lon="10.477753"><ele>3.0</ele><time>2026-04-25T13:19:35.814Z</time></trkpt><trkpt lat="34.5181811" lon="10.4776021"><ele>3.0</ele><time>2026-04-25T13:19:36.814Z</time></trkpt><trkpt lat="34.5181444" lon="10.4774466"><ele>3.0</ele><time>2026-04-25T13:19:37.818Z</time></trkpt><trkpt lat="34.5181073" lon="10.4772874"><ele>3.0</ele><time>2026-04-25T13:19:38.83Z</time></trkpt><trkpt lat="34.5180743" lon="10.4771283"><ele>3.0</ele><time>2026-04-25T13:19:39.805Z</time></trkpt><trkpt lat="34.5180384" lon="10.4769686"><ele>3.0</ele><time>2026-04-25T13:19:40.814Z</time></trkpt><trkpt lat="34.5180008" lon="10.4768075"><ele>3.0</ele><time>2026-04-25T13:19:41.824Z</time></trkpt><trkpt lat="34.5179649" lon="10.4766554"><ele>3.0</ele><time>2026-04-25T13:19:42.814Z</time></trkpt><trkpt lat="34.5179312" lon="10.4765022"><ele>3.0</ele><time>2026-04-25T13:19:43.809Z</time></trkpt><trkpt lat="34.5178954" lon="10.4763477"><ele>3.0</ele><time>2026-04-25T13:19:44.818Z</time></trkpt><trkpt lat="34.5178596" lon="10.4761955"><ele>3.0</ele><time>2026-04-25T13:19:45.821Z</time></trkpt><trkpt lat="34.5178287" lon="10.4760392"><ele>3.0</ele><time>2026-04-25T13:19:46.809Z</time></trkpt><trkpt lat="34.5177928" lon="10.4758868"><ele>3.0</ele><time>2026-04-25T13:19:47.825Z</time></trkpt><trkpt lat="34.5177581" lon="10.4757395"><ele>3.0</ele><time>2026-04-25T13:19:48.821Z</time></trkpt><trkpt lat="34.5177248" lon="10.4755992"><ele>3.0</ele><time>2026-04-25T13:19:49.811Z</time></trkpt><trkpt lat="34.5176898" lon="10.4754531"><ele>3.0</ele><time>2026-04-25T13:19:50.816Z</time></trkpt><trkpt lat="34.5176563" lon="10.4753088"><ele>3.0</ele><time>2026-04-25T13:19:51.824Z</time></trkpt><trkpt lat="34.517621" lon="10.4751672"><ele>3.0</ele><time>2026-04-25T13:19:52.813Z</time></trkpt><trkpt lat="34.5175897" lon="10.4750233"><ele>3.0</ele><time>2026-04-25T13:19:53.819Z</time></trkpt><trkpt lat="34.5175575" lon="10.4748743"><ele>3.0</ele><time>2026-04-25T13:19:54.813Z</time></trkpt><trkpt lat="34.5175205" lon="10.4747209"><ele>3.0</ele><time>2026-04-25T13:19:55.815Z</time></trkpt><trkpt lat="34.5174887" lon="10.4745569"><ele>3.0</ele><time>2026-04-25T13:19:56.815Z</time></trkpt><trkpt lat="34.5174551" lon="10.4743908"><ele>3.0</ele><time>2026-04-25T13:19:57.807Z</time></trkpt><trkpt lat="34.5174187" lon="10.4742214"><ele>3.0</ele><time>2026-04-25T13:19:58.821Z</time></trkpt><trkpt lat="34.5173849" lon="10.4740533"><ele>3.0</ele><time>2026-04-25T13:19:59.813Z</time></trkpt><trkpt lat="34.5173497" lon="10.4738858"><ele>3.25</ele><time>2026-04-25T13:20:00.829Z</time></trkpt><trkpt lat="34.5173099" lon="10.4737211"><ele>3.5</ele><time>2026-04-25T13:20:01.833Z</time></trkpt><trkpt lat="34.517269" lon="10.4735558"><ele>3.75</ele><time>2026-04-25T13:20:02.812Z</time></trkpt><trkpt lat="34.5172294" lon="10.4733883"><ele>4.0</ele><time>2026-04-25T13:20:03.834Z</time></trkpt><trkpt lat="34.5171897" lon="10.473223"><ele>4.0</ele><time>2026-04-25T13:20:04.822Z</time></trkpt><trkpt lat="34.5171498" lon="10.4730559"><ele>4.0</ele><time>2026-04-25T13:20:05.812Z</time></trkpt><trkpt lat="34.5171065" lon="10.4728895"><ele>4.0</ele><time>2026-04-25T13:20:06.814Z</time></trkpt><trkpt lat="34.5170592" lon="10.4727204"><ele>4.0</ele><time>2026-04-25T13:20:07.821Z</time></trkpt><trkpt lat="34.5170107" lon="10.4725383"><ele>3.6666666666666665</ele><time>2026-04-25T13:20:08.822Z</time></trkpt><trkpt lat="34.5169574" lon="10.4723483"><ele>3.333333333333333</ele><time>2026-04-25T13:20:09.818Z</time></trkpt><trkpt lat="34.5169096" lon="10.4721572"><ele>3.0</ele><time>2026-04-25T13:20:10.816Z</time></trkpt><trkpt lat="34.5168615" lon="10.471964"><ele>3.0</ele><time>2026-04-25T13:20:11.81Z</time></trkpt><trkpt lat="34.5168155" lon="10.4717648"><ele>3.0</ele><time>2026-04-25T13:20:12.82Z</time></trkpt><trkpt lat="34.5167709" lon="10.4715669"><ele>3.0</ele><time>2026-04-25T13:20:13.815Z</time></trkpt><trkpt lat="34.5167265" lon="10.4713667"><ele>3.333333333333333</ele><time>2026-04-25T13:20:14.833Z</time></trkpt><trkpt lat="34.5166831" lon="10.4711655"><ele>3.6666666666666665</ele><time>2026-04-25T13:20:15.826Z</time></trkpt><trkpt lat="34.5166368" lon="10.4709578"><ele>4.0</ele><time>2026-04-25T13:20:16.813Z</time></trkpt><trkpt lat="34.5165938" lon="10.4707546"><ele>4.0</ele><time>2026-04-25T13:20:17.827Z</time></trkpt><trkpt lat="34.5165475" lon="10.4705492"><ele>4.0</ele><time>2026-04-25T13:20:18.824Z</time></trkpt><trkpt lat="34.5165024" lon="10.470346"><ele>4.0</ele><time>2026-04-25T13:20:19.824Z</time></trkpt><trkpt lat="34.5164579" lon="10.470144"><ele>4.333333333333333</ele><time>2026-04-25T13:20:20.799Z</time></trkpt><trkpt lat="34.5164173" lon="10.4699439"><ele>4.666666666666667</ele><time>2026-04-25T13:20:21.816Z</time></trkpt><trkpt lat="34.5163757" lon="10.4697438"><ele>5.0</ele><time>2026-04-25T13:20:22.817Z</time></trkpt><trkpt lat="34.5163271" lon="10.4695473"><ele>5.0</ele><time>2026-04-25T13:20:23.804Z</time></trkpt><trkpt lat="34.5162821" lon="10.4693529"><ele>5.0</ele><time>2026-04-25T13:20:24.814Z</time></trkpt><trkpt lat="34.5162369" lon="10.4691553"><ele>5.0</ele><time>2026-04-25T13:20:25.822Z</time></trkpt><trkpt lat="34.5161941" lon="10.4689524"><ele>5.0</ele><time>2026-04-25T13:20:26.811Z</time></trkpt><trkpt lat="34.5161524" lon="10.4687507"><ele>5.0</ele><time>2026-04-25T13:20:27.837Z</time></trkpt><trkpt lat="34.5161059" lon="10.4685506"><ele>5.0</ele><time>2026-04-25T13:20:28.818Z</time></trkpt><trkpt lat="34.5160601" lon="10.4683471"><ele>5.0</ele><time>2026-04-25T13:20:29.826Z</time></trkpt><trkpt lat="34.5160144" lon="10.4681428"><ele>5.0</ele><time>2026-04-25T13:20:30.828Z</time></trkpt><trkpt lat="34.5159683" lon="10.4679352"><ele>5.0</ele><time>2026-04-25T13:20:31.851Z</time></trkpt><trkpt lat="34.5159245" lon="10.4677316"><ele>5.0</ele><time>2026-04-25T13:20:32.82Z</time></trkpt><trkpt lat="34.5158761" lon="10.4675321"><ele>5.0</ele><time>2026-04-25T13:20:33.811Z</time></trkpt><trkpt lat="34.5158306" lon="10.4673322"><ele>5.0</ele><time>2026-04-25T13:20:34.819Z</time></trkpt><trkpt lat="34.5157821" lon="10.4671328"><ele>4.666666666666667</ele><time>2026-04-25T13:20:35.833Z</time></trkpt><trkpt lat="34.5157374" lon="10.4669396"><ele>4.333333333333333</ele><time>2026-04-25T13:20:36.819Z</time></trkpt><trkpt lat="34.5156924" lon="10.4667428"><ele>4.0</ele><time>2026-04-25T13:20:37.817Z</time></trkpt><trkpt lat="34.5156477" lon="10.4665478"><ele>4.0</ele><time>2026-04-25T13:20:38.826Z</time></trkpt><trkpt lat="34.5155999" lon="10.4663537"><ele>4.0</ele><time>2026-04-25T13:20:39.819Z</time></trkpt><trkpt lat="34.5155614" lon="10.4661589"><ele>4.0</ele><time>2026-04-25T13:20:40.806Z</time></trkpt><trkpt lat="34.5155201" lon="10.4659621"><ele>3.6666666666666665</ele><time>2026-04-25T13:20:41.841Z</time></trkpt><trkpt lat="34.5154772" lon="10.4657698"><ele>3.333333333333333</ele><time>2026-04-25T13:20:42.813Z</time></trkpt><trkpt lat="34.5154335" lon="10.4655742"><ele>3.0</ele><time>2026-04-25T13:20:43.816Z</time></trkpt><trkpt lat="34.5153888" lon="10.4653796"><ele>2.3333333333333335</ele><time>2026-04-25T13:20:44.818Z</time></trkpt><trkpt lat="34.5153448" lon="10.4651842"><ele>1.6666666666666665</ele><time>2026-04-25T13:20:45.821Z</time></trkpt><trkpt lat="34.5153015" lon="10.4649883"><ele>1.0</ele><time>2026-04-25T13:20:46.827Z</time></trkpt><trkpt lat="34.515258" lon="10.4647904"><ele>1.3333333333333333</ele><time>2026-04-25T13:20:47.818Z</time></trkpt><trkpt lat="34.5152137" lon="10.4645887"><ele>1.6666666666666665</ele><time>2026-04-25T13:20:48.817Z</time></trkpt><trkpt lat="34.515169" lon="10.4643888"><ele>2.0</ele><time>2026-04-25T13:20:49.823Z</time></trkpt><trkpt lat="34.5151261" lon="10.4641869"><ele>2.0</ele><time>2026-04-25T13:20:50.821Z</time></trkpt><trkpt lat="34.5150855" lon="10.4639841"><ele>2.0</ele><time>2026-04-25T13:20:51.811Z</time></trkpt><trkpt lat="34.5150388" lon="10.4637848"><ele>2.0</ele><time>2026-04-25T13:20:52.81Z</time></trkpt><trkpt lat="34.5149948" lon="10.4635842"><ele>2.6666666666666665</ele><time>2026-04-25T13:20:53.835Z</time></trkpt><trkpt lat="34.5149508" lon="10.4633843"><ele>3.333333333333333</ele><time>2026-04-25T13:20:54.811Z</time></trkpt><trkpt lat="34.5149008" lon="10.4631871"><ele>4.0</ele><time>2026-04-25T13:20:55.813Z</time></trkpt><trkpt lat="34.5148514" lon="10.4629922"><ele>4.333333333333333</ele><time>2026-04-25T13:20:56.824Z</time></trkpt><trkpt lat="34.514805" lon="10.462795"><ele>4.666666666666667</ele><time>2026-04-25T13:20:57.809Z</time></trkpt><trkpt lat="34.5147636" lon="10.4626012"><ele>5.0</ele><time>2026-04-25T13:20:58.814Z</time></trkpt><trkpt lat="34.5147247" lon="10.4624065"><ele>5.0</ele><time>2026-04-25T13:20:59.816Z</time></trkpt><trkpt lat="34.5146806" lon="10.4622029"><ele>5.0</ele><time>2026-04-25T13:21:00.812Z</time></trkpt><trkpt lat="34.51464" lon="10.4620027"><ele>5.0</ele><time>2026-04-25T13:21:01.807Z</time></trkpt><trkpt lat="34.5145936" lon="10.4617937"><ele>4.333333333333334</ele><time>2026-04-25T13:21:02.813Z</time></trkpt><trkpt lat="34.5145457" lon="10.4615894"><ele>3.666666666666667</ele><time>2026-04-25T13:21:03.818Z</time></trkpt><trkpt lat="34.5144952" lon="10.4613826"><ele>3.0</ele><time>2026-04-25T13:21:04.805Z</time></trkpt><trkpt lat="34.5144514" lon="10.4611752"><ele>3.0</ele><time>2026-04-25T13:21:05.804Z</time></trkpt><trkpt lat="34.5144017" lon="10.4609719"><ele>3.0</ele><time>2026-04-25T13:21:06.811Z</time></trkpt><trkpt lat="34.5143558" lon="10.4607681"><ele>3.0</ele><time>2026-04-25T13:21:07.818Z</time></trkpt><trkpt lat="34.5143083" lon="10.4605665"><ele>3.0</ele><time>2026-04-25T13:21:08.81Z</time></trkpt><trkpt lat="34.5142592" lon="10.460368"><ele>3.0</ele><time>2026-04-25T13:21:09.815Z</time></trkpt><trkpt lat="34.5142116" lon="10.4601707"><ele>3.0</ele><time>2026-04-25T13:21:10.801Z</time></trkpt><trkpt lat="34.5141607" lon="10.4599763"><ele>3.0</ele><time>2026-04-25T13:21:11.809Z</time></trkpt><trkpt lat="34.5141169" lon="10.4597806"><ele>3.0</ele><time>2026-04-25T13:21:12.813Z</time></trkpt><trkpt lat="34.5140715" lon="10.4595847"><ele>3.0</ele><time>2026-04-25T13:21:13.819Z</time></trkpt><trkpt lat="34.5140271" lon="10.4593908"><ele>2.6666666666666665</ele><time>2026-04-25T13:21:14.813Z</time></trkpt><trkpt lat="34.5139853" lon="10.4591976"><ele>2.333333333333333</ele><time>2026-04-25T13:21:15.821Z</time></trkpt><trkpt lat="34.5139425" lon="10.4590103"><ele>2.0</ele><time>2026-04-25T13:21:16.824Z</time></trkpt><trkpt lat="34.5138994" lon="10.458826"><ele>2.0</ele><time>2026-04-25T13:21:17.812Z</time></trkpt><trkpt lat="34.5138567" lon="10.458639"><ele>2.0</ele><time>2026-04-25T13:21:18.814Z</time></trkpt><trkpt lat="34.5138146" lon="10.4584559"><ele>2.0</ele><time>2026-04-25T13:21:19.81Z</time></trkpt><trkpt lat="34.513773" lon="10.4582732"><ele>2.0</ele><time>2026-04-25T13:21:20.817Z</time></trkpt><trkpt lat="34.5137314" lon="10.458092"><ele>2.0</ele><time>2026-04-25T13:21:21.815Z</time></trkpt><trkpt lat="34.5136914" lon="10.4579101"><ele>2.0</ele><time>2026-04-25T13:21:22.809Z</time></trkpt><trkpt lat="34.5136043" lon="10.4575455"><ele>2.333333333333333</ele><time>2026-04-25T13:21:24.816Z</time></trkpt><trkpt lat="34.5135624" lon="10.4573623"><ele>2.6666666666666665</ele><time>2026-04-25T13:21:25.819Z</time></trkpt><trkpt lat="34.5135236" lon="10.4571772"><ele>3.0</ele><time>2026-04-25T13:21:26.813Z</time></trkpt><trkpt lat="34.5134838" lon="10.4569966"><ele>3.0</ele><time>2026-04-25T13:21:27.808Z</time></trkpt><trkpt lat="34.5134447" lon="10.4568123"><ele>3.0</ele><time>2026-04-25T13:21:28.814Z</time></trkpt><trkpt lat="34.5134023" lon="10.4566289"><ele>3.0</ele><time>2026-04-25T13:21:29.811Z</time></trkpt><trkpt lat="34.513362" lon="10.4564444"><ele>3.333333333333333</ele><time>2026-04-25T13:21:30.817Z</time></trkpt><trkpt lat="34.5133191" lon="10.4562599"><ele>3.6666666666666665</ele><time>2026-04-25T13:21:31.844Z</time></trkpt><trkpt lat="34.5132755" lon="10.4560742"><ele>4.0</ele><time>2026-04-25T13:21:32.818Z</time></trkpt><trkpt lat="34.5132358" lon="10.4558863"><ele>4.0</ele><time>2026-04-25T13:21:33.817Z</time></trkpt><trkpt lat="34.5131941" lon="10.455695"><ele>4.0</ele><time>2026-04-25T13:21:34.82Z</time></trkpt><trkpt lat="34.5131539" lon="10.4555"><ele>4.0</ele><time>2026-04-25T13:21:35.827Z</time></trkpt><trkpt lat="34.5131128" lon="10.4553038"><ele>4.0</ele><time>2026-04-25T13:21:36.811Z</time></trkpt><trkpt lat="34.5130697" lon="10.455106"><ele>4.0</ele><time>2026-04-25T13:21:37.825Z</time></trkpt><trkpt lat="34.5130257" lon="10.4549017"><ele>4.0</ele><time>2026-04-25T13:21:38.807Z</time></trkpt><trkpt lat="34.5129774" lon="10.4546893"><ele>4.0</ele><time>2026-04-25T13:21:39.813Z</time></trkpt><trkpt lat="34.512928" lon="10.4544786"><ele>4.0</ele><time>2026-04-25T13:21:40.815Z</time></trkpt><trkpt lat="34.5128801" lon="10.4542614"><ele>4.0</ele><time>2026-04-25T13:21:41.807Z</time></trkpt><trkpt lat="34.5128354" lon="10.4540515"><ele>4.0</ele><time>2026-04-25T13:21:42.812Z</time></trkpt><trkpt lat="34.5127904" lon="10.4538459"><ele>4.0</ele><time>2026-04-25T13:21:43.833Z</time></trkpt><trkpt lat="34.5127446" lon="10.4536354"><ele>4.0</ele><time>2026-04-25T13:21:44.82Z</time></trkpt><trkpt lat="34.512698" lon="10.4534297"><ele>4.0</ele><time>2026-04-25T13:21:45.816Z</time></trkpt><trkpt lat="34.5126532" lon="10.4532251"><ele>4.0</ele><time>2026-04-25T13:21:46.826Z</time></trkpt><trkpt lat="34.5126076" lon="10.4530235"><ele>4.0</ele><time>2026-04-25T13:21:47.81Z</time></trkpt><trkpt lat="34.5125596" lon="10.4528167"><ele>4.666666666666666</ele><time>2026-04-25T13:21:48.821Z</time></trkpt><trkpt lat="34.5125127" lon="10.4526095"><ele>5.333333333333333</ele><time>2026-04-25T13:21:49.818Z</time></trkpt><trkpt lat="34.5124644" lon="10.4524054"><ele>6.0</ele><time>2026-04-25T13:21:50.81Z</time></trkpt><trkpt lat="34.5124178" lon="10.4521983"><ele>5.666666666666667</ele><time>2026-04-25T13:21:51.81Z</time></trkpt><trkpt lat="34.5123737" lon="10.4519935"><ele>5.333333333333334</ele><time>2026-04-25T13:21:52.824Z</time></trkpt><trkpt lat="34.5123287" lon="10.4517841"><ele>5.0</ele><time>2026-04-25T13:21:53.82Z</time></trkpt><trkpt lat="34.5122825" lon="10.4515788"><ele>5.0</ele><time>2026-04-25T13:21:54.815Z</time></trkpt><trkpt lat="34.5122327" lon="10.4513749"><ele>5.0</ele><time>2026-04-25T13:21:55.821Z</time></trkpt><trkpt lat="34.5121865" lon="10.4511731"><ele>5.0</ele><time>2026-04-25T13:21:56.815Z</time></trkpt><trkpt lat="34.512139" lon="10.4509687"><ele>5.0</ele><time>2026-04-25T13:21:57.835Z</time></trkpt><trkpt lat="34.5120982" lon="10.450759"><ele>5.0</ele><time>2026-04-25T13:21:58.809Z</time></trkpt><trkpt lat="34.5120542" lon="10.4505487"><ele>5.0</ele><time>2026-04-25T13:21:59.819Z</time></trkpt><trkpt lat="34.512007" lon="10.450343"><ele>4.666666666666667</ele><time>2026-04-25T13:22:00.825Z</time></trkpt><trkpt lat="34.5119636" lon="10.450135"><ele>4.333333333333333</ele><time>2026-04-25T13:22:01.817Z</time></trkpt><trkpt lat="34.5119171" lon="10.4499301"><ele>4.0</ele><time>2026-04-25T13:22:02.811Z</time></trkpt><trkpt lat="34.5118687" lon="10.4497274"><ele>3.6666666666666665</ele><time>2026-04-25T13:22:03.814Z</time></trkpt><trkpt lat="34.5118205" lon="10.4495214"><ele>3.333333333333333</ele><time>2026-04-25T13:22:04.806Z</time></trkpt><trkpt lat="34.5117725" lon="10.44932"><ele>3.0</ele><time>2026-04-25T13:22:05.813Z</time></trkpt><trkpt lat="34.5117258" lon="10.4491128"><ele>3.0</ele><time>2026-04-25T13:22:06.821Z</time></trkpt><trkpt lat="34.511677" lon="10.4489084"><ele>3.0</ele><time>2026-04-25T13:22:07.814Z</time></trkpt><trkpt lat="34.5116313" lon="10.4487038"><ele>3.0</ele><time>2026-04-25T13:22:08.812Z</time></trkpt><trkpt lat="34.5115827" lon="10.4484981"><ele>3.333333333333333</ele><time>2026-04-25T13:22:09.82Z</time></trkpt><trkpt lat="34.5115383" lon="10.4482865"><ele>3.6666666666666665</ele><time>2026-04-25T13:22:10.801Z</time></trkpt><trkpt lat="34.5114916" lon="10.4480822"><ele>4.0</ele><time>2026-04-25T13:22:11.805Z</time></trkpt><trkpt lat="34.5114471" lon="10.44788"><ele>4.333333333333333</ele><time>2026-04-25T13:22:12.802Z</time></trkpt><trkpt lat="34.5114008" lon="10.4476732"><ele>4.666666666666667</ele><time>2026-04-25T13:22:13.818Z</time></trkpt><trkpt lat="34.5113554" lon="10.4474698"><ele>5.0</ele><time>2026-04-25T13:22:14.805Z</time></trkpt><trkpt lat="34.5113103" lon="10.447265"><ele>5.0</ele><time>2026-04-25T13:22:15.818Z</time></trkpt><trkpt lat="34.5112609" lon="10.4470604"><ele>5.0</ele><time>2026-04-25T13:22:16.813Z</time></trkpt><trkpt lat="34.511215" lon="10.446857"><ele>5.0</ele><time>2026-04-25T13:22:17.823Z</time></trkpt><trkpt lat="34.5111691" lon="10.4466512"><ele>5.0</ele><time>2026-04-25T13:22:18.816Z</time></trkpt><trkpt lat="34.5111233" lon="10.4464427"><ele>5.0</ele><time>2026-04-25T13:22:19.818Z</time></trkpt><trkpt lat="34.5110754" lon="10.4462328"><ele>5.0</ele><time>2026-04-25T13:22:20.831Z</time></trkpt><trkpt lat="34.5110287" lon="10.4460258"><ele>5.333333333333334</ele><time>2026-04-25T13:22:21.836Z</time></trkpt><trkpt lat="34.5109855" lon="10.4458201"><ele>5.666666666666667</ele><time>2026-04-25T13:22:22.844Z</time></trkpt><trkpt lat="34.5109401" lon="10.4456154"><ele>6.0</ele><time>2026-04-25T13:22:23.821Z</time></trkpt><trkpt lat="34.5108947" lon="10.445411"><ele>6.333333333333334</ele><time>2026-04-25T13:22:24.838Z</time></trkpt><trkpt lat="34.5108491" lon="10.4452031"><ele>6.666666666666667</ele><time>2026-04-25T13:22:25.849Z</time></trkpt><trkpt lat="34.5108013" lon="10.4449991"><ele>7.0</ele><time>2026-04-25T13:22:26.838Z</time></trkpt><trkpt lat="34.5107551" lon="10.4447963"><ele>6.0</ele><time>2026-04-25T13:22:27.834Z</time></trkpt><trkpt lat="34.5107078" lon="10.4445932"><ele>5.0</ele><time>2026-04-25T13:22:28.83Z</time></trkpt><trkpt lat="34.5106549" lon="10.4443834"><ele>4.0</ele><time>2026-04-25T13:22:29.804Z</time></trkpt><trkpt lat="34.5106083" lon="10.444176"><ele>4.0</ele><time>2026-04-25T13:22:30.821Z</time></trkpt><trkpt lat="34.5105631" lon="10.4439695"><ele>4.0</ele><time>2026-04-25T13:22:31.863Z</time></trkpt><trkpt lat="34.5105171" lon="10.4437633"><ele>4.0</ele><time>2026-04-25T13:22:32.821Z</time></trkpt><trkpt lat="34.5104696" lon="10.443558"><ele>4.333333333333333</ele><time>2026-04-25T13:22:33.819Z</time></trkpt><trkpt lat="34.5104203" lon="10.4433501"><ele>4.666666666666667</ele><time>2026-04-25T13:22:34.814Z</time></trkpt><trkpt lat="34.5103744" lon="10.4431401"><ele>5.0</ele><time>2026-04-25T13:22:35.824Z</time></trkpt><trkpt lat="34.5103264" lon="10.442934"><ele>5.0</ele><time>2026-04-25T13:22:36.813Z</time></trkpt><trkpt lat="34.5102819" lon="10.4427298"><ele>5.0</ele><time>2026-04-25T13:22:37.813Z</time></trkpt><trkpt lat="34.5102346" lon="10.4425258"><ele>5.0</ele><time>2026-04-25T13:22:38.807Z</time></trkpt><trkpt lat="34.51019" lon="10.4423176"><ele>5.0</ele><time>2026-04-25T13:22:39.813Z</time></trkpt><trkpt lat="34.51014" lon="10.442112"><ele>5.0</ele><time>2026-04-25T13:22:40.813Z</time></trkpt><trkpt lat="34.5100941" lon="10.4419046"><ele>5.0</ele><time>2026-04-25T13:22:41.806Z</time></trkpt><trkpt lat="34.5100494" lon="10.4416923"><ele>5.0</ele><time>2026-04-25T13:22:42.818Z</time></trkpt><trkpt lat="34.5100033" lon="10.4414834"><ele>5.0</ele><time>2026-04-25T13:22:43.816Z</time></trkpt><trkpt lat="34.509959" lon="10.4412706"><ele>5.0</ele><time>2026-04-25T13:22:44.812Z</time></trkpt><trkpt lat="34.509916" lon="10.4410548"><ele>5.333333333333334</ele><time>2026-04-25T13:22:45.82Z</time></trkpt><trkpt lat="34.5098711" lon="10.4408408"><ele>5.666666666666667</ele><time>2026-04-25T13:22:46.822Z</time></trkpt><trkpt lat="34.5098217" lon="10.4406248"><ele>6.0</ele><time>2026-04-25T13:22:47.804Z</time></trkpt><trkpt lat="34.5097779" lon="10.4404075"><ele>6.0</ele><time>2026-04-25T13:22:48.807Z</time></trkpt><trkpt lat="34.5097298" lon="10.4401891"><ele>6.0</ele><time>2026-04-25T13:22:49.813Z</time></trkpt><trkpt lat="34.5096801" lon="10.439972"><ele>6.0</ele><time>2026-04-25T13:22:50.816Z</time></trkpt><trkpt lat="34.5096278" lon="10.439755"><ele>5.666666666666667</ele><time>2026-04-25T13:22:51.817Z</time></trkpt><trkpt lat="34.5095739" lon="10.4395377"><ele>5.333333333333334</ele><time>2026-04-25T13:22:52.825Z</time></trkpt><trkpt lat="34.5095206" lon="10.4393231"><ele>5.0</ele><time>2026-04-25T13:22:53.816Z</time></trkpt><trkpt lat="34.5094705" lon="10.4391109"><ele>5.0</ele><time>2026-04-25T13:22:54.82Z</time></trkpt><trkpt lat="34.5094234" lon="10.4388971"><ele>5.0</ele><time>2026-04-25T13:22:55.818Z</time></trkpt><trkpt lat="34.5093772" lon="10.4386783"><ele>5.0</ele><time>2026-04-25T13:22:56.817Z</time></trkpt><trkpt lat="34.5093288" lon="10.4384613"><ele>5.333333333333334</ele><time>2026-04-25T13:22:57.813Z</time></trkpt><trkpt lat="34.5092813" lon="10.4382433"><ele>5.666666666666667</ele><time>2026-04-25T13:22:58.818Z</time></trkpt><trkpt lat="34.5092333" lon="10.4380241"><ele>6.0</ele><time>2026-04-25T13:22:59.822Z</time></trkpt><trkpt lat="34.5091861" lon="10.4378026"><ele>6.0</ele><time>2026-04-25T13:23:00.813Z</time></trkpt><trkpt lat="34.5091367" lon="10.4375851"><ele>6.0</ele><time>2026-04-25T13:23:01.851Z</time></trkpt><trkpt lat="34.5090874" lon="10.4373696"><ele>6.0</ele><time>2026-04-25T13:23:02.81Z</time></trkpt><trkpt lat="34.509039" lon="10.4371549"><ele>6.333333333333334</ele><time>2026-04-25T13:23:03.811Z</time></trkpt><trkpt lat="34.5089896" lon="10.4369392"><ele>6.666666666666667</ele><time>2026-04-25T13:23:04.813Z</time></trkpt><trkpt lat="34.5089414" lon="10.4367184"><ele>7.0</ele><time>2026-04-25T13:23:05.813Z</time></trkpt><trkpt lat="34.5088939" lon="10.4365035"><ele>7.0</ele><time>2026-04-25T13:23:06.82Z</time></trkpt><trkpt lat="34.5088425" lon="10.436289"><ele>7.0</ele><time>2026-04-25T13:23:07.814Z</time></trkpt><trkpt lat="34.5087896" lon="10.4360731"><ele>7.0</ele><time>2026-04-25T13:23:08.811Z</time></trkpt><trkpt lat="34.5087339" lon="10.4358564"><ele>7.0</ele><time>2026-04-25T13:23:09.812Z</time></trkpt><trkpt lat="34.508681" lon="10.435644"><ele>7.0</ele><time>2026-04-25T13:23:10.819Z</time></trkpt><trkpt lat="34.5086273" lon="10.4354321"><ele>7.0</ele><time>2026-04-25T13:23:11.804Z</time></trkpt><trkpt lat="34.5085746" lon="10.4352193"><ele>7.0</ele><time>2026-04-25T13:23:12.815Z</time></trkpt><trkpt lat="34.5085224" lon="10.4350026"><ele>7.0</ele><time>2026-04-25T13:23:13.811Z</time></trkpt><trkpt lat="34.5084703" lon="10.4347893"><ele>7.0</ele><time>2026-04-25T13:23:14.808Z</time></trkpt><trkpt lat="34.5084233" lon="10.4345691"><ele>7.0</ele><time>2026-04-25T13:23:15.805Z</time></trkpt><trkpt lat="34.5083707" lon="10.4343534"><ele>7.0</ele><time>2026-04-25T13:23:16.824Z</time></trkpt><trkpt lat="34.5083174" lon="10.4341353"><ele>7.0</ele><time>2026-04-25T13:23:17.81Z</time></trkpt><trkpt lat="34.5082632" lon="10.4339188"><ele>7.0</ele><time>2026-04-25T13:23:18.81Z</time></trkpt><trkpt lat="34.5082136" lon="10.4337058"><ele>7.0</ele><time>2026-04-25T13:23:19.816Z</time></trkpt><trkpt lat="34.50816" lon="10.4334881"><ele>7.0</ele><time>2026-04-25T13:23:20.809Z</time></trkpt><trkpt lat="34.5081068" lon="10.4332726"><ele>7.0</ele><time>2026-04-25T13:23:21.818Z</time></trkpt><trkpt lat="34.5080581" lon="10.4330584"><ele>7.0</ele><time>2026-04-25T13:23:22.819Z</time></trkpt><trkpt lat="34.5080089" lon="10.4328393"><ele>7.0</ele><time>2026-04-25T13:23:23.819Z</time></trkpt><trkpt lat="34.5079556" lon="10.4326242"><ele>6.333333333333334</ele><time>2026-04-25T13:23:24.818Z</time></trkpt><trkpt lat="34.5079003" lon="10.4324077"><ele>5.666666666666667</ele><time>2026-04-25T13:23:25.823Z</time></trkpt><trkpt lat="34.5078463" lon="10.4321948"><ele>5.0</ele><time>2026-04-25T13:23:26.817Z</time></trkpt><trkpt lat="34.5077876" lon="10.4319817"><ele>5.0</ele><time>2026-04-25T13:23:27.82Z</time></trkpt><trkpt lat="34.5077304" lon="10.4317683"><ele>5.0</ele><time>2026-04-25T13:23:28.827Z</time></trkpt><trkpt lat="34.5076721" lon="10.4315504"><ele>5.0</ele><time>2026-04-25T13:23:29.832Z</time></trkpt><trkpt lat="34.5076138" lon="10.4313209"><ele>5.666666666666667</ele><time>2026-04-25T13:23:30.812Z</time></trkpt><trkpt lat="34.5075551" lon="10.4310891"><ele>6.333333333333334</ele><time>2026-04-25T13:23:31.809Z</time></trkpt><trkpt lat="34.5074974" lon="10.4308523"><ele>7.0</ele><time>2026-04-25T13:23:32.812Z</time></trkpt><trkpt lat="34.5074418" lon="10.4306145"><ele>7.0</ele><time>2026-04-25T13:23:33.82Z</time></trkpt><trkpt lat="34.507386" lon="10.4303761"><ele>7.0</ele><time>2026-04-25T13:23:34.813Z</time></trkpt><trkpt lat="34.507329" lon="10.4301386"><ele>7.0</ele><time>2026-04-25T13:23:35.816Z</time></trkpt><trkpt lat="34.5072725" lon="10.4299077"><ele>7.0</ele><time>2026-04-25T13:23:36.806Z</time></trkpt><trkpt lat="34.5072187" lon="10.4296767"><ele>7.0</ele><time>2026-04-25T13:23:37.814Z</time></trkpt><trkpt lat="34.5071619" lon="10.4294491"><ele>7.0</ele><time>2026-04-25T13:23:38.814Z</time></trkpt><trkpt lat="34.507108" lon="10.4292183"><ele>7.0</ele><time>2026-04-25T13:23:39.801Z</time></trkpt><trkpt lat="34.5070553" lon="10.4289855"><ele>7.0</ele><time>2026-04-25T13:23:40.81Z</time></trkpt><trkpt lat="34.5069994" lon="10.428759"><ele>7.0</ele><time>2026-04-25T13:23:41.813Z</time></trkpt><trkpt lat="34.5069457" lon="10.4285319"><ele>7.0</ele><time>2026-04-25T13:23:42.816Z</time></trkpt><trkpt lat="34.5068929" lon="10.4283035"><ele>7.0</ele><time>2026-04-25T13:23:43.812Z</time></trkpt><trkpt lat="34.5068411" lon="10.42808"><ele>7.0</ele><time>2026-04-25T13:23:44.818Z</time></trkpt><trkpt lat="34.5067849" lon="10.4278575"><ele>7.0</ele><time>2026-04-25T13:23:45.81Z</time></trkpt><trkpt lat="34.5067332" lon="10.4276382"><ele>7.0</ele><time>2026-04-25T13:23:46.853Z</time></trkpt><trkpt lat="34.5066818" lon="10.4274171"><ele>7.0</ele><time>2026-04-25T13:23:47.82Z</time></trkpt><trkpt lat="34.5066255" lon="10.4271891"><ele>7.0</ele><time>2026-04-25T13:23:48.815Z</time></trkpt><trkpt lat="34.5065709" lon="10.4269528"><ele>7.0</ele><time>2026-04-25T13:23:49.816Z</time></trkpt><trkpt lat="34.5065122" lon="10.426714"><ele>7.0</ele><time>2026-04-25T13:23:50.805Z</time></trkpt><trkpt lat="34.5064488" lon="10.4264711"><ele>7.333333333333334</ele><time>2026-04-25T13:23:51.804Z</time></trkpt><trkpt lat="34.506388" lon="10.4262354"><ele>7.666666666666666</ele><time>2026-04-25T13:23:52.825Z</time></trkpt><trkpt lat="34.5063264" lon="10.4259993"><ele>8.0</ele><time>2026-04-25T13:23:53.805Z</time></trkpt><trkpt lat="34.5062662" lon="10.4257612"><ele>7.666666666666666</ele><time>2026-04-25T13:23:54.827Z</time></trkpt><trkpt lat="34.5062107" lon="10.4255252"><ele>7.333333333333334</ele><time>2026-04-25T13:23:55.814Z</time></trkpt><trkpt lat="34.5061546" lon="10.4252895"><ele>7.0</ele><time>2026-04-25T13:23:56.821Z</time></trkpt><trkpt lat="34.5060971" lon="10.4250513"><ele>7.0</ele><time>2026-04-25T13:23:57.816Z</time></trkpt><trkpt lat="34.5060425" lon="10.4248207"><ele>7.0</ele><time>2026-04-25T13:23:58.812Z</time></trkpt><trkpt lat="34.5059884" lon="10.4245877"><ele>7.0</ele><time>2026-04-25T13:23:59.811Z</time></trkpt><trkpt lat="34.5059316" lon="10.4243509"><ele>7.333333333333334</ele><time>2026-04-25T13:24:00.811Z</time></trkpt><trkpt lat="34.5058747" lon="10.4241165"><ele>7.666666666666666</ele><time>2026-04-25T13:24:01.839Z</time></trkpt><trkpt lat="34.5058205" lon="10.4238848"><ele>8.0</ele><time>2026-04-25T13:24:02.817Z</time></trkpt><trkpt lat="34.5057667" lon="10.4236533"><ele>8.0</ele><time>2026-04-25T13:24:03.803Z</time></trkpt><trkpt lat="34.5057138" lon="10.4234267"><ele>8.0</ele><time>2026-04-25T13:24:04.823Z</time></trkpt><trkpt lat="34.5056541" lon="10.4231967"><ele>8.0</ele><time>2026-04-25T13:24:05.819Z</time></trkpt><trkpt lat="34.5055921" lon="10.4229683"><ele>8.0</ele><time>2026-04-25T13:24:06.805Z</time></trkpt><trkpt lat="34.5055322" lon="10.4227375"><ele>8.0</ele><time>2026-04-25T13:24:07.808Z</time></trkpt><trkpt lat="34.5054737" lon="10.4225078"><ele>8.0</ele><time>2026-04-25T13:24:08.804Z</time></trkpt><trkpt lat="34.5054159" lon="10.4222741"><ele>8.0</ele><time>2026-04-25T13:24:09.819Z</time></trkpt><trkpt lat="34.5053614" lon="10.4220416"><ele>8.0</ele><time>2026-04-25T13:24:10.807Z</time></trkpt><trkpt lat="34.5053083" lon="10.4218075"><ele>8.0</ele><time>2026-04-25T13:24:11.82Z</time></trkpt><trkpt lat="34.5052478" lon="10.4215599"><ele>7.666666666666666</ele><time>2026-04-25T13:24:12.823Z</time></trkpt><trkpt lat="34.5051876" lon="10.4213081"><ele>7.333333333333334</ele><time>2026-04-25T13:24:13.825Z</time></trkpt><trkpt lat="34.5051197" lon="10.4210407"><ele>7.0</ele><time>2026-04-25T13:24:14.82Z</time></trkpt><trkpt lat="34.5050494" lon="10.4207655"><ele>7.5</ele><time>2026-04-25T13:24:15.804Z</time></trkpt><trkpt lat="34.5049776" lon="10.4204746"><ele>8.0</ele><time>2026-04-25T13:24:16.871Z</time></trkpt><trkpt lat="34.5049059" lon="10.4201845"><ele>8.0</ele><time>2026-04-25T13:24:17.837Z</time></trkpt><trkpt lat="34.5048333" lon="10.419894"><ele>8.0</ele><time>2026-04-25T13:24:18.815Z</time></trkpt><trkpt lat="34.5047605" lon="10.419607"><ele>7.5</ele><time>2026-04-25T13:24:19.808Z</time></trkpt><trkpt lat="34.5046781" lon="10.4193048"><ele>7.0</ele><time>2026-04-25T13:24:20.814Z</time></trkpt><trkpt lat="34.5045904" lon="10.4189724"><ele>7.0</ele><time>2026-04-25T13:24:21.817Z</time></trkpt><trkpt lat="34.5045056" lon="10.4186415"><ele>7.0</ele><time>2026-04-25T13:24:22.807Z</time></trkpt><trkpt lat="34.504436" lon="10.4183243"><ele>7.0</ele><time>2026-04-25T13:24:23.81Z</time></trkpt><trkpt lat="34.5043764" lon="10.418026"><ele>7.0</ele><time>2026-04-25T13:24:24.824Z</time></trkpt><trkpt lat="34.5043145" lon="10.4177458"><ele>7.0</ele><time>2026-04-25T13:24:25.823Z</time></trkpt><trkpt lat="34.5042529" lon="10.4174693"><ele>7.0</ele><time>2026-04-25T13:24:26.811Z</time></trkpt><trkpt lat="34.5041888" lon="10.4172027"><ele>8.0</ele><time>2026-04-25T13:24:27.807Z</time></trkpt><trkpt lat="34.5041222" lon="10.4169269"><ele>9.0</ele><time>2026-04-25T13:24:28.819Z</time></trkpt><trkpt lat="34.5040577" lon="10.4166587"><ele>9.0</ele><time>2026-04-25T13:24:29.822Z</time></trkpt><trkpt lat="34.5039936" lon="10.4163974"><ele>9.0</ele><time>2026-04-25T13:24:30.804Z</time></trkpt><trkpt lat="34.5039301" lon="10.4161361"><ele>9.0</ele><time>2026-04-25T13:24:31.843Z</time></trkpt><trkpt lat="34.5038669" lon="10.4158746"><ele>8.5</ele><time>2026-04-25T13:24:32.805Z</time></trkpt><trkpt lat="34.503805" lon="10.4156104"><ele>8.0</ele><time>2026-04-25T13:24:33.799Z</time></trkpt><trkpt lat="34.5037401" lon="10.4153414"><ele>7.5</ele><time>2026-04-25T13:24:34.801Z</time></trkpt><trkpt lat="34.5036727" lon="10.4150759"><ele>7.0</ele><time>2026-04-25T13:24:35.806Z</time></trkpt><trkpt lat="34.5036055" lon="10.414811"><ele>7.5</ele><time>2026-04-25T13:24:36.812Z</time></trkpt><trkpt lat="34.5035421" lon="10.414546"><ele>8.0</ele><time>2026-04-25T13:24:37.801Z</time></trkpt><trkpt lat="34.5034758" lon="10.4142813"><ele>8.0</ele><time>2026-04-25T13:24:38.814Z</time></trkpt><trkpt lat="34.5034125" lon="10.4140191"><ele>8.0</ele><time>2026-04-25T13:24:39.829Z</time></trkpt><trkpt lat="34.5033464" lon="10.4137509"><ele>8.0</ele><time>2026-04-25T13:24:40.818Z</time></trkpt><trkpt lat="34.5032802" lon="10.4134887"><ele>8.0</ele><time>2026-04-25T13:24:41.812Z</time></trkpt><trkpt lat="34.5032144" lon="10.4132276"><ele>8.0</ele><time>2026-04-25T13:24:42.803Z</time></trkpt><trkpt lat="34.5031517" lon="10.412959"><ele>8.0</ele><time>2026-04-25T13:24:43.824Z</time></trkpt><trkpt lat="34.5030891" lon="10.4126917"><ele>8.0</ele><time>2026-04-25T13:24:44.814Z</time></trkpt><trkpt lat="34.5030272" lon="10.4124253"><ele>8.0</ele><time>2026-04-25T13:24:45.809Z</time></trkpt><trkpt lat="34.5029661" lon="10.4121593"><ele>8.5</ele><time>2026-04-25T13:24:46.808Z</time></trkpt><trkpt lat="34.5029011" lon="10.4118948"><ele>9.0</ele><time>2026-04-25T13:24:47.817Z</time></trkpt><trkpt lat="34.5028383" lon="10.4116322"><ele>9.0</ele><time>2026-04-25T13:24:48.813Z</time></trkpt><trkpt lat="34.5027801" lon="10.4113724"><ele>9.0</ele><time>2026-04-25T13:24:49.812Z</time></trkpt><trkpt lat="34.5027168" lon="10.4111209"><ele>9.0</ele><time>2026-04-25T13:24:50.813Z</time></trkpt><trkpt lat="34.5026544" lon="10.4108747"><ele>9.0</ele><time>2026-04-25T13:24:51.82Z</time></trkpt><trkpt lat="34.5025987" lon="10.4106354"><ele>9.0</ele><time>2026-04-25T13:24:52.811Z</time></trkpt><trkpt lat="34.5025405" lon="10.4104004"><ele>9.0</ele><time>2026-04-25T13:24:53.817Z</time></trkpt><trkpt lat="34.5024806" lon="10.4101636"><ele>8.666666666666666</ele><time>2026-04-25T13:24:54.817Z</time></trkpt><trkpt lat="34.5024238" lon="10.4099231"><ele>8.333333333333332</ele><time>2026-04-25T13:24:55.815Z</time></trkpt><trkpt lat="34.5023618" lon="10.4096812"><ele>8.0</ele><time>2026-04-25T13:24:56.808Z</time></trkpt><trkpt lat="34.5023005" lon="10.4094387"><ele>8.666666666666666</ele><time>2026-04-25T13:24:57.817Z</time></trkpt><trkpt lat="34.5022393" lon="10.4091929"><ele>9.333333333333334</ele><time>2026-04-25T13:24:58.819Z</time></trkpt><trkpt lat="34.5021776" lon="10.408948"><ele>10.0</ele><time>2026-04-25T13:24:59.819Z</time></trkpt><trkpt lat="34.5021202" lon="10.4087022"><ele>10.666666666666668</ele><time>2026-04-25T13:25:00.816Z</time></trkpt><trkpt lat="34.5020611" lon="10.4084665"><ele>11.333333333333334</ele><time>2026-04-25T13:25:01.829Z</time></trkpt><trkpt lat="34.5020077" lon="10.4082365"><ele>12.0</ele><time>2026-04-25T13:25:02.812Z</time></trkpt><trkpt lat="34.5019544" lon="10.4080082"><ele>11.666666666666666</ele><time>2026-04-25T13:25:03.811Z</time></trkpt><trkpt lat="34.5018987" lon="10.4077871"><ele>11.333333333333332</ele><time>2026-04-25T13:25:04.807Z</time></trkpt><trkpt lat="34.5018395" lon="10.4075679"><ele>11.0</ele><time>2026-04-25T13:25:05.812Z</time></trkpt><trkpt lat="34.5017674" lon="10.407345"><ele>11.333333333333332</ele><time>2026-04-25T13:25:06.81Z</time></trkpt><trkpt lat="34.5016779" lon="10.4071243"><ele>11.666666666666666</ele><time>2026-04-25T13:25:07.822Z</time></trkpt><trkpt lat="34.5015765" lon="10.4068976"><ele>12.0</ele><time>2026-04-25T13:25:08.812Z</time></trkpt><trkpt lat="34.5014746" lon="10.4066675"><ele>12.0</ele><time>2026-04-25T13:25:09.804Z</time></trkpt><trkpt lat="34.50137" lon="10.406434"><ele>12.0</ele><time>2026-04-25T13:25:10.819Z</time></trkpt><trkpt lat="34.5012653" lon="10.4061972"><ele>12.0</ele><time>2026-04-25T13:25:11.808Z</time></trkpt><trkpt lat="34.5011567" lon="10.4059582"><ele>12.0</ele><time>2026-04-25T13:25:12.804Z</time></trkpt><trkpt lat="34.5010456" lon="10.4057185"><ele>12.0</ele><time>2026-04-25T13:25:13.821Z</time></trkpt><trkpt lat="34.500938" lon="10.4054808"><ele>12.0</ele><time>2026-04-25T13:25:14.821Z</time></trkpt><trkpt lat="34.5008353" lon="10.4052434"><ele>12.0</ele><time>2026-04-25T13:25:15.826Z</time></trkpt><trkpt lat="34.5007379" lon="10.4050118"><ele>12.0</ele><time>2026-04-25T13:25:16.805Z</time></trkpt><trkpt lat="34.5006416" lon="10.404787"><ele>12.0</ele><time>2026-04-25T13:25:17.822Z</time></trkpt><trkpt lat="34.5005456" lon="10.4045581"><ele>12.0</ele><time>2026-04-25T13:25:18.812Z</time></trkpt><trkpt lat="34.5004491" lon="10.4043172"><ele>12.0</ele><time>2026-04-25T13:25:19.807Z</time></trkpt><trkpt lat="34.5003512" lon="10.4040751"><ele>12.0</ele><time>2026-04-25T13:25:20.799Z</time></trkpt><trkpt lat="34.5002522" lon="10.4038269"><ele>12.0</ele><time>2026-04-25T13:25:21.813Z</time></trkpt><trkpt lat="34.5001559" lon="10.4035797"><ele>12.0</ele><time>2026-04-25T13:25:22.812Z</time></trkpt><trkpt lat="34.5000556" lon="10.4033258"><ele>12.0</ele><time>2026-04-25T13:25:23.815Z</time></trkpt><trkpt lat="34.4999448" lon="10.4030752"><ele>12.5</ele><time>2026-04-25T13:25:24.818Z</time></trkpt><trkpt lat="34.499835" lon="10.4028312"><ele>13.0</ele><time>2026-04-25T13:25:25.806Z</time></trkpt><trkpt lat="34.4997249" lon="10.4025849"><ele>13.0</ele><time>2026-04-25T13:25:26.816Z</time></trkpt><trkpt lat="34.4996186" lon="10.4023359"><ele>13.0</ele><time>2026-04-25T13:25:27.817Z</time></trkpt><trkpt lat="34.4995143" lon="10.4020947"><ele>12.666666666666666</ele><time>2026-04-25T13:25:28.821Z</time></trkpt><trkpt lat="34.4994108" lon="10.4018555"><ele>12.333333333333332</ele><time>2026-04-25T13:25:29.806Z</time></trkpt><trkpt lat="34.4993056" lon="10.4016182"><ele>12.0</ele><time>2026-04-25T13:25:30.817Z</time></trkpt><trkpt lat="34.4991976" lon="10.4013781"><ele>13.0</ele><time>2026-04-25T13:25:31.81Z</time></trkpt><trkpt lat="34.4990875" lon="10.4011267"><ele>14.0</ele><time>2026-04-25T13:25:32.816Z</time></trkpt><trkpt lat="34.4989749" lon="10.4008765"><ele>14.0</ele><time>2026-04-25T13:25:33.814Z</time></trkpt><trkpt lat="34.4988578" lon="10.4006142"><ele>14.0</ele><time>2026-04-25T13:25:34.814Z</time></trkpt><trkpt lat="34.4987372" lon="10.4003468"><ele>15.0</ele><time>2026-04-25T13:25:35.802Z</time></trkpt><trkpt lat="34.4986231" lon="10.4000723"><ele>16.0</ele><time>2026-04-25T13:25:36.812Z</time></trkpt><trkpt lat="34.4985186" lon="10.3997936"><ele>15.5</ele><time>2026-04-25T13:25:37.818Z</time></trkpt><trkpt lat="34.498415" lon="10.3995238"><ele>15.0</ele><time>2026-04-25T13:25:38.828Z</time></trkpt><trkpt lat="34.498315" lon="10.3992673"><ele>15.0</ele><time>2026-04-25T13:25:39.816Z</time></trkpt><trkpt lat="34.4982138" lon="10.3990243"><ele>15.0</ele><time>2026-04-25T13:25:40.809Z</time></trkpt><trkpt lat="34.4981135" lon="10.3987923"><ele>15.0</ele><time>2026-04-25T13:25:41.823Z</time></trkpt><trkpt lat="34.4980148" lon="10.3985657"><ele>14.666666666666668</ele><time>2026-04-25T13:25:42.814Z</time></trkpt><trkpt lat="34.4979178" lon="10.3983396"><ele>14.333333333333334</ele><time>2026-04-25T13:25:43.806Z</time></trkpt><trkpt lat="34.4978199" lon="10.3981183"><ele>14.0</ele><time>2026-04-25T13:25:44.825Z</time></trkpt><trkpt lat="34.4977252" lon="10.3978992"><ele>14.0</ele><time>2026-04-25T13:25:45.823Z</time></trkpt><trkpt lat="34.4976358" lon="10.3976809"><ele>14.0</ele><time>2026-04-25T13:25:46.821Z</time></trkpt><trkpt lat="34.4975474" lon="10.3974672"><ele>14.0</ele><time>2026-04-25T13:25:47.81Z</time></trkpt><trkpt lat="34.4974528" lon="10.3972486"><ele>14.0</ele><time>2026-04-25T13:25:48.814Z</time></trkpt><trkpt lat="34.4973554" lon="10.3970264"><ele>14.0</ele><time>2026-04-25T13:25:49.822Z</time></trkpt><trkpt lat="34.4972564" lon="10.3968027"><ele>14.0</ele><time>2026-04-25T13:25:50.8Z</time></trkpt><trkpt lat="34.4971615" lon="10.3965744"><ele>14.333333333333334</ele><time>2026-04-25T13:25:51.82Z</time></trkpt><trkpt lat="34.497065" lon="10.3963485"><ele>14.666666666666668</ele><time>2026-04-25T13:25:52.807Z</time></trkpt><trkpt lat="34.4969672" lon="10.3961202"><ele>15.0</ele><time>2026-04-25T13:25:53.817Z</time></trkpt><trkpt lat="34.4968685" lon="10.395894"><ele>15.0</ele><time>2026-04-25T13:25:54.819Z</time></trkpt><trkpt lat="34.4967646" lon="10.3956637"><ele>15.0</ele><time>2026-04-25T13:25:55.822Z</time></trkpt><trkpt lat="34.4966669" lon="10.3954311"><ele>15.0</ele><time>2026-04-25T13:25:56.825Z</time></trkpt><trkpt lat="34.4965695" lon="10.395204"><ele>15.0</ele><time>2026-04-25T13:25:57.825Z</time></trkpt><trkpt lat="34.4964765" lon="10.3949785"><ele>15.0</ele><time>2026-04-25T13:25:58.811Z</time></trkpt><trkpt lat="34.4963836" lon="10.3947571"><ele>15.0</ele><time>2026-04-25T13:25:59.809Z</time></trkpt><trkpt lat="34.496289" lon="10.3945311"><ele>15.0</ele><time>2026-04-25T13:26:00.809Z</time></trkpt><trkpt lat="34.4961887" lon="10.3943043"><ele>15.0</ele><time>2026-04-25T13:26:01.81Z</time></trkpt><trkpt lat="34.49609" lon="10.3940768"><ele>15.0</ele><time>2026-04-25T13:26:02.809Z</time></trkpt><trkpt lat="34.4959899" lon="10.3938506"><ele>15.0</ele><time>2026-04-25T13:26:03.808Z</time></trkpt><trkpt lat="34.4958961" lon="10.3936211"><ele>15.0</ele><time>2026-04-25T13:26:04.828Z</time></trkpt><trkpt lat="34.4958032" lon="10.393391"><ele>15.0</ele><time>2026-04-25T13:26:05.81Z</time></trkpt><trkpt lat="34.4957096" lon="10.3931637"><ele>15.0</ele><time>2026-04-25T13:26:06.81Z</time></trkpt><trkpt lat="34.4956117" lon="10.3929429"><ele>15.0</ele><time>2026-04-25T13:26:07.812Z</time></trkpt><trkpt lat="34.495516" lon="10.3927174"><ele>15.0</ele><time>2026-04-25T13:26:08.808Z</time></trkpt><trkpt lat="34.4954202" lon="10.3924855"><ele>15.666666666666668</ele><time>2026-04-25T13:26:09.817Z</time></trkpt><trkpt lat="34.4953235" lon="10.3922513"><ele>16.333333333333336</ele><time>2026-04-25T13:26:10.819Z</time></trkpt><trkpt lat="34.4952265" lon="10.3920195"><ele>17.0</ele><time>2026-04-25T13:26:11.816Z</time></trkpt><trkpt lat="34.4951321" lon="10.3917917"><ele>17.0</ele><time>2026-04-25T13:26:12.805Z</time></trkpt><trkpt lat="34.4950369" lon="10.3915629"><ele>17.0</ele><time>2026-04-25T13:26:13.812Z</time></trkpt><trkpt lat="34.4949433" lon="10.3913448"><ele>17.0</ele><time>2026-04-25T13:26:14.806Z</time></trkpt><trkpt lat="34.4948521" lon="10.3911279"><ele>17.333333333333336</ele><time>2026-04-25T13:26:15.819Z</time></trkpt><trkpt lat="34.49476" lon="10.390915"><ele>17.666666666666668</ele><time>2026-04-25T13:26:16.815Z</time></trkpt><trkpt lat="34.4946673" lon="10.3907037"><ele>18.0</ele><time>2026-04-25T13:26:17.811Z</time></trkpt><trkpt lat="34.4945763" lon="10.3904937"><ele>18.0</ele><time>2026-04-25T13:26:18.812Z</time></trkpt><trkpt lat="34.4944899" lon="10.3902843"><ele>18.0</ele><time>2026-04-25T13:26:19.847Z</time></trkpt><trkpt lat="34.4944002" lon="10.3900852"><ele>18.0</ele><time>2026-04-25T13:26:20.809Z</time></trkpt><trkpt lat="34.4943046" lon="10.3898913"><ele>18.0</ele><time>2026-04-25T13:26:21.806Z</time></trkpt><trkpt lat="34.494205" lon="10.3896949"><ele>18.0</ele><time>2026-04-25T13:26:22.813Z</time></trkpt><trkpt lat="34.4941062" lon="10.3895009"><ele>18.0</ele><time>2026-04-25T13:26:23.819Z</time></trkpt><trkpt lat="34.4940061" lon="10.3893039"><ele>18.0</ele><time>2026-04-25T13:26:24.814Z</time></trkpt><trkpt lat="34.4939067" lon="10.3891093"><ele>18.0</ele><time>2026-04-25T13:26:25.81Z</time></trkpt><trkpt lat="34.4938072" lon="10.3889161"><ele>18.0</ele><time>2026-04-25T13:26:26.816Z</time></trkpt><trkpt lat="34.493707" lon="10.3887252"><ele>18.333333333333332</ele><time>2026-04-25T13:26:27.812Z</time></trkpt><trkpt lat="34.4936086" lon="10.3885305"><ele>18.666666666666664</ele><time>2026-04-25T13:26:28.819Z</time></trkpt><trkpt lat="34.4935093" lon="10.3883327"><ele>19.0</ele><time>2026-04-25T13:26:29.81Z</time></trkpt><trkpt lat="34.4934049" lon="10.3881281"><ele>18.333333333333332</ele><time>2026-04-25T13:26:30.812Z</time></trkpt><trkpt lat="34.4932967" lon="10.387921"><ele>17.666666666666668</ele><time>2026-04-25T13:26:31.821Z</time></trkpt><trkpt lat="34.4931915" lon="10.3877147"><ele>17.0</ele><time>2026-04-25T13:26:32.812Z</time></trkpt><trkpt lat="34.4930867" lon="10.3875092"><ele>17.0</ele><time>2026-04-25T13:26:33.825Z</time></trkpt><trkpt lat="34.4929793" lon="10.3873006"><ele>17.0</ele><time>2026-04-25T13:26:34.823Z</time></trkpt><trkpt lat="34.4928729" lon="10.3870908"><ele>17.0</ele><time>2026-04-25T13:26:35.817Z</time></trkpt><trkpt lat="34.4927688" lon="10.3868737"><ele>17.333333333333336</ele><time>2026-04-25T13:26:36.808Z</time></trkpt><trkpt lat="34.4926613" lon="10.3866594"><ele>17.666666666666668</ele><time>2026-04-25T13:26:37.802Z</time></trkpt><trkpt lat="34.4925536" lon="10.3864475"><ele>18.0</ele><time>2026-04-25T13:26:38.817Z</time></trkpt><trkpt lat="34.4924452" lon="10.3862401"><ele>18.0</ele><time>2026-04-25T13:26:39.809Z</time></trkpt><trkpt lat="34.4923349" lon="10.3860295"><ele>18.0</ele><time>2026-04-25T13:26:40.811Z</time></trkpt><trkpt lat="34.4922273" lon="10.3858158"><ele>18.0</ele><time>2026-04-25T13:26:41.81Z</time></trkpt><trkpt lat="34.4921152" lon="10.3855966"><ele>18.0</ele><time>2026-04-25T13:26:42.813Z</time></trkpt><trkpt lat="34.4920017" lon="10.3853774"><ele>18.0</ele><time>2026-04-25T13:26:43.804Z</time></trkpt><trkpt lat="34.4918871" lon="10.3851545"><ele>18.0</ele><time>2026-04-25T13:26:44.802Z</time></trkpt><trkpt lat="34.491771" lon="10.3849238"><ele>18.0</ele><time>2026-04-25T13:26:45.825Z</time></trkpt><trkpt lat="34.4916501" lon="10.384692"><ele>18.0</ele><time>2026-04-25T13:26:46.819Z</time></trkpt><trkpt lat="34.4915256" lon="10.3844583"><ele>18.0</ele><time>2026-04-25T13:26:47.818Z</time></trkpt><trkpt lat="34.4914049" lon="10.3842232"><ele>18.0</ele><time>2026-04-25T13:26:48.813Z</time></trkpt><trkpt lat="34.4912788" lon="10.3839886"><ele>18.0</ele><time>2026-04-25T13:26:49.829Z</time></trkpt><trkpt lat="34.4911555" lon="10.3837518"><ele>18.0</ele><time>2026-04-25T13:26:50.81Z</time></trkpt><trkpt lat="34.4910329" lon="10.383515"><ele>18.0</ele><time>2026-04-25T13:26:51.818Z</time></trkpt><trkpt lat="34.4909149" lon="10.3832658"><ele>18.0</ele><time>2026-04-25T13:26:52.808Z</time></trkpt><trkpt lat="34.4908004" lon="10.3830273"><ele>17.5</ele><time>2026-04-25T13:26:53.816Z</time></trkpt><trkpt lat="34.4906874" lon="10.3827878"><ele>17.0</ele><time>2026-04-25T13:26:54.815Z</time></trkpt><trkpt lat="34.4905696" lon="10.3825542"><ele>17.0</ele><time>2026-04-25T13:26:55.815Z</time></trkpt><trkpt lat="34.4904504" lon="10.3823212"><ele>17.0</ele><time>2026-04-25T13:26:56.814Z</time></trkpt><trkpt lat="34.49033" lon="10.382094"><ele>17.0</ele><time>2026-04-25T13:26:57.82Z</time></trkpt><trkpt lat="34.4902127" lon="10.3818657"><ele>16.666666666666668</ele><time>2026-04-25T13:26:58.824Z</time></trkpt><trkpt lat="34.4901007" lon="10.3816328"><ele>16.333333333333332</ele><time>2026-04-25T13:26:59.824Z</time></trkpt><trkpt lat="34.4899876" lon="10.3813988"><ele>16.0</ele><time>2026-04-25T13:27:00.808Z</time></trkpt><trkpt lat="34.4898755" lon="10.3811692"><ele>16.0</ele><time>2026-04-25T13:27:01.815Z</time></trkpt><trkpt lat="34.4897598" lon="10.3809424"><ele>16.0</ele><time>2026-04-25T13:27:02.809Z</time></trkpt><trkpt lat="34.4896398" lon="10.3807184"><ele>16.0</ele><time>2026-04-25T13:27:03.85Z</time></trkpt><trkpt lat="34.4895199" lon="10.3804929"><ele>16.0</ele><time>2026-04-25T13:27:04.842Z</time></trkpt><trkpt lat="34.4894045" lon="10.3802652"><ele>16.0</ele><time>2026-04-25T13:27:05.814Z</time></trkpt><trkpt lat="34.4892931" lon="10.3800385"><ele>16.0</ele><time>2026-04-25T13:27:06.813Z</time></trkpt><trkpt lat="34.4891834" lon="10.3798125"><ele>16.666666666666664</ele><time>2026-04-25T13:27:07.814Z</time></trkpt><trkpt lat="34.4890699" lon="10.3795933"><ele>17.333333333333332</ele><time>2026-04-25T13:27:08.819Z</time></trkpt><trkpt lat="34.4889607" lon="10.3793713"><ele>18.0</ele><time>2026-04-25T13:27:09.84Z</time></trkpt><trkpt lat="34.4888493" lon="10.3791523"><ele>18.0</ele><time>2026-04-25T13:27:10.806Z</time></trkpt><trkpt lat="34.4887335" lon="10.3789292"><ele>18.0</ele><time>2026-04-25T13:27:11.818Z</time></trkpt><trkpt lat="34.4886193" lon="10.3787082"><ele>18.0</ele><time>2026-04-25T13:27:12.813Z</time></trkpt><trkpt lat="34.4885054" lon="10.3784864"><ele>18.0</ele><time>2026-04-25T13:27:13.807Z</time></trkpt><trkpt lat="34.4883941" lon="10.3782616"><ele>18.0</ele><time>2026-04-25T13:27:14.816Z</time></trkpt><trkpt lat="34.4882808" lon="10.3780365"><ele>18.0</ele><time>2026-04-25T13:27:15.814Z</time></trkpt><trkpt lat="34.4881666" lon="10.3778099"><ele>18.0</ele><time>2026-04-25T13:27:16.817Z</time></trkpt><trkpt lat="34.4880539" lon="10.377584"><ele>18.0</ele><time>2026-04-25T13:27:17.804Z</time></trkpt><trkpt lat="34.48794" lon="10.3773577"><ele>18.0</ele><time>2026-04-25T13:27:18.801Z</time></trkpt><trkpt lat="34.4878246" lon="10.3771321"><ele>17.666666666666668</ele><time>2026-04-25T13:27:19.83Z</time></trkpt><trkpt lat="34.4877072" lon="10.3769068"><ele>17.333333333333336</ele><time>2026-04-25T13:27:20.811Z</time></trkpt><trkpt lat="34.4875923" lon="10.3766797"><ele>17.0</ele><time>2026-04-25T13:27:21.82Z</time></trkpt><trkpt lat="34.4874771" lon="10.3764586"><ele>17.666666666666668</ele><time>2026-04-25T13:27:22.823Z</time></trkpt><trkpt lat="34.4873649" lon="10.3762414"><ele>18.333333333333332</ele><time>2026-04-25T13:27:23.817Z</time></trkpt><trkpt lat="34.4872549" lon="10.3760255"><ele>19.0</ele><time>2026-04-25T13:27:24.818Z</time></trkpt><trkpt lat="34.487145" lon="10.3758186"><ele>18.333333333333332</ele><time>2026-04-25T13:27:25.804Z</time></trkpt><trkpt lat="34.4870409" lon="10.3756162"><ele>17.666666666666668</ele><time>2026-04-25T13:27:26.822Z</time></trkpt><trkpt lat="34.4869372" lon="10.3754153"><ele>17.0</ele><time>2026-04-25T13:27:27.815Z</time></trkpt><trkpt lat="34.4868351" lon="10.3752253"><ele>17.0</ele><time>2026-04-25T13:27:28.815Z</time></trkpt><trkpt lat="34.4867414" lon="10.3750404"><ele>17.0</ele><time>2026-04-25T13:27:29.809Z</time></trkpt><trkpt lat="34.4866528" lon="10.3748586"><ele>17.0</ele><time>2026-04-25T13:27:30.825Z</time></trkpt><trkpt lat="34.4865694" lon="10.3746875"><ele>17.0</ele><time>2026-04-25T13:27:31.82Z</time></trkpt><trkpt lat="34.4864913" lon="10.3745278"><ele>17.0</ele><time>2026-04-25T13:27:32.812Z</time></trkpt><trkpt lat="34.4864143" lon="10.374379"><ele>17.0</ele><time>2026-04-25T13:27:33.811Z</time></trkpt><trkpt lat="34.4863391" lon="10.3742356"><ele>17.0</ele><time>2026-04-25T13:27:34.829Z</time></trkpt><trkpt lat="34.4862612" lon="10.3740882"><ele>17.0</ele><time>2026-04-25T13:27:35.823Z</time></trkpt><trkpt lat="34.4861725" lon="10.3739306"><ele>17.0</ele><time>2026-04-25T13:27:36.808Z</time></trkpt><trkpt lat="34.486061" lon="10.3737474"><ele>17.0</ele><time>2026-04-25T13:27:37.82Z</time></trkpt><trkpt lat="34.4859461" lon="10.3735275"><ele>18.0</ele><time>2026-04-25T13:27:38.809Z</time></trkpt><trkpt lat="34.4858282" lon="10.373268"><ele>19.0</ele><time>2026-04-25T13:27:39.811Z</time></trkpt><trkpt lat="34.4857029" lon="10.3730058"><ele>19.5</ele><time>2026-04-25T13:27:40.809Z</time></trkpt><trkpt lat="34.4855711" lon="10.3727309"><ele>20.0</ele><time>2026-04-25T13:27:41.816Z</time></trkpt><trkpt lat="34.485435" lon="10.3724611"><ele>20.0</ele><time>2026-04-25T13:27:42.805Z</time></trkpt><trkpt lat="34.4853066" lon="10.3721948"><ele>20.0</ele><time>2026-04-25T13:27:43.807Z</time></trkpt><trkpt lat="34.4851774" lon="10.371948"><ele>20.0</ele><time>2026-04-25T13:27:44.817Z</time></trkpt><trkpt lat="34.485056" lon="10.3717167"><ele>20.0</ele><time>2026-04-25T13:27:45.804Z</time></trkpt><trkpt lat="34.4849417" lon="10.3714916"><ele>20.0</ele><time>2026-04-25T13:27:46.803Z</time></trkpt><trkpt lat="34.4848317" lon="10.3712753"><ele>20.333333333333336</ele><time>2026-04-25T13:27:47.807Z</time></trkpt><trkpt lat="34.4847195" lon="10.3710642"><ele>20.666666666666668</ele><time>2026-04-25T13:27:48.814Z</time></trkpt><trkpt lat="34.4846134" lon="10.3708508"><ele>21.0</ele><time>2026-04-25T13:27:49.815Z</time></trkpt><trkpt lat="34.4845042" lon="10.3706398"><ele>20.0</ele><time>2026-04-25T13:27:50.809Z</time></trkpt><trkpt lat="34.4843925" lon="10.3704214"><ele>19.0</ele><time>2026-04-25T13:27:51.801Z</time></trkpt><trkpt lat="34.4842729" lon="10.3702017"><ele>18.0</ele><time>2026-04-25T13:27:52.819Z</time></trkpt><trkpt lat="34.4841561" lon="10.369977"><ele>18.0</ele><time>2026-04-25T13:27:53.807Z</time></trkpt><trkpt lat="34.4840352" lon="10.3697439"><ele>18.0</ele><time>2026-04-25T13:27:54.811Z</time></trkpt><trkpt lat="34.4839068" lon="10.3695009"><ele>18.0</ele><time>2026-04-25T13:27:55.818Z</time></trkpt><trkpt lat="34.4837682" lon="10.3692429"><ele>18.0</ele><time>2026-04-25T13:27:56.839Z</time></trkpt><trkpt lat="34.4836273" lon="10.3689706"><ele>18.0</ele><time>2026-04-25T13:27:57.813Z</time></trkpt><trkpt lat="34.4834902" lon="10.3686953"><ele>18.0</ele><time>2026-04-25T13:27:58.814Z</time></trkpt><trkpt lat="34.4833475" lon="10.368426"><ele>18.0</ele><time>2026-04-25T13:27:59.818Z</time></trkpt><trkpt lat="34.4832089" lon="10.3681475"><ele>18.0</ele><time>2026-04-25T13:28:00.814Z</time></trkpt><trkpt lat="34.4830779" lon="10.367879"><ele>18.0</ele><time>2026-04-25T13:28:01.816Z</time></trkpt><trkpt lat="34.4829537" lon="10.3676228"><ele>18.0</ele><time>2026-04-25T13:28:02.808Z</time></trkpt><trkpt lat="34.4828426" lon="10.3673791"><ele>17.666666666666668</ele><time>2026-04-25T13:28:03.816Z</time></trkpt><trkpt lat="34.4827363" lon="10.3671434"><ele>17.333333333333336</ele><time>2026-04-25T13:28:04.851Z</time></trkpt><trkpt lat="34.4826287" lon="10.3669248"><ele>17.0</ele><time>2026-04-25T13:28:05.8Z</time></trkpt><trkpt lat="34.4825171" lon="10.3667046"><ele>17.0</ele><time>2026-04-25T13:28:06.819Z</time></trkpt><trkpt lat="34.4824043" lon="10.3664875"><ele>17.0</ele><time>2026-04-25T13:28:07.82Z</time></trkpt><trkpt lat="34.4822928" lon="10.366271"><ele>17.0</ele><time>2026-04-25T13:28:08.813Z</time></trkpt><trkpt lat="34.4821816" lon="10.3660586"><ele>17.0</ele><time>2026-04-25T13:28:09.808Z</time></trkpt><trkpt lat="34.4820731" lon="10.3658367"><ele>17.0</ele><time>2026-04-25T13:28:10.814Z</time></trkpt><trkpt lat="34.4819644" lon="10.3656185"><ele>17.0</ele><time>2026-04-25T13:28:11.823Z</time></trkpt><trkpt lat="34.4818531" lon="10.3653988"><ele>17.0</ele><time>2026-04-25T13:28:12.823Z</time></trkpt><trkpt lat="34.4817438" lon="10.3651763"><ele>17.0</ele><time>2026-04-25T13:28:13.823Z</time></trkpt><trkpt lat="34.4816308" lon="10.3649574"><ele>17.0</ele><time>2026-04-25T13:28:14.815Z</time></trkpt><trkpt lat="34.4815179" lon="10.3647372"><ele>17.333333333333336</ele><time>2026-04-25T13:28:15.82Z</time></trkpt><trkpt lat="34.4814067" lon="10.3645161"><ele>17.666666666666668</ele><time>2026-04-25T13:28:16.805Z</time></trkpt><trkpt lat="34.4812954" lon="10.3642963"><ele>18.0</ele><time>2026-04-25T13:28:17.81Z</time></trkpt><trkpt lat="34.4811854" lon="10.3640778"><ele>18.0</ele><time>2026-04-25T13:28:18.815Z</time></trkpt><trkpt lat="34.4810747" lon="10.3638655"><ele>18.0</ele><time>2026-04-25T13:28:19.843Z</time></trkpt><trkpt lat="34.4809618" lon="10.3636479"><ele>18.0</ele><time>2026-04-25T13:28:20.809Z</time></trkpt><trkpt lat="34.4808517" lon="10.3634282"><ele>18.333333333333332</ele><time>2026-04-25T13:28:21.82Z</time></trkpt><trkpt lat="34.4807426" lon="10.3632125"><ele>18.666666666666664</ele><time>2026-04-25T13:28:22.82Z</time></trkpt><trkpt lat="34.4806348" lon="10.3629971"><ele>19.0</ele><time>2026-04-25T13:28:23.818Z</time></trkpt><trkpt lat="34.4805274" lon="10.3627853"><ele>18.666666666666664</ele><time>2026-04-25T13:28:24.814Z</time></trkpt><trkpt lat="34.4804179" lon="10.3625764"><ele>18.333333333333332</ele><time>2026-04-25T13:28:25.822Z</time></trkpt><trkpt lat="34.4803092" lon="10.3623656"><ele>18.0</ele><time>2026-04-25T13:28:26.817Z</time></trkpt><trkpt lat="34.4801984" lon="10.3621518"><ele>17.666666666666668</ele><time>2026-04-25T13:28:27.805Z</time></trkpt><trkpt lat="34.4800878" lon="10.3619294"><ele>17.333333333333336</ele><time>2026-04-25T13:28:28.815Z</time></trkpt><trkpt lat="34.4799796" lon="10.3617112"><ele>17.0</ele><time>2026-04-25T13:28:29.82Z</time></trkpt><trkpt lat="34.4798712" lon="10.3614943"><ele>17.0</ele><time>2026-04-25T13:28:30.812Z</time></trkpt><trkpt lat="34.4797657" lon="10.3612756"><ele>17.0</ele><time>2026-04-25T13:28:31.808Z</time></trkpt><trkpt lat="34.4796598" lon="10.3610565"><ele>17.0</ele><time>2026-04-25T13:28:32.819Z</time></trkpt><trkpt lat="34.4795551" lon="10.3608348"><ele>17.0</ele><time>2026-04-25T13:28:33.818Z</time></trkpt><trkpt lat="34.4794539" lon="10.3606119"><ele>17.0</ele><time>2026-04-25T13:28:34.825Z</time></trkpt><trkpt lat="34.4793555" lon="10.3603895"><ele>17.0</ele><time>2026-04-25T13:28:35.822Z</time></trkpt><trkpt lat="34.4792546" lon="10.3601721"><ele>17.0</ele><time>2026-04-25T13:28:36.811Z</time></trkpt><trkpt lat="34.4791577" lon="10.3599497"><ele>17.0</ele><time>2026-04-25T13:28:37.814Z</time></trkpt><trkpt lat="34.4790637" lon="10.3597315"><ele>17.0</ele><time>2026-04-25T13:28:38.82Z</time></trkpt><trkpt lat="34.4789647" lon="10.3595136"><ele>17.0</ele><time>2026-04-25T13:28:39.818Z</time></trkpt><trkpt lat="34.4788642" lon="10.3592944"><ele>17.0</ele><time>2026-04-25T13:28:40.807Z</time></trkpt><trkpt lat="34.4787633" lon="10.3590745"><ele>17.0</ele><time>2026-04-25T13:28:41.806Z</time></trkpt><trkpt lat="34.4786603" lon="10.3588513"><ele>17.0</ele><time>2026-04-25T13:28:42.813Z</time></trkpt><trkpt lat="34.4785577" lon="10.3586334"><ele>17.0</ele><time>2026-04-25T13:28:43.826Z</time></trkpt><trkpt lat="34.4784594" lon="10.3584093"><ele>17.0</ele><time>2026-04-25T13:28:44.814Z</time></trkpt><trkpt lat="34.4783582" lon="10.3581865"><ele>17.333333333333336</ele><time>2026-04-25T13:28:45.823Z</time></trkpt><trkpt lat="34.478253" lon="10.3579563"><ele>17.666666666666668</ele><time>2026-04-25T13:28:46.811Z</time></trkpt><trkpt lat="34.4781505" lon="10.3577258"><ele>18.0</ele><time>2026-04-25T13:28:47.812Z</time></trkpt><trkpt lat="34.4780457" lon="10.3574973"><ele>18.0</ele><time>2026-04-25T13:28:48.81Z</time></trkpt><trkpt lat="34.477942" lon="10.3572657"><ele>18.0</ele><time>2026-04-25T13:28:49.804Z</time></trkpt><trkpt lat="34.4778406" lon="10.3570366"><ele>18.0</ele><time>2026-04-25T13:28:50.82Z</time></trkpt><trkpt lat="34.4777376" lon="10.356802"><ele>17.666666666666668</ele><time>2026-04-25T13:28:51.821Z</time></trkpt><trkpt lat="34.477633" lon="10.356572"><ele>17.333333333333336</ele><time>2026-04-25T13:28:52.815Z</time></trkpt><trkpt lat="34.4775264" lon="10.3563458"><ele>17.0</ele><time>2026-04-25T13:28:53.81Z</time></trkpt><trkpt lat="34.4774232" lon="10.3561236"><ele>17.0</ele><time>2026-04-25T13:28:54.816Z</time></trkpt><trkpt lat="34.4773137" lon="10.3558996"><ele>17.0</ele><time>2026-04-25T13:28:55.812Z</time></trkpt><trkpt lat="34.4772119" lon="10.3556696"><ele>17.0</ele><time>2026-04-25T13:28:56.812Z</time></trkpt><trkpt lat="34.4771111" lon="10.3554351"><ele>16.666666666666668</ele><time>2026-04-25T13:28:57.82Z</time></trkpt><trkpt lat="34.4770046" lon="10.3552059"><ele>16.333333333333332</ele><time>2026-04-25T13:28:58.815Z</time></trkpt><trkpt lat="34.4768971" lon="10.354981"><ele>16.0</ele><time>2026-04-25T13:28:59.826Z</time></trkpt><trkpt lat="34.4767946" lon="10.3547469"><ele>16.333333333333332</ele><time>2026-04-25T13:29:00.816Z</time></trkpt><trkpt lat="34.4766853" lon="10.3545126"><ele>16.666666666666668</ele><time>2026-04-25T13:29:01.813Z</time></trkpt><trkpt lat="34.4765794" lon="10.3542759"><ele>17.0</ele><time>2026-04-25T13:29:02.812Z</time></trkpt><trkpt lat="34.4764738" lon="10.3540408"><ele>17.0</ele><time>2026-04-25T13:29:03.812Z</time></trkpt><trkpt lat="34.4763609" lon="10.3538126"><ele>17.0</ele><time>2026-04-25T13:29:04.812Z</time></trkpt><trkpt lat="34.4762595" lon="10.3535821"><ele>17.0</ele><time>2026-04-25T13:29:05.819Z</time></trkpt><trkpt lat="34.476157" lon="10.3533454"><ele>17.0</ele><time>2026-04-25T13:29:06.823Z</time></trkpt><trkpt lat="34.4760442" lon="10.3531188"><ele>17.0</ele><time>2026-04-25T13:29:07.808Z</time></trkpt><trkpt lat="34.4759393" lon="10.3528854"><ele>17.0</ele><time>2026-04-25T13:29:08.804Z</time></trkpt><trkpt lat="34.4758379" lon="10.3526504"><ele>17.0</ele><time>2026-04-25T13:29:09.817Z</time></trkpt><trkpt lat="34.4757281" lon="10.3524263"><ele>17.0</ele><time>2026-04-25T13:29:10.813Z</time></trkpt><trkpt lat="34.4756225" lon="10.352197"><ele>17.0</ele><time>2026-04-25T13:29:11.794Z</time></trkpt><trkpt lat="34.4755286" lon="10.3519634"><ele>17.333333333333336</ele><time>2026-04-25T13:29:12.809Z</time></trkpt><trkpt lat="34.4754248" lon="10.3517309"><ele>17.666666666666668</ele><time>2026-04-25T13:29:13.812Z</time></trkpt><trkpt lat="34.4753188" lon="10.3514999"><ele>18.0</ele><time>2026-04-25T13:29:14.809Z</time></trkpt><trkpt lat="34.4752279" lon="10.3512589"><ele>18.0</ele><time>2026-04-25T13:29:15.816Z</time></trkpt><trkpt lat="34.4751205" lon="10.3510266"><ele>18.0</ele><time>2026-04-25T13:29:16.808Z</time></trkpt><trkpt lat="34.4750048" lon="10.350794"><ele>18.0</ele><time>2026-04-25T13:29:17.81Z</time></trkpt><trkpt lat="34.4748953" lon="10.3505573"><ele>18.5</ele><time>2026-04-25T13:29:18.806Z</time></trkpt><trkpt lat="34.47479" lon="10.3503143"><ele>19.0</ele><time>2026-04-25T13:29:19.81Z</time></trkpt><trkpt lat="34.4746778" lon="10.350078"><ele>19.0</ele><time>2026-04-25T13:29:20.805Z</time></trkpt><trkpt lat="34.4745728" lon="10.3498445"><ele>19.0</ele><time>2026-04-25T13:29:21.815Z</time></trkpt><trkpt lat="34.474475" lon="10.3496011"><ele>19.0</ele><time>2026-04-25T13:29:22.813Z</time></trkpt><trkpt lat="34.4743624" lon="10.3493722"><ele>19.0</ele><time>2026-04-25T13:29:23.807Z</time></trkpt><trkpt lat="34.4742645" lon="10.3491435"><ele>19.0</ele><time>2026-04-25T13:29:24.818Z</time></trkpt><trkpt lat="34.4741592" lon="10.3489167"><ele>19.0</ele><time>2026-04-25T13:29:25.81Z</time></trkpt><trkpt lat="34.4740531" lon="10.348691"><ele>19.0</ele><time>2026-04-25T13:29:26.802Z</time></trkpt><trkpt lat="34.4739536" lon="10.3484546"><ele>19.0</ele><time>2026-04-25T13:29:27.803Z</time></trkpt><trkpt lat="34.4738531" lon="10.3482288"><ele>19.0</ele><time>2026-04-25T13:29:28.802Z</time></trkpt><trkpt lat="34.4737404" lon="10.348004"><ele>19.0</ele><time>2026-04-25T13:29:29.823Z</time></trkpt><trkpt lat="34.473638" lon="10.3477712"><ele>19.0</ele><time>2026-04-25T13:29:30.817Z</time></trkpt><trkpt lat="34.4735332" lon="10.3475426"><ele>19.0</ele><time>2026-04-25T13:29:31.81Z</time></trkpt><trkpt lat="34.473426" lon="10.3473135"><ele>19.0</ele><time>2026-04-25T13:29:32.814Z</time></trkpt><trkpt lat="34.4733226" lon="10.3470863"><ele>19.0</ele><time>2026-04-25T13:29:33.811Z</time></trkpt><trkpt lat="34.4732223" lon="10.3468509"><ele>19.0</ele><time>2026-04-25T13:29:34.809Z</time></trkpt><trkpt lat="34.4731219" lon="10.3466126"><ele>19.0</ele><time>2026-04-25T13:29:35.819Z</time></trkpt><trkpt lat="34.4730163" lon="10.3463835"><ele>19.0</ele><time>2026-04-25T13:29:36.811Z</time></trkpt><trkpt lat="34.4729087" lon="10.3461555"><ele>19.0</ele><time>2026-04-25T13:29:37.819Z</time></trkpt><trkpt lat="34.4728047" lon="10.3459214"><ele>18.333333333333332</ele><time>2026-04-25T13:29:38.814Z</time></trkpt><trkpt lat="34.4727039" lon="10.3456875"><ele>17.666666666666668</ele><time>2026-04-25T13:29:39.818Z</time></trkpt><trkpt lat="34.4725935" lon="10.3454592"><ele>17.0</ele><time>2026-04-25T13:29:40.8Z</time></trkpt><trkpt lat="34.4724945" lon="10.3452292"><ele>17.0</ele><time>2026-04-25T13:29:41.812Z</time></trkpt><trkpt lat="34.4723937" lon="10.3449942"><ele>17.0</ele><time>2026-04-25T13:29:42.816Z</time></trkpt><trkpt lat="34.4722883" lon="10.3447623"><ele>17.0</ele><time>2026-04-25T13:29:43.805Z</time></trkpt><trkpt lat="34.4721804" lon="10.3445359"><ele>17.0</ele><time>2026-04-25T13:29:44.801Z</time></trkpt><trkpt lat="34.4720808" lon="10.3442997"><ele>17.0</ele><time>2026-04-25T13:29:45.812Z</time></trkpt><trkpt lat="34.4719742" lon="10.3440769"><ele>17.0</ele><time>2026-04-25T13:29:46.815Z</time></trkpt><trkpt lat="34.4718623" lon="10.3438467"><ele>16.666666666666668</ele><time>2026-04-25T13:29:47.812Z</time></trkpt><trkpt lat="34.4717642" lon="10.3436155"><ele>16.333333333333332</ele><time>2026-04-25T13:29:48.808Z</time></trkpt><trkpt lat="34.4716565" lon="10.3433846"><ele>16.0</ele><time>2026-04-25T13:29:49.82Z</time></trkpt><trkpt lat="34.4715508" lon="10.343154"><ele>16.0</ele><time>2026-04-25T13:29:50.797Z</time></trkpt><trkpt lat="34.4714513" lon="10.3429179"><ele>16.0</ele><time>2026-04-25T13:29:51.821Z</time></trkpt><trkpt lat="34.4713432" lon="10.3426866"><ele>16.0</ele><time>2026-04-25T13:29:52.813Z</time></trkpt><trkpt lat="34.4712361" lon="10.3424523"><ele>16.0</ele><time>2026-04-25T13:29:53.819Z</time></trkpt><trkpt lat="34.4711393" lon="10.3422115"><ele>16.0</ele><time>2026-04-25T13:29:54.817Z</time></trkpt><trkpt lat="34.4710311" lon="10.3419831"><ele>16.0</ele><time>2026-04-25T13:29:55.816Z</time></trkpt><trkpt lat="34.4709223" lon="10.3417459"><ele>16.0</ele><time>2026-04-25T13:29:56.813Z</time></trkpt><trkpt lat="34.4708237" lon="10.3415082"><ele>16.0</ele><time>2026-04-25T13:29:57.813Z</time></trkpt><trkpt lat="34.4707105" lon="10.3412864"><ele>16.0</ele><time>2026-04-25T13:29:58.812Z</time></trkpt><trkpt lat="34.4706065" lon="10.3410601"><ele>16.333333333333332</ele><time>2026-04-25T13:29:59.815Z</time></trkpt><trkpt lat="34.470513" lon="10.3408313"><ele>16.666666666666668</ele><time>2026-04-25T13:30:00.807Z</time></trkpt><trkpt lat="34.4704046" lon="10.3406042"><ele>17.0</ele><time>2026-04-25T13:30:01.824Z</time></trkpt><trkpt lat="34.4702991" lon="10.3403778"><ele>17.0</ele><time>2026-04-25T13:30:02.814Z</time></trkpt><trkpt lat="34.4701999" lon="10.3401373"><ele>17.0</ele><time>2026-04-25T13:30:03.806Z</time></trkpt><trkpt lat="34.4700936" lon="10.3399077"><ele>17.0</ele><time>2026-04-25T13:30:04.813Z</time></trkpt><trkpt lat="34.4699771" lon="10.3396807"><ele>17.0</ele><time>2026-04-25T13:30:05.812Z</time></trkpt><trkpt lat="34.469876" lon="10.3394493"><ele>17.0</ele><time>2026-04-25T13:30:06.812Z</time></trkpt><trkpt lat="34.4697795" lon="10.3392079"><ele>17.0</ele><time>2026-04-25T13:30:07.819Z</time></trkpt><trkpt lat="34.4696728" lon="10.3389731"><ele>17.0</ele><time>2026-04-25T13:30:08.824Z</time></trkpt><trkpt lat="34.4695697" lon="10.3387378"><ele>17.0</ele><time>2026-04-25T13:30:09.804Z</time></trkpt><trkpt lat="34.469467" lon="10.3385073"><ele>17.0</ele><time>2026-04-25T13:30:10.816Z</time></trkpt><trkpt lat="34.4693508" lon="10.3382803"><ele>17.0</ele><time>2026-04-25T13:30:11.81Z</time></trkpt><trkpt lat="34.4692412" lon="10.338052"><ele>17.0</ele><time>2026-04-25T13:30:12.805Z</time></trkpt><trkpt lat="34.469143" lon="10.3378207"><ele>17.0</ele><time>2026-04-25T13:30:13.808Z</time></trkpt><trkpt lat="34.469039" lon="10.337592"><ele>17.333333333333336</ele><time>2026-04-25T13:30:14.816Z</time></trkpt><trkpt lat="34.4689299" lon="10.3373656"><ele>17.666666666666668</ele><time>2026-04-25T13:30:15.813Z</time></trkpt><trkpt lat="34.4688316" lon="10.3371351"><ele>18.0</ele><time>2026-04-25T13:30:16.818Z</time></trkpt><trkpt lat="34.4687372" lon="10.336899"><ele>17.333333333333332</ele><time>2026-04-25T13:30:17.807Z</time></trkpt><trkpt lat="34.4686244" lon="10.3366691"><ele>16.666666666666664</ele><time>2026-04-25T13:30:18.81Z</time></trkpt><trkpt lat="34.4685259" lon="10.3364373"><ele>16.0</ele><time>2026-04-25T13:30:19.822Z</time></trkpt><trkpt lat="34.4684316" lon="10.3362051"><ele>16.0</ele><time>2026-04-25T13:30:20.807Z</time></trkpt><trkpt lat="34.4683268" lon="10.3359725"><ele>16.0</ele><time>2026-04-25T13:30:21.824Z</time></trkpt><trkpt lat="34.4682157" lon="10.3357449"><ele>16.0</ele><time>2026-04-25T13:30:22.811Z</time></trkpt><trkpt lat="34.4681089" lon="10.3355111"><ele>16.0</ele><time>2026-04-25T13:30:23.811Z</time></trkpt><trkpt lat="34.4679998" lon="10.3352851"><ele>16.0</ele><time>2026-04-25T13:30:24.809Z</time></trkpt><trkpt lat="34.4678915" lon="10.3350517"><ele>16.0</ele><time>2026-04-25T13:30:25.802Z</time></trkpt><trkpt lat="34.467788" lon="10.3348246"><ele>16.333333333333332</ele><time>2026-04-25T13:30:26.807Z</time></trkpt><trkpt lat="34.467684" lon="10.3345913"><ele>16.666666666666668</ele><time>2026-04-25T13:30:27.819Z</time></trkpt><trkpt lat="34.4675816" lon="10.3343544"><ele>17.0</ele><time>2026-04-25T13:30:28.812Z</time></trkpt><trkpt lat="34.4674769" lon="10.3341208"><ele>17.0</ele><time>2026-04-25T13:30:29.828Z</time></trkpt><trkpt lat="34.4673753" lon="10.3338908"><ele>17.0</ele><time>2026-04-25T13:30:30.8Z</time></trkpt><trkpt lat="34.4672744" lon="10.3336702"><ele>17.0</ele><time>2026-04-25T13:30:31.813Z</time></trkpt><trkpt lat="34.4671802" lon="10.33346"><ele>16.666666666666668</ele><time>2026-04-25T13:30:32.813Z</time></trkpt><trkpt lat="34.4670914" lon="10.3332619"><ele>16.333333333333332</ele><time>2026-04-25T13:30:33.838Z</time></trkpt><trkpt lat="34.4670035" lon="10.3330698"><ele>16.0</ele><time>2026-04-25T13:30:34.802Z</time></trkpt><trkpt lat="34.4669226" lon="10.3328855"><ele>16.0</ele><time>2026-04-25T13:30:35.817Z</time></trkpt><trkpt lat="34.4668408" lon="10.3327079"><ele>16.0</ele><time>2026-04-25T13:30:36.815Z</time></trkpt><trkpt lat="34.4667561" lon="10.3325257"><ele>16.0</ele><time>2026-04-25T13:30:37.829Z</time></trkpt><trkpt lat="34.4666676" lon="10.3323334"><ele>16.333333333333332</ele><time>2026-04-25T13:30:38.813Z</time></trkpt><trkpt lat="34.4665661" lon="10.3321342"><ele>16.666666666666668</ele><time>2026-04-25T13:30:39.807Z</time></trkpt><trkpt lat="34.4664498" lon="10.3319247"><ele>17.0</ele><time>2026-04-25T13:30:40.834Z</time></trkpt><trkpt lat="34.4663148" lon="10.3317054"><ele>16.5</ele><time>2026-04-25T13:30:41.824Z</time></trkpt><trkpt lat="34.4661709" lon="10.3314762"><ele>16.0</ele><time>2026-04-25T13:30:42.816Z</time></trkpt><trkpt lat="34.4660159" lon="10.3312318"><ele>15.5</ele><time>2026-04-25T13:30:43.826Z</time></trkpt><trkpt lat="34.4658451" lon="10.3309673"><ele>15.0</ele><time>2026-04-25T13:30:44.812Z</time></trkpt><trkpt lat="34.4656693" lon="10.3306776"><ele>15.0</ele><time>2026-04-25T13:30:45.823Z</time></trkpt><trkpt lat="34.4654907" lon="10.3303909"><ele>15.0</ele><time>2026-04-25T13:30:46.814Z</time></trkpt><trkpt lat="34.465323" lon="10.330099"><ele>15.0</ele><time>2026-04-25T13:30:47.807Z</time></trkpt><trkpt lat="34.4651684" lon="10.329817"><ele>15.0</ele><time>2026-04-25T13:30:48.811Z</time></trkpt><trkpt lat="34.4650204" lon="10.3295592"><ele>15.0</ele><time>2026-04-25T13:30:49.82Z</time></trkpt><trkpt lat="34.464877" lon="10.3293223"><ele>15.0</ele><time>2026-04-25T13:30:50.809Z</time></trkpt><trkpt lat="34.4647364" lon="10.329094"><ele>15.0</ele><time>2026-04-25T13:30:51.819Z</time></trkpt><trkpt lat="34.4646006" lon="10.3288754"><ele>15.0</ele><time>2026-04-25T13:30:52.84Z</time></trkpt><trkpt lat="34.46446" lon="10.3286585"><ele>15.0</ele><time>2026-04-25T13:30:53.803Z</time></trkpt><trkpt lat="34.4643251" lon="10.328447"><ele>15.0</ele><time>2026-04-25T13:30:54.813Z</time></trkpt><trkpt lat="34.4641923" lon="10.3282391"><ele>15.0</ele><time>2026-04-25T13:30:55.812Z</time></trkpt><trkpt lat="34.4640566" lon="10.328027"><ele>15.0</ele><time>2026-04-25T13:30:56.828Z</time></trkpt><trkpt lat="34.463922" lon="10.3278142"><ele>15.0</ele><time>2026-04-25T13:30:57.819Z</time></trkpt><trkpt lat="34.4637876" lon="10.3276016"><ele>15.0</ele><time>2026-04-25T13:30:58.819Z</time></trkpt><trkpt lat="34.4636538" lon="10.3273891"><ele>15.333333333333332</ele><time>2026-04-25T13:30:59.812Z</time></trkpt><trkpt lat="34.4635244" lon="10.3271733"><ele>15.666666666666666</ele><time>2026-04-25T13:31:00.808Z</time></trkpt><trkpt lat="34.4633868" lon="10.3269587"><ele>16.0</ele><time>2026-04-25T13:31:01.806Z</time></trkpt><trkpt lat="34.4632482" lon="10.3267454"><ele>16.0</ele><time>2026-04-25T13:31:02.814Z</time></trkpt><trkpt lat="34.4631109" lon="10.3265328"><ele>16.0</ele><time>2026-04-25T13:31:03.805Z</time></trkpt><trkpt lat="34.4629734" lon="10.3263189"><ele>16.0</ele><time>2026-04-25T13:31:04.815Z</time></trkpt><trkpt lat="34.462834" lon="10.3261007"><ele>15.5</ele><time>2026-04-25T13:31:05.82Z</time></trkpt><trkpt lat="34.4626986" lon="10.3258835"><ele>15.0</ele><time>2026-04-25T13:31:06.817Z</time></trkpt><trkpt lat="34.4625634" lon="10.3256622"><ele>15.0</ele><time>2026-04-25T13:31:07.809Z</time></trkpt><trkpt lat="34.4624321" lon="10.3254439"><ele>15.0</ele><time>2026-04-25T13:31:08.812Z</time></trkpt><trkpt lat="34.4622985" lon="10.325231"><ele>15.0</ele><time>2026-04-25T13:31:09.814Z</time></trkpt><trkpt lat="34.4621675" lon="10.3250226"><ele>15.0</ele><time>2026-04-25T13:31:10.805Z</time></trkpt><trkpt lat="34.4620427" lon="10.324817"><ele>15.0</ele><time>2026-04-25T13:31:11.813Z</time></trkpt><trkpt lat="34.4619204" lon="10.3246231"><ele>15.0</ele><time>2026-04-25T13:31:12.813Z</time></trkpt><trkpt lat="34.4618023" lon="10.324435"><ele>15.0</ele><time>2026-04-25T13:31:13.812Z</time></trkpt><trkpt lat="34.4616879" lon="10.3242527"><ele>15.0</ele><time>2026-04-25T13:31:14.814Z</time></trkpt><trkpt lat="34.4615751" lon="10.3240736"><ele>15.0</ele><time>2026-04-25T13:31:15.815Z</time></trkpt><trkpt lat="34.4614627" lon="10.3238945"><ele>15.0</ele><time>2026-04-25T13:31:16.807Z</time></trkpt><trkpt lat="34.4613607" lon="10.3237226"><ele>15.0</ele><time>2026-04-25T13:31:17.801Z</time></trkpt><trkpt lat="34.4612601" lon="10.3235611"><ele>15.0</ele><time>2026-04-25T13:31:18.817Z</time></trkpt><trkpt lat="34.4611619" lon="10.3234005"><ele>14.666666666666668</ele><time>2026-04-25T13:31:19.802Z</time></trkpt><trkpt lat="34.4610682" lon="10.3232358"><ele>14.333333333333334</ele><time>2026-04-25T13:31:20.816Z</time></trkpt><trkpt lat="34.4609703" lon="10.3230626"><ele>14.0</ele><time>2026-04-25T13:31:21.81Z</time></trkpt><trkpt lat="34.4608799" lon="10.322882"><ele>14.0</ele><time>2026-04-25T13:31:22.82Z</time></trkpt><trkpt lat="34.4607879" lon="10.3227033"><ele>14.0</ele><time>2026-04-25T13:31:23.818Z</time></trkpt><trkpt lat="34.4607004" lon="10.3225225"><ele>14.0</ele><time>2026-04-25T13:31:24.808Z</time></trkpt><trkpt lat="34.4606094" lon="10.3223528"><ele>14.333333333333334</ele><time>2026-04-25T13:31:25.809Z</time></trkpt><trkpt lat="34.4605237" lon="10.3221809"><ele>14.666666666666668</ele><time>2026-04-25T13:31:26.815Z</time></trkpt><trkpt lat="34.4604468" lon="10.3220143"><ele>15.0</ele><time>2026-04-25T13:31:27.809Z</time></trkpt><trkpt lat="34.4603718" lon="10.3218581"><ele>15.0</ele><time>2026-04-25T13:31:28.811Z</time></trkpt><trkpt lat="34.4602961" lon="10.3217046"><ele>15.0</ele><time>2026-04-25T13:31:29.812Z</time></trkpt><trkpt lat="34.4602171" lon="10.321554"><ele>15.0</ele><time>2026-04-25T13:31:30.811Z</time></trkpt><trkpt lat="34.4601421" lon="10.3213988"><ele>15.0</ele><time>2026-04-25T13:31:31.809Z</time></trkpt><trkpt lat="34.4600749" lon="10.3212428"><ele>15.0</ele><time>2026-04-25T13:31:32.817Z</time></trkpt><trkpt lat="34.4600037" lon="10.3210916"><ele>15.0</ele><time>2026-04-25T13:31:33.81Z</time></trkpt><trkpt lat="34.4599231" lon="10.3209456"><ele>15.0</ele><time>2026-04-25T13:31:34.81Z</time></trkpt><trkpt lat="34.4598454" lon="10.3207968"><ele>15.0</ele><time>2026-04-25T13:31:35.814Z</time></trkpt><trkpt lat="34.4597799" lon="10.3206426"><ele>15.0</ele><time>2026-04-25T13:31:36.819Z</time></trkpt><trkpt lat="34.4597036" lon="10.3204937"><ele>15.0</ele><time>2026-04-25T13:31:37.823Z</time></trkpt><trkpt lat="34.4596186" lon="10.3203504"><ele>15.0</ele><time>2026-04-25T13:31:38.817Z</time></trkpt><trkpt lat="34.4595487" lon="10.3201939"><ele>15.0</ele><time>2026-04-25T13:31:39.8Z</time></trkpt><trkpt lat="34.459467" lon="10.3200354"><ele>15.0</ele><time>2026-04-25T13:31:40.815Z</time></trkpt><trkpt lat="34.4593733" lon="10.3198715"><ele>15.0</ele><time>2026-04-25T13:31:41.817Z</time></trkpt><trkpt lat="34.4592874" lon="10.3197152"><ele>15.0</ele><time>2026-04-25T13:31:42.816Z</time></trkpt><trkpt lat="34.4592104" lon="10.3195577"><ele>15.0</ele><time>2026-04-25T13:31:43.815Z</time></trkpt><trkpt lat="34.459136" lon="10.3194024"><ele>15.0</ele><time>2026-04-25T13:31:44.808Z</time></trkpt><trkpt lat="34.4590601" lon="10.3192423"><ele>15.0</ele><time>2026-04-25T13:31:45.812Z</time></trkpt><trkpt lat="34.4589726" lon="10.3190819"><ele>15.0</ele><time>2026-04-25T13:31:46.82Z</time></trkpt><trkpt lat="34.4588763" lon="10.3189062"><ele>15.0</ele><time>2026-04-25T13:31:47.819Z</time></trkpt><trkpt lat="34.4587785" lon="10.3187165"><ele>15.0</ele><time>2026-04-25T13:31:48.819Z</time></trkpt><trkpt lat="34.458683" lon="10.3185239"><ele>14.666666666666668</ele><time>2026-04-25T13:31:49.813Z</time></trkpt><trkpt lat="34.4585887" lon="10.3183304"><ele>14.333333333333334</ele><time>2026-04-25T13:31:50.804Z</time></trkpt><trkpt lat="34.4584969" lon="10.318135"><ele>14.0</ele><time>2026-04-25T13:31:51.815Z</time></trkpt><trkpt lat="34.4583967" lon="10.3179345"><ele>14.0</ele><time>2026-04-25T13:31:52.86Z</time></trkpt><trkpt lat="34.4582926" lon="10.3177244"><ele>14.0</ele><time>2026-04-25T13:31:53.812Z</time></trkpt><trkpt lat="34.4581878" lon="10.3175063"><ele>14.0</ele><time>2026-04-25T13:31:54.805Z</time></trkpt><trkpt lat="34.4580891" lon="10.3172829"><ele>13.666666666666668</ele><time>2026-04-25T13:31:55.816Z</time></trkpt><trkpt lat="34.4579874" lon="10.3170539"><ele>13.333333333333332</ele><time>2026-04-25T13:31:56.819Z</time></trkpt><trkpt lat="34.4578812" lon="10.316822"><ele>13.0</ele><time>2026-04-25T13:31:57.807Z</time></trkpt><trkpt lat="34.4577618" lon="10.3165853"><ele>13.5</ele><time>2026-04-25T13:31:58.812Z</time></trkpt><trkpt lat="34.457627" lon="10.316339"><ele>14.0</ele><time>2026-04-25T13:31:59.82Z</time></trkpt><trkpt lat="34.4574846" lon="10.3160768"><ele>14.0</ele><time>2026-04-25T13:32:00.822Z</time></trkpt><trkpt lat="34.4573353" lon="10.3157931"><ele>14.0</ele><time>2026-04-25T13:32:01.807Z</time></trkpt><trkpt lat="34.4571876" lon="10.3155048"><ele>13.5</ele><time>2026-04-25T13:32:02.809Z</time></trkpt><trkpt lat="34.4570512" lon="10.3152121"><ele>13.0</ele><time>2026-04-25T13:32:03.808Z</time></trkpt><trkpt lat="34.4569226" lon="10.3149263"><ele>12.5</ele><time>2026-04-25T13:32:04.819Z</time></trkpt><trkpt lat="34.4567909" lon="10.3146526"><ele>12.0</ele><time>2026-04-25T13:32:05.821Z</time></trkpt><trkpt lat="34.4566589" lon="10.314386"><ele>12.0</ele><time>2026-04-25T13:32:06.808Z</time></trkpt><trkpt lat="34.4565275" lon="10.3141251"><ele>12.0</ele><time>2026-04-25T13:32:07.839Z</time></trkpt><trkpt lat="34.4563997" lon="10.3138666"><ele>12.5</ele><time>2026-04-25T13:32:08.815Z</time></trkpt><trkpt lat="34.4562701" lon="10.3136056"><ele>13.0</ele><time>2026-04-25T13:32:09.803Z</time></trkpt><trkpt lat="34.4561432" lon="10.3133482"><ele>13.0</ele><time>2026-04-25T13:32:10.818Z</time></trkpt><trkpt lat="34.4560174" lon="10.3130903"><ele>13.0</ele><time>2026-04-25T13:32:11.826Z</time></trkpt><trkpt lat="34.4558891" lon="10.3128398"><ele>13.0</ele><time>2026-04-25T13:32:12.809Z</time></trkpt><trkpt lat="34.4557666" lon="10.3125858"><ele>13.0</ele><time>2026-04-25T13:32:13.811Z</time></trkpt><trkpt lat="34.455643" lon="10.3123347"><ele>13.0</ele><time>2026-04-25T13:32:14.811Z</time></trkpt><trkpt lat="34.455524" lon="10.3120841"><ele>13.0</ele><time>2026-04-25T13:32:15.811Z</time></trkpt><trkpt lat="34.4554015" lon="10.3118366"><ele>13.0</ele><time>2026-04-25T13:32:16.814Z</time></trkpt><trkpt lat="34.4552784" lon="10.3115868"><ele>13.0</ele><time>2026-04-25T13:32:17.811Z</time></trkpt><trkpt lat="34.4551566" lon="10.3113417"><ele>12.0</ele><time>2026-04-25T13:32:18.841Z</time></trkpt><trkpt lat="34.4550367" lon="10.3110952"><ele>11.0</ele><time>2026-04-25T13:32:19.828Z</time></trkpt><trkpt lat="34.4549177" lon="10.3108543"><ele>11.0</ele><time>2026-04-25T13:32:20.84Z</time></trkpt><trkpt lat="34.4547974" lon="10.3106082"><ele>11.0</ele><time>2026-04-25T13:32:21.845Z</time></trkpt><trkpt lat="34.4546769" lon="10.3103668"><ele>10.5</ele><time>2026-04-25T13:32:22.804Z</time></trkpt><trkpt lat="34.4545577" lon="10.3101256"><ele>10.0</ele><time>2026-04-25T13:32:23.821Z</time></trkpt><trkpt lat="34.4544406" lon="10.3098847"><ele>10.5</ele><time>2026-04-25T13:32:24.819Z</time></trkpt><trkpt lat="34.4543242" lon="10.309641"><ele>11.0</ele><time>2026-04-25T13:32:25.805Z</time></trkpt><trkpt lat="34.4542038" lon="10.3094037"><ele>11.0</ele><time>2026-04-25T13:32:26.808Z</time></trkpt><trkpt lat="34.4540822" lon="10.3091644"><ele>11.0</ele><time>2026-04-25T13:32:27.824Z</time></trkpt><trkpt lat="34.4539631" lon="10.3089222"><ele>11.0</ele><time>2026-04-25T13:32:28.806Z</time></trkpt><trkpt lat="34.4538414" lon="10.3086817"><ele>11.0</ele><time>2026-04-25T13:32:29.805Z</time></trkpt><trkpt lat="34.453721" lon="10.3084373"><ele>10.5</ele><time>2026-04-25T13:32:30.804Z</time></trkpt><trkpt lat="34.4536042" lon="10.3081918"><ele>10.0</ele><time>2026-04-25T13:32:31.829Z</time></trkpt><trkpt lat="34.4534812" lon="10.307948"><ele>9.5</ele><time>2026-04-25T13:32:32.811Z</time></trkpt><trkpt lat="34.4533604" lon="10.307706"><ele>9.0</ele><time>2026-04-25T13:32:33.809Z</time></trkpt><trkpt lat="34.4532438" lon="10.3074617"><ele>9.0</ele><time>2026-04-25T13:32:34.807Z</time></trkpt><trkpt lat="34.4531228" lon="10.3072226"><ele>9.0</ele><time>2026-04-25T13:32:35.825Z</time></trkpt><trkpt lat="34.4530082" lon="10.3069824"><ele>8.5</ele><time>2026-04-25T13:32:36.817Z</time></trkpt><trkpt lat="34.4528918" lon="10.3067446"><ele>8.0</ele><time>2026-04-25T13:32:37.799Z</time></trkpt><trkpt lat="34.4527782" lon="10.3065066"><ele>8.0</ele><time>2026-04-25T13:32:38.809Z</time></trkpt><trkpt lat="34.4526645" lon="10.3062613"><ele>8.0</ele><time>2026-04-25T13:32:39.812Z</time></trkpt><trkpt lat="34.4525465" lon="10.3060204"><ele>8.0</ele><time>2026-04-25T13:32:40.823Z</time></trkpt><trkpt lat="34.4524278" lon="10.3057835"><ele>8.0</ele><time>2026-04-25T13:32:41.817Z</time></trkpt><trkpt lat="34.452306" lon="10.3055405"><ele>8.5</ele><time>2026-04-25T13:32:42.809Z</time></trkpt><trkpt lat="34.4521841" lon="10.3052935"><ele>9.0</ele><time>2026-04-25T13:32:43.815Z</time></trkpt><trkpt lat="34.4520609" lon="10.3050423"><ele>9.0</ele><time>2026-04-25T13:32:44.812Z</time></trkpt><trkpt lat="34.4519337" lon="10.3047916"><ele>9.0</ele><time>2026-04-25T13:32:45.799Z</time></trkpt><trkpt lat="34.4518117" lon="10.3045412"><ele>9.0</ele><time>2026-04-25T13:32:46.804Z</time></trkpt><trkpt lat="34.4516882" lon="10.3042875"><ele>9.0</ele><time>2026-04-25T13:32:47.813Z</time></trkpt><trkpt lat="34.4515644" lon="10.3040349"><ele>8.5</ele><time>2026-04-25T13:32:48.819Z</time></trkpt><trkpt lat="34.4514365" lon="10.3037836"><ele>8.0</ele><time>2026-04-25T13:32:49.807Z</time></trkpt><trkpt lat="34.45131" lon="10.3035325"><ele>7.5</ele><time>2026-04-25T13:32:50.814Z</time></trkpt><trkpt lat="34.4511827" lon="10.3032821"><ele>7.0</ele><time>2026-04-25T13:32:51.82Z</time></trkpt><trkpt lat="34.4510563" lon="10.3030323"><ele>7.0</ele><time>2026-04-25T13:32:52.845Z</time></trkpt><trkpt lat="34.4509363" lon="10.3027858"><ele>7.0</ele><time>2026-04-25T13:32:53.804Z</time></trkpt><trkpt lat="34.4508137" lon="10.3025332"><ele>7.0</ele><time>2026-04-25T13:32:54.809Z</time></trkpt><trkpt lat="34.4506909" lon="10.3022829"><ele>7.0</ele><time>2026-04-25T13:32:55.816Z</time></trkpt><trkpt lat="34.4505659" lon="10.3020338"><ele>8.5</ele><time>2026-04-25T13:32:56.817Z</time></trkpt><trkpt lat="34.4504372" lon="10.3017845"><ele>10.0</ele><time>2026-04-25T13:32:57.807Z</time></trkpt><trkpt lat="34.4503092" lon="10.3015329"><ele>10.0</ele><time>2026-04-25T13:32:58.819Z</time></trkpt><trkpt lat="34.4501832" lon="10.301283"><ele>10.0</ele><time>2026-04-25T13:32:59.825Z</time></trkpt><trkpt lat="34.4500606" lon="10.3010344"><ele>10.0</ele><time>2026-04-25T13:33:00.81Z</time></trkpt><trkpt lat="34.4499387" lon="10.3007833"><ele>10.0</ele><time>2026-04-25T13:33:01.799Z</time></trkpt><trkpt lat="34.4498141" lon="10.3005328"><ele>10.0</ele><time>2026-04-25T13:33:02.812Z</time></trkpt><trkpt lat="34.4496883" lon="10.3002844"><ele>10.0</ele><time>2026-04-25T13:33:03.818Z</time></trkpt><trkpt lat="34.4495621" lon="10.3000331"><ele>9.5</ele><time>2026-04-25T13:33:04.818Z</time></trkpt><trkpt lat="34.4494374" lon="10.299779"><ele>9.0</ele><time>2026-04-25T13:33:05.819Z</time></trkpt><trkpt lat="34.4493117" lon="10.2995256"><ele>10.0</ele><time>2026-04-25T13:33:06.81Z</time></trkpt><trkpt lat="34.4491852" lon="10.2992705"><ele>11.0</ele><time>2026-04-25T13:33:07.833Z</time></trkpt><trkpt lat="34.4490639" lon="10.2990193"><ele>11.5</ele><time>2026-04-25T13:33:08.809Z</time></trkpt><trkpt lat="34.4489377" lon="10.2987655"><ele>12.0</ele><time>2026-04-25T13:33:09.811Z</time></trkpt><trkpt lat="34.4488133" lon="10.2985133"><ele>11.5</ele><time>2026-04-25T13:33:10.82Z</time></trkpt><trkpt lat="34.4486908" lon="10.2982646"><ele>11.0</ele><time>2026-04-25T13:33:11.817Z</time></trkpt><trkpt lat="34.4485676" lon="10.2980136"><ele>11.0</ele><time>2026-04-25T13:33:12.814Z</time></trkpt><trkpt lat="34.4484438" lon="10.2977645"><ele>11.0</ele><time>2026-04-25T13:33:13.814Z</time></trkpt><trkpt lat="34.4483208" lon="10.2975154"><ele>11.0</ele><time>2026-04-25T13:33:14.812Z</time></trkpt><trkpt lat="34.4481927" lon="10.2972671"><ele>11.0</ele><time>2026-04-25T13:33:15.808Z</time></trkpt><trkpt lat="34.4480667" lon="10.2970179"><ele>11.0</ele><time>2026-04-25T13:33:16.813Z</time></trkpt><trkpt lat="34.4479417" lon="10.2967647"><ele>11.0</ele><time>2026-04-25T13:33:17.81Z</time></trkpt><trkpt lat="34.4478191" lon="10.2965102"><ele>11.5</ele><time>2026-04-25T13:33:18.812Z</time></trkpt><trkpt lat="34.4476959" lon="10.2962574"><ele>12.0</ele><time>2026-04-25T13:33:19.817Z</time></trkpt><trkpt lat="34.4475758" lon="10.2960028"><ele>12.0</ele><time>2026-04-25T13:33:20.824Z</time></trkpt><trkpt lat="34.4474533" lon="10.2957525"><ele>12.0</ele><time>2026-04-25T13:33:21.818Z</time></trkpt><trkpt lat="34.4473277" lon="10.2954994"><ele>12.5</ele><time>2026-04-25T13:33:22.806Z</time></trkpt><trkpt lat="34.4472023" lon="10.2952462"><ele>13.0</ele><time>2026-04-25T13:33:23.803Z</time></trkpt><trkpt lat="34.4470736" lon="10.2950064"><ele>13.0</ele><time>2026-04-25T13:33:24.806Z</time></trkpt><trkpt lat="34.4469523" lon="10.294781"><ele>13.0</ele><time>2026-04-25T13:33:25.811Z</time></trkpt><trkpt lat="34.446845" lon="10.294566"><ele>13.0</ele><time>2026-04-25T13:33:26.813Z</time></trkpt><trkpt lat="34.4467457" lon="10.2943666"><ele>13.333333333333332</ele><time>2026-04-25T13:33:27.818Z</time></trkpt><trkpt lat="34.4466556" lon="10.2941813"><ele>13.666666666666668</ele><time>2026-04-25T13:33:28.813Z</time></trkpt><trkpt lat="34.4465727" lon="10.2939994"><ele>14.0</ele><time>2026-04-25T13:33:29.842Z</time></trkpt><trkpt lat="34.4464954" lon="10.2938129"><ele>14.333333333333334</ele><time>2026-04-25T13:33:30.808Z</time></trkpt><trkpt lat="34.4464172" lon="10.2936249"><ele>14.666666666666668</ele><time>2026-04-25T13:33:31.813Z</time></trkpt><trkpt lat="34.4463457" lon="10.2934426"><ele>15.0</ele><time>2026-04-25T13:33:32.806Z</time></trkpt><trkpt lat="34.4462841" lon="10.2932557"><ele>14.666666666666668</ele><time>2026-04-25T13:33:33.809Z</time></trkpt><trkpt lat="34.4462248" lon="10.2930663"><ele>14.333333333333334</ele><time>2026-04-25T13:33:34.821Z</time></trkpt><trkpt lat="34.4461658" lon="10.2928799"><ele>14.0</ele><time>2026-04-25T13:33:35.811Z</time></trkpt><trkpt lat="34.4461108" lon="10.292687"><ele>14.0</ele><time>2026-04-25T13:33:36.82Z</time></trkpt><trkpt lat="34.4460589" lon="10.2924904"><ele>14.0</ele><time>2026-04-25T13:33:37.807Z</time></trkpt><trkpt lat="34.4460035" lon="10.292295"><ele>14.0</ele><time>2026-04-25T13:33:38.811Z</time></trkpt><trkpt lat="34.4459503" lon="10.2920998"><ele>14.333333333333334</ele><time>2026-04-25T13:33:39.814Z</time></trkpt><trkpt lat="34.4458972" lon="10.2919025"><ele>14.666666666666668</ele><time>2026-04-25T13:33:40.82Z</time></trkpt><trkpt lat="34.4458378" lon="10.2916989"><ele>15.0</ele><time>2026-04-25T13:33:41.804Z</time></trkpt><trkpt lat="34.445778" lon="10.2914998"><ele>15.333333333333332</ele><time>2026-04-25T13:33:42.813Z</time></trkpt><trkpt lat="34.4457159" lon="10.2913035"><ele>15.666666666666666</ele><time>2026-04-25T13:33:43.816Z</time></trkpt><trkpt lat="34.4456542" lon="10.2910959"><ele>16.0</ele><time>2026-04-25T13:33:44.822Z</time></trkpt><trkpt lat="34.4455907" lon="10.2908897"><ele>16.0</ele><time>2026-04-25T13:33:45.806Z</time></trkpt><trkpt lat="34.4455284" lon="10.2906729"><ele>16.0</ele><time>2026-04-25T13:33:46.813Z</time></trkpt><trkpt lat="34.4454668" lon="10.29046"><ele>16.0</ele><time>2026-04-25T13:33:47.818Z</time></trkpt><trkpt lat="34.4454061" lon="10.2902621"><ele>15.666666666666666</ele><time>2026-04-25T13:33:48.803Z</time></trkpt><trkpt lat="34.4453474" lon="10.2900796"><ele>15.333333333333332</ele><time>2026-04-25T13:33:49.815Z</time></trkpt><trkpt lat="34.4452942" lon="10.2898983"><ele>15.0</ele><time>2026-04-25T13:33:50.809Z</time></trkpt><trkpt lat="34.4452388" lon="10.2897138"><ele>15.0</ele><time>2026-04-25T13:33:51.845Z</time></trkpt><trkpt lat="34.4451834" lon="10.2895305"><ele>15.0</ele><time>2026-04-25T13:33:52.808Z</time></trkpt><trkpt lat="34.4451297" lon="10.2893435"><ele>15.0</ele><time>2026-04-25T13:33:53.814Z</time></trkpt><trkpt lat="34.445074" lon="10.2891416"><ele>15.0</ele><time>2026-04-25T13:33:54.812Z</time></trkpt><trkpt lat="34.445013" lon="10.2889427"><ele>15.0</ele><time>2026-04-25T13:33:55.798Z</time></trkpt><trkpt lat="34.4449566" lon="10.2887433"><ele>15.0</ele><time>2026-04-25T13:33:56.822Z</time></trkpt><trkpt lat="34.4448962" lon="10.2885445"><ele>15.0</ele><time>2026-04-25T13:33:57.803Z</time></trkpt><trkpt lat="34.4448391" lon="10.2883491"><ele>15.0</ele><time>2026-04-25T13:33:58.813Z</time></trkpt><trkpt lat="34.4447861" lon="10.2881582"><ele>15.0</ele><time>2026-04-25T13:33:59.826Z</time></trkpt><trkpt lat="34.4447321" lon="10.2879701"><ele>15.0</ele><time>2026-04-25T13:34:00.815Z</time></trkpt><trkpt lat="34.4446807" lon="10.2877859"><ele>15.0</ele><time>2026-04-25T13:34:01.817Z</time></trkpt><trkpt lat="34.4446238" lon="10.2875946"><ele>15.0</ele><time>2026-04-25T13:34:02.814Z</time></trkpt><trkpt lat="34.444566" lon="10.2874033"><ele>14.333333333333332</ele><time>2026-04-25T13:34:03.806Z</time></trkpt><trkpt lat="34.4445071" lon="10.2872071"><ele>13.666666666666666</ele><time>2026-04-25T13:34:04.806Z</time></trkpt><trkpt lat="34.4444458" lon="10.2870001"><ele>13.0</ele><time>2026-04-25T13:34:05.813Z</time></trkpt><trkpt lat="34.4443829" lon="10.2867922"><ele>13.0</ele><time>2026-04-25T13:34:06.809Z</time></trkpt><trkpt lat="34.444319" lon="10.286582"><ele>13.0</ele><time>2026-04-25T13:34:07.814Z</time></trkpt><trkpt lat="34.4442513" lon="10.2863616"><ele>13.0</ele><time>2026-04-25T13:34:08.818Z</time></trkpt><trkpt lat="34.4441844" lon="10.2861426"><ele>13.0</ele><time>2026-04-25T13:34:09.823Z</time></trkpt><trkpt lat="34.4441177" lon="10.2859267"><ele>13.0</ele><time>2026-04-25T13:34:10.805Z</time></trkpt><trkpt lat="34.4440526" lon="10.2857045"><ele>13.0</ele><time>2026-04-25T13:34:11.805Z</time></trkpt><trkpt lat="34.4439868" lon="10.2854865"><ele>13.0</ele><time>2026-04-25T13:34:12.81Z</time></trkpt><trkpt lat="34.4439226" lon="10.2852639"><ele>13.0</ele><time>2026-04-25T13:34:13.814Z</time></trkpt><trkpt lat="34.4438591" lon="10.2850503"><ele>13.0</ele><time>2026-04-25T13:34:14.802Z</time></trkpt><trkpt lat="34.4437987" lon="10.2848417"><ele>13.333333333333332</ele><time>2026-04-25T13:34:15.813Z</time></trkpt><trkpt lat="34.4437361" lon="10.2846302"><ele>13.666666666666668</ele><time>2026-04-25T13:34:16.804Z</time></trkpt><trkpt lat="34.4436762" lon="10.2844217"><ele>14.0</ele><time>2026-04-25T13:34:17.815Z</time></trkpt><trkpt lat="34.443613" lon="10.284214"><ele>14.0</ele><time>2026-04-25T13:34:18.805Z</time></trkpt><trkpt lat="34.4435509" lon="10.2840135"><ele>14.0</ele><time>2026-04-25T13:34:19.82Z</time></trkpt><trkpt lat="34.4434889" lon="10.2838099"><ele>14.0</ele><time>2026-04-25T13:34:20.81Z</time></trkpt><trkpt lat="34.4434278" lon="10.2836087"><ele>14.0</ele><time>2026-04-25T13:34:21.805Z</time></trkpt><trkpt lat="34.4433681" lon="10.2834019"><ele>14.0</ele><time>2026-04-25T13:34:22.81Z</time></trkpt><trkpt lat="34.4433074" lon="10.2831982"><ele>14.0</ele><time>2026-04-25T13:34:23.812Z</time></trkpt><trkpt lat="34.4432484" lon="10.2829929"><ele>14.333333333333334</ele><time>2026-04-25T13:34:24.81Z</time></trkpt><trkpt lat="34.4431888" lon="10.2827783"><ele>14.666666666666668</ele><time>2026-04-25T13:34:25.818Z</time></trkpt><trkpt lat="34.4431207" lon="10.2825533"><ele>15.0</ele><time>2026-04-25T13:34:26.866Z</time></trkpt><trkpt lat="34.44305" lon="10.2823271"><ele>15.0</ele><time>2026-04-25T13:34:27.812Z</time></trkpt><trkpt lat="34.4429847" lon="10.2821033"><ele>15.0</ele><time>2026-04-25T13:34:28.811Z</time></trkpt><trkpt lat="34.4429196" lon="10.2818785"><ele>15.0</ele><time>2026-04-25T13:34:29.81Z</time></trkpt><trkpt lat="34.4428571" lon="10.2816554"><ele>14.333333333333332</ele><time>2026-04-25T13:34:30.819Z</time></trkpt><trkpt lat="34.4427978" lon="10.2814333"><ele>13.666666666666666</ele><time>2026-04-25T13:34:31.807Z</time></trkpt><trkpt lat="34.4427371" lon="10.2812091"><ele>13.0</ele><time>2026-04-25T13:34:32.81Z</time></trkpt><trkpt lat="34.4426698" lon="10.2809871"><ele>12.666666666666666</ele><time>2026-04-25T13:34:33.815Z</time></trkpt><trkpt lat="34.4426024" lon="10.2807653"><ele>12.333333333333332</ele><time>2026-04-25T13:34:34.818Z</time></trkpt><trkpt lat="34.4425305" lon="10.2805371"><ele>12.0</ele><time>2026-04-25T13:34:35.807Z</time></trkpt><trkpt lat="34.4424593" lon="10.2803006"><ele>11.666666666666666</ele><time>2026-04-25T13:34:36.8Z</time></trkpt><trkpt lat="34.4423877" lon="10.2800648"><ele>11.333333333333332</ele><time>2026-04-25T13:34:37.83Z</time></trkpt><trkpt lat="34.4423196" lon="10.2798303"><ele>11.0</ele><time>2026-04-25T13:34:38.834Z</time></trkpt><trkpt lat="34.4422495" lon="10.2795945"><ele>11.0</ele><time>2026-04-25T13:34:39.823Z</time></trkpt><trkpt lat="34.442182" lon="10.2793648"><ele>11.0</ele><time>2026-04-25T13:34:40.823Z</time></trkpt><trkpt lat="34.4421181" lon="10.2791368"><ele>11.0</ele><time>2026-04-25T13:34:41.805Z</time></trkpt><trkpt lat="34.442053" lon="10.2789106"><ele>10.333333333333332</ele><time>2026-04-25T13:34:42.823Z</time></trkpt><trkpt lat="34.4419823" lon="10.278685"><ele>9.666666666666666</ele><time>2026-04-25T13:34:43.815Z</time></trkpt><trkpt lat="34.4419134" lon="10.2784528"><ele>9.0</ele><time>2026-04-25T13:34:44.816Z</time></trkpt><trkpt lat="34.4418422" lon="10.2782197"><ele>8.666666666666666</ele><time>2026-04-25T13:34:45.819Z</time></trkpt><trkpt lat="34.4417733" lon="10.2779834"><ele>8.333333333333332</ele><time>2026-04-25T13:34:46.812Z</time></trkpt><trkpt lat="34.4417018" lon="10.2777525"><ele>8.0</ele><time>2026-04-25T13:34:47.813Z</time></trkpt><trkpt lat="34.4416351" lon="10.2775215"><ele>8.0</ele><time>2026-04-25T13:34:48.816Z</time></trkpt><trkpt lat="34.4415663" lon="10.2772951"><ele>8.0</ele><time>2026-04-25T13:34:49.818Z</time></trkpt><trkpt lat="34.4414996" lon="10.2770703"><ele>8.0</ele><time>2026-04-25T13:34:50.812Z</time></trkpt><trkpt lat="34.4414362" lon="10.2768385"><ele>8.0</ele><time>2026-04-25T13:34:51.807Z</time></trkpt><trkpt lat="34.4413693" lon="10.2766103"><ele>8.0</ele><time>2026-04-25T13:34:52.813Z</time></trkpt><trkpt lat="34.4413035" lon="10.2763858"><ele>8.0</ele><time>2026-04-25T13:34:53.832Z</time></trkpt><trkpt lat="34.4412393" lon="10.2761629"><ele>8.0</ele><time>2026-04-25T13:34:54.813Z</time></trkpt><trkpt lat="34.4411745" lon="10.27594"><ele>8.0</ele><time>2026-04-25T13:34:55.811Z</time></trkpt><trkpt lat="34.4411051" lon="10.2757173"><ele>8.0</ele><time>2026-04-25T13:34:56.819Z</time></trkpt><trkpt lat="34.4410341" lon="10.2754912"><ele>8.0</ele><time>2026-04-25T13:34:57.813Z</time></trkpt><trkpt lat="34.4409634" lon="10.2752587"><ele>8.0</ele><time>2026-04-25T13:34:58.814Z</time></trkpt><trkpt lat="34.4408912" lon="10.2750279"><ele>8.0</ele><time>2026-04-25T13:34:59.812Z</time></trkpt><trkpt lat="34.4408266" lon="10.2747986"><ele>8.666666666666666</ele><time>2026-04-25T13:35:00.812Z</time></trkpt><trkpt lat="34.4407579" lon="10.2745673"><ele>9.333333333333334</ele><time>2026-04-25T13:35:01.816Z</time></trkpt><trkpt lat="34.4406936" lon="10.2743295"><ele>10.0</ele><time>2026-04-25T13:35:02.81Z</time></trkpt><trkpt lat="34.4406247" lon="10.2740894"><ele>10.0</ele><time>2026-04-25T13:35:03.818Z</time></trkpt><trkpt lat="34.4405576" lon="10.2738475"><ele>10.0</ele><time>2026-04-25T13:35:04.817Z</time></trkpt><trkpt lat="34.4404883" lon="10.2736094"><ele>10.0</ele><time>2026-04-25T13:35:05.822Z</time></trkpt><trkpt lat="34.4404185" lon="10.2733662"><ele>10.0</ele><time>2026-04-25T13:35:06.811Z</time></trkpt><trkpt lat="34.4403508" lon="10.273122"><ele>10.0</ele><time>2026-04-25T13:35:07.818Z</time></trkpt><trkpt lat="34.4402847" lon="10.2728806"><ele>10.0</ele><time>2026-04-25T13:35:08.816Z</time></trkpt><trkpt lat="34.4402219" lon="10.2726429"><ele>9.666666666666668</ele><time>2026-04-25T13:35:09.82Z</time></trkpt><trkpt lat="34.440157" lon="10.2723963"><ele>9.333333333333334</ele><time>2026-04-25T13:35:10.81Z</time></trkpt><trkpt lat="34.4400962" lon="10.2721538"><ele>9.0</ele><time>2026-04-25T13:35:11.812Z</time></trkpt><trkpt lat="34.44003" lon="10.2719151"><ele>9.0</ele><time>2026-04-25T13:35:12.809Z</time></trkpt><trkpt lat="34.4399672" lon="10.2716834"><ele>9.0</ele><time>2026-04-25T13:35:13.807Z</time></trkpt><trkpt lat="34.4399084" lon="10.2714503"><ele>9.0</ele><time>2026-04-25T13:35:14.811Z</time></trkpt><trkpt lat="34.4398495" lon="10.2712202"><ele>9.0</ele><time>2026-04-25T13:35:15.822Z</time></trkpt><trkpt lat="34.4397891" lon="10.2709888"><ele>9.0</ele><time>2026-04-25T13:35:16.829Z</time></trkpt><trkpt lat="34.4397308" lon="10.2707525"><ele>9.0</ele><time>2026-04-25T13:35:17.81Z</time></trkpt><trkpt lat="34.4396693" lon="10.2705165"><ele>8.666666666666666</ele><time>2026-04-25T13:35:18.805Z</time></trkpt><trkpt lat="34.4396093" lon="10.2702826"><ele>8.333333333333332</ele><time>2026-04-25T13:35:19.808Z</time></trkpt><trkpt lat="34.4395497" lon="10.2700475"><ele>8.0</ele><time>2026-04-25T13:35:20.802Z</time></trkpt><trkpt lat="34.4394886" lon="10.2698072"><ele>7.666666666666666</ele><time>2026-04-25T13:35:21.81Z</time></trkpt><trkpt lat="34.4394212" lon="10.2695638"><ele>7.333333333333334</ele><time>2026-04-25T13:35:22.811Z</time></trkpt><trkpt lat="34.4393558" lon="10.2693151"><ele>7.0</ele><time>2026-04-25T13:35:23.812Z</time></trkpt><trkpt lat="34.4392887" lon="10.2690638"><ele>7.0</ele><time>2026-04-25T13:35:24.812Z</time></trkpt><trkpt lat="34.4392221" lon="10.2688142"><ele>7.0</ele><time>2026-04-25T13:35:25.824Z</time></trkpt><trkpt lat="34.4391556" lon="10.2685635"><ele>7.0</ele><time>2026-04-25T13:35:26.811Z</time></trkpt><trkpt lat="34.4390916" lon="10.2683108"><ele>7.0</ele><time>2026-04-25T13:35:27.812Z</time></trkpt><trkpt lat="34.4390269" lon="10.26806"><ele>7.0</ele><time>2026-04-25T13:35:28.809Z</time></trkpt><trkpt lat="34.43896" lon="10.2678115"><ele>7.0</ele><time>2026-04-25T13:35:29.807Z</time></trkpt><trkpt lat="34.4388941" lon="10.2675691"><ele>7.0</ele><time>2026-04-25T13:35:30.814Z</time></trkpt><trkpt lat="34.4388301" lon="10.2673292"><ele>7.0</ele><time>2026-04-25T13:35:31.815Z</time></trkpt><trkpt lat="34.4387676" lon="10.2670872"><ele>7.0</ele><time>2026-04-25T13:35:32.811Z</time></trkpt><trkpt lat="34.4387068" lon="10.2668484"><ele>7.0</ele><time>2026-04-25T13:35:33.808Z</time></trkpt><trkpt lat="34.4386464" lon="10.266606"><ele>7.0</ele><time>2026-04-25T13:35:34.81Z</time></trkpt><trkpt lat="34.4385843" lon="10.2663643"><ele>7.0</ele><time>2026-04-25T13:35:35.822Z</time></trkpt><trkpt lat="34.4385224" lon="10.2661254"><ele>7.0</ele><time>2026-04-25T13:35:36.813Z</time></trkpt><trkpt lat="34.438463" lon="10.2658875"><ele>7.0</ele><time>2026-04-25T13:35:37.834Z</time></trkpt><trkpt lat="34.4384018" lon="10.2656482"><ele>7.0</ele><time>2026-04-25T13:35:38.809Z</time></trkpt><trkpt lat="34.4383385" lon="10.2654073"><ele>7.0</ele><time>2026-04-25T13:35:39.812Z</time></trkpt><trkpt lat="34.4382766" lon="10.2651672"><ele>7.0</ele><time>2026-04-25T13:35:40.813Z</time></trkpt><trkpt lat="34.4382162" lon="10.2649245"><ele>7.0</ele><time>2026-04-25T13:35:41.811Z</time></trkpt><trkpt lat="34.4381565" lon="10.2646896"><ele>6.666666666666667</ele><time>2026-04-25T13:35:42.813Z</time></trkpt><trkpt lat="34.4380919" lon="10.2644532"><ele>6.333333333333334</ele><time>2026-04-25T13:35:43.804Z</time></trkpt><trkpt lat="34.4380294" lon="10.2642102"><ele>6.0</ele><time>2026-04-25T13:35:44.805Z</time></trkpt><trkpt lat="34.437967" lon="10.2639689"><ele>5.333333333333333</ele><time>2026-04-25T13:35:45.821Z</time></trkpt><trkpt lat="34.4379062" lon="10.2637301"><ele>4.666666666666666</ele><time>2026-04-25T13:35:46.824Z</time></trkpt><trkpt lat="34.4378442" lon="10.2634891"><ele>4.0</ele><time>2026-04-25T13:35:47.815Z</time></trkpt><trkpt lat="34.4377807" lon="10.2632487"><ele>4.333333333333333</ele><time>2026-04-25T13:35:48.813Z</time></trkpt><trkpt lat="34.4377165" lon="10.263009"><ele>4.666666666666667</ele><time>2026-04-25T13:35:49.818Z</time></trkpt><trkpt lat="34.4376543" lon="10.2627711"><ele>5.0</ele><time>2026-04-25T13:35:50.801Z</time></trkpt><trkpt lat="34.4375922" lon="10.2625381"><ele>5.0</ele><time>2026-04-25T13:35:51.8Z</time></trkpt><trkpt lat="34.4375285" lon="10.2623037"><ele>5.0</ele><time>2026-04-25T13:35:52.813Z</time></trkpt><trkpt lat="34.4374676" lon="10.2620631"><ele>5.0</ele><time>2026-04-25T13:35:53.817Z</time></trkpt><trkpt lat="34.4374086" lon="10.2618247"><ele>4.666666666666667</ele><time>2026-04-25T13:35:54.824Z</time></trkpt><trkpt lat="34.4373458" lon="10.2615819"><ele>4.333333333333333</ele><time>2026-04-25T13:35:55.83Z</time></trkpt><trkpt lat="34.4372839" lon="10.2613379"><ele>4.0</ele><time>2026-04-25T13:35:56.82Z</time></trkpt><trkpt lat="34.4372239" lon="10.2610975"><ele>4.0</ele><time>2026-04-25T13:35:57.819Z</time></trkpt><trkpt lat="34.4371618" lon="10.2608557"><ele>4.0</ele><time>2026-04-25T13:35:58.8Z</time></trkpt><trkpt lat="34.4371004" lon="10.2606134"><ele>4.0</ele><time>2026-04-25T13:35:59.817Z</time></trkpt><trkpt lat="34.437039" lon="10.2603819"><ele>3.6666666666666665</ele><time>2026-04-25T13:36:00.815Z</time></trkpt><trkpt lat="34.4369732" lon="10.2601478"><ele>3.333333333333333</ele><time>2026-04-25T13:36:01.806Z</time></trkpt><trkpt lat="34.4369087" lon="10.2599082"><ele>3.0</ele><time>2026-04-25T13:36:02.814Z</time></trkpt><trkpt lat="34.4368478" lon="10.2596693"><ele>3.0</ele><time>2026-04-25T13:36:03.808Z</time></trkpt><trkpt lat="34.4367885" lon="10.2594334"><ele>3.0</ele><time>2026-04-25T13:36:04.81Z</time></trkpt><trkpt lat="34.4367297" lon="10.2591925"><ele>3.0</ele><time>2026-04-25T13:36:05.808Z</time></trkpt><trkpt lat="34.4366674" lon="10.2589529"><ele>3.0</ele><time>2026-04-25T13:36:06.812Z</time></trkpt><trkpt lat="34.4366046" lon="10.2587122"><ele>3.0</ele><time>2026-04-25T13:36:07.821Z</time></trkpt><trkpt lat="34.4365403" lon="10.2584728"><ele>3.0</ele><time>2026-04-25T13:36:08.823Z</time></trkpt><trkpt lat="34.4364785" lon="10.2582357"><ele>3.0</ele><time>2026-04-25T13:36:09.808Z</time></trkpt><trkpt lat="34.436418" lon="10.2579947"><ele>3.0</ele><time>2026-04-25T13:36:10.806Z</time></trkpt><trkpt lat="34.4363576" lon="10.2577542"><ele>3.0</ele><time>2026-04-25T13:36:11.824Z</time></trkpt><trkpt lat="34.4362962" lon="10.2575177"><ele>3.0</ele><time>2026-04-25T13:36:12.805Z</time></trkpt><trkpt lat="34.4362318" lon="10.2572802"><ele>3.0</ele><time>2026-04-25T13:36:13.8Z</time></trkpt><trkpt lat="34.4361674" lon="10.2570444"><ele>3.0</ele><time>2026-04-25T13:36:14.816Z</time></trkpt><trkpt lat="34.4361041" lon="10.2568064"><ele>3.0</ele><time>2026-04-25T13:36:15.808Z</time></trkpt><trkpt lat="34.4360449" lon="10.2565713"><ele>3.0</ele><time>2026-04-25T13:36:16.826Z</time></trkpt><trkpt lat="34.435982" lon="10.2563325"><ele>3.0</ele><time>2026-04-25T13:36:17.808Z</time></trkpt><trkpt lat="34.4359203" lon="10.2560938"><ele>3.0</ele><time>2026-04-25T13:36:18.812Z</time></trkpt><trkpt lat="34.4358551" lon="10.2558469"><ele>3.0</ele><time>2026-04-25T13:36:19.807Z</time></trkpt><trkpt lat="34.4357928" lon="10.2556081"><ele>3.0</ele><time>2026-04-25T13:36:20.803Z</time></trkpt><trkpt lat="34.4357301" lon="10.2553691"><ele>3.0</ele><time>2026-04-25T13:36:21.81Z</time></trkpt><trkpt lat="34.435669" lon="10.2551346"><ele>3.0</ele><time>2026-04-25T13:36:22.81Z</time></trkpt><trkpt lat="34.4356091" lon="10.2548917"><ele>3.0</ele><time>2026-04-25T13:36:23.82Z</time></trkpt><trkpt lat="34.4355537" lon="10.254655"><ele>3.0</ele><time>2026-04-25T13:36:24.811Z</time></trkpt><trkpt lat="34.4354929" lon="10.2544199"><ele>3.0</ele><time>2026-04-25T13:36:25.808Z</time></trkpt><trkpt lat="34.4354334" lon="10.2541787"><ele>3.0</ele><time>2026-04-25T13:36:26.835Z</time></trkpt><trkpt lat="34.4353702" lon="10.2539378"><ele>2.6666666666666665</ele><time>2026-04-25T13:36:27.809Z</time></trkpt><trkpt lat="34.43531" lon="10.253694"><ele>2.333333333333333</ele><time>2026-04-25T13:36:28.814Z</time></trkpt><trkpt lat="34.4352474" lon="10.2534558"><ele>2.0</ele><time>2026-04-25T13:36:29.813Z</time></trkpt><trkpt lat="34.4351835" lon="10.2532173"><ele>2.333333333333333</ele><time>2026-04-25T13:36:30.816Z</time></trkpt><trkpt lat="34.4351225" lon="10.2529828"><ele>2.6666666666666665</ele><time>2026-04-25T13:36:31.808Z</time></trkpt><trkpt lat="34.4350584" lon="10.2527414"><ele>3.0</ele><time>2026-04-25T13:36:32.809Z</time></trkpt><trkpt lat="34.4349974" lon="10.2525016"><ele>3.666666666666667</ele><time>2026-04-25T13:36:33.803Z</time></trkpt><trkpt lat="34.4349307" lon="10.2522622"><ele>4.333333333333334</ele><time>2026-04-25T13:36:34.817Z</time></trkpt><trkpt lat="34.4348698" lon="10.2520215"><ele>5.0</ele><time>2026-04-25T13:36:35.82Z</time></trkpt><trkpt lat="34.4348071" lon="10.2517821"><ele>5.0</ele><time>2026-04-25T13:36:36.815Z</time></trkpt><trkpt lat="34.4347444" lon="10.2515475"><ele>5.0</ele><time>2026-04-25T13:36:37.818Z</time></trkpt><trkpt lat="34.4346831" lon="10.2513086"><ele>5.0</ele><time>2026-04-25T13:36:38.804Z</time></trkpt><trkpt lat="34.4346245" lon="10.2510691"><ele>5.0</ele><time>2026-04-25T13:36:39.829Z</time></trkpt><trkpt lat="34.4345618" lon="10.2508294"><ele>5.0</ele><time>2026-04-25T13:36:40.813Z</time></trkpt><trkpt lat="34.4344957" lon="10.2505916"><ele>5.0</ele><time>2026-04-25T13:36:41.842Z</time></trkpt><trkpt lat="34.4344323" lon="10.2503581"><ele>4.666666666666667</ele><time>2026-04-25T13:36:42.813Z</time></trkpt><trkpt lat="34.4343673" lon="10.2501225"><ele>4.333333333333333</ele><time>2026-04-25T13:36:43.811Z</time></trkpt><trkpt lat="34.434308" lon="10.2498829"><ele>4.0</ele><time>2026-04-25T13:36:44.813Z</time></trkpt><trkpt lat="34.4342443" lon="10.2496442"><ele>4.0</ele><time>2026-04-25T13:36:45.811Z</time></trkpt><trkpt lat="34.4341832" lon="10.2494023"><ele>4.0</ele><time>2026-04-25T13:36:46.803Z</time></trkpt><trkpt lat="34.4341234" lon="10.2491646"><ele>4.0</ele><time>2026-04-25T13:36:47.828Z</time></trkpt><trkpt lat="34.4340657" lon="10.2489252"><ele>4.0</ele><time>2026-04-25T13:36:48.806Z</time></trkpt><trkpt lat="34.4340063" lon="10.248682"><ele>4.0</ele><time>2026-04-25T13:36:49.814Z</time></trkpt><trkpt lat="34.4339443" lon="10.2484422"><ele>4.0</ele><time>2026-04-25T13:36:50.804Z</time></trkpt><trkpt lat="34.4338834" lon="10.2482055"><ele>4.0</ele><time>2026-04-25T13:36:51.8Z</time></trkpt><trkpt lat="34.4338223" lon="10.2479665"><ele>4.0</ele><time>2026-04-25T13:36:52.811Z</time></trkpt><trkpt lat="34.4337633" lon="10.247729"><ele>4.0</ele><time>2026-04-25T13:36:53.818Z</time></trkpt><trkpt lat="34.4337007" lon="10.2474846"><ele>4.0</ele><time>2026-04-25T13:36:54.811Z</time></trkpt><trkpt lat="34.4336401" lon="10.2472469"><ele>4.0</ele><time>2026-04-25T13:36:55.823Z</time></trkpt><trkpt lat="34.4335791" lon="10.2470052"><ele>4.0</ele><time>2026-04-25T13:36:56.852Z</time></trkpt><trkpt lat="34.433516" lon="10.2467585"><ele>4.0</ele><time>2026-04-25T13:36:57.812Z</time></trkpt><trkpt lat="34.4334479" lon="10.2465052"><ele>4.0</ele><time>2026-04-25T13:36:58.811Z</time></trkpt><trkpt lat="34.4333777" lon="10.2462505"><ele>4.0</ele><time>2026-04-25T13:36:59.819Z</time></trkpt><trkpt lat="34.4333083" lon="10.2459941"><ele>4.333333333333333</ele><time>2026-04-25T13:37:00.812Z</time></trkpt><trkpt lat="34.4332404" lon="10.2457384"><ele>4.666666666666667</ele><time>2026-04-25T13:37:01.808Z</time></trkpt><trkpt lat="34.4331776" lon="10.2454822"><ele>5.0</ele><time>2026-04-25T13:37:02.818Z</time></trkpt><trkpt lat="34.4331126" lon="10.2452277"><ele>5.0</ele><time>2026-04-25T13:37:03.811Z</time></trkpt><trkpt lat="34.4330467" lon="10.2449723"><ele>5.0</ele><time>2026-04-25T13:37:04.823Z</time></trkpt><trkpt lat="34.4329803" lon="10.244715"><ele>5.0</ele><time>2026-04-25T13:37:05.816Z</time></trkpt><trkpt lat="34.4329151" lon="10.2444642"><ele>4.666666666666667</ele><time>2026-04-25T13:37:06.808Z</time></trkpt><trkpt lat="34.432852" lon="10.2442122"><ele>4.333333333333333</ele><time>2026-04-25T13:37:07.813Z</time></trkpt><trkpt lat="34.4327868" lon="10.2439555"><ele>4.0</ele><time>2026-04-25T13:37:08.812Z</time></trkpt><trkpt lat="34.432719" lon="10.2436999"><ele>3.5</ele><time>2026-04-25T13:37:09.816Z</time></trkpt><trkpt lat="34.4326493" lon="10.2434369"><ele>3.0</ele><time>2026-04-25T13:37:10.821Z</time></trkpt><trkpt lat="34.4325789" lon="10.2431799"><ele>3.5</ele><time>2026-04-25T13:37:11.863Z</time></trkpt><trkpt lat="34.4325093" lon="10.242921"><ele>4.0</ele><time>2026-04-25T13:37:12.808Z</time></trkpt><trkpt lat="34.4324378" lon="10.2426587"><ele>4.0</ele><time>2026-04-25T13:37:13.807Z</time></trkpt><trkpt lat="34.4323667" lon="10.2423932"><ele>4.0</ele><time>2026-04-25T13:37:14.816Z</time></trkpt><trkpt lat="34.4322966" lon="10.2421271"><ele>4.5</ele><time>2026-04-25T13:37:15.815Z</time></trkpt><trkpt lat="34.4322326" lon="10.2418647"><ele>5.0</ele><time>2026-04-25T13:37:16.81Z</time></trkpt><trkpt lat="34.4321678" lon="10.2415994"><ele>5.0</ele><time>2026-04-25T13:37:17.808Z</time></trkpt><trkpt lat="34.432102" lon="10.241335"><ele>5.0</ele><time>2026-04-25T13:37:18.815Z</time></trkpt><trkpt lat="34.4320369" lon="10.2410663"><ele>5.0</ele><time>2026-04-25T13:37:19.814Z</time></trkpt><trkpt lat="34.4319655" lon="10.2407984"><ele>5.0</ele><time>2026-04-25T13:37:20.801Z</time></trkpt><trkpt lat="34.431893" lon="10.2405373"><ele>5.0</ele><time>2026-04-25T13:37:21.809Z</time></trkpt><trkpt lat="34.431823" lon="10.2402798"><ele>5.0</ele><time>2026-04-25T13:37:22.812Z</time></trkpt><trkpt lat="34.4317531" lon="10.2400234"><ele>5.0</ele><time>2026-04-25T13:37:23.807Z</time></trkpt><trkpt lat="34.4316856" lon="10.23977"><ele>5.0</ele><time>2026-04-25T13:37:24.824Z</time></trkpt><trkpt lat="34.4316188" lon="10.2395136"><ele>5.0</ele><time>2026-04-25T13:37:25.821Z</time></trkpt><trkpt lat="34.4315497" lon="10.2392615"><ele>5.0</ele><time>2026-04-25T13:37:26.833Z</time></trkpt><trkpt lat="34.4314857" lon="10.2390134"><ele>5.0</ele><time>2026-04-25T13:37:27.798Z</time></trkpt><trkpt lat="34.4314206" lon="10.2387711"><ele>5.0</ele><time>2026-04-25T13:37:28.812Z</time></trkpt><trkpt lat="34.431359" lon="10.2385305"><ele>5.0</ele><time>2026-04-25T13:37:29.798Z</time></trkpt><trkpt lat="34.4312952" lon="10.2382882"><ele>5.333333333333334</ele><time>2026-04-25T13:37:30.798Z</time></trkpt><trkpt lat="34.431233" lon="10.2380455"><ele>5.666666666666667</ele><time>2026-04-25T13:37:31.814Z</time></trkpt><trkpt lat="34.4311714" lon="10.237802"><ele>6.0</ele><time>2026-04-25T13:37:32.809Z</time></trkpt><trkpt lat="34.4311108" lon="10.2375532"><ele>6.0</ele><time>2026-04-25T13:37:33.811Z</time></trkpt><trkpt lat="34.4310464" lon="10.2373125"><ele>6.0</ele><time>2026-04-25T13:37:34.812Z</time></trkpt><trkpt lat="34.4309866" lon="10.2370638"><ele>6.0</ele><time>2026-04-25T13:37:35.82Z</time></trkpt><trkpt lat="34.4309266" lon="10.2368172"><ele>6.0</ele><time>2026-04-25T13:37:36.805Z</time></trkpt><trkpt lat="34.4308679" lon="10.2365756"><ele>6.0</ele><time>2026-04-25T13:37:37.81Z</time></trkpt><trkpt lat="34.4308048" lon="10.2363354"><ele>6.0</ele><time>2026-04-25T13:37:38.797Z</time></trkpt><trkpt lat="34.4307424" lon="10.2360946"><ele>6.333333333333334</ele><time>2026-04-25T13:37:39.809Z</time></trkpt><trkpt lat="34.4306832" lon="10.2358512"><ele>6.666666666666667</ele><time>2026-04-25T13:37:40.812Z</time></trkpt><trkpt lat="34.4306214" lon="10.2356109"><ele>7.0</ele><time>2026-04-25T13:37:41.819Z</time></trkpt><trkpt lat="34.4305629" lon="10.235372"><ele>6.333333333333334</ele><time>2026-04-25T13:37:42.811Z</time></trkpt><trkpt lat="34.4305043" lon="10.2351304"><ele>5.666666666666667</ele><time>2026-04-25T13:37:43.811Z</time></trkpt><trkpt lat="34.4304479" lon="10.2348915"><ele>5.0</ele><time>2026-04-25T13:37:44.815Z</time></trkpt><trkpt lat="34.430388" lon="10.2346452"><ele>5.0</ele><time>2026-04-25T13:37:45.807Z</time></trkpt><trkpt lat="34.430325" lon="10.2344013"><ele>5.0</ele><time>2026-04-25T13:37:46.804Z</time></trkpt><trkpt lat="34.4302608" lon="10.2341635"><ele>5.0</ele><time>2026-04-25T13:37:47.797Z</time></trkpt><trkpt lat="34.4301969" lon="10.2339195"><ele>5.0</ele><time>2026-04-25T13:37:48.814Z</time></trkpt><trkpt lat="34.4301318" lon="10.2336832"><ele>5.0</ele><time>2026-04-25T13:37:49.792Z</time></trkpt><trkpt lat="34.430068" lon="10.2334492"><ele>5.0</ele><time>2026-04-25T13:37:50.8Z</time></trkpt><trkpt lat="34.4299985" lon="10.2332088"><ele>5.333333333333334</ele><time>2026-04-25T13:37:51.813Z</time></trkpt><trkpt lat="34.4299315" lon="10.232967"><ele>5.666666666666667</ele><time>2026-04-25T13:37:52.804Z</time></trkpt><trkpt lat="34.4298631" lon="10.2327223"><ele>6.0</ele><time>2026-04-25T13:37:53.82Z</time></trkpt><trkpt lat="34.429801" lon="10.2324763"><ele>5.666666666666667</ele><time>2026-04-25T13:37:54.81Z</time></trkpt><trkpt lat="34.4297394" lon="10.2322383"><ele>5.333333333333334</ele><time>2026-04-25T13:37:55.819Z</time></trkpt><trkpt lat="34.4296793" lon="10.2319987"><ele>5.0</ele><time>2026-04-25T13:37:56.82Z</time></trkpt><trkpt lat="34.4296179" lon="10.2317568"><ele>5.0</ele><time>2026-04-25T13:37:57.813Z</time></trkpt><trkpt lat="34.4295589" lon="10.2315144"><ele>5.0</ele><time>2026-04-25T13:37:58.819Z</time></trkpt><trkpt lat="34.4294954" lon="10.2312715"><ele>5.0</ele><time>2026-04-25T13:37:59.82Z</time></trkpt><trkpt lat="34.429433" lon="10.2310349"><ele>5.333333333333334</ele><time>2026-04-25T13:38:00.816Z</time></trkpt><trkpt lat="34.4293722" lon="10.2307933"><ele>5.666666666666667</ele><time>2026-04-25T13:38:01.803Z</time></trkpt><trkpt lat="34.4293118" lon="10.2305529"><ele>6.0</ele><time>2026-04-25T13:38:02.813Z</time></trkpt><trkpt lat="34.4292479" lon="10.2303123"><ele>6.0</ele><time>2026-04-25T13:38:03.818Z</time></trkpt><trkpt lat="34.4291837" lon="10.2300649"><ele>6.0</ele><time>2026-04-25T13:38:04.813Z</time></trkpt><trkpt lat="34.4291189" lon="10.2298213"><ele>6.0</ele><time>2026-04-25T13:38:05.803Z</time></trkpt><trkpt lat="34.4290546" lon="10.2295863"><ele>6.0</ele><time>2026-04-25T13:38:06.816Z</time></trkpt><trkpt lat="34.4289951" lon="10.2293553"><ele>6.0</ele><time>2026-04-25T13:38:07.811Z</time></trkpt><trkpt lat="34.4289405" lon="10.2291259"><ele>6.0</ele><time>2026-04-25T13:38:08.813Z</time></trkpt><trkpt lat="34.4288843" lon="10.2288933"><ele>6.0</ele><time>2026-04-25T13:38:09.81Z</time></trkpt><trkpt lat="34.4288246" lon="10.2286617"><ele>6.0</ele><time>2026-04-25T13:38:10.812Z</time></trkpt><trkpt lat="34.4287671" lon="10.2284264"><ele>6.0</ele><time>2026-04-25T13:38:11.84Z</time></trkpt><trkpt lat="34.4287058" lon="10.2281933"><ele>6.333333333333334</ele><time>2026-04-25T13:38:12.813Z</time></trkpt><trkpt lat="34.4286432" lon="10.22796"><ele>6.666666666666667</ele><time>2026-04-25T13:38:13.818Z</time></trkpt><trkpt lat="34.4285835" lon="10.2277209"><ele>7.0</ele><time>2026-04-25T13:38:14.802Z</time></trkpt><trkpt lat="34.4285225" lon="10.2274884"><ele>7.0</ele><time>2026-04-25T13:38:15.802Z</time></trkpt><trkpt lat="34.4284637" lon="10.2272518"><ele>7.0</ele><time>2026-04-25T13:38:16.813Z</time></trkpt><trkpt lat="34.4284024" lon="10.2270228"><ele>7.0</ele><time>2026-04-25T13:38:17.814Z</time></trkpt><trkpt lat="34.4283452" lon="10.2267964"><ele>7.0</ele><time>2026-04-25T13:38:18.806Z</time></trkpt><trkpt lat="34.4282871" lon="10.2265634"><ele>7.0</ele><time>2026-04-25T13:38:19.807Z</time></trkpt><trkpt lat="34.4282248" lon="10.2263276"><ele>7.0</ele><time>2026-04-25T13:38:20.81Z</time></trkpt><trkpt lat="34.428167" lon="10.2260945"><ele>7.0</ele><time>2026-04-25T13:38:21.801Z</time></trkpt><trkpt lat="34.4281101" lon="10.2258625"><ele>7.0</ele><time>2026-04-25T13:38:22.807Z</time></trkpt><trkpt lat="34.4280503" lon="10.2256287"><ele>7.0</ele><time>2026-04-25T13:38:23.803Z</time></trkpt><trkpt lat="34.427986" lon="10.2253983"><ele>6.666666666666667</ele><time>2026-04-25T13:38:24.81Z</time></trkpt><trkpt lat="34.4279236" lon="10.2251622"><ele>6.333333333333334</ele><time>2026-04-25T13:38:25.801Z</time></trkpt><trkpt lat="34.4278633" lon="10.2249288"><ele>6.0</ele><time>2026-04-25T13:38:26.845Z</time></trkpt><trkpt lat="34.4278048" lon="10.2246911"><ele>6.0</ele><time>2026-04-25T13:38:27.81Z</time></trkpt><trkpt lat="34.4277467" lon="10.224457"><ele>6.0</ele><time>2026-04-25T13:38:28.811Z</time></trkpt><trkpt lat="34.4276853" lon="10.2242256"><ele>6.0</ele><time>2026-04-25T13:38:29.812Z</time></trkpt><trkpt lat="34.4276236" lon="10.223994"><ele>6.666666666666666</ele><time>2026-04-25T13:38:30.802Z</time></trkpt><trkpt lat="34.4275624" lon="10.2237631"><ele>7.333333333333333</ele><time>2026-04-25T13:38:31.812Z</time></trkpt><trkpt lat="34.4275004" lon="10.2235319"><ele>8.0</ele><time>2026-04-25T13:38:32.818Z</time></trkpt><trkpt lat="34.4274386" lon="10.2232997"><ele>7.666666666666666</ele><time>2026-04-25T13:38:33.814Z</time></trkpt><trkpt lat="34.4273815" lon="10.2230647"><ele>7.333333333333334</ele><time>2026-04-25T13:38:34.806Z</time></trkpt><trkpt lat="34.4273215" lon="10.2228326"><ele>7.0</ele><time>2026-04-25T13:38:35.812Z</time></trkpt><trkpt lat="34.4272644" lon="10.2225997"><ele>7.0</ele><time>2026-04-25T13:38:36.813Z</time></trkpt><trkpt lat="34.4272051" lon="10.2223646"><ele>7.0</ele><time>2026-04-25T13:38:37.818Z</time></trkpt><trkpt lat="34.4271411" lon="10.2221285"><ele>7.0</ele><time>2026-04-25T13:38:38.802Z</time></trkpt><trkpt lat="34.427082" lon="10.2218929"><ele>6.666666666666667</ele><time>2026-04-25T13:38:39.82Z</time></trkpt><trkpt lat="34.4270235" lon="10.2216574"><ele>6.333333333333334</ele><time>2026-04-25T13:38:40.819Z</time></trkpt><trkpt lat="34.4269641" lon="10.2214222"><ele>6.0</ele><time>2026-04-25T13:38:41.824Z</time></trkpt><trkpt lat="34.4269042" lon="10.2211889"><ele>6.0</ele><time>2026-04-25T13:38:42.805Z</time></trkpt><trkpt lat="34.4268429" lon="10.2209606"><ele>6.0</ele><time>2026-04-25T13:38:43.808Z</time></trkpt><trkpt lat="34.4267804" lon="10.2207309"><ele>6.0</ele><time>2026-04-25T13:38:44.814Z</time></trkpt><trkpt lat="34.4267203" lon="10.2204975"><ele>6.0</ele><time>2026-04-25T13:38:45.805Z</time></trkpt><trkpt lat="34.4266614" lon="10.2202655"><ele>6.0</ele><time>2026-04-25T13:38:46.811Z</time></trkpt><trkpt lat="34.4266023" lon="10.2200332"><ele>6.0</ele><time>2026-04-25T13:38:47.807Z</time></trkpt><trkpt lat="34.4265415" lon="10.2198034"><ele>6.0</ele><time>2026-04-25T13:38:48.808Z</time></trkpt><trkpt lat="34.4264869" lon="10.2195719"><ele>6.0</ele><time>2026-04-25T13:38:49.808Z</time></trkpt><trkpt lat="34.4264308" lon="10.2193328"><ele>6.0</ele><time>2026-04-25T13:38:50.817Z</time></trkpt><trkpt lat="34.4263731" lon="10.2191006"><ele>6.0</ele><time>2026-04-25T13:38:51.812Z</time></trkpt><trkpt lat="34.426311" lon="10.2188721"><ele>6.0</ele><time>2026-04-25T13:38:52.816Z</time></trkpt><trkpt lat="34.4262493" lon="10.2186438"><ele>6.0</ele><time>2026-04-25T13:38:53.817Z</time></trkpt><trkpt lat="34.4261846" lon="10.2184111"><ele>6.0</ele><time>2026-04-25T13:38:54.814Z</time></trkpt><trkpt lat="34.4261217" lon="10.2181781"><ele>6.0</ele><time>2026-04-25T13:38:55.808Z</time></trkpt><trkpt lat="34.4260606" lon="10.2179414"><ele>6.0</ele><time>2026-04-25T13:38:56.819Z</time></trkpt><trkpt lat="34.4259987" lon="10.2177047"><ele>6.0</ele><time>2026-04-25T13:38:57.817Z</time></trkpt><trkpt lat="34.4259418" lon="10.2174706"><ele>6.0</ele><time>2026-04-25T13:38:58.817Z</time></trkpt><trkpt lat="34.4258807" lon="10.2172337"><ele>6.0</ele><time>2026-04-25T13:38:59.812Z</time></trkpt><trkpt lat="34.4258203" lon="10.2169989"><ele>6.333333333333334</ele><time>2026-04-25T13:39:00.815Z</time></trkpt><trkpt lat="34.4257563" lon="10.2167572"><ele>6.666666666666667</ele><time>2026-04-25T13:39:01.807Z</time></trkpt><trkpt lat="34.4256927" lon="10.2165102"><ele>7.0</ele><time>2026-04-25T13:39:02.816Z</time></trkpt><trkpt lat="34.4256311" lon="10.2162652"><ele>7.0</ele><time>2026-04-25T13:39:03.819Z</time></trkpt><trkpt lat="34.4255647" lon="10.2160227"><ele>7.0</ele><time>2026-04-25T13:39:04.828Z</time></trkpt><trkpt lat="34.4255006" lon="10.2157767"><ele>7.0</ele><time>2026-04-25T13:39:05.81Z</time></trkpt><trkpt lat="34.4254385" lon="10.2155376"><ele>7.0</ele><time>2026-04-25T13:39:06.802Z</time></trkpt><trkpt lat="34.4253777" lon="10.2152958"><ele>7.0</ele><time>2026-04-25T13:39:07.815Z</time></trkpt><trkpt lat="34.4253172" lon="10.2150562"><ele>7.0</ele><time>2026-04-25T13:39:08.816Z</time></trkpt><trkpt lat="34.4252562" lon="10.214817"><ele>7.333333333333334</ele><time>2026-04-25T13:39:09.803Z</time></trkpt><trkpt lat="34.4251939" lon="10.2145796"><ele>7.666666666666666</ele><time>2026-04-25T13:39:10.819Z</time></trkpt><trkpt lat="34.425131" lon="10.2143276"><ele>8.0</ele><time>2026-04-25T13:39:11.818Z</time></trkpt><trkpt lat="34.4250712" lon="10.2140689"><ele>7.333333333333333</ele><time>2026-04-25T13:39:12.806Z</time></trkpt><trkpt lat="34.4250186" lon="10.2138082"><ele>6.666666666666666</ele><time>2026-04-25T13:39:13.81Z</time></trkpt><trkpt lat="34.4249722" lon="10.213548"><ele>6.0</ele><time>2026-04-25T13:39:14.818Z</time></trkpt><trkpt lat="34.4249287" lon="10.2132939"><ele>6.0</ele><time>2026-04-25T13:39:15.814Z</time></trkpt><trkpt lat="34.4248874" lon="10.2130364"><ele>6.0</ele><time>2026-04-25T13:39:16.81Z</time></trkpt><trkpt lat="34.4248496" lon="10.2127813"><ele>6.0</ele><time>2026-04-25T13:39:17.826Z</time></trkpt><trkpt lat="34.4248118" lon="10.2125214"><ele>6.333333333333334</ele><time>2026-04-25T13:39:18.809Z</time></trkpt><trkpt lat="34.4247721" lon="10.212261"><ele>6.666666666666667</ele><time>2026-04-25T13:39:19.815Z</time></trkpt><trkpt lat="34.4247328" lon="10.2120049"><ele>7.0</ele><time>2026-04-25T13:39:20.799Z</time></trkpt><trkpt lat="34.4246928" lon="10.2117481"><ele>7.0</ele><time>2026-04-25T13:39:21.816Z</time></trkpt><trkpt lat="34.4246493" lon="10.2114923"><ele>7.0</ele><time>2026-04-25T13:39:22.817Z</time></trkpt><trkpt lat="34.4246017" lon="10.2112381"><ele>7.0</ele><time>2026-04-25T13:39:23.806Z</time></trkpt><trkpt lat="34.4245521" lon="10.2109944"><ele>7.333333333333334</ele><time>2026-04-25T13:39:24.809Z</time></trkpt><trkpt lat="34.4244954" lon="10.2107531"><ele>7.666666666666666</ele><time>2026-04-25T13:39:25.818Z</time></trkpt><trkpt lat="34.4244357" lon="10.2105184"><ele>8.0</ele><time>2026-04-25T13:39:26.819Z</time></trkpt><trkpt lat="34.4243731" lon="10.2102855"><ele>8.0</ele><time>2026-04-25T13:39:27.799Z</time></trkpt><trkpt lat="34.4243125" lon="10.210051"><ele>8.0</ele><time>2026-04-25T13:39:28.804Z</time></trkpt><trkpt lat="34.42425" lon="10.2098158"><ele>8.0</ele><time>2026-04-25T13:39:29.831Z</time></trkpt><trkpt lat="34.4241881" lon="10.2095848"><ele>8.333333333333332</ele><time>2026-04-25T13:39:30.82Z</time></trkpt><trkpt lat="34.424129" lon="10.2093569"><ele>8.666666666666666</ele><time>2026-04-25T13:39:31.825Z</time></trkpt><trkpt lat="34.4240694" lon="10.2091268"><ele>9.0</ele><time>2026-04-25T13:39:32.821Z</time></trkpt><trkpt lat="34.4240114" lon="10.2088969"><ele>10.0</ele><time>2026-04-25T13:39:33.812Z</time></trkpt><trkpt lat="34.4239527" lon="10.2086653"><ele>11.0</ele><time>2026-04-25T13:39:34.813Z</time></trkpt><trkpt lat="34.4238932" lon="10.2084302"><ele>12.0</ele><time>2026-04-25T13:39:35.807Z</time></trkpt><trkpt lat="34.4238287" lon="10.2081946"><ele>11.666666666666666</ele><time>2026-04-25T13:39:36.811Z</time></trkpt><trkpt lat="34.4237627" lon="10.2079524"><ele>11.333333333333332</ele><time>2026-04-25T13:39:37.814Z</time></trkpt><trkpt lat="34.423702" lon="10.2077171"><ele>11.0</ele><time>2026-04-25T13:39:38.822Z</time></trkpt><trkpt lat="34.4236392" lon="10.2074716"><ele>11.0</ele><time>2026-04-25T13:39:39.817Z</time></trkpt><trkpt lat="34.4235745" lon="10.207233"><ele>11.0</ele><time>2026-04-25T13:39:40.81Z</time></trkpt><trkpt lat="34.4235117" lon="10.2069856"><ele>11.0</ele><time>2026-04-25T13:39:41.838Z</time></trkpt><trkpt lat="34.4234462" lon="10.2067388"><ele>11.0</ele><time>2026-04-25T13:39:42.816Z</time></trkpt><trkpt lat="34.4233804" lon="10.206492"><ele>11.0</ele><time>2026-04-25T13:39:43.815Z</time></trkpt><trkpt lat="34.4233133" lon="10.2062485"><ele>11.0</ele><time>2026-04-25T13:39:44.801Z</time></trkpt><trkpt lat="34.4232485" lon="10.2060065"><ele>11.0</ele><time>2026-04-25T13:39:45.8Z</time></trkpt><trkpt lat="34.4231854" lon="10.2057621"><ele>11.0</ele><time>2026-04-25T13:39:46.811Z</time></trkpt><trkpt lat="34.4231273" lon="10.2055095"><ele>11.0</ele><time>2026-04-25T13:39:47.821Z</time></trkpt><trkpt lat="34.4230693" lon="10.2052566"><ele>11.333333333333332</ele><time>2026-04-25T13:39:48.817Z</time></trkpt><trkpt lat="34.4230244" lon="10.2050008"><ele>11.666666666666666</ele><time>2026-04-25T13:39:49.816Z</time></trkpt><trkpt lat="34.4229924" lon="10.204744"><ele>12.0</ele><time>2026-04-25T13:39:50.8Z</time></trkpt><trkpt lat="34.4229673" lon="10.2044852"><ele>10.666666666666666</ele><time>2026-04-25T13:39:51.806Z</time></trkpt><trkpt lat="34.4229444" lon="10.2042281"><ele>9.333333333333332</ele><time>2026-04-25T13:39:52.828Z</time></trkpt><trkpt lat="34.422917" lon="10.2039703"><ele>8.0</ele><time>2026-04-25T13:39:53.82Z</time></trkpt><trkpt lat="34.4228919" lon="10.2037169"><ele>8.0</ele><time>2026-04-25T13:39:54.81Z</time></trkpt><trkpt lat="34.4228695" lon="10.2034664"><ele>8.0</ele><time>2026-04-25T13:39:55.836Z</time></trkpt><trkpt lat="34.4228388" lon="10.2032146"><ele>8.0</ele><time>2026-04-25T13:39:56.838Z</time></trkpt><trkpt lat="34.42281" lon="10.202965"><ele>8.666666666666666</ele><time>2026-04-25T13:39:57.807Z</time></trkpt><trkpt lat="34.4227844" lon="10.2027162"><ele>9.333333333333334</ele><time>2026-04-25T13:39:58.806Z</time></trkpt><trkpt lat="34.4227592" lon="10.2024642"><ele>10.0</ele><time>2026-04-25T13:39:59.804Z</time></trkpt><trkpt lat="34.4227399" lon="10.2022138"><ele>10.0</ele><time>2026-04-25T13:40:00.81Z</time></trkpt><trkpt lat="34.4227246" lon="10.2019716"><ele>10.0</ele><time>2026-04-25T13:40:01.819Z</time></trkpt><trkpt lat="34.4227076" lon="10.2017244"><ele>10.0</ele><time>2026-04-25T13:40:02.81Z</time></trkpt><trkpt lat="34.4226902" lon="10.2014821"><ele>9.666666666666668</ele><time>2026-04-25T13:40:03.809Z</time></trkpt><trkpt lat="34.4226708" lon="10.2012444"><ele>9.333333333333334</ele><time>2026-04-25T13:40:04.8Z</time></trkpt><trkpt lat="34.4226492" lon="10.2010052"><ele>9.0</ele><time>2026-04-25T13:40:05.811Z</time></trkpt><trkpt lat="34.4226261" lon="10.2007591"><ele>9.0</ele><time>2026-04-25T13:40:06.812Z</time></trkpt><trkpt lat="34.4226028" lon="10.2005153"><ele>9.0</ele><time>2026-04-25T13:40:07.812Z</time></trkpt><trkpt lat="34.4225801" lon="10.2002665"><ele>9.0</ele><time>2026-04-25T13:40:08.811Z</time></trkpt><trkpt lat="34.4225615" lon="10.2000189"><ele>9.333333333333334</ele><time>2026-04-25T13:40:09.816Z</time></trkpt><trkpt lat="34.4225385" lon="10.1997642"><ele>9.666666666666668</ele><time>2026-04-25T13:40:10.806Z</time></trkpt><trkpt lat="34.4225138" lon="10.1995112"><ele>10.0</ele><time>2026-04-25T13:40:11.797Z</time></trkpt><trkpt lat="34.4224933" lon="10.1992568"><ele>10.0</ele><time>2026-04-25T13:40:12.796Z</time></trkpt><trkpt lat="34.4224666" lon="10.1990032"><ele>10.0</ele><time>2026-04-25T13:40:13.817Z</time></trkpt><trkpt lat="34.4224406" lon="10.1987487"><ele>10.0</ele><time>2026-04-25T13:40:14.814Z</time></trkpt><trkpt lat="34.422417" lon="10.1984947"><ele>9.666666666666668</ele><time>2026-04-25T13:40:15.81Z</time></trkpt><trkpt lat="34.4223953" lon="10.1982403"><ele>9.333333333333334</ele><time>2026-04-25T13:40:16.807Z</time></trkpt><trkpt lat="34.4223653" lon="10.1979831"><ele>9.0</ele><time>2026-04-25T13:40:17.81Z</time></trkpt><trkpt lat="34.4223415" lon="10.1977288"><ele>8.666666666666666</ele><time>2026-04-25T13:40:18.81Z</time></trkpt><trkpt lat="34.4223199" lon="10.197478"><ele>8.333333333333332</ele><time>2026-04-25T13:40:19.812Z</time></trkpt><trkpt lat="34.422298" lon="10.1972292"><ele>8.0</ele><time>2026-04-25T13:40:20.808Z</time></trkpt><trkpt lat="34.422278" lon="10.1969775"><ele>8.0</ele><time>2026-04-25T13:40:21.816Z</time></trkpt><trkpt lat="34.4222576" lon="10.1967302"><ele>8.0</ele><time>2026-04-25T13:40:22.8Z</time></trkpt><trkpt lat="34.4222385" lon="10.1964829"><ele>8.0</ele><time>2026-04-25T13:40:23.792Z</time></trkpt><trkpt lat="34.4222193" lon="10.196233"><ele>7.666666666666666</ele><time>2026-04-25T13:40:24.811Z</time></trkpt><trkpt lat="34.4221985" lon="10.1959814"><ele>7.333333333333334</ele><time>2026-04-25T13:40:25.821Z</time></trkpt><trkpt lat="34.4221771" lon="10.1957329"><ele>7.0</ele><time>2026-04-25T13:40:26.858Z</time></trkpt><trkpt lat="34.4221532" lon="10.19548"><ele>7.333333333333334</ele><time>2026-04-25T13:40:27.803Z</time></trkpt><trkpt lat="34.4221257" lon="10.1952299"><ele>7.666666666666666</ele><time>2026-04-25T13:40:28.805Z</time></trkpt><trkpt lat="34.4220983" lon="10.1949781"><ele>8.0</ele><time>2026-04-25T13:40:29.81Z</time></trkpt><trkpt lat="34.4220745" lon="10.1947314"><ele>8.0</ele><time>2026-04-25T13:40:30.807Z</time></trkpt><trkpt lat="34.4220563" lon="10.1944847"><ele>8.0</ele><time>2026-04-25T13:40:31.808Z</time></trkpt><trkpt lat="34.4220355" lon="10.1942414"><ele>8.0</ele><time>2026-04-25T13:40:32.81Z</time></trkpt><trkpt lat="34.4220115" lon="10.1939933"><ele>8.0</ele><time>2026-04-25T13:40:33.816Z</time></trkpt><trkpt lat="34.4219869" lon="10.1937463"><ele>8.0</ele><time>2026-04-25T13:40:34.808Z</time></trkpt><trkpt lat="34.4219662" lon="10.1935043"><ele>8.0</ele><time>2026-04-25T13:40:35.798Z</time></trkpt><trkpt lat="34.4219446" lon="10.1932557"><ele>8.0</ele><time>2026-04-25T13:40:36.808Z</time></trkpt><trkpt lat="34.4219216" lon="10.1930101"><ele>8.0</ele><time>2026-04-25T13:40:37.809Z</time></trkpt><trkpt lat="34.4218993" lon="10.1927682"><ele>8.0</ele><time>2026-04-25T13:40:38.804Z</time></trkpt><trkpt lat="34.4218747" lon="10.1925232"><ele>8.666666666666666</ele><time>2026-04-25T13:40:39.821Z</time></trkpt><trkpt lat="34.4218496" lon="10.1922844"><ele>9.333333333333334</ele><time>2026-04-25T13:40:40.814Z</time></trkpt><trkpt lat="34.4218242" lon="10.1920435"><ele>10.0</ele><time>2026-04-25T13:40:41.843Z</time></trkpt><trkpt lat="34.4218029" lon="10.1918051"><ele>10.0</ele><time>2026-04-25T13:40:42.804Z</time></trkpt><trkpt lat="34.4217794" lon="10.191565"><ele>10.0</ele><time>2026-04-25T13:40:43.811Z</time></trkpt><trkpt lat="34.4217565" lon="10.1913199"><ele>10.0</ele><time>2026-04-25T13:40:44.813Z</time></trkpt><trkpt lat="34.4217367" lon="10.1910756"><ele>10.333333333333334</ele><time>2026-04-25T13:40:45.812Z</time></trkpt><trkpt lat="34.4217161" lon="10.1908332"><ele>10.666666666666666</ele><time>2026-04-25T13:40:46.805Z</time></trkpt><trkpt lat="34.4216981" lon="10.1905904"><ele>11.0</ele><time>2026-04-25T13:40:47.816Z</time></trkpt><trkpt lat="34.4216772" lon="10.1903432"><ele>11.0</ele><time>2026-04-25T13:40:48.819Z</time></trkpt><trkpt lat="34.4216536" lon="10.1900998"><ele>11.0</ele><time>2026-04-25T13:40:49.803Z</time></trkpt><trkpt lat="34.4216282" lon="10.1898575"><ele>11.0</ele><time>2026-04-25T13:40:50.804Z</time></trkpt><trkpt lat="34.4216056" lon="10.1896189"><ele>11.0</ele><time>2026-04-25T13:40:51.813Z</time></trkpt><trkpt lat="34.4215807" lon="10.1893765"><ele>11.0</ele><time>2026-04-25T13:40:52.812Z</time></trkpt><trkpt lat="34.4215586" lon="10.1891293"><ele>11.0</ele><time>2026-04-25T13:40:53.812Z</time></trkpt><trkpt lat="34.4215342" lon="10.1888845"><ele>10.666666666666666</ele><time>2026-04-25T13:40:54.816Z</time></trkpt><trkpt lat="34.4215141" lon="10.1886404"><ele>10.333333333333334</ele><time>2026-04-25T13:40:55.823Z</time></trkpt><trkpt lat="34.4214953" lon="10.1883976"><ele>10.0</ele><time>2026-04-25T13:40:56.815Z</time></trkpt><trkpt lat="34.4214736" lon="10.1881581"><ele>10.0</ele><time>2026-04-25T13:40:57.82Z</time></trkpt><trkpt lat="34.4214509" lon="10.1879158"><ele>10.0</ele><time>2026-04-25T13:40:58.81Z</time></trkpt><trkpt lat="34.421428" lon="10.1876762"><ele>10.0</ele><time>2026-04-25T13:40:59.812Z</time></trkpt><trkpt lat="34.4214063" lon="10.1874369"><ele>10.333333333333334</ele><time>2026-04-25T13:41:00.814Z</time></trkpt><trkpt lat="34.4213845" lon="10.187191"><ele>10.666666666666666</ele><time>2026-04-25T13:41:01.81Z</time></trkpt><trkpt lat="34.4213622" lon="10.1869457"><ele>11.0</ele><time>2026-04-25T13:41:02.809Z</time></trkpt><trkpt lat="34.4213358" lon="10.1867006"><ele>10.666666666666666</ele><time>2026-04-25T13:41:03.816Z</time></trkpt><trkpt lat="34.4213142" lon="10.1864667"><ele>10.333333333333334</ele><time>2026-04-25T13:41:04.812Z</time></trkpt><trkpt lat="34.4212904" lon="10.1862376"><ele>10.0</ele><time>2026-04-25T13:41:05.817Z</time></trkpt><trkpt lat="34.4212685" lon="10.1860159"><ele>10.0</ele><time>2026-04-25T13:41:06.804Z</time></trkpt><trkpt lat="34.4212516" lon="10.1857948"><ele>10.0</ele><time>2026-04-25T13:41:07.804Z</time></trkpt><trkpt lat="34.4212295" lon="10.1855877"><ele>10.0</ele><time>2026-04-25T13:41:08.808Z</time></trkpt><trkpt lat="34.4212091" lon="10.1853842"><ele>10.666666666666668</ele><time>2026-04-25T13:41:09.791Z</time></trkpt><trkpt lat="34.4211905" lon="10.1851855"><ele>11.333333333333334</ele><time>2026-04-25T13:41:10.818Z</time></trkpt><trkpt lat="34.4211712" lon="10.1849949"><ele>12.0</ele><time>2026-04-25T13:41:11.845Z</time></trkpt><trkpt lat="34.4211523" lon="10.1848082"><ele>12.5</ele><time>2026-04-25T13:41:12.798Z</time></trkpt><trkpt lat="34.4211371" lon="10.1846237"><ele>13.0</ele><time>2026-04-25T13:41:13.816Z</time></trkpt><trkpt lat="34.421122" lon="10.1844456"><ele>13.5</ele><time>2026-04-25T13:41:14.811Z</time></trkpt><trkpt lat="34.4211068" lon="10.1842745"><ele>14.0</ele><time>2026-04-25T13:41:15.81Z</time></trkpt><trkpt lat="34.4210882" lon="10.1841172"><ele>13.799999999999999</ele><time>2026-04-25T13:41:16.806Z</time></trkpt><trkpt lat="34.4210707" lon="10.1839746"><ele>13.599999999999998</ele><time>2026-04-25T13:41:17.807Z</time></trkpt><trkpt lat="34.4210562" lon="10.1838395"><ele>13.4</ele><time>2026-04-25T13:41:18.801Z</time></trkpt><trkpt lat="34.421046" lon="10.1837123"><ele>13.2</ele><time>2026-04-25T13:41:19.803Z</time></trkpt><trkpt lat="34.4210383" lon="10.1835835"><ele>13.0</ele><time>2026-04-25T13:41:20.815Z</time></trkpt><trkpt lat="34.4210281" lon="10.183464"><ele>13.0</ele><time>2026-04-25T13:41:21.811Z</time></trkpt><trkpt lat="34.4210182" lon="10.1833419"><ele>13.0</ele><time>2026-04-25T13:41:22.806Z</time></trkpt><trkpt lat="34.4210067" lon="10.1832189"><ele>13.0</ele><time>2026-04-25T13:41:23.816Z</time></trkpt><trkpt lat="34.4210003" lon="10.183092"><ele>13.0</ele><time>2026-04-25T13:41:24.818Z</time></trkpt><trkpt lat="34.42099" lon="10.1829575"><ele>13.0</ele><time>2026-04-25T13:41:25.807Z</time></trkpt><trkpt lat="34.4209781" lon="10.1828223"><ele>12.25</ele><time>2026-04-25T13:41:26.835Z</time></trkpt><trkpt lat="34.4209662" lon="10.1826826"><ele>11.5</ele><time>2026-04-25T13:41:27.803Z</time></trkpt><trkpt lat="34.4209588" lon="10.1825459"><ele>10.75</ele><time>2026-04-25T13:41:28.814Z</time></trkpt><trkpt lat="34.4209473" lon="10.1824065"><ele>10.0</ele><time>2026-04-25T13:41:29.808Z</time></trkpt><trkpt lat="34.4209343" lon="10.1822672"><ele>9.75</ele><time>2026-04-25T13:41:30.804Z</time></trkpt><trkpt lat="34.4209277" lon="10.1821173"><ele>9.5</ele><time>2026-04-25T13:41:31.822Z</time></trkpt><trkpt lat="34.4209283" lon="10.1819669"><ele>9.25</ele><time>2026-04-25T13:41:32.808Z</time></trkpt><trkpt lat="34.4209304" lon="10.1818157"><ele>9.0</ele><time>2026-04-25T13:41:33.808Z</time></trkpt><trkpt lat="34.4209289" lon="10.1816785"><ele>9.0</ele><time>2026-04-25T13:41:34.807Z</time></trkpt><trkpt lat="34.4209204" lon="10.1815488"><ele>9.0</ele><time>2026-04-25T13:41:35.817Z</time></trkpt><trkpt lat="34.4209148" lon="10.1814373"><ele>9.0</ele><time>2026-04-25T13:41:36.808Z</time></trkpt><trkpt lat="34.4209134" lon="10.1813441"><ele>9.0</ele><time>2026-04-25T13:41:37.823Z</time></trkpt><trkpt lat="34.4209089" lon="10.1812679"><ele>9.0</ele><time>2026-04-25T13:41:38.813Z</time></trkpt><trkpt lat="34.4209078" lon="10.1811908"><ele>9.0</ele><time>2026-04-25T13:41:39.82Z</time></trkpt><trkpt lat="34.420901" lon="10.1810952"><ele>9.0</ele><time>2026-04-25T13:41:40.816Z</time></trkpt><trkpt lat="34.4208936" lon="10.1809776"><ele>9.0</ele><time>2026-04-25T13:41:41.827Z</time></trkpt><trkpt lat="34.420886" lon="10.1808335"><ele>9.0</ele><time>2026-04-25T13:41:42.815Z</time></trkpt><trkpt lat="34.4208731" lon="10.1806682"><ele>9.0</ele><time>2026-04-25T13:41:43.816Z</time></trkpt><trkpt lat="34.4208577" lon="10.180506"><ele>9.0</ele><time>2026-04-25T13:41:44.816Z</time></trkpt><trkpt lat="34.4208432" lon="10.1803322"><ele>9.0</ele><time>2026-04-25T13:41:45.836Z</time></trkpt><trkpt lat="34.42084" lon="10.180143"><ele>9.0</ele><time>2026-04-25T13:41:46.811Z</time></trkpt><trkpt lat="34.4208353" lon="10.1799517"><ele>8.0</ele><time>2026-04-25T13:41:47.79Z</time></trkpt><trkpt lat="34.4208304" lon="10.1797498"><ele>7.0</ele><time>2026-04-25T13:41:48.796Z</time></trkpt><trkpt lat="34.4208241" lon="10.179542"><ele>6.0</ele><time>2026-04-25T13:41:49.803Z</time></trkpt><trkpt lat="34.4208147" lon="10.1793363"><ele>6.0</ele><time>2026-04-25T13:41:50.799Z</time></trkpt><trkpt lat="34.4208081" lon="10.1791333"><ele>6.0</ele><time>2026-04-25T13:41:51.806Z</time></trkpt><trkpt lat="34.4208029" lon="10.1789286"><ele>6.0</ele><time>2026-04-25T13:41:52.816Z</time></trkpt><trkpt lat="34.4207895" lon="10.1787167"><ele>6.0</ele><time>2026-04-25T13:41:53.815Z</time></trkpt><trkpt lat="34.4207831" lon="10.1785034"><ele>6.0</ele><time>2026-04-25T13:41:54.801Z</time></trkpt><trkpt lat="34.4207774" lon="10.1782943"><ele>6.0</ele><time>2026-04-25T13:41:55.8Z</time></trkpt><trkpt lat="34.420772" lon="10.1780792"><ele>6.0</ele><time>2026-04-25T13:41:56.796Z</time></trkpt><trkpt lat="34.4207635" lon="10.1778675"><ele>6.0</ele><time>2026-04-25T13:41:57.801Z</time></trkpt><trkpt lat="34.4207533" lon="10.1776554"><ele>6.0</ele><time>2026-04-25T13:41:58.81Z</time></trkpt><trkpt lat="34.4207439" lon="10.1774417"><ele>5.666666666666667</ele><time>2026-04-25T13:41:59.82Z</time></trkpt><trkpt lat="34.4207361" lon="10.1772312"><ele>5.333333333333334</ele><time>2026-04-25T13:42:00.813Z</time></trkpt><trkpt lat="34.4207281" lon="10.1770182"><ele>5.0</ele><time>2026-04-25T13:42:01.814Z</time></trkpt><trkpt lat="34.4207182" lon="10.1768125"><ele>5.0</ele><time>2026-04-25T13:42:02.812Z</time></trkpt><trkpt lat="34.4207077" lon="10.1766038"><ele>5.0</ele><time>2026-04-25T13:42:03.801Z</time></trkpt><trkpt lat="34.420692" lon="10.1764009"><ele>5.0</ele><time>2026-04-25T13:42:04.813Z</time></trkpt><trkpt lat="34.4206732" lon="10.1761951"><ele>5.666666666666667</ele><time>2026-04-25T13:42:05.815Z</time></trkpt><trkpt lat="34.4206498" lon="10.1759853"><ele>6.333333333333334</ele><time>2026-04-25T13:42:06.807Z</time></trkpt><trkpt lat="34.4206299" lon="10.175773"><ele>7.0</ele><time>2026-04-25T13:42:07.822Z</time></trkpt><trkpt lat="34.4206042" lon="10.1755624"><ele>7.333333333333334</ele><time>2026-04-25T13:42:08.825Z</time></trkpt><trkpt lat="34.4205767" lon="10.1753513"><ele>7.666666666666666</ele><time>2026-04-25T13:42:09.832Z</time></trkpt><trkpt lat="34.4205431" lon="10.1751445"><ele>8.0</ele><time>2026-04-25T13:42:10.804Z</time></trkpt><trkpt lat="34.420507" lon="10.1749405"><ele>7.666666666666666</ele><time>2026-04-25T13:42:11.8Z</time></trkpt><trkpt lat="34.4204663" lon="10.17474"><ele>7.333333333333334</ele><time>2026-04-25T13:42:12.805Z</time></trkpt><trkpt lat="34.4204243" lon="10.1745358"><ele>7.0</ele><time>2026-04-25T13:42:13.822Z</time></trkpt><trkpt lat="34.4203727" lon="10.1743263"><ele>7.0</ele><time>2026-04-25T13:42:14.81Z</time></trkpt><trkpt lat="34.4203129" lon="10.1741024"><ele>7.0</ele><time>2026-04-25T13:42:15.816Z</time></trkpt><trkpt lat="34.4202539" lon="10.1738799"><ele>7.0</ele><time>2026-04-25T13:42:16.811Z</time></trkpt><trkpt lat="34.42019" lon="10.1736499"><ele>7.0</ele><time>2026-04-25T13:42:17.846Z</time></trkpt><trkpt lat="34.4201136" lon="10.1734175"><ele>7.0</ele><time>2026-04-25T13:42:18.817Z</time></trkpt><trkpt lat="34.4200328" lon="10.1731794"><ele>7.0</ele><time>2026-04-25T13:42:19.811Z</time></trkpt><trkpt lat="34.4199459" lon="10.1729417"><ele>7.0</ele><time>2026-04-25T13:42:20.824Z</time></trkpt><trkpt lat="34.4198519" lon="10.1727036"><ele>7.0</ele><time>2026-04-25T13:42:21.812Z</time></trkpt><trkpt lat="34.4197562" lon="10.1724709"><ele>7.0</ele><time>2026-04-25T13:42:22.805Z</time></trkpt><trkpt lat="34.4196523" lon="10.1722326"><ele>6.666666666666667</ele><time>2026-04-25T13:42:23.815Z</time></trkpt><trkpt lat="34.4195435" lon="10.1719992"><ele>6.333333333333334</ele><time>2026-04-25T13:42:24.808Z</time></trkpt><trkpt lat="34.419429" lon="10.1717699"><ele>6.0</ele><time>2026-04-25T13:42:25.829Z</time></trkpt><trkpt lat="34.419316" lon="10.1715389"><ele>6.0</ele><time>2026-04-25T13:42:26.806Z</time></trkpt><trkpt lat="34.4191935" lon="10.1713082"><ele>6.0</ele><time>2026-04-25T13:42:27.803Z</time></trkpt><trkpt lat="34.4190671" lon="10.171096"><ele>6.0</ele><time>2026-04-25T13:42:28.81Z</time></trkpt><trkpt lat="34.4189381" lon="10.1708925"><ele>5.666666666666667</ele><time>2026-04-25T13:42:29.817Z</time></trkpt><trkpt lat="34.4188045" lon="10.1706865"><ele>5.333333333333334</ele><time>2026-04-25T13:42:30.82Z</time></trkpt><trkpt lat="34.4186649" lon="10.1704861"><ele>5.0</ele><time>2026-04-25T13:42:31.813Z</time></trkpt><trkpt lat="34.4185241" lon="10.1702908"><ele>5.0</ele><time>2026-04-25T13:42:32.804Z</time></trkpt><trkpt lat="34.4183796" lon="10.1700976"><ele>5.0</ele><time>2026-04-25T13:42:33.81Z</time></trkpt><trkpt lat="34.4182311" lon="10.1699033"><ele>5.0</ele><time>2026-04-25T13:42:34.8Z</time></trkpt><trkpt lat="34.4180721" lon="10.1697084"><ele>6.5</ele><time>2026-04-25T13:42:35.823Z</time></trkpt><trkpt lat="34.4179087" lon="10.1695117"><ele>8.0</ele><time>2026-04-25T13:42:36.811Z</time></trkpt><trkpt lat="34.4177403" lon="10.1693209"><ele>8.0</ele><time>2026-04-25T13:42:37.803Z</time></trkpt><trkpt lat="34.4175685" lon="10.1691413"><ele>8.0</ele><time>2026-04-25T13:42:38.811Z</time></trkpt><trkpt lat="34.4173928" lon="10.1689663"><ele>6.5</ele><time>2026-04-25T13:42:39.819Z</time></trkpt><trkpt lat="34.417213" lon="10.1688013"><ele>5.0</ele><time>2026-04-25T13:42:40.817Z</time></trkpt><trkpt lat="34.417031" lon="10.1686391"><ele>5.0</ele><time>2026-04-25T13:42:41.822Z</time></trkpt><trkpt lat="34.4168461" lon="10.1684771"><ele>5.0</ele><time>2026-04-25T13:42:42.809Z</time></trkpt><trkpt lat="34.4166607" lon="10.1683209"><ele>4.666666666666667</ele><time>2026-04-25T13:42:43.815Z</time></trkpt><trkpt lat="34.4164753" lon="10.1681809"><ele>4.333333333333333</ele><time>2026-04-25T13:42:44.821Z</time></trkpt><trkpt lat="34.4162853" lon="10.1680468"><ele>4.0</ele><time>2026-04-25T13:42:45.811Z</time></trkpt><trkpt lat="34.4160994" lon="10.1679142"><ele>4.666666666666666</ele><time>2026-04-25T13:42:46.818Z</time></trkpt><trkpt lat="34.4159117" lon="10.1677936"><ele>5.333333333333333</ele><time>2026-04-25T13:42:47.85Z</time></trkpt><trkpt lat="34.4157247" lon="10.167676"><ele>6.0</ele><time>2026-04-25T13:42:48.816Z</time></trkpt><trkpt lat="34.4155387" lon="10.1675702"><ele>6.0</ele><time>2026-04-25T13:42:49.807Z</time></trkpt><trkpt lat="34.4153655" lon="10.1674713"><ele>6.0</ele><time>2026-04-25T13:42:50.823Z</time></trkpt><trkpt lat="34.4152043" lon="10.1673784"><ele>6.0</ele><time>2026-04-25T13:42:51.816Z</time></trkpt><trkpt lat="34.4150434" lon="10.1672828"><ele>5.666666666666667</ele><time>2026-04-25T13:42:52.806Z</time></trkpt><trkpt lat="34.4148881" lon="10.1671905"><ele>5.333333333333334</ele><time>2026-04-25T13:42:53.814Z</time></trkpt><trkpt lat="34.4147485" lon="10.1671141"><ele>5.0</ele><time>2026-04-25T13:42:54.821Z</time></trkpt><trkpt lat="34.4146193" lon="10.1670406"><ele>5.0</ele><time>2026-04-25T13:42:55.813Z</time></trkpt><trkpt lat="34.4144911" lon="10.1669681"><ele>5.0</ele><time>2026-04-25T13:42:56.81Z</time></trkpt><trkpt lat="34.4143697" lon="10.1669016"><ele>5.0</ele><time>2026-04-25T13:42:57.82Z</time></trkpt><trkpt lat="34.4142495" lon="10.1668352"><ele>5.0</ele><time>2026-04-25T13:42:58.814Z</time></trkpt><trkpt lat="34.4141246" lon="10.1667664"><ele>5.0</ele><time>2026-04-25T13:42:59.811Z</time></trkpt><trkpt lat="34.4139992" lon="10.1666916"><ele>5.0</ele><time>2026-04-25T13:43:00.795Z</time></trkpt><trkpt lat="34.4138759" lon="10.1666154"><ele>5.0</ele><time>2026-04-25T13:43:01.812Z</time></trkpt><trkpt lat="34.4137546" lon="10.166541"><ele>5.0</ele><time>2026-04-25T13:43:02.845Z</time></trkpt><trkpt lat="34.4136395" lon="10.1664712"><ele>5.25</ele><time>2026-04-25T13:43:03.809Z</time></trkpt><trkpt lat="34.413529" lon="10.1664057"><ele>5.5</ele><time>2026-04-25T13:43:04.808Z</time></trkpt><trkpt lat="34.4134159" lon="10.1663338"><ele>5.75</ele><time>2026-04-25T13:43:05.802Z</time></trkpt><trkpt lat="34.4132967" lon="10.166264"><ele>6.0</ele><time>2026-04-25T13:43:06.824Z</time></trkpt><trkpt lat="34.4131864" lon="10.166191"><ele>6.0</ele><time>2026-04-25T13:43:07.827Z</time></trkpt><trkpt lat="34.4130802" lon="10.1661257"><ele>6.0</ele><time>2026-04-25T13:43:08.81Z</time></trkpt><trkpt lat="34.4129709" lon="10.1660615"><ele>6.0</ele><time>2026-04-25T13:43:09.814Z</time></trkpt><trkpt lat="34.4128654" lon="10.1659993"><ele>6.0</ele><time>2026-04-25T13:43:10.807Z</time></trkpt><trkpt lat="34.4127595" lon="10.1659432"><ele>5.75</ele><time>2026-04-25T13:43:11.807Z</time></trkpt><trkpt lat="34.4126536" lon="10.1658833"><ele>5.5</ele><time>2026-04-25T13:43:12.808Z</time></trkpt><trkpt lat="34.412542" lon="10.1658202"><ele>5.25</ele><time>2026-04-25T13:43:13.81Z</time></trkpt><trkpt lat="34.4124334" lon="10.1657549"><ele>5.0</ele><time>2026-04-25T13:43:14.802Z</time></trkpt><trkpt lat="34.4123207" lon="10.1656873"><ele>5.0</ele><time>2026-04-25T13:43:15.816Z</time></trkpt><trkpt lat="34.4122028" lon="10.1656189"><ele>5.0</ele><time>2026-04-25T13:43:16.826Z</time></trkpt><trkpt lat="34.4120813" lon="10.1655465"><ele>5.0</ele><time>2026-04-25T13:43:17.842Z</time></trkpt><trkpt lat="34.4119583" lon="10.1654738"><ele>5.0</ele><time>2026-04-25T13:43:18.807Z</time></trkpt><trkpt lat="34.4118331" lon="10.1653986"><ele>4.75</ele><time>2026-04-25T13:43:19.82Z</time></trkpt><trkpt lat="34.411707" lon="10.1653246"><ele>4.5</ele><time>2026-04-25T13:43:20.806Z</time></trkpt><trkpt lat="34.4115782" lon="10.1652473"><ele>4.25</ele><time>2026-04-25T13:43:21.82Z</time></trkpt><trkpt lat="34.4114363" lon="10.165163"><ele>4.0</ele><time>2026-04-25T13:43:22.821Z</time></trkpt><trkpt lat="34.4112836" lon="10.1650736"><ele>4.0</ele><time>2026-04-25T13:43:23.808Z</time></trkpt><trkpt lat="34.4111277" lon="10.1649875"><ele>4.0</ele><time>2026-04-25T13:43:24.806Z</time></trkpt><trkpt lat="34.410968" lon="10.1648935"><ele>4.0</ele><time>2026-04-25T13:43:25.815Z</time></trkpt><trkpt lat="34.410802" lon="10.1647976"><ele>4.0</ele><time>2026-04-25T13:43:26.805Z</time></trkpt><trkpt lat="34.4106261" lon="10.1647051"><ele>4.0</ele><time>2026-04-25T13:43:27.803Z</time></trkpt><trkpt lat="34.4104476" lon="10.1646103"><ele>4.0</ele><time>2026-04-25T13:43:28.805Z</time></trkpt><trkpt lat="34.4102691" lon="10.1645145"><ele>4.333333333333333</ele><time>2026-04-25T13:43:29.815Z</time></trkpt><trkpt lat="34.4100858" lon="10.1644116"><ele>4.666666666666667</ele><time>2026-04-25T13:43:30.8Z</time></trkpt><trkpt lat="34.4099036" lon="10.164308"><ele>5.0</ele><time>2026-04-25T13:43:31.816Z</time></trkpt><trkpt lat="34.4097135" lon="10.1641973"><ele>5.333333333333334</ele><time>2026-04-25T13:43:32.811Z</time></trkpt><trkpt lat="34.4095246" lon="10.1640863"><ele>5.666666666666667</ele><time>2026-04-25T13:43:33.805Z</time></trkpt><trkpt lat="34.4093346" lon="10.1639712"><ele>6.0</ele><time>2026-04-25T13:43:34.812Z</time></trkpt><trkpt lat="34.4091416" lon="10.1638561"><ele>6.333333333333334</ele><time>2026-04-25T13:43:35.813Z</time></trkpt><trkpt lat="34.4089498" lon="10.1637349"><ele>6.666666666666667</ele><time>2026-04-25T13:43:36.807Z</time></trkpt><trkpt lat="34.4087629" lon="10.1636081"><ele>7.0</ele><time>2026-04-25T13:43:37.81Z</time></trkpt><trkpt lat="34.4085747" lon="10.1634811"><ele>7.0</ele><time>2026-04-25T13:43:38.8Z</time></trkpt><trkpt lat="34.4083852" lon="10.1633595"><ele>7.0</ele><time>2026-04-25T13:43:39.808Z</time></trkpt><trkpt lat="34.4081887" lon="10.1632498"><ele>7.0</ele><time>2026-04-25T13:43:40.812Z</time></trkpt><trkpt lat="34.4079931" lon="10.1631386"><ele>6.666666666666667</ele><time>2026-04-25T13:43:41.806Z</time></trkpt><trkpt lat="34.4077939" lon="10.1630212"><ele>6.333333333333334</ele><time>2026-04-25T13:43:42.799Z</time></trkpt><trkpt lat="34.4075976" lon="10.1629104"><ele>6.0</ele><time>2026-04-25T13:43:43.805Z</time></trkpt><trkpt lat="34.4074062" lon="10.1627982"><ele>6.0</ele><time>2026-04-25T13:43:44.81Z</time></trkpt><trkpt lat="34.4072146" lon="10.1626864"><ele>6.0</ele><time>2026-04-25T13:43:45.805Z</time></trkpt><trkpt lat="34.4070234" lon="10.1625755"><ele>6.0</ele><time>2026-04-25T13:43:46.808Z</time></trkpt><trkpt lat="34.4068309" lon="10.1624581"><ele>6.0</ele><time>2026-04-25T13:43:47.805Z</time></trkpt><trkpt lat="34.4066351" lon="10.1623418"><ele>6.0</ele><time>2026-04-25T13:43:48.804Z</time></trkpt><trkpt lat="34.4064403" lon="10.162224"><ele>6.0</ele><time>2026-04-25T13:43:49.804Z</time></trkpt><trkpt lat="34.4062465" lon="10.1621096"><ele>6.0</ele><time>2026-04-25T13:43:50.808Z</time></trkpt><trkpt lat="34.4060525" lon="10.1619951"><ele>6.0</ele><time>2026-04-25T13:43:51.818Z</time></trkpt><trkpt lat="34.4058595" lon="10.1618768"><ele>6.0</ele><time>2026-04-25T13:43:52.809Z</time></trkpt><trkpt lat="34.4056649" lon="10.1617646"><ele>6.0</ele><time>2026-04-25T13:43:53.804Z</time></trkpt><trkpt lat="34.4054746" lon="10.1616519"><ele>6.0</ele><time>2026-04-25T13:43:54.818Z</time></trkpt><trkpt lat="34.4052845" lon="10.161543"><ele>6.0</ele><time>2026-04-25T13:43:55.81Z</time></trkpt><trkpt lat="34.4050917" lon="10.1614266"><ele>6.0</ele><time>2026-04-25T13:43:56.806Z</time></trkpt><trkpt lat="34.4048997" lon="10.1613122"><ele>6.0</ele><time>2026-04-25T13:43:57.809Z</time></trkpt><trkpt lat="34.4047075" lon="10.1611969"><ele>6.0</ele><time>2026-04-25T13:43:58.801Z</time></trkpt><trkpt lat="34.4045192" lon="10.1610874"><ele>6.333333333333334</ele><time>2026-04-25T13:43:59.819Z</time></trkpt><trkpt lat="34.4043312" lon="10.1609758"><ele>6.666666666666667</ele><time>2026-04-25T13:44:00.806Z</time></trkpt><trkpt lat="34.4041425" lon="10.1608672"><ele>7.0</ele><time>2026-04-25T13:44:01.812Z</time></trkpt><trkpt lat="34.403954" lon="10.1607586"><ele>7.333333333333334</ele><time>2026-04-25T13:44:02.818Z</time></trkpt><trkpt lat="34.4037683" lon="10.160647"><ele>7.666666666666666</ele><time>2026-04-25T13:44:03.805Z</time></trkpt><trkpt lat="34.403581" lon="10.1605426"><ele>8.0</ele><time>2026-04-25T13:44:04.826Z</time></trkpt><trkpt lat="34.4033953" lon="10.1604372"><ele>8.0</ele><time>2026-04-25T13:44:05.808Z</time></trkpt><trkpt lat="34.4032105" lon="10.1603312"><ele>8.0</ele><time>2026-04-25T13:44:06.814Z</time></trkpt><trkpt lat="34.4030288" lon="10.1602233"><ele>8.0</ele><time>2026-04-25T13:44:07.812Z</time></trkpt><trkpt lat="34.4028488" lon="10.1601268"><ele>8.333333333333332</ele><time>2026-04-25T13:44:08.806Z</time></trkpt><trkpt lat="34.4026651" lon="10.1600265"><ele>8.666666666666666</ele><time>2026-04-25T13:44:09.801Z</time></trkpt><trkpt lat="34.4024822" lon="10.1599316"><ele>9.0</ele><time>2026-04-25T13:44:10.818Z</time></trkpt><trkpt lat="34.402296" lon="10.1598441"><ele>8.666666666666666</ele><time>2026-04-25T13:44:11.81Z</time></trkpt><trkpt lat="34.4021003" lon="10.1597541"><ele>8.333333333333332</ele><time>2026-04-25T13:44:12.808Z</time></trkpt><trkpt lat="34.4019059" lon="10.1596686"><ele>8.0</ele><time>2026-04-25T13:44:13.81Z</time></trkpt><trkpt lat="34.4017094" lon="10.1595786"><ele>8.0</ele><time>2026-04-25T13:44:14.812Z</time></trkpt><trkpt lat="34.4015175" lon="10.1594929"><ele>8.0</ele><time>2026-04-25T13:44:15.802Z</time></trkpt><trkpt lat="34.4013226" lon="10.1594069"><ele>8.0</ele><time>2026-04-25T13:44:16.804Z</time></trkpt><trkpt lat="34.4011301" lon="10.1593217"><ele>7.666666666666666</ele><time>2026-04-25T13:44:17.815Z</time></trkpt><trkpt lat="34.4009387" lon="10.1592327"><ele>7.333333333333334</ele><time>2026-04-25T13:44:18.808Z</time></trkpt><trkpt lat="34.4007492" lon="10.1591406"><ele>7.0</ele><time>2026-04-25T13:44:19.814Z</time></trkpt><trkpt lat="34.4005604" lon="10.1590571"><ele>6.666666666666667</ele><time>2026-04-25T13:44:20.803Z</time></trkpt><trkpt lat="34.4003671" lon="10.1589736"><ele>6.333333333333334</ele><time>2026-04-25T13:44:21.794Z</time></trkpt><trkpt lat="34.4001708" lon="10.1588926"><ele>6.0</ele><time>2026-04-25T13:44:22.81Z</time></trkpt><trkpt lat="34.3999667" lon="10.1588012"><ele>6.0</ele><time>2026-04-25T13:44:23.816Z</time></trkpt><trkpt lat="34.3997586" lon="10.1587064"><ele>6.0</ele><time>2026-04-25T13:44:24.81Z</time></trkpt><trkpt lat="34.3995459" lon="10.1586081"><ele>6.5</ele><time>2026-04-25T13:44:25.81Z</time></trkpt><trkpt lat="34.3993344" lon="10.1585074"><ele>7.0</ele><time>2026-04-25T13:44:26.795Z</time></trkpt><trkpt lat="34.3991245" lon="10.1584052"><ele>7.0</ele><time>2026-04-25T13:44:27.814Z</time></trkpt><trkpt lat="34.3989107" lon="10.1583082"><ele>7.0</ele><time>2026-04-25T13:44:28.85Z</time></trkpt><trkpt lat="34.3986924" lon="10.1582142"><ele>6.5</ele><time>2026-04-25T13:44:29.832Z</time></trkpt><trkpt lat="34.3984788" lon="10.1581177"><ele>6.0</ele><time>2026-04-25T13:44:30.817Z</time></trkpt><trkpt lat="34.3982662" lon="10.158021"><ele>6.0</ele><time>2026-04-25T13:44:31.825Z</time></trkpt><trkpt lat="34.3980514" lon="10.1579255"><ele>6.0</ele><time>2026-04-25T13:44:32.797Z</time></trkpt><trkpt lat="34.3978395" lon="10.1578299"><ele>6.5</ele><time>2026-04-25T13:44:33.829Z</time></trkpt><trkpt lat="34.3976266" lon="10.1577343"><ele>7.0</ele><time>2026-04-25T13:44:34.827Z</time></trkpt><trkpt lat="34.3974135" lon="10.1576356"><ele>7.0</ele><time>2026-04-25T13:44:35.828Z</time></trkpt><trkpt lat="34.3971994" lon="10.1575403"><ele>7.0</ele><time>2026-04-25T13:44:36.83Z</time></trkpt><trkpt lat="34.3969887" lon="10.157443"><ele>8.0</ele><time>2026-04-25T13:44:37.816Z</time></trkpt><trkpt lat="34.3967777" lon="10.157343"><ele>9.0</ele><time>2026-04-25T13:44:38.841Z</time></trkpt><trkpt lat="34.3965661" lon="10.1572389"><ele>9.0</ele><time>2026-04-25T13:44:39.817Z</time></trkpt><trkpt lat="34.3963561" lon="10.157136"><ele>9.0</ele><time>2026-04-25T13:44:40.841Z</time></trkpt><trkpt lat="34.3961525" lon="10.1570287"><ele>9.0</ele><time>2026-04-25T13:44:41.835Z</time></trkpt><trkpt lat="34.3959489" lon="10.1569139"><ele>9.0</ele><time>2026-04-25T13:44:42.834Z</time></trkpt><trkpt lat="34.3957468" lon="10.1567935"><ele>9.0</ele><time>2026-04-25T13:44:43.825Z</time></trkpt><trkpt lat="34.395547" lon="10.1566705"><ele>9.0</ele><time>2026-04-25T13:44:44.829Z</time></trkpt><trkpt lat="34.3953485" lon="10.1565404"><ele>9.333333333333334</ele><time>2026-04-25T13:44:45.828Z</time></trkpt><trkpt lat="34.3951537" lon="10.1564047"><ele>9.666666666666668</ele><time>2026-04-25T13:44:46.833Z</time></trkpt><trkpt lat="34.3949616" lon="10.1562652"><ele>10.0</ele><time>2026-04-25T13:44:47.804Z</time></trkpt><trkpt lat="34.3947735" lon="10.1561248"><ele>11.0</ele><time>2026-04-25T13:44:48.802Z</time></trkpt><trkpt lat="34.3945923" lon="10.1559829"><ele>12.0</ele><time>2026-04-25T13:44:49.822Z</time></trkpt><trkpt lat="34.3944127" lon="10.1558388"><ele>13.0</ele><time>2026-04-25T13:44:50.807Z</time></trkpt><trkpt lat="34.3942348" lon="10.1556894"><ele>13.0</ele><time>2026-04-25T13:44:51.835Z</time></trkpt><trkpt lat="34.3940602" lon="10.1555379"><ele>13.0</ele><time>2026-04-25T13:44:52.828Z</time></trkpt><trkpt lat="34.3938851" lon="10.1553906"><ele>13.0</ele><time>2026-04-25T13:44:53.837Z</time></trkpt><trkpt lat="34.3937106" lon="10.1552338"><ele>13.333333333333332</ele><time>2026-04-25T13:44:54.828Z</time></trkpt><trkpt lat="34.3935397" lon="10.1550792"><ele>13.666666666666668</ele><time>2026-04-25T13:44:55.834Z</time></trkpt><trkpt lat="34.3933701" lon="10.1549189"><ele>14.0</ele><time>2026-04-25T13:44:56.824Z</time></trkpt><trkpt lat="34.3932055" lon="10.1547514"><ele>14.0</ele><time>2026-04-25T13:44:57.838Z</time></trkpt><trkpt lat="34.3930413" lon="10.1545779"><ele>14.0</ele><time>2026-04-25T13:44:58.84Z</time></trkpt><trkpt lat="34.3928825" lon="10.1544062"><ele>14.0</ele><time>2026-04-25T13:44:59.829Z</time></trkpt><trkpt lat="34.3927234" lon="10.1542295"><ele>14.666666666666668</ele><time>2026-04-25T13:45:00.812Z</time></trkpt><trkpt lat="34.3925639" lon="10.154046"><ele>15.333333333333332</ele><time>2026-04-25T13:45:01.833Z</time></trkpt><trkpt lat="34.3924123" lon="10.1538613"><ele>16.0</ele><time>2026-04-25T13:45:02.81Z</time></trkpt><trkpt lat="34.3922593" lon="10.1536773"><ele>16.666666666666664</ele><time>2026-04-25T13:45:03.82Z</time></trkpt><trkpt lat="34.3921052" lon="10.1534906"><ele>17.333333333333332</ele><time>2026-04-25T13:45:04.832Z</time></trkpt><trkpt lat="34.3919558" lon="10.1533021"><ele>18.0</ele><time>2026-04-25T13:45:05.825Z</time></trkpt><trkpt lat="34.3918079" lon="10.1531105"><ele>18.333333333333332</ele><time>2026-04-25T13:45:06.823Z</time></trkpt><trkpt lat="34.3916641" lon="10.1529173"><ele>18.666666666666664</ele><time>2026-04-25T13:45:07.826Z</time></trkpt><trkpt lat="34.3915193" lon="10.1527237"><ele>19.0</ele><time>2026-04-25T13:45:08.815Z</time></trkpt><trkpt lat="34.3913747" lon="10.152529"><ele>19.333333333333332</ele><time>2026-04-25T13:45:09.83Z</time></trkpt><trkpt lat="34.391232" lon="10.1523313"><ele>19.666666666666668</ele><time>2026-04-25T13:45:10.834Z</time></trkpt><trkpt lat="34.3910871" lon="10.1521326"><ele>20.0</ele><time>2026-04-25T13:45:11.836Z</time></trkpt><trkpt lat="34.3909422" lon="10.1519361"><ele>20.0</ele><time>2026-04-25T13:45:12.825Z</time></trkpt><trkpt lat="34.3907974" lon="10.1517391"><ele>20.0</ele><time>2026-04-25T13:45:13.833Z</time></trkpt><trkpt lat="34.3906585" lon="10.1515391"><ele>20.0</ele><time>2026-04-25T13:45:14.841Z</time></trkpt><trkpt lat="34.3905153" lon="10.1513452"><ele>20.333333333333336</ele><time>2026-04-25T13:45:15.843Z</time></trkpt><trkpt lat="34.3903706" lon="10.1511514"><ele>20.666666666666668</ele><time>2026-04-25T13:45:16.801Z</time></trkpt><trkpt lat="34.3902287" lon="10.150954"><ele>21.0</ele><time>2026-04-25T13:45:17.806Z</time></trkpt><trkpt lat="34.3900856" lon="10.1507659"><ele>21.0</ele><time>2026-04-25T13:45:18.808Z</time></trkpt><trkpt lat="34.389943" lon="10.1505758"><ele>21.0</ele><time>2026-04-25T13:45:19.818Z</time></trkpt><trkpt lat="34.3898018" lon="10.1503804"><ele>21.0</ele><time>2026-04-25T13:45:20.831Z</time></trkpt><trkpt lat="34.3896588" lon="10.1501882"><ele>21.0</ele><time>2026-04-25T13:45:21.838Z</time></trkpt><trkpt lat="34.3895151" lon="10.1499878"><ele>21.0</ele><time>2026-04-25T13:45:22.812Z</time></trkpt><trkpt lat="34.3893675" lon="10.1497907"><ele>21.0</ele><time>2026-04-25T13:45:23.825Z</time></trkpt><trkpt lat="34.3892163" lon="10.1495891"><ele>21.0</ele><time>2026-04-25T13:45:24.806Z</time></trkpt><trkpt lat="34.3890652" lon="10.1493886"><ele>21.0</ele><time>2026-04-25T13:45:25.852Z</time></trkpt><trkpt lat="34.3889181" lon="10.1491848"><ele>21.0</ele><time>2026-04-25T13:45:26.831Z</time></trkpt><trkpt lat="34.3887622" lon="10.1489774"><ele>22.0</ele><time>2026-04-25T13:45:27.815Z</time></trkpt><trkpt lat="34.3886119" lon="10.1487685"><ele>23.0</ele><time>2026-04-25T13:45:28.826Z</time></trkpt><trkpt lat="34.3884614" lon="10.1485633"><ele>23.0</ele><time>2026-04-25T13:45:29.84Z</time></trkpt><trkpt lat="34.3883074" lon="10.1483628"><ele>23.0</ele><time>2026-04-25T13:45:30.814Z</time></trkpt><trkpt lat="34.3881517" lon="10.1481609"><ele>24.5</ele><time>2026-04-25T13:45:31.845Z</time></trkpt><trkpt lat="34.3879962" lon="10.1479542"><ele>26.0</ele><time>2026-04-25T13:45:32.811Z</time></trkpt><trkpt lat="34.3878428" lon="10.1477413"><ele>26.0</ele><time>2026-04-25T13:45:33.833Z</time></trkpt><trkpt lat="34.3876869" lon="10.1475297"><ele>26.0</ele><time>2026-04-25T13:45:34.838Z</time></trkpt><trkpt lat="34.3875314" lon="10.1473128"><ele>27.0</ele><time>2026-04-25T13:45:35.824Z</time></trkpt><trkpt lat="34.387371" lon="10.1471052"><ele>28.0</ele><time>2026-04-25T13:45:36.829Z</time></trkpt><trkpt lat="34.3872133" lon="10.146889"><ele>27.5</ele><time>2026-04-25T13:45:37.833Z</time></trkpt><trkpt lat="34.3870528" lon="10.1466789"><ele>27.0</ele><time>2026-04-25T13:45:38.812Z</time></trkpt><trkpt lat="34.3868972" lon="10.1464684"><ele>27.0</ele><time>2026-04-25T13:45:39.824Z</time></trkpt><trkpt lat="34.3867453" lon="10.1462629"><ele>27.0</ele><time>2026-04-25T13:45:40.811Z</time></trkpt><trkpt lat="34.3865956" lon="10.1460589"><ele>27.0</ele><time>2026-04-25T13:45:41.832Z</time></trkpt><trkpt lat="34.3864447" lon="10.1458575"><ele>27.0</ele><time>2026-04-25T13:45:42.822Z</time></trkpt><trkpt lat="34.3862921" lon="10.1456528"><ele>27.5</ele><time>2026-04-25T13:45:43.824Z</time></trkpt><trkpt lat="34.3861402" lon="10.1454524"><ele>28.0</ele><time>2026-04-25T13:45:44.826Z</time></trkpt><trkpt lat="34.3859896" lon="10.145248"><ele>28.0</ele><time>2026-04-25T13:45:45.846Z</time></trkpt><trkpt lat="34.3858396" lon="10.1450403"><ele>28.0</ele><time>2026-04-25T13:45:46.841Z</time></trkpt><trkpt lat="34.3856864" lon="10.1448381"><ele>28.5</ele><time>2026-04-25T13:45:47.797Z</time></trkpt><trkpt lat="34.3855327" lon="10.1446319"><ele>29.0</ele><time>2026-04-25T13:45:48.807Z</time></trkpt><trkpt lat="34.3853797" lon="10.1444308"><ele>29.333333333333332</ele><time>2026-04-25T13:45:49.825Z</time></trkpt><trkpt lat="34.38523" lon="10.1442292"><ele>29.666666666666664</ele><time>2026-04-25T13:45:50.847Z</time></trkpt><trkpt lat="34.3850826" lon="10.1440256"><ele>30.0</ele><time>2026-04-25T13:45:51.83Z</time></trkpt><trkpt lat="34.3849352" lon="10.1438219"><ele>30.0</ele><time>2026-04-25T13:45:52.83Z</time></trkpt><trkpt lat="34.3847852" lon="10.1436244"><ele>30.0</ele><time>2026-04-25T13:45:53.839Z</time></trkpt><trkpt lat="34.3846362" lon="10.143429"><ele>30.0</ele><time>2026-04-25T13:45:54.836Z</time></trkpt><trkpt lat="34.3844873" lon="10.1432287"><ele>30.333333333333336</ele><time>2026-04-25T13:45:55.836Z</time></trkpt><trkpt lat="34.3843372" lon="10.1430334"><ele>30.666666666666668</ele><time>2026-04-25T13:45:56.835Z</time></trkpt><trkpt lat="34.384189" lon="10.1428329"><ele>31.0</ele><time>2026-04-25T13:45:57.835Z</time></trkpt><trkpt lat="34.3840364" lon="10.1426376"><ele>31.0</ele><time>2026-04-25T13:45:58.833Z</time></trkpt><trkpt lat="34.3838885" lon="10.142437"><ele>31.0</ele><time>2026-04-25T13:45:59.809Z</time></trkpt><trkpt lat="34.3837404" lon="10.1422357"><ele>31.0</ele><time>2026-04-25T13:46:00.836Z</time></trkpt><trkpt lat="34.3835924" lon="10.1420245"><ele>31.5</ele><time>2026-04-25T13:46:01.828Z</time></trkpt><trkpt lat="34.3834417" lon="10.1418189"><ele>32.0</ele><time>2026-04-25T13:46:02.802Z</time></trkpt><trkpt lat="34.3832919" lon="10.1416167"><ele>31.5</ele><time>2026-04-25T13:46:03.842Z</time></trkpt><trkpt lat="34.3831404" lon="10.1414107"><ele>31.0</ele><time>2026-04-25T13:46:04.841Z</time></trkpt><trkpt lat="34.3829897" lon="10.141203"><ele>31.0</ele><time>2026-04-25T13:46:05.829Z</time></trkpt><trkpt lat="34.3828401" lon="10.1410004"><ele>31.0</ele><time>2026-04-25T13:46:06.838Z</time></trkpt><trkpt lat="34.3826878" lon="10.1407965"><ele>31.666666666666668</ele><time>2026-04-25T13:46:07.842Z</time></trkpt><trkpt lat="34.3825364" lon="10.1405998"><ele>32.333333333333336</ele><time>2026-04-25T13:46:08.831Z</time></trkpt><trkpt lat="34.3823882" lon="10.1404015"><ele>33.0</ele><time>2026-04-25T13:46:09.827Z</time></trkpt><trkpt lat="34.3822423" lon="10.1402038"><ele>32.666666666666664</ele><time>2026-04-25T13:46:10.821Z</time></trkpt><trkpt lat="34.3820998" lon="10.1400088"><ele>32.33333333333333</ele><time>2026-04-25T13:46:11.857Z</time></trkpt><trkpt lat="34.3819558" lon="10.1398149"><ele>32.0</ele><time>2026-04-25T13:46:12.793Z</time></trkpt><trkpt lat="34.3818152" lon="10.1396265"><ele>32.0</ele><time>2026-04-25T13:46:13.826Z</time></trkpt><trkpt lat="34.3816721" lon="10.1394391"><ele>32.0</ele><time>2026-04-25T13:46:14.839Z</time></trkpt><trkpt lat="34.3815329" lon="10.1392488"><ele>32.0</ele><time>2026-04-25T13:46:15.817Z</time></trkpt><trkpt lat="34.3813934" lon="10.1390608"><ele>32.33333333333333</ele><time>2026-04-25T13:46:16.831Z</time></trkpt><trkpt lat="34.381254" lon="10.1388714"><ele>32.666666666666664</ele><time>2026-04-25T13:46:17.797Z</time></trkpt><trkpt lat="34.381114" lon="10.1386845"><ele>33.0</ele><time>2026-04-25T13:46:18.815Z</time></trkpt><trkpt lat="34.3809715" lon="10.1384982"><ele>33.0</ele><time>2026-04-25T13:46:19.827Z</time></trkpt><trkpt lat="34.3808314" lon="10.1383105"><ele>33.0</ele><time>2026-04-25T13:46:20.835Z</time></trkpt><trkpt lat="34.3806927" lon="10.1381269"><ele>33.0</ele><time>2026-04-25T13:46:21.838Z</time></trkpt><trkpt lat="34.3805522" lon="10.1379361"><ele>33.666666666666664</ele><time>2026-04-25T13:46:22.838Z</time></trkpt><trkpt lat="34.3804107" lon="10.1377499"><ele>34.33333333333333</ele><time>2026-04-25T13:46:23.82Z</time></trkpt><trkpt lat="34.3802705" lon="10.1375621"><ele>35.0</ele><time>2026-04-25T13:46:24.816Z</time></trkpt><trkpt lat="34.3801277" lon="10.1373749"><ele>35.0</ele><time>2026-04-25T13:46:25.826Z</time></trkpt><trkpt lat="34.3799799" lon="10.1371822"><ele>35.0</ele><time>2026-04-25T13:46:26.831Z</time></trkpt><trkpt lat="34.3798253" lon="10.1369931"><ele>35.0</ele><time>2026-04-25T13:46:27.826Z</time></trkpt><trkpt lat="34.3796652" lon="10.1368121"><ele>35.33333333333333</ele><time>2026-04-25T13:46:28.827Z</time></trkpt><trkpt lat="34.3794937" lon="10.1366406"><ele>35.666666666666664</ele><time>2026-04-25T13:46:29.802Z</time></trkpt><trkpt lat="34.3793194" lon="10.1364706"><ele>36.0</ele><time>2026-04-25T13:46:30.808Z</time></trkpt><trkpt lat="34.3791446" lon="10.136314"><ele>36.0</ele><time>2026-04-25T13:46:31.785Z</time></trkpt><trkpt lat="34.3789639" lon="10.1361497"><ele>36.0</ele><time>2026-04-25T13:46:32.781Z</time></trkpt><trkpt lat="34.3787869" lon="10.1359815"><ele>36.0</ele><time>2026-04-25T13:46:33.791Z</time></trkpt><trkpt lat="34.3786078" lon="10.1358157"><ele>36.0</ele><time>2026-04-25T13:46:34.789Z</time></trkpt><trkpt lat="34.3784264" lon="10.1356483"><ele>36.5</ele><time>2026-04-25T13:46:35.79Z</time></trkpt><trkpt lat="34.3782427" lon="10.1354838"><ele>37.0</ele><time>2026-04-25T13:46:36.782Z</time></trkpt><trkpt lat="34.378057" lon="10.1353185"><ele>36.5</ele><time>2026-04-25T13:46:37.795Z</time></trkpt><trkpt lat="34.3778704" lon="10.1351523"><ele>36.0</ele><time>2026-04-25T13:46:38.783Z</time></trkpt><trkpt lat="34.37769" lon="10.1349909"><ele>36.333333333333336</ele><time>2026-04-25T13:46:39.788Z</time></trkpt><trkpt lat="34.3775155" lon="10.1348242"><ele>36.66666666666667</ele><time>2026-04-25T13:46:40.784Z</time></trkpt><trkpt lat="34.3773374" lon="10.134663"><ele>37.0</ele><time>2026-04-25T13:46:41.784Z</time></trkpt><trkpt lat="34.3771611" lon="10.1345021"><ele>36.66666666666667</ele><time>2026-04-25T13:46:42.785Z</time></trkpt><trkpt lat="34.3769836" lon="10.1343436"><ele>36.333333333333336</ele><time>2026-04-25T13:46:43.781Z</time></trkpt><trkpt lat="34.3768048" lon="10.1341826"><ele>36.0</ele><time>2026-04-25T13:46:44.794Z</time></trkpt><trkpt lat="34.3766255" lon="10.1340161"><ele>36.0</ele><time>2026-04-25T13:46:45.777Z</time></trkpt><trkpt lat="34.3764468" lon="10.1338561"><ele>36.0</ele><time>2026-04-25T13:46:46.789Z</time></trkpt><trkpt lat="34.3762692" lon="10.1336897"><ele>36.0</ele><time>2026-04-25T13:46:47.783Z</time></trkpt><trkpt lat="34.376093" lon="10.1335278"><ele>35.666666666666664</ele><time>2026-04-25T13:46:48.788Z</time></trkpt><trkpt lat="34.3759169" lon="10.1333671"><ele>35.33333333333333</ele><time>2026-04-25T13:46:49.79Z</time></trkpt><trkpt lat="34.3757433" lon="10.1332082"><ele>35.0</ele><time>2026-04-25T13:46:50.783Z</time></trkpt><trkpt lat="34.375568" lon="10.1330444"><ele>35.33333333333333</ele><time>2026-04-25T13:46:51.789Z</time></trkpt><trkpt lat="34.3753928" lon="10.1328857"><ele>35.666666666666664</ele><time>2026-04-25T13:46:52.784Z</time></trkpt><trkpt lat="34.3752189" lon="10.1327247"><ele>36.0</ele><time>2026-04-25T13:46:53.784Z</time></trkpt><trkpt lat="34.375043" lon="10.1325694"><ele>36.0</ele><time>2026-04-25T13:46:54.794Z</time></trkpt><trkpt lat="34.3748677" lon="10.1324097"><ele>36.0</ele><time>2026-04-25T13:46:55.785Z</time></trkpt><trkpt lat="34.3746938" lon="10.1322484"><ele>36.0</ele><time>2026-04-25T13:46:56.79Z</time></trkpt><trkpt lat="34.3745171" lon="10.1320874"><ele>36.333333333333336</ele><time>2026-04-25T13:46:57.795Z</time></trkpt><trkpt lat="34.3743407" lon="10.131928"><ele>36.66666666666667</ele><time>2026-04-25T13:46:58.789Z</time></trkpt><trkpt lat="34.3741684" lon="10.1317688"><ele>37.0</ele><time>2026-04-25T13:46:59.792Z</time></trkpt><trkpt lat="34.3739929" lon="10.1316111"><ele>38.0</ele><time>2026-04-25T13:47:00.793Z</time></trkpt><trkpt lat="34.3738201" lon="10.1314506"><ele>39.0</ele><time>2026-04-25T13:47:01.792Z</time></trkpt><trkpt lat="34.3736455" lon="10.1312924"><ele>40.0</ele><time>2026-04-25T13:47:02.782Z</time></trkpt><trkpt lat="34.3734661" lon="10.1311311"><ele>40.0</ele><time>2026-04-25T13:47:03.788Z</time></trkpt><trkpt lat="34.3732876" lon="10.1309659"><ele>40.0</ele><time>2026-04-25T13:47:04.793Z</time></trkpt><trkpt lat="34.3731085" lon="10.1307996"><ele>39.5</ele><time>2026-04-25T13:47:05.776Z</time></trkpt><trkpt lat="34.3729273" lon="10.1306378"><ele>39.0</ele><time>2026-04-25T13:47:06.793Z</time></trkpt><trkpt lat="34.3727478" lon="10.1304745"><ele>39.0</ele><time>2026-04-25T13:47:07.784Z</time></trkpt><trkpt lat="34.3725674" lon="10.1303089"><ele>39.0</ele><time>2026-04-25T13:47:08.784Z</time></trkpt><trkpt lat="34.3723884" lon="10.130145"><ele>39.0</ele><time>2026-04-25T13:47:09.788Z</time></trkpt><trkpt lat="34.3722081" lon="10.1299828"><ele>39.0</ele><time>2026-04-25T13:47:10.792Z</time></trkpt><trkpt lat="34.3720314" lon="10.1298243"><ele>39.0</ele><time>2026-04-25T13:47:11.788Z</time></trkpt><trkpt lat="34.3718564" lon="10.129666"><ele>39.0</ele><time>2026-04-25T13:47:12.785Z</time></trkpt><trkpt lat="34.3716863" lon="10.1295096"><ele>39.0</ele><time>2026-04-25T13:47:13.794Z</time></trkpt><trkpt lat="34.3715154" lon="10.12935"><ele>39.0</ele><time>2026-04-25T13:47:14.791Z</time></trkpt><trkpt lat="34.3713433" lon="10.1291927"><ele>38.666666666666664</ele><time>2026-04-25T13:47:15.79Z</time></trkpt><trkpt lat="34.3711703" lon="10.1290338"><ele>38.33333333333333</ele><time>2026-04-25T13:47:16.78Z</time></trkpt><trkpt lat="34.3709963" lon="10.1288722"><ele>38.0</ele><time>2026-04-25T13:47:17.782Z</time></trkpt><trkpt lat="34.37082" lon="10.1287097"><ele>38.0</ele><time>2026-04-25T13:47:18.784Z</time></trkpt><trkpt lat="34.3706435" lon="10.1285491"><ele>38.0</ele><time>2026-04-25T13:47:19.799Z</time></trkpt><trkpt lat="34.3704718" lon="10.1283887"><ele>38.0</ele><time>2026-04-25T13:47:20.789Z</time></trkpt><trkpt lat="34.3703004" lon="10.1282307"><ele>38.33333333333333</ele><time>2026-04-25T13:47:21.79Z</time></trkpt><trkpt lat="34.3701261" lon="10.1280716"><ele>38.666666666666664</ele><time>2026-04-25T13:47:22.791Z</time></trkpt><trkpt lat="34.3699516" lon="10.1279126"><ele>39.0</ele><time>2026-04-25T13:47:23.79Z</time></trkpt><trkpt lat="34.3697762" lon="10.1277558"><ele>39.0</ele><time>2026-04-25T13:47:24.789Z</time></trkpt><trkpt lat="34.3695975" lon="10.1275955"><ele>39.0</ele><time>2026-04-25T13:47:25.789Z</time></trkpt><trkpt lat="34.3694201" lon="10.1274339"><ele>39.0</ele><time>2026-04-25T13:47:26.784Z</time></trkpt><trkpt lat="34.3692461" lon="10.1272713"><ele>39.0</ele><time>2026-04-25T13:47:27.793Z</time></trkpt><trkpt lat="34.3690788" lon="10.1271185"><ele>39.0</ele><time>2026-04-25T13:47:28.788Z</time></trkpt><trkpt lat="34.3689178" lon="10.1269657"><ele>39.0</ele><time>2026-04-25T13:47:29.787Z</time></trkpt><trkpt lat="34.3687676" lon="10.126829"><ele>39.0</ele><time>2026-04-25T13:47:30.779Z</time></trkpt><trkpt lat="34.3686231" lon="10.1266982"><ele>39.0</ele><time>2026-04-25T13:47:31.784Z</time></trkpt><trkpt lat="34.3684837" lon="10.1265693"><ele>39.0</ele><time>2026-04-25T13:47:32.783Z</time></trkpt><trkpt lat="34.3683476" lon="10.126439"><ele>39.0</ele><time>2026-04-25T13:47:33.784Z</time></trkpt><trkpt lat="34.368229" lon="10.1263169"><ele>39.0</ele><time>2026-04-25T13:47:34.795Z</time></trkpt><trkpt lat="34.3681329" lon="10.1262132"><ele>39.0</ele><time>2026-04-25T13:47:35.794Z</time></trkpt><trkpt lat="34.3680543" lon="10.1261205"><ele>39.0</ele><time>2026-04-25T13:47:36.789Z</time></trkpt><trkpt lat="34.3679768" lon="10.1260262"><ele>39.0</ele><time>2026-04-25T13:47:37.791Z</time></trkpt><trkpt lat="34.3678984" lon="10.1259323"><ele>39.0</ele><time>2026-04-25T13:47:38.783Z</time></trkpt><trkpt lat="34.367809" lon="10.1258376"><ele>39.0</ele><time>2026-04-25T13:47:39.796Z</time></trkpt><trkpt lat="34.3677097" lon="10.1257457"><ele>39.0</ele><time>2026-04-25T13:47:40.795Z</time></trkpt><trkpt lat="34.3676065" lon="10.1256524"><ele>39.0</ele><time>2026-04-25T13:47:41.791Z</time></trkpt><trkpt lat="34.367496" lon="10.1255546"><ele>39.0</ele><time>2026-04-25T13:47:42.792Z</time></trkpt><trkpt lat="34.367388" lon="10.1254527"><ele>39.0</ele><time>2026-04-25T13:47:43.785Z</time></trkpt><trkpt lat="34.3672812" lon="10.1253498"><ele>39.0</ele><time>2026-04-25T13:47:44.783Z</time></trkpt><trkpt lat="34.3671762" lon="10.1252471"><ele>39.0</ele><time>2026-04-25T13:47:45.781Z</time></trkpt><trkpt lat="34.367071" lon="10.1251443"><ele>39.0</ele><time>2026-04-25T13:47:46.83Z</time></trkpt><trkpt lat="34.366972" lon="10.1250514"><ele>39.0</ele><time>2026-04-25T13:47:47.809Z</time></trkpt><trkpt lat="34.366873" lon="10.1249627"><ele>39.0</ele><time>2026-04-25T13:47:48.802Z</time></trkpt><trkpt lat="34.3667743" lon="10.124876"><ele>39.0</ele><time>2026-04-25T13:47:49.834Z</time></trkpt><trkpt lat="34.3666801" lon="10.1247874"><ele>39.0</ele><time>2026-04-25T13:47:50.825Z</time></trkpt><trkpt lat="34.3665858" lon="10.1246963"><ele>39.0</ele><time>2026-04-25T13:47:51.823Z</time></trkpt><trkpt lat="34.3664889" lon="10.1246082"><ele>39.0</ele><time>2026-04-25T13:47:52.817Z</time></trkpt><trkpt lat="34.3663906" lon="10.1245199"><ele>39.25</ele><time>2026-04-25T13:47:53.828Z</time></trkpt><trkpt lat="34.3662902" lon="10.1244339"><ele>39.5</ele><time>2026-04-25T13:47:54.83Z</time></trkpt><trkpt lat="34.3661897" lon="10.1243442"><ele>39.75</ele><time>2026-04-25T13:47:55.815Z</time></trkpt><trkpt lat="34.3660896" lon="10.1242513"><ele>40.0</ele><time>2026-04-25T13:47:56.832Z</time></trkpt><trkpt lat="34.3659922" lon="10.1241614"><ele>40.0</ele><time>2026-04-25T13:47:57.827Z</time></trkpt><trkpt lat="34.3658982" lon="10.1240786"><ele>40.0</ele><time>2026-04-25T13:47:58.839Z</time></trkpt><trkpt lat="34.3658081" lon="10.123999"><ele>40.0</ele><time>2026-04-25T13:47:59.844Z</time></trkpt><trkpt lat="34.3657195" lon="10.1239184"><ele>40.0</ele><time>2026-04-25T13:48:00.829Z</time></trkpt><trkpt lat="34.3656312" lon="10.1238387"><ele>40.0</ele><time>2026-04-25T13:48:01.837Z</time></trkpt><trkpt lat="34.365546" lon="10.12376"><ele>40.0</ele><time>2026-04-25T13:48:02.803Z</time></trkpt><trkpt lat="34.3654601" lon="10.123682"><ele>40.0</ele><time>2026-04-25T13:48:03.825Z</time></trkpt><trkpt lat="34.3653809" lon="10.1236111"><ele>40.0</ele><time>2026-04-25T13:48:04.826Z</time></trkpt><trkpt lat="34.3653098" lon="10.1235478"><ele>40.0</ele><time>2026-04-25T13:48:05.825Z</time></trkpt><trkpt lat="34.3652402" lon="10.1234875"><ele>40.0</ele><time>2026-04-25T13:48:06.83Z</time></trkpt><trkpt lat="34.3651773" lon="10.1234276"><ele>40.0</ele><time>2026-04-25T13:48:07.801Z</time></trkpt><trkpt lat="34.3651152" lon="10.1233692"><ele>40.0</ele><time>2026-04-25T13:48:08.82Z</time></trkpt><trkpt lat="34.3650561" lon="10.1233131"><ele>40.0</ele><time>2026-04-25T13:48:09.826Z</time></trkpt><trkpt lat="34.3649631" lon="10.1232238"><ele>40.0</ele><time>2026-04-25T13:48:11.835Z</time></trkpt><trkpt lat="34.3648883" lon="10.1231554"><ele>40.0</ele><time>2026-04-25T13:48:13.814Z</time></trkpt><trkpt lat="34.3648288" lon="10.1231024"><ele>40.0</ele><time>2026-04-25T13:48:16.824Z</time></trkpt><trkpt lat="34.3647437" lon="10.1230768"><ele>40.4</ele><time>2026-04-25T14:12:16.797Z</time></trkpt><trkpt lat="34.3646402" lon="10.1230276"><ele>40.8</ele><time>2026-04-25T14:12:18.797Z</time></trkpt><trkpt lat="34.3645713" lon="10.1229742"><ele>41.2</ele><time>2026-04-25T14:12:19.793Z</time></trkpt><trkpt lat="34.3644969" lon="10.1229178"><ele>41.6</ele><time>2026-04-25T14:12:20.799Z</time></trkpt><trkpt lat="34.3644194" lon="10.1228486"><ele>42.0</ele><time>2026-04-25T14:12:21.793Z</time></trkpt><trkpt lat="34.3643321" lon="10.1227733"><ele>42.0</ele><time>2026-04-25T14:12:22.806Z</time></trkpt><trkpt lat="34.364243" lon="10.1226848"><ele>42.0</ele><time>2026-04-25T14:12:23.786Z</time></trkpt><trkpt lat="34.3641506" lon="10.1225985"><ele>42.0</ele><time>2026-04-25T14:12:24.789Z</time></trkpt><trkpt lat="34.3640572" lon="10.1225085"><ele>42.0</ele><time>2026-04-25T14:12:25.786Z</time></trkpt><trkpt lat="34.3639569" lon="10.1224164"><ele>41.5</ele><time>2026-04-25T14:12:26.793Z</time></trkpt><trkpt lat="34.3638582" lon="10.1223213"><ele>41.0</ele><time>2026-04-25T14:12:27.796Z</time></trkpt><trkpt lat="34.3637551" lon="10.1222253"><ele>40.5</ele><time>2026-04-25T14:12:28.793Z</time></trkpt><trkpt lat="34.3636512" lon="10.1221283"><ele>40.0</ele><time>2026-04-25T14:12:29.795Z</time></trkpt><trkpt lat="34.3635451" lon="10.1220314"><ele>40.0</ele><time>2026-04-25T14:12:30.802Z</time></trkpt><trkpt lat="34.3634399" lon="10.121936"><ele>40.0</ele><time>2026-04-25T14:12:31.802Z</time></trkpt><trkpt lat="34.363336" lon="10.1218401"><ele>40.0</ele><time>2026-04-25T14:12:32.8Z</time></trkpt><trkpt lat="34.3632285" lon="10.121748"><ele>40.0</ele><time>2026-04-25T14:12:33.802Z</time></trkpt><trkpt lat="34.3631167" lon="10.1216512"><ele>40.0</ele><time>2026-04-25T14:12:34.778Z</time></trkpt><trkpt lat="34.3630089" lon="10.1215588"><ele>40.0</ele><time>2026-04-25T14:12:35.799Z</time></trkpt><trkpt lat="34.3628982" lon="10.1214653"><ele>40.0</ele><time>2026-04-25T14:12:36.796Z</time></trkpt><trkpt lat="34.3627884" lon="10.1213653"><ele>40.0</ele><time>2026-04-25T14:12:37.807Z</time></trkpt><trkpt lat="34.3626765" lon="10.1212631"><ele>40.0</ele><time>2026-04-25T14:12:38.803Z</time></trkpt><trkpt lat="34.3625631" lon="10.1211593"><ele>40.0</ele><time>2026-04-25T14:12:39.8Z</time></trkpt><trkpt lat="34.3624516" lon="10.1210534"><ele>40.0</ele><time>2026-04-25T14:12:40.792Z</time></trkpt><trkpt lat="34.3623285" lon="10.1209442"><ele>40.0</ele><time>2026-04-25T14:12:41.797Z</time></trkpt><trkpt lat="34.3622107" lon="10.1208351"><ele>40.0</ele><time>2026-04-25T14:12:42.803Z</time></trkpt><trkpt lat="34.3620858" lon="10.120723"><ele>40.0</ele><time>2026-04-25T14:12:43.794Z</time></trkpt><trkpt lat="34.3619611" lon="10.1206123"><ele>40.0</ele><time>2026-04-25T14:12:44.806Z</time></trkpt><trkpt lat="34.3618382" lon="10.120494"><ele>40.0</ele><time>2026-04-25T14:12:45.8Z</time></trkpt><trkpt lat="34.3617147" lon="10.1203764"><ele>40.0</ele><time>2026-04-25T14:12:46.804Z</time></trkpt><trkpt lat="34.3615859" lon="10.1202585"><ele>40.0</ele><time>2026-04-25T14:12:47.794Z</time></trkpt><trkpt lat="34.361454" lon="10.1201395"><ele>40.0</ele><time>2026-04-25T14:12:48.792Z</time></trkpt><trkpt lat="34.3613225" lon="10.1200193"><ele>40.0</ele><time>2026-04-25T14:12:49.811Z</time></trkpt><trkpt lat="34.3611922" lon="10.1198943"><ele>40.0</ele><time>2026-04-25T14:12:50.803Z</time></trkpt><trkpt lat="34.3610614" lon="10.1197741"><ele>40.0</ele><time>2026-04-25T14:12:51.805Z</time></trkpt><trkpt lat="34.360925" lon="10.119649"><ele>40.0</ele><time>2026-04-25T14:12:52.803Z</time></trkpt><trkpt lat="34.3607838" lon="10.1195241"><ele>40.0</ele><time>2026-04-25T14:12:53.799Z</time></trkpt><trkpt lat="34.3606443" lon="10.1193989"><ele>40.0</ele><time>2026-04-25T14:12:54.8Z</time></trkpt><trkpt lat="34.3605042" lon="10.119268"><ele>40.0</ele><time>2026-04-25T14:12:55.81Z</time></trkpt><trkpt lat="34.3603613" lon="10.1191357"><ele>40.0</ele><time>2026-04-25T14:12:56.798Z</time></trkpt><trkpt lat="34.3602178" lon="10.1190039"><ele>40.0</ele><time>2026-04-25T14:12:57.796Z</time></trkpt><trkpt lat="34.3600772" lon="10.1188687"><ele>40.0</ele><time>2026-04-25T14:12:58.803Z</time></trkpt><trkpt lat="34.3599384" lon="10.1187369"><ele>40.0</ele><time>2026-04-25T14:12:59.801Z</time></trkpt><trkpt lat="34.3597944" lon="10.1186063"><ele>40.0</ele><time>2026-04-25T14:13:00.793Z</time></trkpt><trkpt lat="34.3596515" lon="10.1184783"><ele>40.0</ele><time>2026-04-25T14:13:01.798Z</time></trkpt><trkpt lat="34.3595063" lon="10.1183451"><ele>40.0</ele><time>2026-04-25T14:13:02.803Z</time></trkpt><trkpt lat="34.3593637" lon="10.1182143"><ele>40.333333333333336</ele><time>2026-04-25T14:13:03.8Z</time></trkpt><trkpt lat="34.3592162" lon="10.1180833"><ele>40.666666666666664</ele><time>2026-04-25T14:13:04.793Z</time></trkpt><trkpt lat="34.3590671" lon="10.1179501"><ele>41.0</ele><time>2026-04-25T14:13:05.787Z</time></trkpt><trkpt lat="34.358918" lon="10.1178141"><ele>41.0</ele><time>2026-04-25T14:13:06.792Z</time></trkpt><trkpt lat="34.3587724" lon="10.1176798"><ele>41.0</ele><time>2026-04-25T14:13:07.806Z</time></trkpt><trkpt lat="34.3586229" lon="10.1175439"><ele>41.0</ele><time>2026-04-25T14:13:08.812Z</time></trkpt><trkpt lat="34.3584792" lon="10.1174136"><ele>41.0</ele><time>2026-04-25T14:13:09.798Z</time></trkpt><trkpt lat="34.3583295" lon="10.1172779"><ele>41.0</ele><time>2026-04-25T14:13:10.793Z</time></trkpt><trkpt lat="34.3581794" lon="10.1171409"><ele>41.0</ele><time>2026-04-25T14:13:11.8Z</time></trkpt><trkpt lat="34.3580284" lon="10.1170058"><ele>41.0</ele><time>2026-04-25T14:13:12.784Z</time></trkpt><trkpt lat="34.3578789" lon="10.1168736"><ele>41.0</ele><time>2026-04-25T14:13:13.8Z</time></trkpt><trkpt lat="34.3577301" lon="10.1167413"><ele>41.0</ele><time>2026-04-25T14:13:14.79Z</time></trkpt><trkpt lat="34.3575855" lon="10.1166039"><ele>41.0</ele><time>2026-04-25T14:13:15.804Z</time></trkpt><trkpt lat="34.3574405" lon="10.1164671"><ele>41.0</ele><time>2026-04-25T14:13:16.792Z</time></trkpt><trkpt lat="34.3572917" lon="10.1163283"><ele>41.0</ele><time>2026-04-25T14:13:17.821Z</time></trkpt><trkpt lat="34.3571457" lon="10.1161924"><ele>41.33333333333333</ele><time>2026-04-25T14:13:18.793Z</time></trkpt><trkpt lat="34.3569984" lon="10.1160603"><ele>41.666666666666664</ele><time>2026-04-25T14:13:19.795Z</time></trkpt><trkpt lat="34.3568474" lon="10.1159274"><ele>42.0</ele><time>2026-04-25T14:13:20.793Z</time></trkpt><trkpt lat="34.3567032" lon="10.115795"><ele>42.0</ele><time>2026-04-25T14:13:21.791Z</time></trkpt><trkpt lat="34.356557" lon="10.115661"><ele>42.0</ele><time>2026-04-25T14:13:22.805Z</time></trkpt><trkpt lat="34.3564112" lon="10.1155265"><ele>42.0</ele><time>2026-04-25T14:13:23.789Z</time></trkpt><trkpt lat="34.3562589" lon="10.1153898"><ele>41.333333333333336</ele><time>2026-04-25T14:13:24.796Z</time></trkpt><trkpt lat="34.3561074" lon="10.1152492"><ele>40.66666666666667</ele><time>2026-04-25T14:13:25.798Z</time></trkpt><trkpt lat="34.3559545" lon="10.115112"><ele>40.0</ele><time>2026-04-25T14:13:26.801Z</time></trkpt><trkpt lat="34.3558" lon="10.1149708"><ele>40.333333333333336</ele><time>2026-04-25T14:13:27.791Z</time></trkpt><trkpt lat="34.3556473" lon="10.1148289"><ele>40.666666666666664</ele><time>2026-04-25T14:13:28.805Z</time></trkpt><trkpt lat="34.3554944" lon="10.1146882"><ele>41.0</ele><time>2026-04-25T14:13:29.784Z</time></trkpt><trkpt lat="34.35534" lon="10.1145457"><ele>41.0</ele><time>2026-04-25T14:13:30.803Z</time></trkpt><trkpt lat="34.3551866" lon="10.1144013"><ele>41.0</ele><time>2026-04-25T14:13:31.803Z</time></trkpt><trkpt lat="34.3550357" lon="10.1142625"><ele>41.0</ele><time>2026-04-25T14:13:32.792Z</time></trkpt><trkpt lat="34.3548834" lon="10.1141217"><ele>40.666666666666664</ele><time>2026-04-25T14:13:33.793Z</time></trkpt><trkpt lat="34.3547252" lon="10.113981"><ele>40.333333333333336</ele><time>2026-04-25T14:13:34.794Z</time></trkpt><trkpt lat="34.354569" lon="10.1138383"><ele>40.0</ele><time>2026-04-25T14:13:35.807Z</time></trkpt><trkpt lat="34.3544112" lon="10.1136967"><ele>40.0</ele><time>2026-04-25T14:13:36.785Z</time></trkpt><trkpt lat="34.3542515" lon="10.1135484"><ele>40.0</ele><time>2026-04-25T14:13:37.807Z</time></trkpt><trkpt lat="34.3540911" lon="10.1134036"><ele>40.0</ele><time>2026-04-25T14:13:38.789Z</time></trkpt><trkpt lat="34.3539322" lon="10.113263"><ele>40.0</ele><time>2026-04-25T14:13:39.788Z</time></trkpt><trkpt lat="34.3537715" lon="10.1131183"><ele>40.0</ele><time>2026-04-25T14:13:40.803Z</time></trkpt><trkpt lat="34.353617" lon="10.1129734"><ele>40.0</ele><time>2026-04-25T14:13:41.787Z</time></trkpt><trkpt lat="34.3534579" lon="10.1128274"><ele>40.0</ele><time>2026-04-25T14:13:42.801Z</time></trkpt><trkpt lat="34.3532985" lon="10.1126845"><ele>40.0</ele><time>2026-04-25T14:13:43.788Z</time></trkpt><trkpt lat="34.3531404" lon="10.1125396"><ele>40.0</ele><time>2026-04-25T14:13:44.822Z</time></trkpt><trkpt lat="34.3529806" lon="10.1123938"><ele>40.0</ele><time>2026-04-25T14:13:45.802Z</time></trkpt><trkpt lat="34.3528259" lon="10.1122424"><ele>40.0</ele><time>2026-04-25T14:13:46.803Z</time></trkpt><trkpt lat="34.3526668" lon="10.1121004"><ele>40.0</ele><time>2026-04-25T14:13:47.805Z</time></trkpt><trkpt lat="34.352513" lon="10.1119572"><ele>40.0</ele><time>2026-04-25T14:13:48.81Z</time></trkpt><trkpt lat="34.352357" lon="10.1118162"><ele>40.0</ele><time>2026-04-25T14:13:49.814Z</time></trkpt><trkpt lat="34.3522017" lon="10.1116798"><ele>40.0</ele><time>2026-04-25T14:13:50.815Z</time></trkpt><trkpt lat="34.3520471" lon="10.1115402"><ele>40.333333333333336</ele><time>2026-04-25T14:13:51.81Z</time></trkpt><trkpt lat="34.3518911" lon="10.1114002"><ele>40.666666666666664</ele><time>2026-04-25T14:13:52.809Z</time></trkpt><trkpt lat="34.3517336" lon="10.1112583"><ele>41.0</ele><time>2026-04-25T14:13:53.801Z</time></trkpt><trkpt lat="34.3515772" lon="10.111117"><ele>41.0</ele><time>2026-04-25T14:13:54.795Z</time></trkpt><trkpt lat="34.3514182" lon="10.1109747"><ele>41.0</ele><time>2026-04-25T14:13:55.796Z</time></trkpt><trkpt lat="34.3512605" lon="10.1108334"><ele>41.0</ele><time>2026-04-25T14:13:56.799Z</time></trkpt><trkpt lat="34.3511065" lon="10.1106916"><ele>41.0</ele><time>2026-04-25T14:13:57.799Z</time></trkpt><trkpt lat="34.3509521" lon="10.1105461"><ele>41.0</ele><time>2026-04-25T14:13:58.812Z</time></trkpt><trkpt lat="34.3508006" lon="10.1104071"><ele>41.0</ele><time>2026-04-25T14:13:59.795Z</time></trkpt><trkpt lat="34.3506515" lon="10.1102685"><ele>40.666666666666664</ele><time>2026-04-25T14:14:00.805Z</time></trkpt><trkpt lat="34.3505037" lon="10.1101315"><ele>40.333333333333336</ele><time>2026-04-25T14:14:01.797Z</time></trkpt><trkpt lat="34.3503564" lon="10.1099916"><ele>40.0</ele><time>2026-04-25T14:14:02.797Z</time></trkpt><trkpt lat="34.3502084" lon="10.1098551"><ele>40.0</ele><time>2026-04-25T14:14:03.793Z</time></trkpt><trkpt lat="34.3500615" lon="10.1097192"><ele>40.0</ele><time>2026-04-25T14:14:04.783Z</time></trkpt><trkpt lat="34.3499146" lon="10.1095842"><ele>40.0</ele><time>2026-04-25T14:14:05.822Z</time></trkpt><trkpt lat="34.349764" lon="10.1094496"><ele>40.0</ele><time>2026-04-25T14:14:06.789Z</time></trkpt><trkpt lat="34.3496145" lon="10.1093101"><ele>40.0</ele><time>2026-04-25T14:14:07.784Z</time></trkpt><trkpt lat="34.3494644" lon="10.1091745"><ele>40.0</ele><time>2026-04-25T14:14:08.797Z</time></trkpt><trkpt lat="34.3493166" lon="10.1090438"><ele>40.0</ele><time>2026-04-25T14:14:09.804Z</time></trkpt><trkpt lat="34.349167" lon="10.1089091"><ele>40.0</ele><time>2026-04-25T14:14:10.801Z</time></trkpt><trkpt lat="34.349018" lon="10.1087745"><ele>40.0</ele><time>2026-04-25T14:14:11.797Z</time></trkpt><trkpt lat="34.3488722" lon="10.1086279"><ele>40.0</ele><time>2026-04-25T14:14:12.802Z</time></trkpt><trkpt lat="34.3487252" lon="10.1084895"><ele>40.0</ele><time>2026-04-25T14:14:13.804Z</time></trkpt><trkpt lat="34.3485749" lon="10.1083531"><ele>40.0</ele><time>2026-04-25T14:14:14.81Z</time></trkpt><trkpt lat="34.348424" lon="10.1082142"><ele>39.66666666666667</ele><time>2026-04-25T14:14:15.796Z</time></trkpt><trkpt lat="34.348275" lon="10.1080796"><ele>39.333333333333336</ele><time>2026-04-25T14:14:16.794Z</time></trkpt><trkpt lat="34.3481303" lon="10.1079469"><ele>39.0</ele><time>2026-04-25T14:14:17.795Z</time></trkpt><trkpt lat="34.3479863" lon="10.1078176"><ele>39.666666666666664</ele><time>2026-04-25T14:14:18.795Z</time></trkpt><trkpt lat="34.3478457" lon="10.1076933"><ele>40.33333333333333</ele><time>2026-04-25T14:14:19.799Z</time></trkpt><trkpt lat="34.34771" lon="10.1075665"><ele>41.0</ele><time>2026-04-25T14:14:20.803Z</time></trkpt><trkpt lat="34.3475745" lon="10.1074408"><ele>41.0</ele><time>2026-04-25T14:14:21.798Z</time></trkpt><trkpt lat="34.3474358" lon="10.1073195"><ele>41.0</ele><time>2026-04-25T14:14:22.797Z</time></trkpt><trkpt lat="34.3472999" lon="10.1072005"><ele>41.0</ele><time>2026-04-25T14:14:23.81Z</time></trkpt><trkpt lat="34.3471668" lon="10.1070791"><ele>41.0</ele><time>2026-04-25T14:14:24.804Z</time></trkpt><trkpt lat="34.3470312" lon="10.1069543"><ele>41.0</ele><time>2026-04-25T14:14:25.795Z</time></trkpt><trkpt lat="34.3468934" lon="10.1068278"><ele>41.0</ele><time>2026-04-25T14:14:26.801Z</time></trkpt><trkpt lat="34.3467552" lon="10.1066995"><ele>41.0</ele><time>2026-04-25T14:14:27.793Z</time></trkpt><trkpt lat="34.3466182" lon="10.1065671"><ele>41.0</ele><time>2026-04-25T14:14:28.799Z</time></trkpt><trkpt lat="34.3464735" lon="10.1064406"><ele>41.0</ele><time>2026-04-25T14:14:29.799Z</time></trkpt><trkpt lat="34.3463229" lon="10.1063058"><ele>41.33333333333333</ele><time>2026-04-25T14:14:30.807Z</time></trkpt><trkpt lat="34.3461707" lon="10.1061678"><ele>41.666666666666664</ele><time>2026-04-25T14:14:31.79Z</time></trkpt><trkpt lat="34.3460182" lon="10.1060293"><ele>42.0</ele><time>2026-04-25T14:14:32.797Z</time></trkpt><trkpt lat="34.3458621" lon="10.1058901"><ele>42.0</ele><time>2026-04-25T14:14:33.805Z</time></trkpt><trkpt lat="34.3457067" lon="10.1057465"><ele>42.0</ele><time>2026-04-25T14:14:34.797Z</time></trkpt><trkpt lat="34.3455474" lon="10.1056021"><ele>42.0</ele><time>2026-04-25T14:14:35.796Z</time></trkpt><trkpt lat="34.3453887" lon="10.1054574"><ele>41.666666666666664</ele><time>2026-04-25T14:14:36.805Z</time></trkpt><trkpt lat="34.3452303" lon="10.105308"><ele>41.33333333333333</ele><time>2026-04-25T14:14:37.8Z</time></trkpt><trkpt lat="34.3450679" lon="10.1051598"><ele>41.0</ele><time>2026-04-25T14:14:38.806Z</time></trkpt><trkpt lat="34.3449074" lon="10.1050128"><ele>41.0</ele><time>2026-04-25T14:14:39.804Z</time></trkpt><trkpt lat="34.344746" lon="10.1048722"><ele>41.0</ele><time>2026-04-25T14:14:40.793Z</time></trkpt><trkpt lat="34.3445856" lon="10.1047273"><ele>41.0</ele><time>2026-04-25T14:14:41.796Z</time></trkpt><trkpt lat="34.344429" lon="10.1045838"><ele>41.0</ele><time>2026-04-25T14:14:42.799Z</time></trkpt><trkpt lat="34.3442764" lon="10.104436"><ele>41.0</ele><time>2026-04-25T14:14:43.795Z</time></trkpt><trkpt lat="34.3441197" lon="10.1042938"><ele>41.0</ele><time>2026-04-25T14:14:44.805Z</time></trkpt><trkpt lat="34.3439654" lon="10.1041542"><ele>40.666666666666664</ele><time>2026-04-25T14:14:45.786Z</time></trkpt><trkpt lat="34.343815" lon="10.104018"><ele>40.333333333333336</ele><time>2026-04-25T14:14:46.788Z</time></trkpt><trkpt lat="34.3436649" lon="10.1038785"><ele>40.0</ele><time>2026-04-25T14:14:47.791Z</time></trkpt><trkpt lat="34.3435146" lon="10.1037456"><ele>40.0</ele><time>2026-04-25T14:14:48.807Z</time></trkpt><trkpt lat="34.3433653" lon="10.1036101"><ele>40.0</ele><time>2026-04-25T14:14:49.803Z</time></trkpt><trkpt lat="34.3432159" lon="10.1034722"><ele>40.0</ele><time>2026-04-25T14:14:50.803Z</time></trkpt><trkpt lat="34.3430647" lon="10.1033349"><ele>40.66666666666667</ele><time>2026-04-25T14:14:51.793Z</time></trkpt><trkpt lat="34.3429155" lon="10.1031962"><ele>41.333333333333336</ele><time>2026-04-25T14:14:52.809Z</time></trkpt><trkpt lat="34.3427673" lon="10.1030607"><ele>42.0</ele><time>2026-04-25T14:14:53.793Z</time></trkpt><trkpt lat="34.3426171" lon="10.1029258"><ele>42.0</ele><time>2026-04-25T14:14:54.794Z</time></trkpt><trkpt lat="34.3424692" lon="10.1027917"><ele>42.0</ele><time>2026-04-25T14:14:55.799Z</time></trkpt><trkpt lat="34.3423216" lon="10.1026516"><ele>42.0</ele><time>2026-04-25T14:14:56.797Z</time></trkpt><trkpt lat="34.3421738" lon="10.1025147"><ele>41.333333333333336</ele><time>2026-04-25T14:14:57.81Z</time></trkpt><trkpt lat="34.3420287" lon="10.1023811"><ele>40.66666666666667</ele><time>2026-04-25T14:14:58.8Z</time></trkpt><trkpt lat="34.3418795" lon="10.1022438"><ele>40.0</ele><time>2026-04-25T14:14:59.791Z</time></trkpt><trkpt lat="34.3417293" lon="10.1021068"><ele>40.0</ele><time>2026-04-25T14:15:00.799Z</time></trkpt><trkpt lat="34.3415802" lon="10.1019714"><ele>40.0</ele><time>2026-04-25T14:15:01.8Z</time></trkpt><trkpt lat="34.3414353" lon="10.1018391"><ele>40.0</ele><time>2026-04-25T14:15:02.805Z</time></trkpt><trkpt lat="34.3412896" lon="10.1017039"><ele>40.0</ele><time>2026-04-25T14:15:03.803Z</time></trkpt><trkpt lat="34.3411416" lon="10.1015688"><ele>40.0</ele><time>2026-04-25T14:15:04.799Z</time></trkpt><trkpt lat="34.3409937" lon="10.1014349"><ele>40.0</ele><time>2026-04-25T14:15:05.816Z</time></trkpt><trkpt lat="34.3408468" lon="10.1013053"><ele>40.0</ele><time>2026-04-25T14:15:06.789Z</time></trkpt><trkpt lat="34.3407013" lon="10.1011722"><ele>40.0</ele><time>2026-04-25T14:15:07.792Z</time></trkpt><trkpt lat="34.3405533" lon="10.1010396"><ele>40.0</ele><time>2026-04-25T14:15:08.807Z</time></trkpt><trkpt lat="34.3404074" lon="10.1009046"><ele>40.0</ele><time>2026-04-25T14:15:09.799Z</time></trkpt><trkpt lat="34.3402594" lon="10.1007732"><ele>40.0</ele><time>2026-04-25T14:15:10.797Z</time></trkpt><trkpt lat="34.3401114" lon="10.1006318"><ele>40.0</ele><time>2026-04-25T14:15:11.794Z</time></trkpt><trkpt lat="34.3399642" lon="10.100495"><ele>40.333333333333336</ele><time>2026-04-25T14:15:12.799Z</time></trkpt><trkpt lat="34.3398142" lon="10.1003556"><ele>40.666666666666664</ele><time>2026-04-25T14:15:13.81Z</time></trkpt><trkpt lat="34.3396642" lon="10.1002175"><ele>41.0</ele><time>2026-04-25T14:15:14.796Z</time></trkpt><trkpt lat="34.3395158" lon="10.1000801"><ele>41.0</ele><time>2026-04-25T14:15:15.803Z</time></trkpt><trkpt lat="34.3393641" lon="10.099945"><ele>41.0</ele><time>2026-04-25T14:15:16.795Z</time></trkpt><trkpt lat="34.3392155" lon="10.0998102"><ele>41.0</ele><time>2026-04-25T14:15:17.799Z</time></trkpt><trkpt lat="34.3390629" lon="10.0996741"><ele>41.33333333333333</ele><time>2026-04-25T14:15:18.787Z</time></trkpt><trkpt lat="34.3389124" lon="10.0995418"><ele>41.666666666666664</ele><time>2026-04-25T14:15:19.791Z</time></trkpt><trkpt lat="34.3387652" lon="10.0994048"><ele>42.0</ele><time>2026-04-25T14:15:20.807Z</time></trkpt><trkpt lat="34.3386132" lon="10.0992701"><ele>42.0</ele><time>2026-04-25T14:15:21.796Z</time></trkpt><trkpt lat="34.3384645" lon="10.0991333"><ele>42.0</ele><time>2026-04-25T14:15:22.799Z</time></trkpt><trkpt lat="34.3383179" lon="10.0989986"><ele>42.0</ele><time>2026-04-25T14:15:23.807Z</time></trkpt><trkpt lat="34.3381733" lon="10.0988609"><ele>42.0</ele><time>2026-04-25T14:15:24.803Z</time></trkpt><trkpt lat="34.3380237" lon="10.0987263"><ele>42.0</ele><time>2026-04-25T14:15:25.801Z</time></trkpt><trkpt lat="34.3378752" lon="10.0985912"><ele>42.0</ele><time>2026-04-25T14:15:26.792Z</time></trkpt><trkpt lat="34.3377284" lon="10.0984565"><ele>42.0</ele><time>2026-04-25T14:15:27.799Z</time></trkpt><trkpt lat="34.3375818" lon="10.0983245"><ele>42.0</ele><time>2026-04-25T14:15:28.8Z</time></trkpt><trkpt lat="34.3374352" lon="10.098188"><ele>42.0</ele><time>2026-04-25T14:15:29.799Z</time></trkpt><trkpt lat="34.3372918" lon="10.0980525"><ele>41.666666666666664</ele><time>2026-04-25T14:15:30.798Z</time></trkpt><trkpt lat="34.3371437" lon="10.0979186"><ele>41.33333333333333</ele><time>2026-04-25T14:15:31.787Z</time></trkpt><trkpt lat="34.3369877" lon="10.0977779"><ele>41.0</ele><time>2026-04-25T14:15:32.793Z</time></trkpt><trkpt lat="34.3368277" lon="10.0976326"><ele>41.0</ele><time>2026-04-25T14:15:33.782Z</time></trkpt><trkpt lat="34.3366661" lon="10.0974899"><ele>41.0</ele><time>2026-04-25T14:15:34.802Z</time></trkpt><trkpt lat="34.3365081" lon="10.0973453"><ele>41.0</ele><time>2026-04-25T14:15:35.812Z</time></trkpt><trkpt lat="34.3363493" lon="10.0971988"><ele>41.0</ele><time>2026-04-25T14:15:36.797Z</time></trkpt><trkpt lat="34.3361907" lon="10.0970504"><ele>41.0</ele><time>2026-04-25T14:15:37.789Z</time></trkpt><trkpt lat="34.3360317" lon="10.0969037"><ele>41.0</ele><time>2026-04-25T14:15:38.789Z</time></trkpt><trkpt lat="34.3358714" lon="10.0967535"><ele>41.0</ele><time>2026-04-25T14:15:39.796Z</time></trkpt><trkpt lat="34.335711" lon="10.0966027"><ele>41.0</ele><time>2026-04-25T14:15:40.796Z</time></trkpt><trkpt lat="34.3355523" lon="10.0964494"><ele>41.0</ele><time>2026-04-25T14:15:41.813Z</time></trkpt><trkpt lat="34.3353968" lon="10.096303"><ele>41.33333333333333</ele><time>2026-04-25T14:15:42.792Z</time></trkpt><trkpt lat="34.3352412" lon="10.096159"><ele>41.666666666666664</ele><time>2026-04-25T14:15:43.795Z</time></trkpt><trkpt lat="34.3350888" lon="10.0960138"><ele>42.0</ele><time>2026-04-25T14:15:44.805Z</time></trkpt><trkpt lat="34.3349345" lon="10.0958732"><ele>42.0</ele><time>2026-04-25T14:15:45.79Z</time></trkpt><trkpt lat="34.3347812" lon="10.0957375"><ele>42.0</ele><time>2026-04-25T14:15:46.795Z</time></trkpt><trkpt lat="34.334628" lon="10.0955989"><ele>42.0</ele><time>2026-04-25T14:15:47.8Z</time></trkpt><trkpt lat="34.3344723" lon="10.0954602"><ele>41.666666666666664</ele><time>2026-04-25T14:15:48.792Z</time></trkpt><trkpt lat="34.3343155" lon="10.0953249"><ele>41.33333333333333</ele><time>2026-04-25T14:15:49.8Z</time></trkpt><trkpt lat="34.3341617" lon="10.0951768"><ele>41.0</ele><time>2026-04-25T14:15:50.796Z</time></trkpt><trkpt lat="34.3340084" lon="10.0950349"><ele>41.33333333333333</ele><time>2026-04-25T14:15:51.796Z</time></trkpt><trkpt lat="34.3338535" lon="10.0948931"><ele>41.666666666666664</ele><time>2026-04-25T14:15:52.802Z</time></trkpt><trkpt lat="34.3336976" lon="10.0947546"><ele>42.0</ele><time>2026-04-25T14:15:53.803Z</time></trkpt><trkpt lat="34.3335445" lon="10.0946158"><ele>42.0</ele><time>2026-04-25T14:15:54.795Z</time></trkpt><trkpt lat="34.3333917" lon="10.094479"><ele>42.0</ele><time>2026-04-25T14:15:55.799Z</time></trkpt><trkpt lat="34.3332382" lon="10.0943399"><ele>42.0</ele><time>2026-04-25T14:15:56.793Z</time></trkpt><trkpt lat="34.3330824" lon="10.0942016"><ele>41.666666666666664</ele><time>2026-04-25T14:15:57.807Z</time></trkpt><trkpt lat="34.3329244" lon="10.09406"><ele>41.33333333333333</ele><time>2026-04-25T14:15:58.794Z</time></trkpt><trkpt lat="34.3327668" lon="10.0939146"><ele>41.0</ele><time>2026-04-25T14:15:59.804Z</time></trkpt><trkpt lat="34.33261" lon="10.0937755"><ele>41.0</ele><time>2026-04-25T14:16:00.798Z</time></trkpt><trkpt lat="34.3324555" lon="10.0936374"><ele>41.0</ele><time>2026-04-25T14:16:01.8Z</time></trkpt><trkpt lat="34.3323034" lon="10.0934954"><ele>41.0</ele><time>2026-04-25T14:16:02.792Z</time></trkpt><trkpt lat="34.332156" lon="10.0933585"><ele>41.33333333333333</ele><time>2026-04-25T14:16:03.798Z</time></trkpt><trkpt lat="34.3320024" lon="10.0932197"><ele>41.666666666666664</ele><time>2026-04-25T14:16:04.799Z</time></trkpt><trkpt lat="34.3318508" lon="10.0930825"><ele>42.0</ele><time>2026-04-25T14:16:05.803Z</time></trkpt><trkpt lat="34.3317029" lon="10.0929464"><ele>42.0</ele><time>2026-04-25T14:16:06.798Z</time></trkpt><trkpt lat="34.3315522" lon="10.0928097"><ele>42.0</ele><time>2026-04-25T14:16:07.809Z</time></trkpt><trkpt lat="34.3314" lon="10.092672"><ele>42.0</ele><time>2026-04-25T14:16:08.801Z</time></trkpt><trkpt lat="34.331248" lon="10.0925343"><ele>41.666666666666664</ele><time>2026-04-25T14:16:09.803Z</time></trkpt><trkpt lat="34.331092" lon="10.0923938"><ele>41.33333333333333</ele><time>2026-04-25T14:16:10.802Z</time></trkpt><trkpt lat="34.3309342" lon="10.0922505"><ele>41.0</ele><time>2026-04-25T14:16:11.788Z</time></trkpt><trkpt lat="34.3307788" lon="10.0921056"><ele>41.0</ele><time>2026-04-25T14:16:12.805Z</time></trkpt><trkpt lat="34.3306214" lon="10.0919565"><ele>41.0</ele><time>2026-04-25T14:16:13.803Z</time></trkpt><trkpt lat="34.3304618" lon="10.0918115"><ele>41.0</ele><time>2026-04-25T14:16:14.795Z</time></trkpt><trkpt lat="34.3303011" lon="10.0916658"><ele>40.666666666666664</ele><time>2026-04-25T14:16:15.791Z</time></trkpt><trkpt lat="34.3301384" lon="10.0915183"><ele>40.333333333333336</ele><time>2026-04-25T14:16:16.799Z</time></trkpt><trkpt lat="34.3299753" lon="10.0913687"><ele>40.0</ele><time>2026-04-25T14:16:17.79Z</time></trkpt><trkpt lat="34.3298107" lon="10.0912194"><ele>40.333333333333336</ele><time>2026-04-25T14:16:18.804Z</time></trkpt><trkpt lat="34.3296458" lon="10.0910704"><ele>40.666666666666664</ele><time>2026-04-25T14:16:19.797Z</time></trkpt><trkpt lat="34.3294804" lon="10.0909198"><ele>41.0</ele><time>2026-04-25T14:16:20.804Z</time></trkpt><trkpt lat="34.3293154" lon="10.090769"><ele>40.666666666666664</ele><time>2026-04-25T14:16:21.805Z</time></trkpt><trkpt lat="34.3291499" lon="10.090622"><ele>40.333333333333336</ele><time>2026-04-25T14:16:22.801Z</time></trkpt><trkpt lat="34.328984" lon="10.0904706"><ele>40.0</ele><time>2026-04-25T14:16:23.793Z</time></trkpt><trkpt lat="34.3288197" lon="10.0903189"><ele>40.333333333333336</ele><time>2026-04-25T14:16:24.799Z</time></trkpt><trkpt lat="34.3286536" lon="10.0901695"><ele>40.666666666666664</ele><time>2026-04-25T14:16:25.805Z</time></trkpt><trkpt lat="34.328487" lon="10.0900168"><ele>41.0</ele><time>2026-04-25T14:16:26.801Z</time></trkpt><trkpt lat="34.328318" lon="10.089864"><ele>41.0</ele><time>2026-04-25T14:16:27.816Z</time></trkpt><trkpt lat="34.328152" lon="10.0897061"><ele>41.0</ele><time>2026-04-25T14:16:28.804Z</time></trkpt><trkpt lat="34.3279867" lon="10.089554"><ele>41.0</ele><time>2026-04-25T14:16:29.803Z</time></trkpt><trkpt lat="34.3278246" lon="10.0894045"><ele>40.666666666666664</ele><time>2026-04-25T14:16:30.806Z</time></trkpt><trkpt lat="34.3276586" lon="10.0892501"><ele>40.333333333333336</ele><time>2026-04-25T14:16:31.808Z</time></trkpt><trkpt lat="34.3274968" lon="10.0891009"><ele>40.0</ele><time>2026-04-25T14:16:32.803Z</time></trkpt><trkpt lat="34.3273347" lon="10.0889503"><ele>40.66666666666667</ele><time>2026-04-25T14:16:33.804Z</time></trkpt><trkpt lat="34.3271708" lon="10.0887979"><ele>41.333333333333336</ele><time>2026-04-25T14:16:34.802Z</time></trkpt><trkpt lat="34.3270037" lon="10.0886478"><ele>42.0</ele><time>2026-04-25T14:16:35.809Z</time></trkpt><trkpt lat="34.326839" lon="10.0884977"><ele>42.0</ele><time>2026-04-25T14:16:36.804Z</time></trkpt><trkpt lat="34.3266685" lon="10.0883482"><ele>42.0</ele><time>2026-04-25T14:16:37.795Z</time></trkpt><trkpt lat="34.3264953" lon="10.0881948"><ele>42.0</ele><time>2026-04-25T14:16:38.798Z</time></trkpt><trkpt lat="34.326321" lon="10.0880447"><ele>42.333333333333336</ele><time>2026-04-25T14:16:39.794Z</time></trkpt><trkpt lat="34.326146" lon="10.0878926"><ele>42.66666666666667</ele><time>2026-04-25T14:16:40.805Z</time></trkpt><trkpt lat="34.325972" lon="10.0877356"><ele>43.0</ele><time>2026-04-25T14:16:41.798Z</time></trkpt><trkpt lat="34.3257952" lon="10.0875781"><ele>42.333333333333336</ele><time>2026-04-25T14:16:42.818Z</time></trkpt><trkpt lat="34.3256234" lon="10.0874219"><ele>41.666666666666664</ele><time>2026-04-25T14:16:43.795Z</time></trkpt><trkpt lat="34.3254539" lon="10.087265"><ele>41.0</ele><time>2026-04-25T14:16:44.801Z</time></trkpt><trkpt lat="34.3252859" lon="10.0871029"><ele>40.666666666666664</ele><time>2026-04-25T14:16:45.794Z</time></trkpt><trkpt lat="34.3251221" lon="10.0869452"><ele>40.333333333333336</ele><time>2026-04-25T14:16:46.789Z</time></trkpt><trkpt lat="34.3249525" lon="10.0867891"><ele>40.0</ele><time>2026-04-25T14:16:47.803Z</time></trkpt><trkpt lat="34.3247844" lon="10.0866341"><ele>40.333333333333336</ele><time>2026-04-25T14:16:48.797Z</time></trkpt><trkpt lat="34.3246144" lon="10.0864768"><ele>40.666666666666664</ele><time>2026-04-25T14:16:49.796Z</time></trkpt><trkpt lat="34.324447" lon="10.086325"><ele>41.0</ele><time>2026-04-25T14:16:50.793Z</time></trkpt><trkpt lat="34.324277" lon="10.0861738"><ele>41.0</ele><time>2026-04-25T14:16:51.788Z</time></trkpt><trkpt lat="34.3241089" lon="10.0860165"><ele>41.0</ele><time>2026-04-25T14:16:52.795Z</time></trkpt><trkpt lat="34.3239395" lon="10.0858621"><ele>41.0</ele><time>2026-04-25T14:16:53.809Z</time></trkpt><trkpt lat="34.3237703" lon="10.0857113"><ele>41.0</ele><time>2026-04-25T14:16:54.791Z</time></trkpt><trkpt lat="34.3236049" lon="10.0855608"><ele>41.0</ele><time>2026-04-25T14:16:55.8Z</time></trkpt><trkpt lat="34.3234389" lon="10.0854096"><ele>41.0</ele><time>2026-04-25T14:16:56.799Z</time></trkpt><trkpt lat="34.3232708" lon="10.085256"><ele>41.0</ele><time>2026-04-25T14:16:57.799Z</time></trkpt><trkpt lat="34.3231069" lon="10.085102"><ele>41.0</ele><time>2026-04-25T14:16:58.804Z</time></trkpt><trkpt lat="34.3229418" lon="10.0849472"><ele>41.0</ele><time>2026-04-25T14:16:59.792Z</time></trkpt><trkpt lat="34.3227738" lon="10.0847972"><ele>40.666666666666664</ele><time>2026-04-25T14:17:00.801Z</time></trkpt><trkpt lat="34.3226038" lon="10.0846433"><ele>40.333333333333336</ele><time>2026-04-25T14:17:01.798Z</time></trkpt><trkpt lat="34.3224316" lon="10.0844824"><ele>40.0</ele><time>2026-04-25T14:17:02.803Z</time></trkpt><trkpt lat="34.3222632" lon="10.0843247"><ele>39.333333333333336</ele><time>2026-04-25T14:17:03.795Z</time></trkpt><trkpt lat="34.3220914" lon="10.0841701"><ele>38.666666666666664</ele><time>2026-04-25T14:17:04.8Z</time></trkpt><trkpt lat="34.3219213" lon="10.0840094"><ele>38.0</ele><time>2026-04-25T14:17:05.799Z</time></trkpt><trkpt lat="34.3217505" lon="10.0838515"><ele>38.0</ele><time>2026-04-25T14:17:06.805Z</time></trkpt><trkpt lat="34.321579" lon="10.0836949"><ele>38.0</ele><time>2026-04-25T14:17:07.801Z</time></trkpt><trkpt lat="34.3214055" lon="10.0835376"><ele>38.0</ele><time>2026-04-25T14:17:08.799Z</time></trkpt><trkpt lat="34.3212327" lon="10.0833819"><ele>38.33333333333333</ele><time>2026-04-25T14:17:09.792Z</time></trkpt><trkpt lat="34.3210602" lon="10.0832249"><ele>38.666666666666664</ele><time>2026-04-25T14:17:10.796Z</time></trkpt><trkpt lat="34.320887" lon="10.0830732"><ele>39.0</ele><time>2026-04-25T14:17:11.804Z</time></trkpt><trkpt lat="34.3207097" lon="10.0829336"><ele>38.0</ele><time>2026-04-25T14:17:12.81Z</time></trkpt><trkpt lat="34.3205256" lon="10.0828034"><ele>37.0</ele><time>2026-04-25T14:17:13.802Z</time></trkpt><trkpt lat="34.320337" lon="10.0826775"><ele>36.0</ele><time>2026-04-25T14:17:14.799Z</time></trkpt><trkpt lat="34.3201483" lon="10.0825535"><ele>36.0</ele><time>2026-04-25T14:17:15.797Z</time></trkpt><trkpt lat="34.3199601" lon="10.0824363"><ele>36.0</ele><time>2026-04-25T14:17:16.805Z</time></trkpt><trkpt lat="34.3197687" lon="10.0823219"><ele>36.0</ele><time>2026-04-25T14:17:17.8Z</time></trkpt><trkpt lat="34.3195796" lon="10.0822041"><ele>36.666666666666664</ele><time>2026-04-25T14:17:18.799Z</time></trkpt><trkpt lat="34.3193912" lon="10.0820877"><ele>37.33333333333333</ele><time>2026-04-25T14:17:19.792Z</time></trkpt><trkpt lat="34.3191978" lon="10.0819699"><ele>38.0</ele><time>2026-04-25T14:17:20.805Z</time></trkpt><trkpt lat="34.3190054" lon="10.0818522"><ele>37.666666666666664</ele><time>2026-04-25T14:17:21.806Z</time></trkpt><trkpt lat="34.3188159" lon="10.0817335"><ele>37.333333333333336</ele><time>2026-04-25T14:17:22.8Z</time></trkpt><trkpt lat="34.3186276" lon="10.0816144"><ele>37.0</ele><time>2026-04-25T14:17:23.807Z</time></trkpt><trkpt lat="34.318437" lon="10.0814939"><ele>36.333333333333336</ele><time>2026-04-25T14:17:24.811Z</time></trkpt><trkpt lat="34.3182398" lon="10.0813716"><ele>35.666666666666664</ele><time>2026-04-25T14:17:25.794Z</time></trkpt><trkpt lat="34.3180421" lon="10.0812539"><ele>35.0</ele><time>2026-04-25T14:17:26.805Z</time></trkpt><trkpt lat="34.3178432" lon="10.0811295"><ele>34.5</ele><time>2026-04-25T14:17:27.799Z</time></trkpt><trkpt lat="34.3176442" lon="10.0809973"><ele>34.0</ele><time>2026-04-25T14:17:28.813Z</time></trkpt><trkpt lat="34.3174436" lon="10.0808657"><ele>34.5</ele><time>2026-04-25T14:17:29.805Z</time></trkpt><trkpt lat="34.3172422" lon="10.0807382"><ele>35.0</ele><time>2026-04-25T14:17:30.813Z</time></trkpt><trkpt lat="34.3170444" lon="10.0806115"><ele>35.0</ele><time>2026-04-25T14:17:31.796Z</time></trkpt><trkpt lat="34.3168521" lon="10.0804943"><ele>35.0</ele><time>2026-04-25T14:17:32.8Z</time></trkpt><trkpt lat="34.3166605" lon="10.0803803"><ele>35.0</ele><time>2026-04-25T14:17:33.805Z</time></trkpt><trkpt lat="34.3164692" lon="10.0802677"><ele>35.666666666666664</ele><time>2026-04-25T14:17:34.795Z</time></trkpt><trkpt lat="34.3162763" lon="10.0801503"><ele>36.333333333333336</ele><time>2026-04-25T14:17:35.803Z</time></trkpt><trkpt lat="34.3160862" lon="10.0800342"><ele>37.0</ele><time>2026-04-25T14:17:36.793Z</time></trkpt><trkpt lat="34.3158932" lon="10.0799182"><ele>37.0</ele><time>2026-04-25T14:17:37.797Z</time></trkpt><trkpt lat="34.315698" lon="10.0797996"><ele>37.0</ele><time>2026-04-25T14:17:38.802Z</time></trkpt><trkpt lat="34.3155045" lon="10.0796791"><ele>37.0</ele><time>2026-04-25T14:17:39.796Z</time></trkpt><trkpt lat="34.3153105" lon="10.0795585"><ele>36.66666666666667</ele><time>2026-04-25T14:17:40.805Z</time></trkpt><trkpt lat="34.315118" lon="10.0794355"><ele>36.333333333333336</ele><time>2026-04-25T14:17:41.8Z</time></trkpt><trkpt lat="34.314922" lon="10.0793118"><ele>36.0</ele><time>2026-04-25T14:17:42.822Z</time></trkpt><trkpt lat="34.3147254" lon="10.0791916"><ele>35.666666666666664</ele><time>2026-04-25T14:17:43.802Z</time></trkpt><trkpt lat="34.3145276" lon="10.0790693"><ele>35.33333333333333</ele><time>2026-04-25T14:17:44.807Z</time></trkpt><trkpt lat="34.3143328" lon="10.0789474"><ele>35.0</ele><time>2026-04-25T14:17:45.791Z</time></trkpt><trkpt lat="34.3141388" lon="10.0788227"><ele>35.0</ele><time>2026-04-25T14:17:46.789Z</time></trkpt><trkpt lat="34.313943" lon="10.0787004"><ele>35.0</ele><time>2026-04-25T14:17:47.796Z</time></trkpt><trkpt lat="34.3137517" lon="10.0785756"><ele>35.0</ele><time>2026-04-25T14:17:48.797Z</time></trkpt><trkpt lat="34.3135641" lon="10.0784581"><ele>35.0</ele><time>2026-04-25T14:17:49.804Z</time></trkpt><trkpt lat="34.3133747" lon="10.0783419"><ele>35.0</ele><time>2026-04-25T14:17:50.774Z</time></trkpt><trkpt lat="34.3131833" lon="10.0782255"><ele>35.0</ele><time>2026-04-25T14:17:51.794Z</time></trkpt><trkpt lat="34.3129928" lon="10.0781067"><ele>35.33333333333333</ele><time>2026-04-25T14:17:52.796Z</time></trkpt><trkpt lat="34.3127995" lon="10.0779899"><ele>35.666666666666664</ele><time>2026-04-25T14:17:53.789Z</time></trkpt><trkpt lat="34.3126102" lon="10.0778718"><ele>36.0</ele><time>2026-04-25T14:17:54.79Z</time></trkpt><trkpt lat="34.3124225" lon="10.0777499"><ele>36.0</ele><time>2026-04-25T14:17:55.79Z</time></trkpt><trkpt lat="34.312231" lon="10.0776296"><ele>36.0</ele><time>2026-04-25T14:17:56.807Z</time></trkpt><trkpt lat="34.3120432" lon="10.0775161"><ele>36.0</ele><time>2026-04-25T14:17:57.785Z</time></trkpt><trkpt lat="34.3118506" lon="10.0773987"><ele>36.0</ele><time>2026-04-25T14:17:58.796Z</time></trkpt><trkpt lat="34.3116611" lon="10.0772842"><ele>36.0</ele><time>2026-04-25T14:17:59.795Z</time></trkpt><trkpt lat="34.3114748" lon="10.0771637"><ele>36.0</ele><time>2026-04-25T14:18:00.801Z</time></trkpt><trkpt lat="34.3112834" lon="10.0770428"><ele>36.0</ele><time>2026-04-25T14:18:01.799Z</time></trkpt><trkpt lat="34.3110929" lon="10.0769206"><ele>36.0</ele><time>2026-04-25T14:18:02.8Z</time></trkpt><trkpt lat="34.3109005" lon="10.0767998"><ele>36.0</ele><time>2026-04-25T14:18:03.803Z</time></trkpt><trkpt lat="34.3107067" lon="10.0766843"><ele>36.0</ele><time>2026-04-25T14:18:04.797Z</time></trkpt><trkpt lat="34.3105148" lon="10.0765672"><ele>36.0</ele><time>2026-04-25T14:18:05.808Z</time></trkpt><trkpt lat="34.3103232" lon="10.0764475"><ele>36.0</ele><time>2026-04-25T14:18:06.815Z</time></trkpt><trkpt lat="34.3101346" lon="10.0763263"><ele>36.0</ele><time>2026-04-25T14:18:07.794Z</time></trkpt><trkpt lat="34.3099439" lon="10.0762074"><ele>36.0</ele><time>2026-04-25T14:18:08.787Z</time></trkpt><trkpt lat="34.3097538" lon="10.0760931"><ele>36.0</ele><time>2026-04-25T14:18:09.813Z</time></trkpt><trkpt lat="34.3095633" lon="10.0759738"><ele>36.0</ele><time>2026-04-25T14:18:10.79Z</time></trkpt><trkpt lat="34.3093736" lon="10.0758534"><ele>36.0</ele><time>2026-04-25T14:18:11.808Z</time></trkpt><trkpt lat="34.3091817" lon="10.0757343"><ele>36.0</ele><time>2026-04-25T14:18:12.806Z</time></trkpt><trkpt lat="34.3089895" lon="10.0756146"><ele>35.666666666666664</ele><time>2026-04-25T14:18:13.795Z</time></trkpt><trkpt lat="34.3087999" lon="10.0754957"><ele>35.33333333333333</ele><time>2026-04-25T14:18:14.787Z</time></trkpt><trkpt lat="34.3086115" lon="10.0753749"><ele>35.0</ele><time>2026-04-25T14:18:15.799Z</time></trkpt><trkpt lat="34.3084241" lon="10.0752555"><ele>35.0</ele><time>2026-04-25T14:18:16.794Z</time></trkpt><trkpt lat="34.3082296" lon="10.0751388"><ele>35.0</ele><time>2026-04-25T14:18:17.797Z</time></trkpt><trkpt lat="34.3080389" lon="10.0750222"><ele>35.0</ele><time>2026-04-25T14:18:18.814Z</time></trkpt><trkpt lat="34.3078524" lon="10.0749043"><ele>34.666666666666664</ele><time>2026-04-25T14:18:19.813Z</time></trkpt><trkpt lat="34.3076617" lon="10.0747816"><ele>34.333333333333336</ele><time>2026-04-25T14:18:20.8Z</time></trkpt><trkpt lat="34.3074722" lon="10.0746574"><ele>34.0</ele><time>2026-04-25T14:18:21.798Z</time></trkpt><trkpt lat="34.3072831" lon="10.0745377"><ele>34.333333333333336</ele><time>2026-04-25T14:18:22.798Z</time></trkpt><trkpt lat="34.3070995" lon="10.0744186"><ele>34.666666666666664</ele><time>2026-04-25T14:18:23.805Z</time></trkpt><trkpt lat="34.3069208" lon="10.0743062"><ele>35.0</ele><time>2026-04-25T14:18:24.811Z</time></trkpt><trkpt lat="34.3067535" lon="10.074201"><ele>35.0</ele><time>2026-04-25T14:18:25.798Z</time></trkpt><trkpt lat="34.3065934" lon="10.0741067"><ele>35.0</ele><time>2026-04-25T14:18:26.788Z</time></trkpt><trkpt lat="34.3064406" lon="10.0740158"><ele>35.0</ele><time>2026-04-25T14:18:27.81Z</time></trkpt><trkpt lat="34.3062956" lon="10.0739303"><ele>34.75</ele><time>2026-04-25T14:18:28.802Z</time></trkpt><trkpt lat="34.3061621" lon="10.0738496"><ele>34.5</ele><time>2026-04-25T14:18:29.788Z</time></trkpt><trkpt lat="34.3060336" lon="10.0737628"><ele>34.25</ele><time>2026-04-25T14:18:30.803Z</time></trkpt><trkpt lat="34.3058987" lon="10.0736801"><ele>34.0</ele><time>2026-04-25T14:18:31.796Z</time></trkpt><trkpt lat="34.3057607" lon="10.0735937"><ele>34.0</ele><time>2026-04-25T14:18:32.79Z</time></trkpt><trkpt lat="34.305623" lon="10.0735084"><ele>34.0</ele><time>2026-04-25T14:18:33.806Z</time></trkpt><trkpt lat="34.3054867" lon="10.0734225"><ele>34.0</ele><time>2026-04-25T14:18:34.816Z</time></trkpt><trkpt lat="34.3053468" lon="10.073336"><ele>34.0</ele><time>2026-04-25T14:18:35.807Z</time></trkpt><trkpt lat="34.305208" lon="10.0732535"><ele>34.0</ele><time>2026-04-25T14:18:36.803Z</time></trkpt><trkpt lat="34.3050667" lon="10.0731645"><ele>34.0</ele><time>2026-04-25T14:18:37.8Z</time></trkpt><trkpt lat="34.3049265" lon="10.0730712"><ele>34.0</ele><time>2026-04-25T14:18:38.797Z</time></trkpt><trkpt lat="34.304787" lon="10.0729789"><ele>34.0</ele><time>2026-04-25T14:18:39.803Z</time></trkpt><trkpt lat="34.3046406" lon="10.0728865"><ele>34.0</ele><time>2026-04-25T14:18:40.816Z</time></trkpt><trkpt lat="34.3044956" lon="10.0727942"><ele>34.0</ele><time>2026-04-25T14:18:41.793Z</time></trkpt><trkpt lat="34.3043505" lon="10.0727065"><ele>34.0</ele><time>2026-04-25T14:18:42.826Z</time></trkpt><trkpt lat="34.3042047" lon="10.0726173"><ele>34.0</ele><time>2026-04-25T14:18:43.789Z</time></trkpt><trkpt lat="34.3040614" lon="10.0725229"><ele>34.333333333333336</ele><time>2026-04-25T14:18:44.801Z</time></trkpt><trkpt lat="34.3039128" lon="10.072428"><ele>34.666666666666664</ele><time>2026-04-25T14:18:45.813Z</time></trkpt><trkpt lat="34.3037655" lon="10.0723375"><ele>35.0</ele><time>2026-04-25T14:18:46.801Z</time></trkpt><trkpt lat="34.3036203" lon="10.0722493"><ele>35.0</ele><time>2026-04-25T14:18:47.803Z</time></trkpt><trkpt lat="34.3034799" lon="10.0721633"><ele>35.0</ele><time>2026-04-25T14:18:48.801Z</time></trkpt><trkpt lat="34.3033446" lon="10.0720767"><ele>35.0</ele><time>2026-04-25T14:18:49.805Z</time></trkpt><trkpt lat="34.3032153" lon="10.0719937"><ele>35.0</ele><time>2026-04-25T14:18:50.828Z</time></trkpt><trkpt lat="34.3030888" lon="10.0719166"><ele>35.0</ele><time>2026-04-25T14:18:51.8Z</time></trkpt><trkpt lat="34.3029697" lon="10.0718406"><ele>35.0</ele><time>2026-04-25T14:18:52.828Z</time></trkpt><trkpt lat="34.3028581" lon="10.0717701"><ele>35.0</ele><time>2026-04-25T14:18:53.803Z</time></trkpt><trkpt lat="34.3027449" lon="10.071705"><ele>35.0</ele><time>2026-04-25T14:18:54.804Z</time></trkpt><trkpt lat="34.302637" lon="10.0716426"><ele>35.0</ele><time>2026-04-25T14:18:55.807Z</time></trkpt><trkpt lat="34.3025368" lon="10.0715857"><ele>35.0</ele><time>2026-04-25T14:18:56.833Z</time></trkpt><trkpt lat="34.3024429" lon="10.0715257"><ele>35.0</ele><time>2026-04-25T14:18:57.821Z</time></trkpt><trkpt lat="34.3023489" lon="10.0714671"><ele>35.0</ele><time>2026-04-25T14:18:58.806Z</time></trkpt><trkpt lat="34.3022572" lon="10.0714101"><ele>34.6</ele><time>2026-04-25T14:18:59.801Z</time></trkpt><trkpt lat="34.3021618" lon="10.0713515"><ele>34.2</ele><time>2026-04-25T14:19:00.804Z</time></trkpt><trkpt lat="34.3020646" lon="10.0712919"><ele>33.8</ele><time>2026-04-25T14:19:01.806Z</time></trkpt><trkpt lat="34.3019694" lon="10.0712305"><ele>33.4</ele><time>2026-04-25T14:19:02.791Z</time></trkpt><trkpt lat="34.30187" lon="10.0711656"><ele>33.0</ele><time>2026-04-25T14:19:03.806Z</time></trkpt><trkpt lat="34.3017691" lon="10.0711036"><ele>33.0</ele><time>2026-04-25T14:19:04.79Z</time></trkpt><trkpt lat="34.3016692" lon="10.0710424"><ele>33.0</ele><time>2026-04-25T14:19:05.791Z</time></trkpt><trkpt lat="34.3015701" lon="10.0709821"><ele>33.0</ele><time>2026-04-25T14:19:06.791Z</time></trkpt><trkpt lat="34.3014695" lon="10.0709142"><ele>33.0</ele><time>2026-04-25T14:19:07.814Z</time></trkpt><trkpt lat="34.3013621" lon="10.0708489"><ele>33.0</ele><time>2026-04-25T14:19:08.811Z</time></trkpt><trkpt lat="34.3012553" lon="10.0707814"><ele>33.0</ele><time>2026-04-25T14:19:09.805Z</time></trkpt><trkpt lat="34.3011437" lon="10.0707112"><ele>33.0</ele><time>2026-04-25T14:19:10.815Z</time></trkpt><trkpt lat="34.301027" lon="10.0706399"><ele>33.0</ele><time>2026-04-25T14:19:11.81Z</time></trkpt><trkpt lat="34.3009104" lon="10.070568"><ele>33.0</ele><time>2026-04-25T14:19:12.79Z</time></trkpt><trkpt lat="34.3007917" lon="10.0704962"><ele>33.0</ele><time>2026-04-25T14:19:13.804Z</time></trkpt><trkpt lat="34.3006729" lon="10.0704252"><ele>33.0</ele><time>2026-04-25T14:19:14.805Z</time></trkpt><trkpt lat="34.3005518" lon="10.0703468"><ele>33.0</ele><time>2026-04-25T14:19:15.811Z</time></trkpt><trkpt lat="34.3004314" lon="10.0702672"><ele>33.0</ele><time>2026-04-25T14:19:16.801Z</time></trkpt><trkpt lat="34.3003147" lon="10.0701931"><ele>33.0</ele><time>2026-04-25T14:19:17.785Z</time></trkpt><trkpt lat="34.3001998" lon="10.0701233"><ele>33.0</ele><time>2026-04-25T14:19:18.809Z</time></trkpt><trkpt lat="34.3000887" lon="10.0700511"><ele>33.0</ele><time>2026-04-25T14:19:19.792Z</time></trkpt><trkpt lat="34.29998" lon="10.0699865"><ele>33.0</ele><time>2026-04-25T14:19:20.785Z</time></trkpt><trkpt lat="34.299871" lon="10.0699202"><ele>33.0</ele><time>2026-04-25T14:19:21.815Z</time></trkpt><trkpt lat="34.2997635" lon="10.0698569"><ele>33.0</ele><time>2026-04-25T14:19:22.805Z</time></trkpt><trkpt lat="34.2996606" lon="10.0697932"><ele>33.0</ele><time>2026-04-25T14:19:23.798Z</time></trkpt><trkpt lat="34.299555" lon="10.0697284"><ele>33.0</ele><time>2026-04-25T14:19:24.809Z</time></trkpt><trkpt lat="34.2994576" lon="10.0696658"><ele>33.0</ele><time>2026-04-25T14:19:25.803Z</time></trkpt><trkpt lat="34.2993681" lon="10.0696034"><ele>33.0</ele><time>2026-04-25T14:19:26.794Z</time></trkpt><trkpt lat="34.29928" lon="10.0695445"><ele>33.0</ele><time>2026-04-25T14:19:27.788Z</time></trkpt><trkpt lat="34.2991938" lon="10.0694925"><ele>33.0</ele><time>2026-04-25T14:19:28.8Z</time></trkpt><trkpt lat="34.2991122" lon="10.0694425"><ele>33.0</ele><time>2026-04-25T14:19:29.81Z</time></trkpt><trkpt lat="34.2990282" lon="10.0693865"><ele>33.0</ele><time>2026-04-25T14:19:30.799Z</time></trkpt><trkpt lat="34.2989419" lon="10.0693347"><ele>33.0</ele><time>2026-04-25T14:19:31.808Z</time></trkpt><trkpt lat="34.2988624" lon="10.0692851"><ele>33.0</ele><time>2026-04-25T14:19:32.798Z</time></trkpt><trkpt lat="34.2987926" lon="10.0692466"><ele>33.0</ele><time>2026-04-25T14:19:33.795Z</time></trkpt><trkpt lat="34.2987247" lon="10.0692058"><ele>33.0</ele><time>2026-04-25T14:19:34.812Z</time></trkpt><trkpt lat="34.2986643" lon="10.0691686"><ele>33.0</ele><time>2026-04-25T14:19:35.823Z</time></trkpt><trkpt lat="34.2986011" lon="10.0691263"><ele>33.0</ele><time>2026-04-25T14:19:36.803Z</time></trkpt><trkpt lat="34.2985352" lon="10.0690791"><ele>33.0</ele><time>2026-04-25T14:19:37.803Z</time></trkpt><trkpt lat="34.2984695" lon="10.0690324"><ele>33.0</ele><time>2026-04-25T14:19:38.793Z</time></trkpt><trkpt lat="34.2984074" lon="10.0689968"><ele>33.0</ele><time>2026-04-25T14:19:39.809Z</time></trkpt><trkpt lat="34.298348" lon="10.0689549"><ele>33.0</ele><time>2026-04-25T14:19:40.802Z</time></trkpt><trkpt lat="34.2982387" lon="10.0688959"><ele>33.0</ele><time>2026-04-25T14:19:42.798Z</time></trkpt><trkpt lat="34.2981326" lon="10.0688333"><ele>33.0</ele><time>2026-04-25T14:19:44.801Z</time></trkpt><trkpt lat="34.2980644" lon="10.0688017"><ele>33.0</ele><time>2026-04-25T14:19:45.807Z</time></trkpt><trkpt lat="34.2979952" lon="10.0687586"><ele>33.0</ele><time>2026-04-25T14:19:46.815Z</time></trkpt><trkpt lat="34.2979217" lon="10.0687084"><ele>33.0</ele><time>2026-04-25T14:19:47.811Z</time></trkpt><trkpt lat="34.2978424" lon="10.0686557"><ele>33.0</ele><time>2026-04-25T14:19:48.797Z</time></trkpt><trkpt lat="34.2977652" lon="10.0686027"><ele>33.0</ele><time>2026-04-25T14:19:49.812Z</time></trkpt><trkpt lat="34.2976862" lon="10.0685511"><ele>33.0</ele><time>2026-04-25T14:19:50.808Z</time></trkpt><trkpt lat="34.2976065" lon="10.0684935"><ele>33.0</ele><time>2026-04-25T14:19:51.799Z</time></trkpt><trkpt lat="34.2975259" lon="10.0684417"><ele>33.0</ele><time>2026-04-25T14:19:52.8Z</time></trkpt><trkpt lat="34.2974417" lon="10.068394"><ele>33.0</ele><time>2026-04-25T14:19:53.807Z</time></trkpt><trkpt lat="34.2973577" lon="10.0683459"><ele>33.0</ele><time>2026-04-25T14:19:54.8Z</time></trkpt><trkpt lat="34.297271" lon="10.0682915"><ele>33.0</ele><time>2026-04-25T14:19:55.8Z</time></trkpt><trkpt lat="34.2971828" lon="10.0682361"><ele>33.0</ele><time>2026-04-25T14:19:56.801Z</time></trkpt><trkpt lat="34.2970913" lon="10.068177"><ele>33.0</ele><time>2026-04-25T14:19:57.804Z</time></trkpt><trkpt lat="34.2969941" lon="10.0681139"><ele>33.0</ele><time>2026-04-25T14:19:58.809Z</time></trkpt><trkpt lat="34.2968954" lon="10.0680526"><ele>33.0</ele><time>2026-04-25T14:19:59.813Z</time></trkpt><trkpt lat="34.2967948" lon="10.0679926"><ele>33.0</ele><time>2026-04-25T14:20:00.799Z</time></trkpt><trkpt lat="34.2966805" lon="10.0679257"><ele>33.0</ele><time>2026-04-25T14:20:01.799Z</time></trkpt><trkpt lat="34.2965606" lon="10.0678557"><ele>33.0</ele><time>2026-04-25T14:20:02.803Z</time></trkpt><trkpt lat="34.2964351" lon="10.0677818"><ele>33.0</ele><time>2026-04-25T14:20:03.8Z</time></trkpt><trkpt lat="34.2963078" lon="10.0677086"><ele>33.0</ele><time>2026-04-25T14:20:04.796Z</time></trkpt><trkpt lat="34.296182" lon="10.0676373"><ele>33.0</ele><time>2026-04-25T14:20:05.81Z</time></trkpt><trkpt lat="34.296054" lon="10.067564"><ele>33.0</ele><time>2026-04-25T14:20:06.807Z</time></trkpt><trkpt lat="34.2959278" lon="10.0674877"><ele>32.75</ele><time>2026-04-25T14:20:07.792Z</time></trkpt><trkpt lat="34.2958033" lon="10.0674094"><ele>32.5</ele><time>2026-04-25T14:20:08.793Z</time></trkpt><trkpt lat="34.2956785" lon="10.0673318"><ele>32.25</ele><time>2026-04-25T14:20:09.804Z</time></trkpt><trkpt lat="34.2955535" lon="10.0672516"><ele>32.0</ele><time>2026-04-25T14:20:10.807Z</time></trkpt><trkpt lat="34.2954225" lon="10.0671682"><ele>32.666666666666664</ele><time>2026-04-25T14:20:11.819Z</time></trkpt><trkpt lat="34.2952853" lon="10.0670832"><ele>33.333333333333336</ele><time>2026-04-25T14:20:12.816Z</time></trkpt><trkpt lat="34.2951437" lon="10.0670018"><ele>34.0</ele><time>2026-04-25T14:20:13.804Z</time></trkpt><trkpt lat="34.2950027" lon="10.0669122"><ele>34.0</ele><time>2026-04-25T14:20:14.813Z</time></trkpt><trkpt lat="34.2948597" lon="10.0668246"><ele>34.0</ele><time>2026-04-25T14:20:15.813Z</time></trkpt><trkpt lat="34.294716" lon="10.0667316"><ele>34.0</ele><time>2026-04-25T14:20:16.799Z</time></trkpt><trkpt lat="34.2945745" lon="10.066637"><ele>33.333333333333336</ele><time>2026-04-25T14:20:17.831Z</time></trkpt><trkpt lat="34.294425" lon="10.0665431"><ele>32.666666666666664</ele><time>2026-04-25T14:20:18.804Z</time></trkpt><trkpt lat="34.2942777" lon="10.0664494"><ele>32.0</ele><time>2026-04-25T14:20:19.801Z</time></trkpt><trkpt lat="34.2941293" lon="10.0663565"><ele>32.0</ele><time>2026-04-25T14:20:20.811Z</time></trkpt><trkpt lat="34.2939827" lon="10.0662609"><ele>32.0</ele><time>2026-04-25T14:20:21.802Z</time></trkpt><trkpt lat="34.293839" lon="10.0661648"><ele>32.0</ele><time>2026-04-25T14:20:22.813Z</time></trkpt><trkpt lat="34.2936943" lon="10.0660708"><ele>32.0</ele><time>2026-04-25T14:20:23.799Z</time></trkpt><trkpt lat="34.293547" lon="10.0659791"><ele>32.0</ele><time>2026-04-25T14:20:24.811Z</time></trkpt><trkpt lat="34.2934016" lon="10.0658878"><ele>32.0</ele><time>2026-04-25T14:20:25.8Z</time></trkpt><trkpt lat="34.2932549" lon="10.0657964"><ele>31.666666666666664</ele><time>2026-04-25T14:20:26.799Z</time></trkpt><trkpt lat="34.2931068" lon="10.0657056"><ele>31.333333333333336</ele><time>2026-04-25T14:20:27.789Z</time></trkpt><trkpt lat="34.292961" lon="10.0656152"><ele>31.0</ele><time>2026-04-25T14:20:28.809Z</time></trkpt><trkpt lat="34.2928151" lon="10.0655243"><ele>31.0</ele><time>2026-04-25T14:20:29.797Z</time></trkpt><trkpt lat="34.2926688" lon="10.0654267"><ele>31.0</ele><time>2026-04-25T14:20:30.79Z</time></trkpt><trkpt lat="34.2925186" lon="10.0653354"><ele>31.0</ele><time>2026-04-25T14:20:31.786Z</time></trkpt><trkpt lat="34.2923705" lon="10.0652441"><ele>31.0</ele><time>2026-04-25T14:20:32.798Z</time></trkpt><trkpt lat="34.2922279" lon="10.0651548"><ele>31.0</ele><time>2026-04-25T14:20:33.817Z</time></trkpt><trkpt lat="34.2920883" lon="10.0650643"><ele>31.0</ele><time>2026-04-25T14:20:34.806Z</time></trkpt><trkpt lat="34.2919426" lon="10.0649752"><ele>31.0</ele><time>2026-04-25T14:20:35.796Z</time></trkpt><trkpt lat="34.2917986" lon="10.064888"><ele>31.0</ele><time>2026-04-25T14:20:36.807Z</time></trkpt><trkpt lat="34.2916558" lon="10.064805"><ele>31.0</ele><time>2026-04-25T14:20:37.8Z</time></trkpt><trkpt lat="34.2915134" lon="10.0647216"><ele>31.0</ele><time>2026-04-25T14:20:38.801Z</time></trkpt><trkpt lat="34.2913746" lon="10.0646374"><ele>31.0</ele><time>2026-04-25T14:20:39.814Z</time></trkpt><trkpt lat="34.2912396" lon="10.0645556"><ele>31.0</ele><time>2026-04-25T14:20:40.812Z</time></trkpt><trkpt lat="34.2911072" lon="10.064472"><ele>31.0</ele><time>2026-04-25T14:20:41.809Z</time></trkpt><trkpt lat="34.2909734" lon="10.0643932"><ele>31.0</ele><time>2026-04-25T14:20:42.804Z</time></trkpt><trkpt lat="34.290842" lon="10.0643135"><ele>31.0</ele><time>2026-04-25T14:20:43.796Z</time></trkpt><trkpt lat="34.2907145" lon="10.0642342"><ele>31.0</ele><time>2026-04-25T14:20:44.802Z</time></trkpt><trkpt lat="34.2905942" lon="10.0641548"><ele>31.25</ele><time>2026-04-25T14:20:45.791Z</time></trkpt><trkpt lat="34.2904715" lon="10.0640774"><ele>31.5</ele><time>2026-04-25T14:20:46.811Z</time></trkpt><trkpt lat="34.2903393" lon="10.0640003"><ele>31.75</ele><time>2026-04-25T14:20:47.892Z</time></trkpt><trkpt lat="34.2901977" lon="10.0639258"><ele>32.0</ele><time>2026-04-25T14:20:48.854Z</time></trkpt><trkpt lat="34.2900488" lon="10.0638413"><ele>32.0</ele><time>2026-04-25T14:20:49.838Z</time></trkpt><trkpt lat="34.2898938" lon="10.0637474"><ele>32.0</ele><time>2026-04-25T14:20:50.821Z</time></trkpt><trkpt lat="34.2897331" lon="10.0636433"><ele>32.0</ele><time>2026-04-25T14:20:51.844Z</time></trkpt><trkpt lat="34.2895754" lon="10.0635403"><ele>31.666666666666664</ele><time>2026-04-25T14:20:52.845Z</time></trkpt><trkpt lat="34.2894189" lon="10.0634364"><ele>31.333333333333336</ele><time>2026-04-25T14:20:53.831Z</time></trkpt><trkpt lat="34.2892638" lon="10.0633298"><ele>31.0</ele><time>2026-04-25T14:20:54.838Z</time></trkpt><trkpt lat="34.289115" lon="10.0632274"><ele>31.0</ele><time>2026-04-25T14:20:55.842Z</time></trkpt><trkpt lat="34.288969" lon="10.063132"><ele>31.0</ele><time>2026-04-25T14:20:56.844Z</time></trkpt><trkpt lat="34.28882" lon="10.0630412"><ele>31.0</ele><time>2026-04-25T14:20:57.834Z</time></trkpt><trkpt lat="34.2886745" lon="10.0629519"><ele>30.666666666666668</ele><time>2026-04-25T14:20:58.84Z</time></trkpt><trkpt lat="34.2885307" lon="10.0628602"><ele>30.333333333333336</ele><time>2026-04-25T14:20:59.822Z</time></trkpt><trkpt lat="34.2883862" lon="10.0627685"><ele>30.0</ele><time>2026-04-25T14:21:00.834Z</time></trkpt><trkpt lat="34.2882419" lon="10.0626781"><ele>30.0</ele><time>2026-04-25T14:21:01.83Z</time></trkpt><trkpt lat="34.2880951" lon="10.062587"><ele>30.0</ele><time>2026-04-25T14:21:02.837Z</time></trkpt><trkpt lat="34.287949" lon="10.0624965"><ele>30.0</ele><time>2026-04-25T14:21:03.846Z</time></trkpt><trkpt lat="34.2878" lon="10.0624057"><ele>31.0</ele><time>2026-04-25T14:21:04.835Z</time></trkpt><trkpt lat="34.2876492" lon="10.0623101"><ele>32.0</ele><time>2026-04-25T14:21:05.829Z</time></trkpt><trkpt lat="34.2874989" lon="10.0622162"><ele>33.0</ele><time>2026-04-25T14:21:06.844Z</time></trkpt><trkpt lat="34.2873521" lon="10.0621244"><ele>32.333333333333336</ele><time>2026-04-25T14:21:07.822Z</time></trkpt><trkpt lat="34.2872027" lon="10.0620316"><ele>31.666666666666668</ele><time>2026-04-25T14:21:08.837Z</time></trkpt><trkpt lat="34.2870548" lon="10.0619401"><ele>31.0</ele><time>2026-04-25T14:21:09.834Z</time></trkpt><trkpt lat="34.2869054" lon="10.0618492"><ele>31.0</ele><time>2026-04-25T14:21:10.839Z</time></trkpt><trkpt lat="34.2867563" lon="10.0617528"><ele>31.0</ele><time>2026-04-25T14:21:11.835Z</time></trkpt><trkpt lat="34.2866109" lon="10.0616596"><ele>31.0</ele><time>2026-04-25T14:21:12.846Z</time></trkpt><trkpt lat="34.2864627" lon="10.061563"><ele>31.0</ele><time>2026-04-25T14:21:13.845Z</time></trkpt><trkpt lat="34.2863162" lon="10.0614735"><ele>31.0</ele><time>2026-04-25T14:21:14.836Z</time></trkpt><trkpt lat="34.286172" lon="10.0613847"><ele>31.0</ele><time>2026-04-25T14:21:15.835Z</time></trkpt><trkpt lat="34.2860264" lon="10.0612944"><ele>31.0</ele><time>2026-04-25T14:21:16.849Z</time></trkpt><trkpt lat="34.2858824" lon="10.0612005"><ele>31.0</ele><time>2026-04-25T14:21:17.842Z</time></trkpt><trkpt lat="34.2857394" lon="10.0611104"><ele>31.0</ele><time>2026-04-25T14:21:18.838Z</time></trkpt><trkpt lat="34.2855936" lon="10.0610171"><ele>31.0</ele><time>2026-04-25T14:21:19.843Z</time></trkpt><trkpt lat="34.2854419" lon="10.0609213"><ele>31.0</ele><time>2026-04-25T14:21:20.832Z</time></trkpt><trkpt lat="34.2852815" lon="10.0608286"><ele>31.0</ele><time>2026-04-25T14:21:21.844Z</time></trkpt><trkpt lat="34.2851147" lon="10.060727"><ele>30.666666666666668</ele><time>2026-04-25T14:21:22.83Z</time></trkpt><trkpt lat="34.2849434" lon="10.0606213"><ele>30.333333333333336</ele><time>2026-04-25T14:21:23.839Z</time></trkpt><trkpt lat="34.2847666" lon="10.0605088"><ele>30.0</ele><time>2026-04-25T14:21:24.838Z</time></trkpt><trkpt lat="34.2845786" lon="10.0603957"><ele>30.0</ele><time>2026-04-25T14:21:25.836Z</time></trkpt><trkpt lat="34.2843906" lon="10.0602812"><ele>30.0</ele><time>2026-04-25T14:21:26.843Z</time></trkpt><trkpt lat="34.2841974" lon="10.0601632"><ele>30.0</ele><time>2026-04-25T14:21:27.831Z</time></trkpt><trkpt lat="34.2840111" lon="10.0600435"><ele>30.0</ele><time>2026-04-25T14:21:28.826Z</time></trkpt><trkpt lat="34.2838259" lon="10.0599305"><ele>30.0</ele><time>2026-04-25T14:21:29.841Z</time></trkpt><trkpt lat="34.2836417" lon="10.0598174"><ele>30.0</ele><time>2026-04-25T14:21:30.826Z</time></trkpt><trkpt lat="34.2834535" lon="10.0597053"><ele>30.0</ele><time>2026-04-25T14:21:31.835Z</time></trkpt><trkpt lat="34.2832689" lon="10.05959"><ele>30.0</ele><time>2026-04-25T14:21:32.826Z</time></trkpt><trkpt lat="34.2830838" lon="10.0594766"><ele>30.0</ele><time>2026-04-25T14:21:33.835Z</time></trkpt><trkpt lat="34.2828963" lon="10.0593662"><ele>30.0</ele><time>2026-04-25T14:21:34.837Z</time></trkpt><trkpt lat="34.2827137" lon="10.0592515"><ele>30.0</ele><time>2026-04-25T14:21:35.837Z</time></trkpt><trkpt lat="34.2825339" lon="10.0591247"><ele>30.0</ele><time>2026-04-25T14:21:36.842Z</time></trkpt><trkpt lat="34.2823499" lon="10.0590022"><ele>30.333333333333336</ele><time>2026-04-25T14:21:37.825Z</time></trkpt><trkpt lat="34.2821666" lon="10.058884"><ele>30.666666666666668</ele><time>2026-04-25T14:21:38.831Z</time></trkpt><trkpt lat="34.2819898" lon="10.0587653"><ele>31.0</ele><time>2026-04-25T14:21:39.826Z</time></trkpt><trkpt lat="34.2818088" lon="10.0586497"><ele>31.0</ele><time>2026-04-25T14:21:40.856Z</time></trkpt><trkpt lat="34.2816299" lon="10.0585385"><ele>31.0</ele><time>2026-04-25T14:21:41.852Z</time></trkpt><trkpt lat="34.2814479" lon="10.058431"><ele>31.0</ele><time>2026-04-25T14:21:42.839Z</time></trkpt><trkpt lat="34.281265" lon="10.0583217"><ele>31.0</ele><time>2026-04-25T14:21:43.846Z</time></trkpt><trkpt lat="34.2810828" lon="10.0582101"><ele>31.0</ele><time>2026-04-25T14:21:44.84Z</time></trkpt><trkpt lat="34.2809022" lon="10.0580942"><ele>31.0</ele><time>2026-04-25T14:21:45.849Z</time></trkpt><trkpt lat="34.2807234" lon="10.0579809"><ele>31.0</ele><time>2026-04-25T14:21:46.851Z</time></trkpt><trkpt lat="34.2805413" lon="10.0578664"><ele>31.0</ele><time>2026-04-25T14:21:47.847Z</time></trkpt><trkpt lat="34.2803589" lon="10.057756"><ele>31.0</ele><time>2026-04-25T14:21:48.851Z</time></trkpt><trkpt lat="34.2801782" lon="10.0576447"><ele>31.0</ele><time>2026-04-25T14:21:49.842Z</time></trkpt><trkpt lat="34.2799965" lon="10.0575389"><ele>31.0</ele><time>2026-04-25T14:21:50.854Z</time></trkpt><trkpt lat="34.2798142" lon="10.0574275"><ele>31.0</ele><time>2026-04-25T14:21:51.846Z</time></trkpt><trkpt lat="34.2796325" lon="10.0573141"><ele>30.666666666666668</ele><time>2026-04-25T14:21:52.833Z</time></trkpt><trkpt lat="34.2794503" lon="10.0572006"><ele>30.333333333333336</ele><time>2026-04-25T14:21:53.848Z</time></trkpt><trkpt lat="34.2792698" lon="10.0570891"><ele>30.0</ele><time>2026-04-25T14:21:54.845Z</time></trkpt><trkpt lat="34.2790887" lon="10.0569785"><ele>30.0</ele><time>2026-04-25T14:21:55.847Z</time></trkpt><trkpt lat="34.2789126" lon="10.0568713"><ele>30.0</ele><time>2026-04-25T14:21:56.826Z</time></trkpt><trkpt lat="34.2787309" lon="10.0567593"><ele>30.0</ele><time>2026-04-25T14:21:57.852Z</time></trkpt><trkpt lat="34.278549" lon="10.0566529"><ele>30.333333333333336</ele><time>2026-04-25T14:21:58.855Z</time></trkpt><trkpt lat="34.2783674" lon="10.0565453"><ele>30.666666666666668</ele><time>2026-04-25T14:21:59.851Z</time></trkpt><trkpt lat="34.2781873" lon="10.0564428"><ele>31.0</ele><time>2026-04-25T14:22:00.868Z</time></trkpt><trkpt lat="34.2780058" lon="10.0563411"><ele>31.0</ele><time>2026-04-25T14:22:01.845Z</time></trkpt><trkpt lat="34.2778243" lon="10.0562371"><ele>31.0</ele><time>2026-04-25T14:22:02.849Z</time></trkpt><trkpt lat="34.2776435" lon="10.0561334"><ele>31.0</ele><time>2026-04-25T14:22:03.84Z</time></trkpt><trkpt lat="34.2774582" lon="10.0560286"><ele>31.0</ele><time>2026-04-25T14:22:04.847Z</time></trkpt><trkpt lat="34.2772744" lon="10.0559214"><ele>31.0</ele><time>2026-04-25T14:22:05.847Z</time></trkpt><trkpt lat="34.2770957" lon="10.0558136"><ele>31.0</ele><time>2026-04-25T14:22:06.853Z</time></trkpt><trkpt lat="34.2769159" lon="10.0557083"><ele>30.666666666666668</ele><time>2026-04-25T14:22:07.862Z</time></trkpt><trkpt lat="34.276732" lon="10.0556036"><ele>30.333333333333336</ele><time>2026-04-25T14:22:08.848Z</time></trkpt><trkpt lat="34.2765513" lon="10.0555021"><ele>30.0</ele><time>2026-04-25T14:22:09.855Z</time></trkpt><trkpt lat="34.2763699" lon="10.0553998"><ele>29.333333333333336</ele><time>2026-04-25T14:22:10.845Z</time></trkpt><trkpt lat="34.2761881" lon="10.0552962"><ele>28.666666666666668</ele><time>2026-04-25T14:22:11.837Z</time></trkpt><trkpt lat="34.2760044" lon="10.0551886"><ele>28.0</ele><time>2026-04-25T14:22:12.853Z</time></trkpt><trkpt lat="34.2758202" lon="10.0550758"><ele>28.0</ele><time>2026-04-25T14:22:13.845Z</time></trkpt><trkpt lat="34.275633" lon="10.0549647"><ele>28.0</ele><time>2026-04-25T14:22:14.85Z</time></trkpt><trkpt lat="34.2754401" lon="10.0548564"><ele>28.0</ele><time>2026-04-25T14:22:15.856Z</time></trkpt><trkpt lat="34.2752515" lon="10.0547511"><ele>28.0</ele><time>2026-04-25T14:22:16.847Z</time></trkpt><trkpt lat="34.2750636" lon="10.0546442"><ele>28.0</ele><time>2026-04-25T14:22:17.841Z</time></trkpt><trkpt lat="34.2748759" lon="10.0545358"><ele>28.0</ele><time>2026-04-25T14:22:18.845Z</time></trkpt><trkpt lat="34.2746888" lon="10.0544269"><ele>28.0</ele><time>2026-04-25T14:22:19.854Z</time></trkpt><trkpt lat="34.2745005" lon="10.0543173"><ele>28.0</ele><time>2026-04-25T14:22:20.851Z</time></trkpt><trkpt lat="34.2743187" lon="10.0542076"><ele>28.0</ele><time>2026-04-25T14:22:21.856Z</time></trkpt><trkpt lat="34.2741334" lon="10.054101"><ele>28.0</ele><time>2026-04-25T14:22:22.855Z</time></trkpt><trkpt lat="34.2739502" lon="10.0539927"><ele>28.0</ele><time>2026-04-25T14:22:23.849Z</time></trkpt><trkpt lat="34.2737707" lon="10.053887"><ele>28.0</ele><time>2026-04-25T14:22:24.844Z</time></trkpt><trkpt lat="34.2735873" lon="10.0537823"><ele>28.0</ele><time>2026-04-25T14:22:25.843Z</time></trkpt><trkpt lat="34.2734056" lon="10.0536768"><ele>28.0</ele><time>2026-04-25T14:22:26.845Z</time></trkpt><trkpt lat="34.2732238" lon="10.0535697"><ele>28.0</ele><time>2026-04-25T14:22:27.848Z</time></trkpt><trkpt lat="34.273041" lon="10.0534596"><ele>28.0</ele><time>2026-04-25T14:22:28.844Z</time></trkpt><trkpt lat="34.2728575" lon="10.0533534"><ele>28.0</ele><time>2026-04-25T14:22:29.843Z</time></trkpt><trkpt lat="34.2726726" lon="10.0532505"><ele>28.0</ele><time>2026-04-25T14:22:30.845Z</time></trkpt><trkpt lat="34.2724875" lon="10.0531423"><ele>28.0</ele><time>2026-04-25T14:22:31.848Z</time></trkpt><trkpt lat="34.2723014" lon="10.0530316"><ele>28.0</ele><time>2026-04-25T14:22:32.853Z</time></trkpt><trkpt lat="34.2721088" lon="10.0529191"><ele>28.0</ele><time>2026-04-25T14:22:33.85Z</time></trkpt><trkpt lat="34.2719221" lon="10.0528091"><ele>27.666666666666668</ele><time>2026-04-25T14:22:34.848Z</time></trkpt><trkpt lat="34.2717345" lon="10.0527005"><ele>27.333333333333336</ele><time>2026-04-25T14:22:35.841Z</time></trkpt><trkpt lat="34.2715445" lon="10.0525908"><ele>27.0</ele><time>2026-04-25T14:22:36.848Z</time></trkpt><trkpt lat="34.2713538" lon="10.052481"><ele>26.666666666666664</ele><time>2026-04-25T14:22:37.841Z</time></trkpt><trkpt lat="34.2711643" lon="10.0523726"><ele>26.333333333333332</ele><time>2026-04-25T14:22:38.848Z</time></trkpt><trkpt lat="34.2709792" lon="10.0522636"><ele>26.0</ele><time>2026-04-25T14:22:39.851Z</time></trkpt><trkpt lat="34.2707917" lon="10.0521569"><ele>26.0</ele><time>2026-04-25T14:22:40.844Z</time></trkpt><trkpt lat="34.2706025" lon="10.0520483"><ele>26.0</ele><time>2026-04-25T14:22:41.855Z</time></trkpt><trkpt lat="34.2704164" lon="10.0519381"><ele>26.0</ele><time>2026-04-25T14:22:42.843Z</time></trkpt><trkpt lat="34.2702292" lon="10.0518303"><ele>26.0</ele><time>2026-04-25T14:22:43.846Z</time></trkpt><trkpt lat="34.2700433" lon="10.0517228"><ele>26.0</ele><time>2026-04-25T14:22:44.84Z</time></trkpt><trkpt lat="34.2698593" lon="10.0516115"><ele>26.0</ele><time>2026-04-25T14:22:45.838Z</time></trkpt><trkpt lat="34.2696691" lon="10.0515021"><ele>26.0</ele><time>2026-04-25T14:22:46.839Z</time></trkpt><trkpt lat="34.2694806" lon="10.0513913"><ele>26.0</ele><time>2026-04-25T14:22:47.854Z</time></trkpt><trkpt lat="34.2692945" lon="10.0512852"><ele>26.0</ele><time>2026-04-25T14:22:48.848Z</time></trkpt><trkpt lat="34.2691055" lon="10.0511794"><ele>26.0</ele><time>2026-04-25T14:22:49.847Z</time></trkpt><trkpt lat="34.2689129" lon="10.0510743"><ele>26.0</ele><time>2026-04-25T14:22:50.849Z</time></trkpt><trkpt lat="34.2687243" lon="10.0509653"><ele>26.0</ele><time>2026-04-25T14:22:51.844Z</time></trkpt><trkpt lat="34.268534" lon="10.0508536"><ele>26.0</ele><time>2026-04-25T14:22:52.825Z</time></trkpt><trkpt lat="34.2683474" lon="10.050745"><ele>26.0</ele><time>2026-04-25T14:22:53.853Z</time></trkpt><trkpt lat="34.2681578" lon="10.0506345"><ele>26.0</ele><time>2026-04-25T14:22:54.844Z</time></trkpt><trkpt lat="34.26797" lon="10.0505238"><ele>26.0</ele><time>2026-04-25T14:22:55.848Z</time></trkpt><trkpt lat="34.2677804" lon="10.0504146"><ele>26.0</ele><time>2026-04-25T14:22:56.853Z</time></trkpt><trkpt lat="34.2675893" lon="10.0503101"><ele>26.0</ele><time>2026-04-25T14:22:57.841Z</time></trkpt><trkpt lat="34.2673993" lon="10.050196"><ele>25.666666666666664</ele><time>2026-04-25T14:22:58.839Z</time></trkpt><trkpt lat="34.2672063" lon="10.0500889"><ele>25.333333333333336</ele><time>2026-04-25T14:22:59.842Z</time></trkpt><trkpt lat="34.2670157" lon="10.049975"><ele>25.0</ele><time>2026-04-25T14:23:00.849Z</time></trkpt><trkpt lat="34.2668292" lon="10.0498678"><ele>25.0</ele><time>2026-04-25T14:23:01.839Z</time></trkpt><trkpt lat="34.2666414" lon="10.0497611"><ele>25.0</ele><time>2026-04-25T14:23:02.848Z</time></trkpt><trkpt lat="34.2664556" lon="10.0496515"><ele>25.0</ele><time>2026-04-25T14:23:03.835Z</time></trkpt><trkpt lat="34.2662691" lon="10.0495454"><ele>25.333333333333336</ele><time>2026-04-25T14:23:04.852Z</time></trkpt><trkpt lat="34.2660822" lon="10.0494403"><ele>25.666666666666664</ele><time>2026-04-25T14:23:05.869Z</time></trkpt><trkpt lat="34.2658946" lon="10.0493324"><ele>26.0</ele><time>2026-04-25T14:23:06.852Z</time></trkpt><trkpt lat="34.2657062" lon="10.0492225"><ele>25.666666666666664</ele><time>2026-04-25T14:23:07.848Z</time></trkpt><trkpt lat="34.2655184" lon="10.0491086"><ele>25.333333333333336</ele><time>2026-04-25T14:23:08.849Z</time></trkpt><trkpt lat="34.265327" lon="10.048998"><ele>25.0</ele><time>2026-04-25T14:23:09.851Z</time></trkpt><trkpt lat="34.2651337" lon="10.0488855"><ele>25.0</ele><time>2026-04-25T14:23:10.852Z</time></trkpt><trkpt lat="34.2649412" lon="10.0487699"><ele>25.0</ele><time>2026-04-25T14:23:11.839Z</time></trkpt><trkpt lat="34.26475" lon="10.0486542"><ele>25.0</ele><time>2026-04-25T14:23:12.851Z</time></trkpt><trkpt lat="34.264553" lon="10.0485377"><ele>24.0</ele><time>2026-04-25T14:23:13.849Z</time></trkpt><trkpt lat="34.264344" lon="10.0484224"><ele>23.0</ele><time>2026-04-25T14:23:14.834Z</time></trkpt><trkpt lat="34.2641362" lon="10.0482996"><ele>22.5</ele><time>2026-04-25T14:23:15.856Z</time></trkpt><trkpt lat="34.2639238" lon="10.0481764"><ele>22.0</ele><time>2026-04-25T14:23:16.838Z</time></trkpt><trkpt lat="34.2637102" lon="10.048051"><ele>22.0</ele><time>2026-04-25T14:23:17.842Z</time></trkpt><trkpt lat="34.2634963" lon="10.0479186"><ele>22.0</ele><time>2026-04-25T14:23:18.856Z</time></trkpt><trkpt lat="34.2632826" lon="10.0477832"><ele>20.5</ele><time>2026-04-25T14:23:19.844Z</time></trkpt><trkpt lat="34.26307" lon="10.0476495"><ele>19.0</ele><time>2026-04-25T14:23:20.848Z</time></trkpt><trkpt lat="34.2628542" lon="10.0475142"><ele>20.0</ele><time>2026-04-25T14:23:21.841Z</time></trkpt><trkpt lat="34.262641" lon="10.0473863"><ele>21.0</ele><time>2026-04-25T14:23:22.86Z</time></trkpt><trkpt lat="34.2624308" lon="10.0472531"><ele>20.5</ele><time>2026-04-25T14:23:23.867Z</time></trkpt><trkpt lat="34.2622199" lon="10.0471194"><ele>20.0</ele><time>2026-04-25T14:23:24.856Z</time></trkpt><trkpt lat="34.2620094" lon="10.0469848"><ele>20.0</ele><time>2026-04-25T14:23:25.85Z</time></trkpt><trkpt lat="34.2618024" lon="10.0468511"><ele>20.0</ele><time>2026-04-25T14:23:26.845Z</time></trkpt><trkpt lat="34.2615963" lon="10.0467247"><ele>21.0</ele><time>2026-04-25T14:23:27.847Z</time></trkpt><trkpt lat="34.2613883" lon="10.0465993"><ele>22.0</ele><time>2026-04-25T14:23:28.844Z</time></trkpt><trkpt lat="34.2611803" lon="10.0464766"><ele>22.0</ele><time>2026-04-25T14:23:29.859Z</time></trkpt><trkpt lat="34.2609734" lon="10.0463523"><ele>22.0</ele><time>2026-04-25T14:23:30.856Z</time></trkpt><trkpt lat="34.2607695" lon="10.0462243"><ele>21.5</ele><time>2026-04-25T14:23:31.868Z</time></trkpt><trkpt lat="34.260567" lon="10.0460948"><ele>21.0</ele><time>2026-04-25T14:23:32.846Z</time></trkpt><trkpt lat="34.260363" lon="10.0459674"><ele>21.0</ele><time>2026-04-25T14:23:33.857Z</time></trkpt><trkpt lat="34.2601603" lon="10.0458394"><ele>21.0</ele><time>2026-04-25T14:23:34.845Z</time></trkpt><trkpt lat="34.2599556" lon="10.0457157"><ele>22.0</ele><time>2026-04-25T14:23:35.854Z</time></trkpt><trkpt lat="34.2597536" lon="10.0455886"><ele>23.0</ele><time>2026-04-25T14:23:36.852Z</time></trkpt><trkpt lat="34.2595529" lon="10.0454641"><ele>23.0</ele><time>2026-04-25T14:23:37.847Z</time></trkpt><trkpt lat="34.2593547" lon="10.0453382"><ele>23.0</ele><time>2026-04-25T14:23:38.85Z</time></trkpt><trkpt lat="34.2591599" lon="10.0452113"><ele>23.0</ele><time>2026-04-25T14:23:39.861Z</time></trkpt><trkpt lat="34.2589663" lon="10.0450916"><ele>23.0</ele><time>2026-04-25T14:23:40.856Z</time></trkpt><trkpt lat="34.2587685" lon="10.0449671"><ele>23.0</ele><time>2026-04-25T14:23:41.855Z</time></trkpt><trkpt lat="34.2585669" lon="10.0448396"><ele>22.5</ele><time>2026-04-25T14:23:42.852Z</time></trkpt><trkpt lat="34.2583641" lon="10.0447171"><ele>22.0</ele><time>2026-04-25T14:23:43.842Z</time></trkpt><trkpt lat="34.2581605" lon="10.0445944"><ele>20.5</ele><time>2026-04-25T14:23:44.851Z</time></trkpt><trkpt lat="34.2579582" lon="10.0444694"><ele>19.0</ele><time>2026-04-25T14:23:45.853Z</time></trkpt><trkpt lat="34.2577546" lon="10.0443424"><ele>19.0</ele><time>2026-04-25T14:23:46.854Z</time></trkpt><trkpt lat="34.2575459" lon="10.0442139"><ele>19.0</ele><time>2026-04-25T14:23:47.852Z</time></trkpt><trkpt lat="34.25734" lon="10.0440877"><ele>18.5</ele><time>2026-04-25T14:23:48.848Z</time></trkpt><trkpt lat="34.2571339" lon="10.0439554"><ele>18.0</ele><time>2026-04-25T14:23:49.85Z</time></trkpt><trkpt lat="34.2569269" lon="10.0438246"><ele>18.0</ele><time>2026-04-25T14:23:50.854Z</time></trkpt><trkpt lat="34.2567198" lon="10.0436906"><ele>18.0</ele><time>2026-04-25T14:23:51.869Z</time></trkpt><trkpt lat="34.2565107" lon="10.0435626"><ele>17.5</ele><time>2026-04-25T14:23:52.867Z</time></trkpt><trkpt lat="34.2563025" lon="10.0434323"><ele>17.0</ele><time>2026-04-25T14:23:53.862Z</time></trkpt><trkpt lat="34.2560908" lon="10.0433034"><ele>16.5</ele><time>2026-04-25T14:23:54.862Z</time></trkpt><trkpt lat="34.2558837" lon="10.0431685"><ele>16.0</ele><time>2026-04-25T14:23:55.866Z</time></trkpt><trkpt lat="34.2556771" lon="10.0430412"><ele>16.5</ele><time>2026-04-25T14:23:56.862Z</time></trkpt><trkpt lat="34.2554731" lon="10.0429137"><ele>17.0</ele><time>2026-04-25T14:23:57.855Z</time></trkpt><trkpt lat="34.2552638" lon="10.0427873"><ele>17.0</ele><time>2026-04-25T14:23:58.846Z</time></trkpt><trkpt lat="34.255058" lon="10.0426626"><ele>17.0</ele><time>2026-04-25T14:23:59.845Z</time></trkpt><trkpt lat="34.2548556" lon="10.0425347"><ele>15.5</ele><time>2026-04-25T14:24:00.844Z</time></trkpt><trkpt lat="34.2546575" lon="10.0424001"><ele>14.0</ele><time>2026-04-25T14:24:01.845Z</time></trkpt><trkpt lat="34.2544622" lon="10.0422615"><ele>14.0</ele><time>2026-04-25T14:24:02.845Z</time></trkpt><trkpt lat="34.2542703" lon="10.0421097"><ele>14.0</ele><time>2026-04-25T14:24:03.865Z</time></trkpt><trkpt lat="34.2540873" lon="10.0419475"><ele>13.5</ele><time>2026-04-25T14:24:04.844Z</time></trkpt><trkpt lat="34.2539119" lon="10.0417747"><ele>13.0</ele><time>2026-04-25T14:24:05.851Z</time></trkpt><trkpt lat="34.2537383" lon="10.0415969"><ele>13.0</ele><time>2026-04-25T14:24:06.849Z</time></trkpt><trkpt lat="34.2535707" lon="10.0414064"><ele>13.0</ele><time>2026-04-25T14:24:07.854Z</time></trkpt><trkpt lat="34.2534096" lon="10.0412091"><ele>13.0</ele><time>2026-04-25T14:24:08.848Z</time></trkpt><trkpt lat="34.2532407" lon="10.0410061"><ele>13.0</ele><time>2026-04-25T14:24:09.858Z</time></trkpt><trkpt lat="34.2530742" lon="10.0408085"><ele>12.5</ele><time>2026-04-25T14:24:10.852Z</time></trkpt><trkpt lat="34.2529147" lon="10.0406149"><ele>12.0</ele><time>2026-04-25T14:24:11.859Z</time></trkpt><trkpt lat="34.2527497" lon="10.0404187"><ele>12.0</ele><time>2026-04-25T14:24:12.844Z</time></trkpt><trkpt lat="34.2525818" lon="10.0402248"><ele>12.0</ele><time>2026-04-25T14:24:13.857Z</time></trkpt><trkpt lat="34.2524146" lon="10.0400326"><ele>11.333333333333334</ele><time>2026-04-25T14:24:14.84Z</time></trkpt><trkpt lat="34.2522525" lon="10.0398435"><ele>10.666666666666668</ele><time>2026-04-25T14:24:15.845Z</time></trkpt><trkpt lat="34.252093" lon="10.0396544"><ele>10.0</ele><time>2026-04-25T14:24:16.849Z</time></trkpt><trkpt lat="34.2519332" lon="10.0394663"><ele>10.0</ele><time>2026-04-25T14:24:17.846Z</time></trkpt><trkpt lat="34.251774" lon="10.039282"><ele>10.0</ele><time>2026-04-25T14:24:18.845Z</time></trkpt><trkpt lat="34.2516138" lon="10.0390972"><ele>10.0</ele><time>2026-04-25T14:24:19.848Z</time></trkpt><trkpt lat="34.251451" lon="10.0389041"><ele>9.0</ele><time>2026-04-25T14:24:20.836Z</time></trkpt><trkpt lat="34.2512897" lon="10.0387119"><ele>8.0</ele><time>2026-04-25T14:24:21.848Z</time></trkpt><trkpt lat="34.2511259" lon="10.0385215"><ele>8.0</ele><time>2026-04-25T14:24:22.856Z</time></trkpt><trkpt lat="34.2509646" lon="10.0383345"><ele>8.0</ele><time>2026-04-25T14:24:23.85Z</time></trkpt><trkpt lat="34.2508014" lon="10.0381474"><ele>8.0</ele><time>2026-04-25T14:24:24.846Z</time></trkpt><trkpt lat="34.250637" lon="10.0379648"><ele>8.333333333333332</ele><time>2026-04-25T14:24:25.857Z</time></trkpt><trkpt lat="34.2504714" lon="10.0377808"><ele>8.666666666666666</ele><time>2026-04-25T14:24:26.849Z</time></trkpt><trkpt lat="34.2503075" lon="10.0376013"><ele>9.0</ele><time>2026-04-25T14:24:27.848Z</time></trkpt><trkpt lat="34.2501466" lon="10.0374131"><ele>9.0</ele><time>2026-04-25T14:24:28.851Z</time></trkpt><trkpt lat="34.2499861" lon="10.0372294"><ele>9.0</ele><time>2026-04-25T14:24:29.845Z</time></trkpt><trkpt lat="34.249826" lon="10.037039"><ele>9.0</ele><time>2026-04-25T14:24:30.85Z</time></trkpt><trkpt lat="34.24966" lon="10.0368397"><ele>8.5</ele><time>2026-04-25T14:24:31.859Z</time></trkpt><trkpt lat="34.2494912" lon="10.0366342"><ele>8.0</ele><time>2026-04-25T14:24:32.851Z</time></trkpt><trkpt lat="34.2493211" lon="10.0364254"><ele>8.0</ele><time>2026-04-25T14:24:33.853Z</time></trkpt><trkpt lat="34.2491505" lon="10.0362157"><ele>8.0</ele><time>2026-04-25T14:24:34.859Z</time></trkpt><trkpt lat="34.2489817" lon="10.0360057"><ele>8.0</ele><time>2026-04-25T14:24:35.851Z</time></trkpt><trkpt lat="34.2488145" lon="10.0357884"><ele>8.0</ele><time>2026-04-25T14:24:36.868Z</time></trkpt><trkpt lat="34.2486499" lon="10.0355714"><ele>8.0</ele><time>2026-04-25T14:24:37.842Z</time></trkpt><trkpt lat="34.2484868" lon="10.035358"><ele>8.0</ele><time>2026-04-25T14:24:38.842Z</time></trkpt><trkpt lat="34.2483285" lon="10.0351505"><ele>8.5</ele><time>2026-04-25T14:24:39.848Z</time></trkpt><trkpt lat="34.2481734" lon="10.0349434"><ele>9.0</ele><time>2026-04-25T14:24:40.854Z</time></trkpt><trkpt lat="34.2480178" lon="10.0347435"><ele>9.0</ele><time>2026-04-25T14:24:41.854Z</time></trkpt><trkpt lat="34.2478654" lon="10.0345468"><ele>9.0</ele><time>2026-04-25T14:24:42.868Z</time></trkpt><trkpt lat="34.2477156" lon="10.0343557"><ele>9.0</ele><time>2026-04-25T14:24:43.85Z</time></trkpt><trkpt lat="34.2475722" lon="10.0341617"><ele>9.0</ele><time>2026-04-25T14:24:44.858Z</time></trkpt><trkpt lat="34.2474272" lon="10.0339657"><ele>9.0</ele><time>2026-04-25T14:24:45.848Z</time></trkpt><trkpt lat="34.2472753" lon="10.0337693"><ele>9.0</ele><time>2026-04-25T14:24:46.836Z</time></trkpt><trkpt lat="34.2471249" lon="10.0335717"><ele>9.0</ele><time>2026-04-25T14:24:47.857Z</time></trkpt><trkpt lat="34.2469679" lon="10.0333695"><ele>9.0</ele><time>2026-04-25T14:24:48.859Z</time></trkpt><trkpt lat="34.2468133" lon="10.0331669"><ele>10.0</ele><time>2026-04-25T14:24:49.85Z</time></trkpt><trkpt lat="34.2466579" lon="10.0329653"><ele>11.0</ele><time>2026-04-25T14:24:50.85Z</time></trkpt><trkpt lat="34.2464994" lon="10.032761"><ele>11.5</ele><time>2026-04-25T14:24:51.85Z</time></trkpt><trkpt lat="34.2463403" lon="10.0325551"><ele>12.0</ele><time>2026-04-25T14:24:52.843Z</time></trkpt><trkpt lat="34.2461827" lon="10.0323502"><ele>12.5</ele><time>2026-04-25T14:24:53.854Z</time></trkpt><trkpt lat="34.2460285" lon="10.0321421"><ele>13.0</ele><time>2026-04-25T14:24:54.849Z</time></trkpt><trkpt lat="34.2458718" lon="10.03193"><ele>13.0</ele><time>2026-04-25T14:24:55.849Z</time></trkpt><trkpt lat="34.2457173" lon="10.0317206"><ele>13.0</ele><time>2026-04-25T14:24:56.844Z</time></trkpt><trkpt lat="34.2455578" lon="10.0315123"><ele>13.0</ele><time>2026-04-25T14:24:57.853Z</time></trkpt><trkpt lat="34.2454004" lon="10.031309"><ele>13.0</ele><time>2026-04-25T14:24:58.857Z</time></trkpt><trkpt lat="34.245316" lon="10.031081"><ele>13.0</ele><time>2026-04-25T14:24:59.857Z</time></trkpt><trkpt lat="34.2451399" lon="10.0308697"><ele>15.0</ele><time>2026-04-25T14:25:00.844Z</time></trkpt><trkpt lat="34.2449771" lon="10.0306621"><ele>17.0</ele><time>2026-04-25T14:25:01.854Z</time></trkpt><trkpt lat="34.2448093" lon="10.0304533"><ele>16.5</ele><time>2026-04-25T14:25:02.849Z</time></trkpt><trkpt lat="34.2446463" lon="10.0302435"><ele>16.0</ele><time>2026-04-25T14:25:03.855Z</time></trkpt><trkpt lat="34.2444863" lon="10.0300339"><ele>16.0</ele><time>2026-04-25T14:25:04.851Z</time></trkpt><trkpt lat="34.2443245" lon="10.0298259"><ele>16.0</ele><time>2026-04-25T14:25:05.85Z</time></trkpt><trkpt lat="34.2441608" lon="10.0296152"><ele>16.0</ele><time>2026-04-25T14:25:06.859Z</time></trkpt><trkpt lat="34.2439961" lon="10.0294059"><ele>16.0</ele><time>2026-04-25T14:25:07.837Z</time></trkpt><trkpt lat="34.2438321" lon="10.0291983"><ele>15.5</ele><time>2026-04-25T14:25:08.856Z</time></trkpt><trkpt lat="34.2436675" lon="10.0289891"><ele>15.0</ele><time>2026-04-25T14:25:09.861Z</time></trkpt><trkpt lat="34.2435032" lon="10.0287828"><ele>15.0</ele><time>2026-04-25T14:25:10.848Z</time></trkpt><trkpt lat="34.2433375" lon="10.0285742"><ele>15.0</ele><time>2026-04-25T14:25:11.851Z</time></trkpt><trkpt lat="34.2431751" lon="10.0283649"><ele>15.0</ele><time>2026-04-25T14:25:12.854Z</time></trkpt><trkpt lat="34.2430123" lon="10.0281576"><ele>15.0</ele><time>2026-04-25T14:25:13.856Z</time></trkpt><trkpt lat="34.2428502" lon="10.0279453"><ele>15.0</ele><time>2026-04-25T14:25:14.844Z</time></trkpt><trkpt lat="34.2426893" lon="10.0277355"><ele>15.0</ele><time>2026-04-25T14:25:15.858Z</time></trkpt><trkpt lat="34.2425283" lon="10.0275264"><ele>15.0</ele><time>2026-04-25T14:25:16.853Z</time></trkpt><trkpt lat="34.2423666" lon="10.0273184"><ele>15.0</ele><time>2026-04-25T14:25:17.85Z</time></trkpt><trkpt lat="34.2422091" lon="10.0271124"><ele>14.5</ele><time>2026-04-25T14:25:18.851Z</time></trkpt><trkpt lat="34.2420538" lon="10.0269077"><ele>14.0</ele><time>2026-04-25T14:25:19.839Z</time></trkpt><trkpt lat="34.2419017" lon="10.026706"><ele>14.333333333333334</ele><time>2026-04-25T14:25:20.858Z</time></trkpt><trkpt lat="34.2417477" lon="10.0265094"><ele>14.666666666666668</ele><time>2026-04-25T14:25:21.857Z</time></trkpt><trkpt lat="34.2415965" lon="10.0263135"><ele>15.0</ele><time>2026-04-25T14:25:22.867Z</time></trkpt><trkpt lat="34.2414464" lon="10.0261214"><ele>15.0</ele><time>2026-04-25T14:25:23.841Z</time></trkpt><trkpt lat="34.2412968" lon="10.0259314"><ele>15.0</ele><time>2026-04-25T14:25:24.847Z</time></trkpt><trkpt lat="34.2411473" lon="10.0257391"><ele>15.0</ele><time>2026-04-25T14:25:25.854Z</time></trkpt><trkpt lat="34.2409979" lon="10.0255469"><ele>15.0</ele><time>2026-04-25T14:25:26.85Z</time></trkpt><trkpt lat="34.2408437" lon="10.0253471"><ele>15.0</ele><time>2026-04-25T14:25:27.842Z</time></trkpt><trkpt lat="34.2406868" lon="10.0251449"><ele>16.0</ele><time>2026-04-25T14:25:28.863Z</time></trkpt><trkpt lat="34.2405289" lon="10.0249384"><ele>17.0</ele><time>2026-04-25T14:25:29.858Z</time></trkpt><trkpt lat="34.2403733" lon="10.0247303"><ele>17.0</ele><time>2026-04-25T14:25:30.864Z</time></trkpt><trkpt lat="34.2402203" lon="10.0245235"><ele>17.0</ele><time>2026-04-25T14:25:31.847Z</time></trkpt><trkpt lat="34.2400657" lon="10.0243214"><ele>16.5</ele><time>2026-04-25T14:25:32.841Z</time></trkpt><trkpt lat="34.2399081" lon="10.0241189"><ele>16.0</ele><time>2026-04-25T14:25:33.852Z</time></trkpt><trkpt lat="34.2397466" lon="10.0239127"><ele>16.0</ele><time>2026-04-25T14:25:34.853Z</time></trkpt><trkpt lat="34.2395794" lon="10.0237052"><ele>16.0</ele><time>2026-04-25T14:25:35.869Z</time></trkpt><trkpt lat="34.2394144" lon="10.0234936"><ele>15.5</ele><time>2026-04-25T14:25:36.855Z</time></trkpt><trkpt lat="34.2392487" lon="10.0232787"><ele>15.0</ele><time>2026-04-25T14:25:37.848Z</time></trkpt><trkpt lat="34.2390859" lon="10.023062"><ele>15.0</ele><time>2026-04-25T14:25:38.85Z</time></trkpt><trkpt lat="34.2389218" lon="10.0228475"><ele>15.0</ele><time>2026-04-25T14:25:39.855Z</time></trkpt><trkpt lat="34.2387575" lon="10.0226306"><ele>14.0</ele><time>2026-04-25T14:25:40.846Z</time></trkpt><trkpt lat="34.23859" lon="10.022415"><ele>13.0</ele><time>2026-04-25T14:25:41.855Z</time></trkpt><trkpt lat="34.2384217" lon="10.0221982"><ele>13.0</ele><time>2026-04-25T14:25:42.861Z</time></trkpt><trkpt lat="34.2382528" lon="10.0219848"><ele>13.0</ele><time>2026-04-25T14:25:43.857Z</time></trkpt><trkpt lat="34.2380873" lon="10.0217694"><ele>11.5</ele><time>2026-04-25T14:25:44.855Z</time></trkpt><trkpt lat="34.2379207" lon="10.0215553"><ele>10.0</ele><time>2026-04-25T14:25:45.85Z</time></trkpt><trkpt lat="34.2377569" lon="10.0213405"><ele>10.0</ele><time>2026-04-25T14:25:46.853Z</time></trkpt><trkpt lat="34.237594" lon="10.0211266"><ele>10.0</ele><time>2026-04-25T14:25:47.843Z</time></trkpt><trkpt lat="34.2374289" lon="10.0209173"><ele>10.5</ele><time>2026-04-25T14:25:48.844Z</time></trkpt><trkpt lat="34.2372649" lon="10.0207047"><ele>11.0</ele><time>2026-04-25T14:25:49.859Z</time></trkpt><trkpt lat="34.2371009" lon="10.0204966"><ele>11.0</ele><time>2026-04-25T14:25:50.852Z</time></trkpt><trkpt lat="34.2369383" lon="10.0202846"><ele>11.0</ele><time>2026-04-25T14:25:51.863Z</time></trkpt><trkpt lat="34.2367734" lon="10.0200762"><ele>10.5</ele><time>2026-04-25T14:25:52.849Z</time></trkpt><trkpt lat="34.2366119" lon="10.0198667"><ele>10.0</ele><time>2026-04-25T14:25:53.844Z</time></trkpt><trkpt lat="34.2364498" lon="10.0196562"><ele>9.5</ele><time>2026-04-25T14:25:54.853Z</time></trkpt><trkpt lat="34.2362918" lon="10.0194418"><ele>9.0</ele><time>2026-04-25T14:25:55.861Z</time></trkpt><trkpt lat="34.2361301" lon="10.019229"><ele>8.5</ele><time>2026-04-25T14:25:56.843Z</time></trkpt><trkpt lat="34.2359677" lon="10.0190158"><ele>8.0</ele><time>2026-04-25T14:25:57.855Z</time></trkpt><trkpt lat="34.2358034" lon="10.0188073"><ele>8.0</ele><time>2026-04-25T14:25:58.838Z</time></trkpt><trkpt lat="34.2356405" lon="10.0185958"><ele>8.0</ele><time>2026-04-25T14:25:59.852Z</time></trkpt><trkpt lat="34.2354769" lon="10.0183807"><ele>7.0</ele><time>2026-04-25T14:26:00.844Z</time></trkpt><trkpt lat="34.2353084" lon="10.0181649"><ele>6.0</ele><time>2026-04-25T14:26:01.844Z</time></trkpt><trkpt lat="34.2351381" lon="10.0179459"><ele>6.0</ele><time>2026-04-25T14:26:02.847Z</time></trkpt><trkpt lat="34.2349681" lon="10.0177272"><ele>6.0</ele><time>2026-04-25T14:26:03.855Z</time></trkpt><trkpt lat="34.2347996" lon="10.0175063"><ele>5.5</ele><time>2026-04-25T14:26:04.855Z</time></trkpt><trkpt lat="34.2346339" lon="10.0172848"><ele>5.0</ele><time>2026-04-25T14:26:05.857Z</time></trkpt><trkpt lat="34.2344703" lon="10.017063"><ele>5.0</ele><time>2026-04-25T14:26:06.859Z</time></trkpt><trkpt lat="34.2343052" lon="10.0168488"><ele>5.0</ele><time>2026-04-25T14:26:07.847Z</time></trkpt><trkpt lat="34.2341384" lon="10.0166345"><ele>4.5</ele><time>2026-04-25T14:26:08.845Z</time></trkpt><trkpt lat="34.2339716" lon="10.016426"><ele>4.0</ele><time>2026-04-25T14:26:09.843Z</time></trkpt><trkpt lat="34.2338072" lon="10.0162129"><ele>4.0</ele><time>2026-04-25T14:26:10.849Z</time></trkpt><trkpt lat="34.2336426" lon="10.0160044"><ele>4.0</ele><time>2026-04-25T14:26:11.852Z</time></trkpt><trkpt lat="34.2334802" lon="10.0157911"><ele>4.0</ele><time>2026-04-25T14:26:12.85Z</time></trkpt><trkpt lat="34.2333168" lon="10.0155797"><ele>4.0</ele><time>2026-04-25T14:26:13.859Z</time></trkpt><trkpt lat="34.2331507" lon="10.0153633"><ele>3.5</ele><time>2026-04-25T14:26:14.86Z</time></trkpt><trkpt lat="34.2329852" lon="10.0151478"><ele>3.0</ele><time>2026-04-25T14:26:15.85Z</time></trkpt><trkpt lat="34.2328189" lon="10.0149303"><ele>3.0</ele><time>2026-04-25T14:26:16.844Z</time></trkpt><trkpt lat="34.2326493" lon="10.0147138"><ele>3.0</ele><time>2026-04-25T14:26:17.849Z</time></trkpt><trkpt lat="34.2324828" lon="10.0144947"><ele>3.0</ele><time>2026-04-25T14:26:18.839Z</time></trkpt><trkpt lat="34.2323138" lon="10.0142749"><ele>3.0</ele><time>2026-04-25T14:26:19.857Z</time></trkpt><trkpt lat="34.2321442" lon="10.0140546"><ele>3.0</ele><time>2026-04-25T14:26:20.858Z</time></trkpt><trkpt lat="34.2319771" lon="10.0138332"><ele>3.0</ele><time>2026-04-25T14:26:21.858Z</time></trkpt><trkpt lat="34.231809" lon="10.0136156"><ele>3.0</ele><time>2026-04-25T14:26:22.846Z</time></trkpt><trkpt lat="34.2316388" lon="10.0133976"><ele>3.0</ele><time>2026-04-25T14:26:23.849Z</time></trkpt><trkpt lat="34.2314698" lon="10.0131797"><ele>4.0</ele><time>2026-04-25T14:26:24.848Z</time></trkpt><trkpt lat="34.2313037" lon="10.012964"><ele>5.0</ele><time>2026-04-25T14:26:25.862Z</time></trkpt><trkpt lat="34.231137" lon="10.0127494"><ele>5.0</ele><time>2026-04-25T14:26:26.845Z</time></trkpt><trkpt lat="34.2309726" lon="10.0125365"><ele>5.0</ele><time>2026-04-25T14:26:27.847Z</time></trkpt><trkpt lat="34.2308097" lon="10.0123269"><ele>4.5</ele><time>2026-04-25T14:26:28.848Z</time></trkpt><trkpt lat="34.2306492" lon="10.0121167"><ele>4.0</ele><time>2026-04-25T14:26:29.85Z</time></trkpt><trkpt lat="34.2304887" lon="10.0119091"><ele>3.5</ele><time>2026-04-25T14:26:30.855Z</time></trkpt><trkpt lat="34.2303303" lon="10.0117026"><ele>3.0</ele><time>2026-04-25T14:26:31.843Z</time></trkpt><trkpt lat="34.2301758" lon="10.0114968"><ele>3.0</ele><time>2026-04-25T14:26:32.842Z</time></trkpt><trkpt lat="34.2300228" lon="10.0112934"><ele>3.0</ele><time>2026-04-25T14:26:33.852Z</time></trkpt><trkpt lat="34.2298714" lon="10.0110934"><ele>3.333333333333333</ele><time>2026-04-25T14:26:34.847Z</time></trkpt><trkpt lat="34.2297193" lon="10.0108971"><ele>3.6666666666666665</ele><time>2026-04-25T14:26:35.854Z</time></trkpt><trkpt lat="34.2295712" lon="10.0107013"><ele>4.0</ele><time>2026-04-25T14:26:36.857Z</time></trkpt><trkpt lat="34.2294252" lon="10.0105076"><ele>4.0</ele><time>2026-04-25T14:26:37.847Z</time></trkpt><trkpt lat="34.2292803" lon="10.0103159"><ele>4.0</ele><time>2026-04-25T14:26:38.841Z</time></trkpt><trkpt lat="34.2291336" lon="10.0101256"><ele>4.0</ele><time>2026-04-25T14:26:39.87Z</time></trkpt><trkpt lat="34.2289869" lon="10.0099328"><ele>3.6666666666666665</ele><time>2026-04-25T14:26:40.863Z</time></trkpt><trkpt lat="34.2288391" lon="10.0097414"><ele>3.333333333333333</ele><time>2026-04-25T14:26:41.861Z</time></trkpt><trkpt lat="34.2286883" lon="10.0095497"><ele>3.0</ele><time>2026-04-25T14:26:42.863Z</time></trkpt><trkpt lat="34.2285384" lon="10.0093595"><ele>3.0</ele><time>2026-04-25T14:26:43.852Z</time></trkpt><trkpt lat="34.2283901" lon="10.0091677"><ele>3.0</ele><time>2026-04-25T14:26:44.843Z</time></trkpt><trkpt lat="34.2282418" lon="10.0089745"><ele>3.0</ele><time>2026-04-25T14:26:45.867Z</time></trkpt><trkpt lat="34.2280944" lon="10.0087806"><ele>3.0</ele><time>2026-04-25T14:26:46.856Z</time></trkpt><trkpt lat="34.2279488" lon="10.0085878"><ele>3.0</ele><time>2026-04-25T14:26:47.834Z</time></trkpt><trkpt lat="34.2278039" lon="10.0083985"><ele>3.0</ele><time>2026-04-25T14:26:48.838Z</time></trkpt><trkpt lat="34.2276604" lon="10.0082113"><ele>3.333333333333333</ele><time>2026-04-25T14:26:49.847Z</time></trkpt><trkpt lat="34.2275172" lon="10.0080282"><ele>3.6666666666666665</ele><time>2026-04-25T14:26:50.831Z</time></trkpt><trkpt lat="34.2273748" lon="10.0078454"><ele>4.0</ele><time>2026-04-25T14:26:51.845Z</time></trkpt><trkpt lat="34.2272346" lon="10.0076631"><ele>4.333333333333333</ele><time>2026-04-25T14:26:52.839Z</time></trkpt><trkpt lat="34.2270966" lon="10.0074818"><ele>4.666666666666667</ele><time>2026-04-25T14:26:53.845Z</time></trkpt><trkpt lat="34.22696" lon="10.007301"><ele>5.0</ele><time>2026-04-25T14:26:54.853Z</time></trkpt><trkpt lat="34.2268238" lon="10.0071229"><ele>5.0</ele><time>2026-04-25T14:26:55.863Z</time></trkpt><trkpt lat="34.2266863" lon="10.006946"><ele>5.0</ele><time>2026-04-25T14:26:56.858Z</time></trkpt><trkpt lat="34.2265493" lon="10.0067705"><ele>5.0</ele><time>2026-04-25T14:26:57.859Z</time></trkpt><trkpt lat="34.2264116" lon="10.006593"><ele>4.666666666666667</ele><time>2026-04-25T14:26:58.842Z</time></trkpt><trkpt lat="34.2262733" lon="10.0064107"><ele>4.333333333333333</ele><time>2026-04-25T14:26:59.847Z</time></trkpt><trkpt lat="34.2261319" lon="10.0062272"><ele>4.0</ele><time>2026-04-25T14:27:00.85Z</time></trkpt><trkpt lat="34.2259886" lon="10.0060415"><ele>4.0</ele><time>2026-04-25T14:27:01.857Z</time></trkpt><trkpt lat="34.225842" lon="10.0058571"><ele>4.0</ele><time>2026-04-25T14:27:02.845Z</time></trkpt><trkpt lat="34.2256921" lon="10.0056774"><ele>4.0</ele><time>2026-04-25T14:27:03.852Z</time></trkpt><trkpt lat="34.2255341" lon="10.0055058"><ele>4.0</ele><time>2026-04-25T14:27:04.845Z</time></trkpt><trkpt lat="34.2253703" lon="10.0053431"><ele>4.0</ele><time>2026-04-25T14:27:05.852Z</time></trkpt><trkpt lat="34.2252053" lon="10.0051853"><ele>4.0</ele><time>2026-04-25T14:27:06.845Z</time></trkpt><trkpt lat="34.2250395" lon="10.0050276"><ele>4.0</ele><time>2026-04-25T14:27:07.847Z</time></trkpt><trkpt lat="34.2248713" lon="10.0048701"><ele>4.0</ele><time>2026-04-25T14:27:08.844Z</time></trkpt><trkpt lat="34.2247021" lon="10.0047153"><ele>4.0</ele><time>2026-04-25T14:27:09.847Z</time></trkpt><trkpt lat="34.2245329" lon="10.004562"><ele>4.0</ele><time>2026-04-25T14:27:10.849Z</time></trkpt><trkpt lat="34.2243676" lon="10.0044104"><ele>4.0</ele><time>2026-04-25T14:27:11.861Z</time></trkpt><trkpt lat="34.2242027" lon="10.0042608"><ele>4.0</ele><time>2026-04-25T14:27:12.841Z</time></trkpt><trkpt lat="34.2240389" lon="10.0041091"><ele>4.333333333333333</ele><time>2026-04-25T14:27:13.856Z</time></trkpt><trkpt lat="34.2238779" lon="10.0039578"><ele>4.666666666666667</ele><time>2026-04-25T14:27:14.839Z</time></trkpt><trkpt lat="34.2237178" lon="10.0038086"><ele>5.0</ele><time>2026-04-25T14:27:15.842Z</time></trkpt><trkpt lat="34.2235599" lon="10.0036589"><ele>5.0</ele><time>2026-04-25T14:27:16.842Z</time></trkpt><trkpt lat="34.2234032" lon="10.0035096"><ele>5.0</ele><time>2026-04-25T14:27:17.843Z</time></trkpt><trkpt lat="34.2232464" lon="10.0033625"><ele>5.0</ele><time>2026-04-25T14:27:18.849Z</time></trkpt><trkpt lat="34.2230881" lon="10.0032165"><ele>5.0</ele><time>2026-04-25T14:27:19.854Z</time></trkpt><trkpt lat="34.2229321" lon="10.0030721"><ele>5.0</ele><time>2026-04-25T14:27:20.844Z</time></trkpt><trkpt lat="34.222774" lon="10.002931"><ele>5.0</ele><time>2026-04-25T14:27:21.863Z</time></trkpt><trkpt lat="34.2226191" lon="10.0027867"><ele>5.0</ele><time>2026-04-25T14:27:22.848Z</time></trkpt><trkpt lat="34.2224652" lon="10.0026389"><ele>5.0</ele><time>2026-04-25T14:27:23.847Z</time></trkpt><trkpt lat="34.2223101" lon="10.0024913"><ele>5.0</ele><time>2026-04-25T14:27:24.846Z</time></trkpt><trkpt lat="34.2221556" lon="10.0023446"><ele>5.333333333333334</ele><time>2026-04-25T14:27:25.854Z</time></trkpt><trkpt lat="34.2220002" lon="10.0021986"><ele>5.666666666666667</ele><time>2026-04-25T14:27:26.851Z</time></trkpt><trkpt lat="34.2218421" lon="10.0020515"><ele>6.0</ele><time>2026-04-25T14:27:27.856Z</time></trkpt><trkpt lat="34.2216825" lon="10.0019039"><ele>6.0</ele><time>2026-04-25T14:27:28.851Z</time></trkpt><trkpt lat="34.2215207" lon="10.0017555"><ele>6.0</ele><time>2026-04-25T14:27:29.845Z</time></trkpt><trkpt lat="34.2213563" lon="10.0016029"><ele>6.0</ele><time>2026-04-25T14:27:30.835Z</time></trkpt><trkpt lat="34.2211902" lon="10.0014485"><ele>6.666666666666666</ele><time>2026-04-25T14:27:31.851Z</time></trkpt><trkpt lat="34.2210229" lon="10.0012931"><ele>7.333333333333333</ele><time>2026-04-25T14:27:32.843Z</time></trkpt><trkpt lat="34.2208524" lon="10.0011394"><ele>8.0</ele><time>2026-04-25T14:27:33.854Z</time></trkpt><trkpt lat="34.2206824" lon="10.0009834"><ele>8.0</ele><time>2026-04-25T14:27:34.845Z</time></trkpt><trkpt lat="34.2205113" lon="10.0008269"><ele>8.0</ele><time>2026-04-25T14:27:35.845Z</time></trkpt><trkpt lat="34.2203402" lon="10.00067"><ele>8.0</ele><time>2026-04-25T14:27:36.852Z</time></trkpt><trkpt lat="34.2201753" lon="10.0005138"><ele>8.0</ele><time>2026-04-25T14:27:37.847Z</time></trkpt><trkpt lat="34.2200163" lon="10.0003679"><ele>8.0</ele><time>2026-04-25T14:27:38.837Z</time></trkpt><trkpt lat="34.2198686" lon="10.000233"><ele>8.0</ele><time>2026-04-25T14:27:39.846Z</time></trkpt><trkpt lat="34.219737" lon="10.0001115"><ele>8.0</ele><time>2026-04-25T14:27:40.865Z</time></trkpt><trkpt lat="34.2196216" lon="9.9999998"><ele>8.0</ele><time>2026-04-25T14:27:41.867Z</time></trkpt><trkpt lat="34.2195182" lon="9.9998997"><ele>8.0</ele><time>2026-04-25T14:27:42.847Z</time></trkpt><trkpt lat="34.2194266" lon="9.9998158"><ele>8.0</ele><time>2026-04-25T14:27:43.855Z</time></trkpt><trkpt lat="34.2193495" lon="9.9997439"><ele>8.0</ele><time>2026-04-25T14:27:44.851Z</time></trkpt><trkpt lat="34.2192803" lon="9.9996899"><ele>8.0</ele><time>2026-04-25T14:27:45.855Z</time></trkpt><trkpt lat="34.2191798" lon="9.9995977"><ele>8.0</ele><time>2026-04-25T14:27:47.85Z</time></trkpt><trkpt lat="34.2191152" lon="9.9995282"><ele>8.0</ele><time>2026-04-25T14:27:48.851Z</time></trkpt><trkpt lat="34.2190383" lon="9.9994436"><ele>8.0</ele><time>2026-04-25T14:27:49.855Z</time></trkpt><trkpt lat="34.2189555" lon="9.999363"><ele>8.0</ele><time>2026-04-25T14:27:50.846Z</time></trkpt><trkpt lat="34.2188683" lon="9.9992831"><ele>8.0</ele><time>2026-04-25T14:27:51.844Z</time></trkpt><trkpt lat="34.2187813" lon="9.9992025"><ele>8.0</ele><time>2026-04-25T14:27:52.853Z</time></trkpt><trkpt lat="34.218697" lon="9.9991202"><ele>8.0</ele><time>2026-04-25T14:27:53.851Z</time></trkpt><trkpt lat="34.2186048" lon="9.9990337"><ele>8.0</ele><time>2026-04-25T14:27:54.849Z</time></trkpt><trkpt lat="34.2185121" lon="9.998946"><ele>8.0</ele><time>2026-04-25T14:27:55.858Z</time></trkpt><trkpt lat="34.2184196" lon="9.998859"><ele>8.0</ele><time>2026-04-25T14:27:56.853Z</time></trkpt><trkpt lat="34.2183294" lon="9.9987733"><ele>8.0</ele><time>2026-04-25T14:27:57.858Z</time></trkpt><trkpt lat="34.2182388" lon="9.9986889"><ele>8.0</ele><time>2026-04-25T14:27:58.85Z</time></trkpt><trkpt lat="34.2181507" lon="9.9986061"><ele>8.0</ele><time>2026-04-25T14:27:59.857Z</time></trkpt><trkpt lat="34.2180656" lon="9.9985239"><ele>8.0</ele><time>2026-04-25T14:28:00.861Z</time></trkpt><trkpt lat="34.2179832" lon="9.9984437"><ele>8.0</ele><time>2026-04-25T14:28:01.854Z</time></trkpt><trkpt lat="34.2179045" lon="9.9983699"><ele>8.0</ele><time>2026-04-25T14:28:02.858Z</time></trkpt><trkpt lat="34.2178305" lon="9.9983006"><ele>8.0</ele><time>2026-04-25T14:28:03.842Z</time></trkpt><trkpt lat="34.2177604" lon="9.998233"><ele>7.999999999999999</ele><time>2026-04-25T14:28:04.848Z</time></trkpt><trkpt lat="34.217691" lon="9.9981663"><ele>8.0</ele><time>2026-04-25T14:28:05.852Z</time></trkpt><trkpt lat="34.217626" lon="9.9981026"><ele>8.0</ele><time>2026-04-25T14:28:06.851Z</time></trkpt><trkpt lat="34.2175628" lon="9.9980387"><ele>8.0</ele><time>2026-04-25T14:28:07.846Z</time></trkpt><trkpt lat="34.2174971" lon="9.9979711"><ele>7.999999999999999</ele><time>2026-04-25T14:28:08.856Z</time></trkpt><trkpt lat="34.2174315" lon="9.997908"><ele>8.0</ele><time>2026-04-25T14:28:09.856Z</time></trkpt><trkpt lat="34.2173629" lon="9.997852"><ele>8.166666666666666</ele><time>2026-04-25T14:28:10.855Z</time></trkpt><trkpt lat="34.2172988" lon="9.9977953"><ele>8.333333333333332</ele><time>2026-04-25T14:28:11.867Z</time></trkpt><trkpt lat="34.2172412" lon="9.9977408"><ele>8.5</ele><time>2026-04-25T14:28:12.857Z</time></trkpt><trkpt lat="34.2171513" lon="9.9976593"><ele>8.666666666666666</ele><time>2026-04-25T14:28:14.867Z</time></trkpt><trkpt lat="34.2170723" lon="9.9975901"><ele>8.833333333333334</ele><time>2026-04-25T14:28:16.841Z</time></trkpt><trkpt lat="34.2170038" lon="9.9975256"><ele>9.0</ele><time>2026-04-25T14:28:18.832Z</time></trkpt><trkpt lat="34.2169385" lon="9.9974631"><ele>9.0</ele><time>2026-04-25T14:28:20.848Z</time></trkpt><trkpt lat="34.216845" lon="9.997381"><ele>9.0</ele><time>2026-04-25T14:28:22.836Z</time></trkpt><trkpt lat="34.2167591" lon="9.9973072"><ele>9.0</ele><time>2026-04-25T14:28:24.856Z</time></trkpt><trkpt lat="34.216661" lon="9.997221"><ele>9.0</ele><time>2026-04-25T14:28:26.878Z</time></trkpt><trkpt lat="34.216607" lon="9.9971628"><ele>9.0</ele><time>2026-04-25T14:28:27.857Z</time></trkpt><trkpt lat="34.2165486" lon="9.997103"><ele>9.166666666666666</ele><time>2026-04-25T14:28:28.89Z</time></trkpt><trkpt lat="34.216486" lon="9.9970458"><ele>9.333333333333334</ele><time>2026-04-25T14:28:29.871Z</time></trkpt><trkpt lat="34.2164212" lon="9.9969849"><ele>9.5</ele><time>2026-04-25T14:28:30.864Z</time></trkpt><trkpt lat="34.216359" lon="9.9969308"><ele>9.666666666666668</ele><time>2026-04-25T14:28:31.859Z</time></trkpt><trkpt lat="34.2162985" lon="9.996877"><ele>9.833333333333334</ele><time>2026-04-25T14:28:32.856Z</time></trkpt><trkpt lat="34.2162389" lon="9.9968252"><ele>10.0</ele><time>2026-04-25T14:28:33.857Z</time></trkpt><trkpt lat="34.2161793" lon="9.9967776"><ele>10.0</ele><time>2026-04-25T14:28:34.842Z</time></trkpt><trkpt lat="34.2161219" lon="9.9967355"><ele>10.0</ele><time>2026-04-25T14:28:35.85Z</time></trkpt><trkpt lat="34.2160636" lon="9.9966884"><ele>10.0</ele><time>2026-04-25T14:28:36.848Z</time></trkpt><trkpt lat="34.2160064" lon="9.9966396"><ele>10.0</ele><time>2026-04-25T14:28:37.855Z</time></trkpt><trkpt lat="34.2159513" lon="9.9965913"><ele>10.0</ele><time>2026-04-25T14:28:38.847Z</time></trkpt><trkpt lat="34.2158944" lon="9.9965423"><ele>10.0</ele><time>2026-04-25T14:28:39.856Z</time></trkpt><trkpt lat="34.2158266" lon="9.9964888"><ele>10.0</ele><time>2026-04-25T14:28:40.848Z</time></trkpt><trkpt lat="34.2157492" lon="9.9964316"><ele>10.166666666666668</ele><time>2026-04-25T14:28:41.863Z</time></trkpt><trkpt lat="34.2156806" lon="9.9963752"><ele>10.333333333333334</ele><time>2026-04-25T14:28:42.863Z</time></trkpt><trkpt lat="34.2156182" lon="9.9963209"><ele>10.5</ele><time>2026-04-25T14:28:43.843Z</time></trkpt><trkpt lat="34.2155651" lon="9.9962798"><ele>10.666666666666666</ele><time>2026-04-25T14:28:44.849Z</time></trkpt><trkpt lat="34.2154782" lon="9.9962266"><ele>10.833333333333332</ele><time>2026-04-25T14:28:46.86Z</time></trkpt><trkpt lat="34.2154134" lon="9.9961894"><ele>11.0</ele><time>2026-04-25T14:28:48.854Z</time></trkpt><trkpt lat="34.215314" lon="9.9961475"><ele>11.0</ele><time>2026-04-25T14:28:51.864Z</time></trkpt><trkpt lat="34.2152031" lon="9.9960974"><ele>11.0</ele><time>2026-04-25T14:28:53.862Z</time></trkpt><trkpt lat="34.2150855" lon="9.9960476"><ele>11.0</ele><time>2026-04-25T14:28:55.846Z</time></trkpt><trkpt lat="34.215019" lon="9.9960196"><ele>11.0</ele><time>2026-04-25T14:28:56.863Z</time></trkpt><trkpt lat="34.2149457" lon="9.9959806"><ele>11.0</ele><time>2026-04-25T14:28:57.868Z</time></trkpt><trkpt lat="34.21487" lon="9.9959349"><ele>10.833333333333332</ele><time>2026-04-25T14:28:58.858Z</time></trkpt><trkpt lat="34.2147984" lon="9.9958916"><ele>10.666666666666666</ele><time>2026-04-25T14:28:59.86Z</time></trkpt><trkpt lat="34.2147191" lon="9.9958509"><ele>10.5</ele><time>2026-04-25T14:29:00.863Z</time></trkpt><trkpt lat="34.2146373" lon="9.9958148"><ele>10.333333333333334</ele><time>2026-04-25T14:29:01.858Z</time></trkpt><trkpt lat="34.2145576" lon="9.9957774"><ele>10.166666666666668</ele><time>2026-04-25T14:29:02.86Z</time></trkpt><trkpt lat="34.2144821" lon="9.9957447"><ele>10.0</ele><time>2026-04-25T14:29:03.85Z</time></trkpt><trkpt lat="34.214418" lon="9.9957167"><ele>10.333333333333334</ele><time>2026-04-25T14:29:04.859Z</time></trkpt><trkpt lat="34.2143296" lon="9.9956831"><ele>10.666666666666668</ele><time>2026-04-25T14:29:06.861Z</time></trkpt><trkpt lat="34.2142592" lon="9.9956569"><ele>11.0</ele><time>2026-04-25T14:29:08.852Z</time></trkpt><trkpt lat="34.2141989" lon="9.9956282"><ele>11.333333333333334</ele><time>2026-04-25T14:29:10.858Z</time></trkpt><trkpt lat="34.214119" lon="9.9955976"><ele>11.666666666666666</ele><time>2026-04-25T14:29:12.855Z</time></trkpt><trkpt lat="34.2140282" lon="9.9955625"><ele>12.0</ele><time>2026-04-25T14:29:14.864Z</time></trkpt><trkpt lat="34.2139205" lon="9.9955179"><ele>12.0</ele><time>2026-04-25T14:29:16.856Z</time></trkpt><trkpt lat="34.2138081" lon="9.9954721"><ele>12.0</ele><time>2026-04-25T14:29:18.869Z</time></trkpt><trkpt lat="34.2136933" lon="9.9954158"><ele>12.0</ele><time>2026-04-25T14:29:20.848Z</time></trkpt><trkpt lat="34.2136266" lon="9.9953874"><ele>12.0</ele><time>2026-04-25T14:29:21.852Z</time></trkpt><trkpt lat="34.2135579" lon="9.995358"><ele>12.0</ele><time>2026-04-25T14:29:22.863Z</time></trkpt><trkpt lat="34.213487" lon="9.9953298"><ele>12.0</ele><time>2026-04-25T14:29:23.874Z</time></trkpt><trkpt lat="34.2134106" lon="9.995296"><ele>12.0</ele><time>2026-04-25T14:29:24.859Z</time></trkpt><trkpt lat="34.2133316" lon="9.9952588"><ele>12.0</ele><time>2026-04-25T14:29:25.856Z</time></trkpt><trkpt lat="34.2132519" lon="9.995221"><ele>12.0</ele><time>2026-04-25T14:29:26.843Z</time></trkpt><trkpt lat="34.2131717" lon="9.9951883"><ele>12.0</ele><time>2026-04-25T14:29:27.853Z</time></trkpt><trkpt lat="34.2130909" lon="9.9951564"><ele>12.0</ele><time>2026-04-25T14:29:28.856Z</time></trkpt><trkpt lat="34.2130065" lon="9.9951205"><ele>12.0</ele><time>2026-04-25T14:29:29.847Z</time></trkpt><trkpt lat="34.2129174" lon="9.9950824"><ele>12.0</ele><time>2026-04-25T14:29:30.868Z</time></trkpt><trkpt lat="34.2128229" lon="9.9950418"><ele>12.0</ele><time>2026-04-25T14:29:31.855Z</time></trkpt><trkpt lat="34.2127289" lon="9.995004"><ele>12.0</ele><time>2026-04-25T14:29:32.86Z</time></trkpt><trkpt lat="34.2126367" lon="9.9949662"><ele>12.0</ele><time>2026-04-25T14:29:33.866Z</time></trkpt><trkpt lat="34.2125491" lon="9.9949274"><ele>12.0</ele><time>2026-04-25T14:29:34.846Z</time></trkpt><trkpt lat="34.2124696" lon="9.9948928"><ele>12.0</ele><time>2026-04-25T14:29:35.86Z</time></trkpt><trkpt lat="34.2123911" lon="9.9948605"><ele>12.0</ele><time>2026-04-25T14:29:36.859Z</time></trkpt><trkpt lat="34.2123181" lon="9.9948341"><ele>12.0</ele><time>2026-04-25T14:29:37.849Z</time></trkpt><trkpt lat="34.2122515" lon="9.9948089"><ele>12.0</ele><time>2026-04-25T14:29:38.865Z</time></trkpt><trkpt lat="34.2121892" lon="9.9947838"><ele>12.0</ele><time>2026-04-25T14:29:39.849Z</time></trkpt><trkpt lat="34.2120802" lon="9.9947378"><ele>12.0</ele><time>2026-04-25T14:29:41.856Z</time></trkpt><trkpt lat="34.2119835" lon="9.9947015"><ele>12.0</ele><time>2026-04-25T14:29:43.857Z</time></trkpt><trkpt lat="34.2118786" lon="9.9946547"><ele>12.0</ele><time>2026-04-25T14:29:45.868Z</time></trkpt><trkpt lat="34.2118087" lon="9.9946284"><ele>12.0</ele><time>2026-04-25T14:29:46.85Z</time></trkpt><trkpt lat="34.2117272" lon="9.994596"><ele>12.0</ele><time>2026-04-25T14:29:47.86Z</time></trkpt><trkpt lat="34.2116381" lon="9.9945565"><ele>12.0</ele><time>2026-04-25T14:29:48.851Z</time></trkpt><trkpt lat="34.2115408" lon="9.9945142"><ele>12.0</ele><time>2026-04-25T14:29:49.853Z</time></trkpt><trkpt lat="34.2114348" lon="9.9944705"><ele>12.0</ele><time>2026-04-25T14:29:50.86Z</time></trkpt><trkpt lat="34.2113267" lon="9.9944269"><ele>12.0</ele><time>2026-04-25T14:29:51.855Z</time></trkpt><trkpt lat="34.2112177" lon="9.994383"><ele>12.0</ele><time>2026-04-25T14:29:52.865Z</time></trkpt><trkpt lat="34.2111098" lon="9.9943404"><ele>12.5</ele><time>2026-04-25T14:29:53.86Z</time></trkpt><trkpt lat="34.2110009" lon="9.9942978"><ele>13.0</ele><time>2026-04-25T14:29:54.868Z</time></trkpt><trkpt lat="34.2108922" lon="9.9942556"><ele>13.5</ele><time>2026-04-25T14:29:55.857Z</time></trkpt><trkpt lat="34.2107867" lon="9.9942167"><ele>14.0</ele><time>2026-04-25T14:29:56.859Z</time></trkpt><trkpt lat="34.2106795" lon="9.9941816"><ele>14.75</ele><time>2026-04-25T14:29:57.847Z</time></trkpt><trkpt lat="34.2105703" lon="9.994146"><ele>15.5</ele><time>2026-04-25T14:29:58.858Z</time></trkpt><trkpt lat="34.2104624" lon="9.9941147"><ele>16.25</ele><time>2026-04-25T14:29:59.854Z</time></trkpt><trkpt lat="34.2103544" lon="9.9940858"><ele>17.0</ele><time>2026-04-25T14:30:00.867Z</time></trkpt><trkpt lat="34.2102415" lon="9.9940595"><ele>17.0</ele><time>2026-04-25T14:30:01.862Z</time></trkpt><trkpt lat="34.2101096" lon="9.9940366"><ele>17.0</ele><time>2026-04-25T14:30:02.873Z</time></trkpt><trkpt lat="34.209946" lon="9.9940141"><ele>17.0</ele><time>2026-04-25T14:30:03.857Z</time></trkpt><trkpt lat="34.2097564" lon="9.9939881"><ele>17.0</ele><time>2026-04-25T14:30:04.857Z</time></trkpt><trkpt lat="34.2095509" lon="9.9939539"><ele>17.0</ele><time>2026-04-25T14:30:05.861Z</time></trkpt><trkpt lat="34.2093555" lon="9.9939185"><ele>17.0</ele><time>2026-04-25T14:30:06.86Z</time></trkpt><trkpt lat="34.2091744" lon="9.9938785"><ele>17.0</ele><time>2026-04-25T14:30:07.852Z</time></trkpt><trkpt lat="34.2089972" lon="9.9938374"><ele>17.0</ele><time>2026-04-25T14:30:08.86Z</time></trkpt><trkpt lat="34.2088201" lon="9.9937981"><ele>17.0</ele><time>2026-04-25T14:30:09.858Z</time></trkpt><trkpt lat="34.2086456" lon="9.9937665"><ele>16.333333333333336</ele><time>2026-04-25T14:30:10.833Z</time></trkpt><trkpt lat="34.208471" lon="9.9937358"><ele>15.666666666666668</ele><time>2026-04-25T14:30:11.843Z</time></trkpt><trkpt lat="34.2082972" lon="9.9937084"><ele>15.0</ele><time>2026-04-25T14:30:12.843Z</time></trkpt><trkpt lat="34.2081208" lon="9.9936788"><ele>15.0</ele><time>2026-04-25T14:30:13.847Z</time></trkpt><trkpt lat="34.2079449" lon="9.9936494"><ele>15.0</ele><time>2026-04-25T14:30:14.843Z</time></trkpt><trkpt lat="34.2077679" lon="9.9936185"><ele>15.0</ele><time>2026-04-25T14:30:15.869Z</time></trkpt><trkpt lat="34.2075916" lon="9.9935872"><ele>15.0</ele><time>2026-04-25T14:30:16.85Z</time></trkpt><trkpt lat="34.2074147" lon="9.9935562"><ele>15.0</ele><time>2026-04-25T14:30:17.855Z</time></trkpt><trkpt lat="34.2072375" lon="9.9935276"><ele>15.0</ele><time>2026-04-25T14:30:18.855Z</time></trkpt><trkpt lat="34.2070592" lon="9.9934974"><ele>14.666666666666668</ele><time>2026-04-25T14:30:19.85Z</time></trkpt><trkpt lat="34.2068789" lon="9.9934661"><ele>14.333333333333334</ele><time>2026-04-25T14:30:20.86Z</time></trkpt><trkpt lat="34.2066981" lon="9.9934353"><ele>14.0</ele><time>2026-04-25T14:30:21.868Z</time></trkpt><trkpt lat="34.2065172" lon="9.9934044"><ele>14.0</ele><time>2026-04-25T14:30:22.852Z</time></trkpt><trkpt lat="34.2063349" lon="9.9933733"><ele>14.0</ele><time>2026-04-25T14:30:23.87Z</time></trkpt><trkpt lat="34.206153" lon="9.9933401"><ele>14.0</ele><time>2026-04-25T14:30:24.868Z</time></trkpt><trkpt lat="34.2059705" lon="9.9933084"><ele>14.0</ele><time>2026-04-25T14:30:25.859Z</time></trkpt><trkpt lat="34.2057905" lon="9.9932794"><ele>14.0</ele><time>2026-04-25T14:30:26.866Z</time></trkpt><trkpt lat="34.2056089" lon="9.9932474"><ele>14.0</ele><time>2026-04-25T14:30:27.859Z</time></trkpt><trkpt lat="34.2054294" lon="9.993214"><ele>13.666666666666668</ele><time>2026-04-25T14:30:28.859Z</time></trkpt><trkpt lat="34.2052479" lon="9.993182"><ele>13.333333333333332</ele><time>2026-04-25T14:30:29.874Z</time></trkpt><trkpt lat="34.2050647" lon="9.993152"><ele>13.0</ele><time>2026-04-25T14:30:30.857Z</time></trkpt><trkpt lat="34.2048802" lon="9.9931179"><ele>13.333333333333332</ele><time>2026-04-25T14:30:31.861Z</time></trkpt><trkpt lat="34.2046968" lon="9.9930889"><ele>13.666666666666668</ele><time>2026-04-25T14:30:32.865Z</time></trkpt><trkpt lat="34.2045111" lon="9.9930581"><ele>14.0</ele><time>2026-04-25T14:30:33.845Z</time></trkpt><trkpt lat="34.2043228" lon="9.993029"><ele>14.0</ele><time>2026-04-25T14:30:34.862Z</time></trkpt><trkpt lat="34.2041278" lon="9.9929951"><ele>14.0</ele><time>2026-04-25T14:30:35.861Z</time></trkpt><trkpt lat="34.2039399" lon="9.9929651"><ele>14.0</ele><time>2026-04-25T14:30:36.87Z</time></trkpt><trkpt lat="34.2037487" lon="9.9929316"><ele>14.0</ele><time>2026-04-25T14:30:37.851Z</time></trkpt><trkpt lat="34.2035439" lon="9.9928973"><ele>14.0</ele><time>2026-04-25T14:30:38.864Z</time></trkpt><trkpt lat="34.203342" lon="9.9928605"><ele>14.0</ele><time>2026-04-25T14:30:39.857Z</time></trkpt><trkpt lat="34.2031342" lon="9.9928264"><ele>14.0</ele><time>2026-04-25T14:30:40.852Z</time></trkpt><trkpt lat="34.2029243" lon="9.9927926"><ele>14.0</ele><time>2026-04-25T14:30:41.852Z</time></trkpt><trkpt lat="34.2027141" lon="9.9927591"><ele>14.0</ele><time>2026-04-25T14:30:42.86Z</time></trkpt><trkpt lat="34.2025096" lon="9.9927273"><ele>14.0</ele><time>2026-04-25T14:30:43.865Z</time></trkpt><trkpt lat="34.2023073" lon="9.9926947"><ele>14.0</ele><time>2026-04-25T14:30:44.857Z</time></trkpt><trkpt lat="34.2021023" lon="9.9926612"><ele>14.0</ele><time>2026-04-25T14:30:45.86Z</time></trkpt><trkpt lat="34.2018974" lon="9.9926281"><ele>14.0</ele><time>2026-04-25T14:30:46.861Z</time></trkpt><trkpt lat="34.2016866" lon="9.99259"><ele>14.0</ele><time>2026-04-25T14:30:47.85Z</time></trkpt><trkpt lat="34.2014799" lon="9.9925534"><ele>14.0</ele><time>2026-04-25T14:30:48.838Z</time></trkpt><trkpt lat="34.2012734" lon="9.9925181"><ele>14.333333333333334</ele><time>2026-04-25T14:30:49.849Z</time></trkpt><trkpt lat="34.2010686" lon="9.9924834"><ele>14.666666666666668</ele><time>2026-04-25T14:30:50.845Z</time></trkpt><trkpt lat="34.200869" lon="9.9924446"><ele>15.0</ele><time>2026-04-25T14:30:51.849Z</time></trkpt><trkpt lat="34.2006702" lon="9.9923974"><ele>15.0</ele><time>2026-04-25T14:30:52.858Z</time></trkpt><trkpt lat="34.2004772" lon="9.9923423"><ele>15.0</ele><time>2026-04-25T14:30:53.856Z</time></trkpt><trkpt lat="34.2002838" lon="9.9922886"><ele>15.0</ele><time>2026-04-25T14:30:54.839Z</time></trkpt><trkpt lat="34.2000798" lon="9.9922532"><ele>15.0</ele><time>2026-04-25T14:30:55.861Z</time></trkpt><trkpt lat="34.1998713" lon="9.9922306"><ele>15.0</ele><time>2026-04-25T14:30:56.864Z</time></trkpt><trkpt lat="34.1996633" lon="9.9922"><ele>15.0</ele><time>2026-04-25T14:30:57.865Z</time></trkpt><trkpt lat="34.1994536" lon="9.9921658"><ele>15.0</ele><time>2026-04-25T14:30:58.868Z</time></trkpt><trkpt lat="34.199239" lon="9.9921319"><ele>15.0</ele><time>2026-04-25T14:30:59.858Z</time></trkpt><trkpt lat="34.1990343" lon="9.9920941"><ele>15.0</ele><time>2026-04-25T14:31:00.854Z</time></trkpt><trkpt lat="34.1988332" lon="9.9920602"><ele>15.333333333333332</ele><time>2026-04-25T14:31:01.861Z</time></trkpt><trkpt lat="34.1986331" lon="9.992028"><ele>15.666666666666666</ele><time>2026-04-25T14:31:02.857Z</time></trkpt><trkpt lat="34.1984362" lon="9.9919956"><ele>16.0</ele><time>2026-04-25T14:31:03.855Z</time></trkpt><trkpt lat="34.1982467" lon="9.9919649"><ele>16.0</ele><time>2026-04-25T14:31:04.854Z</time></trkpt><trkpt lat="34.1980566" lon="9.9919347"><ele>16.0</ele><time>2026-04-25T14:31:05.863Z</time></trkpt><trkpt lat="34.1978717" lon="9.9919032"><ele>16.0</ele><time>2026-04-25T14:31:06.853Z</time></trkpt><trkpt lat="34.1976848" lon="9.9918696"><ele>16.0</ele><time>2026-04-25T14:31:07.867Z</time></trkpt><trkpt lat="34.1974944" lon="9.9918368"><ele>16.0</ele><time>2026-04-25T14:31:08.865Z</time></trkpt><trkpt lat="34.1972422" lon="9.9917964"><ele>16.0</ele><time>2026-04-25T14:31:09.859Z</time></trkpt><trkpt lat="34.1970506" lon="9.9917652"><ele>16.333333333333332</ele><time>2026-04-25T14:31:10.863Z</time></trkpt><trkpt lat="34.1968539" lon="9.991736"><ele>16.666666666666668</ele><time>2026-04-25T14:31:11.863Z</time></trkpt><trkpt lat="34.1966548" lon="9.9917137"><ele>17.0</ele><time>2026-04-25T14:31:12.854Z</time></trkpt><trkpt lat="34.1964508" lon="9.9916907"><ele>16.666666666666668</ele><time>2026-04-25T14:31:13.857Z</time></trkpt><trkpt lat="34.1962415" lon="9.9916682"><ele>16.333333333333332</ele><time>2026-04-25T14:31:14.86Z</time></trkpt><trkpt lat="34.1960321" lon="9.9916455"><ele>16.0</ele><time>2026-04-25T14:31:15.86Z</time></trkpt><trkpt lat="34.1958173" lon="9.9916245"><ele>15.666666666666666</ele><time>2026-04-25T14:31:16.851Z</time></trkpt><trkpt lat="34.1956014" lon="9.9916026"><ele>15.333333333333332</ele><time>2026-04-25T14:31:17.846Z</time></trkpt><trkpt lat="34.1953869" lon="9.9915801"><ele>15.0</ele><time>2026-04-25T14:31:18.854Z</time></trkpt><trkpt lat="34.1951723" lon="9.9915574"><ele>15.0</ele><time>2026-04-25T14:31:19.847Z</time></trkpt><trkpt lat="34.194961" lon="9.9915357"><ele>15.0</ele><time>2026-04-25T14:31:20.856Z</time></trkpt><trkpt lat="34.1947471" lon="9.9915126"><ele>15.0</ele><time>2026-04-25T14:31:21.86Z</time></trkpt><trkpt lat="34.1945333" lon="9.9914903"><ele>14.666666666666668</ele><time>2026-04-25T14:31:22.863Z</time></trkpt><trkpt lat="34.1943198" lon="9.9914707"><ele>14.333333333333334</ele><time>2026-04-25T14:31:23.88Z</time></trkpt><trkpt lat="34.1941093" lon="9.9914502"><ele>14.0</ele><time>2026-04-25T14:31:24.857Z</time></trkpt><trkpt lat="34.1938997" lon="9.9914285"><ele>13.666666666666668</ele><time>2026-04-25T14:31:25.867Z</time></trkpt><trkpt lat="34.1936923" lon="9.9914051"><ele>13.333333333333332</ele><time>2026-04-25T14:31:26.855Z</time></trkpt><trkpt lat="34.1934848" lon="9.9913806"><ele>13.0</ele><time>2026-04-25T14:31:27.842Z</time></trkpt><trkpt lat="34.1932805" lon="9.9913551"><ele>12.333333333333332</ele><time>2026-04-25T14:31:28.852Z</time></trkpt><trkpt lat="34.1930789" lon="9.9913337"><ele>11.666666666666666</ele><time>2026-04-25T14:31:29.861Z</time></trkpt><trkpt lat="34.1928752" lon="9.9913116"><ele>11.0</ele><time>2026-04-25T14:31:30.858Z</time></trkpt><trkpt lat="34.1926744" lon="9.9912916"><ele>11.0</ele><time>2026-04-25T14:31:31.869Z</time></trkpt><trkpt lat="34.1924749" lon="9.9912688"><ele>11.0</ele><time>2026-04-25T14:31:32.863Z</time></trkpt><trkpt lat="34.1922749" lon="9.9912481"><ele>11.0</ele><time>2026-04-25T14:31:33.871Z</time></trkpt><trkpt lat="34.192077" lon="9.9912268"><ele>11.0</ele><time>2026-04-25T14:31:34.843Z</time></trkpt><trkpt lat="34.1918817" lon="9.991205"><ele>11.0</ele><time>2026-04-25T14:31:35.86Z</time></trkpt><trkpt lat="34.1916856" lon="9.9911847"><ele>11.0</ele><time>2026-04-25T14:31:36.86Z</time></trkpt><trkpt lat="34.1914894" lon="9.991166"><ele>10.666666666666666</ele><time>2026-04-25T14:31:37.863Z</time></trkpt><trkpt lat="34.1912936" lon="9.9911481"><ele>10.333333333333334</ele><time>2026-04-25T14:31:38.859Z</time></trkpt><trkpt lat="34.1910953" lon="9.9911267"><ele>10.0</ele><time>2026-04-25T14:31:39.863Z</time></trkpt><trkpt lat="34.1908969" lon="9.9911029"><ele>10.0</ele><time>2026-04-25T14:31:40.852Z</time></trkpt><trkpt lat="34.1906978" lon="9.9910801"><ele>10.0</ele><time>2026-04-25T14:31:41.867Z</time></trkpt><trkpt lat="34.1905007" lon="9.9910568"><ele>10.0</ele><time>2026-04-25T14:31:42.849Z</time></trkpt><trkpt lat="34.1903046" lon="9.9910353"><ele>9.666666666666668</ele><time>2026-04-25T14:31:43.862Z</time></trkpt><trkpt lat="34.1901088" lon="9.9910132"><ele>9.333333333333334</ele><time>2026-04-25T14:31:44.86Z</time></trkpt><trkpt lat="34.1899154" lon="9.9909924"><ele>9.0</ele><time>2026-04-25T14:31:45.874Z</time></trkpt><trkpt lat="34.1897243" lon="9.990971"><ele>9.0</ele><time>2026-04-25T14:31:46.866Z</time></trkpt><trkpt lat="34.1895346" lon="9.9909499"><ele>9.0</ele><time>2026-04-25T14:31:47.862Z</time></trkpt><trkpt lat="34.1893428" lon="9.9909289"><ele>9.0</ele><time>2026-04-25T14:31:48.855Z</time></trkpt><trkpt lat="34.1891502" lon="9.9909076"><ele>8.666666666666666</ele><time>2026-04-25T14:31:49.856Z</time></trkpt><trkpt lat="34.1889556" lon="9.9908899"><ele>8.333333333333332</ele><time>2026-04-25T14:31:50.852Z</time></trkpt><trkpt lat="34.1887613" lon="9.9908701"><ele>8.0</ele><time>2026-04-25T14:31:51.877Z</time></trkpt><trkpt lat="34.1885681" lon="9.9908532"><ele>8.333333333333332</ele><time>2026-04-25T14:31:52.858Z</time></trkpt><trkpt lat="34.1883761" lon="9.9908383"><ele>8.666666666666666</ele><time>2026-04-25T14:31:53.856Z</time></trkpt><trkpt lat="34.1881867" lon="9.9908285"><ele>9.0</ele><time>2026-04-25T14:31:54.874Z</time></trkpt><trkpt lat="34.1879969" lon="9.9908169"><ele>9.0</ele><time>2026-04-25T14:31:55.844Z</time></trkpt><trkpt lat="34.1878111" lon="9.9908056"><ele>9.0</ele><time>2026-04-25T14:31:56.854Z</time></trkpt><trkpt lat="34.1876283" lon="9.9907944"><ele>9.0</ele><time>2026-04-25T14:31:57.853Z</time></trkpt><trkpt lat="34.1874469" lon="9.9907824"><ele>8.666666666666666</ele><time>2026-04-25T14:31:58.862Z</time></trkpt><trkpt lat="34.1872661" lon="9.9907708"><ele>8.333333333333332</ele><time>2026-04-25T14:31:59.868Z</time></trkpt><trkpt lat="34.1870892" lon="9.9907585"><ele>8.0</ele><time>2026-04-25T14:32:00.857Z</time></trkpt><trkpt lat="34.1869173" lon="9.9907433"><ele>8.0</ele><time>2026-04-25T14:32:01.87Z</time></trkpt><trkpt lat="34.1867498" lon="9.9907276"><ele>8.0</ele><time>2026-04-25T14:32:02.856Z</time></trkpt><trkpt lat="34.1865869" lon="9.9907098"><ele>8.0</ele><time>2026-04-25T14:32:03.861Z</time></trkpt><trkpt lat="34.1864271" lon="9.9906921"><ele>7.666666666666666</ele><time>2026-04-25T14:32:04.849Z</time></trkpt><trkpt lat="34.1862709" lon="9.990675"><ele>7.333333333333334</ele><time>2026-04-25T14:32:05.856Z</time></trkpt><trkpt lat="34.1861177" lon="9.9906532"><ele>7.0</ele><time>2026-04-25T14:32:06.855Z</time></trkpt><trkpt lat="34.1859618" lon="9.9906328"><ele>7.0</ele><time>2026-04-25T14:32:07.871Z</time></trkpt><trkpt lat="34.1858049" lon="9.9906175"><ele>7.0</ele><time>2026-04-25T14:32:08.856Z</time></trkpt><trkpt lat="34.1856459" lon="9.9906086"><ele>7.0</ele><time>2026-04-25T14:32:09.861Z</time></trkpt><trkpt lat="34.1854857" lon="9.990602"><ele>6.666666666666667</ele><time>2026-04-25T14:32:10.861Z</time></trkpt><trkpt lat="34.1853278" lon="9.9905923"><ele>6.333333333333334</ele><time>2026-04-25T14:32:11.851Z</time></trkpt><trkpt lat="34.1851784" lon="9.9905766"><ele>6.0</ele><time>2026-04-25T14:32:12.853Z</time></trkpt><trkpt lat="34.1850335" lon="9.990562"><ele>6.0</ele><time>2026-04-25T14:32:13.846Z</time></trkpt><trkpt lat="34.1848883" lon="9.9905472"><ele>6.0</ele><time>2026-04-25T14:32:14.847Z</time></trkpt><trkpt lat="34.1847478" lon="9.9904992"><ele>6.0</ele><time>2026-04-25T14:32:15.855Z</time></trkpt><trkpt lat="34.1845987" lon="9.9904835"><ele>6.0</ele><time>2026-04-25T14:32:16.851Z</time></trkpt><trkpt lat="34.1844513" lon="9.9904641"><ele>6.0</ele><time>2026-04-25T14:32:17.857Z</time></trkpt><trkpt lat="34.1843053" lon="9.9904471"><ele>6.0</ele><time>2026-04-25T14:32:18.87Z</time></trkpt><trkpt lat="34.1841569" lon="9.9904263"><ele>6.0</ele><time>2026-04-25T14:32:19.855Z</time></trkpt><trkpt lat="34.1839991" lon="9.9904057"><ele>6.0</ele><time>2026-04-25T14:32:20.858Z</time></trkpt><trkpt lat="34.183834" lon="9.9903849"><ele>6.0</ele><time>2026-04-25T14:32:21.862Z</time></trkpt><trkpt lat="34.1836567" lon="9.9903648"><ele>6.0</ele><time>2026-04-25T14:32:22.858Z</time></trkpt><trkpt lat="34.1834721" lon="9.990345"><ele>6.0</ele><time>2026-04-25T14:32:23.871Z</time></trkpt><trkpt lat="34.183275" lon="9.990326"><ele>6.0</ele><time>2026-04-25T14:32:24.864Z</time></trkpt><trkpt lat="34.1830693" lon="9.9903088"><ele>6.0</ele><time>2026-04-25T14:32:25.863Z</time></trkpt><trkpt lat="34.1828567" lon="9.9902953"><ele>6.0</ele><time>2026-04-25T14:32:26.86Z</time></trkpt><trkpt lat="34.1826406" lon="9.9902829"><ele>6.0</ele><time>2026-04-25T14:32:27.855Z</time></trkpt><trkpt lat="34.1824224" lon="9.9902674"><ele>6.0</ele><time>2026-04-25T14:32:28.872Z</time></trkpt><trkpt lat="34.1822013" lon="9.9902512"><ele>6.333333333333334</ele><time>2026-04-25T14:32:29.869Z</time></trkpt><trkpt lat="34.1819813" lon="9.9902386"><ele>6.666666666666667</ele><time>2026-04-25T14:32:30.863Z</time></trkpt><trkpt lat="34.1817626" lon="9.9902244"><ele>7.0</ele><time>2026-04-25T14:32:31.865Z</time></trkpt><trkpt lat="34.181548" lon="9.9902046"><ele>7.333333333333334</ele><time>2026-04-25T14:32:32.864Z</time></trkpt><trkpt lat="34.1813342" lon="9.9901886"><ele>7.666666666666666</ele><time>2026-04-25T14:32:33.861Z</time></trkpt><trkpt lat="34.1811237" lon="9.9901815"><ele>8.0</ele><time>2026-04-25T14:32:34.859Z</time></trkpt><trkpt lat="34.1809163" lon="9.9901788"><ele>8.0</ele><time>2026-04-25T14:32:35.859Z</time></trkpt><trkpt lat="34.1807126" lon="9.9901772"><ele>8.0</ele><time>2026-04-25T14:32:36.854Z</time></trkpt><trkpt lat="34.1805089" lon="9.9901802"><ele>8.0</ele><time>2026-04-25T14:32:37.865Z</time></trkpt><trkpt lat="34.1803029" lon="9.9901879"><ele>8.0</ele><time>2026-04-25T14:32:38.857Z</time></trkpt><trkpt lat="34.1800986" lon="9.9901963"><ele>8.0</ele><time>2026-04-25T14:32:39.869Z</time></trkpt><trkpt lat="34.1798955" lon="9.9902077"><ele>8.0</ele><time>2026-04-25T14:32:40.869Z</time></trkpt><trkpt lat="34.1796936" lon="9.9902216"><ele>8.666666666666666</ele><time>2026-04-25T14:32:41.865Z</time></trkpt><trkpt lat="34.1794936" lon="9.9902351"><ele>9.333333333333334</ele><time>2026-04-25T14:32:42.851Z</time></trkpt><trkpt lat="34.1792927" lon="9.9902463"><ele>10.0</ele><time>2026-04-25T14:32:43.841Z</time></trkpt><trkpt lat="34.1790915" lon="9.9902575"><ele>10.333333333333334</ele><time>2026-04-25T14:32:44.858Z</time></trkpt><trkpt lat="34.1788907" lon="9.9902712"><ele>10.666666666666666</ele><time>2026-04-25T14:32:45.868Z</time></trkpt><trkpt lat="34.1786884" lon="9.9902842"><ele>11.0</ele><time>2026-04-25T14:32:46.863Z</time></trkpt><trkpt lat="34.1784861" lon="9.990298"><ele>11.0</ele><time>2026-04-25T14:32:47.863Z</time></trkpt><trkpt lat="34.1782835" lon="9.9903117"><ele>11.0</ele><time>2026-04-25T14:32:48.853Z</time></trkpt><trkpt lat="34.1780799" lon="9.9903224"><ele>11.0</ele><time>2026-04-25T14:32:49.859Z</time></trkpt><trkpt lat="34.1778747" lon="9.9903347"><ele>11.666666666666666</ele><time>2026-04-25T14:32:50.854Z</time></trkpt><trkpt lat="34.1776709" lon="9.9903459"><ele>12.333333333333332</ele><time>2026-04-25T14:32:51.864Z</time></trkpt><trkpt lat="34.1774662" lon="9.9903581"><ele>13.0</ele><time>2026-04-25T14:32:52.866Z</time></trkpt><trkpt lat="34.1772603" lon="9.9903689"><ele>13.0</ele><time>2026-04-25T14:32:53.864Z</time></trkpt><trkpt lat="34.1770551" lon="9.9903807"><ele>13.0</ele><time>2026-04-25T14:32:54.87Z</time></trkpt><trkpt lat="34.17685" lon="9.9903893"><ele>13.0</ele><time>2026-04-25T14:32:55.843Z</time></trkpt><trkpt lat="34.1766455" lon="9.9903989"><ele>13.0</ele><time>2026-04-25T14:32:56.849Z</time></trkpt><trkpt lat="34.1764404" lon="9.9904112"><ele>13.0</ele><time>2026-04-25T14:32:57.849Z</time></trkpt><trkpt lat="34.1762367" lon="9.9904258"><ele>13.0</ele><time>2026-04-25T14:32:58.85Z</time></trkpt><trkpt lat="34.1760308" lon="9.990441"><ele>13.0</ele><time>2026-04-25T14:32:59.854Z</time></trkpt><trkpt lat="34.1757991" lon="9.9904495"><ele>13.0</ele><time>2026-04-25T14:33:00.847Z</time></trkpt><trkpt lat="34.1755877" lon="9.9904642"><ele>13.0</ele><time>2026-04-25T14:33:01.847Z</time></trkpt><trkpt lat="34.1753814" lon="9.9904748"><ele>13.0</ele><time>2026-04-25T14:33:02.844Z</time></trkpt><trkpt lat="34.1751751" lon="9.9904842"><ele>13.0</ele><time>2026-04-25T14:33:03.843Z</time></trkpt><trkpt lat="34.1749703" lon="9.9904957"><ele>13.0</ele><time>2026-04-25T14:33:04.855Z</time></trkpt><trkpt lat="34.1747666" lon="9.9905087"><ele>13.0</ele><time>2026-04-25T14:33:05.866Z</time></trkpt><trkpt lat="34.174564" lon="9.9905191"><ele>13.0</ele><time>2026-04-25T14:33:06.862Z</time></trkpt><trkpt lat="34.1743621" lon="9.9905261"><ele>13.0</ele><time>2026-04-25T14:33:07.853Z</time></trkpt><trkpt lat="34.1741628" lon="9.9905365"><ele>13.0</ele><time>2026-04-25T14:33:08.854Z</time></trkpt><trkpt lat="34.1739627" lon="9.9905456"><ele>13.0</ele><time>2026-04-25T14:33:09.859Z</time></trkpt><trkpt lat="34.1737639" lon="9.9905581"><ele>13.0</ele><time>2026-04-25T14:33:10.856Z</time></trkpt><trkpt lat="34.1735693" lon="9.9905708"><ele>13.0</ele><time>2026-04-25T14:33:11.859Z</time></trkpt><trkpt lat="34.173382" lon="9.9905819"><ele>13.0</ele><time>2026-04-25T14:33:12.865Z</time></trkpt><trkpt lat="34.1732006" lon="9.9905921"><ele>13.0</ele><time>2026-04-25T14:33:13.856Z</time></trkpt><trkpt lat="34.1730226" lon="9.9906025"><ele>13.0</ele><time>2026-04-25T14:33:14.855Z</time></trkpt><trkpt lat="34.1728458" lon="9.9906122"><ele>13.0</ele><time>2026-04-25T14:33:15.858Z</time></trkpt><trkpt lat="34.1726717" lon="9.9906232"><ele>13.0</ele><time>2026-04-25T14:33:16.856Z</time></trkpt><trkpt lat="34.1725005" lon="9.9906343"><ele>13.666666666666666</ele><time>2026-04-25T14:33:17.868Z</time></trkpt><trkpt lat="34.1723337" lon="9.9906447"><ele>14.333333333333332</ele><time>2026-04-25T14:33:18.863Z</time></trkpt><trkpt lat="34.1721631" lon="9.9906569"><ele>15.0</ele><time>2026-04-25T14:33:19.863Z</time></trkpt><trkpt lat="34.1719886" lon="9.9906745"><ele>15.0</ele><time>2026-04-25T14:33:20.855Z</time></trkpt><trkpt lat="34.1718064" lon="9.9906899"><ele>15.0</ele><time>2026-04-25T14:33:21.861Z</time></trkpt><trkpt lat="34.1716141" lon="9.9907043"><ele>15.0</ele><time>2026-04-25T14:33:22.87Z</time></trkpt><trkpt lat="34.1714163" lon="9.9907196"><ele>15.666666666666668</ele><time>2026-04-25T14:33:23.867Z</time></trkpt><trkpt lat="34.1712147" lon="9.9907361"><ele>16.333333333333336</ele><time>2026-04-25T14:33:24.852Z</time></trkpt><trkpt lat="34.1710102" lon="9.9907509"><ele>17.0</ele><time>2026-04-25T14:33:25.844Z</time></trkpt><trkpt lat="34.1708033" lon="9.9907558"><ele>18.0</ele><time>2026-04-25T14:33:26.862Z</time></trkpt><trkpt lat="34.1705988" lon="9.9907584"><ele>19.0</ele><time>2026-04-25T14:33:27.853Z</time></trkpt><trkpt lat="34.1703996" lon="9.9907656"><ele>20.0</ele><time>2026-04-25T14:33:28.854Z</time></trkpt><trkpt lat="34.1702028" lon="9.9907756"><ele>20.0</ele><time>2026-04-25T14:33:29.875Z</time></trkpt><trkpt lat="34.1700097" lon="9.9907863"><ele>20.0</ele><time>2026-04-25T14:33:30.856Z</time></trkpt><trkpt lat="34.1698224" lon="9.9907969"><ele>20.0</ele><time>2026-04-25T14:33:31.87Z</time></trkpt><trkpt lat="34.1696352" lon="9.9908062"><ele>19.666666666666668</ele><time>2026-04-25T14:33:32.854Z</time></trkpt><trkpt lat="34.1694482" lon="9.9908143"><ele>19.333333333333332</ele><time>2026-04-25T14:33:33.848Z</time></trkpt><trkpt lat="34.1692599" lon="9.9908237"><ele>19.0</ele><time>2026-04-25T14:33:34.852Z</time></trkpt><trkpt lat="34.1690698" lon="9.990833"><ele>18.333333333333332</ele><time>2026-04-25T14:33:35.861Z</time></trkpt><trkpt lat="34.1688777" lon="9.9908452"><ele>17.666666666666668</ele><time>2026-04-25T14:33:36.863Z</time></trkpt><trkpt lat="34.1686866" lon="9.9908581"><ele>17.0</ele><time>2026-04-25T14:33:37.863Z</time></trkpt><trkpt lat="34.1684942" lon="9.9908744"><ele>17.0</ele><time>2026-04-25T14:33:38.86Z</time></trkpt><trkpt lat="34.1682993" lon="9.9908874"><ele>17.0</ele><time>2026-04-25T14:33:39.861Z</time></trkpt><trkpt lat="34.1681021" lon="9.9908989"><ele>17.0</ele><time>2026-04-25T14:33:40.859Z</time></trkpt><trkpt lat="34.1679024" lon="9.9909112"><ele>17.333333333333336</ele><time>2026-04-25T14:33:41.86Z</time></trkpt><trkpt lat="34.1677018" lon="9.9909255"><ele>17.666666666666668</ele><time>2026-04-25T14:33:42.847Z</time></trkpt><trkpt lat="34.1675027" lon="9.9909386"><ele>18.0</ele><time>2026-04-25T14:33:43.843Z</time></trkpt><trkpt lat="34.1673026" lon="9.9909505"><ele>18.0</ele><time>2026-04-25T14:33:44.857Z</time></trkpt><trkpt lat="34.1671019" lon="9.9909598"><ele>18.0</ele><time>2026-04-25T14:33:45.854Z</time></trkpt><trkpt lat="34.1669035" lon="9.9909726"><ele>18.0</ele><time>2026-04-25T14:33:46.867Z</time></trkpt><trkpt lat="34.1667039" lon="9.9909837"><ele>18.0</ele><time>2026-04-25T14:33:47.871Z</time></trkpt><trkpt lat="34.1665054" lon="9.9909945"><ele>18.0</ele><time>2026-04-25T14:33:48.865Z</time></trkpt><trkpt lat="34.1663029" lon="9.9910041"><ele>18.0</ele><time>2026-04-25T14:33:49.852Z</time></trkpt><trkpt lat="34.1661009" lon="9.991016"><ele>18.0</ele><time>2026-04-25T14:33:50.854Z</time></trkpt><trkpt lat="34.1658986" lon="9.9910282"><ele>18.0</ele><time>2026-04-25T14:33:51.853Z</time></trkpt><trkpt lat="34.1657" lon="9.9910366"><ele>18.0</ele><time>2026-04-25T14:33:52.869Z</time></trkpt><trkpt lat="34.1655022" lon="9.9910481"><ele>17.666666666666668</ele><time>2026-04-25T14:33:53.864Z</time></trkpt><trkpt lat="34.1653057" lon="9.9910614"><ele>17.333333333333336</ele><time>2026-04-25T14:33:54.867Z</time></trkpt><trkpt lat="34.1651088" lon="9.9910735"><ele>17.0</ele><time>2026-04-25T14:33:55.861Z</time></trkpt><trkpt lat="34.1649115" lon="9.9910837"><ele>17.0</ele><time>2026-04-25T14:33:56.849Z</time></trkpt><trkpt lat="34.1647138" lon="9.9910939"><ele>17.0</ele><time>2026-04-25T14:33:57.86Z</time></trkpt><trkpt lat="34.1645145" lon="9.9911068"><ele>17.0</ele><time>2026-04-25T14:33:58.857Z</time></trkpt><trkpt lat="34.1643129" lon="9.9911177"><ele>17.0</ele><time>2026-04-25T14:33:59.854Z</time></trkpt><trkpt lat="34.1641118" lon="9.9911256"><ele>17.0</ele><time>2026-04-25T14:34:00.864Z</time></trkpt><trkpt lat="34.1639091" lon="9.991134"><ele>17.0</ele><time>2026-04-25T14:34:01.859Z</time></trkpt><trkpt lat="34.1637068" lon="9.9911452"><ele>17.333333333333336</ele><time>2026-04-25T14:34:02.846Z</time></trkpt><trkpt lat="34.1635041" lon="9.9911573"><ele>17.666666666666668</ele><time>2026-04-25T14:34:03.848Z</time></trkpt><trkpt lat="34.1633049" lon="9.991169"><ele>18.0</ele><time>2026-04-25T14:34:04.852Z</time></trkpt><trkpt lat="34.1631063" lon="9.9911816"><ele>19.333333333333332</ele><time>2026-04-25T14:34:05.851Z</time></trkpt><trkpt lat="34.1629093" lon="9.9911949"><ele>20.666666666666664</ele><time>2026-04-25T14:34:06.855Z</time></trkpt><trkpt lat="34.1627125" lon="9.9912066"><ele>22.0</ele><time>2026-04-25T14:34:07.869Z</time></trkpt><trkpt lat="34.1625169" lon="9.9912169"><ele>22.333333333333332</ele><time>2026-04-25T14:34:08.861Z</time></trkpt><trkpt lat="34.1623207" lon="9.991228"><ele>22.666666666666668</ele><time>2026-04-25T14:34:09.862Z</time></trkpt><trkpt lat="34.162126" lon="9.9912394"><ele>23.0</ele><time>2026-04-25T14:34:10.862Z</time></trkpt><trkpt lat="34.1619314" lon="9.991251"><ele>23.0</ele><time>2026-04-25T14:34:11.856Z</time></trkpt><trkpt lat="34.1617355" lon="9.991264"><ele>23.0</ele><time>2026-04-25T14:34:12.854Z</time></trkpt><trkpt lat="34.1615397" lon="9.9912726"><ele>23.0</ele><time>2026-04-25T14:34:13.849Z</time></trkpt><trkpt lat="34.1613426" lon="9.9912842"><ele>23.0</ele><time>2026-04-25T14:34:14.865Z</time></trkpt><trkpt lat="34.1611443" lon="9.9912952"><ele>23.0</ele><time>2026-04-25T14:34:15.865Z</time></trkpt><trkpt lat="34.160945" lon="9.9913094"><ele>23.0</ele><time>2026-04-25T14:34:16.873Z</time></trkpt><trkpt lat="34.1607438" lon="9.9913199"><ele>23.0</ele><time>2026-04-25T14:34:17.849Z</time></trkpt><trkpt lat="34.16054" lon="9.9913329"><ele>23.0</ele><time>2026-04-25T14:34:18.849Z</time></trkpt><trkpt lat="34.1603361" lon="9.9913446"><ele>23.0</ele><time>2026-04-25T14:34:19.841Z</time></trkpt><trkpt lat="34.1601315" lon="9.9913569"><ele>23.0</ele><time>2026-04-25T14:34:20.855Z</time></trkpt><trkpt lat="34.1599253" lon="9.9913686"><ele>23.0</ele><time>2026-04-25T14:34:21.866Z</time></trkpt><trkpt lat="34.1597159" lon="9.9913784"><ele>23.0</ele><time>2026-04-25T14:34:22.833Z</time></trkpt><trkpt lat="34.1595109" lon="9.9913904"><ele>22.666666666666668</ele><time>2026-04-25T14:34:23.844Z</time></trkpt><trkpt lat="34.1593072" lon="9.9914014"><ele>22.333333333333332</ele><time>2026-04-25T14:34:24.832Z</time></trkpt><trkpt lat="34.1591053" lon="9.9914112"><ele>22.0</ele><time>2026-04-25T14:34:25.847Z</time></trkpt><trkpt lat="34.1589037" lon="9.9914228"><ele>22.0</ele><time>2026-04-25T14:34:26.848Z</time></trkpt><trkpt lat="34.1587006" lon="9.9914344"><ele>22.0</ele><time>2026-04-25T14:34:27.85Z</time></trkpt><trkpt lat="34.1585032" lon="9.9914468"><ele>22.0</ele><time>2026-04-25T14:34:28.846Z</time></trkpt><trkpt lat="34.158306" lon="9.9914566"><ele>22.333333333333332</ele><time>2026-04-25T14:34:29.841Z</time></trkpt><trkpt lat="34.1581147" lon="9.9914655"><ele>22.666666666666668</ele><time>2026-04-25T14:34:30.856Z</time></trkpt><trkpt lat="34.1579341" lon="9.9914763"><ele>23.0</ele><time>2026-04-25T14:34:31.863Z</time></trkpt><trkpt lat="34.1577586" lon="9.9914881"><ele>23.0</ele><time>2026-04-25T14:34:32.841Z</time></trkpt><trkpt lat="34.157592" lon="9.9915007"><ele>23.0</ele><time>2026-04-25T14:34:33.852Z</time></trkpt><trkpt lat="34.1574269" lon="9.9915126"><ele>23.0</ele><time>2026-04-25T14:34:34.883Z</time></trkpt><trkpt lat="34.1572649" lon="9.9915206"><ele>22.0</ele><time>2026-04-25T14:34:35.85Z</time></trkpt><trkpt lat="34.157106" lon="9.9915271"><ele>21.0</ele><time>2026-04-25T14:34:36.856Z</time></trkpt><trkpt lat="34.1569533" lon="9.9915331"><ele>20.0</ele><time>2026-04-25T14:34:37.865Z</time></trkpt><trkpt lat="34.1568011" lon="9.9915387"><ele>20.0</ele><time>2026-04-25T14:34:38.847Z</time></trkpt><trkpt lat="34.1566485" lon="9.9915447"><ele>20.0</ele><time>2026-04-25T14:34:39.851Z</time></trkpt><trkpt lat="34.1564976" lon="9.991553"><ele>20.0</ele><time>2026-04-25T14:34:40.858Z</time></trkpt><trkpt lat="34.1563473" lon="9.9915644"><ele>20.666666666666668</ele><time>2026-04-25T14:34:41.856Z</time></trkpt><trkpt lat="34.1561985" lon="9.9915772"><ele>21.333333333333332</ele><time>2026-04-25T14:34:42.847Z</time></trkpt><trkpt lat="34.1560461" lon="9.9915871"><ele>22.0</ele><time>2026-04-25T14:34:43.859Z</time></trkpt><trkpt lat="34.1558911" lon="9.9915947"><ele>22.0</ele><time>2026-04-25T14:34:44.85Z</time></trkpt><trkpt lat="34.1557356" lon="9.9916032"><ele>22.0</ele><time>2026-04-25T14:34:45.849Z</time></trkpt><trkpt lat="34.1555812" lon="9.9916127"><ele>22.0</ele><time>2026-04-25T14:34:46.854Z</time></trkpt><trkpt lat="34.1554276" lon="9.9916225"><ele>22.0</ele><time>2026-04-25T14:34:47.856Z</time></trkpt><trkpt lat="34.1552744" lon="9.9916308"><ele>22.0</ele><time>2026-04-25T14:34:48.867Z</time></trkpt><trkpt lat="34.1551187" lon="9.991641"><ele>22.0</ele><time>2026-04-25T14:34:49.861Z</time></trkpt><trkpt lat="34.1549613" lon="9.9916512"><ele>22.0</ele><time>2026-04-25T14:34:50.851Z</time></trkpt><trkpt lat="34.1548007" lon="9.9916594"><ele>22.0</ele><time>2026-04-25T14:34:51.873Z</time></trkpt><trkpt lat="34.1546374" lon="9.9916647"><ele>22.0</ele><time>2026-04-25T14:34:52.86Z</time></trkpt><trkpt lat="34.1544726" lon="9.9916665"><ele>22.0</ele><time>2026-04-25T14:34:53.852Z</time></trkpt><trkpt lat="34.1543037" lon="9.9916647"><ele>22.0</ele><time>2026-04-25T14:34:54.847Z</time></trkpt><trkpt lat="34.1541353" lon="9.9916534"><ele>22.0</ele><time>2026-04-25T14:34:55.863Z</time></trkpt><trkpt lat="34.1539668" lon="9.9916364"><ele>22.0</ele><time>2026-04-25T14:34:56.857Z</time></trkpt><trkpt lat="34.1537992" lon="9.9916109"><ele>22.0</ele><time>2026-04-25T14:34:57.86Z</time></trkpt><trkpt lat="34.1536315" lon="9.9915806"><ele>22.0</ele><time>2026-04-25T14:34:58.845Z</time></trkpt><trkpt lat="34.1534654" lon="9.991552"><ele>22.0</ele><time>2026-04-25T14:34:59.837Z</time></trkpt><trkpt lat="34.1533001" lon="9.9915219"><ele>22.0</ele><time>2026-04-25T14:35:00.844Z</time></trkpt><trkpt lat="34.1531344" lon="9.9914911"><ele>22.0</ele><time>2026-04-25T14:35:01.858Z</time></trkpt><trkpt lat="34.1529732" lon="9.9914607"><ele>21.75</ele><time>2026-04-25T14:35:02.85Z</time></trkpt><trkpt lat="34.1528177" lon="9.9914328"><ele>21.5</ele><time>2026-04-25T14:35:03.863Z</time></trkpt><trkpt lat="34.1526677" lon="9.9914038"><ele>21.25</ele><time>2026-04-25T14:35:04.851Z</time></trkpt><trkpt lat="34.1525345" lon="9.9913784"><ele>21.0</ele><time>2026-04-25T14:35:05.858Z</time></trkpt><trkpt lat="34.152421" lon="9.9913563"><ele>20.666666666666668</ele><time>2026-04-25T14:35:06.86Z</time></trkpt><trkpt lat="34.1523212" lon="9.9913373"><ele>20.333333333333332</ele><time>2026-04-25T14:35:07.848Z</time></trkpt><trkpt lat="34.152238" lon="9.9913256"><ele>20.0</ele><time>2026-04-25T14:35:08.865Z</time></trkpt><trkpt lat="34.1521622" lon="9.9913111"><ele>19.666666666666664</ele><time>2026-04-25T14:35:09.86Z</time></trkpt><trkpt lat="34.1520865" lon="9.9912965"><ele>19.333333333333332</ele><time>2026-04-25T14:35:10.847Z</time></trkpt><trkpt lat="34.1519949" lon="9.9912766"><ele>19.0</ele><time>2026-04-25T14:35:11.855Z</time></trkpt><trkpt lat="34.1518975" lon="9.9912565"><ele>19.0</ele><time>2026-04-25T14:35:12.844Z</time></trkpt><trkpt lat="34.1517956" lon="9.9912354"><ele>19.0</ele><time>2026-04-25T14:35:13.844Z</time></trkpt><trkpt lat="34.1516916" lon="9.9912141"><ele>19.0</ele><time>2026-04-25T14:35:14.846Z</time></trkpt><trkpt lat="34.1515847" lon="9.991193"><ele>19.0</ele><time>2026-04-25T14:35:15.852Z</time></trkpt><trkpt lat="34.1514795" lon="9.9911711"><ele>19.0</ele><time>2026-04-25T14:35:16.852Z</time></trkpt><trkpt lat="34.1513743" lon="9.991152"><ele>19.0</ele><time>2026-04-25T14:35:17.854Z</time></trkpt><trkpt lat="34.1512642" lon="9.9911342"><ele>19.0</ele><time>2026-04-25T14:35:18.85Z</time></trkpt><trkpt lat="34.1511523" lon="9.9911142"><ele>19.0</ele><time>2026-04-25T14:35:19.854Z</time></trkpt><trkpt lat="34.1510459" lon="9.9910957"><ele>19.0</ele><time>2026-04-25T14:35:20.848Z</time></trkpt><trkpt lat="34.1509356" lon="9.9910714"><ele>19.0</ele><time>2026-04-25T14:35:21.853Z</time></trkpt><trkpt lat="34.1508299" lon="9.9910483"><ele>19.0</ele><time>2026-04-25T14:35:22.863Z</time></trkpt><trkpt lat="34.1507241" lon="9.9910272"><ele>19.0</ele><time>2026-04-25T14:35:23.855Z</time></trkpt><trkpt lat="34.1506158" lon="9.991007"><ele>19.0</ele><time>2026-04-25T14:35:24.845Z</time></trkpt><trkpt lat="34.1505079" lon="9.9909881"><ele>19.0</ele><time>2026-04-25T14:35:25.86Z</time></trkpt><trkpt lat="34.1503984" lon="9.9909676"><ele>19.0</ele><time>2026-04-25T14:35:26.855Z</time></trkpt><trkpt lat="34.1502864" lon="9.9909457"><ele>19.0</ele><time>2026-04-25T14:35:27.842Z</time></trkpt><trkpt lat="34.1501738" lon="9.9909225"><ele>19.0</ele><time>2026-04-25T14:35:28.85Z</time></trkpt><trkpt lat="34.1500643" lon="9.9909021"><ele>19.0</ele><time>2026-04-25T14:35:29.855Z</time></trkpt><trkpt lat="34.1499602" lon="9.9908837"><ele>19.0</ele><time>2026-04-25T14:35:30.852Z</time></trkpt><trkpt lat="34.1498673" lon="9.9908651"><ele>19.0</ele><time>2026-04-25T14:35:31.853Z</time></trkpt><trkpt lat="34.1497885" lon="9.9908505"><ele>19.0</ele><time>2026-04-25T14:35:32.849Z</time></trkpt><trkpt lat="34.1497159" lon="9.9908361"><ele>19.0</ele><time>2026-04-25T14:35:33.848Z</time></trkpt><trkpt lat="34.1496461" lon="9.9908211"><ele>19.0</ele><time>2026-04-25T14:35:34.859Z</time></trkpt><trkpt lat="34.1495763" lon="9.990809"><ele>19.0</ele><time>2026-04-25T14:35:35.854Z</time></trkpt><trkpt lat="34.1494866" lon="9.9907931"><ele>19.0</ele><time>2026-04-25T14:35:36.844Z</time></trkpt><trkpt lat="34.1493839" lon="9.9907791"><ele>19.0</ele><time>2026-04-25T14:35:37.848Z</time></trkpt><trkpt lat="34.1492746" lon="9.9907568"><ele>19.0</ele><time>2026-04-25T14:35:38.848Z</time></trkpt><trkpt lat="34.1491545" lon="9.9907276"><ele>19.0</ele><time>2026-04-25T14:35:39.858Z</time></trkpt><trkpt lat="34.1490345" lon="9.9907012"><ele>19.0</ele><time>2026-04-25T14:35:40.848Z</time></trkpt><trkpt lat="34.1489103" lon="9.9906733"><ele>19.0</ele><time>2026-04-25T14:35:41.854Z</time></trkpt><trkpt lat="34.1487823" lon="9.9906456"><ele>19.25</ele><time>2026-04-25T14:35:42.858Z</time></trkpt><trkpt lat="34.1486502" lon="9.9906214"><ele>19.5</ele><time>2026-04-25T14:35:43.848Z</time></trkpt><trkpt lat="34.1485166" lon="9.9906008"><ele>19.75</ele><time>2026-04-25T14:35:44.877Z</time></trkpt><trkpt lat="34.1483828" lon="9.9905817"><ele>20.0</ele><time>2026-04-25T14:35:45.844Z</time></trkpt><trkpt lat="34.1482454" lon="9.9905568"><ele>19.5</ele><time>2026-04-25T14:35:46.844Z</time></trkpt><trkpt lat="34.1481065" lon="9.9905292"><ele>19.0</ele><time>2026-04-25T14:35:47.851Z</time></trkpt><trkpt lat="34.1479663" lon="9.9904959"><ele>18.5</ele><time>2026-04-25T14:35:48.839Z</time></trkpt><trkpt lat="34.1478247" lon="9.9904659"><ele>18.0</ele><time>2026-04-25T14:35:49.858Z</time></trkpt><trkpt lat="34.1476802" lon="9.9904367"><ele>18.0</ele><time>2026-04-25T14:35:50.843Z</time></trkpt><trkpt lat="34.1475413" lon="9.9904094"><ele>18.0</ele><time>2026-04-25T14:35:51.856Z</time></trkpt><trkpt lat="34.1474012" lon="9.9903816"><ele>18.0</ele><time>2026-04-25T14:35:52.849Z</time></trkpt><trkpt lat="34.147258" lon="9.9903512"><ele>18.0</ele><time>2026-04-25T14:35:53.855Z</time></trkpt><trkpt lat="34.1471138" lon="9.9903214"><ele>17.666666666666668</ele><time>2026-04-25T14:35:54.847Z</time></trkpt><trkpt lat="34.1469689" lon="9.9902919"><ele>17.333333333333336</ele><time>2026-04-25T14:35:55.849Z</time></trkpt><trkpt lat="34.1468214" lon="9.9902633"><ele>17.0</ele><time>2026-04-25T14:35:56.852Z</time></trkpt><trkpt lat="34.1466694" lon="9.9902331"><ele>17.333333333333336</ele><time>2026-04-25T14:35:57.852Z</time></trkpt><trkpt lat="34.1465139" lon="9.9902034"><ele>17.666666666666668</ele><time>2026-04-25T14:35:58.855Z</time></trkpt><trkpt lat="34.1463564" lon="9.9901741"><ele>18.0</ele><time>2026-04-25T14:35:59.855Z</time></trkpt><trkpt lat="34.1461975" lon="9.9901431"><ele>18.0</ele><time>2026-04-25T14:36:00.837Z</time></trkpt><trkpt lat="34.1460375" lon="9.9901145"><ele>18.0</ele><time>2026-04-25T14:36:01.839Z</time></trkpt><trkpt lat="34.1458752" lon="9.9900836"><ele>18.0</ele><time>2026-04-25T14:36:02.855Z</time></trkpt><trkpt lat="34.1457139" lon="9.9900517"><ele>17.666666666666668</ele><time>2026-04-25T14:36:03.847Z</time></trkpt><trkpt lat="34.145553" lon="9.9900181"><ele>17.333333333333336</ele><time>2026-04-25T14:36:04.844Z</time></trkpt><trkpt lat="34.1453895" lon="9.9899861"><ele>17.0</ele><time>2026-04-25T14:36:05.859Z</time></trkpt><trkpt lat="34.1452258" lon="9.9899542"><ele>17.0</ele><time>2026-04-25T14:36:06.853Z</time></trkpt><trkpt lat="34.1450585" lon="9.9899175"><ele>17.0</ele><time>2026-04-25T14:36:07.845Z</time></trkpt><trkpt lat="34.1448832" lon="9.9898803"><ele>17.0</ele><time>2026-04-25T14:36:08.851Z</time></trkpt><trkpt lat="34.1447033" lon="9.9898432"><ele>16.333333333333336</ele><time>2026-04-25T14:36:09.85Z</time></trkpt><trkpt lat="34.1445213" lon="9.9898065"><ele>15.666666666666668</ele><time>2026-04-25T14:36:10.853Z</time></trkpt><trkpt lat="34.1443423" lon="9.9897717"><ele>15.0</ele><time>2026-04-25T14:36:11.853Z</time></trkpt><trkpt lat="34.1441579" lon="9.9897347"><ele>15.0</ele><time>2026-04-25T14:36:12.845Z</time></trkpt><trkpt lat="34.1439729" lon="9.989697"><ele>15.0</ele><time>2026-04-25T14:36:13.844Z</time></trkpt><trkpt lat="34.1437852" lon="9.98966"><ele>15.0</ele><time>2026-04-25T14:36:14.851Z</time></trkpt><trkpt lat="34.143597" lon="9.989624"><ele>15.0</ele><time>2026-04-25T14:36:15.854Z</time></trkpt><trkpt lat="34.1434054" lon="9.9895855"><ele>15.0</ele><time>2026-04-25T14:36:16.85Z</time></trkpt><trkpt lat="34.1432125" lon="9.989549"><ele>15.0</ele><time>2026-04-25T14:36:17.847Z</time></trkpt><trkpt lat="34.1430201" lon="9.9895109"><ele>15.0</ele><time>2026-04-25T14:36:18.849Z</time></trkpt><trkpt lat="34.1428331" lon="9.9894734"><ele>15.0</ele><time>2026-04-25T14:36:19.856Z</time></trkpt><trkpt lat="34.1426435" lon="9.9894369"><ele>15.0</ele><time>2026-04-25T14:36:20.847Z</time></trkpt><trkpt lat="34.1424534" lon="9.9894"><ele>15.0</ele><time>2026-04-25T14:36:21.848Z</time></trkpt><trkpt lat="34.1422626" lon="9.989363"><ele>15.0</ele><time>2026-04-25T14:36:22.858Z</time></trkpt><trkpt lat="34.1420701" lon="9.9893272"><ele>15.0</ele><time>2026-04-25T14:36:23.854Z</time></trkpt><trkpt lat="34.1418784" lon="9.9892909"><ele>15.0</ele><time>2026-04-25T14:36:24.851Z</time></trkpt><trkpt lat="34.1416842" lon="9.9892534"><ele>15.0</ele><time>2026-04-25T14:36:25.867Z</time></trkpt><trkpt lat="34.1414899" lon="9.9892147"><ele>15.0</ele><time>2026-04-25T14:36:26.846Z</time></trkpt><trkpt lat="34.1412957" lon="9.9891768"><ele>15.333333333333332</ele><time>2026-04-25T14:36:27.842Z</time></trkpt><trkpt lat="34.1411004" lon="9.9891424"><ele>15.666666666666666</ele><time>2026-04-25T14:36:28.84Z</time></trkpt><trkpt lat="34.1409051" lon="9.9891045"><ele>16.0</ele><time>2026-04-25T14:36:29.851Z</time></trkpt><trkpt lat="34.1407114" lon="9.9890666"><ele>16.333333333333332</ele><time>2026-04-25T14:36:30.849Z</time></trkpt><trkpt lat="34.1405169" lon="9.9890279"><ele>16.666666666666668</ele><time>2026-04-25T14:36:31.845Z</time></trkpt><trkpt lat="34.1403222" lon="9.9889891"><ele>17.0</ele><time>2026-04-25T14:36:32.847Z</time></trkpt><trkpt lat="34.1401277" lon="9.9889503"><ele>17.0</ele><time>2026-04-25T14:36:33.86Z</time></trkpt><trkpt lat="34.1399333" lon="9.9889109"><ele>17.0</ele><time>2026-04-25T14:36:34.842Z</time></trkpt><trkpt lat="34.1397364" lon="9.9888724"><ele>17.0</ele><time>2026-04-25T14:36:35.849Z</time></trkpt><trkpt lat="34.1395412" lon="9.9888352"><ele>17.0</ele><time>2026-04-25T14:36:36.849Z</time></trkpt><trkpt lat="34.1393462" lon="9.9887951"><ele>17.0</ele><time>2026-04-25T14:36:37.843Z</time></trkpt><trkpt lat="34.139152" lon="9.9887582"><ele>17.0</ele><time>2026-04-25T14:36:38.844Z</time></trkpt><trkpt lat="34.1389598" lon="9.9887208"><ele>17.666666666666668</ele><time>2026-04-25T14:36:39.85Z</time></trkpt><trkpt lat="34.1387662" lon="9.9886859"><ele>18.333333333333332</ele><time>2026-04-25T14:36:40.86Z</time></trkpt><trkpt lat="34.1385706" lon="9.9886483"><ele>19.0</ele><time>2026-04-25T14:36:41.856Z</time></trkpt><trkpt lat="34.138374" lon="9.9886122"><ele>17.333333333333332</ele><time>2026-04-25T14:36:42.847Z</time></trkpt><trkpt lat="34.1381786" lon="9.9885781"><ele>15.666666666666668</ele><time>2026-04-25T14:36:43.855Z</time></trkpt><trkpt lat="34.1379853" lon="9.9885436"><ele>14.0</ele><time>2026-04-25T14:36:44.842Z</time></trkpt><trkpt lat="34.1377919" lon="9.9885067"><ele>14.0</ele><time>2026-04-25T14:36:45.842Z</time></trkpt><trkpt lat="34.1375959" lon="9.988469"><ele>14.0</ele><time>2026-04-25T14:36:46.847Z</time></trkpt><trkpt lat="34.1373992" lon="9.9884279"><ele>14.0</ele><time>2026-04-25T14:36:47.842Z</time></trkpt><trkpt lat="34.1372019" lon="9.9883886"><ele>14.333333333333334</ele><time>2026-04-25T14:36:48.845Z</time></trkpt><trkpt lat="34.1370057" lon="9.9883502"><ele>14.666666666666668</ele><time>2026-04-25T14:36:49.84Z</time></trkpt><trkpt lat="34.1368086" lon="9.988312"><ele>15.0</ele><time>2026-04-25T14:36:50.838Z</time></trkpt><trkpt lat="34.1366118" lon="9.9882751"><ele>15.333333333333332</ele><time>2026-04-25T14:36:51.847Z</time></trkpt><trkpt lat="34.136415" lon="9.9882373"><ele>15.666666666666666</ele><time>2026-04-25T14:36:52.839Z</time></trkpt><trkpt lat="34.1362164" lon="9.9881973"><ele>16.0</ele><time>2026-04-25T14:36:53.856Z</time></trkpt><trkpt lat="34.1360159" lon="9.9881598"><ele>16.0</ele><time>2026-04-25T14:36:54.857Z</time></trkpt><trkpt lat="34.1358157" lon="9.9881214"><ele>16.0</ele><time>2026-04-25T14:36:55.853Z</time></trkpt><trkpt lat="34.1356113" lon="9.9880847"><ele>16.0</ele><time>2026-04-25T14:36:56.838Z</time></trkpt><trkpt lat="34.1354052" lon="9.9880471"><ele>15.666666666666666</ele><time>2026-04-25T14:36:57.849Z</time></trkpt><trkpt lat="34.1351975" lon="9.9880124"><ele>15.333333333333332</ele><time>2026-04-25T14:36:58.854Z</time></trkpt><trkpt lat="34.134987" lon="9.9879733"><ele>15.0</ele><time>2026-04-25T14:36:59.853Z</time></trkpt><trkpt lat="34.1347677" lon="9.9879345"><ele>15.0</ele><time>2026-04-25T14:37:00.851Z</time></trkpt><trkpt lat="34.1345413" lon="9.9878948"><ele>15.0</ele><time>2026-04-25T14:37:01.846Z</time></trkpt><trkpt lat="34.1343156" lon="9.9878547"><ele>15.0</ele><time>2026-04-25T14:37:02.833Z</time></trkpt><trkpt lat="34.1341364" lon="9.9878136"><ele>15.0</ele><time>2026-04-25T14:37:03.845Z</time></trkpt><trkpt lat="34.133948" lon="9.9877736"><ele>15.0</ele><time>2026-04-25T14:37:04.847Z</time></trkpt><trkpt lat="34.1337257" lon="9.9877306"><ele>15.0</ele><time>2026-04-25T14:37:05.843Z</time></trkpt><trkpt lat="34.1335204" lon="9.9876895"><ele>15.0</ele><time>2026-04-25T14:37:06.856Z</time></trkpt><trkpt lat="34.1333187" lon="9.9876485"><ele>15.0</ele><time>2026-04-25T14:37:07.842Z</time></trkpt><trkpt lat="34.1331202" lon="9.9876084"><ele>15.0</ele><time>2026-04-25T14:37:08.845Z</time></trkpt><trkpt lat="34.132919" lon="9.98757"><ele>15.0</ele><time>2026-04-25T14:37:09.854Z</time></trkpt><trkpt lat="34.1327159" lon="9.9875323"><ele>15.0</ele><time>2026-04-25T14:37:10.841Z</time></trkpt><trkpt lat="34.1325132" lon="9.9874916"><ele>15.333333333333332</ele><time>2026-04-25T14:37:11.85Z</time></trkpt><trkpt lat="34.1323092" lon="9.9874504"><ele>15.666666666666666</ele><time>2026-04-25T14:37:12.832Z</time></trkpt><trkpt lat="34.1320862" lon="9.9874061"><ele>16.0</ele><time>2026-04-25T14:37:13.85Z</time></trkpt><trkpt lat="34.131879" lon="9.9873645"><ele>16.0</ele><time>2026-04-25T14:37:14.843Z</time></trkpt><trkpt lat="34.1316729" lon="9.9873255"><ele>16.0</ele><time>2026-04-25T14:37:15.845Z</time></trkpt><trkpt lat="34.131471" lon="9.9872888"><ele>16.0</ele><time>2026-04-25T14:37:16.849Z</time></trkpt><trkpt lat="34.131272" lon="9.9872496"><ele>16.0</ele><time>2026-04-25T14:37:17.841Z</time></trkpt><trkpt lat="34.1310708" lon="9.9872085"><ele>16.0</ele><time>2026-04-25T14:37:18.852Z</time></trkpt><trkpt lat="34.1308733" lon="9.9871669"><ele>16.0</ele><time>2026-04-25T14:37:19.854Z</time></trkpt><trkpt lat="34.1306757" lon="9.9871263"><ele>16.0</ele><time>2026-04-25T14:37:20.84Z</time></trkpt><trkpt lat="34.1304768" lon="9.9870873"><ele>16.0</ele><time>2026-04-25T14:37:21.855Z</time></trkpt><trkpt lat="34.1302789" lon="9.9870489"><ele>16.0</ele><time>2026-04-25T14:37:22.858Z</time></trkpt><trkpt lat="34.1300784" lon="9.9870095"><ele>16.0</ele><time>2026-04-25T14:37:23.858Z</time></trkpt><trkpt lat="34.1298754" lon="9.9869693"><ele>16.0</ele><time>2026-04-25T14:37:24.851Z</time></trkpt><trkpt lat="34.1296721" lon="9.9869291"><ele>16.0</ele><time>2026-04-25T14:37:25.843Z</time></trkpt><trkpt lat="34.1294678" lon="9.9868927"><ele>16.0</ele><time>2026-04-25T14:37:26.848Z</time></trkpt><trkpt lat="34.1292632" lon="9.9868532"><ele>16.0</ele><time>2026-04-25T14:37:27.854Z</time></trkpt><trkpt lat="34.1290601" lon="9.9868123"><ele>16.0</ele><time>2026-04-25T14:37:28.858Z</time></trkpt><trkpt lat="34.1288598" lon="9.9867733"><ele>16.0</ele><time>2026-04-25T14:37:29.85Z</time></trkpt><trkpt lat="34.1286673" lon="9.9867378"><ele>16.0</ele><time>2026-04-25T14:37:30.852Z</time></trkpt><trkpt lat="34.1284787" lon="9.9867069"><ele>16.0</ele><time>2026-04-25T14:37:31.852Z</time></trkpt><trkpt lat="34.1282872" lon="9.986672"><ele>16.666666666666664</ele><time>2026-04-25T14:37:32.842Z</time></trkpt><trkpt lat="34.1280849" lon="9.9866456"><ele>17.333333333333332</ele><time>2026-04-25T14:37:33.835Z</time></trkpt><trkpt lat="34.1278783" lon="9.9866281"><ele>18.0</ele><time>2026-04-25T14:37:34.851Z</time></trkpt><trkpt lat="34.1276611" lon="9.9866053"><ele>18.0</ele><time>2026-04-25T14:37:35.849Z</time></trkpt><trkpt lat="34.1274387" lon="9.9865837"><ele>18.0</ele><time>2026-04-25T14:37:36.846Z</time></trkpt><trkpt lat="34.1272193" lon="9.9865473"><ele>18.0</ele><time>2026-04-25T14:37:37.842Z</time></trkpt><trkpt lat="34.1270132" lon="9.9864988"><ele>18.333333333333332</ele><time>2026-04-25T14:37:38.841Z</time></trkpt><trkpt lat="34.1268244" lon="9.9864271"><ele>18.666666666666664</ele><time>2026-04-25T14:37:39.843Z</time></trkpt><trkpt lat="34.1266256" lon="9.9863864"><ele>19.0</ele><time>2026-04-25T14:37:40.847Z</time></trkpt><trkpt lat="34.1264325" lon="9.9863452"><ele>18.0</ele><time>2026-04-25T14:37:41.845Z</time></trkpt><trkpt lat="34.1262402" lon="9.9862988"><ele>17.0</ele><time>2026-04-25T14:37:42.85Z</time></trkpt><trkpt lat="34.1260506" lon="9.9862553"><ele>16.0</ele><time>2026-04-25T14:37:43.847Z</time></trkpt><trkpt lat="34.1258636" lon="9.9862139"><ele>16.333333333333332</ele><time>2026-04-25T14:37:44.851Z</time></trkpt><trkpt lat="34.1256778" lon="9.9861735"><ele>16.666666666666668</ele><time>2026-04-25T14:37:45.847Z</time></trkpt><trkpt lat="34.1254943" lon="9.9861345"><ele>17.0</ele><time>2026-04-25T14:37:46.842Z</time></trkpt><trkpt lat="34.1253076" lon="9.9860953"><ele>17.0</ele><time>2026-04-25T14:37:47.854Z</time></trkpt><trkpt lat="34.1251102" lon="9.9860679"><ele>17.0</ele><time>2026-04-25T14:37:48.849Z</time></trkpt><trkpt lat="34.1249012" lon="9.9860353"><ele>17.0</ele><time>2026-04-25T14:37:49.849Z</time></trkpt><trkpt lat="34.1246848" lon="9.985997"><ele>17.5</ele><time>2026-04-25T14:37:50.856Z</time></trkpt><trkpt lat="34.1244627" lon="9.9859518"><ele>18.0</ele><time>2026-04-25T14:37:51.863Z</time></trkpt><trkpt lat="34.1242401" lon="9.9859009"><ele>18.5</ele><time>2026-04-25T14:37:52.849Z</time></trkpt><trkpt lat="34.1240156" lon="9.9858434"><ele>19.0</ele><time>2026-04-25T14:37:53.853Z</time></trkpt><trkpt lat="34.1237966" lon="9.9857886"><ele>19.0</ele><time>2026-04-25T14:37:54.851Z</time></trkpt><trkpt lat="34.1235962" lon="9.9857442"><ele>19.0</ele><time>2026-04-25T14:37:55.856Z</time></trkpt><trkpt lat="34.1233771" lon="9.9856998"><ele>19.0</ele><time>2026-04-25T14:37:56.848Z</time></trkpt><trkpt lat="34.1231586" lon="9.9856564"><ele>19.0</ele><time>2026-04-25T14:37:57.853Z</time></trkpt><trkpt lat="34.1229413" lon="9.985614"><ele>19.0</ele><time>2026-04-25T14:37:58.858Z</time></trkpt><trkpt lat="34.1227298" lon="9.9855721"><ele>19.0</ele><time>2026-04-25T14:37:59.862Z</time></trkpt><trkpt lat="34.1225173" lon="9.9855291"><ele>18.333333333333332</ele><time>2026-04-25T14:38:00.843Z</time></trkpt><trkpt lat="34.1223077" lon="9.9854869"><ele>17.666666666666668</ele><time>2026-04-25T14:38:01.85Z</time></trkpt><trkpt lat="34.1220958" lon="9.9854461"><ele>17.0</ele><time>2026-04-25T14:38:02.847Z</time></trkpt><trkpt lat="34.1218855" lon="9.9854053"><ele>17.0</ele><time>2026-04-25T14:38:03.856Z</time></trkpt><trkpt lat="34.1216738" lon="9.9853632"><ele>17.0</ele><time>2026-04-25T14:38:04.842Z</time></trkpt><trkpt lat="34.1214624" lon="9.985322"><ele>17.0</ele><time>2026-04-25T14:38:05.863Z</time></trkpt><trkpt lat="34.1212502" lon="9.9852804"><ele>17.0</ele><time>2026-04-25T14:38:06.853Z</time></trkpt><trkpt lat="34.1210358" lon="9.9852385"><ele>17.0</ele><time>2026-04-25T14:38:07.856Z</time></trkpt><trkpt lat="34.1208191" lon="9.9851976"><ele>17.0</ele><time>2026-04-25T14:38:08.847Z</time></trkpt><trkpt lat="34.1205989" lon="9.985155"><ele>17.0</ele><time>2026-04-25T14:38:09.85Z</time></trkpt><trkpt lat="34.120377" lon="9.9851135"><ele>17.0</ele><time>2026-04-25T14:38:10.85Z</time></trkpt><trkpt lat="34.1201519" lon="9.9850696"><ele>17.0</ele><time>2026-04-25T14:38:11.848Z</time></trkpt><trkpt lat="34.1199266" lon="9.9850253"><ele>17.0</ele><time>2026-04-25T14:38:12.853Z</time></trkpt><trkpt lat="34.1197022" lon="9.9849815"><ele>17.0</ele><time>2026-04-25T14:38:13.859Z</time></trkpt><trkpt lat="34.1194789" lon="9.9849385"><ele>17.0</ele><time>2026-04-25T14:38:14.837Z</time></trkpt><trkpt lat="34.1192538" lon="9.9848945"><ele>17.0</ele><time>2026-04-25T14:38:15.851Z</time></trkpt><trkpt lat="34.1190295" lon="9.9848515"><ele>17.0</ele><time>2026-04-25T14:38:16.836Z</time></trkpt><trkpt lat="34.1188066" lon="9.9848086"><ele>17.0</ele><time>2026-04-25T14:38:17.843Z</time></trkpt><trkpt lat="34.1185825" lon="9.984766"><ele>17.0</ele><time>2026-04-25T14:38:18.842Z</time></trkpt><trkpt lat="34.1183619" lon="9.9847238"><ele>17.333333333333336</ele><time>2026-04-25T14:38:19.834Z</time></trkpt><trkpt lat="34.1181416" lon="9.9846794"><ele>17.666666666666668</ele><time>2026-04-25T14:38:20.84Z</time></trkpt><trkpt lat="34.1179198" lon="9.9846355"><ele>18.0</ele><time>2026-04-25T14:38:21.848Z</time></trkpt><trkpt lat="34.1176975" lon="9.9845921"><ele>18.0</ele><time>2026-04-25T14:38:22.865Z</time></trkpt><trkpt lat="34.117476" lon="9.9845483"><ele>18.0</ele><time>2026-04-25T14:38:23.857Z</time></trkpt><trkpt lat="34.1172545" lon="9.9845058"><ele>18.0</ele><time>2026-04-25T14:38:24.835Z</time></trkpt><trkpt lat="34.1170332" lon="9.9844618"><ele>17.666666666666668</ele><time>2026-04-25T14:38:25.84Z</time></trkpt><trkpt lat="34.116811" lon="9.984419"><ele>17.333333333333336</ele><time>2026-04-25T14:38:26.827Z</time></trkpt><trkpt lat="34.116592" lon="9.984376"><ele>17.0</ele><time>2026-04-25T14:38:27.841Z</time></trkpt><trkpt lat="34.116375" lon="9.9843345"><ele>17.0</ele><time>2026-04-25T14:38:28.849Z</time></trkpt><trkpt lat="34.1161605" lon="9.9842925"><ele>17.0</ele><time>2026-04-25T14:38:29.846Z</time></trkpt><trkpt lat="34.1159493" lon="9.9842503"><ele>17.0</ele><time>2026-04-25T14:38:30.857Z</time></trkpt><trkpt lat="34.1157394" lon="9.9842096"><ele>17.333333333333336</ele><time>2026-04-25T14:38:31.834Z</time></trkpt><trkpt lat="34.1155301" lon="9.9841716"><ele>17.666666666666668</ele><time>2026-04-25T14:38:32.844Z</time></trkpt><trkpt lat="34.1153185" lon="9.9841341"><ele>18.0</ele><time>2026-04-25T14:38:33.847Z</time></trkpt><trkpt lat="34.1151034" lon="9.9840932"><ele>19.0</ele><time>2026-04-25T14:38:34.857Z</time></trkpt><trkpt lat="34.1148883" lon="9.9840523"><ele>20.0</ele><time>2026-04-25T14:38:35.843Z</time></trkpt><trkpt lat="34.1146739" lon="9.9840092"><ele>21.0</ele><time>2026-04-25T14:38:36.857Z</time></trkpt><trkpt lat="34.1144586" lon="9.9839674"><ele>21.0</ele><time>2026-04-25T14:38:37.859Z</time></trkpt><trkpt lat="34.1142417" lon="9.9839269"><ele>21.0</ele><time>2026-04-25T14:38:38.856Z</time></trkpt><trkpt lat="34.1140234" lon="9.9838856"><ele>21.0</ele><time>2026-04-25T14:38:39.852Z</time></trkpt><trkpt lat="34.1138043" lon="9.9838426"><ele>21.333333333333332</ele><time>2026-04-25T14:38:40.847Z</time></trkpt><trkpt lat="34.1135846" lon="9.9837992"><ele>21.666666666666664</ele><time>2026-04-25T14:38:41.852Z</time></trkpt><trkpt lat="34.113368" lon="9.9837573"><ele>22.0</ele><time>2026-04-25T14:38:42.847Z</time></trkpt><trkpt lat="34.1131548" lon="9.983715"><ele>22.0</ele><time>2026-04-25T14:38:43.864Z</time></trkpt><trkpt lat="34.1129475" lon="9.9836788"><ele>22.0</ele><time>2026-04-25T14:38:44.869Z</time></trkpt><trkpt lat="34.1127382" lon="9.9836445"><ele>22.0</ele><time>2026-04-25T14:38:45.855Z</time></trkpt><trkpt lat="34.112524" lon="9.9836099"><ele>21.333333333333332</ele><time>2026-04-25T14:38:46.862Z</time></trkpt><trkpt lat="34.1123072" lon="9.9835733"><ele>20.666666666666668</ele><time>2026-04-25T14:38:47.869Z</time></trkpt><trkpt lat="34.1120904" lon="9.9835294"><ele>20.0</ele><time>2026-04-25T14:38:48.853Z</time></trkpt><trkpt lat="34.111875" lon="9.9834798"><ele>20.0</ele><time>2026-04-25T14:38:49.846Z</time></trkpt><trkpt lat="34.111663" lon="9.9834311"><ele>20.0</ele><time>2026-04-25T14:38:50.847Z</time></trkpt><trkpt lat="34.1114511" lon="9.9833818"><ele>20.0</ele><time>2026-04-25T14:38:51.871Z</time></trkpt><trkpt lat="34.1112425" lon="9.9833379"><ele>20.0</ele><time>2026-04-25T14:38:52.856Z</time></trkpt><trkpt lat="34.1110354" lon="9.9832968"><ele>20.0</ele><time>2026-04-25T14:38:53.853Z</time></trkpt><trkpt lat="34.1108282" lon="9.9832559"><ele>20.0</ele><time>2026-04-25T14:38:54.843Z</time></trkpt><trkpt lat="34.1106231" lon="9.9832141"><ele>20.0</ele><time>2026-04-25T14:38:55.86Z</time></trkpt><trkpt lat="34.1104193" lon="9.9831748"><ele>20.0</ele><time>2026-04-25T14:38:56.848Z</time></trkpt><trkpt lat="34.1102149" lon="9.9831335"><ele>20.0</ele><time>2026-04-25T14:38:57.853Z</time></trkpt><trkpt lat="34.1100089" lon="9.9830993"><ele>18.666666666666668</ele><time>2026-04-25T14:38:58.848Z</time></trkpt><trkpt lat="34.1098044" lon="9.9830739"><ele>17.333333333333332</ele><time>2026-04-25T14:38:59.859Z</time></trkpt><trkpt lat="34.1096051" lon="9.9830603"><ele>16.0</ele><time>2026-04-25T14:39:00.845Z</time></trkpt><trkpt lat="34.1094083" lon="9.9830529"><ele>16.0</ele><time>2026-04-25T14:39:01.84Z</time></trkpt><trkpt lat="34.1092241" lon="9.9830546"><ele>16.0</ele><time>2026-04-25T14:39:02.843Z</time></trkpt><trkpt lat="34.1090488" lon="9.9830597"><ele>16.0</ele><time>2026-04-25T14:39:03.853Z</time></trkpt><trkpt lat="34.1088888" lon="9.9830659"><ele>15.0</ele><time>2026-04-25T14:39:04.855Z</time></trkpt><trkpt lat="34.1087514" lon="9.9830719"><ele>14.0</ele><time>2026-04-25T14:39:05.85Z</time></trkpt><trkpt lat="34.108613" lon="9.9830794"><ele>13.0</ele><time>2026-04-25T14:39:06.849Z</time></trkpt><trkpt lat="34.1084704" lon="9.9830896"><ele>12.0</ele><time>2026-04-25T14:39:07.847Z</time></trkpt><trkpt lat="34.1083217" lon="9.9830976"><ele>13.666666666666668</ele><time>2026-04-25T14:39:08.839Z</time></trkpt><trkpt lat="34.1081681" lon="9.9831034"><ele>15.333333333333334</ele><time>2026-04-25T14:39:09.852Z</time></trkpt><trkpt lat="34.1080099" lon="9.9831109"><ele>17.0</ele><time>2026-04-25T14:39:10.855Z</time></trkpt><trkpt lat="34.1078483" lon="9.9831189"><ele>17.0</ele><time>2026-04-25T14:39:11.856Z</time></trkpt><trkpt lat="34.1076886" lon="9.9831297"><ele>17.0</ele><time>2026-04-25T14:39:12.847Z</time></trkpt><trkpt lat="34.1075267" lon="9.9831402"><ele>17.0</ele><time>2026-04-25T14:39:13.854Z</time></trkpt><trkpt lat="34.1073652" lon="9.983151"><ele>18.5</ele><time>2026-04-25T14:39:14.852Z</time></trkpt><trkpt lat="34.1072127" lon="9.9831597"><ele>20.0</ele><time>2026-04-25T14:39:15.853Z</time></trkpt><trkpt lat="34.1070702" lon="9.9831659"><ele>21.5</ele><time>2026-04-25T14:39:16.847Z</time></trkpt><trkpt lat="34.1069382" lon="9.9831728"><ele>23.0</ele><time>2026-04-25T14:39:17.843Z</time></trkpt><trkpt lat="34.106811" lon="9.9831785"><ele>23.0</ele><time>2026-04-25T14:39:18.828Z</time></trkpt><trkpt lat="34.1066998" lon="9.9831864"><ele>23.0</ele><time>2026-04-25T14:39:19.849Z</time></trkpt><trkpt lat="34.1066121" lon="9.9831915"><ele>23.0</ele><time>2026-04-25T14:39:20.838Z</time></trkpt><trkpt lat="34.1065317" lon="9.9831955"><ele>23.0</ele><time>2026-04-25T14:39:21.848Z</time></trkpt><trkpt lat="34.1064502" lon="9.983201"><ele>23.0</ele><time>2026-04-25T14:39:22.852Z</time></trkpt><trkpt lat="34.1063631" lon="9.9832021"><ele>23.0</ele><time>2026-04-25T14:39:23.866Z</time></trkpt><trkpt lat="34.1062706" lon="9.9832059"><ele>22.599999999999998</ele><time>2026-04-25T14:39:24.846Z</time></trkpt><trkpt lat="34.1061759" lon="9.9832108"><ele>22.2</ele><time>2026-04-25T14:39:25.856Z</time></trkpt><trkpt lat="34.1060795" lon="9.9832189"><ele>21.8</ele><time>2026-04-25T14:39:26.844Z</time></trkpt><trkpt lat="34.1059766" lon="9.9832264"><ele>21.4</ele><time>2026-04-25T14:39:27.849Z</time></trkpt><trkpt lat="34.1058705" lon="9.9832308"><ele>21.0</ele><time>2026-04-25T14:39:28.845Z</time></trkpt><trkpt lat="34.1057604" lon="9.9832361"><ele>20.5</ele><time>2026-04-25T14:39:29.856Z</time></trkpt><trkpt lat="34.1056467" lon="9.9832437"><ele>20.0</ele><time>2026-04-25T14:39:30.838Z</time></trkpt><trkpt lat="34.1055328" lon="9.9832494"><ele>19.5</ele><time>2026-04-25T14:39:31.83Z</time></trkpt><trkpt lat="34.1054207" lon="9.983258"><ele>19.0</ele><time>2026-04-25T14:39:32.842Z</time></trkpt><trkpt lat="34.1053036" lon="9.9832664"><ele>19.0</ele><time>2026-04-25T14:39:33.851Z</time></trkpt><trkpt lat="34.1051825" lon="9.9832729"><ele>19.0</ele><time>2026-04-25T14:39:34.842Z</time></trkpt><trkpt lat="34.1050567" lon="9.983274"><ele>19.0</ele><time>2026-04-25T14:39:35.856Z</time></trkpt><trkpt lat="34.1049302" lon="9.9832756"><ele>19.0</ele><time>2026-04-25T14:39:36.839Z</time></trkpt><trkpt lat="34.1048027" lon="9.9832795"><ele>19.0</ele><time>2026-04-25T14:39:37.849Z</time></trkpt><trkpt lat="34.104676" lon="9.9832839"><ele>19.0</ele><time>2026-04-25T14:39:38.848Z</time></trkpt><trkpt lat="34.1045484" lon="9.9832887"><ele>19.0</ele><time>2026-04-25T14:39:39.855Z</time></trkpt><trkpt lat="34.1044247" lon="9.9832952"><ele>19.0</ele><time>2026-04-25T14:39:40.849Z</time></trkpt><trkpt lat="34.1043045" lon="9.9833036"><ele>19.0</ele><time>2026-04-25T14:39:41.854Z</time></trkpt><trkpt lat="34.1041904" lon="9.9833147"><ele>19.0</ele><time>2026-04-25T14:39:42.844Z</time></trkpt><trkpt lat="34.1040788" lon="9.9833223"><ele>19.0</ele><time>2026-04-25T14:39:43.846Z</time></trkpt><trkpt lat="34.1039756" lon="9.9833299"><ele>19.0</ele><time>2026-04-25T14:39:44.84Z</time></trkpt><trkpt lat="34.1038732" lon="9.9833414"><ele>19.0</ele><time>2026-04-25T14:39:45.845Z</time></trkpt><trkpt lat="34.1037623" lon="9.9833549"><ele>19.25</ele><time>2026-04-25T14:39:46.846Z</time></trkpt><trkpt lat="34.1036384" lon="9.9833648"><ele>19.5</ele><time>2026-04-25T14:39:47.847Z</time></trkpt><trkpt lat="34.1035006" lon="9.9833677"><ele>19.75</ele><time>2026-04-25T14:39:48.842Z</time></trkpt><trkpt lat="34.1033528" lon="9.9833692"><ele>20.0</ele><time>2026-04-25T14:39:49.857Z</time></trkpt><trkpt lat="34.1031938" lon="9.9833714"><ele>19.333333333333336</ele><time>2026-04-25T14:39:50.842Z</time></trkpt><trkpt lat="34.1030341" lon="9.9833758"><ele>18.666666666666668</ele><time>2026-04-25T14:39:51.843Z</time></trkpt><trkpt lat="34.1028666" lon="9.9833796"><ele>18.0</ele><time>2026-04-25T14:39:52.839Z</time></trkpt><trkpt lat="34.1027" lon="9.9833923"><ele>18.0</ele><time>2026-04-25T14:39:53.846Z</time></trkpt><trkpt lat="34.102527" lon="9.9834038"><ele>18.0</ele><time>2026-04-25T14:39:54.877Z</time></trkpt><trkpt lat="34.1023475" lon="9.9834122"><ele>18.0</ele><time>2026-04-25T14:39:55.852Z</time></trkpt><trkpt lat="34.1021633" lon="9.9834188"><ele>18.333333333333332</ele><time>2026-04-25T14:39:56.861Z</time></trkpt><trkpt lat="34.1019757" lon="9.983426"><ele>18.666666666666664</ele><time>2026-04-25T14:39:57.847Z</time></trkpt><trkpt lat="34.1017845" lon="9.9834342"><ele>19.0</ele><time>2026-04-25T14:39:58.857Z</time></trkpt><trkpt lat="34.1015968" lon="9.9834413"><ele>19.0</ele><time>2026-04-25T14:39:59.843Z</time></trkpt><trkpt lat="34.1014138" lon="9.9834487"><ele>19.0</ele><time>2026-04-25T14:40:00.847Z</time></trkpt><trkpt lat="34.1012279" lon="9.9834566"><ele>19.0</ele><time>2026-04-25T14:40:01.849Z</time></trkpt><trkpt lat="34.1010403" lon="9.9834656"><ele>19.0</ele><time>2026-04-25T14:40:02.842Z</time></trkpt><trkpt lat="34.1008526" lon="9.9834759"><ele>19.0</ele><time>2026-04-25T14:40:03.858Z</time></trkpt><trkpt lat="34.1006632" lon="9.9834831"><ele>19.0</ele><time>2026-04-25T14:40:04.85Z</time></trkpt><trkpt lat="34.100476" lon="9.9834907"><ele>19.0</ele><time>2026-04-25T14:40:05.855Z</time></trkpt><trkpt lat="34.1002884" lon="9.9835"><ele>19.0</ele><time>2026-04-25T14:40:06.852Z</time></trkpt><trkpt lat="34.1001004" lon="9.9835092"><ele>19.0</ele><time>2026-04-25T14:40:07.839Z</time></trkpt><trkpt lat="34.0999141" lon="9.9835182"><ele>19.0</ele><time>2026-04-25T14:40:08.86Z</time></trkpt><trkpt lat="34.0997288" lon="9.9835276"><ele>19.0</ele><time>2026-04-25T14:40:09.848Z</time></trkpt><trkpt lat="34.0995448" lon="9.9835378"><ele>19.0</ele><time>2026-04-25T14:40:10.854Z</time></trkpt><trkpt lat="34.0993685" lon="9.9835471"><ele>19.0</ele><time>2026-04-25T14:40:11.861Z</time></trkpt><trkpt lat="34.0991941" lon="9.9835548"><ele>19.0</ele><time>2026-04-25T14:40:12.847Z</time></trkpt><trkpt lat="34.0990201" lon="9.9835634"><ele>19.0</ele><time>2026-04-25T14:40:13.866Z</time></trkpt><trkpt lat="34.0988451" lon="9.983572"><ele>18.666666666666664</ele><time>2026-04-25T14:40:14.843Z</time></trkpt><trkpt lat="34.0986721" lon="9.9835793"><ele>18.333333333333332</ele><time>2026-04-25T14:40:15.845Z</time></trkpt><trkpt lat="34.0985003" lon="9.9835883"><ele>18.0</ele><time>2026-04-25T14:40:16.855Z</time></trkpt><trkpt lat="34.0983275" lon="9.9835994"><ele>17.666666666666668</ele><time>2026-04-25T14:40:17.841Z</time></trkpt><trkpt lat="34.0981586" lon="9.9836105"><ele>17.333333333333336</ele><time>2026-04-25T14:40:18.854Z</time></trkpt><trkpt lat="34.0979882" lon="9.9836229"><ele>17.0</ele><time>2026-04-25T14:40:19.851Z</time></trkpt><trkpt lat="34.0978136" lon="9.983627"><ele>17.0</ele><time>2026-04-25T14:40:20.847Z</time></trkpt><trkpt lat="34.097634" lon="9.9836315"><ele>17.0</ele><time>2026-04-25T14:40:21.859Z</time></trkpt><trkpt lat="34.0974554" lon="9.9836383"><ele>17.0</ele><time>2026-04-25T14:40:22.852Z</time></trkpt><trkpt lat="34.0972803" lon="9.9836453"><ele>18.0</ele><time>2026-04-25T14:40:23.853Z</time></trkpt><trkpt lat="34.097105" lon="9.9836566"><ele>19.0</ele><time>2026-04-25T14:40:24.849Z</time></trkpt><trkpt lat="34.0969306" lon="9.9836653"><ele>20.0</ele><time>2026-04-25T14:40:25.854Z</time></trkpt><trkpt lat="34.0967567" lon="9.9836753"><ele>20.0</ele><time>2026-04-25T14:40:26.852Z</time></trkpt><trkpt lat="34.0965841" lon="9.9836877"><ele>20.0</ele><time>2026-04-25T14:40:27.859Z</time></trkpt><trkpt lat="34.0964108" lon="9.9836968"><ele>20.0</ele><time>2026-04-25T14:40:28.856Z</time></trkpt><trkpt lat="34.0962354" lon="9.9837051"><ele>20.0</ele><time>2026-04-25T14:40:29.851Z</time></trkpt><trkpt lat="34.0960592" lon="9.9837152"><ele>20.0</ele><time>2026-04-25T14:40:30.855Z</time></trkpt><trkpt lat="34.0958833" lon="9.9837269"><ele>20.0</ele><time>2026-04-25T14:40:31.856Z</time></trkpt><trkpt lat="34.0957072" lon="9.9837345"><ele>20.333333333333336</ele><time>2026-04-25T14:40:32.84Z</time></trkpt><trkpt lat="34.0955313" lon="9.9837431"><ele>20.666666666666668</ele><time>2026-04-25T14:40:33.832Z</time></trkpt><trkpt lat="34.095358" lon="9.9837516"><ele>21.0</ele><time>2026-04-25T14:40:34.85Z</time></trkpt><trkpt lat="34.0951849" lon="9.9837591"><ele>21.0</ele><time>2026-04-25T14:40:35.856Z</time></trkpt><trkpt lat="34.0950137" lon="9.9837664"><ele>21.0</ele><time>2026-04-25T14:40:36.848Z</time></trkpt><trkpt lat="34.0948441" lon="9.9837757"><ele>21.0</ele><time>2026-04-25T14:40:37.851Z</time></trkpt><trkpt lat="34.0946761" lon="9.983786"><ele>20.666666666666668</ele><time>2026-04-25T14:40:38.847Z</time></trkpt><trkpt lat="34.0945083" lon="9.9837974"><ele>20.333333333333336</ele><time>2026-04-25T14:40:39.839Z</time></trkpt><trkpt lat="34.0943418" lon="9.9838027"><ele>20.0</ele><time>2026-04-25T14:40:40.844Z</time></trkpt><trkpt lat="34.0941752" lon="9.9838077"><ele>20.333333333333336</ele><time>2026-04-25T14:40:41.857Z</time></trkpt><trkpt lat="34.0940099" lon="9.983816"><ele>20.666666666666668</ele><time>2026-04-25T14:40:42.857Z</time></trkpt><trkpt lat="34.0938457" lon="9.983824"><ele>21.0</ele><time>2026-04-25T14:40:43.842Z</time></trkpt><trkpt lat="34.0936825" lon="9.9838315"><ele>21.0</ele><time>2026-04-25T14:40:44.845Z</time></trkpt><trkpt lat="34.0935226" lon="9.9838396"><ele>21.0</ele><time>2026-04-25T14:40:45.846Z</time></trkpt><trkpt lat="34.0933658" lon="9.9838473"><ele>21.0</ele><time>2026-04-25T14:40:46.839Z</time></trkpt><trkpt lat="34.0932128" lon="9.9838564"><ele>21.0</ele><time>2026-04-25T14:40:47.85Z</time></trkpt><trkpt lat="34.093052" lon="9.9838637"><ele>21.0</ele><time>2026-04-25T14:40:48.845Z</time></trkpt><trkpt lat="34.0928861" lon="9.9838741"><ele>21.0</ele><time>2026-04-25T14:40:49.85Z</time></trkpt><trkpt lat="34.0927186" lon="9.9838862"><ele>21.0</ele><time>2026-04-25T14:40:50.842Z</time></trkpt><trkpt lat="34.0925493" lon="9.9838973"><ele>21.0</ele><time>2026-04-25T14:40:51.852Z</time></trkpt><trkpt lat="34.0923761" lon="9.9839079"><ele>21.0</ele><time>2026-04-25T14:40:52.85Z</time></trkpt><trkpt lat="34.0922025" lon="9.9839138"><ele>21.666666666666668</ele><time>2026-04-25T14:40:53.855Z</time></trkpt><trkpt lat="34.0920256" lon="9.9839207"><ele>22.333333333333336</ele><time>2026-04-25T14:40:54.847Z</time></trkpt><trkpt lat="34.091849" lon="9.9839294"><ele>23.0</ele><time>2026-04-25T14:40:55.854Z</time></trkpt><trkpt lat="34.0916731" lon="9.9839415"><ele>22.333333333333336</ele><time>2026-04-25T14:40:56.852Z</time></trkpt><trkpt lat="34.0914951" lon="9.983951"><ele>21.666666666666668</ele><time>2026-04-25T14:40:57.861Z</time></trkpt><trkpt lat="34.0913164" lon="9.9839601"><ele>21.0</ele><time>2026-04-25T14:40:58.848Z</time></trkpt><trkpt lat="34.0911403" lon="9.9839678"><ele>21.0</ele><time>2026-04-25T14:40:59.852Z</time></trkpt><trkpt lat="34.090963" lon="9.9839758"><ele>21.0</ele><time>2026-04-25T14:41:00.851Z</time></trkpt><trkpt lat="34.0907898" lon="9.9839839"><ele>21.0</ele><time>2026-04-25T14:41:01.851Z</time></trkpt><trkpt lat="34.0906091" lon="9.9839964"><ele>20.666666666666668</ele><time>2026-04-25T14:41:02.839Z</time></trkpt><trkpt lat="34.0904139" lon="9.9840168"><ele>20.333333333333336</ele><time>2026-04-25T14:41:03.853Z</time></trkpt><trkpt lat="34.0902097" lon="9.9840373"><ele>20.0</ele><time>2026-04-25T14:41:04.85Z</time></trkpt><trkpt lat="34.0899988" lon="9.9840502"><ele>19.666666666666668</ele><time>2026-04-25T14:41:05.859Z</time></trkpt><trkpt lat="34.0897841" lon="9.9840579"><ele>19.333333333333332</ele><time>2026-04-25T14:41:06.848Z</time></trkpt><trkpt lat="34.0895701" lon="9.9840619"><ele>19.0</ele><time>2026-04-25T14:41:07.848Z</time></trkpt><trkpt lat="34.0893584" lon="9.9840634"><ele>19.0</ele><time>2026-04-25T14:41:08.853Z</time></trkpt><trkpt lat="34.0891525" lon="9.9840658"><ele>19.0</ele><time>2026-04-25T14:41:09.854Z</time></trkpt><trkpt lat="34.0889507" lon="9.9840722"><ele>19.0</ele><time>2026-04-25T14:41:10.855Z</time></trkpt><trkpt lat="34.0887566" lon="9.9840813"><ele>19.0</ele><time>2026-04-25T14:41:11.856Z</time></trkpt><trkpt lat="34.0885646" lon="9.9840918"><ele>19.0</ele><time>2026-04-25T14:41:12.852Z</time></trkpt><trkpt lat="34.0883741" lon="9.9841023"><ele>19.0</ele><time>2026-04-25T14:41:13.842Z</time></trkpt><trkpt lat="34.0881862" lon="9.9841114"><ele>18.333333333333332</ele><time>2026-04-25T14:41:14.854Z</time></trkpt><trkpt lat="34.0879973" lon="9.9841194"><ele>17.666666666666668</ele><time>2026-04-25T14:41:15.86Z</time></trkpt><trkpt lat="34.0878077" lon="9.9841264"><ele>17.0</ele><time>2026-04-25T14:41:16.851Z</time></trkpt><trkpt lat="34.0876155" lon="9.9841306"><ele>17.333333333333336</ele><time>2026-04-25T14:41:17.848Z</time></trkpt><trkpt lat="34.0874205" lon="9.9841382"><ele>17.666666666666668</ele><time>2026-04-25T14:41:18.846Z</time></trkpt><trkpt lat="34.0872304" lon="9.9841479"><ele>18.0</ele><time>2026-04-25T14:41:19.85Z</time></trkpt><trkpt lat="34.0870397" lon="9.9841562"><ele>18.0</ele><time>2026-04-25T14:41:20.85Z</time></trkpt><trkpt lat="34.08686" lon="9.9841717"><ele>18.0</ele><time>2026-04-25T14:41:21.841Z</time></trkpt><trkpt lat="34.0866758" lon="9.9841833"><ele>18.0</ele><time>2026-04-25T14:41:22.85Z</time></trkpt><trkpt lat="34.0864914" lon="9.9841942"><ele>19.0</ele><time>2026-04-25T14:41:23.851Z</time></trkpt><trkpt lat="34.0863073" lon="9.9842056"><ele>20.0</ele><time>2026-04-25T14:41:24.856Z</time></trkpt><trkpt lat="34.0861253" lon="9.9842186"><ele>21.0</ele><time>2026-04-25T14:41:25.85Z</time></trkpt><trkpt lat="34.0859453" lon="9.9842314"><ele>21.0</ele><time>2026-04-25T14:41:26.854Z</time></trkpt><trkpt lat="34.085765" lon="9.9842457"><ele>21.0</ele><time>2026-04-25T14:41:27.854Z</time></trkpt><trkpt lat="34.0855871" lon="9.9842615"><ele>21.0</ele><time>2026-04-25T14:41:28.849Z</time></trkpt><trkpt lat="34.0854121" lon="9.9842854"><ele>21.0</ele><time>2026-04-25T14:41:29.86Z</time></trkpt><trkpt lat="34.0852417" lon="9.9843171"><ele>21.0</ele><time>2026-04-25T14:41:30.834Z</time></trkpt><trkpt lat="34.0850723" lon="9.9843494"><ele>21.0</ele><time>2026-04-25T14:41:31.858Z</time></trkpt><trkpt lat="34.0849038" lon="9.9843807"><ele>21.0</ele><time>2026-04-25T14:41:32.856Z</time></trkpt><trkpt lat="34.0847357" lon="9.9844106"><ele>21.0</ele><time>2026-04-25T14:41:33.846Z</time></trkpt><trkpt lat="34.0845709" lon="9.9844435"><ele>21.0</ele><time>2026-04-25T14:41:34.852Z</time></trkpt><trkpt lat="34.0844026" lon="9.9844757"><ele>21.0</ele><time>2026-04-25T14:41:35.861Z</time></trkpt><trkpt lat="34.0842341" lon="9.9845091"><ele>21.0</ele><time>2026-04-25T14:41:36.851Z</time></trkpt><trkpt lat="34.0840685" lon="9.9845398"><ele>21.0</ele><time>2026-04-25T14:41:37.844Z</time></trkpt><trkpt lat="34.083902" lon="9.9845746"><ele>21.333333333333332</ele><time>2026-04-25T14:41:38.835Z</time></trkpt><trkpt lat="34.0837305" lon="9.9846066"><ele>21.666666666666664</ele><time>2026-04-25T14:41:39.833Z</time></trkpt><trkpt lat="34.0835568" lon="9.9846388"><ele>22.0</ele><time>2026-04-25T14:41:40.828Z</time></trkpt><trkpt lat="34.0833833" lon="9.9846733"><ele>22.333333333333332</ele><time>2026-04-25T14:41:41.838Z</time></trkpt><trkpt lat="34.083208" lon="9.9847063"><ele>22.666666666666668</ele><time>2026-04-25T14:41:42.835Z</time></trkpt><trkpt lat="34.0830326" lon="9.9847387"><ele>23.0</ele><time>2026-04-25T14:41:43.846Z</time></trkpt><trkpt lat="34.0828608" lon="9.9847752"><ele>23.0</ele><time>2026-04-25T14:41:44.851Z</time></trkpt><trkpt lat="34.0826906" lon="9.9848099"><ele>23.0</ele><time>2026-04-25T14:41:45.848Z</time></trkpt><trkpt lat="34.0825202" lon="9.984842"><ele>23.0</ele><time>2026-04-25T14:41:46.831Z</time></trkpt><trkpt lat="34.0823505" lon="9.9848745"><ele>23.0</ele><time>2026-04-25T14:41:47.861Z</time></trkpt><trkpt lat="34.0821778" lon="9.9849077"><ele>23.0</ele><time>2026-04-25T14:41:48.854Z</time></trkpt><trkpt lat="34.0820044" lon="9.9849408"><ele>23.0</ele><time>2026-04-25T14:41:49.851Z</time></trkpt><trkpt lat="34.0818306" lon="9.9849746"><ele>23.0</ele><time>2026-04-25T14:41:50.858Z</time></trkpt><trkpt lat="34.0816549" lon="9.9850078"><ele>23.0</ele><time>2026-04-25T14:41:51.853Z</time></trkpt><trkpt lat="34.0814748" lon="9.985039"><ele>23.0</ele><time>2026-04-25T14:41:52.85Z</time></trkpt><trkpt lat="34.0812933" lon="9.9850706"><ele>23.333333333333336</ele><time>2026-04-25T14:41:53.851Z</time></trkpt><trkpt lat="34.08111" lon="9.9851045"><ele>23.666666666666668</ele><time>2026-04-25T14:41:54.847Z</time></trkpt><trkpt lat="34.0809276" lon="9.9851421"><ele>24.0</ele><time>2026-04-25T14:41:55.847Z</time></trkpt><trkpt lat="34.0807453" lon="9.985181"><ele>24.333333333333336</ele><time>2026-04-25T14:41:56.841Z</time></trkpt><trkpt lat="34.0805615" lon="9.985218"><ele>24.666666666666668</ele><time>2026-04-25T14:41:57.844Z</time></trkpt><trkpt lat="34.0803791" lon="9.9852545"><ele>25.0</ele><time>2026-04-25T14:41:58.852Z</time></trkpt><trkpt lat="34.0801944" lon="9.9852895"><ele>25.0</ele><time>2026-04-25T14:41:59.841Z</time></trkpt><trkpt lat="34.0800066" lon="9.9853208"><ele>25.0</ele><time>2026-04-25T14:42:00.845Z</time></trkpt><trkpt lat="34.0798217" lon="9.9853549"><ele>25.0</ele><time>2026-04-25T14:42:01.85Z</time></trkpt><trkpt lat="34.079638" lon="9.9853895"><ele>25.0</ele><time>2026-04-25T14:42:02.849Z</time></trkpt><trkpt lat="34.0794547" lon="9.9854242"><ele>25.0</ele><time>2026-04-25T14:42:03.848Z</time></trkpt><trkpt lat="34.0792732" lon="9.9854597"><ele>25.0</ele><time>2026-04-25T14:42:04.841Z</time></trkpt><trkpt lat="34.0790923" lon="9.9854954"><ele>25.333333333333336</ele><time>2026-04-25T14:42:05.857Z</time></trkpt><trkpt lat="34.0789122" lon="9.9855284"><ele>25.666666666666664</ele><time>2026-04-25T14:42:06.849Z</time></trkpt><trkpt lat="34.0787335" lon="9.9855616"><ele>26.0</ele><time>2026-04-25T14:42:07.841Z</time></trkpt><trkpt lat="34.0785565" lon="9.9855944"><ele>26.0</ele><time>2026-04-25T14:42:08.844Z</time></trkpt><trkpt lat="34.0783811" lon="9.9856309"><ele>26.0</ele><time>2026-04-25T14:42:09.866Z</time></trkpt><trkpt lat="34.0782037" lon="9.9856638"><ele>26.0</ele><time>2026-04-25T14:42:10.853Z</time></trkpt><trkpt lat="34.0780266" lon="9.9856959"><ele>26.0</ele><time>2026-04-25T14:42:11.857Z</time></trkpt><trkpt lat="34.0778529" lon="9.985729"><ele>26.0</ele><time>2026-04-25T14:42:12.851Z</time></trkpt><trkpt lat="34.0776906" lon="9.9857618"><ele>26.0</ele><time>2026-04-25T14:42:13.853Z</time></trkpt><trkpt lat="34.0775295" lon="9.9857912"><ele>26.0</ele><time>2026-04-25T14:42:14.841Z</time></trkpt><trkpt lat="34.0773752" lon="9.9858152"><ele>26.0</ele><time>2026-04-25T14:42:15.849Z</time></trkpt><trkpt lat="34.0772262" lon="9.9858406"><ele>26.0</ele><time>2026-04-25T14:42:16.853Z</time></trkpt><trkpt lat="34.0770848" lon="9.985869"><ele>26.0</ele><time>2026-04-25T14:42:17.838Z</time></trkpt><trkpt lat="34.076948" lon="9.985899"><ele>25.75</ele><time>2026-04-25T14:42:18.847Z</time></trkpt><trkpt lat="34.0768121" lon="9.9859292"><ele>25.5</ele><time>2026-04-25T14:42:19.828Z</time></trkpt><trkpt lat="34.0766766" lon="9.9859585"><ele>25.25</ele><time>2026-04-25T14:42:20.843Z</time></trkpt><trkpt lat="34.0765502" lon="9.9859864"><ele>25.0</ele><time>2026-04-25T14:42:21.85Z</time></trkpt><trkpt lat="34.0764251" lon="9.9860199"><ele>25.0</ele><time>2026-04-25T14:42:22.836Z</time></trkpt><trkpt lat="34.0762864" lon="9.9860551"><ele>25.0</ele><time>2026-04-25T14:42:23.829Z</time></trkpt><trkpt lat="34.0761359" lon="9.986084"><ele>25.0</ele><time>2026-04-25T14:42:24.841Z</time></trkpt><trkpt lat="34.0759759" lon="9.9861036"><ele>25.0</ele><time>2026-04-25T14:42:25.829Z</time></trkpt><trkpt lat="34.0758099" lon="9.986125"><ele>25.0</ele><time>2026-04-25T14:42:26.83Z</time></trkpt><trkpt lat="34.075638" lon="9.986153"><ele>25.0</ele><time>2026-04-25T14:42:27.841Z</time></trkpt><trkpt lat="34.0754642" lon="9.9861827"><ele>25.333333333333336</ele><time>2026-04-25T14:42:28.836Z</time></trkpt><trkpt lat="34.0752912" lon="9.9862154"><ele>25.666666666666664</ele><time>2026-04-25T14:42:29.85Z</time></trkpt><trkpt lat="34.0751179" lon="9.9862458"><ele>26.0</ele><time>2026-04-25T14:42:30.848Z</time></trkpt><trkpt lat="34.0749497" lon="9.9862714"><ele>27.0</ele><time>2026-04-25T14:42:31.858Z</time></trkpt><trkpt lat="34.0747838" lon="9.9862883"><ele>28.0</ele><time>2026-04-25T14:42:32.847Z</time></trkpt><trkpt lat="34.0746196" lon="9.9862985"><ele>29.0</ele><time>2026-04-25T14:42:33.851Z</time></trkpt><trkpt lat="34.074458" lon="9.9862984"><ele>29.0</ele><time>2026-04-25T14:42:34.857Z</time></trkpt><trkpt lat="34.0742963" lon="9.9862929"><ele>29.0</ele><time>2026-04-25T14:42:35.854Z</time></trkpt><trkpt lat="34.0741309" lon="9.9862922"><ele>29.0</ele><time>2026-04-25T14:42:36.842Z</time></trkpt><trkpt lat="34.0739635" lon="9.9862936"><ele>28.333333333333332</ele><time>2026-04-25T14:42:37.861Z</time></trkpt><trkpt lat="34.0737912" lon="9.9862939"><ele>27.666666666666664</ele><time>2026-04-25T14:42:38.859Z</time></trkpt><trkpt lat="34.0736133" lon="9.9862931"><ele>27.0</ele><time>2026-04-25T14:42:39.847Z</time></trkpt><trkpt lat="34.0734312" lon="9.9862912"><ele>27.0</ele><time>2026-04-25T14:42:40.852Z</time></trkpt><trkpt lat="34.0732455" lon="9.986286"><ele>27.0</ele><time>2026-04-25T14:42:41.865Z</time></trkpt><trkpt lat="34.0730579" lon="9.9862837"><ele>27.0</ele><time>2026-04-25T14:42:42.849Z</time></trkpt><trkpt lat="34.0728647" lon="9.9862837"><ele>27.0</ele><time>2026-04-25T14:42:43.842Z</time></trkpt><trkpt lat="34.0726697" lon="9.9862829"><ele>27.0</ele><time>2026-04-25T14:42:44.852Z</time></trkpt><trkpt lat="34.072475" lon="9.9862793"><ele>27.0</ele><time>2026-04-25T14:42:45.849Z</time></trkpt><trkpt lat="34.0722797" lon="9.9862758"><ele>26.333333333333336</ele><time>2026-04-25T14:42:46.859Z</time></trkpt><trkpt lat="34.0720837" lon="9.9862729"><ele>25.666666666666668</ele><time>2026-04-25T14:42:47.861Z</time></trkpt><trkpt lat="34.0718894" lon="9.9862701"><ele>25.0</ele><time>2026-04-25T14:42:48.875Z</time></trkpt><trkpt lat="34.0716959" lon="9.9862707"><ele>25.666666666666668</ele><time>2026-04-25T14:42:49.857Z</time></trkpt><trkpt lat="34.0715057" lon="9.9862698"><ele>26.333333333333336</ele><time>2026-04-25T14:42:50.851Z</time></trkpt><trkpt lat="34.0713169" lon="9.9862657"><ele>27.0</ele><time>2026-04-25T14:42:51.85Z</time></trkpt><trkpt lat="34.0711317" lon="9.9862595"><ele>27.0</ele><time>2026-04-25T14:42:52.843Z</time></trkpt><trkpt lat="34.0709491" lon="9.9862571"><ele>27.0</ele><time>2026-04-25T14:42:53.861Z</time></trkpt><trkpt lat="34.0707717" lon="9.9862543"><ele>27.0</ele><time>2026-04-25T14:42:54.853Z</time></trkpt><trkpt lat="34.0705988" lon="9.9862522"><ele>27.333333333333336</ele><time>2026-04-25T14:42:55.851Z</time></trkpt><trkpt lat="34.0704273" lon="9.9862505"><ele>27.666666666666668</ele><time>2026-04-25T14:42:56.853Z</time></trkpt><trkpt lat="34.0702548" lon="9.9862487"><ele>28.0</ele><time>2026-04-25T14:42:57.85Z</time></trkpt><trkpt lat="34.0700807" lon="9.986246"><ele>27.666666666666668</ele><time>2026-04-25T14:42:58.853Z</time></trkpt><trkpt lat="34.0699053" lon="9.9862428"><ele>27.333333333333336</ele><time>2026-04-25T14:42:59.849Z</time></trkpt><trkpt lat="34.0697193" lon="9.9862437"><ele>27.0</ele><time>2026-04-25T14:43:00.846Z</time></trkpt><trkpt lat="34.0695211" lon="9.9862441"><ele>27.0</ele><time>2026-04-25T14:43:01.848Z</time></trkpt><trkpt lat="34.0693131" lon="9.9862439"><ele>27.0</ele><time>2026-04-25T14:43:02.851Z</time></trkpt><trkpt lat="34.0690996" lon="9.9862393"><ele>27.0</ele><time>2026-04-25T14:43:03.855Z</time></trkpt><trkpt lat="34.0688816" lon="9.9862369"><ele>27.333333333333336</ele><time>2026-04-25T14:43:04.851Z</time></trkpt><trkpt lat="34.0686612" lon="9.9862327"><ele>27.666666666666668</ele><time>2026-04-25T14:43:05.855Z</time></trkpt><trkpt lat="34.0684396" lon="9.9862286"><ele>28.0</ele><time>2026-04-25T14:43:06.855Z</time></trkpt><trkpt lat="34.0682145" lon="9.9862255"><ele>28.5</ele><time>2026-04-25T14:43:07.846Z</time></trkpt><trkpt lat="34.0679882" lon="9.9862212"><ele>29.0</ele><time>2026-04-25T14:43:08.856Z</time></trkpt><trkpt lat="34.0677582" lon="9.9862185"><ele>29.0</ele><time>2026-04-25T14:43:09.855Z</time></trkpt><trkpt lat="34.0675301" lon="9.9862159"><ele>29.0</ele><time>2026-04-25T14:43:10.851Z</time></trkpt><trkpt lat="34.0673024" lon="9.9862119"><ele>29.333333333333332</ele><time>2026-04-25T14:43:11.848Z</time></trkpt><trkpt lat="34.0670765" lon="9.9862089"><ele>29.666666666666664</ele><time>2026-04-25T14:43:12.853Z</time></trkpt><trkpt lat="34.0668555" lon="9.9862052"><ele>30.0</ele><time>2026-04-25T14:43:13.829Z</time></trkpt><trkpt lat="34.0666368" lon="9.9862028"><ele>31.0</ele><time>2026-04-25T14:43:14.836Z</time></trkpt><trkpt lat="34.0664181" lon="9.986203"><ele>32.0</ele><time>2026-04-25T14:43:15.846Z</time></trkpt><trkpt lat="34.0661995" lon="9.9862061"><ele>33.0</ele><time>2026-04-25T14:43:16.85Z</time></trkpt><trkpt lat="34.0659825" lon="9.986205"><ele>33.333333333333336</ele><time>2026-04-25T14:43:17.853Z</time></trkpt><trkpt lat="34.065767" lon="9.9861999"><ele>33.66666666666667</ele><time>2026-04-25T14:43:18.86Z</time></trkpt><trkpt lat="34.0655549" lon="9.9861939"><ele>34.0</ele><time>2026-04-25T14:43:19.865Z</time></trkpt><trkpt lat="34.0653441" lon="9.9861895"><ele>34.0</ele><time>2026-04-25T14:43:20.864Z</time></trkpt><trkpt lat="34.065134" lon="9.9861864"><ele>34.0</ele><time>2026-04-25T14:43:21.847Z</time></trkpt><trkpt lat="34.0649234" lon="9.9861845"><ele>34.0</ele><time>2026-04-25T14:43:22.867Z</time></trkpt><trkpt lat="34.0647142" lon="9.9861859"><ele>34.0</ele><time>2026-04-25T14:43:23.852Z</time></trkpt><trkpt lat="34.0645052" lon="9.9861833"><ele>34.0</ele><time>2026-04-25T14:43:24.852Z</time></trkpt><trkpt lat="34.0643007" lon="9.9861787"><ele>34.0</ele><time>2026-04-25T14:43:25.846Z</time></trkpt><trkpt lat="34.0640937" lon="9.9861758"><ele>34.0</ele><time>2026-04-25T14:43:26.848Z</time></trkpt><trkpt lat="34.0638884" lon="9.986173"><ele>34.0</ele><time>2026-04-25T14:43:27.849Z</time></trkpt><trkpt lat="34.0636829" lon="9.9861693"><ele>34.0</ele><time>2026-04-25T14:43:28.852Z</time></trkpt><trkpt lat="34.0634759" lon="9.9861645"><ele>33.66666666666667</ele><time>2026-04-25T14:43:29.844Z</time></trkpt><trkpt lat="34.0632697" lon="9.9861634"><ele>33.333333333333336</ele><time>2026-04-25T14:43:30.855Z</time></trkpt><trkpt lat="34.0630629" lon="9.9861591"><ele>33.0</ele><time>2026-04-25T14:43:31.858Z</time></trkpt><trkpt lat="34.0628499" lon="9.9861543"><ele>33.0</ele><time>2026-04-25T14:43:32.868Z</time></trkpt><trkpt lat="34.0626263" lon="9.9861503"><ele>33.0</ele><time>2026-04-25T14:43:33.842Z</time></trkpt><trkpt lat="34.0624022" lon="9.9861429"><ele>33.0</ele><time>2026-04-25T14:43:34.855Z</time></trkpt><trkpt lat="34.0621804" lon="9.9861376"><ele>33.333333333333336</ele><time>2026-04-25T14:43:35.849Z</time></trkpt><trkpt lat="34.061963" lon="9.9861354"><ele>33.66666666666667</ele><time>2026-04-25T14:43:36.85Z</time></trkpt><trkpt lat="34.0617625" lon="9.9861344"><ele>34.0</ele><time>2026-04-25T14:43:37.85Z</time></trkpt><trkpt lat="34.0615582" lon="9.9861323"><ele>34.333333333333336</ele><time>2026-04-25T14:43:38.853Z</time></trkpt><trkpt lat="34.0613483" lon="9.9861278"><ele>34.666666666666664</ele><time>2026-04-25T14:43:39.841Z</time></trkpt><trkpt lat="34.0611402" lon="9.9861223"><ele>35.0</ele><time>2026-04-25T14:43:40.851Z</time></trkpt><trkpt lat="34.0609442" lon="9.9861248"><ele>35.666666666666664</ele><time>2026-04-25T14:43:41.833Z</time></trkpt><trkpt lat="34.0607548" lon="9.9861301"><ele>36.333333333333336</ele><time>2026-04-25T14:43:42.836Z</time></trkpt><trkpt lat="34.060554" lon="9.986127"><ele>37.0</ele><time>2026-04-25T14:43:43.856Z</time></trkpt><trkpt lat="34.0603581" lon="9.9861243"><ele>37.0</ele><time>2026-04-25T14:43:44.854Z</time></trkpt><trkpt lat="34.0601656" lon="9.9861235"><ele>37.0</ele><time>2026-04-25T14:43:45.862Z</time></trkpt><trkpt lat="34.0599713" lon="9.9861223"><ele>37.0</ele><time>2026-04-25T14:43:46.854Z</time></trkpt><trkpt lat="34.0597793" lon="9.9861216"><ele>37.333333333333336</ele><time>2026-04-25T14:43:47.853Z</time></trkpt><trkpt lat="34.0595874" lon="9.9861196"><ele>37.666666666666664</ele><time>2026-04-25T14:43:48.849Z</time></trkpt><trkpt lat="34.0593921" lon="9.9861193"><ele>38.0</ele><time>2026-04-25T14:43:49.857Z</time></trkpt><trkpt lat="34.0592002" lon="9.9861163"><ele>38.33333333333333</ele><time>2026-04-25T14:43:50.869Z</time></trkpt><trkpt lat="34.0590093" lon="9.9861144"><ele>38.666666666666664</ele><time>2026-04-25T14:43:51.857Z</time></trkpt><trkpt lat="34.0588178" lon="9.9861148"><ele>39.0</ele><time>2026-04-25T14:43:52.851Z</time></trkpt><trkpt lat="34.0586263" lon="9.9861123"><ele>39.0</ele><time>2026-04-25T14:43:53.848Z</time></trkpt><trkpt lat="34.0584364" lon="9.9861106"><ele>39.0</ele><time>2026-04-25T14:43:54.852Z</time></trkpt><trkpt lat="34.0582469" lon="9.9861087"><ele>39.0</ele><time>2026-04-25T14:43:55.855Z</time></trkpt><trkpt lat="34.0580558" lon="9.9861073"><ele>39.0</ele><time>2026-04-25T14:43:56.861Z</time></trkpt><trkpt lat="34.0578652" lon="9.9861052"><ele>39.0</ele><time>2026-04-25T14:43:57.848Z</time></trkpt><trkpt lat="34.0576711" lon="9.9861024"><ele>39.0</ele><time>2026-04-25T14:43:58.857Z</time></trkpt><trkpt lat="34.0574779" lon="9.9860994"><ele>39.666666666666664</ele><time>2026-04-25T14:43:59.858Z</time></trkpt><trkpt lat="34.0572837" lon="9.9860956"><ele>40.33333333333333</ele><time>2026-04-25T14:44:00.849Z</time></trkpt><trkpt lat="34.0570943" lon="9.9860935"><ele>41.0</ele><time>2026-04-25T14:44:01.847Z</time></trkpt><trkpt lat="34.0569081" lon="9.9860914"><ele>41.0</ele><time>2026-04-25T14:44:02.853Z</time></trkpt><trkpt lat="34.0567255" lon="9.9860922"><ele>41.0</ele><time>2026-04-25T14:44:03.854Z</time></trkpt><trkpt lat="34.0565465" lon="9.9860917"><ele>41.0</ele><time>2026-04-25T14:44:04.851Z</time></trkpt><trkpt lat="34.0563682" lon="9.986092"><ele>41.33333333333333</ele><time>2026-04-25T14:44:05.848Z</time></trkpt><trkpt lat="34.05619" lon="9.9860892"><ele>41.666666666666664</ele><time>2026-04-25T14:44:06.852Z</time></trkpt><trkpt lat="34.0560121" lon="9.986088"><ele>42.0</ele><time>2026-04-25T14:44:07.837Z</time></trkpt><trkpt lat="34.0558373" lon="9.9860864"><ele>43.0</ele><time>2026-04-25T14:44:08.857Z</time></trkpt><trkpt lat="34.0556661" lon="9.986086"><ele>44.0</ele><time>2026-04-25T14:44:09.865Z</time></trkpt><trkpt lat="34.0554994" lon="9.9860832"><ele>45.0</ele><time>2026-04-25T14:44:10.841Z</time></trkpt><trkpt lat="34.0553363" lon="9.9860804"><ele>45.0</ele><time>2026-04-25T14:44:11.84Z</time></trkpt><trkpt lat="34.0551839" lon="9.9860785"><ele>45.0</ele><time>2026-04-25T14:44:12.863Z</time></trkpt><trkpt lat="34.0550496" lon="9.9860764"><ele>45.0</ele><time>2026-04-25T14:44:13.858Z</time></trkpt><trkpt lat="34.054931" lon="9.9860734"><ele>45.0</ele><time>2026-04-25T14:44:14.852Z</time></trkpt><trkpt lat="34.0548349" lon="9.9860681"><ele>45.2</ele><time>2026-04-25T14:44:15.851Z</time></trkpt><trkpt lat="34.0547509" lon="9.9860664"><ele>45.4</ele><time>2026-04-25T14:44:16.85Z</time></trkpt><trkpt lat="34.0546686" lon="9.9860658"><ele>45.599999999999994</ele><time>2026-04-25T14:44:17.858Z</time></trkpt><trkpt lat="34.0545751" lon="9.9860633"><ele>45.8</ele><time>2026-04-25T14:44:18.841Z</time></trkpt><trkpt lat="34.0544739" lon="9.9860649"><ele>46.0</ele><time>2026-04-25T14:44:19.849Z</time></trkpt><trkpt lat="34.0543628" lon="9.9860652"><ele>46.0</ele><time>2026-04-25T14:44:20.858Z</time></trkpt><trkpt lat="34.0542447" lon="9.9860641"><ele>46.0</ele><time>2026-04-25T14:44:21.859Z</time></trkpt><trkpt lat="34.0541244" lon="9.9860635"><ele>46.0</ele><time>2026-04-25T14:44:22.855Z</time></trkpt><trkpt lat="34.0540026" lon="9.9860611"><ele>46.0</ele><time>2026-04-25T14:44:23.862Z</time></trkpt><trkpt lat="34.0538728" lon="9.98606"><ele>46.5</ele><time>2026-04-25T14:44:24.853Z</time></trkpt><trkpt lat="34.0537377" lon="9.9860613"><ele>47.0</ele><time>2026-04-25T14:44:25.859Z</time></trkpt><trkpt lat="34.0536005" lon="9.9860684"><ele>47.5</ele><time>2026-04-25T14:44:26.857Z</time></trkpt><trkpt lat="34.053461" lon="9.9860831"><ele>48.0</ele><time>2026-04-25T14:44:27.842Z</time></trkpt><trkpt lat="34.0533154" lon="9.9861025"><ele>47.666666666666664</ele><time>2026-04-25T14:44:28.842Z</time></trkpt><trkpt lat="34.053166" lon="9.9861222"><ele>47.33333333333333</ele><time>2026-04-25T14:44:29.862Z</time></trkpt><trkpt lat="34.053011" lon="9.9861503"><ele>47.0</ele><time>2026-04-25T14:44:30.849Z</time></trkpt><trkpt lat="34.052853" lon="9.9861863"><ele>47.0</ele><time>2026-04-25T14:44:31.845Z</time></trkpt><trkpt lat="34.0526983" lon="9.9862283"><ele>47.0</ele><time>2026-04-25T14:44:32.846Z</time></trkpt><trkpt lat="34.0525467" lon="9.9862766"><ele>47.0</ele><time>2026-04-25T14:44:33.853Z</time></trkpt><trkpt lat="34.0523973" lon="9.986332"><ele>47.0</ele><time>2026-04-25T14:44:34.846Z</time></trkpt><trkpt lat="34.0522486" lon="9.9863921"><ele>47.0</ele><time>2026-04-25T14:44:35.852Z</time></trkpt><trkpt lat="34.0521001" lon="9.9864573"><ele>47.0</ele><time>2026-04-25T14:44:36.847Z</time></trkpt><trkpt lat="34.0519506" lon="9.9865261"><ele>47.0</ele><time>2026-04-25T14:44:37.854Z</time></trkpt><trkpt lat="34.0517995" lon="9.9865959"><ele>47.0</ele><time>2026-04-25T14:44:38.85Z</time></trkpt><trkpt lat="34.0516463" lon="9.9866708"><ele>47.0</ele><time>2026-04-25T14:44:39.855Z</time></trkpt><trkpt lat="34.0514946" lon="9.9867412"><ele>47.0</ele><time>2026-04-25T14:44:40.845Z</time></trkpt><trkpt lat="34.0513446" lon="9.9868101"><ele>47.0</ele><time>2026-04-25T14:44:41.869Z</time></trkpt><trkpt lat="34.0511959" lon="9.9868762"><ele>47.0</ele><time>2026-04-25T14:44:42.85Z</time></trkpt><trkpt lat="34.0510475" lon="9.9869415"><ele>47.0</ele><time>2026-04-25T14:44:43.851Z</time></trkpt><trkpt lat="34.0508993" lon="9.9870109"><ele>47.0</ele><time>2026-04-25T14:44:44.841Z</time></trkpt><trkpt lat="34.050754" lon="9.9870778"><ele>47.0</ele><time>2026-04-25T14:44:45.844Z</time></trkpt><trkpt lat="34.0506092" lon="9.9871456"><ele>46.0</ele><time>2026-04-25T14:44:46.835Z</time></trkpt><trkpt lat="34.050465" lon="9.9872105"><ele>45.0</ele><time>2026-04-25T14:44:47.849Z</time></trkpt><trkpt lat="34.0503232" lon="9.9872706"><ele>44.0</ele><time>2026-04-25T14:44:48.833Z</time></trkpt><trkpt lat="34.0501832" lon="9.9873314"><ele>44.0</ele><time>2026-04-25T14:44:49.837Z</time></trkpt><trkpt lat="34.0500438" lon="9.9873959"><ele>44.0</ele><time>2026-04-25T14:44:50.855Z</time></trkpt><trkpt lat="34.0499067" lon="9.9874586"><ele>44.0</ele><time>2026-04-25T14:44:51.852Z</time></trkpt><trkpt lat="34.0497693" lon="9.9875206"><ele>44.0</ele><time>2026-04-25T14:44:52.841Z</time></trkpt><trkpt lat="34.0496313" lon="9.9875843"><ele>43.0</ele><time>2026-04-25T14:44:53.841Z</time></trkpt><trkpt lat="34.0494903" lon="9.9876498"><ele>42.0</ele><time>2026-04-25T14:44:54.863Z</time></trkpt><trkpt lat="34.0493476" lon="9.9877177"><ele>41.0</ele><time>2026-04-25T14:44:55.836Z</time></trkpt><trkpt lat="34.0492026" lon="9.9877855"><ele>41.666666666666664</ele><time>2026-04-25T14:44:56.85Z</time></trkpt><trkpt lat="34.0490555" lon="9.9878536"><ele>42.333333333333336</ele><time>2026-04-25T14:44:57.84Z</time></trkpt><trkpt lat="34.0489004" lon="9.9879244"><ele>43.0</ele><time>2026-04-25T14:44:58.851Z</time></trkpt><trkpt lat="34.048744" lon="9.987995"><ele>43.0</ele><time>2026-04-25T14:44:59.833Z</time></trkpt><trkpt lat="34.0485851" lon="9.9880679"><ele>43.0</ele><time>2026-04-25T14:45:00.856Z</time></trkpt><trkpt lat="34.0484298" lon="9.9881408"><ele>43.0</ele><time>2026-04-25T14:45:01.842Z</time></trkpt><trkpt lat="34.0482783" lon="9.9882118"><ele>43.0</ele><time>2026-04-25T14:45:02.845Z</time></trkpt><trkpt lat="34.0481387" lon="9.9882785"><ele>43.0</ele><time>2026-04-25T14:45:03.844Z</time></trkpt><trkpt lat="34.0480068" lon="9.9883409"><ele>43.0</ele><time>2026-04-25T14:45:04.843Z</time></trkpt><trkpt lat="34.0478803" lon="9.9883991"><ele>43.0</ele><time>2026-04-25T14:45:05.841Z</time></trkpt><trkpt lat="34.0477595" lon="9.9884557"><ele>42.75</ele><time>2026-04-25T14:45:06.855Z</time></trkpt><trkpt lat="34.0476428" lon="9.9885124"><ele>42.5</ele><time>2026-04-25T14:45:07.847Z</time></trkpt><trkpt lat="34.0475338" lon="9.9885651"><ele>42.25</ele><time>2026-04-25T14:45:08.839Z</time></trkpt><trkpt lat="34.0474241" lon="9.9886203"><ele>42.0</ele><time>2026-04-25T14:45:09.837Z</time></trkpt><trkpt lat="34.0473126" lon="9.9886738"><ele>42.0</ele><time>2026-04-25T14:45:10.844Z</time></trkpt><trkpt lat="34.0472016" lon="9.9887259"><ele>42.0</ele><time>2026-04-25T14:45:11.842Z</time></trkpt><trkpt lat="34.0470935" lon="9.9887762"><ele>42.0</ele><time>2026-04-25T14:45:12.845Z</time></trkpt><trkpt lat="34.0469856" lon="9.9888263"><ele>42.0</ele><time>2026-04-25T14:45:13.84Z</time></trkpt><trkpt lat="34.0468788" lon="9.9888787"><ele>42.0</ele><time>2026-04-25T14:45:14.84Z</time></trkpt><trkpt lat="34.0467726" lon="9.9889297"><ele>42.0</ele><time>2026-04-25T14:45:15.834Z</time></trkpt><trkpt lat="34.0466607" lon="9.988981"><ele>42.0</ele><time>2026-04-25T14:45:16.837Z</time></trkpt><trkpt lat="34.0465452" lon="9.9890342"><ele>42.0</ele><time>2026-04-25T14:45:17.831Z</time></trkpt><trkpt lat="34.0464253" lon="9.9890912"><ele>42.0</ele><time>2026-04-25T14:45:18.844Z</time></trkpt><trkpt lat="34.0463025" lon="9.9891514"><ele>42.0</ele><time>2026-04-25T14:45:19.845Z</time></trkpt><trkpt lat="34.0461727" lon="9.9892082"><ele>42.0</ele><time>2026-04-25T14:45:20.83Z</time></trkpt><trkpt lat="34.0460383" lon="9.9892613"><ele>42.0</ele><time>2026-04-25T14:45:21.842Z</time></trkpt><trkpt lat="34.0459008" lon="9.989321"><ele>41.666666666666664</ele><time>2026-04-25T14:45:22.849Z</time></trkpt><trkpt lat="34.0457603" lon="9.9893871"><ele>41.33333333333333</ele><time>2026-04-25T14:45:23.844Z</time></trkpt><trkpt lat="34.0456166" lon="9.9894559"><ele>41.0</ele><time>2026-04-25T14:45:24.845Z</time></trkpt><trkpt lat="34.0454749" lon="9.989521"><ele>41.0</ele><time>2026-04-25T14:45:25.842Z</time></trkpt><trkpt lat="34.0453378" lon="9.9895849"><ele>41.0</ele><time>2026-04-25T14:45:26.834Z</time></trkpt><trkpt lat="34.0451997" lon="9.9896474"><ele>41.0</ele><time>2026-04-25T14:45:27.85Z</time></trkpt><trkpt lat="34.0450611" lon="9.989707"><ele>41.0</ele><time>2026-04-25T14:45:28.848Z</time></trkpt><trkpt lat="34.0449208" lon="9.9897634"><ele>41.33333333333333</ele><time>2026-04-25T14:45:29.841Z</time></trkpt><trkpt lat="34.0447783" lon="9.9898178"><ele>41.666666666666664</ele><time>2026-04-25T14:45:30.855Z</time></trkpt><trkpt lat="34.0446295" lon="9.9898674"><ele>42.0</ele><time>2026-04-25T14:45:31.84Z</time></trkpt><trkpt lat="34.0444765" lon="9.9899078"><ele>42.0</ele><time>2026-04-25T14:45:32.836Z</time></trkpt><trkpt lat="34.044322" lon="9.9899423"><ele>42.0</ele><time>2026-04-25T14:45:33.847Z</time></trkpt><trkpt lat="34.0441682" lon="9.989972"><ele>42.0</ele><time>2026-04-25T14:45:34.848Z</time></trkpt><trkpt lat="34.0440146" lon="9.9899954"><ele>42.0</ele><time>2026-04-25T14:45:35.847Z</time></trkpt><trkpt lat="34.043862" lon="9.9900111"><ele>42.0</ele><time>2026-04-25T14:45:36.836Z</time></trkpt><trkpt lat="34.0437086" lon="9.990021"><ele>42.0</ele><time>2026-04-25T14:45:37.834Z</time></trkpt><trkpt lat="34.0435539" lon="9.9900242"><ele>42.0</ele><time>2026-04-25T14:45:38.842Z</time></trkpt><trkpt lat="34.0433985" lon="9.9900219"><ele>42.0</ele><time>2026-04-25T14:45:39.851Z</time></trkpt><trkpt lat="34.0432398" lon="9.9900187"><ele>42.0</ele><time>2026-04-25T14:45:40.85Z</time></trkpt><trkpt lat="34.043078" lon="9.9900146"><ele>41.666666666666664</ele><time>2026-04-25T14:45:41.85Z</time></trkpt><trkpt lat="34.0429131" lon="9.9900112"><ele>41.33333333333333</ele><time>2026-04-25T14:45:42.837Z</time></trkpt><trkpt lat="34.0427435" lon="9.990009"><ele>41.0</ele><time>2026-04-25T14:45:43.851Z</time></trkpt><trkpt lat="34.0425717" lon="9.9900062"><ele>40.666666666666664</ele><time>2026-04-25T14:45:44.839Z</time></trkpt><trkpt lat="34.042399" lon="9.9900033"><ele>40.333333333333336</ele><time>2026-04-25T14:45:45.856Z</time></trkpt><trkpt lat="34.0422239" lon="9.9900017"><ele>40.0</ele><time>2026-04-25T14:45:46.853Z</time></trkpt><trkpt lat="34.0420463" lon="9.9899992"><ele>40.0</ele><time>2026-04-25T14:45:47.842Z</time></trkpt><trkpt lat="34.0418663" lon="9.9899984"><ele>40.0</ele><time>2026-04-25T14:45:48.832Z</time></trkpt><trkpt lat="34.0416858" lon="9.9899966"><ele>40.0</ele><time>2026-04-25T14:45:49.851Z</time></trkpt><trkpt lat="34.0415036" lon="9.9899954"><ele>40.0</ele><time>2026-04-25T14:45:50.841Z</time></trkpt><trkpt lat="34.0413213" lon="9.9899947"><ele>40.0</ele><time>2026-04-25T14:45:51.855Z</time></trkpt><trkpt lat="34.0411408" lon="9.9899925"><ele>40.0</ele><time>2026-04-25T14:45:52.853Z</time></trkpt><trkpt lat="34.0409588" lon="9.9899912"><ele>39.66666666666667</ele><time>2026-04-25T14:45:53.851Z</time></trkpt><trkpt lat="34.040772" lon="9.9899886"><ele>39.333333333333336</ele><time>2026-04-25T14:45:54.844Z</time></trkpt><trkpt lat="34.0405851" lon="9.9899831"><ele>39.0</ele><time>2026-04-25T14:45:55.854Z</time></trkpt><trkpt lat="34.0403972" lon="9.9899777"><ele>39.0</ele><time>2026-04-25T14:45:56.85Z</time></trkpt><trkpt lat="34.040211" lon="9.9899747"><ele>39.0</ele><time>2026-04-25T14:45:57.841Z</time></trkpt><trkpt lat="34.0400309" lon="9.9899792"><ele>39.0</ele><time>2026-04-25T14:45:58.843Z</time></trkpt><trkpt lat="34.039838" lon="9.9899762"><ele>39.0</ele><time>2026-04-25T14:45:59.847Z</time></trkpt><trkpt lat="34.0396458" lon="9.9899781"><ele>39.0</ele><time>2026-04-25T14:46:00.837Z</time></trkpt><trkpt lat="34.0394536" lon="9.9899857"><ele>39.0</ele><time>2026-04-25T14:46:01.851Z</time></trkpt><trkpt lat="34.039262" lon="9.9900031"><ele>37.666666666666664</ele><time>2026-04-25T14:46:02.844Z</time></trkpt><trkpt lat="34.0390693" lon="9.9900213"><ele>36.33333333333333</ele><time>2026-04-25T14:46:03.843Z</time></trkpt><trkpt lat="34.0388786" lon="9.9900429"><ele>35.0</ele><time>2026-04-25T14:46:04.839Z</time></trkpt><trkpt lat="34.0386889" lon="9.9900673"><ele>35.0</ele><time>2026-04-25T14:46:05.837Z</time></trkpt><trkpt lat="34.0384978" lon="9.9900957"><ele>35.0</ele><time>2026-04-25T14:46:06.84Z</time></trkpt><trkpt lat="34.0383089" lon="9.9901282"><ele>35.0</ele><time>2026-04-25T14:46:07.852Z</time></trkpt><trkpt lat="34.0381247" lon="9.9901656"><ele>34.666666666666664</ele><time>2026-04-25T14:46:08.835Z</time></trkpt><trkpt lat="34.0379447" lon="9.9902074"><ele>34.333333333333336</ele><time>2026-04-25T14:46:09.846Z</time></trkpt><trkpt lat="34.0377676" lon="9.9902527"><ele>34.0</ele><time>2026-04-25T14:46:10.855Z</time></trkpt><trkpt lat="34.0375901" lon="9.9902984"><ele>34.333333333333336</ele><time>2026-04-25T14:46:11.851Z</time></trkpt><trkpt lat="34.0374078" lon="9.9903463"><ele>34.666666666666664</ele><time>2026-04-25T14:46:12.848Z</time></trkpt><trkpt lat="34.0372253" lon="9.9903924"><ele>35.0</ele><time>2026-04-25T14:46:13.843Z</time></trkpt><trkpt lat="34.0370469" lon="9.9904394"><ele>35.0</ele><time>2026-04-25T14:46:14.839Z</time></trkpt><trkpt lat="34.0368697" lon="9.9904857"><ele>35.0</ele><time>2026-04-25T14:46:15.846Z</time></trkpt><trkpt lat="34.0366905" lon="9.9905319"><ele>35.0</ele><time>2026-04-25T14:46:16.842Z</time></trkpt><trkpt lat="34.0365089" lon="9.9905768"><ele>35.0</ele><time>2026-04-25T14:46:17.853Z</time></trkpt><trkpt lat="34.036329" lon="9.9906223"><ele>35.0</ele><time>2026-04-25T14:46:18.85Z</time></trkpt><trkpt lat="34.0361484" lon="9.990668"><ele>35.0</ele><time>2026-04-25T14:46:19.849Z</time></trkpt><trkpt lat="34.0359692" lon="9.9907142"><ele>35.33333333333333</ele><time>2026-04-25T14:46:20.849Z</time></trkpt><trkpt lat="34.0357903" lon="9.9907613"><ele>35.666666666666664</ele><time>2026-04-25T14:46:21.841Z</time></trkpt><trkpt lat="34.0356116" lon="9.9908106"><ele>36.0</ele><time>2026-04-25T14:46:22.845Z</time></trkpt><trkpt lat="34.035434" lon="9.9908604"><ele>36.333333333333336</ele><time>2026-04-25T14:46:23.851Z</time></trkpt><trkpt lat="34.0352565" lon="9.9909083"><ele>36.66666666666667</ele><time>2026-04-25T14:46:24.836Z</time></trkpt><trkpt lat="34.0350788" lon="9.9909573"><ele>37.0</ele><time>2026-04-25T14:46:25.852Z</time></trkpt><trkpt lat="34.0348976" lon="9.9910044"><ele>36.333333333333336</ele><time>2026-04-25T14:46:26.853Z</time></trkpt><trkpt lat="34.0347154" lon="9.9910484"><ele>35.666666666666664</ele><time>2026-04-25T14:46:27.842Z</time></trkpt><trkpt lat="34.0345322" lon="9.9910961"><ele>35.0</ele><time>2026-04-25T14:46:28.839Z</time></trkpt><trkpt lat="34.0343491" lon="9.991142"><ele>35.0</ele><time>2026-04-25T14:46:29.85Z</time></trkpt><trkpt lat="34.0341668" lon="9.991189"><ele>35.0</ele><time>2026-04-25T14:46:30.847Z</time></trkpt><trkpt lat="34.0339808" lon="9.9912427"><ele>35.0</ele><time>2026-04-25T14:46:31.846Z</time></trkpt><trkpt lat="34.0337933" lon="9.9912939"><ele>34.666666666666664</ele><time>2026-04-25T14:46:32.851Z</time></trkpt><trkpt lat="34.0336025" lon="9.9913455"><ele>34.333333333333336</ele><time>2026-04-25T14:46:33.842Z</time></trkpt><trkpt lat="34.0334083" lon="9.9913961"><ele>34.0</ele><time>2026-04-25T14:46:34.842Z</time></trkpt><trkpt lat="34.0332089" lon="9.9914463"><ele>33.66666666666667</ele><time>2026-04-25T14:46:35.857Z</time></trkpt><trkpt lat="34.0330086" lon="9.9914976"><ele>33.333333333333336</ele><time>2026-04-25T14:46:36.85Z</time></trkpt><trkpt lat="34.0328101" lon="9.9915483"><ele>33.0</ele><time>2026-04-25T14:46:37.843Z</time></trkpt><trkpt lat="34.0326118" lon="9.9916003"><ele>32.666666666666664</ele><time>2026-04-25T14:46:38.845Z</time></trkpt><trkpt lat="34.032421" lon="9.9916509"><ele>32.33333333333333</ele><time>2026-04-25T14:46:39.837Z</time></trkpt><trkpt lat="34.0322319" lon="9.9916998"><ele>32.0</ele><time>2026-04-25T14:46:40.842Z</time></trkpt><trkpt lat="34.0320453" lon="9.9917455"><ele>31.333333333333332</ele><time>2026-04-25T14:46:41.85Z</time></trkpt><trkpt lat="34.0318588" lon="9.9917929"><ele>30.666666666666664</ele><time>2026-04-25T14:46:42.852Z</time></trkpt><trkpt lat="34.0316765" lon="9.9918415"><ele>30.0</ele><time>2026-04-25T14:46:43.84Z</time></trkpt><trkpt lat="34.0314913" lon="9.9918919"><ele>29.666666666666664</ele><time>2026-04-25T14:46:44.85Z</time></trkpt><trkpt lat="34.0313074" lon="9.9919402"><ele>29.333333333333332</ele><time>2026-04-25T14:46:45.845Z</time></trkpt><trkpt lat="34.0311204" lon="9.9919892"><ele>29.0</ele><time>2026-04-25T14:46:46.852Z</time></trkpt><trkpt lat="34.0309301" lon="9.9920394"><ele>29.0</ele><time>2026-04-25T14:46:47.853Z</time></trkpt><trkpt lat="34.0307367" lon="9.9920898"><ele>29.0</ele><time>2026-04-25T14:46:48.85Z</time></trkpt><trkpt lat="34.0305426" lon="9.9921399"><ele>29.0</ele><time>2026-04-25T14:46:49.842Z</time></trkpt><trkpt lat="34.0303468" lon="9.9921886"><ele>29.0</ele><time>2026-04-25T14:46:50.849Z</time></trkpt><trkpt lat="34.0301526" lon="9.9922383"><ele>29.0</ele><time>2026-04-25T14:46:51.85Z</time></trkpt><trkpt lat="34.0299602" lon="9.9922884"><ele>29.0</ele><time>2026-04-25T14:46:52.846Z</time></trkpt><trkpt lat="34.029771" lon="9.9923348"><ele>29.666666666666664</ele><time>2026-04-25T14:46:53.854Z</time></trkpt><trkpt lat="34.0295832" lon="9.9923809"><ele>30.333333333333336</ele><time>2026-04-25T14:46:54.853Z</time></trkpt><trkpt lat="34.0293982" lon="9.9924308"><ele>31.0</ele><time>2026-04-25T14:46:55.847Z</time></trkpt><trkpt lat="34.0292157" lon="9.9924805"><ele>30.0</ele><time>2026-04-25T14:46:56.832Z</time></trkpt><trkpt lat="34.0290346" lon="9.9925287"><ele>29.0</ele><time>2026-04-25T14:46:57.851Z</time></trkpt><trkpt lat="34.0288545" lon="9.992576"><ele>28.0</ele><time>2026-04-25T14:46:58.837Z</time></trkpt><trkpt lat="34.0286767" lon="9.9926252"><ele>28.0</ele><time>2026-04-25T14:46:59.844Z</time></trkpt><trkpt lat="34.028498" lon="9.9926725"><ele>28.0</ele><time>2026-04-25T14:47:00.847Z</time></trkpt><trkpt lat="34.0283193" lon="9.9927199"><ele>28.0</ele><time>2026-04-25T14:47:01.838Z</time></trkpt><trkpt lat="34.028141" lon="9.9927677"><ele>28.0</ele><time>2026-04-25T14:47:02.853Z</time></trkpt><trkpt lat="34.027965" lon="9.9928144"><ele>28.0</ele><time>2026-04-25T14:47:03.838Z</time></trkpt><trkpt lat="34.0277891" lon="9.99286"><ele>28.0</ele><time>2026-04-25T14:47:04.85Z</time></trkpt><trkpt lat="34.027613" lon="9.9929041"><ele>28.0</ele><time>2026-04-25T14:47:05.849Z</time></trkpt><trkpt lat="34.027437" lon="9.9929491"><ele>28.0</ele><time>2026-04-25T14:47:06.832Z</time></trkpt><trkpt lat="34.0272646" lon="9.992995"><ele>28.0</ele><time>2026-04-25T14:47:07.843Z</time></trkpt><trkpt lat="34.0270917" lon="9.9930418"><ele>28.0</ele><time>2026-04-25T14:47:08.851Z</time></trkpt><trkpt lat="34.0269165" lon="9.9930877"><ele>28.0</ele><time>2026-04-25T14:47:09.854Z</time></trkpt><trkpt lat="34.0267413" lon="9.9931334"><ele>28.0</ele><time>2026-04-25T14:47:10.847Z</time></trkpt><trkpt lat="34.0265625" lon="9.9931792"><ele>27.666666666666668</ele><time>2026-04-25T14:47:11.844Z</time></trkpt><trkpt lat="34.0263814" lon="9.9932238"><ele>27.333333333333336</ele><time>2026-04-25T14:47:12.85Z</time></trkpt><trkpt lat="34.0262005" lon="9.9932692"><ele>27.0</ele><time>2026-04-25T14:47:13.847Z</time></trkpt><trkpt lat="34.0260193" lon="9.9933166"><ele>27.0</ele><time>2026-04-25T14:47:14.854Z</time></trkpt><trkpt lat="34.0258365" lon="9.993364"><ele>27.0</ele><time>2026-04-25T14:47:15.842Z</time></trkpt><trkpt lat="34.0256531" lon="9.9934113"><ele>27.0</ele><time>2026-04-25T14:47:16.863Z</time></trkpt><trkpt lat="34.0254705" lon="9.9934579"><ele>27.0</ele><time>2026-04-25T14:47:17.844Z</time></trkpt><trkpt lat="34.0252891" lon="9.9935049"><ele>27.0</ele><time>2026-04-25T14:47:18.844Z</time></trkpt><trkpt lat="34.0251086" lon="9.9935516"><ele>27.0</ele><time>2026-04-25T14:47:19.843Z</time></trkpt><trkpt lat="34.0249278" lon="9.9935991"><ele>27.0</ele><time>2026-04-25T14:47:20.834Z</time></trkpt><trkpt lat="34.0247471" lon="9.9936452"><ele>27.0</ele><time>2026-04-25T14:47:21.832Z</time></trkpt><trkpt lat="34.0245673" lon="9.993693"><ele>27.0</ele><time>2026-04-25T14:47:22.829Z</time></trkpt><trkpt lat="34.0243867" lon="9.9937409"><ele>27.0</ele><time>2026-04-25T14:47:23.84Z</time></trkpt><trkpt lat="34.0242059" lon="9.9937902"><ele>27.0</ele><time>2026-04-25T14:47:24.84Z</time></trkpt><trkpt lat="34.0240265" lon="9.9938395"><ele>27.0</ele><time>2026-04-25T14:47:25.846Z</time></trkpt><trkpt lat="34.023847" lon="9.9938862"><ele>27.0</ele><time>2026-04-25T14:47:26.843Z</time></trkpt><trkpt lat="34.0236677" lon="9.9939326"><ele>27.0</ele><time>2026-04-25T14:47:27.832Z</time></trkpt><trkpt lat="34.0234884" lon="9.9939793"><ele>27.0</ele><time>2026-04-25T14:47:28.849Z</time></trkpt><trkpt lat="34.0233091" lon="9.9940261"><ele>26.333333333333336</ele><time>2026-04-25T14:47:29.862Z</time></trkpt><trkpt lat="34.0231293" lon="9.9940728"><ele>25.666666666666668</ele><time>2026-04-25T14:47:30.853Z</time></trkpt><trkpt lat="34.0229473" lon="9.9941192"><ele>25.0</ele><time>2026-04-25T14:47:31.856Z</time></trkpt><trkpt lat="34.0227676" lon="9.9941659"><ele>25.0</ele><time>2026-04-25T14:47:32.839Z</time></trkpt><trkpt lat="34.0225888" lon="9.9942117"><ele>25.0</ele><time>2026-04-25T14:47:33.851Z</time></trkpt><trkpt lat="34.0224107" lon="9.9942589"><ele>25.0</ele><time>2026-04-25T14:47:34.843Z</time></trkpt><trkpt lat="34.0222332" lon="9.9943068"><ele>24.666666666666668</ele><time>2026-04-25T14:47:35.847Z</time></trkpt><trkpt lat="34.0220584" lon="9.9943523"><ele>24.333333333333336</ele><time>2026-04-25T14:47:36.843Z</time></trkpt><trkpt lat="34.0218825" lon="9.994397"><ele>24.0</ele><time>2026-04-25T14:47:37.852Z</time></trkpt><trkpt lat="34.021705" lon="9.9944422"><ele>23.666666666666668</ele><time>2026-04-25T14:47:38.856Z</time></trkpt><trkpt lat="34.0215271" lon="9.9944873"><ele>23.333333333333336</ele><time>2026-04-25T14:47:39.83Z</time></trkpt><trkpt lat="34.0213501" lon="9.9945328"><ele>23.0</ele><time>2026-04-25T14:47:40.842Z</time></trkpt><trkpt lat="34.0211706" lon="9.9945785"><ele>23.0</ele><time>2026-04-25T14:47:41.847Z</time></trkpt><trkpt lat="34.0209927" lon="9.9946247"><ele>23.0</ele><time>2026-04-25T14:47:42.85Z</time></trkpt><trkpt lat="34.0208097" lon="9.9946707"><ele>23.0</ele><time>2026-04-25T14:47:43.854Z</time></trkpt><trkpt lat="34.020631" lon="9.9947139"><ele>23.333333333333336</ele><time>2026-04-25T14:47:44.842Z</time></trkpt><trkpt lat="34.020459" lon="9.9947581"><ele>23.666666666666668</ele><time>2026-04-25T14:47:45.853Z</time></trkpt><trkpt lat="34.0202797" lon="9.9948051"><ele>24.0</ele><time>2026-04-25T14:47:46.849Z</time></trkpt><trkpt lat="34.0201022" lon="9.9948537"><ele>24.333333333333336</ele><time>2026-04-25T14:47:47.849Z</time></trkpt><trkpt lat="34.019929" lon="9.9948992"><ele>24.666666666666668</ele><time>2026-04-25T14:47:48.845Z</time></trkpt><trkpt lat="34.0197576" lon="9.9949457"><ele>25.0</ele><time>2026-04-25T14:47:49.852Z</time></trkpt><trkpt lat="34.0195858" lon="9.9949926"><ele>24.666666666666668</ele><time>2026-04-25T14:47:50.843Z</time></trkpt><trkpt lat="34.0194173" lon="9.9950376"><ele>24.333333333333336</ele><time>2026-04-25T14:47:51.842Z</time></trkpt><trkpt lat="34.0192492" lon="9.9950801"><ele>24.0</ele><time>2026-04-25T14:47:52.849Z</time></trkpt><trkpt lat="34.0190805" lon="9.9951237"><ele>23.666666666666668</ele><time>2026-04-25T14:47:53.844Z</time></trkpt><trkpt lat="34.0189155" lon="9.9951685"><ele>23.333333333333336</ele><time>2026-04-25T14:47:54.852Z</time></trkpt><trkpt lat="34.0187484" lon="9.9952141"><ele>23.0</ele><time>2026-04-25T14:47:55.846Z</time></trkpt><trkpt lat="34.0185788" lon="9.9952616"><ele>23.0</ele><time>2026-04-25T14:47:56.846Z</time></trkpt><trkpt lat="34.0184088" lon="9.995308"><ele>23.0</ele><time>2026-04-25T14:47:57.853Z</time></trkpt><trkpt lat="34.0182385" lon="9.9953506"><ele>23.0</ele><time>2026-04-25T14:47:58.851Z</time></trkpt><trkpt lat="34.0180676" lon="9.9953943"><ele>23.333333333333336</ele><time>2026-04-25T14:47:59.856Z</time></trkpt><trkpt lat="34.0178963" lon="9.9954381"><ele>23.666666666666668</ele><time>2026-04-25T14:48:00.843Z</time></trkpt><trkpt lat="34.0177241" lon="9.9954832"><ele>24.0</ele><time>2026-04-25T14:48:01.851Z</time></trkpt><trkpt lat="34.0175501" lon="9.9955287"><ele>23.666666666666668</ele><time>2026-04-25T14:48:02.839Z</time></trkpt><trkpt lat="34.0173778" lon="9.9955743"><ele>23.333333333333336</ele><time>2026-04-25T14:48:03.844Z</time></trkpt><trkpt lat="34.0172007" lon="9.9956199"><ele>23.0</ele><time>2026-04-25T14:48:04.847Z</time></trkpt><trkpt lat="34.0170227" lon="9.9956645"><ele>23.0</ele><time>2026-04-25T14:48:05.847Z</time></trkpt><trkpt lat="34.0168444" lon="9.9957084"><ele>23.0</ele><time>2026-04-25T14:48:06.847Z</time></trkpt><trkpt lat="34.0166671" lon="9.995759"><ele>23.0</ele><time>2026-04-25T14:48:07.848Z</time></trkpt><trkpt lat="34.0164865" lon="9.9958099"><ele>22.666666666666668</ele><time>2026-04-25T14:48:08.85Z</time></trkpt><trkpt lat="34.0163032" lon="9.9958603"><ele>22.333333333333332</ele><time>2026-04-25T14:48:09.84Z</time></trkpt><trkpt lat="34.016119" lon="9.9959074"><ele>22.0</ele><time>2026-04-25T14:48:10.836Z</time></trkpt><trkpt lat="34.015936" lon="9.9959532"><ele>22.333333333333332</ele><time>2026-04-25T14:48:11.844Z</time></trkpt><trkpt lat="34.0157505" lon="9.9959986"><ele>22.666666666666668</ele><time>2026-04-25T14:48:12.849Z</time></trkpt><trkpt lat="34.0155641" lon="9.9960453"><ele>23.0</ele><time>2026-04-25T14:48:13.864Z</time></trkpt><trkpt lat="34.0153788" lon="9.9960923"><ele>23.0</ele><time>2026-04-25T14:48:14.838Z</time></trkpt><trkpt lat="34.0151943" lon="9.9961409"><ele>23.0</ele><time>2026-04-25T14:48:15.852Z</time></trkpt><trkpt lat="34.0150119" lon="9.99619"><ele>23.0</ele><time>2026-04-25T14:48:16.825Z</time></trkpt><trkpt lat="34.0148332" lon="9.9962393"><ele>23.0</ele><time>2026-04-25T14:48:17.837Z</time></trkpt><trkpt lat="34.0146545" lon="9.9962874"><ele>23.0</ele><time>2026-04-25T14:48:18.842Z</time></trkpt><trkpt lat="34.0144791" lon="9.9963341"><ele>23.0</ele><time>2026-04-25T14:48:19.853Z</time></trkpt><trkpt lat="34.014305" lon="9.9963819"><ele>23.0</ele><time>2026-04-25T14:48:20.844Z</time></trkpt><trkpt lat="34.0141328" lon="9.9964272"><ele>23.0</ele><time>2026-04-25T14:48:21.842Z</time></trkpt><trkpt lat="34.0139621" lon="9.9964717"><ele>23.0</ele><time>2026-04-25T14:48:22.842Z</time></trkpt><trkpt lat="34.0137919" lon="9.9965157"><ele>23.0</ele><time>2026-04-25T14:48:23.849Z</time></trkpt><trkpt lat="34.013622" lon="9.9965604"><ele>23.0</ele><time>2026-04-25T14:48:24.854Z</time></trkpt><trkpt lat="34.0134506" lon="9.9966062"><ele>23.0</ele><time>2026-04-25T14:48:25.858Z</time></trkpt><trkpt lat="34.0132798" lon="9.9966529"><ele>22.333333333333336</ele><time>2026-04-25T14:48:26.849Z</time></trkpt><trkpt lat="34.0131087" lon="9.9966974"><ele>21.666666666666668</ele><time>2026-04-25T14:48:27.85Z</time></trkpt><trkpt lat="34.012939" lon="9.9967416"><ele>21.0</ele><time>2026-04-25T14:48:28.83Z</time></trkpt><trkpt lat="34.0127691" lon="9.996783"><ele>21.0</ele><time>2026-04-25T14:48:29.843Z</time></trkpt><trkpt lat="34.0125983" lon="9.9968238"><ele>21.0</ele><time>2026-04-25T14:48:30.844Z</time></trkpt><trkpt lat="34.012428" lon="9.9968588"><ele>21.0</ele><time>2026-04-25T14:48:31.843Z</time></trkpt><trkpt lat="34.0122566" lon="9.9968911"><ele>20.666666666666668</ele><time>2026-04-25T14:48:32.848Z</time></trkpt><trkpt lat="34.0120828" lon="9.9969202"><ele>20.333333333333336</ele><time>2026-04-25T14:48:33.842Z</time></trkpt><trkpt lat="34.0119113" lon="9.9969443"><ele>20.0</ele><time>2026-04-25T14:48:34.842Z</time></trkpt><trkpt lat="34.0117405" lon="9.9969702"><ele>19.666666666666668</ele><time>2026-04-25T14:48:35.845Z</time></trkpt><trkpt lat="34.0115695" lon="9.9969962"><ele>19.333333333333332</ele><time>2026-04-25T14:48:36.831Z</time></trkpt><trkpt lat="34.0113976" lon="9.9970227"><ele>19.0</ele><time>2026-04-25T14:48:37.855Z</time></trkpt><trkpt lat="34.0112237" lon="9.9970514"><ele>19.0</ele><time>2026-04-25T14:48:38.827Z</time></trkpt><trkpt lat="34.0110522" lon="9.9970791"><ele>19.0</ele><time>2026-04-25T14:48:39.844Z</time></trkpt><trkpt lat="34.0108789" lon="9.997107"><ele>19.0</ele><time>2026-04-25T14:48:40.842Z</time></trkpt><trkpt lat="34.0107032" lon="9.9971377"><ele>18.333333333333332</ele><time>2026-04-25T14:48:41.838Z</time></trkpt><trkpt lat="34.010525" lon="9.9971687"><ele>17.666666666666668</ele><time>2026-04-25T14:48:42.851Z</time></trkpt><trkpt lat="34.0103464" lon="9.9972007"><ele>17.0</ele><time>2026-04-25T14:48:43.842Z</time></trkpt><trkpt lat="34.0101682" lon="9.9972264"><ele>18.0</ele><time>2026-04-25T14:48:44.853Z</time></trkpt><trkpt lat="34.0099897" lon="9.9972532"><ele>19.0</ele><time>2026-04-25T14:48:45.843Z</time></trkpt><trkpt lat="34.0098084" lon="9.9972869"><ele>20.0</ele><time>2026-04-25T14:48:46.854Z</time></trkpt><trkpt lat="34.009617" lon="9.9973226"><ele>20.0</ele><time>2026-04-25T14:48:47.841Z</time></trkpt><trkpt lat="34.0094177" lon="9.9973571"><ele>20.0</ele><time>2026-04-25T14:48:48.851Z</time></trkpt><trkpt lat="34.0092148" lon="9.9973918"><ele>20.0</ele><time>2026-04-25T14:48:49.84Z</time></trkpt><trkpt lat="34.0090229" lon="9.9974239"><ele>20.0</ele><time>2026-04-25T14:48:50.846Z</time></trkpt><trkpt lat="34.0088406" lon="9.9974518"><ele>20.0</ele><time>2026-04-25T14:48:51.842Z</time></trkpt><trkpt lat="34.0086594" lon="9.997479"><ele>20.0</ele><time>2026-04-25T14:48:52.848Z</time></trkpt><trkpt lat="34.008486" lon="9.997506"><ele>19.333333333333336</ele><time>2026-04-25T14:48:53.844Z</time></trkpt><trkpt lat="34.0083197" lon="9.9975321"><ele>18.666666666666668</ele><time>2026-04-25T14:48:54.836Z</time></trkpt><trkpt lat="34.0081591" lon="9.9975559"><ele>18.0</ele><time>2026-04-25T14:48:55.844Z</time></trkpt><trkpt lat="34.0079951" lon="9.9975816"><ele>18.0</ele><time>2026-04-25T14:48:56.85Z</time></trkpt><trkpt lat="34.0078348" lon="9.9976093"><ele>18.0</ele><time>2026-04-25T14:48:57.854Z</time></trkpt><trkpt lat="34.0076749" lon="9.9976376"><ele>18.0</ele><time>2026-04-25T14:48:58.849Z</time></trkpt><trkpt lat="34.0075202" lon="9.9976611"><ele>18.0</ele><time>2026-04-25T14:48:59.829Z</time></trkpt><trkpt lat="34.0073671" lon="9.9976851"><ele>18.0</ele><time>2026-04-25T14:49:00.837Z</time></trkpt><trkpt lat="34.0072112" lon="9.9977075"><ele>18.0</ele><time>2026-04-25T14:49:01.85Z</time></trkpt><trkpt lat="34.007052" lon="9.997733"><ele>18.0</ele><time>2026-04-25T14:49:02.847Z</time></trkpt><trkpt lat="34.0068934" lon="9.9977614"><ele>18.0</ele><time>2026-04-25T14:49:03.835Z</time></trkpt><trkpt lat="34.0067322" lon="9.9977909"><ele>18.0</ele><time>2026-04-25T14:49:04.838Z</time></trkpt><trkpt lat="34.0065676" lon="9.9978183"><ele>17.666666666666668</ele><time>2026-04-25T14:49:05.852Z</time></trkpt><trkpt lat="34.0064003" lon="9.997843"><ele>17.333333333333336</ele><time>2026-04-25T14:49:06.837Z</time></trkpt><trkpt lat="34.0062304" lon="9.9978711"><ele>17.0</ele><time>2026-04-25T14:49:07.842Z</time></trkpt><trkpt lat="34.00606" lon="9.9978993"><ele>17.0</ele><time>2026-04-25T14:49:08.867Z</time></trkpt><trkpt lat="34.0058919" lon="9.9979255"><ele>17.0</ele><time>2026-04-25T14:49:09.837Z</time></trkpt><trkpt lat="34.005724" lon="9.9979516"><ele>17.0</ele><time>2026-04-25T14:49:10.843Z</time></trkpt><trkpt lat="34.0055603" lon="9.9979765"><ele>17.333333333333336</ele><time>2026-04-25T14:49:11.843Z</time></trkpt><trkpt lat="34.0053981" lon="9.998"><ele>17.666666666666668</ele><time>2026-04-25T14:49:12.854Z</time></trkpt><trkpt lat="34.0052365" lon="9.998023"><ele>18.0</ele><time>2026-04-25T14:49:13.85Z</time></trkpt><trkpt lat="34.0050795" lon="9.9980474"><ele>18.0</ele><time>2026-04-25T14:49:14.831Z</time></trkpt><trkpt lat="34.004925" lon="9.9980737"><ele>18.0</ele><time>2026-04-25T14:49:15.858Z</time></trkpt><trkpt lat="34.004773" lon="9.9981012"><ele>18.0</ele><time>2026-04-25T14:49:16.845Z</time></trkpt><trkpt lat="34.0046242" lon="9.9981312"><ele>18.0</ele><time>2026-04-25T14:49:17.848Z</time></trkpt><trkpt lat="34.0044737" lon="9.9981649"><ele>18.0</ele><time>2026-04-25T14:49:18.845Z</time></trkpt><trkpt lat="34.0043235" lon="9.9981958"><ele>18.0</ele><time>2026-04-25T14:49:19.839Z</time></trkpt><trkpt lat="34.004173" lon="9.9982264"><ele>17.666666666666668</ele><time>2026-04-25T14:49:20.844Z</time></trkpt><trkpt lat="34.0040194" lon="9.9982601"><ele>17.333333333333336</ele><time>2026-04-25T14:49:21.841Z</time></trkpt><trkpt lat="34.0038637" lon="9.9982964"><ele>17.0</ele><time>2026-04-25T14:49:22.843Z</time></trkpt><trkpt lat="34.0037063" lon="9.9983361"><ele>17.0</ele><time>2026-04-25T14:49:23.857Z</time></trkpt><trkpt lat="34.0035486" lon="9.9983793"><ele>17.0</ele><time>2026-04-25T14:49:24.842Z</time></trkpt><trkpt lat="34.0033906" lon="9.9984255"><ele>17.0</ele><time>2026-04-25T14:49:25.846Z</time></trkpt><trkpt lat="34.0032323" lon="9.9984761"><ele>16.333333333333336</ele><time>2026-04-25T14:49:26.848Z</time></trkpt><trkpt lat="34.0030746" lon="9.9985292"><ele>15.666666666666668</ele><time>2026-04-25T14:49:27.839Z</time></trkpt><trkpt lat="34.0029132" lon="9.9985864"><ele>15.0</ele><time>2026-04-25T14:49:28.832Z</time></trkpt><trkpt lat="34.0027522" lon="9.9986458"><ele>15.0</ele><time>2026-04-25T14:49:29.833Z</time></trkpt><trkpt lat="34.0025883" lon="9.9987077"><ele>15.0</ele><time>2026-04-25T14:49:30.846Z</time></trkpt><trkpt lat="34.0024243" lon="9.9987697"><ele>15.0</ele><time>2026-04-25T14:49:31.846Z</time></trkpt><trkpt lat="34.0022585" lon="9.9988342"><ele>14.666666666666668</ele><time>2026-04-25T14:49:32.835Z</time></trkpt><trkpt lat="34.0020964" lon="9.9989008"><ele>14.333333333333334</ele><time>2026-04-25T14:49:33.847Z</time></trkpt><trkpt lat="34.0019332" lon="9.9989691"><ele>14.0</ele><time>2026-04-25T14:49:34.846Z</time></trkpt><trkpt lat="34.0017748" lon="9.9990389"><ele>13.666666666666668</ele><time>2026-04-25T14:49:35.838Z</time></trkpt><trkpt lat="34.0016153" lon="9.9991092"><ele>13.333333333333332</ele><time>2026-04-25T14:49:36.841Z</time></trkpt><trkpt lat="34.0014568" lon="9.9991785"><ele>13.0</ele><time>2026-04-25T14:49:37.843Z</time></trkpt><trkpt lat="34.0012988" lon="9.9992469"><ele>13.0</ele><time>2026-04-25T14:49:38.838Z</time></trkpt><trkpt lat="34.0011415" lon="9.9993154"><ele>13.0</ele><time>2026-04-25T14:49:39.847Z</time></trkpt><trkpt lat="34.0009834" lon="9.9993865"><ele>13.0</ele><time>2026-04-25T14:49:40.848Z</time></trkpt><trkpt lat="34.0008277" lon="9.9994544"><ele>13.333333333333332</ele><time>2026-04-25T14:49:41.834Z</time></trkpt><trkpt lat="34.0006731" lon="9.9995231"><ele>13.666666666666668</ele><time>2026-04-25T14:49:42.835Z</time></trkpt><trkpt lat="34.0005192" lon="9.9995887"><ele>14.0</ele><time>2026-04-25T14:49:43.84Z</time></trkpt><trkpt lat="34.0003646" lon="9.9996559"><ele>14.0</ele><time>2026-04-25T14:49:44.85Z</time></trkpt><trkpt lat="34.0002092" lon="9.9997256"><ele>14.0</ele><time>2026-04-25T14:49:45.838Z</time></trkpt><trkpt lat="34.0000551" lon="9.9997922"><ele>14.0</ele><time>2026-04-25T14:49:46.85Z</time></trkpt><trkpt lat="33.9998993" lon="9.9998571"><ele>14.0</ele><time>2026-04-25T14:49:47.856Z</time></trkpt><trkpt lat="33.9997426" lon="9.9999153"><ele>14.0</ele><time>2026-04-25T14:49:48.853Z</time></trkpt><trkpt lat="33.9995852" lon="9.9999679"><ele>14.0</ele><time>2026-04-25T14:49:49.849Z</time></trkpt><trkpt lat="33.9994291" lon="10.0000155"><ele>14.0</ele><time>2026-04-25T14:49:50.834Z</time></trkpt><trkpt lat="33.9992717" lon="10.0000613"><ele>14.0</ele><time>2026-04-25T14:49:51.838Z</time></trkpt><trkpt lat="33.9991104" lon="10.0001053"><ele>14.0</ele><time>2026-04-25T14:49:52.852Z</time></trkpt><trkpt lat="33.9989473" lon="10.0001469"><ele>13.666666666666668</ele><time>2026-04-25T14:49:53.848Z</time></trkpt><trkpt lat="33.9987815" lon="10.0001849"><ele>13.333333333333332</ele><time>2026-04-25T14:49:54.848Z</time></trkpt><trkpt lat="33.9986123" lon="10.0002198"><ele>13.0</ele><time>2026-04-25T14:49:55.843Z</time></trkpt><trkpt lat="33.9984459" lon="10.0002536"><ele>13.0</ele><time>2026-04-25T14:49:56.851Z</time></trkpt><trkpt lat="33.9982795" lon="10.0002855"><ele>13.0</ele><time>2026-04-25T14:49:57.858Z</time></trkpt><trkpt lat="33.998115" lon="10.0003149"><ele>13.0</ele><time>2026-04-25T14:49:58.845Z</time></trkpt><trkpt lat="33.9979506" lon="10.0003442"><ele>13.0</ele><time>2026-04-25T14:49:59.834Z</time></trkpt><trkpt lat="33.9977873" lon="10.0003758"><ele>13.0</ele><time>2026-04-25T14:50:00.863Z</time></trkpt><trkpt lat="33.9976235" lon="10.0004056"><ele>13.0</ele><time>2026-04-25T14:50:01.849Z</time></trkpt><trkpt lat="33.9974613" lon="10.000437"><ele>13.666666666666666</ele><time>2026-04-25T14:50:02.857Z</time></trkpt><trkpt lat="33.9972993" lon="10.0004681"><ele>14.333333333333332</ele><time>2026-04-25T14:50:03.854Z</time></trkpt><trkpt lat="33.997136" lon="10.0004996"><ele>15.0</ele><time>2026-04-25T14:50:04.851Z</time></trkpt><trkpt lat="33.9969724" lon="10.0005287"><ele>15.0</ele><time>2026-04-25T14:50:05.857Z</time></trkpt><trkpt lat="33.996806" lon="10.0005557"><ele>15.0</ele><time>2026-04-25T14:50:06.843Z</time></trkpt><trkpt lat="33.9966391" lon="10.0005853"><ele>15.0</ele><time>2026-04-25T14:50:07.852Z</time></trkpt><trkpt lat="33.9964715" lon="10.0006176"><ele>15.0</ele><time>2026-04-25T14:50:08.844Z</time></trkpt><trkpt lat="33.9963045" lon="10.0006504"><ele>15.0</ele><time>2026-04-25T14:50:09.849Z</time></trkpt><trkpt lat="33.9961384" lon="10.0006837"><ele>15.0</ele><time>2026-04-25T14:50:10.849Z</time></trkpt><trkpt lat="33.9959691" lon="10.0007138"><ele>15.0</ele><time>2026-04-25T14:50:11.855Z</time></trkpt><trkpt lat="33.9958013" lon="10.000744"><ele>15.0</ele><time>2026-04-25T14:50:12.853Z</time></trkpt><trkpt lat="33.9956345" lon="10.0007744"><ele>15.0</ele><time>2026-04-25T14:50:13.852Z</time></trkpt><trkpt lat="33.9954689" lon="10.0008058"><ele>15.333333333333332</ele><time>2026-04-25T14:50:14.842Z</time></trkpt><trkpt lat="33.9953041" lon="10.0008358"><ele>15.666666666666666</ele><time>2026-04-25T14:50:15.836Z</time></trkpt><trkpt lat="33.9951393" lon="10.0008663"><ele>16.0</ele><time>2026-04-25T14:50:16.842Z</time></trkpt><trkpt lat="33.9949732" lon="10.0008995"><ele>15.333333333333332</ele><time>2026-04-25T14:50:17.832Z</time></trkpt><trkpt lat="33.9948085" lon="10.0009311"><ele>14.666666666666668</ele><time>2026-04-25T14:50:18.845Z</time></trkpt><trkpt lat="33.9946455" lon="10.0009632"><ele>14.0</ele><time>2026-04-25T14:50:19.853Z</time></trkpt><trkpt lat="33.9944827" lon="10.0009901"><ele>14.0</ele><time>2026-04-25T14:50:20.847Z</time></trkpt><trkpt lat="33.9943202" lon="10.0010179"><ele>14.0</ele><time>2026-04-25T14:50:21.85Z</time></trkpt><trkpt lat="33.9941562" lon="10.0010466"><ele>14.0</ele><time>2026-04-25T14:50:22.854Z</time></trkpt><trkpt lat="33.9939919" lon="10.0010752"><ele>13.666666666666668</ele><time>2026-04-25T14:50:23.862Z</time></trkpt><trkpt lat="33.9938304" lon="10.0011039"><ele>13.333333333333332</ele><time>2026-04-25T14:50:24.858Z</time></trkpt><trkpt lat="33.9936682" lon="10.0011337"><ele>13.0</ele><time>2026-04-25T14:50:25.844Z</time></trkpt><trkpt lat="33.9935054" lon="10.0011647"><ele>13.0</ele><time>2026-04-25T14:50:26.845Z</time></trkpt><trkpt lat="33.9933449" lon="10.0011956"><ele>13.0</ele><time>2026-04-25T14:50:27.838Z</time></trkpt><trkpt lat="33.9931845" lon="10.0012268"><ele>13.0</ele><time>2026-04-25T14:50:28.847Z</time></trkpt><trkpt lat="33.993029" lon="10.0012536"><ele>13.0</ele><time>2026-04-25T14:50:29.844Z</time></trkpt><trkpt lat="33.9928817" lon="10.0012809"><ele>13.0</ele><time>2026-04-25T14:50:30.831Z</time></trkpt><trkpt lat="33.9927413" lon="10.0013094"><ele>13.0</ele><time>2026-04-25T14:50:31.833Z</time></trkpt><trkpt lat="33.992603" lon="10.001333"><ele>13.0</ele><time>2026-04-25T14:50:32.84Z</time></trkpt><trkpt lat="33.9924709" lon="10.0013567"><ele>13.5</ele><time>2026-04-25T14:50:33.841Z</time></trkpt><trkpt lat="33.9923469" lon="10.0013815"><ele>14.0</ele><time>2026-04-25T14:50:34.839Z</time></trkpt><trkpt lat="33.9922289" lon="10.0014053"><ele>14.5</ele><time>2026-04-25T14:50:35.862Z</time></trkpt><trkpt lat="33.9921105" lon="10.0014287"><ele>15.0</ele><time>2026-04-25T14:50:36.839Z</time></trkpt><trkpt lat="33.9919835" lon="10.0014549"><ele>15.0</ele><time>2026-04-25T14:50:37.843Z</time></trkpt><trkpt lat="33.9918574" lon="10.0014885"><ele>15.0</ele><time>2026-04-25T14:50:38.831Z</time></trkpt><trkpt lat="33.9917326" lon="10.001528"><ele>15.0</ele><time>2026-04-25T14:50:39.839Z</time></trkpt><trkpt lat="33.9916092" lon="10.0015698"><ele>15.0</ele><time>2026-04-25T14:50:40.845Z</time></trkpt><trkpt lat="33.991486" lon="10.0016133"><ele>15.0</ele><time>2026-04-25T14:50:41.851Z</time></trkpt><trkpt lat="33.9913664" lon="10.0016586"><ele>15.0</ele><time>2026-04-25T14:50:42.858Z</time></trkpt><trkpt lat="33.9912552" lon="10.0017082"><ele>15.0</ele><time>2026-04-25T14:50:43.841Z</time></trkpt><trkpt lat="33.9911484" lon="10.0017505"><ele>15.0</ele><time>2026-04-25T14:50:44.852Z</time></trkpt><trkpt lat="33.9910433" lon="10.0017917"><ele>15.0</ele><time>2026-04-25T14:50:45.843Z</time></trkpt><trkpt lat="33.9909402" lon="10.0018334"><ele>15.0</ele><time>2026-04-25T14:50:46.844Z</time></trkpt><trkpt lat="33.9908346" lon="10.0018759"><ele>15.0</ele><time>2026-04-25T14:50:47.843Z</time></trkpt><trkpt lat="33.9907286" lon="10.0019201"><ele>15.0</ele><time>2026-04-25T14:50:48.836Z</time></trkpt><trkpt lat="33.9906222" lon="10.0019655"><ele>15.0</ele><time>2026-04-25T14:50:49.852Z</time></trkpt><trkpt lat="33.9905213" lon="10.002009"><ele>15.2</ele><time>2026-04-25T14:50:50.844Z</time></trkpt><trkpt lat="33.990422" lon="10.0020515"><ele>15.4</ele><time>2026-04-25T14:50:51.873Z</time></trkpt><trkpt lat="33.9903249" lon="10.0020926"><ele>15.600000000000001</ele><time>2026-04-25T14:50:52.866Z</time></trkpt><trkpt lat="33.9902343" lon="10.0021294"><ele>15.8</ele><time>2026-04-25T14:50:53.847Z</time></trkpt><trkpt lat="33.9901475" lon="10.0021637"><ele>16.0</ele><time>2026-04-25T14:50:54.851Z</time></trkpt><trkpt lat="33.9900676" lon="10.0021964"><ele>16.333333333333332</ele><time>2026-04-25T14:50:55.845Z</time></trkpt><trkpt lat="33.9899903" lon="10.0022293"><ele>16.666666666666664</ele><time>2026-04-25T14:50:56.845Z</time></trkpt><trkpt lat="33.9899178" lon="10.0022607"><ele>17.0</ele><time>2026-04-25T14:50:57.843Z</time></trkpt><trkpt lat="33.9898483" lon="10.0022896"><ele>17.333333333333332</ele><time>2026-04-25T14:50:58.845Z</time></trkpt><trkpt lat="33.9897822" lon="10.002318"><ele>17.666666666666668</ele><time>2026-04-25T14:50:59.84Z</time></trkpt><trkpt lat="33.9896819" lon="10.0023633"><ele>18.0</ele><time>2026-04-25T14:51:01.853Z</time></trkpt><trkpt lat="33.9895992" lon="10.0023965"><ele>18.0</ele><time>2026-04-25T14:51:03.844Z</time></trkpt><trkpt lat="33.9895175" lon="10.0024294"><ele>18.0</ele><time>2026-04-25T14:51:05.84Z</time></trkpt><trkpt lat="33.9894089" lon="10.0024742"><ele>18.0</ele><time>2026-04-25T14:51:07.831Z</time></trkpt><trkpt lat="33.9893457" lon="10.0025014"><ele>18.0</ele><time>2026-04-25T14:51:08.82Z</time></trkpt><trkpt lat="33.9892738" lon="10.0025334"><ele>18.0</ele><time>2026-04-25T14:51:09.841Z</time></trkpt><trkpt lat="33.98919" lon="10.0025641"><ele>18.0</ele><time>2026-04-25T14:51:10.842Z</time></trkpt><trkpt lat="33.9890968" lon="10.002598"><ele>17.8</ele><time>2026-04-25T14:51:11.831Z</time></trkpt><trkpt lat="33.9890029" lon="10.0026362"><ele>17.6</ele><time>2026-04-25T14:51:12.833Z</time></trkpt><trkpt lat="33.9889111" lon="10.0026757"><ele>17.4</ele><time>2026-04-25T14:51:13.842Z</time></trkpt><trkpt lat="33.9888202" lon="10.0027146"><ele>17.2</ele><time>2026-04-25T14:51:14.832Z</time></trkpt><trkpt lat="33.9887262" lon="10.0027544"><ele>17.0</ele><time>2026-04-25T14:51:15.841Z</time></trkpt><trkpt lat="33.9886325" lon="10.0027959"><ele>17.0</ele><time>2026-04-25T14:51:16.845Z</time></trkpt><trkpt lat="33.9885426" lon="10.0028354"><ele>17.0</ele><time>2026-04-25T14:51:17.837Z</time></trkpt><trkpt lat="33.9884516" lon="10.0028738"><ele>17.0</ele><time>2026-04-25T14:51:18.837Z</time></trkpt><trkpt lat="33.9883571" lon="10.0029144"><ele>17.0</ele><time>2026-04-25T14:51:19.843Z</time></trkpt><trkpt lat="33.988266" lon="10.0029529"><ele>17.0</ele><time>2026-04-25T14:51:20.846Z</time></trkpt><trkpt lat="33.988173" lon="10.0029906"><ele>17.0</ele><time>2026-04-25T14:51:21.863Z</time></trkpt><trkpt lat="33.9880784" lon="10.0030284"><ele>17.0</ele><time>2026-04-25T14:51:22.843Z</time></trkpt><trkpt lat="33.9879806" lon="10.0030669"><ele>17.0</ele><time>2026-04-25T14:51:23.847Z</time></trkpt><trkpt lat="33.9878806" lon="10.0031111"><ele>17.0</ele><time>2026-04-25T14:51:24.839Z</time></trkpt><trkpt lat="33.9877777" lon="10.003154"><ele>17.0</ele><time>2026-04-25T14:51:25.848Z</time></trkpt><trkpt lat="33.987672" lon="10.0031978"><ele>17.0</ele><time>2026-04-25T14:51:26.838Z</time></trkpt><trkpt lat="33.987563" lon="10.0032435"><ele>17.0</ele><time>2026-04-25T14:51:27.834Z</time></trkpt><trkpt lat="33.987454" lon="10.0032881"><ele>17.0</ele><time>2026-04-25T14:51:28.839Z</time></trkpt><trkpt lat="33.9873426" lon="10.0033315"><ele>17.0</ele><time>2026-04-25T14:51:29.823Z</time></trkpt><trkpt lat="33.9872286" lon="10.0033756"><ele>16.75</ele><time>2026-04-25T14:51:30.869Z</time></trkpt><trkpt lat="33.9871078" lon="10.0034191"><ele>16.5</ele><time>2026-04-25T14:51:31.818Z</time></trkpt><trkpt lat="33.9869755" lon="10.0034713"><ele>16.25</ele><time>2026-04-25T14:51:32.84Z</time></trkpt><trkpt lat="33.9868354" lon="10.0035299"><ele>16.0</ele><time>2026-04-25T14:51:33.83Z</time></trkpt><trkpt lat="33.9866915" lon="10.0035914"><ele>16.0</ele><time>2026-04-25T14:51:34.825Z</time></trkpt><trkpt lat="33.9865423" lon="10.0036554"><ele>16.0</ele><time>2026-04-25T14:51:35.814Z</time></trkpt><trkpt lat="33.9863941" lon="10.0037196"><ele>16.0</ele><time>2026-04-25T14:51:36.815Z</time></trkpt><trkpt lat="33.986243" lon="10.0037858"><ele>16.0</ele><time>2026-04-25T14:51:37.839Z</time></trkpt><trkpt lat="33.986095" lon="10.0038506"><ele>16.0</ele><time>2026-04-25T14:51:38.837Z</time></trkpt><trkpt lat="33.9859453" lon="10.0039174"><ele>16.0</ele><time>2026-04-25T14:51:39.841Z</time></trkpt><trkpt lat="33.9857934" lon="10.0039882"><ele>16.0</ele><time>2026-04-25T14:51:40.834Z</time></trkpt><trkpt lat="33.9856402" lon="10.0040598"><ele>16.0</ele><time>2026-04-25T14:51:41.831Z</time></trkpt><trkpt lat="33.9854883" lon="10.0041282"><ele>16.0</ele><time>2026-04-25T14:51:42.852Z</time></trkpt><trkpt lat="33.9853332" lon="10.0041976"><ele>16.0</ele><time>2026-04-25T14:51:43.836Z</time></trkpt><trkpt lat="33.9851809" lon="10.0042723"><ele>16.0</ele><time>2026-04-25T14:51:44.851Z</time></trkpt><trkpt lat="33.9850347" lon="10.0043418"><ele>16.0</ele><time>2026-04-25T14:51:45.841Z</time></trkpt><trkpt lat="33.9848907" lon="10.0044097"><ele>16.0</ele><time>2026-04-25T14:51:46.836Z</time></trkpt><trkpt lat="33.9847483" lon="10.0044758"><ele>16.0</ele><time>2026-04-25T14:51:47.838Z</time></trkpt><trkpt lat="33.9846114" lon="10.004543"><ele>16.0</ele><time>2026-04-25T14:51:48.849Z</time></trkpt><trkpt lat="33.9844803" lon="10.0046069"><ele>16.0</ele><time>2026-04-25T14:51:49.844Z</time></trkpt><trkpt lat="33.9843503" lon="10.0046679"><ele>16.0</ele><time>2026-04-25T14:51:50.829Z</time></trkpt><trkpt lat="33.9842244" lon="10.0047265"><ele>16.0</ele><time>2026-04-25T14:51:51.838Z</time></trkpt><trkpt lat="33.9841027" lon="10.0047819"><ele>16.0</ele><time>2026-04-25T14:51:52.835Z</time></trkpt><trkpt lat="33.98398" lon="10.0048356"><ele>16.0</ele><time>2026-04-25T14:51:53.838Z</time></trkpt><trkpt lat="33.9838592" lon="10.0048919"><ele>16.0</ele><time>2026-04-25T14:51:54.847Z</time></trkpt><trkpt lat="33.9837413" lon="10.0049503"><ele>16.0</ele><time>2026-04-25T14:51:55.848Z</time></trkpt><trkpt lat="33.9836237" lon="10.0050119"><ele>16.0</ele><time>2026-04-25T14:51:56.845Z</time></trkpt><trkpt lat="33.9835044" lon="10.0050807"><ele>16.0</ele><time>2026-04-25T14:51:57.832Z</time></trkpt><trkpt lat="33.9833856" lon="10.0051393"><ele>16.0</ele><time>2026-04-25T14:51:58.821Z</time></trkpt><trkpt lat="33.9832651" lon="10.0051941"><ele>16.0</ele><time>2026-04-25T14:51:59.835Z</time></trkpt><trkpt lat="33.9831472" lon="10.0052476"><ele>16.0</ele><time>2026-04-25T14:52:00.832Z</time></trkpt><trkpt lat="33.9830326" lon="10.0053015"><ele>16.0</ele><time>2026-04-25T14:52:01.835Z</time></trkpt><trkpt lat="33.9829211" lon="10.0053525"><ele>16.0</ele><time>2026-04-25T14:52:02.848Z</time></trkpt><trkpt lat="33.9828153" lon="10.0054029"><ele>16.0</ele><time>2026-04-25T14:52:03.859Z</time></trkpt><trkpt lat="33.9827098" lon="10.005454"><ele>16.0</ele><time>2026-04-25T14:52:04.858Z</time></trkpt><trkpt lat="33.9826014" lon="10.0055072"><ele>16.0</ele><time>2026-04-25T14:52:05.847Z</time></trkpt><trkpt lat="33.9824913" lon="10.0055598"><ele>16.0</ele><time>2026-04-25T14:52:06.826Z</time></trkpt><trkpt lat="33.9823812" lon="10.0056101"><ele>16.0</ele><time>2026-04-25T14:52:07.854Z</time></trkpt><trkpt lat="33.9822687" lon="10.0056609"><ele>16.0</ele><time>2026-04-25T14:52:08.837Z</time></trkpt><trkpt lat="33.9821553" lon="10.0057102"><ele>16.0</ele><time>2026-04-25T14:52:09.838Z</time></trkpt><trkpt lat="33.9820394" lon="10.0057617"><ele>16.0</ele><time>2026-04-25T14:52:10.834Z</time></trkpt><trkpt lat="33.9819194" lon="10.005816"><ele>16.0</ele><time>2026-04-25T14:52:11.847Z</time></trkpt><trkpt lat="33.9817952" lon="10.0058717"><ele>16.0</ele><time>2026-04-25T14:52:12.847Z</time></trkpt><trkpt lat="33.9816686" lon="10.005928"><ele>16.0</ele><time>2026-04-25T14:52:13.833Z</time></trkpt><trkpt lat="33.9815465" lon="10.0059858"><ele>15.5</ele><time>2026-04-25T14:52:14.851Z</time></trkpt><trkpt lat="33.9814235" lon="10.0060464"><ele>15.0</ele><time>2026-04-25T14:52:15.85Z</time></trkpt><trkpt lat="33.981296" lon="10.0061087"><ele>14.5</ele><time>2026-04-25T14:52:16.844Z</time></trkpt><trkpt lat="33.9811682" lon="10.0061724"><ele>14.0</ele><time>2026-04-25T14:52:17.844Z</time></trkpt><trkpt lat="33.9810396" lon="10.006234"><ele>14.0</ele><time>2026-04-25T14:52:18.854Z</time></trkpt><trkpt lat="33.9809126" lon="10.0062931"><ele>14.0</ele><time>2026-04-25T14:52:19.846Z</time></trkpt><trkpt lat="33.9807893" lon="10.0063522"><ele>14.0</ele><time>2026-04-25T14:52:20.833Z</time></trkpt><trkpt lat="33.9806692" lon="10.0064103"><ele>14.0</ele><time>2026-04-25T14:52:21.832Z</time></trkpt><trkpt lat="33.9805533" lon="10.006465"><ele>14.25</ele><time>2026-04-25T14:52:22.843Z</time></trkpt><trkpt lat="33.9804438" lon="10.0065162"><ele>14.5</ele><time>2026-04-25T14:52:23.844Z</time></trkpt><trkpt lat="33.9803345" lon="10.0065663"><ele>14.75</ele><time>2026-04-25T14:52:24.858Z</time></trkpt><trkpt lat="33.9802206" lon="10.0066192"><ele>15.0</ele><time>2026-04-25T14:52:25.846Z</time></trkpt><trkpt lat="33.9801049" lon="10.0066727"><ele>14.5</ele><time>2026-04-25T14:52:26.837Z</time></trkpt><trkpt lat="33.9799865" lon="10.0067314"><ele>14.0</ele><time>2026-04-25T14:52:27.837Z</time></trkpt><trkpt lat="33.9798633" lon="10.0067923"><ele>13.5</ele><time>2026-04-25T14:52:28.835Z</time></trkpt><trkpt lat="33.979732" lon="10.0068555"><ele>13.0</ele><time>2026-04-25T14:52:29.841Z</time></trkpt><trkpt lat="33.9795888" lon="10.0069323"><ele>13.0</ele><time>2026-04-25T14:52:30.843Z</time></trkpt><trkpt lat="33.9794305" lon="10.0070181"><ele>13.0</ele><time>2026-04-25T14:52:31.844Z</time></trkpt><trkpt lat="33.9792626" lon="10.0071052"><ele>13.0</ele><time>2026-04-25T14:52:32.849Z</time></trkpt><trkpt lat="33.9790883" lon="10.007191"><ele>13.0</ele><time>2026-04-25T14:52:33.849Z</time></trkpt><trkpt lat="33.9789128" lon="10.007274"><ele>13.0</ele><time>2026-04-25T14:52:34.848Z</time></trkpt><trkpt lat="33.978735" lon="10.0073559"><ele>13.0</ele><time>2026-04-25T14:52:35.838Z</time></trkpt><trkpt lat="33.978564" lon="10.0074358"><ele>13.0</ele><time>2026-04-25T14:52:36.863Z</time></trkpt><trkpt lat="33.9783884" lon="10.0075121"><ele>13.0</ele><time>2026-04-25T14:52:37.843Z</time></trkpt><trkpt lat="33.9782061" lon="10.0075853"><ele>13.0</ele><time>2026-04-25T14:52:38.854Z</time></trkpt><trkpt lat="33.9780228" lon="10.0076646"><ele>13.0</ele><time>2026-04-25T14:52:39.838Z</time></trkpt><trkpt lat="33.9778404" lon="10.0077502"><ele>13.0</ele><time>2026-04-25T14:52:40.852Z</time></trkpt><trkpt lat="33.977658" lon="10.0078377"><ele>13.0</ele><time>2026-04-25T14:52:41.846Z</time></trkpt><trkpt lat="33.9774725" lon="10.0079253"><ele>13.666666666666666</ele><time>2026-04-25T14:52:42.854Z</time></trkpt><trkpt lat="33.977288" lon="10.0080116"><ele>14.333333333333332</ele><time>2026-04-25T14:52:43.846Z</time></trkpt><trkpt lat="33.9771043" lon="10.0080968"><ele>15.0</ele><time>2026-04-25T14:52:44.839Z</time></trkpt><trkpt lat="33.9769197" lon="10.0081822"><ele>15.0</ele><time>2026-04-25T14:52:45.843Z</time></trkpt><trkpt lat="33.9767371" lon="10.0082682"><ele>15.0</ele><time>2026-04-25T14:52:46.841Z</time></trkpt><trkpt lat="33.9765559" lon="10.0083557"><ele>15.0</ele><time>2026-04-25T14:52:47.838Z</time></trkpt><trkpt lat="33.9763716" lon="10.0084446"><ele>15.0</ele><time>2026-04-25T14:52:48.845Z</time></trkpt><trkpt lat="33.9761866" lon="10.0085371"><ele>15.0</ele><time>2026-04-25T14:52:49.839Z</time></trkpt><trkpt lat="33.9760013" lon="10.0086309"><ele>15.0</ele><time>2026-04-25T14:52:50.844Z</time></trkpt><trkpt lat="33.9758145" lon="10.0087271"><ele>15.0</ele><time>2026-04-25T14:52:51.841Z</time></trkpt><trkpt lat="33.9756237" lon="10.0088209"><ele>15.0</ele><time>2026-04-25T14:52:52.854Z</time></trkpt><trkpt lat="33.9754335" lon="10.008908"><ele>15.0</ele><time>2026-04-25T14:52:53.86Z</time></trkpt><trkpt lat="33.9752411" lon="10.0089882"><ele>15.0</ele><time>2026-04-25T14:52:54.85Z</time></trkpt><trkpt lat="33.9750482" lon="10.0090695"><ele>15.0</ele><time>2026-04-25T14:52:55.84Z</time></trkpt><trkpt lat="33.9748591" lon="10.0091561"><ele>15.0</ele><time>2026-04-25T14:52:56.856Z</time></trkpt><trkpt lat="33.9746711" lon="10.009243"><ele>14.666666666666668</ele><time>2026-04-25T14:52:57.843Z</time></trkpt><trkpt lat="33.9744853" lon="10.0093285"><ele>14.333333333333334</ele><time>2026-04-25T14:52:58.843Z</time></trkpt><trkpt lat="33.9743011" lon="10.0094116"><ele>14.0</ele><time>2026-04-25T14:52:59.845Z</time></trkpt><trkpt lat="33.9741184" lon="10.009496"><ele>13.666666666666668</ele><time>2026-04-25T14:53:00.851Z</time></trkpt><trkpt lat="33.9739357" lon="10.0095806"><ele>13.333333333333332</ele><time>2026-04-25T14:53:01.858Z</time></trkpt><trkpt lat="33.9737554" lon="10.0096628"><ele>13.0</ele><time>2026-04-25T14:53:02.836Z</time></trkpt><trkpt lat="33.9735793" lon="10.0097441"><ele>13.0</ele><time>2026-04-25T14:53:03.864Z</time></trkpt><trkpt lat="33.9734009" lon="10.0098232"><ele>13.0</ele><time>2026-04-25T14:53:04.846Z</time></trkpt><trkpt lat="33.9732201" lon="10.0099015"><ele>13.0</ele><time>2026-04-25T14:53:05.857Z</time></trkpt><trkpt lat="33.9730348" lon="10.0099811"><ele>13.333333333333332</ele><time>2026-04-25T14:53:06.856Z</time></trkpt><trkpt lat="33.9728498" lon="10.0100586"><ele>13.666666666666668</ele><time>2026-04-25T14:53:07.844Z</time></trkpt><trkpt lat="33.9726591" lon="10.0101314"><ele>14.0</ele><time>2026-04-25T14:53:08.848Z</time></trkpt><trkpt lat="33.9724617" lon="10.0102055"><ele>14.0</ele><time>2026-04-25T14:53:09.855Z</time></trkpt><trkpt lat="33.9722572" lon="10.0102868"><ele>14.0</ele><time>2026-04-25T14:53:10.843Z</time></trkpt><trkpt lat="33.9720468" lon="10.0103766"><ele>14.0</ele><time>2026-04-25T14:53:11.85Z</time></trkpt><trkpt lat="33.9718418" lon="10.0104583"><ele>14.0</ele><time>2026-04-25T14:53:12.843Z</time></trkpt><trkpt lat="33.9716334" lon="10.0105396"><ele>14.0</ele><time>2026-04-25T14:53:13.851Z</time></trkpt><trkpt lat="33.9714256" lon="10.0106142"><ele>14.0</ele><time>2026-04-25T14:53:14.836Z</time></trkpt><trkpt lat="33.9712105" lon="10.010681"><ele>14.0</ele><time>2026-04-25T14:53:15.843Z</time></trkpt><trkpt lat="33.9709928" lon="10.0107594"><ele>14.0</ele><time>2026-04-25T14:53:16.836Z</time></trkpt><trkpt lat="33.9707553" lon="10.0108422"><ele>15.0</ele><time>2026-04-25T14:53:17.845Z</time></trkpt><trkpt lat="33.9705184" lon="10.0109266"><ele>16.0</ele><time>2026-04-25T14:53:18.841Z</time></trkpt><trkpt lat="33.9702898" lon="10.0110075"><ele>16.0</ele><time>2026-04-25T14:53:19.837Z</time></trkpt><trkpt lat="33.970059" lon="10.01109"><ele>16.0</ele><time>2026-04-25T14:53:20.832Z</time></trkpt><trkpt lat="33.9698833" lon="10.0111675"><ele>16.0</ele><time>2026-04-25T14:53:21.846Z</time></trkpt><trkpt lat="33.969721" lon="10.0112429"><ele>15.75</ele><time>2026-04-25T14:53:22.856Z</time></trkpt><trkpt lat="33.9695756" lon="10.0113147"><ele>15.5</ele><time>2026-04-25T14:53:23.844Z</time></trkpt><trkpt lat="33.9694425" lon="10.0113817"><ele>15.25</ele><time>2026-04-25T14:53:24.836Z</time></trkpt><trkpt lat="33.9693567" lon="10.0114499"><ele>15.0</ele><time>2026-04-25T14:53:25.844Z</time></trkpt><trkpt lat="33.9692305" lon="10.0115212"><ele>15.0</ele><time>2026-04-25T14:53:26.842Z</time></trkpt><trkpt lat="33.9691099" lon="10.0115774"><ele>15.0</ele><time>2026-04-25T14:53:27.838Z</time></trkpt><trkpt lat="33.9689132" lon="10.0116772"><ele>15.0</ele><time>2026-04-25T14:53:29.845Z</time></trkpt><trkpt lat="33.9687721" lon="10.0117337"><ele>15.0</ele><time>2026-04-25T14:53:30.834Z</time></trkpt><trkpt lat="33.9686127" lon="10.0117956"><ele>15.0</ele><time>2026-04-25T14:53:31.854Z</time></trkpt><trkpt lat="33.9684435" lon="10.0118609"><ele>15.0</ele><time>2026-04-25T14:53:32.839Z</time></trkpt><trkpt lat="33.9682743" lon="10.0119232"><ele>15.0</ele><time>2026-04-25T14:53:33.847Z</time></trkpt><trkpt lat="33.9681068" lon="10.011983"><ele>15.0</ele><time>2026-04-25T14:53:34.853Z</time></trkpt><trkpt lat="33.9679356" lon="10.012045"><ele>15.0</ele><time>2026-04-25T14:53:35.845Z</time></trkpt><trkpt lat="33.9677636" lon="10.0121108"><ele>15.0</ele><time>2026-04-25T14:53:36.859Z</time></trkpt><trkpt lat="33.9675911" lon="10.012176"><ele>15.0</ele><time>2026-04-25T14:53:37.847Z</time></trkpt><trkpt lat="33.9674176" lon="10.0122439"><ele>15.0</ele><time>2026-04-25T14:53:38.856Z</time></trkpt><trkpt lat="33.9672432" lon="10.0123132"><ele>15.333333333333332</ele><time>2026-04-25T14:53:39.847Z</time></trkpt><trkpt lat="33.9670708" lon="10.0123817"><ele>15.666666666666666</ele><time>2026-04-25T14:53:40.848Z</time></trkpt><trkpt lat="33.9668926" lon="10.0124503"><ele>16.0</ele><time>2026-04-25T14:53:41.854Z</time></trkpt><trkpt lat="33.9667103" lon="10.0125212"><ele>16.0</ele><time>2026-04-25T14:53:42.856Z</time></trkpt><trkpt lat="33.9665287" lon="10.0125929"><ele>16.0</ele><time>2026-04-25T14:53:43.84Z</time></trkpt><trkpt lat="33.9663492" lon="10.0126638"><ele>16.0</ele><time>2026-04-25T14:53:44.841Z</time></trkpt><trkpt lat="33.9661716" lon="10.0127319"><ele>16.0</ele><time>2026-04-25T14:53:45.839Z</time></trkpt><trkpt lat="33.9659936" lon="10.0128007"><ele>16.0</ele><time>2026-04-25T14:53:46.842Z</time></trkpt><trkpt lat="33.9658189" lon="10.0128681"><ele>16.0</ele><time>2026-04-25T14:53:47.848Z</time></trkpt><trkpt lat="33.9656424" lon="10.0129357"><ele>16.333333333333332</ele><time>2026-04-25T14:53:48.839Z</time></trkpt><trkpt lat="33.9654624" lon="10.0130062"><ele>16.666666666666668</ele><time>2026-04-25T14:53:49.833Z</time></trkpt><trkpt lat="33.9652803" lon="10.013082"><ele>17.0</ele><time>2026-04-25T14:53:50.845Z</time></trkpt><trkpt lat="33.9651038" lon="10.0131579"><ele>17.0</ele><time>2026-04-25T14:53:51.843Z</time></trkpt><trkpt lat="33.9649279" lon="10.0132389"><ele>17.0</ele><time>2026-04-25T14:53:52.846Z</time></trkpt><trkpt lat="33.9647551" lon="10.0133306"><ele>17.0</ele><time>2026-04-25T14:53:53.862Z</time></trkpt><trkpt lat="33.9645889" lon="10.013429"><ele>17.0</ele><time>2026-04-25T14:53:54.845Z</time></trkpt><trkpt lat="33.9644276" lon="10.0135432"><ele>17.0</ele><time>2026-04-25T14:53:55.852Z</time></trkpt><trkpt lat="33.9642744" lon="10.0136628"><ele>17.0</ele><time>2026-04-25T14:53:56.825Z</time></trkpt><trkpt lat="33.9641217" lon="10.0137865"><ele>17.333333333333336</ele><time>2026-04-25T14:53:57.848Z</time></trkpt><trkpt lat="33.9639696" lon="10.0139102"><ele>17.666666666666668</ele><time>2026-04-25T14:53:58.845Z</time></trkpt><trkpt lat="33.9638164" lon="10.0140358"><ele>18.0</ele><time>2026-04-25T14:53:59.843Z</time></trkpt><trkpt lat="33.9636643" lon="10.0141626"><ele>18.0</ele><time>2026-04-25T14:54:00.837Z</time></trkpt><trkpt lat="33.9635165" lon="10.0142846"><ele>18.0</ele><time>2026-04-25T14:54:01.844Z</time></trkpt><trkpt lat="33.9633647" lon="10.0144102"><ele>18.0</ele><time>2026-04-25T14:54:02.843Z</time></trkpt><trkpt lat="33.9632147" lon="10.0145345"><ele>18.666666666666668</ele><time>2026-04-25T14:54:03.846Z</time></trkpt><trkpt lat="33.9630627" lon="10.0146563"><ele>19.333333333333336</ele><time>2026-04-25T14:54:04.853Z</time></trkpt><trkpt lat="33.9629051" lon="10.014783"><ele>20.0</ele><time>2026-04-25T14:54:05.839Z</time></trkpt><trkpt lat="33.9627436" lon="10.0149107"><ele>19.666666666666668</ele><time>2026-04-25T14:54:06.838Z</time></trkpt><trkpt lat="33.9625823" lon="10.0150387"><ele>19.333333333333332</ele><time>2026-04-25T14:54:07.84Z</time></trkpt><trkpt lat="33.9624185" lon="10.0151637"><ele>19.0</ele><time>2026-04-25T14:54:08.837Z</time></trkpt><trkpt lat="33.9622525" lon="10.0152875"><ele>19.0</ele><time>2026-04-25T14:54:09.842Z</time></trkpt><trkpt lat="33.9620842" lon="10.0154105"><ele>19.0</ele><time>2026-04-25T14:54:10.837Z</time></trkpt><trkpt lat="33.9619159" lon="10.0155353"><ele>19.0</ele><time>2026-04-25T14:54:11.86Z</time></trkpt><trkpt lat="33.9617456" lon="10.0156576"><ele>19.666666666666664</ele><time>2026-04-25T14:54:12.849Z</time></trkpt><trkpt lat="33.9615764" lon="10.0157817"><ele>20.333333333333332</ele><time>2026-04-25T14:54:13.847Z</time></trkpt><trkpt lat="33.9614096" lon="10.0159003"><ele>21.0</ele><time>2026-04-25T14:54:14.849Z</time></trkpt><trkpt lat="33.9612413" lon="10.0160214"><ele>21.0</ele><time>2026-04-25T14:54:15.846Z</time></trkpt><trkpt lat="33.9610716" lon="10.0161365"><ele>21.0</ele><time>2026-04-25T14:54:16.849Z</time></trkpt><trkpt lat="33.9609052" lon="10.0162523"><ele>21.0</ele><time>2026-04-25T14:54:17.833Z</time></trkpt><trkpt lat="33.9607412" lon="10.0163688"><ele>21.0</ele><time>2026-04-25T14:54:18.839Z</time></trkpt><trkpt lat="33.9605793" lon="10.0164844"><ele>21.0</ele><time>2026-04-25T14:54:19.839Z</time></trkpt><trkpt lat="33.960413" lon="10.0166028"><ele>21.0</ele><time>2026-04-25T14:54:20.836Z</time></trkpt><trkpt lat="33.9602408" lon="10.0167251"><ele>21.0</ele><time>2026-04-25T14:54:21.851Z</time></trkpt><trkpt lat="33.9600657" lon="10.0168528"><ele>21.0</ele><time>2026-04-25T14:54:22.835Z</time></trkpt><trkpt lat="33.9598854" lon="10.0169874"><ele>21.0</ele><time>2026-04-25T14:54:23.844Z</time></trkpt><trkpt lat="33.9597082" lon="10.0171097"><ele>21.666666666666668</ele><time>2026-04-25T14:54:24.838Z</time></trkpt><trkpt lat="33.9595345" lon="10.0172345"><ele>22.333333333333336</ele><time>2026-04-25T14:54:25.848Z</time></trkpt><trkpt lat="33.9593753" lon="10.0173473"><ele>23.0</ele><time>2026-04-25T14:54:26.845Z</time></trkpt><trkpt lat="33.9592183" lon="10.0174545"><ele>24.0</ele><time>2026-04-25T14:54:27.824Z</time></trkpt><trkpt lat="33.9590501" lon="10.0175646"><ele>25.0</ele><time>2026-04-25T14:54:28.847Z</time></trkpt><trkpt lat="33.9589263" lon="10.0176383"><ele>26.0</ele><time>2026-04-25T14:54:29.837Z</time></trkpt><trkpt lat="33.9587833" lon="10.0177167"><ele>26.0</ele><time>2026-04-25T14:54:30.847Z</time></trkpt><trkpt lat="33.9586688" lon="10.01777"><ele>26.0</ele><time>2026-04-25T14:54:31.857Z</time></trkpt><trkpt lat="33.9585062" lon="10.0178534"><ele>26.0</ele><time>2026-04-25T14:54:32.836Z</time></trkpt><trkpt lat="33.9583523" lon="10.0179286"><ele>27.0</ele><time>2026-04-25T14:54:33.865Z</time></trkpt><trkpt lat="33.958204" lon="10.0180014"><ele>28.0</ele><time>2026-04-25T14:54:34.833Z</time></trkpt><trkpt lat="33.9580508" lon="10.0180805"><ele>29.0</ele><time>2026-04-25T14:54:35.838Z</time></trkpt><trkpt lat="33.9578952" lon="10.0181637"><ele>29.0</ele><time>2026-04-25T14:54:36.842Z</time></trkpt><trkpt lat="33.9577328" lon="10.0182518"><ele>29.0</ele><time>2026-04-25T14:54:37.851Z</time></trkpt><trkpt lat="33.9575604" lon="10.0183365"><ele>29.0</ele><time>2026-04-25T14:54:38.837Z</time></trkpt><trkpt lat="33.9573905" lon="10.0184221"><ele>29.333333333333332</ele><time>2026-04-25T14:54:39.846Z</time></trkpt><trkpt lat="33.9572157" lon="10.0185137"><ele>29.666666666666664</ele><time>2026-04-25T14:54:40.847Z</time></trkpt><trkpt lat="33.9570417" lon="10.018605"><ele>30.0</ele><time>2026-04-25T14:54:41.847Z</time></trkpt><trkpt lat="33.9568725" lon="10.0186948"><ele>30.333333333333336</ele><time>2026-04-25T14:54:42.843Z</time></trkpt><trkpt lat="33.9566951" lon="10.0187825"><ele>30.666666666666668</ele><time>2026-04-25T14:54:43.846Z</time></trkpt><trkpt lat="33.9565114" lon="10.0188764"><ele>31.0</ele><time>2026-04-25T14:54:44.839Z</time></trkpt><trkpt lat="33.9563129" lon="10.0189769"><ele>31.0</ele><time>2026-04-25T14:54:45.839Z</time></trkpt><trkpt lat="33.9561078" lon="10.0190793"><ele>31.0</ele><time>2026-04-25T14:54:46.849Z</time></trkpt><trkpt lat="33.9559125" lon="10.0191785"><ele>31.0</ele><time>2026-04-25T14:54:47.839Z</time></trkpt><trkpt lat="33.9557289" lon="10.0192738"><ele>31.666666666666668</ele><time>2026-04-25T14:54:48.84Z</time></trkpt><trkpt lat="33.9555524" lon="10.0193665"><ele>32.333333333333336</ele><time>2026-04-25T14:54:49.844Z</time></trkpt><trkpt lat="33.9553759" lon="10.0194582"><ele>33.0</ele><time>2026-04-25T14:54:50.841Z</time></trkpt><trkpt lat="33.9551982" lon="10.0195498"><ele>33.333333333333336</ele><time>2026-04-25T14:54:51.869Z</time></trkpt><trkpt lat="33.9550221" lon="10.0196402"><ele>33.66666666666667</ele><time>2026-04-25T14:54:52.835Z</time></trkpt><trkpt lat="33.9548463" lon="10.0197297"><ele>34.0</ele><time>2026-04-25T14:54:53.847Z</time></trkpt><trkpt lat="33.9546713" lon="10.0198203"><ele>34.0</ele><time>2026-04-25T14:54:54.846Z</time></trkpt><trkpt lat="33.9544965" lon="10.0199114"><ele>34.0</ele><time>2026-04-25T14:54:55.849Z</time></trkpt><trkpt lat="33.9543207" lon="10.0200026"><ele>34.0</ele><time>2026-04-25T14:54:56.836Z</time></trkpt><trkpt lat="33.9541452" lon="10.0200905"><ele>34.333333333333336</ele><time>2026-04-25T14:54:57.847Z</time></trkpt><trkpt lat="33.9539716" lon="10.0201801"><ele>34.666666666666664</ele><time>2026-04-25T14:54:58.848Z</time></trkpt><trkpt lat="33.9537983" lon="10.0202694"><ele>35.0</ele><time>2026-04-25T14:54:59.839Z</time></trkpt><trkpt lat="33.9536274" lon="10.020358"><ele>35.0</ele><time>2026-04-25T14:55:00.837Z</time></trkpt><trkpt lat="33.9534592" lon="10.0204414"><ele>35.0</ele><time>2026-04-25T14:55:01.836Z</time></trkpt><trkpt lat="33.9532927" lon="10.0205227"><ele>35.0</ele><time>2026-04-25T14:55:02.836Z</time></trkpt><trkpt lat="33.9531257" lon="10.0206005"><ele>36.0</ele><time>2026-04-25T14:55:03.836Z</time></trkpt><trkpt lat="33.9529573" lon="10.0206727"><ele>37.0</ele><time>2026-04-25T14:55:04.846Z</time></trkpt><trkpt lat="33.9527887" lon="10.0207439"><ele>38.0</ele><time>2026-04-25T14:55:05.852Z</time></trkpt><trkpt lat="33.95262" lon="10.0208145"><ele>37.33333333333333</ele><time>2026-04-25T14:55:06.841Z</time></trkpt><trkpt lat="33.9524484" lon="10.0208864"><ele>36.666666666666664</ele><time>2026-04-25T14:55:07.836Z</time></trkpt><trkpt lat="33.9522739" lon="10.0209541"><ele>36.0</ele><time>2026-04-25T14:55:08.846Z</time></trkpt><trkpt lat="33.9520992" lon="10.0210246"><ele>36.0</ele><time>2026-04-25T14:55:09.836Z</time></trkpt><trkpt lat="33.951924" lon="10.0210993"><ele>36.0</ele><time>2026-04-25T14:55:10.84Z</time></trkpt><trkpt lat="33.9517502" lon="10.0211728"><ele>36.0</ele><time>2026-04-25T14:55:11.83Z</time></trkpt><trkpt lat="33.9515785" lon="10.0212443"><ele>36.666666666666664</ele><time>2026-04-25T14:55:12.848Z</time></trkpt><trkpt lat="33.9514143" lon="10.0213118"><ele>37.33333333333333</ele><time>2026-04-25T14:55:13.858Z</time></trkpt><trkpt lat="33.9512567" lon="10.0213769"><ele>38.0</ele><time>2026-04-25T14:55:14.855Z</time></trkpt><trkpt lat="33.9511047" lon="10.0214405"><ele>38.0</ele><time>2026-04-25T14:55:15.839Z</time></trkpt><trkpt lat="33.9509571" lon="10.0214996"><ele>38.0</ele><time>2026-04-25T14:55:16.836Z</time></trkpt><trkpt lat="33.9508169" lon="10.0215558"><ele>38.0</ele><time>2026-04-25T14:55:17.864Z</time></trkpt><trkpt lat="33.950683" lon="10.0216085"><ele>38.0</ele><time>2026-04-25T14:55:18.824Z</time></trkpt><trkpt lat="33.9505607" lon="10.0216577"><ele>37.199999999999996</ele><time>2026-04-25T14:55:19.833Z</time></trkpt><trkpt lat="33.9504513" lon="10.0217018"><ele>36.4</ele><time>2026-04-25T14:55:20.835Z</time></trkpt><trkpt lat="33.9503515" lon="10.0217439"><ele>35.599999999999994</ele><time>2026-04-25T14:55:21.851Z</time></trkpt><trkpt lat="33.9502616" lon="10.0217818"><ele>34.8</ele><time>2026-04-25T14:55:22.837Z</time></trkpt><trkpt lat="33.9501811" lon="10.021812"><ele>34.0</ele><time>2026-04-25T14:55:23.854Z</time></trkpt><trkpt lat="33.9501137" lon="10.0218363"><ele>34.0</ele><time>2026-04-25T14:55:24.849Z</time></trkpt><trkpt lat="33.9500093" lon="10.0218587"><ele>34.0</ele><time>2026-04-25T14:55:26.851Z</time></trkpt><trkpt lat="33.9499255" lon="10.0218509"><ele>34.0</ele><time>2026-04-25T14:55:28.84Z</time></trkpt><trkpt lat="33.949842" lon="10.0218141"><ele>34.0</ele><time>2026-04-25T14:55:30.853Z</time></trkpt><trkpt lat="33.9497373" lon="10.0217603"><ele>34.0</ele><time>2026-04-25T14:55:32.829Z</time></trkpt><trkpt lat="33.9496459" lon="10.0217395"><ele>34.0</ele><time>2026-04-25T14:55:34.85Z</time></trkpt><trkpt lat="33.9495628" lon="10.0217666"><ele>34.0</ele><time>2026-04-25T14:55:36.832Z</time></trkpt><trkpt lat="33.9494868" lon="10.0218499"><ele>34.0</ele><time>2026-04-25T14:55:38.848Z</time></trkpt><trkpt lat="33.9494033" lon="10.0219719"><ele>34.0</ele><time>2026-04-25T14:55:40.83Z</time></trkpt><trkpt lat="33.9493437" lon="10.0220411"><ele>34.0</ele><time>2026-04-25T14:55:41.843Z</time></trkpt><trkpt lat="33.9492811" lon="10.022098"><ele>34.0</ele><time>2026-04-25T14:55:42.837Z</time></trkpt><trkpt lat="33.9492078" lon="10.0221487"><ele>34.0</ele><time>2026-04-25T14:55:43.846Z</time></trkpt><trkpt lat="33.9491296" lon="10.0221977"><ele>34.0</ele><time>2026-04-25T14:55:44.851Z</time></trkpt><trkpt lat="33.9490386" lon="10.0222475"><ele>34.0</ele><time>2026-04-25T14:55:45.827Z</time></trkpt><trkpt lat="33.9489448" lon="10.0222969"><ele>34.0</ele><time>2026-04-25T14:55:46.829Z</time></trkpt><trkpt lat="33.9488469" lon="10.0223493"><ele>34.0</ele><time>2026-04-25T14:55:47.852Z</time></trkpt><trkpt lat="33.9487436" lon="10.0224021"><ele>34.0</ele><time>2026-04-25T14:55:48.85Z</time></trkpt><trkpt lat="33.9486411" lon="10.0224523"><ele>34.0</ele><time>2026-04-25T14:55:49.834Z</time></trkpt><trkpt lat="33.9485329" lon="10.0225033"><ele>34.0</ele><time>2026-04-25T14:55:50.82Z</time></trkpt><trkpt lat="33.9484266" lon="10.0225534"><ele>34.25</ele><time>2026-04-25T14:55:51.849Z</time></trkpt><trkpt lat="33.9483178" lon="10.0226003"><ele>34.5</ele><time>2026-04-25T14:55:52.833Z</time></trkpt><trkpt lat="33.9482076" lon="10.0226441"><ele>34.75</ele><time>2026-04-25T14:55:53.841Z</time></trkpt><trkpt lat="33.9480873" lon="10.0226923"><ele>35.0</ele><time>2026-04-25T14:55:54.855Z</time></trkpt><trkpt lat="33.9479633" lon="10.0227461"><ele>35.0</ele><time>2026-04-25T14:55:55.846Z</time></trkpt><trkpt lat="33.9478337" lon="10.0228003"><ele>35.0</ele><time>2026-04-25T14:55:56.846Z</time></trkpt><trkpt lat="33.9476999" lon="10.022853"><ele>35.0</ele><time>2026-04-25T14:55:57.851Z</time></trkpt><trkpt lat="33.9475505" lon="10.0229131"><ele>35.0</ele><time>2026-04-25T14:55:58.839Z</time></trkpt><trkpt lat="33.9473939" lon="10.0229806"><ele>34.33333333333333</ele><time>2026-04-25T14:55:59.835Z</time></trkpt><trkpt lat="33.9472287" lon="10.0230501"><ele>33.666666666666664</ele><time>2026-04-25T14:56:00.863Z</time></trkpt><trkpt lat="33.9470632" lon="10.0231186"><ele>33.0</ele><time>2026-04-25T14:56:01.843Z</time></trkpt><trkpt lat="33.9468992" lon="10.0231848"><ele>33.0</ele><time>2026-04-25T14:56:02.854Z</time></trkpt><trkpt lat="33.9467407" lon="10.0232488"><ele>33.0</ele><time>2026-04-25T14:56:03.892Z</time></trkpt><trkpt lat="33.9465835" lon="10.0233117"><ele>33.0</ele><time>2026-04-25T14:56:04.842Z</time></trkpt><trkpt lat="33.9464231" lon="10.0233744"><ele>34.0</ele><time>2026-04-25T14:56:05.844Z</time></trkpt><trkpt lat="33.9462609" lon="10.0234391"><ele>35.0</ele><time>2026-04-25T14:56:06.854Z</time></trkpt><trkpt lat="33.9460937" lon="10.0235109"><ele>36.0</ele><time>2026-04-25T14:56:07.854Z</time></trkpt><trkpt lat="33.9459255" lon="10.0235842"><ele>36.0</ele><time>2026-04-25T14:56:08.859Z</time></trkpt><trkpt lat="33.9457552" lon="10.0236542"><ele>36.0</ele><time>2026-04-25T14:56:09.853Z</time></trkpt><trkpt lat="33.9455842" lon="10.0237241"><ele>36.0</ele><time>2026-04-25T14:56:10.838Z</time></trkpt><trkpt lat="33.945411" lon="10.0237943"><ele>36.0</ele><time>2026-04-25T14:56:11.842Z</time></trkpt><trkpt lat="33.9452447" lon="10.0238637"><ele>36.0</ele><time>2026-04-25T14:56:12.843Z</time></trkpt><trkpt lat="33.9450776" lon="10.0239304"><ele>36.0</ele><time>2026-04-25T14:56:13.841Z</time></trkpt><trkpt lat="33.9449127" lon="10.0239994"><ele>35.666666666666664</ele><time>2026-04-25T14:56:14.845Z</time></trkpt><trkpt lat="33.9447445" lon="10.0240738"><ele>35.33333333333333</ele><time>2026-04-25T14:56:15.845Z</time></trkpt><trkpt lat="33.9445732" lon="10.0241472"><ele>35.0</ele><time>2026-04-25T14:56:16.84Z</time></trkpt><trkpt lat="33.9444027" lon="10.0242206"><ele>35.0</ele><time>2026-04-25T14:56:17.841Z</time></trkpt><trkpt lat="33.9442322" lon="10.0242906"><ele>35.0</ele><time>2026-04-25T14:56:18.841Z</time></trkpt><trkpt lat="33.9440615" lon="10.0243597"><ele>35.0</ele><time>2026-04-25T14:56:19.856Z</time></trkpt><trkpt lat="33.9438906" lon="10.0244276"><ele>35.33333333333333</ele><time>2026-04-25T14:56:20.844Z</time></trkpt><trkpt lat="33.9437225" lon="10.0244948"><ele>35.666666666666664</ele><time>2026-04-25T14:56:21.85Z</time></trkpt><trkpt lat="33.9435563" lon="10.0245634"><ele>36.0</ele><time>2026-04-25T14:56:22.855Z</time></trkpt><trkpt lat="33.9433902" lon="10.0246304"><ele>36.333333333333336</ele><time>2026-04-25T14:56:23.86Z</time></trkpt><trkpt lat="33.9432228" lon="10.0246993"><ele>36.66666666666667</ele><time>2026-04-25T14:56:24.848Z</time></trkpt><trkpt lat="33.9430534" lon="10.0247677"><ele>37.0</ele><time>2026-04-25T14:56:25.853Z</time></trkpt><trkpt lat="33.9428815" lon="10.0248326"><ele>37.0</ele><time>2026-04-25T14:56:26.852Z</time></trkpt><trkpt lat="33.9427185" lon="10.024894"><ele>37.0</ele><time>2026-04-25T14:56:27.848Z</time></trkpt><trkpt lat="33.9425597" lon="10.0249591"><ele>37.0</ele><time>2026-04-25T14:56:28.847Z</time></trkpt><trkpt lat="33.9424035" lon="10.0250245"><ele>36.0</ele><time>2026-04-25T14:56:29.837Z</time></trkpt><trkpt lat="33.9422526" lon="10.025095"><ele>35.0</ele><time>2026-04-25T14:56:30.846Z</time></trkpt><trkpt lat="33.9421012" lon="10.0251671"><ele>34.0</ele><time>2026-04-25T14:56:31.84Z</time></trkpt><trkpt lat="33.9419512" lon="10.0252457"><ele>34.0</ele><time>2026-04-25T14:56:32.851Z</time></trkpt><trkpt lat="33.9418039" lon="10.0253355"><ele>34.0</ele><time>2026-04-25T14:56:33.845Z</time></trkpt><trkpt lat="33.9416618" lon="10.0254371"><ele>34.0</ele><time>2026-04-25T14:56:34.843Z</time></trkpt><trkpt lat="33.9415274" lon="10.0255459"><ele>34.0</ele><time>2026-04-25T14:56:35.851Z</time></trkpt><trkpt lat="33.9414002" lon="10.0256598"><ele>34.0</ele><time>2026-04-25T14:56:36.848Z</time></trkpt><trkpt lat="33.9412788" lon="10.0257769"><ele>34.0</ele><time>2026-04-25T14:56:37.869Z</time></trkpt><trkpt lat="33.941162" lon="10.0258976"><ele>33.0</ele><time>2026-04-25T14:56:38.846Z</time></trkpt><trkpt lat="33.9410464" lon="10.0260212"><ele>32.0</ele><time>2026-04-25T14:56:39.848Z</time></trkpt><trkpt lat="33.9409303" lon="10.026151"><ele>31.0</ele><time>2026-04-25T14:56:40.852Z</time></trkpt><trkpt lat="33.940812" lon="10.026283"><ele>30.666666666666668</ele><time>2026-04-25T14:56:41.852Z</time></trkpt><trkpt lat="33.9406903" lon="10.0264154"><ele>30.333333333333336</ele><time>2026-04-25T14:56:42.845Z</time></trkpt><trkpt lat="33.9405665" lon="10.0265456"><ele>30.0</ele><time>2026-04-25T14:56:43.855Z</time></trkpt><trkpt lat="33.9404442" lon="10.0266763"><ele>28.666666666666664</ele><time>2026-04-25T14:56:44.864Z</time></trkpt><trkpt lat="33.9403225" lon="10.0268083"><ele>27.333333333333332</ele><time>2026-04-25T14:56:45.86Z</time></trkpt><trkpt lat="33.9402004" lon="10.0269424"><ele>26.0</ele><time>2026-04-25T14:56:46.847Z</time></trkpt><trkpt lat="33.9400801" lon="10.0270764"><ele>27.0</ele><time>2026-04-25T14:56:47.854Z</time></trkpt><trkpt lat="33.9399591" lon="10.027206"><ele>28.0</ele><time>2026-04-25T14:56:48.848Z</time></trkpt><trkpt lat="33.9398381" lon="10.0273301"><ele>29.0</ele><time>2026-04-25T14:56:49.852Z</time></trkpt><trkpt lat="33.9397164" lon="10.0274516"><ele>29.666666666666664</ele><time>2026-04-25T14:56:50.845Z</time></trkpt><trkpt lat="33.9395912" lon="10.0275714"><ele>30.333333333333336</ele><time>2026-04-25T14:56:51.844Z</time></trkpt><trkpt lat="33.9394635" lon="10.0276873"><ele>31.0</ele><time>2026-04-25T14:56:52.844Z</time></trkpt><trkpt lat="33.9393329" lon="10.0278003"><ele>31.666666666666668</ele><time>2026-04-25T14:56:53.844Z</time></trkpt><trkpt lat="33.9391964" lon="10.0279116"><ele>32.333333333333336</ele><time>2026-04-25T14:56:54.847Z</time></trkpt><trkpt lat="33.9390586" lon="10.028019"><ele>33.0</ele><time>2026-04-25T14:56:55.845Z</time></trkpt><trkpt lat="33.9389221" lon="10.0281238"><ele>33.0</ele><time>2026-04-25T14:56:56.844Z</time></trkpt><trkpt lat="33.938784" lon="10.0282297"><ele>33.0</ele><time>2026-04-25T14:56:57.851Z</time></trkpt><trkpt lat="33.9386426" lon="10.0283368"><ele>33.0</ele><time>2026-04-25T14:56:58.846Z</time></trkpt><trkpt lat="33.9385004" lon="10.0284387"><ele>33.666666666666664</ele><time>2026-04-25T14:56:59.846Z</time></trkpt><trkpt lat="33.9383596" lon="10.0285367"><ele>34.33333333333333</ele><time>2026-04-25T14:57:00.845Z</time></trkpt><trkpt lat="33.9382199" lon="10.0286285"><ele>35.0</ele><time>2026-04-25T14:57:01.846Z</time></trkpt><trkpt lat="33.9380799" lon="10.0287217"><ele>35.0</ele><time>2026-04-25T14:57:02.844Z</time></trkpt><trkpt lat="33.9379379" lon="10.0288246"><ele>35.0</ele><time>2026-04-25T14:57:03.853Z</time></trkpt><trkpt lat="33.9377941" lon="10.0289318"><ele>35.0</ele><time>2026-04-25T14:57:04.842Z</time></trkpt><trkpt lat="33.9376468" lon="10.0290381"><ele>35.0</ele><time>2026-04-25T14:57:05.843Z</time></trkpt><trkpt lat="33.937494" lon="10.0291497"><ele>35.0</ele><time>2026-04-25T14:57:06.851Z</time></trkpt><trkpt lat="33.9373351" lon="10.0292665"><ele>35.0</ele><time>2026-04-25T14:57:07.857Z</time></trkpt><trkpt lat="33.937169" lon="10.0293846"><ele>35.0</ele><time>2026-04-25T14:57:08.844Z</time></trkpt><trkpt lat="33.9369955" lon="10.0295077"><ele>35.0</ele><time>2026-04-25T14:57:09.848Z</time></trkpt><trkpt lat="33.9368213" lon="10.0296365"><ele>35.0</ele><time>2026-04-25T14:57:10.844Z</time></trkpt><trkpt lat="33.9366484" lon="10.0297663"><ele>35.33333333333333</ele><time>2026-04-25T14:57:11.835Z</time></trkpt><trkpt lat="33.9364819" lon="10.0298934"><ele>35.666666666666664</ele><time>2026-04-25T14:57:12.836Z</time></trkpt><trkpt lat="33.9363291" lon="10.0300004"><ele>36.0</ele><time>2026-04-25T14:57:13.845Z</time></trkpt><trkpt lat="33.9361894" lon="10.0300984"><ele>35.666666666666664</ele><time>2026-04-25T14:57:14.834Z</time></trkpt><trkpt lat="33.9360621" lon="10.0301748"><ele>35.33333333333333</ele><time>2026-04-25T14:57:15.851Z</time></trkpt><trkpt lat="33.9358963" lon="10.0302961"><ele>35.0</ele><time>2026-04-25T14:57:16.847Z</time></trkpt><trkpt lat="33.9357351" lon="10.0304104"><ele>35.0</ele><time>2026-04-25T14:57:17.849Z</time></trkpt><trkpt lat="33.9355774" lon="10.0305228"><ele>35.0</ele><time>2026-04-25T14:57:18.858Z</time></trkpt><trkpt lat="33.9354188" lon="10.0306345"><ele>35.0</ele><time>2026-04-25T14:57:19.841Z</time></trkpt><trkpt lat="33.9352612" lon="10.0307447"><ele>34.666666666666664</ele><time>2026-04-25T14:57:20.85Z</time></trkpt><trkpt lat="33.9351046" lon="10.0308533"><ele>34.333333333333336</ele><time>2026-04-25T14:57:21.853Z</time></trkpt><trkpt lat="33.9349506" lon="10.0309584"><ele>34.0</ele><time>2026-04-25T14:57:22.855Z</time></trkpt><trkpt lat="33.9347979" lon="10.0310658"><ele>35.333333333333336</ele><time>2026-04-25T14:57:23.842Z</time></trkpt><trkpt lat="33.9346479" lon="10.0311732"><ele>36.666666666666664</ele><time>2026-04-25T14:57:24.846Z</time></trkpt><trkpt lat="33.934495" lon="10.0312818"><ele>38.0</ele><time>2026-04-25T14:57:25.855Z</time></trkpt><trkpt lat="33.9343414" lon="10.0313891"><ele>38.666666666666664</ele><time>2026-04-25T14:57:26.826Z</time></trkpt><trkpt lat="33.9341788" lon="10.0315022"><ele>39.333333333333336</ele><time>2026-04-25T14:57:27.839Z</time></trkpt><trkpt lat="33.9340109" lon="10.0316237"><ele>40.0</ele><time>2026-04-25T14:57:28.838Z</time></trkpt><trkpt lat="33.9338376" lon="10.0317563"><ele>40.0</ele><time>2026-04-25T14:57:29.853Z</time></trkpt><trkpt lat="33.9336547" lon="10.0318974"><ele>40.0</ele><time>2026-04-25T14:57:30.847Z</time></trkpt><trkpt lat="33.9334586" lon="10.032042"><ele>40.0</ele><time>2026-04-25T14:57:31.852Z</time></trkpt><trkpt lat="33.9332683" lon="10.0321769"><ele>40.333333333333336</ele><time>2026-04-25T14:57:32.831Z</time></trkpt><trkpt lat="33.9330829" lon="10.0323022"><ele>40.666666666666664</ele><time>2026-04-25T14:57:33.838Z</time></trkpt><trkpt lat="33.9328948" lon="10.0324263"><ele>41.0</ele><time>2026-04-25T14:57:34.851Z</time></trkpt><trkpt lat="33.9326953" lon="10.0325535"><ele>41.33333333333333</ele><time>2026-04-25T14:57:35.851Z</time></trkpt><trkpt lat="33.9325052" lon="10.0326739"><ele>41.666666666666664</ele><time>2026-04-25T14:57:36.852Z</time></trkpt><trkpt lat="33.9323241" lon="10.0327933"><ele>42.0</ele><time>2026-04-25T14:57:37.846Z</time></trkpt><trkpt lat="33.9321508" lon="10.0329135"><ele>42.0</ele><time>2026-04-25T14:57:38.845Z</time></trkpt><trkpt lat="33.9319792" lon="10.0330363"><ele>42.0</ele><time>2026-04-25T14:57:39.839Z</time></trkpt><trkpt lat="33.9318112" lon="10.0331563"><ele>42.0</ele><time>2026-04-25T14:57:40.837Z</time></trkpt><trkpt lat="33.9316441" lon="10.0332776"><ele>42.666666666666664</ele><time>2026-04-25T14:57:41.84Z</time></trkpt><trkpt lat="33.9314762" lon="10.0333946"><ele>43.33333333333333</ele><time>2026-04-25T14:57:42.835Z</time></trkpt><trkpt lat="33.9313098" lon="10.0335121"><ele>44.0</ele><time>2026-04-25T14:57:43.849Z</time></trkpt><trkpt lat="33.9311455" lon="10.0336264"><ele>44.0</ele><time>2026-04-25T14:57:44.839Z</time></trkpt><trkpt lat="33.9309796" lon="10.0337388"><ele>44.0</ele><time>2026-04-25T14:57:45.839Z</time></trkpt><trkpt lat="33.9308175" lon="10.0338495"><ele>44.0</ele><time>2026-04-25T14:57:46.86Z</time></trkpt><trkpt lat="33.9306631" lon="10.0339563"><ele>44.33333333333333</ele><time>2026-04-25T14:57:47.845Z</time></trkpt><trkpt lat="33.930513" lon="10.0340611"><ele>44.666666666666664</ele><time>2026-04-25T14:57:48.843Z</time></trkpt><trkpt lat="33.9303643" lon="10.0341599"><ele>45.0</ele><time>2026-04-25T14:57:49.841Z</time></trkpt><trkpt lat="33.9302148" lon="10.0342576"><ele>45.0</ele><time>2026-04-25T14:57:50.845Z</time></trkpt><trkpt lat="33.9300648" lon="10.0343548"><ele>45.0</ele><time>2026-04-25T14:57:51.843Z</time></trkpt><trkpt lat="33.9299228" lon="10.0344521"><ele>45.0</ele><time>2026-04-25T14:57:52.848Z</time></trkpt><trkpt lat="33.9297869" lon="10.0345478"><ele>44.75</ele><time>2026-04-25T14:57:53.849Z</time></trkpt><trkpt lat="33.9296617" lon="10.034638"><ele>44.5</ele><time>2026-04-25T14:57:54.848Z</time></trkpt><trkpt lat="33.9295486" lon="10.0347182"><ele>44.25</ele><time>2026-04-25T14:57:55.848Z</time></trkpt><trkpt lat="33.929447" lon="10.034782"><ele>44.0</ele><time>2026-04-25T14:57:56.852Z</time></trkpt><trkpt lat="33.9293488" lon="10.0348328"><ele>44.0</ele><time>2026-04-25T14:57:57.832Z</time></trkpt><trkpt lat="33.9292526" lon="10.0348611"><ele>44.0</ele><time>2026-04-25T14:57:58.836Z</time></trkpt><trkpt lat="33.9291641" lon="10.0348767"><ele>44.0</ele><time>2026-04-25T14:57:59.846Z</time></trkpt><trkpt lat="33.9290805" lon="10.0348844"><ele>44.0</ele><time>2026-04-25T14:58:00.844Z</time></trkpt><trkpt lat="33.9290011" lon="10.0349126"><ele>44.0</ele><time>2026-04-25T14:58:01.851Z</time></trkpt><trkpt lat="33.9289367" lon="10.0349675"><ele>44.0</ele><time>2026-04-25T14:58:02.843Z</time></trkpt><trkpt lat="33.9288955" lon="10.0350437"><ele>44.0</ele><time>2026-04-25T14:58:03.851Z</time></trkpt><trkpt lat="33.9288632" lon="10.0351419"><ele>44.0</ele><time>2026-04-25T14:58:04.85Z</time></trkpt><trkpt lat="33.9288236" lon="10.0352519"><ele>44.0</ele><time>2026-04-25T14:58:05.836Z</time></trkpt><trkpt lat="33.9287616" lon="10.0353514"><ele>44.0</ele><time>2026-04-25T14:58:06.847Z</time></trkpt><trkpt lat="33.92868" lon="10.0354321"><ele>44.0</ele><time>2026-04-25T14:58:07.869Z</time></trkpt><trkpt lat="33.9285974" lon="10.0355132"><ele>44.0</ele><time>2026-04-25T14:58:08.886Z</time></trkpt><trkpt lat="33.9285135" lon="10.0355892"><ele>44.0</ele><time>2026-04-25T14:58:09.844Z</time></trkpt><trkpt lat="33.9284352" lon="10.0356658"><ele>44.0</ele><time>2026-04-25T14:58:10.878Z</time></trkpt><trkpt lat="33.9283562" lon="10.0357356"><ele>44.0</ele><time>2026-04-25T14:58:11.853Z</time></trkpt><trkpt lat="33.9282825" lon="10.0357995"><ele>44.0</ele><time>2026-04-25T14:58:12.849Z</time></trkpt><trkpt lat="33.9282134" lon="10.0358629"><ele>44.6</ele><time>2026-04-25T14:58:13.847Z</time></trkpt><trkpt lat="33.9281445" lon="10.0359295"><ele>45.2</ele><time>2026-04-25T14:58:14.84Z</time></trkpt><trkpt lat="33.9280732" lon="10.0360015"><ele>45.800000000000004</ele><time>2026-04-25T14:58:15.847Z</time></trkpt><trkpt lat="33.9279983" lon="10.0360749"><ele>46.400000000000006</ele><time>2026-04-25T14:58:16.845Z</time></trkpt><trkpt lat="33.9279239" lon="10.0361455"><ele>47.0</ele><time>2026-04-25T14:58:17.838Z</time></trkpt><trkpt lat="33.9278479" lon="10.0362147"><ele>47.0</ele><time>2026-04-25T14:58:18.847Z</time></trkpt><trkpt lat="33.9277724" lon="10.0362844"><ele>47.0</ele><time>2026-04-25T14:58:19.854Z</time></trkpt><trkpt lat="33.9276924" lon="10.0363599"><ele>47.0</ele><time>2026-04-25T14:58:20.849Z</time></trkpt><trkpt lat="33.9276074" lon="10.0364362"><ele>47.0</ele><time>2026-04-25T14:58:21.863Z</time></trkpt><trkpt lat="33.9275221" lon="10.0365132"><ele>47.0</ele><time>2026-04-25T14:58:22.841Z</time></trkpt><trkpt lat="33.9274306" lon="10.0365952"><ele>46.75</ele><time>2026-04-25T14:58:23.855Z</time></trkpt><trkpt lat="33.9273415" lon="10.0366782"><ele>46.5</ele><time>2026-04-25T14:58:24.841Z</time></trkpt><trkpt lat="33.9272497" lon="10.0367635"><ele>46.25</ele><time>2026-04-25T14:58:25.852Z</time></trkpt><trkpt lat="33.9271579" lon="10.0368493"><ele>46.0</ele><time>2026-04-25T14:58:26.838Z</time></trkpt><trkpt lat="33.9270674" lon="10.0369332"><ele>46.0</ele><time>2026-04-25T14:58:27.841Z</time></trkpt><trkpt lat="33.9269808" lon="10.0370156"><ele>46.0</ele><time>2026-04-25T14:58:28.839Z</time></trkpt><trkpt lat="33.9268936" lon="10.0371004"><ele>46.0</ele><time>2026-04-25T14:58:29.854Z</time></trkpt><trkpt lat="33.9268003" lon="10.037189"><ele>46.0</ele><time>2026-04-25T14:58:30.854Z</time></trkpt><trkpt lat="33.9267089" lon="10.0372759"><ele>46.25</ele><time>2026-04-25T14:58:31.828Z</time></trkpt><trkpt lat="33.926612" lon="10.0373643"><ele>46.5</ele><time>2026-04-25T14:58:32.841Z</time></trkpt><trkpt lat="33.9265145" lon="10.0374544"><ele>46.75</ele><time>2026-04-25T14:58:33.83Z</time></trkpt><trkpt lat="33.9264149" lon="10.0375471"><ele>47.0</ele><time>2026-04-25T14:58:34.852Z</time></trkpt><trkpt lat="33.9263164" lon="10.0376404"><ele>46.75</ele><time>2026-04-25T14:58:35.849Z</time></trkpt><trkpt lat="33.9262105" lon="10.0377357"><ele>46.5</ele><time>2026-04-25T14:58:36.845Z</time></trkpt><trkpt lat="33.9261021" lon="10.0378345"><ele>46.25</ele><time>2026-04-25T14:58:37.859Z</time></trkpt><trkpt lat="33.9259921" lon="10.0379382"><ele>46.0</ele><time>2026-04-25T14:58:38.839Z</time></trkpt><trkpt lat="33.9258872" lon="10.0380406"><ele>46.0</ele><time>2026-04-25T14:58:39.839Z</time></trkpt><trkpt lat="33.9257783" lon="10.0381399"><ele>46.0</ele><time>2026-04-25T14:58:40.844Z</time></trkpt><trkpt lat="33.9256649" lon="10.0382418"><ele>46.0</ele><time>2026-04-25T14:58:41.853Z</time></trkpt><trkpt lat="33.9255492" lon="10.0383465"><ele>46.0</ele><time>2026-04-25T14:58:42.852Z</time></trkpt><trkpt lat="33.9254314" lon="10.0384558"><ele>46.0</ele><time>2026-04-25T14:58:43.851Z</time></trkpt><trkpt lat="33.9253118" lon="10.0385704"><ele>46.0</ele><time>2026-04-25T14:58:44.832Z</time></trkpt><trkpt lat="33.9251848" lon="10.0386893"><ele>46.0</ele><time>2026-04-25T14:58:45.833Z</time></trkpt><trkpt lat="33.9250551" lon="10.038807"><ele>46.333333333333336</ele><time>2026-04-25T14:58:46.824Z</time></trkpt><trkpt lat="33.9249291" lon="10.0389276"><ele>46.666666666666664</ele><time>2026-04-25T14:58:47.829Z</time></trkpt><trkpt lat="33.9247969" lon="10.0390466"><ele>47.0</ele><time>2026-04-25T14:58:48.829Z</time></trkpt><trkpt lat="33.9246628" lon="10.039168"><ele>47.0</ele><time>2026-04-25T14:58:49.823Z</time></trkpt><trkpt lat="33.924528" lon="10.0392925"><ele>47.0</ele><time>2026-04-25T14:58:50.832Z</time></trkpt><trkpt lat="33.9243952" lon="10.0394161"><ele>47.0</ele><time>2026-04-25T14:58:51.831Z</time></trkpt><trkpt lat="33.9242599" lon="10.0395391"><ele>47.0</ele><time>2026-04-25T14:58:52.838Z</time></trkpt><trkpt lat="33.9241278" lon="10.0396626"><ele>47.0</ele><time>2026-04-25T14:58:53.824Z</time></trkpt><trkpt lat="33.923998" lon="10.0397822"><ele>47.0</ele><time>2026-04-25T14:58:54.856Z</time></trkpt><trkpt lat="33.9238687" lon="10.0399009"><ele>47.0</ele><time>2026-04-25T14:58:55.827Z</time></trkpt><trkpt lat="33.9237398" lon="10.0400201"><ele>47.0</ele><time>2026-04-25T14:58:56.848Z</time></trkpt><trkpt lat="33.9236135" lon="10.0401389"><ele>47.0</ele><time>2026-04-25T14:58:57.822Z</time></trkpt><trkpt lat="33.9234853" lon="10.040258"><ele>47.33333333333333</ele><time>2026-04-25T14:58:58.824Z</time></trkpt><trkpt lat="33.9233597" lon="10.0403772"><ele>47.666666666666664</ele><time>2026-04-25T14:58:59.822Z</time></trkpt><trkpt lat="33.9232314" lon="10.0404957"><ele>48.0</ele><time>2026-04-25T14:59:00.827Z</time></trkpt><trkpt lat="33.9231046" lon="10.0406147"><ele>48.0</ele><time>2026-04-25T14:59:01.833Z</time></trkpt><trkpt lat="33.9229793" lon="10.0407341"><ele>48.0</ele><time>2026-04-25T14:59:02.832Z</time></trkpt><trkpt lat="33.9228554" lon="10.0408515"><ele>48.0</ele><time>2026-04-25T14:59:03.813Z</time></trkpt><trkpt lat="33.9227315" lon="10.0409637"><ele>47.75</ele><time>2026-04-25T14:59:04.818Z</time></trkpt><trkpt lat="33.9226138" lon="10.0410698"><ele>47.5</ele><time>2026-04-25T14:59:05.852Z</time></trkpt><trkpt lat="33.9225134" lon="10.0411634"><ele>47.25</ele><time>2026-04-25T14:59:06.842Z</time></trkpt><trkpt lat="33.9224256" lon="10.0412474"><ele>47.0</ele><time>2026-04-25T14:59:07.86Z</time></trkpt><trkpt lat="33.9223448" lon="10.0413292"><ele>46.83333333333333</ele><time>2026-04-25T14:59:08.827Z</time></trkpt><trkpt lat="33.9222723" lon="10.0413986"><ele>46.666666666666664</ele><time>2026-04-25T14:59:09.825Z</time></trkpt><trkpt lat="33.922211" lon="10.0414585"><ele>46.5</ele><time>2026-04-25T14:59:10.828Z</time></trkpt><trkpt lat="33.9221561" lon="10.0415156"><ele>46.333333333333336</ele><time>2026-04-25T14:59:11.841Z</time></trkpt><trkpt lat="33.9221033" lon="10.0415722"><ele>46.16666666666667</ele><time>2026-04-25T14:59:12.833Z</time></trkpt><trkpt lat="33.9220428" lon="10.0416352"><ele>46.0</ele><time>2026-04-25T14:59:13.856Z</time></trkpt><trkpt lat="33.9219742" lon="10.0417083"><ele>46.0</ele><time>2026-04-25T14:59:14.844Z</time></trkpt><trkpt lat="33.921901" lon="10.0417861"><ele>46.0</ele><time>2026-04-25T14:59:15.872Z</time></trkpt><trkpt lat="33.9218192" lon="10.0418704"><ele>46.0</ele><time>2026-04-25T14:59:16.847Z</time></trkpt><trkpt lat="33.9217291" lon="10.0419616"><ele>46.0</ele><time>2026-04-25T14:59:17.845Z</time></trkpt><trkpt lat="33.9216373" lon="10.0420549"><ele>46.0</ele><time>2026-04-25T14:59:18.854Z</time></trkpt><trkpt lat="33.921545" lon="10.0421463"><ele>46.25</ele><time>2026-04-25T14:59:19.838Z</time></trkpt><trkpt lat="33.9214479" lon="10.0422484"><ele>46.5</ele><time>2026-04-25T14:59:20.845Z</time></trkpt><trkpt lat="33.9213463" lon="10.0423579"><ele>46.75</ele><time>2026-04-25T14:59:21.855Z</time></trkpt><trkpt lat="33.9212455" lon="10.0424643"><ele>47.0</ele><time>2026-04-25T14:59:22.849Z</time></trkpt><trkpt lat="33.9211484" lon="10.0425704"><ele>46.83333333333333</ele><time>2026-04-25T14:59:23.839Z</time></trkpt><trkpt lat="33.9210629" lon="10.0426659"><ele>46.666666666666664</ele><time>2026-04-25T14:59:24.842Z</time></trkpt><trkpt lat="33.9209906" lon="10.042743"><ele>46.5</ele><time>2026-04-25T14:59:25.852Z</time></trkpt><trkpt lat="33.9209402" lon="10.0428009"><ele>46.333333333333336</ele><time>2026-04-25T14:59:26.84Z</time></trkpt><trkpt lat="33.9208793" lon="10.0428648"><ele>46.16666666666667</ele><time>2026-04-25T14:59:27.846Z</time></trkpt><trkpt lat="33.9208168" lon="10.0429263"><ele>46.0</ele><time>2026-04-25T14:59:28.847Z</time></trkpt><trkpt lat="33.9207527" lon="10.0429944"><ele>46.0</ele><time>2026-04-25T14:59:29.848Z</time></trkpt><trkpt lat="33.920681" lon="10.0430698"><ele>46.0</ele><time>2026-04-25T14:59:30.871Z</time></trkpt><trkpt lat="33.9206036" lon="10.0431518"><ele>46.0</ele><time>2026-04-25T14:59:31.849Z</time></trkpt><trkpt lat="33.9205159" lon="10.0432408"><ele>46.0</ele><time>2026-04-25T14:59:32.832Z</time></trkpt><trkpt lat="33.9204239" lon="10.0433357"><ele>46.0</ele><time>2026-04-25T14:59:33.836Z</time></trkpt><trkpt lat="33.9203303" lon="10.0434338"><ele>45.5</ele><time>2026-04-25T14:59:34.852Z</time></trkpt><trkpt lat="33.9202377" lon="10.0435293"><ele>45.0</ele><time>2026-04-25T14:59:35.857Z</time></trkpt><trkpt lat="33.9201364" lon="10.0436363"><ele>44.5</ele><time>2026-04-25T14:59:36.85Z</time></trkpt><trkpt lat="33.9200221" lon="10.0437526"><ele>44.0</ele><time>2026-04-25T14:59:37.847Z</time></trkpt><trkpt lat="33.919902" lon="10.0438788"><ele>44.0</ele><time>2026-04-25T14:59:38.846Z</time></trkpt><trkpt lat="33.9197746" lon="10.0440093"><ele>44.0</ele><time>2026-04-25T14:59:39.856Z</time></trkpt><trkpt lat="33.9196411" lon="10.0441443"><ele>44.0</ele><time>2026-04-25T14:59:40.835Z</time></trkpt><trkpt lat="33.9195074" lon="10.0442809"><ele>44.33333333333333</ele><time>2026-04-25T14:59:41.847Z</time></trkpt><trkpt lat="33.9193775" lon="10.0444127"><ele>44.666666666666664</ele><time>2026-04-25T14:59:42.841Z</time></trkpt><trkpt lat="33.9192445" lon="10.0445477"><ele>45.0</ele><time>2026-04-25T14:59:43.849Z</time></trkpt><trkpt lat="33.9191105" lon="10.0446842"><ele>45.333333333333336</ele><time>2026-04-25T14:59:44.843Z</time></trkpt><trkpt lat="33.9189725" lon="10.044823"><ele>45.66666666666667</ele><time>2026-04-25T14:59:45.849Z</time></trkpt><trkpt lat="33.9188349" lon="10.0449605"><ele>46.0</ele><time>2026-04-25T14:59:46.843Z</time></trkpt><trkpt lat="33.9186955" lon="10.0450963"><ele>45.0</ele><time>2026-04-25T14:59:47.839Z</time></trkpt><trkpt lat="33.9185592" lon="10.0452341"><ele>44.0</ele><time>2026-04-25T14:59:48.843Z</time></trkpt><trkpt lat="33.9184237" lon="10.0453721"><ele>43.0</ele><time>2026-04-25T14:59:49.846Z</time></trkpt><trkpt lat="33.9182913" lon="10.0455063"><ele>43.0</ele><time>2026-04-25T14:59:50.853Z</time></trkpt><trkpt lat="33.9181591" lon="10.0456423"><ele>43.0</ele><time>2026-04-25T14:59:51.864Z</time></trkpt><trkpt lat="33.9180255" lon="10.0457778"><ele>43.0</ele><time>2026-04-25T14:59:52.83Z</time></trkpt><trkpt lat="33.9179006" lon="10.0459058"><ele>43.333333333333336</ele><time>2026-04-25T14:59:53.857Z</time></trkpt><trkpt lat="33.9177702" lon="10.0460373"><ele>43.666666666666664</ele><time>2026-04-25T14:59:54.85Z</time></trkpt><trkpt lat="33.917636" lon="10.0461667"><ele>44.0</ele><time>2026-04-25T14:59:55.859Z</time></trkpt><trkpt lat="33.917502" lon="10.0462991"><ele>44.0</ele><time>2026-04-25T14:59:56.843Z</time></trkpt><trkpt lat="33.9173668" lon="10.0464363"><ele>44.0</ele><time>2026-04-25T14:59:57.86Z</time></trkpt><trkpt lat="33.9172289" lon="10.0465737"><ele>44.0</ele><time>2026-04-25T14:59:58.83Z</time></trkpt><trkpt lat="33.9170918" lon="10.0467128"><ele>43.666666666666664</ele><time>2026-04-25T14:59:59.83Z</time></trkpt><trkpt lat="33.9169525" lon="10.0468537"><ele>43.333333333333336</ele><time>2026-04-25T15:00:00.846Z</time></trkpt><trkpt lat="33.9168145" lon="10.0469947"><ele>43.0</ele><time>2026-04-25T15:00:01.846Z</time></trkpt><trkpt lat="33.9166744" lon="10.0471358"><ele>42.66666666666667</ele><time>2026-04-25T15:00:02.846Z</time></trkpt><trkpt lat="33.9165339" lon="10.0472757"><ele>42.333333333333336</ele><time>2026-04-25T15:00:03.856Z</time></trkpt><trkpt lat="33.9163927" lon="10.0474162"><ele>42.0</ele><time>2026-04-25T15:00:04.844Z</time></trkpt><trkpt lat="33.9162537" lon="10.0475566"><ele>41.333333333333336</ele><time>2026-04-25T15:00:05.844Z</time></trkpt><trkpt lat="33.9161146" lon="10.0476953"><ele>40.66666666666667</ele><time>2026-04-25T15:00:06.842Z</time></trkpt><trkpt lat="33.915976" lon="10.0478337"><ele>40.0</ele><time>2026-04-25T15:00:07.839Z</time></trkpt><trkpt lat="33.9158412" lon="10.0479695"><ele>40.0</ele><time>2026-04-25T15:00:08.868Z</time></trkpt><trkpt lat="33.9157031" lon="10.0481079"><ele>40.0</ele><time>2026-04-25T15:00:09.858Z</time></trkpt><trkpt lat="33.9155648" lon="10.0482441"><ele>40.0</ele><time>2026-04-25T15:00:10.853Z</time></trkpt><trkpt lat="33.9154252" lon="10.0483795"><ele>39.66666666666667</ele><time>2026-04-25T15:00:11.855Z</time></trkpt><trkpt lat="33.9152819" lon="10.048512"><ele>39.333333333333336</ele><time>2026-04-25T15:00:12.858Z</time></trkpt><trkpt lat="33.9151351" lon="10.0486446"><ele>39.0</ele><time>2026-04-25T15:00:13.839Z</time></trkpt><trkpt lat="33.9149867" lon="10.0487767"><ele>39.0</ele><time>2026-04-25T15:00:14.854Z</time></trkpt><trkpt lat="33.9148356" lon="10.0489075"><ele>39.0</ele><time>2026-04-25T15:00:15.86Z</time></trkpt><trkpt lat="33.914685" lon="10.0490341"><ele>39.0</ele><time>2026-04-25T15:00:16.862Z</time></trkpt><trkpt lat="33.9145332" lon="10.0491625"><ele>38.666666666666664</ele><time>2026-04-25T15:00:17.836Z</time></trkpt><trkpt lat="33.9143801" lon="10.0492837"><ele>38.33333333333333</ele><time>2026-04-25T15:00:18.846Z</time></trkpt><trkpt lat="33.9142294" lon="10.049399"><ele>38.0</ele><time>2026-04-25T15:00:19.838Z</time></trkpt><trkpt lat="33.9140755" lon="10.0495193"><ele>38.0</ele><time>2026-04-25T15:00:20.835Z</time></trkpt><trkpt lat="33.9139237" lon="10.0496416"><ele>38.0</ele><time>2026-04-25T15:00:21.844Z</time></trkpt><trkpt lat="33.9137733" lon="10.0497675"><ele>38.0</ele><time>2026-04-25T15:00:22.852Z</time></trkpt><trkpt lat="33.9136258" lon="10.0498924"><ele>38.0</ele><time>2026-04-25T15:00:23.848Z</time></trkpt><trkpt lat="33.9134757" lon="10.0500192"><ele>38.0</ele><time>2026-04-25T15:00:24.846Z</time></trkpt><trkpt lat="33.9133257" lon="10.0501454"><ele>38.0</ele><time>2026-04-25T15:00:25.842Z</time></trkpt><trkpt lat="33.9131794" lon="10.0502688"><ele>38.666666666666664</ele><time>2026-04-25T15:00:26.844Z</time></trkpt><trkpt lat="33.9130339" lon="10.0503933"><ele>39.333333333333336</ele><time>2026-04-25T15:00:27.841Z</time></trkpt><trkpt lat="33.9128873" lon="10.0505216"><ele>40.0</ele><time>2026-04-25T15:00:28.861Z</time></trkpt><trkpt lat="33.9127514" lon="10.0506621"><ele>39.66666666666667</ele><time>2026-04-25T15:00:29.851Z</time></trkpt><trkpt lat="33.9126262" lon="10.0508161"><ele>39.333333333333336</ele><time>2026-04-25T15:00:30.842Z</time></trkpt><trkpt lat="33.912508" lon="10.0509794"><ele>39.0</ele><time>2026-04-25T15:00:31.859Z</time></trkpt><trkpt lat="33.9123975" lon="10.051149"><ele>39.333333333333336</ele><time>2026-04-25T15:00:32.834Z</time></trkpt><trkpt lat="33.9122848" lon="10.0513205"><ele>39.66666666666667</ele><time>2026-04-25T15:00:33.842Z</time></trkpt><trkpt lat="33.912176" lon="10.0514921"><ele>40.0</ele><time>2026-04-25T15:00:34.846Z</time></trkpt><trkpt lat="33.9120673" lon="10.0516636"><ele>40.0</ele><time>2026-04-25T15:00:35.861Z</time></trkpt><trkpt lat="33.9119577" lon="10.0518357"><ele>40.0</ele><time>2026-04-25T15:00:36.835Z</time></trkpt><trkpt lat="33.9118522" lon="10.052003"><ele>40.0</ele><time>2026-04-25T15:00:37.854Z</time></trkpt><trkpt lat="33.9117452" lon="10.0521725"><ele>40.0</ele><time>2026-04-25T15:00:38.844Z</time></trkpt><trkpt lat="33.9116393" lon="10.0523379"><ele>40.0</ele><time>2026-04-25T15:00:39.848Z</time></trkpt><trkpt lat="33.9115323" lon="10.0525031"><ele>40.0</ele><time>2026-04-25T15:00:40.851Z</time></trkpt><trkpt lat="33.9114262" lon="10.0526645"><ele>40.333333333333336</ele><time>2026-04-25T15:00:41.849Z</time></trkpt><trkpt lat="33.9113219" lon="10.0528264"><ele>40.666666666666664</ele><time>2026-04-25T15:00:42.847Z</time></trkpt><trkpt lat="33.9112203" lon="10.0529863"><ele>41.0</ele><time>2026-04-25T15:00:43.853Z</time></trkpt><trkpt lat="33.9111167" lon="10.0531455"><ele>40.33333333333333</ele><time>2026-04-25T15:00:44.835Z</time></trkpt><trkpt lat="33.9110169" lon="10.0533047"><ele>39.666666666666664</ele><time>2026-04-25T15:00:45.839Z</time></trkpt><trkpt lat="33.9109208" lon="10.0534626"><ele>39.0</ele><time>2026-04-25T15:00:46.85Z</time></trkpt><trkpt lat="33.9108227" lon="10.0536182"><ele>39.0</ele><time>2026-04-25T15:00:47.858Z</time></trkpt><trkpt lat="33.9107255" lon="10.0537756"><ele>39.0</ele><time>2026-04-25T15:00:48.857Z</time></trkpt><trkpt lat="33.9106306" lon="10.0539309"><ele>39.0</ele><time>2026-04-25T15:00:49.84Z</time></trkpt><trkpt lat="33.9105361" lon="10.0540844"><ele>38.666666666666664</ele><time>2026-04-25T15:00:50.846Z</time></trkpt><trkpt lat="33.9104416" lon="10.0542369"><ele>38.33333333333333</ele><time>2026-04-25T15:00:51.85Z</time></trkpt><trkpt lat="33.9103469" lon="10.0543845"><ele>38.0</ele><time>2026-04-25T15:00:52.839Z</time></trkpt><trkpt lat="33.9102572" lon="10.0545259"><ele>38.0</ele><time>2026-04-25T15:00:53.842Z</time></trkpt><trkpt lat="33.9101727" lon="10.0546567"><ele>38.0</ele><time>2026-04-25T15:00:54.846Z</time></trkpt><trkpt lat="33.9100967" lon="10.0547764"><ele>38.0</ele><time>2026-04-25T15:00:55.862Z</time></trkpt><trkpt lat="33.910027" lon="10.0548838"><ele>38.0</ele><time>2026-04-25T15:00:56.854Z</time></trkpt><trkpt lat="33.9099612" lon="10.0549851"><ele>38.25</ele><time>2026-04-25T15:00:57.85Z</time></trkpt><trkpt lat="33.9098968" lon="10.0550932"><ele>38.5</ele><time>2026-04-25T15:00:58.841Z</time></trkpt><trkpt lat="33.9098322" lon="10.0552044"><ele>38.75</ele><time>2026-04-25T15:00:59.846Z</time></trkpt><trkpt lat="33.909763" lon="10.0553245"><ele>39.0</ele><time>2026-04-25T15:01:00.852Z</time></trkpt><trkpt lat="33.9096921" lon="10.0554532"><ele>39.0</ele><time>2026-04-25T15:01:01.842Z</time></trkpt><trkpt lat="33.9096185" lon="10.0555759"><ele>39.0</ele><time>2026-04-25T15:01:02.852Z</time></trkpt><trkpt lat="33.9095404" lon="10.0557"><ele>39.0</ele><time>2026-04-25T15:01:03.847Z</time></trkpt><trkpt lat="33.909457" lon="10.0558256"><ele>39.0</ele><time>2026-04-25T15:01:04.853Z</time></trkpt><trkpt lat="33.9093629" lon="10.0559592"><ele>39.5</ele><time>2026-04-25T15:01:05.858Z</time></trkpt><trkpt lat="33.9092839" lon="10.0560879"><ele>40.0</ele><time>2026-04-25T15:01:06.854Z</time></trkpt><trkpt lat="33.9092011" lon="10.0562198"><ele>40.5</ele><time>2026-04-25T15:01:07.849Z</time></trkpt><trkpt lat="33.9091172" lon="10.0563522"><ele>41.0</ele><time>2026-04-25T15:01:08.851Z</time></trkpt><trkpt lat="33.9090378" lon="10.0564779"><ele>41.25</ele><time>2026-04-25T15:01:09.849Z</time></trkpt><trkpt lat="33.9089553" lon="10.0566083"><ele>41.5</ele><time>2026-04-25T15:01:10.848Z</time></trkpt><trkpt lat="33.9088708" lon="10.0567373"><ele>41.75</ele><time>2026-04-25T15:01:11.832Z</time></trkpt><trkpt lat="33.9087869" lon="10.0568702"><ele>42.0</ele><time>2026-04-25T15:01:12.84Z</time></trkpt><trkpt lat="33.9087061" lon="10.0570033"><ele>42.0</ele><time>2026-04-25T15:01:13.849Z</time></trkpt><trkpt lat="33.9086237" lon="10.0571368"><ele>42.0</ele><time>2026-04-25T15:01:14.843Z</time></trkpt><trkpt lat="33.9085405" lon="10.0572701"><ele>42.0</ele><time>2026-04-25T15:01:15.836Z</time></trkpt><trkpt lat="33.9084563" lon="10.0574065"><ele>42.0</ele><time>2026-04-25T15:01:16.838Z</time></trkpt><trkpt lat="33.9083715" lon="10.0575433"><ele>42.5</ele><time>2026-04-25T15:01:17.853Z</time></trkpt><trkpt lat="33.9082864" lon="10.0576799"><ele>43.0</ele><time>2026-04-25T15:01:18.845Z</time></trkpt><trkpt lat="33.9082033" lon="10.0578157"><ele>43.5</ele><time>2026-04-25T15:01:19.836Z</time></trkpt><trkpt lat="33.9081195" lon="10.0579505"><ele>44.0</ele><time>2026-04-25T15:01:20.835Z</time></trkpt><trkpt lat="33.9080383" lon="10.0580786"><ele>44.0</ele><time>2026-04-25T15:01:21.858Z</time></trkpt><trkpt lat="33.9079606" lon="10.0582022"><ele>44.0</ele><time>2026-04-25T15:01:22.859Z</time></trkpt><trkpt lat="33.9078867" lon="10.0583122"><ele>44.0</ele><time>2026-04-25T15:01:23.859Z</time></trkpt><trkpt lat="33.9078184" lon="10.0584046"><ele>44.0</ele><time>2026-04-25T15:01:24.852Z</time></trkpt><trkpt lat="33.9077493" lon="10.0584831"><ele>44.0</ele><time>2026-04-25T15:01:25.862Z</time></trkpt><trkpt lat="33.9076803" lon="10.0585489"><ele>44.0</ele><time>2026-04-25T15:01:26.852Z</time></trkpt><trkpt lat="33.907611" lon="10.0586091"><ele>44.0</ele><time>2026-04-25T15:01:27.849Z</time></trkpt><trkpt lat="33.9075467" lon="10.0586769"><ele>44.0</ele><time>2026-04-25T15:01:28.84Z</time></trkpt><trkpt lat="33.9074945" lon="10.0587575"><ele>44.0</ele><time>2026-04-25T15:01:29.839Z</time></trkpt><trkpt lat="33.9074552" lon="10.0588625"><ele>44.0</ele><time>2026-04-25T15:01:30.844Z</time></trkpt><trkpt lat="33.9074124" lon="10.0589701"><ele>44.0</ele><time>2026-04-25T15:01:31.857Z</time></trkpt><trkpt lat="33.9073523" lon="10.0590784"><ele>44.0</ele><time>2026-04-25T15:01:32.841Z</time></trkpt><trkpt lat="33.9072873" lon="10.0591846"><ele>44.0</ele><time>2026-04-25T15:01:33.837Z</time></trkpt><trkpt lat="33.9072116" lon="10.0592921"><ele>44.0</ele><time>2026-04-25T15:01:34.845Z</time></trkpt><trkpt lat="33.9071331" lon="10.0593978"><ele>44.0</ele><time>2026-04-25T15:01:35.854Z</time></trkpt><trkpt lat="33.9070527" lon="10.0594988"><ele>44.0</ele><time>2026-04-25T15:01:36.846Z</time></trkpt><trkpt lat="33.9069701" lon="10.0596099"><ele>44.0</ele><time>2026-04-25T15:01:37.841Z</time></trkpt><trkpt lat="33.906886" lon="10.0597179"><ele>44.0</ele><time>2026-04-25T15:01:38.849Z</time></trkpt><trkpt lat="33.906801" lon="10.0598284"><ele>44.0</ele><time>2026-04-25T15:01:39.84Z</time></trkpt><trkpt lat="33.9067156" lon="10.0599366"><ele>44.0</ele><time>2026-04-25T15:01:40.844Z</time></trkpt><trkpt lat="33.9066346" lon="10.0600448"><ele>44.0</ele><time>2026-04-25T15:01:41.839Z</time></trkpt><trkpt lat="33.9065587" lon="10.0601526"><ele>44.0</ele><time>2026-04-25T15:01:42.845Z</time></trkpt><trkpt lat="33.9064853" lon="10.0602577"><ele>43.800000000000004</ele><time>2026-04-25T15:01:43.847Z</time></trkpt><trkpt lat="33.9064148" lon="10.0603543"><ele>43.6</ele><time>2026-04-25T15:01:44.842Z</time></trkpt><trkpt lat="33.9063507" lon="10.0604439"><ele>43.4</ele><time>2026-04-25T15:01:45.849Z</time></trkpt><trkpt lat="33.9062926" lon="10.0605215"><ele>43.2</ele><time>2026-04-25T15:01:46.844Z</time></trkpt><trkpt lat="33.9062362" lon="10.0605943"><ele>43.0</ele><time>2026-04-25T15:01:47.854Z</time></trkpt><trkpt lat="33.906181" lon="10.0606702"><ele>43.0</ele><time>2026-04-25T15:01:48.834Z</time></trkpt><trkpt lat="33.9061225" lon="10.0607472"><ele>43.0</ele><time>2026-04-25T15:01:49.844Z</time></trkpt><trkpt lat="33.9060622" lon="10.0608218"><ele>43.0</ele><time>2026-04-25T15:01:50.841Z</time></trkpt><trkpt lat="33.9059977" lon="10.0609026"><ele>43.0</ele><time>2026-04-25T15:01:51.835Z</time></trkpt><trkpt lat="33.9059356" lon="10.0609858"><ele>43.0</ele><time>2026-04-25T15:01:52.829Z</time></trkpt><trkpt lat="33.9058752" lon="10.0610696"><ele>43.16666666666667</ele><time>2026-04-25T15:01:53.852Z</time></trkpt><trkpt lat="33.9058177" lon="10.0611515"><ele>43.333333333333336</ele><time>2026-04-25T15:01:54.844Z</time></trkpt><trkpt lat="33.9057637" lon="10.0612298"><ele>43.5</ele><time>2026-04-25T15:01:55.845Z</time></trkpt><trkpt lat="33.9057086" lon="10.0613068"><ele>43.666666666666664</ele><time>2026-04-25T15:01:56.856Z</time></trkpt><trkpt lat="33.9056537" lon="10.061373"><ele>43.83333333333333</ele><time>2026-04-25T15:01:57.829Z</time></trkpt><trkpt lat="33.9056015" lon="10.0614381"><ele>44.0</ele><time>2026-04-25T15:01:58.84Z</time></trkpt><trkpt lat="33.905543" lon="10.0615092"><ele>44.0</ele><time>2026-04-25T15:01:59.841Z</time></trkpt><trkpt lat="33.9054831" lon="10.0615847"><ele>44.0</ele><time>2026-04-25T15:02:00.843Z</time></trkpt><trkpt lat="33.9054263" lon="10.0616666"><ele>44.0</ele><time>2026-04-25T15:02:01.845Z</time></trkpt><trkpt lat="33.9053669" lon="10.0617493"><ele>44.0</ele><time>2026-04-25T15:02:02.848Z</time></trkpt><trkpt lat="33.9053061" lon="10.0618276"><ele>44.0</ele><time>2026-04-25T15:02:03.845Z</time></trkpt><trkpt lat="33.9052412" lon="10.0619093"><ele>44.0</ele><time>2026-04-25T15:02:04.856Z</time></trkpt><trkpt lat="33.9051764" lon="10.0619924"><ele>43.800000000000004</ele><time>2026-04-25T15:02:05.85Z</time></trkpt><trkpt lat="33.9051133" lon="10.0620778"><ele>43.6</ele><time>2026-04-25T15:02:06.841Z</time></trkpt><trkpt lat="33.9050503" lon="10.0621643"><ele>43.4</ele><time>2026-04-25T15:02:07.849Z</time></trkpt><trkpt lat="33.904987" lon="10.0622552"><ele>43.2</ele><time>2026-04-25T15:02:08.85Z</time></trkpt><trkpt lat="33.9049207" lon="10.0623465"><ele>43.0</ele><time>2026-04-25T15:02:09.849Z</time></trkpt><trkpt lat="33.9048551" lon="10.0624325"><ele>42.4</ele><time>2026-04-25T15:02:10.844Z</time></trkpt><trkpt lat="33.904792" lon="10.0625163"><ele>41.8</ele><time>2026-04-25T15:02:11.845Z</time></trkpt><trkpt lat="33.9047255" lon="10.062596"><ele>41.2</ele><time>2026-04-25T15:02:12.846Z</time></trkpt><trkpt lat="33.904661" lon="10.062675"><ele>40.6</ele><time>2026-04-25T15:02:13.849Z</time></trkpt><trkpt lat="33.904599" lon="10.062757"><ele>40.0</ele><time>2026-04-25T15:02:14.84Z</time></trkpt><trkpt lat="33.9045347" lon="10.062839"><ele>40.0</ele><time>2026-04-25T15:02:15.855Z</time></trkpt><trkpt lat="33.9044703" lon="10.0629211"><ele>40.0</ele><time>2026-04-25T15:02:16.835Z</time></trkpt><trkpt lat="33.9044128" lon="10.0629995"><ele>40.0</ele><time>2026-04-25T15:02:17.829Z</time></trkpt><trkpt lat="33.9043559" lon="10.0630741"><ele>40.0</ele><time>2026-04-25T15:02:18.836Z</time></trkpt><trkpt lat="33.9043031" lon="10.0631482"><ele>40.0</ele><time>2026-04-25T15:02:19.851Z</time></trkpt><trkpt lat="33.9042537" lon="10.0632171"><ele>40.0</ele><time>2026-04-25T15:02:20.837Z</time></trkpt><trkpt lat="33.9042081" lon="10.0632802"><ele>39.6</ele><time>2026-04-25T15:02:21.832Z</time></trkpt><trkpt lat="33.9041302" lon="10.0633834"><ele>39.2</ele><time>2026-04-25T15:02:23.845Z</time></trkpt><trkpt lat="33.904057" lon="10.0634727"><ele>38.8</ele><time>2026-04-25T15:02:25.843Z</time></trkpt><trkpt lat="33.9039752" lon="10.0635744"><ele>38.4</ele><time>2026-04-25T15:02:27.831Z</time></trkpt><trkpt lat="33.9039309" lon="10.0636299"><ele>38.0</ele><time>2026-04-25T15:02:28.838Z</time></trkpt><trkpt lat="33.903886" lon="10.06369"><ele>38.0</ele><time>2026-04-25T15:02:29.837Z</time></trkpt><trkpt lat="33.9038363" lon="10.0637567"><ele>38.0</ele><time>2026-04-25T15:02:30.834Z</time></trkpt><trkpt lat="33.9037859" lon="10.0638226"><ele>38.0</ele><time>2026-04-25T15:02:31.835Z</time></trkpt><trkpt lat="33.9037325" lon="10.0638922"><ele>38.0</ele><time>2026-04-25T15:02:32.838Z</time></trkpt><trkpt lat="33.9036779" lon="10.0639674"><ele>38.0</ele><time>2026-04-25T15:02:33.834Z</time></trkpt><trkpt lat="33.9036185" lon="10.0640448"><ele>38.0</ele><time>2026-04-25T15:02:34.85Z</time></trkpt><trkpt lat="33.903561" lon="10.0641274"><ele>37.8</ele><time>2026-04-25T15:02:35.834Z</time></trkpt><trkpt lat="33.9035003" lon="10.0642112"><ele>37.599999999999994</ele><time>2026-04-25T15:02:36.836Z</time></trkpt><trkpt lat="33.9034425" lon="10.0642892"><ele>37.400000000000006</ele><time>2026-04-25T15:02:37.842Z</time></trkpt><trkpt lat="33.903378" lon="10.064374"><ele>37.2</ele><time>2026-04-25T15:02:38.83Z</time></trkpt><trkpt lat="33.9033082" lon="10.0644607"><ele>37.0</ele><time>2026-04-25T15:02:39.833Z</time></trkpt><trkpt lat="33.9032399" lon="10.0645498"><ele>36.800000000000004</ele><time>2026-04-25T15:02:40.844Z</time></trkpt><trkpt lat="33.9031686" lon="10.0646447"><ele>36.6</ele><time>2026-04-25T15:02:41.851Z</time></trkpt><trkpt lat="33.9030919" lon="10.0647436"><ele>36.400000000000006</ele><time>2026-04-25T15:02:42.831Z</time></trkpt><trkpt lat="33.903013" lon="10.0648436"><ele>36.2</ele><time>2026-04-25T15:02:43.832Z</time></trkpt><trkpt lat="33.9029378" lon="10.0649415"><ele>36.0</ele><time>2026-04-25T15:02:44.828Z</time></trkpt><trkpt lat="33.9028622" lon="10.065041"><ele>35.5</ele><time>2026-04-25T15:02:45.824Z</time></trkpt><trkpt lat="33.9027861" lon="10.0651433"><ele>35.0</ele><time>2026-04-25T15:02:46.856Z</time></trkpt><trkpt lat="33.9027106" lon="10.0652457"><ele>34.5</ele><time>2026-04-25T15:02:47.835Z</time></trkpt><trkpt lat="33.9026323" lon="10.065348"><ele>34.0</ele><time>2026-04-25T15:02:48.841Z</time></trkpt><trkpt lat="33.9025519" lon="10.0654509"><ele>33.5</ele><time>2026-04-25T15:02:49.838Z</time></trkpt><trkpt lat="33.9024707" lon="10.0655552"><ele>33.0</ele><time>2026-04-25T15:02:50.829Z</time></trkpt><trkpt lat="33.9023935" lon="10.0656586"><ele>32.5</ele><time>2026-04-25T15:02:51.844Z</time></trkpt><trkpt lat="33.9023203" lon="10.0657617"><ele>32.0</ele><time>2026-04-25T15:02:52.838Z</time></trkpt><trkpt lat="33.9022469" lon="10.0658616"><ele>31.75</ele><time>2026-04-25T15:02:53.839Z</time></trkpt><trkpt lat="33.9021707" lon="10.0659597"><ele>31.5</ele><time>2026-04-25T15:02:54.839Z</time></trkpt><trkpt lat="33.9020863" lon="10.0660574"><ele>31.25</ele><time>2026-04-25T15:02:55.839Z</time></trkpt><trkpt lat="33.9020091" lon="10.0661588"><ele>31.0</ele><time>2026-04-25T15:02:56.841Z</time></trkpt><trkpt lat="33.9019287" lon="10.0662625"><ele>31.0</ele><time>2026-04-25T15:02:57.835Z</time></trkpt><trkpt lat="33.9018483" lon="10.0663688"><ele>31.0</ele><time>2026-04-25T15:02:58.839Z</time></trkpt><trkpt lat="33.901767" lon="10.0664746"><ele>31.0</ele><time>2026-04-25T15:02:59.841Z</time></trkpt><trkpt lat="33.9016853" lon="10.0665837"><ele>31.0</ele><time>2026-04-25T15:03:00.839Z</time></trkpt><trkpt lat="33.9016042" lon="10.0666936"><ele>30.75</ele><time>2026-04-25T15:03:01.838Z</time></trkpt><trkpt lat="33.9015207" lon="10.0668056"><ele>30.5</ele><time>2026-04-25T15:03:02.848Z</time></trkpt><trkpt lat="33.9014304" lon="10.0669216"><ele>30.25</ele><time>2026-04-25T15:03:03.851Z</time></trkpt><trkpt lat="33.9013416" lon="10.0670402"><ele>30.0</ele><time>2026-04-25T15:03:04.844Z</time></trkpt><trkpt lat="33.9012452" lon="10.0671657"><ele>30.0</ele><time>2026-04-25T15:03:05.844Z</time></trkpt><trkpt lat="33.9011446" lon="10.0672995"><ele>30.0</ele><time>2026-04-25T15:03:06.839Z</time></trkpt><trkpt lat="33.9010442" lon="10.0674329"><ele>30.0</ele><time>2026-04-25T15:03:07.844Z</time></trkpt><trkpt lat="33.9009421" lon="10.0675678"><ele>29.333333333333336</ele><time>2026-04-25T15:03:08.869Z</time></trkpt><trkpt lat="33.9008438" lon="10.0676984"><ele>28.666666666666668</ele><time>2026-04-25T15:03:09.852Z</time></trkpt><trkpt lat="33.9007421" lon="10.0678355"><ele>28.0</ele><time>2026-04-25T15:03:10.842Z</time></trkpt><trkpt lat="33.9006401" lon="10.0679755"><ele>28.0</ele><time>2026-04-25T15:03:11.836Z</time></trkpt><trkpt lat="33.9005382" lon="10.0681121"><ele>28.0</ele><time>2026-04-25T15:03:12.841Z</time></trkpt><trkpt lat="33.9004333" lon="10.0682477"><ele>28.0</ele><time>2026-04-25T15:03:13.853Z</time></trkpt><trkpt lat="33.9003307" lon="10.068388"><ele>28.0</ele><time>2026-04-25T15:03:14.853Z</time></trkpt><trkpt lat="33.9002254" lon="10.0685293"><ele>28.0</ele><time>2026-04-25T15:03:15.849Z</time></trkpt><trkpt lat="33.9001214" lon="10.0686692"><ele>28.0</ele><time>2026-04-25T15:03:16.84Z</time></trkpt><trkpt lat="33.9000181" lon="10.0688099"><ele>27.333333333333336</ele><time>2026-04-25T15:03:17.842Z</time></trkpt><trkpt lat="33.899914" lon="10.0689501"><ele>26.666666666666664</ele><time>2026-04-25T15:03:18.833Z</time></trkpt><trkpt lat="33.8998111" lon="10.0690871"><ele>26.0</ele><time>2026-04-25T15:03:19.836Z</time></trkpt><trkpt lat="33.899708" lon="10.0692245"><ele>25.666666666666664</ele><time>2026-04-25T15:03:20.846Z</time></trkpt><trkpt lat="33.8996026" lon="10.0693612"><ele>25.333333333333336</ele><time>2026-04-25T15:03:21.855Z</time></trkpt><trkpt lat="33.8994947" lon="10.0694956"><ele>25.0</ele><time>2026-04-25T15:03:22.846Z</time></trkpt><trkpt lat="33.8993892" lon="10.0696338"><ele>25.0</ele><time>2026-04-25T15:03:23.847Z</time></trkpt><trkpt lat="33.8992833" lon="10.0697751"><ele>25.0</ele><time>2026-04-25T15:03:24.839Z</time></trkpt><trkpt lat="33.8991776" lon="10.0699183"><ele>25.0</ele><time>2026-04-25T15:03:25.849Z</time></trkpt><trkpt lat="33.899075" lon="10.0700634"><ele>24.666666666666668</ele><time>2026-04-25T15:03:26.854Z</time></trkpt><trkpt lat="33.8989711" lon="10.0702068"><ele>24.333333333333336</ele><time>2026-04-25T15:03:27.842Z</time></trkpt><trkpt lat="33.8988684" lon="10.0703446"><ele>24.0</ele><time>2026-04-25T15:03:28.846Z</time></trkpt><trkpt lat="33.8987665" lon="10.0704854"><ele>24.0</ele><time>2026-04-25T15:03:29.833Z</time></trkpt><trkpt lat="33.8986679" lon="10.0706219"><ele>24.0</ele><time>2026-04-25T15:03:30.858Z</time></trkpt><trkpt lat="33.898567" lon="10.0707576"><ele>24.0</ele><time>2026-04-25T15:03:31.847Z</time></trkpt><trkpt lat="33.8984649" lon="10.0708925"><ele>24.0</ele><time>2026-04-25T15:03:32.846Z</time></trkpt><trkpt lat="33.8983589" lon="10.0710252"><ele>24.0</ele><time>2026-04-25T15:03:33.839Z</time></trkpt><trkpt lat="33.8982549" lon="10.071159"><ele>24.0</ele><time>2026-04-25T15:03:34.837Z</time></trkpt><trkpt lat="33.8981496" lon="10.0712939"><ele>24.0</ele><time>2026-04-25T15:03:35.851Z</time></trkpt><trkpt lat="33.8980469" lon="10.0714302"><ele>24.0</ele><time>2026-04-25T15:03:36.843Z</time></trkpt><trkpt lat="33.8979398" lon="10.0715682"><ele>24.0</ele><time>2026-04-25T15:03:37.848Z</time></trkpt><trkpt lat="33.8978356" lon="10.0717062"><ele>23.666666666666668</ele><time>2026-04-25T15:03:38.846Z</time></trkpt><trkpt lat="33.8977316" lon="10.0718425"><ele>23.333333333333336</ele><time>2026-04-25T15:03:39.853Z</time></trkpt><trkpt lat="33.8976282" lon="10.0719822"><ele>23.0</ele><time>2026-04-25T15:03:40.839Z</time></trkpt><trkpt lat="33.8975254" lon="10.0721264"><ele>22.333333333333336</ele><time>2026-04-25T15:03:41.846Z</time></trkpt><trkpt lat="33.897421" lon="10.0722673"><ele>21.666666666666668</ele><time>2026-04-25T15:03:42.85Z</time></trkpt><trkpt lat="33.8973169" lon="10.0724093"><ele>21.0</ele><time>2026-04-25T15:03:43.836Z</time></trkpt><trkpt lat="33.8972083" lon="10.0725472"><ele>21.0</ele><time>2026-04-25T15:03:44.847Z</time></trkpt><trkpt lat="33.8971006" lon="10.0726837"><ele>21.0</ele><time>2026-04-25T15:03:45.845Z</time></trkpt><trkpt lat="33.8969922" lon="10.0728211"><ele>21.0</ele><time>2026-04-25T15:03:46.85Z</time></trkpt><trkpt lat="33.8968855" lon="10.0729607"><ele>21.0</ele><time>2026-04-25T15:03:47.846Z</time></trkpt><trkpt lat="33.8967825" lon="10.0730997"><ele>21.0</ele><time>2026-04-25T15:03:48.842Z</time></trkpt><trkpt lat="33.896681" lon="10.0732393"><ele>21.0</ele><time>2026-04-25T15:03:49.827Z</time></trkpt><trkpt lat="33.8965836" lon="10.073375"><ele>20.75</ele><time>2026-04-25T15:03:50.844Z</time></trkpt><trkpt lat="33.8964852" lon="10.0735078"><ele>20.5</ele><time>2026-04-25T15:03:51.866Z</time></trkpt><trkpt lat="33.8963866" lon="10.0736402"><ele>20.25</ele><time>2026-04-25T15:03:52.836Z</time></trkpt><trkpt lat="33.8962905" lon="10.0737723"><ele>20.0</ele><time>2026-04-25T15:03:53.881Z</time></trkpt><trkpt lat="33.8961958" lon="10.0738985"><ele>20.0</ele><time>2026-04-25T15:03:54.839Z</time></trkpt><trkpt lat="33.8961005" lon="10.0740202"><ele>20.0</ele><time>2026-04-25T15:03:55.832Z</time></trkpt><trkpt lat="33.8960074" lon="10.074143"><ele>20.0</ele><time>2026-04-25T15:03:56.823Z</time></trkpt><trkpt lat="33.8959127" lon="10.0742667"><ele>20.0</ele><time>2026-04-25T15:03:57.83Z</time></trkpt><trkpt lat="33.8958215" lon="10.0743906"><ele>19.75</ele><time>2026-04-25T15:03:58.837Z</time></trkpt><trkpt lat="33.8957288" lon="10.0745144"><ele>19.5</ele><time>2026-04-25T15:03:59.841Z</time></trkpt><trkpt lat="33.895634" lon="10.0746381"><ele>19.25</ele><time>2026-04-25T15:04:00.838Z</time></trkpt><trkpt lat="33.8955388" lon="10.0747611"><ele>19.0</ele><time>2026-04-25T15:04:01.843Z</time></trkpt><trkpt lat="33.8954454" lon="10.0748852"><ele>19.0</ele><time>2026-04-25T15:04:02.841Z</time></trkpt><trkpt lat="33.8953513" lon="10.075008"><ele>19.0</ele><time>2026-04-25T15:04:03.845Z</time></trkpt><trkpt lat="33.895256" lon="10.075131"><ele>19.0</ele><time>2026-04-25T15:04:04.843Z</time></trkpt><trkpt lat="33.8951589" lon="10.0752573"><ele>19.0</ele><time>2026-04-25T15:04:05.861Z</time></trkpt><trkpt lat="33.8950652" lon="10.0753845"><ele>19.0</ele><time>2026-04-25T15:04:06.845Z</time></trkpt><trkpt lat="33.8949702" lon="10.0755154"><ele>19.0</ele><time>2026-04-25T15:04:07.85Z</time></trkpt><trkpt lat="33.8948734" lon="10.075642"><ele>19.0</ele><time>2026-04-25T15:04:08.844Z</time></trkpt><trkpt lat="33.8947768" lon="10.0757697"><ele>19.0</ele><time>2026-04-25T15:04:09.833Z</time></trkpt><trkpt lat="33.8946813" lon="10.0758945"><ele>18.75</ele><time>2026-04-25T15:04:10.832Z</time></trkpt><trkpt lat="33.8945902" lon="10.0760131"><ele>18.5</ele><time>2026-04-25T15:04:11.857Z</time></trkpt><trkpt lat="33.8945018" lon="10.0761299"><ele>18.25</ele><time>2026-04-25T15:04:12.85Z</time></trkpt><trkpt lat="33.8944197" lon="10.0762502"><ele>18.0</ele><time>2026-04-25T15:04:13.839Z</time></trkpt><trkpt lat="33.8943409" lon="10.0763647"><ele>18.0</ele><time>2026-04-25T15:04:14.851Z</time></trkpt><trkpt lat="33.8942628" lon="10.0764734"><ele>18.0</ele><time>2026-04-25T15:04:15.857Z</time></trkpt><trkpt lat="33.8941883" lon="10.076575"><ele>18.0</ele><time>2026-04-25T15:04:16.848Z</time></trkpt><trkpt lat="33.8941181" lon="10.0766702"><ele>18.0</ele><time>2026-04-25T15:04:17.844Z</time></trkpt><trkpt lat="33.8940559" lon="10.0767541"><ele>18.0</ele><time>2026-04-25T15:04:18.844Z</time></trkpt><trkpt lat="33.8940011" lon="10.0768292"><ele>17.857142857142858</ele><time>2026-04-25T15:04:19.833Z</time></trkpt><trkpt lat="33.8939574" lon="10.0768873"><ele>17.714285714285715</ele><time>2026-04-25T15:04:20.847Z</time></trkpt><trkpt lat="33.8938968" lon="10.0769687"><ele>17.57142857142857</ele><time>2026-04-25T15:04:22.84Z</time></trkpt><trkpt lat="33.8938448" lon="10.0770309"><ele>17.42857142857143</ele><time>2026-04-25T15:04:24.847Z</time></trkpt><trkpt lat="33.8937946" lon="10.077081"><ele>17.285714285714285</ele><time>2026-04-25T15:04:26.853Z</time></trkpt><trkpt lat="33.8937231" lon="10.0771229"><ele>17.142857142857142</ele><time>2026-04-25T15:04:29.838Z</time></trkpt><trkpt lat="33.8936546" lon="10.0771603"><ele>17.0</ele><time>2026-04-25T15:04:32.836Z</time></trkpt><trkpt lat="33.8935846" lon="10.077203"><ele>17.0</ele><time>2026-04-25T15:04:34.837Z</time></trkpt><trkpt lat="33.8935097" lon="10.0772776"><ele>17.0</ele><time>2026-04-25T15:04:36.838Z</time></trkpt><trkpt lat="33.8934627" lon="10.0774076"><ele>17.0</ele><time>2026-04-25T15:04:38.855Z</time></trkpt><trkpt lat="33.8934407" lon="10.0774848"><ele>17.0</ele><time>2026-04-25T15:04:39.847Z</time></trkpt><trkpt lat="33.8934143" lon="10.0775613"><ele>17.0</ele><time>2026-04-25T15:04:40.842Z</time></trkpt><trkpt lat="33.8933833" lon="10.0776345"><ele>17.0</ele><time>2026-04-25T15:04:41.839Z</time></trkpt><trkpt lat="33.8933437" lon="10.0777084"><ele>17.0</ele><time>2026-04-25T15:04:42.851Z</time></trkpt><trkpt lat="33.893299" lon="10.0777805"><ele>17.0</ele><time>2026-04-25T15:04:43.852Z</time></trkpt><trkpt lat="33.8932493" lon="10.0778486"><ele>17.0</ele><time>2026-04-25T15:04:44.845Z</time></trkpt><trkpt lat="33.8931932" lon="10.0779199"><ele>17.0</ele><time>2026-04-25T15:04:45.859Z</time></trkpt><trkpt lat="33.8931292" lon="10.0779961"><ele>17.0</ele><time>2026-04-25T15:04:46.858Z</time></trkpt><trkpt lat="33.8930642" lon="10.0780736"><ele>17.0</ele><time>2026-04-25T15:04:47.842Z</time></trkpt><trkpt lat="33.8929967" lon="10.0781503"><ele>17.0</ele><time>2026-04-25T15:04:48.854Z</time></trkpt><trkpt lat="33.8929258" lon="10.0782265"><ele>17.0</ele><time>2026-04-25T15:04:49.845Z</time></trkpt><trkpt lat="33.8928496" lon="10.0783"><ele>17.0</ele><time>2026-04-25T15:04:50.848Z</time></trkpt><trkpt lat="33.8927749" lon="10.0783699"><ele>17.0</ele><time>2026-04-25T15:04:51.852Z</time></trkpt><trkpt lat="33.8927044" lon="10.078436"><ele>17.0</ele><time>2026-04-25T15:04:52.853Z</time></trkpt><trkpt lat="33.8926337" lon="10.0785041"><ele>17.2</ele><time>2026-04-25T15:04:53.839Z</time></trkpt><trkpt lat="33.892559" lon="10.0785752"><ele>17.4</ele><time>2026-04-25T15:04:54.85Z</time></trkpt><trkpt lat="33.8924835" lon="10.0786485"><ele>17.6</ele><time>2026-04-25T15:04:55.854Z</time></trkpt><trkpt lat="33.8924068" lon="10.0787209"><ele>17.8</ele><time>2026-04-25T15:04:56.846Z</time></trkpt><trkpt lat="33.8923314" lon="10.0787959"><ele>18.0</ele><time>2026-04-25T15:04:57.833Z</time></trkpt><trkpt lat="33.8922519" lon="10.0788746"><ele>18.0</ele><time>2026-04-25T15:04:58.863Z</time></trkpt><trkpt lat="33.8921668" lon="10.0789541"><ele>18.0</ele><time>2026-04-25T15:04:59.84Z</time></trkpt><trkpt lat="33.8920784" lon="10.0790325"><ele>18.0</ele><time>2026-04-25T15:05:00.843Z</time></trkpt><trkpt lat="33.8919894" lon="10.0791134"><ele>18.0</ele><time>2026-04-25T15:05:01.847Z</time></trkpt><trkpt lat="33.8919014" lon="10.0791938"><ele>18.0</ele><time>2026-04-25T15:05:02.849Z</time></trkpt><trkpt lat="33.891821" lon="10.0792708"><ele>17.8</ele><time>2026-04-25T15:05:03.846Z</time></trkpt><trkpt lat="33.8917387" lon="10.0793466"><ele>17.6</ele><time>2026-04-25T15:05:04.827Z</time></trkpt><trkpt lat="33.8916476" lon="10.0794267"><ele>17.4</ele><time>2026-04-25T15:05:05.85Z</time></trkpt><trkpt lat="33.8915557" lon="10.0795097"><ele>17.2</ele><time>2026-04-25T15:05:06.846Z</time></trkpt><trkpt lat="33.891468" lon="10.0795968"><ele>17.0</ele><time>2026-04-25T15:05:07.852Z</time></trkpt><trkpt lat="33.8913799" lon="10.0796851"><ele>17.0</ele><time>2026-04-25T15:05:08.836Z</time></trkpt><trkpt lat="33.8912943" lon="10.0797779"><ele>17.0</ele><time>2026-04-25T15:05:09.839Z</time></trkpt><trkpt lat="33.8912108" lon="10.0798747"><ele>17.0</ele><time>2026-04-25T15:05:10.846Z</time></trkpt><trkpt lat="33.8911307" lon="10.0799733"><ele>17.0</ele><time>2026-04-25T15:05:11.846Z</time></trkpt><trkpt lat="33.8910579" lon="10.080075"><ele>17.25</ele><time>2026-04-25T15:05:12.836Z</time></trkpt><trkpt lat="33.8909818" lon="10.0801809"><ele>17.5</ele><time>2026-04-25T15:05:13.851Z</time></trkpt><trkpt lat="33.8909096" lon="10.080289"><ele>17.75</ele><time>2026-04-25T15:05:14.847Z</time></trkpt><trkpt lat="33.8908341" lon="10.0803979"><ele>18.0</ele><time>2026-04-25T15:05:15.844Z</time></trkpt><trkpt lat="33.8907622" lon="10.0805053"><ele>17.6</ele><time>2026-04-25T15:05:16.838Z</time></trkpt><trkpt lat="33.8906909" lon="10.0806083"><ele>17.200000000000003</ele><time>2026-04-25T15:05:17.842Z</time></trkpt><trkpt lat="33.890625" lon="10.0807094"><ele>16.8</ele><time>2026-04-25T15:05:18.843Z</time></trkpt><trkpt lat="33.8905558" lon="10.0808106"><ele>16.400000000000002</ele><time>2026-04-25T15:05:19.839Z</time></trkpt><trkpt lat="33.8904838" lon="10.0809153"><ele>16.0</ele><time>2026-04-25T15:05:20.834Z</time></trkpt><trkpt lat="33.8904079" lon="10.0810181"><ele>16.0</ele><time>2026-04-25T15:05:21.831Z</time></trkpt><trkpt lat="33.8903245" lon="10.0811172"><ele>16.0</ele><time>2026-04-25T15:05:22.846Z</time></trkpt><trkpt lat="33.8902289" lon="10.0812112"><ele>16.0</ele><time>2026-04-25T15:05:23.84Z</time></trkpt><trkpt lat="33.8901273" lon="10.0812954"><ele>16.0</ele><time>2026-04-25T15:05:24.836Z</time></trkpt><trkpt lat="33.8900222" lon="10.0813721"><ele>16.0</ele><time>2026-04-25T15:05:25.844Z</time></trkpt><trkpt lat="33.8899141" lon="10.0814476"><ele>16.0</ele><time>2026-04-25T15:05:26.849Z</time></trkpt><trkpt lat="33.8898057" lon="10.0815221"><ele>16.0</ele><time>2026-04-25T15:05:27.836Z</time></trkpt><trkpt lat="33.8896962" lon="10.0815977"><ele>16.0</ele><time>2026-04-25T15:05:28.845Z</time></trkpt><trkpt lat="33.8895852" lon="10.0816733"><ele>15.75</ele><time>2026-04-25T15:05:29.836Z</time></trkpt><trkpt lat="33.8894712" lon="10.0817475"><ele>15.5</ele><time>2026-04-25T15:05:30.853Z</time></trkpt><trkpt lat="33.8893594" lon="10.0818208"><ele>15.25</ele><time>2026-04-25T15:05:31.844Z</time></trkpt><trkpt lat="33.8892479" lon="10.0818915"><ele>15.0</ele><time>2026-04-25T15:05:32.843Z</time></trkpt><trkpt lat="33.8891397" lon="10.0819622"><ele>14.75</ele><time>2026-04-25T15:05:33.854Z</time></trkpt><trkpt lat="33.8890329" lon="10.0820343"><ele>14.5</ele><time>2026-04-25T15:05:34.843Z</time></trkpt><trkpt lat="33.8889273" lon="10.0821047"><ele>14.25</ele><time>2026-04-25T15:05:35.842Z</time></trkpt><trkpt lat="33.8888217" lon="10.0821725"><ele>14.0</ele><time>2026-04-25T15:05:36.837Z</time></trkpt><trkpt lat="33.8887081" lon="10.082229"><ele>14.0</ele><time>2026-04-25T15:05:37.835Z</time></trkpt><trkpt lat="33.8885886" lon="10.0822713"><ele>14.0</ele><time>2026-04-25T15:05:38.874Z</time></trkpt><trkpt lat="33.8884628" lon="10.0822996"><ele>14.0</ele><time>2026-04-25T15:05:39.88Z</time></trkpt><trkpt lat="33.8883375" lon="10.0823093"><ele>14.0</ele><time>2026-04-25T15:05:40.85Z</time></trkpt><trkpt lat="33.8882137" lon="10.0823004"><ele>14.25</ele><time>2026-04-25T15:05:41.851Z</time></trkpt><trkpt lat="33.8880906" lon="10.0822772"><ele>14.5</ele><time>2026-04-25T15:05:42.843Z</time></trkpt><trkpt lat="33.8879688" lon="10.0822472"><ele>14.75</ele><time>2026-04-25T15:05:43.846Z</time></trkpt><trkpt lat="33.8878467" lon="10.0822172"><ele>15.0</ele><time>2026-04-25T15:05:44.842Z</time></trkpt><trkpt lat="33.8877263" lon="10.0821856"><ele>15.0</ele><time>2026-04-25T15:05:45.849Z</time></trkpt><trkpt lat="33.8876062" lon="10.0821492"><ele>15.0</ele><time>2026-04-25T15:05:46.854Z</time></trkpt><trkpt lat="33.8874918" lon="10.0821214"><ele>15.0</ele><time>2026-04-25T15:05:47.841Z</time></trkpt><trkpt lat="33.8873848" lon="10.0821023"><ele>15.0</ele><time>2026-04-25T15:05:48.844Z</time></trkpt><trkpt lat="33.8872869" lon="10.0820942"><ele>15.0</ele><time>2026-04-25T15:05:49.848Z</time></trkpt><trkpt lat="33.8872041" lon="10.0820977"><ele>15.0</ele><time>2026-04-25T15:05:50.845Z</time></trkpt><trkpt lat="33.8871325" lon="10.082111"><ele>15.0</ele><time>2026-04-25T15:05:51.834Z</time></trkpt><trkpt lat="33.887064" lon="10.082123"><ele>15.0</ele><time>2026-04-25T15:05:52.838Z</time></trkpt><trkpt lat="33.8869598" lon="10.0821564"><ele>15.0</ele><time>2026-04-25T15:05:54.846Z</time></trkpt><trkpt lat="33.8868692" lon="10.0821947"><ele>15.0</ele><time>2026-04-25T15:05:56.837Z</time></trkpt><trkpt lat="33.8867723" lon="10.0822469"><ele>14.857142857142858</ele><time>2026-04-25T15:05:58.84Z</time></trkpt><trkpt lat="33.8867122" lon="10.0822809"><ele>14.714285714285714</ele><time>2026-04-25T15:05:59.845Z</time></trkpt><trkpt lat="33.8866523" lon="10.0823177"><ele>14.571428571428571</ele><time>2026-04-25T15:06:00.834Z</time></trkpt><trkpt lat="33.8865929" lon="10.0823546"><ele>14.428571428571429</ele><time>2026-04-25T15:06:01.842Z</time></trkpt><trkpt lat="33.8865226" lon="10.082398"><ele>14.285714285714285</ele><time>2026-04-25T15:06:02.843Z</time></trkpt><trkpt lat="33.886449" lon="10.0824451"><ele>14.142857142857142</ele><time>2026-04-25T15:06:03.834Z</time></trkpt><trkpt lat="33.8863752" lon="10.082494"><ele>14.0</ele><time>2026-04-25T15:06:04.853Z</time></trkpt><trkpt lat="33.8863007" lon="10.0825407"><ele>13.833333333333334</ele><time>2026-04-25T15:06:05.842Z</time></trkpt><trkpt lat="33.8862237" lon="10.0825894"><ele>13.666666666666668</ele><time>2026-04-25T15:06:06.84Z</time></trkpt><trkpt lat="33.8861455" lon="10.0826378"><ele>13.5</ele><time>2026-04-25T15:06:07.849Z</time></trkpt><trkpt lat="33.8860671" lon="10.0826839"><ele>13.333333333333332</ele><time>2026-04-25T15:06:08.839Z</time></trkpt><trkpt lat="33.8859872" lon="10.0827329"><ele>13.166666666666666</ele><time>2026-04-25T15:06:09.859Z</time></trkpt><trkpt lat="33.8858996" lon="10.0827805"><ele>13.0</ele><time>2026-04-25T15:06:10.842Z</time></trkpt><trkpt lat="33.8858132" lon="10.0828274"><ele>13.0</ele><time>2026-04-25T15:06:11.851Z</time></trkpt><trkpt lat="33.8857262" lon="10.0828686"><ele>13.0</ele><time>2026-04-25T15:06:12.829Z</time></trkpt><trkpt lat="33.8856362" lon="10.0829099"><ele>13.0</ele><time>2026-04-25T15:06:13.849Z</time></trkpt><trkpt lat="33.8855417" lon="10.0829522"><ele>13.0</ele><time>2026-04-25T15:06:14.833Z</time></trkpt><trkpt lat="33.8854433" lon="10.0829968"><ele>13.0</ele><time>2026-04-25T15:06:15.838Z</time></trkpt><trkpt lat="33.8853419" lon="10.0830426"><ele>13.0</ele><time>2026-04-25T15:06:16.84Z</time></trkpt><trkpt lat="33.8852351" lon="10.0830856"><ele>13.0</ele><time>2026-04-25T15:06:17.829Z</time></trkpt><trkpt lat="33.8851237" lon="10.0831285"><ele>13.0</ele><time>2026-04-25T15:06:18.837Z</time></trkpt><trkpt lat="33.8850176" lon="10.0831693"><ele>13.0</ele><time>2026-04-25T15:06:19.836Z</time></trkpt><trkpt lat="33.8849106" lon="10.0832118"><ele>13.0</ele><time>2026-04-25T15:06:20.845Z</time></trkpt><trkpt lat="33.8848034" lon="10.0832618"><ele>13.0</ele><time>2026-04-25T15:06:21.847Z</time></trkpt><trkpt lat="33.8847021" lon="10.08332"><ele>13.0</ele><time>2026-04-25T15:06:22.849Z</time></trkpt><trkpt lat="33.8846073" lon="10.0833838"><ele>13.0</ele><time>2026-04-25T15:06:23.83Z</time></trkpt><trkpt lat="33.8845173" lon="10.0834581"><ele>13.0</ele><time>2026-04-25T15:06:24.845Z</time></trkpt><trkpt lat="33.8844328" lon="10.0835415"><ele>13.0</ele><time>2026-04-25T15:06:25.837Z</time></trkpt><trkpt lat="33.8843562" lon="10.0836314"><ele>13.0</ele><time>2026-04-25T15:06:26.84Z</time></trkpt><trkpt lat="33.8842857" lon="10.0837241"><ele>13.0</ele><time>2026-04-25T15:06:27.856Z</time></trkpt><trkpt lat="33.8842112" lon="10.083821"><ele>13.0</ele><time>2026-04-25T15:06:28.839Z</time></trkpt><trkpt lat="33.8841368" lon="10.08392"><ele>13.0</ele><time>2026-04-25T15:06:29.847Z</time></trkpt><trkpt lat="33.884065" lon="10.0840168"><ele>12.8</ele><time>2026-04-25T15:06:30.841Z</time></trkpt><trkpt lat="33.8839983" lon="10.0841109"><ele>12.600000000000001</ele><time>2026-04-25T15:06:31.845Z</time></trkpt><trkpt lat="33.8839311" lon="10.084203"><ele>12.399999999999999</ele><time>2026-04-25T15:06:32.837Z</time></trkpt><trkpt lat="33.8838695" lon="10.0842991"><ele>12.2</ele><time>2026-04-25T15:06:33.839Z</time></trkpt><trkpt lat="33.8838022" lon="10.0843988"><ele>12.0</ele><time>2026-04-25T15:06:34.851Z</time></trkpt><trkpt lat="33.8837365" lon="10.0845026"><ele>12.0</ele><time>2026-04-25T15:06:35.855Z</time></trkpt><trkpt lat="33.8836762" lon="10.0846144"><ele>12.0</ele><time>2026-04-25T15:06:36.845Z</time></trkpt><trkpt lat="33.8836221" lon="10.0847288"><ele>12.0</ele><time>2026-04-25T15:06:37.855Z</time></trkpt><trkpt lat="33.8835794" lon="10.0848468"><ele>12.0</ele><time>2026-04-25T15:06:38.844Z</time></trkpt><trkpt lat="33.883552" lon="10.084959"><ele>12.0</ele><time>2026-04-25T15:06:39.839Z</time></trkpt><trkpt lat="33.8835415" lon="10.0850637"><ele>11.8</ele><time>2026-04-25T15:06:40.84Z</time></trkpt><trkpt lat="33.8835396" lon="10.0851536"><ele>11.6</ele><time>2026-04-25T15:06:41.847Z</time></trkpt><trkpt lat="33.883545" lon="10.0852905"><ele>11.4</ele><time>2026-04-25T15:06:43.845Z</time></trkpt><trkpt lat="33.8835619" lon="10.0854175"><ele>11.200000000000001</ele><time>2026-04-25T15:06:45.852Z</time></trkpt><trkpt lat="33.8835821" lon="10.0855379"><ele>11.0</ele><time>2026-04-25T15:06:47.842Z</time></trkpt><trkpt lat="33.8835919" lon="10.0856739"><ele>10.600000000000001</ele><time>2026-04-25T15:06:49.835Z</time></trkpt><trkpt lat="33.8836071" lon="10.0858241"><ele>10.200000000000001</ele><time>2026-04-25T15:06:51.841Z</time></trkpt><trkpt lat="33.8836152" lon="10.0859045"><ele>9.8</ele><time>2026-04-25T15:06:52.846Z</time></trkpt><trkpt lat="33.8836248" lon="10.0859881"><ele>9.4</ele><time>2026-04-25T15:06:53.845Z</time></trkpt><trkpt lat="33.8836469" lon="10.0861181"><ele>9.0</ele><time>2026-04-25T15:06:55.856Z</time></trkpt><trkpt lat="33.8836669" lon="10.0862109"><ele>9.0</ele><time>2026-04-25T15:06:57.857Z</time></trkpt><trkpt lat="33.8836945" lon="10.0863335"><ele>9.0</ele><time>2026-04-25T15:06:59.845Z</time></trkpt><trkpt lat="33.8837289" lon="10.0864759"><ele>9.0</ele><time>2026-04-25T15:07:01.844Z</time></trkpt><trkpt lat="33.883757" lon="10.0866151"><ele>9.0</ele><time>2026-04-25T15:07:03.851Z</time></trkpt><trkpt lat="33.8837797" lon="10.0867278"><ele>9.0</ele><time>2026-04-25T15:07:05.855Z</time></trkpt><trkpt lat="33.8837976" lon="10.0868146"><ele>8.5</ele><time>2026-04-25T15:07:09.849Z</time></trkpt><trkpt lat="33.8838131" lon="10.086901"><ele>8.0</ele><time>2026-04-25T15:07:13.834Z</time></trkpt><trkpt lat="33.883806" lon="10.0869958"><ele>7.5</ele><time>2026-04-25T15:07:16.836Z</time></trkpt><trkpt lat="33.8837837" lon="10.0871311"><ele>7.0</ele><time>2026-04-25T15:07:18.84Z</time></trkpt><trkpt lat="33.8837631" lon="10.0872082"><ele>6.5</ele><time>2026-04-25T15:07:19.851Z</time></trkpt><trkpt lat="33.8837388" lon="10.0872876"><ele>6.0</ele><time>2026-04-25T15:07:20.845Z</time></trkpt><trkpt lat="33.883709" lon="10.0873667"><ele>6.0</ele><time>2026-04-25T15:07:21.845Z</time></trkpt><trkpt lat="33.8836735" lon="10.0874411"><ele>6.0</ele><time>2026-04-25T15:07:22.842Z</time></trkpt><trkpt lat="33.8836247" lon="10.0875249"><ele>6.0</ele><time>2026-04-25T15:07:23.834Z</time></trkpt><trkpt lat="33.8835741" lon="10.0876006"><ele>6.0</ele><time>2026-04-25T15:07:24.831Z</time></trkpt><trkpt lat="33.8835256" lon="10.0876712"><ele>6.0</ele><time>2026-04-25T15:07:25.84Z</time></trkpt><trkpt lat="33.8834748" lon="10.0877324"><ele>6.0</ele><time>2026-04-25T15:07:26.84Z</time></trkpt><trkpt lat="33.8834255" lon="10.0877874"><ele>6.428571428571428</ele><time>2026-04-25T15:07:27.842Z</time></trkpt><trkpt lat="33.8833761" lon="10.0878366"><ele>6.857142857142858</ele><time>2026-04-25T15:07:28.842Z</time></trkpt><trkpt lat="33.8833256" lon="10.0878881"><ele>7.2857142857142865</ele><time>2026-04-25T15:07:29.845Z</time></trkpt><trkpt lat="33.8832747" lon="10.087942"><ele>7.714285714285714</ele><time>2026-04-25T15:07:30.827Z</time></trkpt><trkpt lat="33.8832204" lon="10.0879974"><ele>8.142857142857142</ele><time>2026-04-25T15:07:31.835Z</time></trkpt><trkpt lat="33.8831628" lon="10.0880574"><ele>8.571428571428573</ele><time>2026-04-25T15:07:32.825Z</time></trkpt><trkpt lat="33.8831045" lon="10.0881179"><ele>9.0</ele><time>2026-04-25T15:07:33.831Z</time></trkpt><trkpt lat="33.8830494" lon="10.0881779"><ele>9.000000000000002</ele><time>2026-04-25T15:07:34.838Z</time></trkpt><trkpt lat="33.8829958" lon="10.088241"><ele>9.0</ele><time>2026-04-25T15:07:35.817Z</time></trkpt><trkpt lat="33.882946" lon="10.0883032"><ele>9.0</ele><time>2026-04-25T15:07:36.846Z</time></trkpt><trkpt lat="33.8828987" lon="10.0883635"><ele>9.0</ele><time>2026-04-25T15:07:37.829Z</time></trkpt><trkpt lat="33.8828533" lon="10.0884244"><ele>9.0</ele><time>2026-04-25T15:07:38.825Z</time></trkpt><trkpt lat="33.882808" lon="10.088484"><ele>9.000000000000002</ele><time>2026-04-25T15:07:39.836Z</time></trkpt><trkpt lat="33.8827649" lon="10.0885407"><ele>9.0</ele><time>2026-04-25T15:07:40.828Z</time></trkpt><trkpt lat="33.8827194" lon="10.0885971"><ele>9.0</ele><time>2026-04-25T15:07:41.83Z</time></trkpt><trkpt lat="33.8826336" lon="10.0887047"><ele>9.0</ele><time>2026-04-25T15:07:43.834Z</time></trkpt><trkpt lat="33.8825908" lon="10.0887643"><ele>9.0</ele><time>2026-04-25T15:07:44.847Z</time></trkpt><trkpt lat="33.8825471" lon="10.0888249"><ele>9.0</ele><time>2026-04-25T15:07:45.828Z</time></trkpt><trkpt lat="33.8825028" lon="10.0888866"><ele>9.0</ele><time>2026-04-25T15:07:46.844Z</time></trkpt><trkpt lat="33.8824612" lon="10.0889479"><ele>9.0</ele><time>2026-04-25T15:07:47.848Z</time></trkpt><trkpt lat="33.8824188" lon="10.0890096"><ele>9.0</ele><time>2026-04-25T15:07:48.833Z</time></trkpt><trkpt lat="33.882377" lon="10.0890698"><ele>9.0</ele><time>2026-04-25T15:07:49.84Z</time></trkpt><trkpt lat="33.8822971" lon="10.0891793"><ele>9.0</ele><time>2026-04-25T15:07:51.837Z</time></trkpt><trkpt lat="33.8822217" lon="10.0892796"><ele>9.0</ele><time>2026-04-25T15:07:53.838Z</time></trkpt><trkpt lat="33.8821389" lon="10.0893864"><ele>9.0</ele><time>2026-04-25T15:07:55.83Z</time></trkpt><trkpt lat="33.882052" lon="10.0894772"><ele>9.0</ele><time>2026-04-25T15:07:57.841Z</time></trkpt><trkpt lat="33.8820011" lon="10.0895277"><ele>9.0</ele><time>2026-04-25T15:07:58.835Z</time></trkpt><trkpt lat="33.881951" lon="10.0895739"><ele>9.0</ele><time>2026-04-25T15:07:59.831Z</time></trkpt><trkpt lat="33.8819002" lon="10.0896196"><ele>9.0</ele><time>2026-04-25T15:08:00.835Z</time></trkpt><trkpt lat="33.8817948" lon="10.0897001"><ele>9.0</ele><time>2026-04-25T15:08:02.84Z</time></trkpt><trkpt lat="33.8817255" lon="10.0897615"><ele>9.0</ele><time>2026-04-25T15:08:04.843Z</time></trkpt><trkpt lat="33.8816533" lon="10.0898191"><ele>9.2</ele><time>2026-04-25T15:08:06.835Z</time></trkpt><trkpt lat="33.8815476" lon="10.0898913"><ele>9.4</ele><time>2026-04-25T15:08:08.835Z</time></trkpt><trkpt lat="33.881488" lon="10.089932"><ele>9.6</ele><time>2026-04-25T15:08:09.834Z</time></trkpt><trkpt lat="33.8813898" lon="10.0900107"><ele>9.8</ele><time>2026-04-25T15:08:11.837Z</time></trkpt><trkpt lat="33.8813068" lon="10.0900752"><ele>10.0</ele><time>2026-04-25T15:08:13.842Z</time></trkpt><trkpt lat="33.8812361" lon="10.09013"><ele>10.2</ele><time>2026-04-25T15:08:15.825Z</time></trkpt><trkpt lat="33.8811551" lon="10.0901945"><ele>10.4</ele><time>2026-04-25T15:08:18.839Z</time></trkpt><trkpt lat="33.8810751" lon="10.0902575"><ele>10.600000000000001</ele><time>2026-04-25T15:08:20.819Z</time></trkpt><trkpt lat="33.8809775" lon="10.090343"><ele>10.8</ele><time>2026-04-25T15:08:22.824Z</time></trkpt><trkpt lat="33.8808826" lon="10.0904207"><ele>11.0</ele><time>2026-04-25T15:08:24.822Z</time></trkpt><trkpt lat="33.8807915" lon="10.0905028"><ele>11.0</ele><time>2026-04-25T15:08:26.828Z</time></trkpt><trkpt lat="33.8806925" lon="10.090581"><ele>11.0</ele><time>2026-04-25T15:08:28.83Z</time></trkpt><trkpt lat="33.8805943" lon="10.0906639"><ele>11.0</ele><time>2026-04-25T15:08:30.825Z</time></trkpt><trkpt lat="33.8805384" lon="10.0907076"><ele>11.0</ele><time>2026-04-25T15:08:31.836Z</time></trkpt><trkpt lat="33.8804851" lon="10.0907542"><ele>11.0</ele><time>2026-04-25T15:08:32.834Z</time></trkpt><trkpt lat="33.8804268" lon="10.0908022"><ele>11.0</ele><time>2026-04-25T15:08:33.822Z</time></trkpt><trkpt lat="33.8803687" lon="10.0908467"><ele>10.857142857142858</ele><time>2026-04-25T15:08:34.809Z</time></trkpt><trkpt lat="33.8803081" lon="10.0909001"><ele>10.714285714285714</ele><time>2026-04-25T15:08:35.822Z</time></trkpt><trkpt lat="33.8802517" lon="10.0909486"><ele>10.571428571428571</ele><time>2026-04-25T15:08:36.829Z</time></trkpt><trkpt lat="33.8801945" lon="10.0909949"><ele>10.428571428571429</ele><time>2026-04-25T15:08:37.83Z</time></trkpt><trkpt lat="33.8801313" lon="10.0910414"><ele>10.285714285714286</ele><time>2026-04-25T15:08:38.846Z</time></trkpt><trkpt lat="33.8800678" lon="10.0910949"><ele>10.142857142857142</ele><time>2026-04-25T15:08:39.845Z</time></trkpt><trkpt lat="33.8800008" lon="10.0911486"><ele>10.0</ele><time>2026-04-25T15:08:40.83Z</time></trkpt><trkpt lat="33.8799431" lon="10.091205"><ele>10.0</ele><time>2026-04-25T15:08:41.834Z</time></trkpt><trkpt lat="33.8798797" lon="10.0912588"><ele>10.0</ele><time>2026-04-25T15:08:42.839Z</time></trkpt><trkpt lat="33.8798214" lon="10.0913079"><ele>10.0</ele><time>2026-04-25T15:08:43.823Z</time></trkpt><trkpt lat="33.8797591" lon="10.091353"><ele>10.0</ele><time>2026-04-25T15:08:44.845Z</time></trkpt><trkpt lat="33.8796926" lon="10.0913993"><ele>10.0</ele><time>2026-04-25T15:08:45.829Z</time></trkpt><trkpt lat="33.8796324" lon="10.0914476"><ele>10.0</ele><time>2026-04-25T15:08:46.832Z</time></trkpt><trkpt lat="33.8795696" lon="10.0914913"><ele>10.0</ele><time>2026-04-25T15:08:47.837Z</time></trkpt><trkpt lat="33.8795099" lon="10.0915291"><ele>10.0</ele><time>2026-04-25T15:08:48.829Z</time></trkpt><trkpt lat="33.8794507" lon="10.0915628"><ele>10.0</ele><time>2026-04-25T15:08:49.828Z</time></trkpt><trkpt lat="33.8793388" lon="10.0916209"><ele>10.0</ele><time>2026-04-25T15:08:51.835Z</time></trkpt><trkpt lat="33.8792354" lon="10.0916814"><ele>10.0</ele><time>2026-04-25T15:08:53.835Z</time></trkpt><trkpt lat="33.8791528" lon="10.091723"><ele>10.0</ele><time>2026-04-25T15:08:55.834Z</time></trkpt><trkpt lat="33.879054" lon="10.0917706"><ele>10.0</ele><time>2026-04-25T15:08:57.822Z</time></trkpt><trkpt lat="33.8789612" lon="10.0918164"><ele>10.0</ele><time>2026-04-25T15:08:59.834Z</time></trkpt><trkpt lat="33.8788716" lon="10.0918542"><ele>10.0</ele><time>2026-04-25T15:09:01.836Z</time></trkpt><trkpt lat="33.878787" lon="10.091886"><ele>10.0</ele><time>2026-04-25T15:09:03.823Z</time></trkpt><trkpt lat="33.8786986" lon="10.0919182"><ele>10.0</ele><time>2026-04-25T15:09:05.833Z</time></trkpt><trkpt lat="33.8786113" lon="10.0919621"><ele>10.0</ele><time>2026-04-25T15:09:07.833Z</time></trkpt><trkpt lat="33.8785229" lon="10.0920104"><ele>10.0</ele><time>2026-04-25T15:09:09.833Z</time></trkpt><trkpt lat="33.8784318" lon="10.0920468"><ele>10.0</ele><time>2026-04-25T15:09:11.829Z</time></trkpt><trkpt lat="33.8783453" lon="10.0920817"><ele>10.0</ele><time>2026-04-25T15:09:13.84Z</time></trkpt><trkpt lat="33.8782708" lon="10.0921097"><ele>10.0</ele><time>2026-04-25T15:09:15.827Z</time></trkpt><trkpt lat="33.8782049" lon="10.0921288"><ele>10.0</ele><time>2026-04-25T15:09:17.845Z</time></trkpt><trkpt lat="33.8781388" lon="10.09213"><ele>10.0</ele><time>2026-04-25T15:09:19.841Z</time></trkpt><trkpt lat="33.8780387" lon="10.0920962"><ele>10.0</ele><time>2026-04-25T15:09:21.847Z</time></trkpt><trkpt lat="33.8779491" lon="10.0920379"><ele>10.0</ele><time>2026-04-25T15:09:23.842Z</time></trkpt><trkpt lat="33.8778692" lon="10.0919597"><ele>10.0</ele><time>2026-04-25T15:09:25.842Z</time></trkpt><trkpt lat="33.8777799" lon="10.0918531"><ele>10.0</ele><time>2026-04-25T15:09:27.831Z</time></trkpt><trkpt lat="33.8777305" lon="10.0917987"><ele>10.0</ele><time>2026-04-25T15:09:28.838Z</time></trkpt><trkpt lat="33.8776762" lon="10.0917404"><ele>10.0</ele><time>2026-04-25T15:09:29.842Z</time></trkpt><trkpt lat="33.8776257" lon="10.0916885"><ele>10.0</ele><time>2026-04-25T15:09:30.834Z</time></trkpt><trkpt lat="33.8775728" lon="10.0916368"><ele>10.0</ele><time>2026-04-25T15:09:31.82Z</time></trkpt><trkpt lat="33.8775171" lon="10.0915814"><ele>10.0</ele><time>2026-04-25T15:09:32.819Z</time></trkpt><trkpt lat="33.8774653" lon="10.0915287"><ele>10.0</ele><time>2026-04-25T15:09:33.835Z</time></trkpt><trkpt lat="33.8773824" lon="10.091449"><ele>10.2</ele><time>2026-04-25T15:09:35.844Z</time></trkpt><trkpt lat="33.8773226" lon="10.0913901"><ele>10.4</ele><time>2026-04-25T15:09:38.82Z</time></trkpt><trkpt lat="33.8772507" lon="10.0913217"><ele>10.600000000000001</ele><time>2026-04-25T15:09:40.81Z</time></trkpt><trkpt lat="33.8771621" lon="10.0912432"><ele>10.8</ele><time>2026-04-25T15:09:42.83Z</time></trkpt><trkpt lat="33.8770603" lon="10.0911453"><ele>11.0</ele><time>2026-04-25T15:09:44.822Z</time></trkpt><trkpt lat="33.8770067" lon="10.0910905"><ele>11.0</ele><time>2026-04-25T15:09:45.847Z</time></trkpt><trkpt lat="33.8769018" lon="10.0910021"><ele>11.0</ele><time>2026-04-25T15:09:47.82Z</time></trkpt><trkpt lat="33.8768405" lon="10.0909486"><ele>11.0</ele><time>2026-04-25T15:09:48.827Z</time></trkpt><trkpt lat="33.8767809" lon="10.0908941"><ele>11.0</ele><time>2026-04-25T15:09:49.841Z</time></trkpt><trkpt lat="33.8767182" lon="10.09083"><ele>11.0</ele><time>2026-04-25T15:09:50.838Z</time></trkpt><trkpt lat="33.8766512" lon="10.0907692"><ele>11.0</ele><time>2026-04-25T15:09:51.829Z</time></trkpt><trkpt lat="33.876592" lon="10.0907124"><ele>11.0</ele><time>2026-04-25T15:09:52.845Z</time></trkpt><trkpt lat="33.8765318" lon="10.0906565"><ele>11.0</ele><time>2026-04-25T15:09:53.839Z</time></trkpt><trkpt lat="33.8764724" lon="10.090599"><ele>11.0</ele><time>2026-04-25T15:09:54.834Z</time></trkpt><trkpt lat="33.876411" lon="10.0905444"><ele>11.0</ele><time>2026-04-25T15:09:55.843Z</time></trkpt><trkpt lat="33.8763504" lon="10.0904922"><ele>11.0</ele><time>2026-04-25T15:09:56.83Z</time></trkpt><trkpt lat="33.8762877" lon="10.0904331"><ele>11.0</ele><time>2026-04-25T15:09:57.825Z</time></trkpt><trkpt lat="33.8762234" lon="10.0903774"><ele>11.0</ele><time>2026-04-25T15:09:58.838Z</time></trkpt><trkpt lat="33.8761562" lon="10.0903182"><ele>11.0</ele><time>2026-04-25T15:09:59.851Z</time></trkpt><trkpt lat="33.8760871" lon="10.0902603"><ele>11.0</ele><time>2026-04-25T15:10:00.826Z</time></trkpt><trkpt lat="33.8760147" lon="10.0902058"><ele>11.0</ele><time>2026-04-25T15:10:01.835Z</time></trkpt><trkpt lat="33.8759474" lon="10.0901465"><ele>11.0</ele><time>2026-04-25T15:10:02.842Z</time></trkpt><trkpt lat="33.8758729" lon="10.0900982"><ele>11.0</ele><time>2026-04-25T15:10:03.835Z</time></trkpt><trkpt lat="33.8757971" lon="10.0900507"><ele>11.0</ele><time>2026-04-25T15:10:04.859Z</time></trkpt><trkpt lat="33.8757205" lon="10.0900153"><ele>11.0</ele><time>2026-04-25T15:10:05.839Z</time></trkpt><trkpt lat="33.87564" lon="10.0899833"><ele>11.0</ele><time>2026-04-25T15:10:06.835Z</time></trkpt><trkpt lat="33.8755584" lon="10.0899537"><ele>11.0</ele><time>2026-04-25T15:10:07.819Z</time></trkpt><trkpt lat="33.8754831" lon="10.0899305"><ele>11.0</ele><time>2026-04-25T15:10:08.84Z</time></trkpt><trkpt lat="33.8754063" lon="10.0899238"><ele>11.0</ele><time>2026-04-25T15:10:09.833Z</time></trkpt><trkpt lat="33.8753277" lon="10.0899192"><ele>10.833333333333332</ele><time>2026-04-25T15:10:10.834Z</time></trkpt><trkpt lat="33.8752491" lon="10.0899112"><ele>10.666666666666666</ele><time>2026-04-25T15:10:11.831Z</time></trkpt><trkpt lat="33.875166" lon="10.0899011"><ele>10.5</ele><time>2026-04-25T15:10:12.836Z</time></trkpt><trkpt lat="33.8750798" lon="10.0898885"><ele>10.333333333333334</ele><time>2026-04-25T15:10:13.831Z</time></trkpt><trkpt lat="33.8749936" lon="10.0898826"><ele>10.166666666666668</ele><time>2026-04-25T15:10:14.832Z</time></trkpt><trkpt lat="33.8749062" lon="10.0898843"><ele>10.0</ele><time>2026-04-25T15:10:15.839Z</time></trkpt><trkpt lat="33.8748179" lon="10.0898873"><ele>10.5</ele><time>2026-04-25T15:10:16.837Z</time></trkpt><trkpt lat="33.8747374" lon="10.0898871"><ele>11.0</ele><time>2026-04-25T15:10:17.829Z</time></trkpt><trkpt lat="33.8746557" lon="10.0898881"><ele>11.5</ele><time>2026-04-25T15:10:18.836Z</time></trkpt><trkpt lat="33.8745752" lon="10.0898894"><ele>12.0</ele><time>2026-04-25T15:10:19.835Z</time></trkpt><trkpt lat="33.8744936" lon="10.0898932"><ele>12.499999999999998</ele><time>2026-04-25T15:10:20.841Z</time></trkpt><trkpt lat="33.8744162" lon="10.0898962"><ele>13.0</ele><time>2026-04-25T15:10:21.834Z</time></trkpt><trkpt lat="33.8743365" lon="10.0898982"><ele>12.833333333333332</ele><time>2026-04-25T15:10:22.838Z</time></trkpt><trkpt lat="33.8742571" lon="10.0899003"><ele>12.666666666666666</ele><time>2026-04-25T15:10:23.84Z</time></trkpt><trkpt lat="33.8741736" lon="10.0898988"><ele>12.5</ele><time>2026-04-25T15:10:24.827Z</time></trkpt><trkpt lat="33.8740952" lon="10.0899001"><ele>12.333333333333332</ele><time>2026-04-25T15:10:25.829Z</time></trkpt><trkpt lat="33.8740188" lon="10.0898971"><ele>12.166666666666666</ele><time>2026-04-25T15:10:26.843Z</time></trkpt><trkpt lat="33.8739404" lon="10.0898915"><ele>12.0</ele><time>2026-04-25T15:10:27.825Z</time></trkpt><trkpt lat="33.8738704" lon="10.08989"><ele>12.0</ele><time>2026-04-25T15:10:28.847Z</time></trkpt><trkpt lat="33.8738027" lon="10.0898874"><ele>12.0</ele><time>2026-04-25T15:10:29.832Z</time></trkpt><trkpt lat="33.8737386" lon="10.0898848"><ele>12.0</ele><time>2026-04-25T15:10:30.833Z</time></trkpt><trkpt lat="33.8736175" lon="10.0898834"><ele>12.0</ele><time>2026-04-25T15:10:32.847Z</time></trkpt><trkpt lat="33.8735535" lon="10.0898809"><ele>12.0</ele><time>2026-04-25T15:10:33.845Z</time></trkpt><trkpt lat="33.8734876" lon="10.0898755"><ele>12.0</ele><time>2026-04-25T15:10:34.84Z</time></trkpt><trkpt lat="33.873417" lon="10.0898626"><ele>11.857142857142856</ele><time>2026-04-25T15:10:35.84Z</time></trkpt><trkpt lat="33.8733438" lon="10.0898462"><ele>11.714285714285714</ele><time>2026-04-25T15:10:36.845Z</time></trkpt><trkpt lat="33.8732766" lon="10.0898356"><ele>11.571428571428571</ele><time>2026-04-25T15:10:37.843Z</time></trkpt><trkpt lat="33.8732082" lon="10.0898244"><ele>11.428571428571427</ele><time>2026-04-25T15:10:38.838Z</time></trkpt><trkpt lat="33.8731387" lon="10.0898105"><ele>11.285714285714285</ele><time>2026-04-25T15:10:39.821Z</time></trkpt><trkpt lat="33.8730747" lon="10.0898029"><ele>11.142857142857142</ele><time>2026-04-25T15:10:40.835Z</time></trkpt><trkpt lat="33.8730096" lon="10.0897944"><ele>11.0</ele><time>2026-04-25T15:10:41.837Z</time></trkpt><trkpt lat="33.8729398" lon="10.0897817"><ele>11.0</ele><time>2026-04-25T15:10:42.837Z</time></trkpt><trkpt lat="33.8728723" lon="10.0897719"><ele>11.0</ele><time>2026-04-25T15:10:43.84Z</time></trkpt><trkpt lat="33.8728063" lon="10.089761"><ele>11.0</ele><time>2026-04-25T15:10:44.841Z</time></trkpt><trkpt lat="33.8727443" lon="10.0897459"><ele>11.0</ele><time>2026-04-25T15:10:45.859Z</time></trkpt><trkpt lat="33.8726814" lon="10.0897309"><ele>11.0</ele><time>2026-04-25T15:10:46.84Z</time></trkpt><trkpt lat="33.8725606" lon="10.0897062"><ele>11.0</ele><time>2026-04-25T15:10:48.847Z</time></trkpt><trkpt lat="33.8724968" lon="10.0896935"><ele>11.0</ele><time>2026-04-25T15:10:49.849Z</time></trkpt><trkpt lat="33.8724318" lon="10.0896832"><ele>11.142857142857142</ele><time>2026-04-25T15:10:50.829Z</time></trkpt><trkpt lat="33.8723643" lon="10.0896726"><ele>11.285714285714285</ele><time>2026-04-25T15:10:51.843Z</time></trkpt><trkpt lat="33.8722958" lon="10.0896639"><ele>11.428571428571427</ele><time>2026-04-25T15:10:52.84Z</time></trkpt><trkpt lat="33.8722317" lon="10.089653"><ele>11.571428571428571</ele><time>2026-04-25T15:10:53.852Z</time></trkpt><trkpt lat="33.872166" lon="10.0896431"><ele>11.714285714285714</ele><time>2026-04-25T15:10:54.843Z</time></trkpt><trkpt lat="33.8721039" lon="10.08963"><ele>11.857142857142856</ele><time>2026-04-25T15:10:55.854Z</time></trkpt><trkpt lat="33.8720404" lon="10.0896144"><ele>12.0</ele><time>2026-04-25T15:10:56.843Z</time></trkpt><trkpt lat="33.8719776" lon="10.0895967"><ele>12.0</ele><time>2026-04-25T15:10:57.84Z</time></trkpt><trkpt lat="33.8719159" lon="10.0895776"><ele>12.0</ele><time>2026-04-25T15:10:58.844Z</time></trkpt><trkpt lat="33.8718535" lon="10.0895525"><ele>12.0</ele><time>2026-04-25T15:10:59.859Z</time></trkpt><trkpt lat="33.8717903" lon="10.0895303"><ele>12.0</ele><time>2026-04-25T15:11:00.843Z</time></trkpt><trkpt lat="33.8717291" lon="10.0895069"><ele>12.0</ele><time>2026-04-25T15:11:01.835Z</time></trkpt><trkpt lat="33.8716142" lon="10.089459"><ele>12.0</ele><time>2026-04-25T15:11:03.84Z</time></trkpt><trkpt lat="33.8715017" lon="10.0893924"><ele>12.666666666666666</ele><time>2026-04-25T15:11:05.852Z</time></trkpt><trkpt lat="33.8714338" lon="10.0893517"><ele>13.333333333333332</ele><time>2026-04-25T15:11:06.837Z</time></trkpt><trkpt lat="33.8713607" lon="10.0893162"><ele>14.0</ele><time>2026-04-25T15:11:07.835Z</time></trkpt><trkpt lat="33.8712882" lon="10.0892825"><ele>14.666666666666666</ele><time>2026-04-25T15:11:08.84Z</time></trkpt><trkpt lat="33.8712157" lon="10.0892451"><ele>15.333333333333332</ele><time>2026-04-25T15:11:09.845Z</time></trkpt><trkpt lat="33.8711451" lon="10.0892125"><ele>16.0</ele><time>2026-04-25T15:11:10.827Z</time></trkpt><trkpt lat="33.871074" lon="10.0891738"><ele>16.0</ele><time>2026-04-25T15:11:11.853Z</time></trkpt><trkpt lat="33.871004" lon="10.0891352"><ele>16.0</ele><time>2026-04-25T15:11:12.836Z</time></trkpt><trkpt lat="33.8709373" lon="10.089097"><ele>16.0</ele><time>2026-04-25T15:11:13.853Z</time></trkpt><trkpt lat="33.8708775" lon="10.0890634"><ele>16.0</ele><time>2026-04-25T15:11:14.842Z</time></trkpt><trkpt lat="33.8707652" lon="10.0890033"><ele>16.0</ele><time>2026-04-25T15:11:16.812Z</time></trkpt><trkpt lat="33.8706572" lon="10.0889435"><ele>16.0</ele><time>2026-04-25T15:11:18.833Z</time></trkpt><trkpt lat="33.87055" lon="10.0888834"><ele>16.0</ele><time>2026-04-25T15:11:20.823Z</time></trkpt><trkpt lat="33.8704916" lon="10.0888532"><ele>16.0</ele><time>2026-04-25T15:11:21.849Z</time></trkpt><trkpt lat="33.8703691" lon="10.0887887"><ele>16.0</ele><time>2026-04-25T15:11:23.84Z</time></trkpt><trkpt lat="33.8703096" lon="10.0887556"><ele>16.0</ele><time>2026-04-25T15:11:24.85Z</time></trkpt><trkpt lat="33.870242" lon="10.0887171"><ele>15.999999999999998</ele><time>2026-04-25T15:11:25.837Z</time></trkpt><trkpt lat="33.8701754" lon="10.0886739"><ele>16.0</ele><time>2026-04-25T15:11:26.834Z</time></trkpt><trkpt lat="33.8701004" lon="10.0886349"><ele>16.0</ele><time>2026-04-25T15:11:27.832Z</time></trkpt><trkpt lat="33.8700276" lon="10.0885929"><ele>16.0</ele><time>2026-04-25T15:11:28.844Z</time></trkpt><trkpt lat="33.8699502" lon="10.0885503"><ele>15.999999999999998</ele><time>2026-04-25T15:11:29.83Z</time></trkpt><trkpt lat="33.8698755" lon="10.0885067"><ele>16.0</ele><time>2026-04-25T15:11:30.837Z</time></trkpt><trkpt lat="33.8698025" lon="10.0884659"><ele>16.0</ele><time>2026-04-25T15:11:31.845Z</time></trkpt><trkpt lat="33.8697313" lon="10.0884276"><ele>15.999999999999998</ele><time>2026-04-25T15:11:32.841Z</time></trkpt><trkpt lat="33.8696644" lon="10.0883935"><ele>16.0</ele><time>2026-04-25T15:11:33.835Z</time></trkpt><trkpt lat="33.8696015" lon="10.0883535"><ele>16.0</ele><time>2026-04-25T15:11:34.845Z</time></trkpt><trkpt lat="33.8695419" lon="10.0883188"><ele>15.999999999999998</ele><time>2026-04-25T15:11:35.835Z</time></trkpt><trkpt lat="33.8694819" lon="10.0882883"><ele>16.0</ele><time>2026-04-25T15:11:36.852Z</time></trkpt><trkpt lat="33.8694229" lon="10.0882603"><ele>16.0</ele><time>2026-04-25T15:11:37.841Z</time></trkpt><trkpt lat="33.8693569" lon="10.0882272"><ele>15.999999999999998</ele><time>2026-04-25T15:11:38.843Z</time></trkpt><trkpt lat="33.8692849" lon="10.0881883"><ele>16.0</ele><time>2026-04-25T15:11:39.845Z</time></trkpt><trkpt lat="33.869209" lon="10.0881458"><ele>16.0</ele><time>2026-04-25T15:11:40.831Z</time></trkpt><trkpt lat="33.8691281" lon="10.0881019"><ele>16.0</ele><time>2026-04-25T15:11:41.835Z</time></trkpt><trkpt lat="33.8690483" lon="10.088053"><ele>15.999999999999998</ele><time>2026-04-25T15:11:42.844Z</time></trkpt><trkpt lat="33.8689697" lon="10.0880104"><ele>16.0</ele><time>2026-04-25T15:11:43.837Z</time></trkpt><trkpt lat="33.8688916" lon="10.0879681"><ele>15.999999999999998</ele><time>2026-04-25T15:11:44.842Z</time></trkpt><trkpt lat="33.8688126" lon="10.0879258"><ele>16.0</ele><time>2026-04-25T15:11:45.838Z</time></trkpt><trkpt lat="33.8687306" lon="10.0878813"><ele>16.0</ele><time>2026-04-25T15:11:46.842Z</time></trkpt><trkpt lat="33.8686501" lon="10.0878376"><ele>16.0</ele><time>2026-04-25T15:11:47.845Z</time></trkpt><trkpt lat="33.8685727" lon="10.0877918"><ele>15.999999999999998</ele><time>2026-04-25T15:11:48.843Z</time></trkpt><trkpt lat="33.8684952" lon="10.0877498"><ele>16.0</ele><time>2026-04-25T15:11:49.841Z</time></trkpt><trkpt lat="33.8684206" lon="10.0877086"><ele>16.333333333333332</ele><time>2026-04-25T15:11:50.836Z</time></trkpt><trkpt lat="33.8683433" lon="10.0876677"><ele>16.666666666666664</ele><time>2026-04-25T15:11:51.831Z</time></trkpt><trkpt lat="33.868267" lon="10.0876278"><ele>17.0</ele><time>2026-04-25T15:11:52.832Z</time></trkpt><trkpt lat="33.8681871" lon="10.0875822"><ele>17.333333333333332</ele><time>2026-04-25T15:11:53.841Z</time></trkpt><trkpt lat="33.8681055" lon="10.0875423"><ele>17.666666666666668</ele><time>2026-04-25T15:11:54.844Z</time></trkpt><trkpt lat="33.8680216" lon="10.0875019"><ele>18.0</ele><time>2026-04-25T15:11:55.85Z</time></trkpt><trkpt lat="33.8679333" lon="10.0874648"><ele>17.8</ele><time>2026-04-25T15:11:56.839Z</time></trkpt><trkpt lat="33.8678413" lon="10.0874252"><ele>17.6</ele><time>2026-04-25T15:11:57.833Z</time></trkpt><trkpt lat="33.8677443" lon="10.0873862"><ele>17.4</ele><time>2026-04-25T15:11:58.846Z</time></trkpt><trkpt lat="33.8676451" lon="10.0873489"><ele>17.2</ele><time>2026-04-25T15:11:59.843Z</time></trkpt><trkpt lat="33.8675507" lon="10.0873164"><ele>17.0</ele><time>2026-04-25T15:12:00.84Z</time></trkpt><trkpt lat="33.867456" lon="10.0872838"><ele>17.4</ele><time>2026-04-25T15:12:01.826Z</time></trkpt><trkpt lat="33.8673611" lon="10.0872552"><ele>17.799999999999997</ele><time>2026-04-25T15:12:02.838Z</time></trkpt><trkpt lat="33.867267" lon="10.0872229"><ele>18.2</ele><time>2026-04-25T15:12:03.845Z</time></trkpt><trkpt lat="33.8671749" lon="10.0871899"><ele>18.599999999999998</ele><time>2026-04-25T15:12:04.849Z</time></trkpt><trkpt lat="33.8670782" lon="10.0871527"><ele>19.0</ele><time>2026-04-25T15:12:05.839Z</time></trkpt><trkpt lat="33.8669742" lon="10.087115"><ele>19.0</ele><time>2026-04-25T15:12:06.847Z</time></trkpt><trkpt lat="33.8668685" lon="10.0870785"><ele>19.0</ele><time>2026-04-25T15:12:07.841Z</time></trkpt><trkpt lat="33.8667595" lon="10.0870423"><ele>19.0</ele><time>2026-04-25T15:12:08.842Z</time></trkpt><trkpt lat="33.8666426" lon="10.0870047"><ele>19.0</ele><time>2026-04-25T15:12:09.848Z</time></trkpt><trkpt lat="33.8665132" lon="10.0869706"><ele>18.75</ele><time>2026-04-25T15:12:10.845Z</time></trkpt><trkpt lat="33.8663792" lon="10.0869331"><ele>18.5</ele><time>2026-04-25T15:12:11.839Z</time></trkpt><trkpt lat="33.8662488" lon="10.0868876"><ele>18.25</ele><time>2026-04-25T15:12:12.836Z</time></trkpt><trkpt lat="33.8661284" lon="10.086848"><ele>18.0</ele><time>2026-04-25T15:12:13.847Z</time></trkpt><trkpt lat="33.8660306" lon="10.0868223"><ele>18.0</ele><time>2026-04-25T15:12:14.834Z</time></trkpt><trkpt lat="33.8659518" lon="10.0867991"><ele>18.0</ele><time>2026-04-25T15:12:15.847Z</time></trkpt><trkpt lat="33.8658758" lon="10.0867736"><ele>18.0</ele><time>2026-04-25T15:12:16.837Z</time></trkpt><trkpt lat="33.8657955" lon="10.0867455"><ele>18.0</ele><time>2026-04-25T15:12:17.833Z</time></trkpt><trkpt lat="33.865697" lon="10.0867091"><ele>18.0</ele><time>2026-04-25T15:12:18.837Z</time></trkpt><trkpt lat="33.8655861" lon="10.0866716"><ele>18.25</ele><time>2026-04-25T15:12:19.847Z</time></trkpt><trkpt lat="33.8654691" lon="10.0866305"><ele>18.5</ele><time>2026-04-25T15:12:20.847Z</time></trkpt><trkpt lat="33.86535" lon="10.0865886"><ele>18.75</ele><time>2026-04-25T15:12:21.845Z</time></trkpt><trkpt lat="33.8652324" lon="10.086547"><ele>19.0</ele><time>2026-04-25T15:12:22.841Z</time></trkpt><trkpt lat="33.8651102" lon="10.0865042"><ele>19.5</ele><time>2026-04-25T15:12:23.859Z</time></trkpt><trkpt lat="33.8649876" lon="10.0864616"><ele>20.0</ele><time>2026-04-25T15:12:24.84Z</time></trkpt><trkpt lat="33.8648622" lon="10.0864183"><ele>20.5</ele><time>2026-04-25T15:12:25.853Z</time></trkpt><trkpt lat="33.8647372" lon="10.0863764"><ele>21.0</ele><time>2026-04-25T15:12:26.833Z</time></trkpt><trkpt lat="33.8646114" lon="10.0863334"><ele>21.0</ele><time>2026-04-25T15:12:27.837Z</time></trkpt><trkpt lat="33.8644838" lon="10.0862908"><ele>21.0</ele><time>2026-04-25T15:12:28.831Z</time></trkpt><trkpt lat="33.8643547" lon="10.0862497"><ele>21.0</ele><time>2026-04-25T15:12:29.834Z</time></trkpt><trkpt lat="33.8642251" lon="10.086206"><ele>21.0</ele><time>2026-04-25T15:12:30.836Z</time></trkpt><trkpt lat="33.8640954" lon="10.0861635"><ele>20.75</ele><time>2026-04-25T15:12:31.843Z</time></trkpt><trkpt lat="33.863964" lon="10.0861176"><ele>20.5</ele><time>2026-04-25T15:12:32.831Z</time></trkpt><trkpt lat="33.8638305" lon="10.0860735"><ele>20.25</ele><time>2026-04-25T15:12:33.845Z</time></trkpt><trkpt lat="33.8636992" lon="10.0860266"><ele>20.0</ele><time>2026-04-25T15:12:34.865Z</time></trkpt><trkpt lat="33.8635633" lon="10.0859823"><ele>20.25</ele><time>2026-04-25T15:12:35.851Z</time></trkpt><trkpt lat="33.8634246" lon="10.0859394"><ele>20.5</ele><time>2026-04-25T15:12:36.83Z</time></trkpt><trkpt lat="33.863285" lon="10.0858949"><ele>20.75</ele><time>2026-04-25T15:12:37.841Z</time></trkpt><trkpt lat="33.8631442" lon="10.0858532"><ele>21.0</ele><time>2026-04-25T15:12:38.851Z</time></trkpt><trkpt lat="33.8630041" lon="10.0858156"><ele>21.0</ele><time>2026-04-25T15:12:39.851Z</time></trkpt><trkpt lat="33.8628658" lon="10.085779"><ele>21.0</ele><time>2026-04-25T15:12:40.844Z</time></trkpt><trkpt lat="33.8627297" lon="10.0857428"><ele>21.0</ele><time>2026-04-25T15:12:41.851Z</time></trkpt><trkpt lat="33.8625955" lon="10.0857065"><ele>21.0</ele><time>2026-04-25T15:12:42.84Z</time></trkpt><trkpt lat="33.8624654" lon="10.0856742"><ele>21.0</ele><time>2026-04-25T15:12:43.833Z</time></trkpt><trkpt lat="33.8623426" lon="10.0856444"><ele>21.0</ele><time>2026-04-25T15:12:44.843Z</time></trkpt><trkpt lat="33.8622333" lon="10.085617"><ele>21.0</ele><time>2026-04-25T15:12:45.846Z</time></trkpt><trkpt lat="33.8621429" lon="10.0855946"><ele>21.0</ele><time>2026-04-25T15:12:46.844Z</time></trkpt><trkpt lat="33.862065" lon="10.0855705"><ele>21.0</ele><time>2026-04-25T15:12:47.842Z</time></trkpt><trkpt lat="33.861987" lon="10.0855524"><ele>21.0</ele><time>2026-04-25T15:12:48.836Z</time></trkpt><trkpt lat="33.8618943" lon="10.0855308"><ele>21.0</ele><time>2026-04-25T15:12:49.845Z</time></trkpt><trkpt lat="33.8617919" lon="10.0855091"><ele>21.0</ele><time>2026-04-25T15:12:50.842Z</time></trkpt><trkpt lat="33.8616816" lon="10.0854861"><ele>21.0</ele><time>2026-04-25T15:12:51.855Z</time></trkpt><trkpt lat="33.8615655" lon="10.0854636"><ele>21.0</ele><time>2026-04-25T15:12:52.839Z</time></trkpt><trkpt lat="33.8614444" lon="10.085445"><ele>21.0</ele><time>2026-04-25T15:12:53.845Z</time></trkpt><trkpt lat="33.8613246" lon="10.0854284"><ele>21.0</ele><time>2026-04-25T15:12:54.845Z</time></trkpt><trkpt lat="33.8611987" lon="10.0854107"><ele>21.0</ele><time>2026-04-25T15:12:55.853Z</time></trkpt><trkpt lat="33.8610708" lon="10.085387"><ele>21.0</ele><time>2026-04-25T15:12:56.828Z</time></trkpt><trkpt lat="33.8609417" lon="10.0853662"><ele>21.0</ele><time>2026-04-25T15:12:57.829Z</time></trkpt><trkpt lat="33.8608107" lon="10.0853463"><ele>21.0</ele><time>2026-04-25T15:12:58.837Z</time></trkpt><trkpt lat="33.8606777" lon="10.0853256"><ele>21.0</ele><time>2026-04-25T15:12:59.839Z</time></trkpt><trkpt lat="33.8605453" lon="10.085305"><ele>21.0</ele><time>2026-04-25T15:13:00.843Z</time></trkpt><trkpt lat="33.8604148" lon="10.085285"><ele>21.0</ele><time>2026-04-25T15:13:01.829Z</time></trkpt><trkpt lat="33.8602834" lon="10.0852637"><ele>21.0</ele><time>2026-04-25T15:13:02.84Z</time></trkpt><trkpt lat="33.860152" lon="10.0852432"><ele>21.0</ele><time>2026-04-25T15:13:03.835Z</time></trkpt><trkpt lat="33.8600223" lon="10.0852234"><ele>21.0</ele><time>2026-04-25T15:13:04.84Z</time></trkpt><trkpt lat="33.8598958" lon="10.0852037"><ele>21.0</ele><time>2026-04-25T15:13:05.835Z</time></trkpt><trkpt lat="33.8597669" lon="10.0851838"><ele>21.0</ele><time>2026-04-25T15:13:06.858Z</time></trkpt><trkpt lat="33.8596368" lon="10.0851636"><ele>21.0</ele><time>2026-04-25T15:13:07.84Z</time></trkpt><trkpt lat="33.8595071" lon="10.085141"><ele>21.0</ele><time>2026-04-25T15:13:08.844Z</time></trkpt><trkpt lat="33.8593745" lon="10.0851202"><ele>21.5</ele><time>2026-04-25T15:13:09.839Z</time></trkpt><trkpt lat="33.8592417" lon="10.0851011"><ele>22.0</ele><time>2026-04-25T15:13:10.844Z</time></trkpt><trkpt lat="33.859112" lon="10.0850841"><ele>22.5</ele><time>2026-04-25T15:13:11.835Z</time></trkpt><trkpt lat="33.858981" lon="10.0850687"><ele>23.0</ele><time>2026-04-25T15:13:12.841Z</time></trkpt><trkpt lat="33.8588503" lon="10.08505"><ele>23.0</ele><time>2026-04-25T15:13:13.827Z</time></trkpt><trkpt lat="33.8587234" lon="10.0850359"><ele>23.0</ele><time>2026-04-25T15:13:14.852Z</time></trkpt><trkpt lat="33.8585997" lon="10.0850216"><ele>23.0</ele><time>2026-04-25T15:13:15.84Z</time></trkpt><trkpt lat="33.8584786" lon="10.0850104"><ele>23.0</ele><time>2026-04-25T15:13:16.842Z</time></trkpt><trkpt lat="33.8583536" lon="10.0849997"><ele>23.25</ele><time>2026-04-25T15:13:17.841Z</time></trkpt><trkpt lat="33.8582342" lon="10.0849959"><ele>23.5</ele><time>2026-04-25T15:13:18.84Z</time></trkpt><trkpt lat="33.8581152" lon="10.0849936"><ele>23.75</ele><time>2026-04-25T15:13:19.841Z</time></trkpt><trkpt lat="33.8579954" lon="10.0849928"><ele>24.0</ele><time>2026-04-25T15:13:20.847Z</time></trkpt><trkpt lat="33.8578738" lon="10.0849941"><ele>24.0</ele><time>2026-04-25T15:13:21.845Z</time></trkpt><trkpt lat="33.8577516" lon="10.0849942"><ele>24.0</ele><time>2026-04-25T15:13:22.839Z</time></trkpt><trkpt lat="33.8576276" lon="10.0849946"><ele>24.0</ele><time>2026-04-25T15:13:23.866Z</time></trkpt><trkpt lat="33.8574953" lon="10.0849949"><ele>24.0</ele><time>2026-04-25T15:13:24.844Z</time></trkpt><trkpt lat="33.8573637" lon="10.0849992"><ele>24.0</ele><time>2026-04-25T15:13:25.847Z</time></trkpt><trkpt lat="33.8572257" lon="10.0850066"><ele>24.0</ele><time>2026-04-25T15:13:26.834Z</time></trkpt><trkpt lat="33.8570873" lon="10.0850093"><ele>24.0</ele><time>2026-04-25T15:13:27.839Z</time></trkpt><trkpt lat="33.8569577" lon="10.0850032"><ele>24.0</ele><time>2026-04-25T15:13:28.841Z</time></trkpt><trkpt lat="33.8568442" lon="10.0849891"><ele>24.0</ele><time>2026-04-25T15:13:29.835Z</time></trkpt><trkpt lat="33.856741" lon="10.0849703"><ele>24.0</ele><time>2026-04-25T15:13:30.843Z</time></trkpt><trkpt lat="33.8566473" lon="10.0849515"><ele>24.0</ele><time>2026-04-25T15:13:31.84Z</time></trkpt><trkpt lat="33.8565645" lon="10.08494"><ele>24.0</ele><time>2026-04-25T15:13:32.834Z</time></trkpt><trkpt lat="33.8564765" lon="10.0849265"><ele>24.0</ele><time>2026-04-25T15:13:33.838Z</time></trkpt><trkpt lat="33.8563984" lon="10.0849165"><ele>23.799999999999997</ele><time>2026-04-25T15:13:34.833Z</time></trkpt><trkpt lat="33.8563165" lon="10.084902"><ele>23.599999999999998</ele><time>2026-04-25T15:13:35.814Z</time></trkpt><trkpt lat="33.8562207" lon="10.0848948"><ele>23.4</ele><time>2026-04-25T15:13:36.837Z</time></trkpt><trkpt lat="33.8561303" lon="10.084895"><ele>23.2</ele><time>2026-04-25T15:13:37.835Z</time></trkpt><trkpt lat="33.8560405" lon="10.0848966"><ele>23.0</ele><time>2026-04-25T15:13:38.827Z</time></trkpt><trkpt lat="33.8559418" lon="10.0848986"><ele>23.0</ele><time>2026-04-25T15:13:39.825Z</time></trkpt><trkpt lat="33.855836" lon="10.0848967"><ele>23.0</ele><time>2026-04-25T15:13:40.834Z</time></trkpt><trkpt lat="33.8557207" lon="10.0849175"><ele>23.0</ele><time>2026-04-25T15:13:41.839Z</time></trkpt><trkpt lat="33.8555902" lon="10.0849378"><ele>23.0</ele><time>2026-04-25T15:13:42.833Z</time></trkpt><trkpt lat="33.855454" lon="10.0849484"><ele>23.333333333333336</ele><time>2026-04-25T15:13:43.839Z</time></trkpt><trkpt lat="33.8552677" lon="10.0849634"><ele>23.666666666666668</ele><time>2026-04-25T15:13:44.835Z</time></trkpt><trkpt lat="33.8551068" lon="10.0849683"><ele>24.0</ele><time>2026-04-25T15:13:45.835Z</time></trkpt><trkpt lat="33.8549718" lon="10.0849787"><ele>24.0</ele><time>2026-04-25T15:13:46.837Z</time></trkpt><trkpt lat="33.8548405" lon="10.0849966"><ele>24.0</ele><time>2026-04-25T15:13:47.836Z</time></trkpt><trkpt lat="33.8547046" lon="10.0850119"><ele>24.0</ele><time>2026-04-25T15:13:48.854Z</time></trkpt><trkpt lat="33.8545722" lon="10.0850238"><ele>24.0</ele><time>2026-04-25T15:13:49.846Z</time></trkpt><trkpt lat="33.8544413" lon="10.0850277"><ele>24.0</ele><time>2026-04-25T15:13:50.871Z</time></trkpt><trkpt lat="33.8543026" lon="10.0850287"><ele>24.0</ele><time>2026-04-25T15:13:51.829Z</time></trkpt><trkpt lat="33.8541592" lon="10.0850372"><ele>24.0</ele><time>2026-04-25T15:13:52.835Z</time></trkpt><trkpt lat="33.8539996" lon="10.0850534"><ele>24.0</ele><time>2026-04-25T15:13:53.841Z</time></trkpt><trkpt lat="33.853841" lon="10.0850622"><ele>24.0</ele><time>2026-04-25T15:13:54.844Z</time></trkpt><trkpt lat="33.853675" lon="10.0850694"><ele>24.0</ele><time>2026-04-25T15:13:55.844Z</time></trkpt><trkpt lat="33.8535049" lon="10.0850776"><ele>24.0</ele><time>2026-04-25T15:13:56.848Z</time></trkpt><trkpt lat="33.8533369" lon="10.0850882"><ele>24.333333333333336</ele><time>2026-04-25T15:13:57.843Z</time></trkpt><trkpt lat="33.8531689" lon="10.0850932"><ele>24.666666666666668</ele><time>2026-04-25T15:13:58.844Z</time></trkpt><trkpt lat="33.8530016" lon="10.0850997"><ele>25.0</ele><time>2026-04-25T15:13:59.834Z</time></trkpt><trkpt lat="33.8528343" lon="10.0851068"><ele>25.0</ele><time>2026-04-25T15:14:00.832Z</time></trkpt><trkpt lat="33.8526655" lon="10.0851134"><ele>25.0</ele><time>2026-04-25T15:14:01.854Z</time></trkpt><trkpt lat="33.8524948" lon="10.0851165"><ele>25.0</ele><time>2026-04-25T15:14:02.851Z</time></trkpt><trkpt lat="33.8523285" lon="10.0851199"><ele>24.666666666666668</ele><time>2026-04-25T15:14:03.861Z</time></trkpt><trkpt lat="33.8521654" lon="10.0851231"><ele>24.333333333333336</ele><time>2026-04-25T15:14:04.846Z</time></trkpt><trkpt lat="33.8520026" lon="10.0851286"><ele>24.0</ele><time>2026-04-25T15:14:05.837Z</time></trkpt><trkpt lat="33.8518431" lon="10.085134"><ele>25.0</ele><time>2026-04-25T15:14:06.838Z</time></trkpt><trkpt lat="33.8516786" lon="10.0851403"><ele>26.0</ele><time>2026-04-25T15:14:07.845Z</time></trkpt><trkpt lat="33.8515128" lon="10.0851473"><ele>27.0</ele><time>2026-04-25T15:14:08.852Z</time></trkpt><trkpt lat="33.8513487" lon="10.0851515"><ele>27.0</ele><time>2026-04-25T15:14:09.84Z</time></trkpt><trkpt lat="33.8511849" lon="10.0851585"><ele>27.0</ele><time>2026-04-25T15:14:10.839Z</time></trkpt><trkpt lat="33.8510128" lon="10.0851636"><ele>27.0</ele><time>2026-04-25T15:14:11.862Z</time></trkpt><trkpt lat="33.8508492" lon="10.0851688"><ele>27.666666666666664</ele><time>2026-04-25T15:14:12.841Z</time></trkpt><trkpt lat="33.8506796" lon="10.0851727"><ele>28.333333333333332</ele><time>2026-04-25T15:14:13.839Z</time></trkpt><trkpt lat="33.8505121" lon="10.0851729"><ele>29.0</ele><time>2026-04-25T15:14:14.849Z</time></trkpt><trkpt lat="33.8503416" lon="10.0851725"><ele>29.0</ele><time>2026-04-25T15:14:15.837Z</time></trkpt><trkpt lat="33.8501718" lon="10.0851755"><ele>29.0</ele><time>2026-04-25T15:14:16.835Z</time></trkpt><trkpt lat="33.8500036" lon="10.0851821"><ele>29.0</ele><time>2026-04-25T15:14:17.855Z</time></trkpt><trkpt lat="33.8498347" lon="10.0851813"><ele>29.333333333333332</ele><time>2026-04-25T15:14:18.846Z</time></trkpt><trkpt lat="33.8496625" lon="10.0851775"><ele>29.666666666666664</ele><time>2026-04-25T15:14:19.856Z</time></trkpt><trkpt lat="33.8494904" lon="10.0851682"><ele>30.0</ele><time>2026-04-25T15:14:20.84Z</time></trkpt><trkpt lat="33.8493181" lon="10.0851559"><ele>30.666666666666664</ele><time>2026-04-25T15:14:21.845Z</time></trkpt><trkpt lat="33.8491475" lon="10.0851394"><ele>31.333333333333332</ele><time>2026-04-25T15:14:22.835Z</time></trkpt><trkpt lat="33.8489764" lon="10.0851186"><ele>32.0</ele><time>2026-04-25T15:14:23.845Z</time></trkpt><trkpt lat="33.8488048" lon="10.0850936"><ele>32.0</ele><time>2026-04-25T15:14:24.845Z</time></trkpt><trkpt lat="33.848636" lon="10.0850695"><ele>32.0</ele><time>2026-04-25T15:14:25.843Z</time></trkpt><trkpt lat="33.848471" lon="10.0850464"><ele>32.0</ele><time>2026-04-25T15:14:26.844Z</time></trkpt><trkpt lat="33.8483038" lon="10.0850212"><ele>32.0</ele><time>2026-04-25T15:14:27.846Z</time></trkpt><trkpt lat="33.8481382" lon="10.0849927"><ele>32.0</ele><time>2026-04-25T15:14:28.848Z</time></trkpt><trkpt lat="33.8479704" lon="10.0849651"><ele>32.0</ele><time>2026-04-25T15:14:29.841Z</time></trkpt><trkpt lat="33.8478048" lon="10.0849364"><ele>32.666666666666664</ele><time>2026-04-25T15:14:30.845Z</time></trkpt><trkpt lat="33.8476403" lon="10.0849088"><ele>33.333333333333336</ele><time>2026-04-25T15:14:31.85Z</time></trkpt><trkpt lat="33.8474724" lon="10.0848805"><ele>34.0</ele><time>2026-04-25T15:14:32.839Z</time></trkpt><trkpt lat="33.847306" lon="10.0848532"><ele>34.0</ele><time>2026-04-25T15:14:33.855Z</time></trkpt><trkpt lat="33.8471392" lon="10.0848311"><ele>34.0</ele><time>2026-04-25T15:14:34.843Z</time></trkpt><trkpt lat="33.8469711" lon="10.0848111"><ele>34.0</ele><time>2026-04-25T15:14:35.859Z</time></trkpt><trkpt lat="33.8468035" lon="10.084787"><ele>34.0</ele><time>2026-04-25T15:14:36.851Z</time></trkpt><trkpt lat="33.8466336" lon="10.0847558"><ele>34.0</ele><time>2026-04-25T15:14:37.855Z</time></trkpt><trkpt lat="33.8464667" lon="10.084721"><ele>34.0</ele><time>2026-04-25T15:14:38.842Z</time></trkpt><trkpt lat="33.8462961" lon="10.0846881"><ele>34.0</ele><time>2026-04-25T15:14:39.854Z</time></trkpt><trkpt lat="33.8461147" lon="10.0846545"><ele>34.0</ele><time>2026-04-25T15:14:40.843Z</time></trkpt><trkpt lat="33.8459282" lon="10.0846229"><ele>34.0</ele><time>2026-04-25T15:14:41.855Z</time></trkpt><trkpt lat="33.8457217" lon="10.0845896"><ele>33.66666666666667</ele><time>2026-04-25T15:14:42.843Z</time></trkpt><trkpt lat="33.8455118" lon="10.084552"><ele>33.333333333333336</ele><time>2026-04-25T15:14:43.853Z</time></trkpt><trkpt lat="33.8453085" lon="10.0845146"><ele>33.0</ele><time>2026-04-25T15:14:44.853Z</time></trkpt><trkpt lat="33.8451122" lon="10.084477"><ele>32.666666666666664</ele><time>2026-04-25T15:14:45.848Z</time></trkpt><trkpt lat="33.84492" lon="10.0844396"><ele>32.33333333333333</ele><time>2026-04-25T15:14:46.84Z</time></trkpt><trkpt lat="33.8447338" lon="10.0844069"><ele>32.0</ele><time>2026-04-25T15:14:47.845Z</time></trkpt><trkpt lat="33.8445503" lon="10.0843757"><ele>32.0</ele><time>2026-04-25T15:14:48.839Z</time></trkpt><trkpt lat="33.84437" lon="10.0843421"><ele>32.0</ele><time>2026-04-25T15:14:49.873Z</time></trkpt><trkpt lat="33.8441952" lon="10.0843128"><ele>32.0</ele><time>2026-04-25T15:14:50.853Z</time></trkpt><trkpt lat="33.8440225" lon="10.0842798"><ele>32.0</ele><time>2026-04-25T15:14:51.848Z</time></trkpt><trkpt lat="33.8438512" lon="10.084249"><ele>32.0</ele><time>2026-04-25T15:14:52.847Z</time></trkpt><trkpt lat="33.8436843" lon="10.0842203"><ele>32.0</ele><time>2026-04-25T15:14:53.852Z</time></trkpt><trkpt lat="33.8435165" lon="10.0841899"><ele>32.0</ele><time>2026-04-25T15:14:54.838Z</time></trkpt><trkpt lat="33.8433498" lon="10.0841611"><ele>32.0</ele><time>2026-04-25T15:14:55.846Z</time></trkpt><trkpt lat="33.8431834" lon="10.0841304"><ele>32.0</ele><time>2026-04-25T15:14:56.847Z</time></trkpt><trkpt lat="33.8430175" lon="10.0840987"><ele>32.0</ele><time>2026-04-25T15:14:57.843Z</time></trkpt><trkpt lat="33.8428569" lon="10.084066"><ele>32.0</ele><time>2026-04-25T15:14:58.844Z</time></trkpt><trkpt lat="33.8427006" lon="10.0840316"><ele>32.0</ele><time>2026-04-25T15:14:59.846Z</time></trkpt><trkpt lat="33.842553" lon="10.0839997"><ele>32.75</ele><time>2026-04-25T15:15:00.847Z</time></trkpt><trkpt lat="33.8424147" lon="10.0839694"><ele>33.5</ele><time>2026-04-25T15:15:01.836Z</time></trkpt><trkpt lat="33.842285" lon="10.0839385"><ele>34.25</ele><time>2026-04-25T15:15:02.84Z</time></trkpt><trkpt lat="33.8421675" lon="10.0839071"><ele>35.0</ele><time>2026-04-25T15:15:03.852Z</time></trkpt><trkpt lat="33.8420584" lon="10.0838782"><ele>35.0</ele><time>2026-04-25T15:15:04.838Z</time></trkpt><trkpt lat="33.841955" lon="10.0838427"><ele>35.0</ele><time>2026-04-25T15:15:05.848Z</time></trkpt><trkpt lat="33.8418634" lon="10.0837976"><ele>35.0</ele><time>2026-04-25T15:15:06.844Z</time></trkpt><trkpt lat="33.8417823" lon="10.0837451"><ele>35.0</ele><time>2026-04-25T15:15:07.862Z</time></trkpt><trkpt lat="33.8417171" lon="10.0836801"><ele>35.0</ele><time>2026-04-25T15:15:08.855Z</time></trkpt><trkpt lat="33.84165" lon="10.0836208"><ele>35.33333333333333</ele><time>2026-04-25T15:15:09.847Z</time></trkpt><trkpt lat="33.8415835" lon="10.0835797"><ele>35.666666666666664</ele><time>2026-04-25T15:15:10.843Z</time></trkpt><trkpt lat="33.8415134" lon="10.0835687"><ele>36.0</ele><time>2026-04-25T15:15:11.853Z</time></trkpt><trkpt lat="33.8414359" lon="10.0835764"><ele>36.333333333333336</ele><time>2026-04-25T15:15:12.833Z</time></trkpt><trkpt lat="33.8413533" lon="10.0836074"><ele>36.66666666666667</ele><time>2026-04-25T15:15:13.841Z</time></trkpt><trkpt lat="33.84126" lon="10.0836329"><ele>37.0</ele><time>2026-04-25T15:15:14.859Z</time></trkpt><trkpt lat="33.8411586" lon="10.0836428"><ele>37.0</ele><time>2026-04-25T15:15:15.84Z</time></trkpt><trkpt lat="33.841036" lon="10.0836218"><ele>37.0</ele><time>2026-04-25T15:15:16.845Z</time></trkpt><trkpt lat="33.840912" lon="10.0835968"><ele>37.0</ele><time>2026-04-25T15:15:17.829Z</time></trkpt><trkpt lat="33.8407848" lon="10.0835625"><ele>37.0</ele><time>2026-04-25T15:15:18.843Z</time></trkpt><trkpt lat="33.8406582" lon="10.0835249"><ele>37.0</ele><time>2026-04-25T15:15:19.858Z</time></trkpt><trkpt lat="33.8405286" lon="10.0834874"><ele>37.0</ele><time>2026-04-25T15:15:20.837Z</time></trkpt><trkpt lat="33.8404005" lon="10.0834542"><ele>37.0</ele><time>2026-04-25T15:15:21.849Z</time></trkpt><trkpt lat="33.8402708" lon="10.0834183"><ele>37.0</ele><time>2026-04-25T15:15:22.837Z</time></trkpt><trkpt lat="33.8401384" lon="10.0833805"><ele>37.25</ele><time>2026-04-25T15:15:23.844Z</time></trkpt><trkpt lat="33.8400054" lon="10.0833437"><ele>37.5</ele><time>2026-04-25T15:15:24.845Z</time></trkpt><trkpt lat="33.8398725" lon="10.0833058"><ele>37.75</ele><time>2026-04-25T15:15:25.848Z</time></trkpt><trkpt lat="33.839738" lon="10.0832666"><ele>38.0</ele><time>2026-04-25T15:15:26.845Z</time></trkpt><trkpt lat="33.8396029" lon="10.0832255"><ele>38.25</ele><time>2026-04-25T15:15:27.842Z</time></trkpt><trkpt lat="33.8394673" lon="10.0831859"><ele>38.5</ele><time>2026-04-25T15:15:28.861Z</time></trkpt><trkpt lat="33.8393316" lon="10.0831473"><ele>38.75</ele><time>2026-04-25T15:15:29.844Z</time></trkpt><trkpt lat="33.8391943" lon="10.0831095"><ele>39.0</ele><time>2026-04-25T15:15:30.849Z</time></trkpt><trkpt lat="33.8390516" lon="10.0830797"><ele>38.333333333333336</ele><time>2026-04-25T15:15:31.855Z</time></trkpt><trkpt lat="33.8389025" lon="10.0830394"><ele>37.66666666666667</ele><time>2026-04-25T15:15:32.848Z</time></trkpt><trkpt lat="33.8387512" lon="10.0829969"><ele>37.0</ele><time>2026-04-25T15:15:33.857Z</time></trkpt><trkpt lat="33.8385949" lon="10.0829512"><ele>37.333333333333336</ele><time>2026-04-25T15:15:34.852Z</time></trkpt><trkpt lat="33.8384375" lon="10.0829073"><ele>37.666666666666664</ele><time>2026-04-25T15:15:35.846Z</time></trkpt><trkpt lat="33.8382839" lon="10.0828627"><ele>38.0</ele><time>2026-04-25T15:15:36.858Z</time></trkpt><trkpt lat="33.8381247" lon="10.0828231"><ele>38.0</ele><time>2026-04-25T15:15:37.851Z</time></trkpt><trkpt lat="33.8379641" lon="10.0827801"><ele>38.0</ele><time>2026-04-25T15:15:38.856Z</time></trkpt><trkpt lat="33.8378027" lon="10.0827392"><ele>38.0</ele><time>2026-04-25T15:15:39.856Z</time></trkpt><trkpt lat="33.8376476" lon="10.0826962"><ele>38.666666666666664</ele><time>2026-04-25T15:15:40.852Z</time></trkpt><trkpt lat="33.8374884" lon="10.0826477"><ele>39.333333333333336</ele><time>2026-04-25T15:15:41.849Z</time></trkpt><trkpt lat="33.8373242" lon="10.0825999"><ele>40.0</ele><time>2026-04-25T15:15:42.845Z</time></trkpt><trkpt lat="33.8371574" lon="10.0825484"><ele>40.0</ele><time>2026-04-25T15:15:43.864Z</time></trkpt><trkpt lat="33.8369968" lon="10.0824969"><ele>40.0</ele><time>2026-04-25T15:15:44.854Z</time></trkpt><trkpt lat="33.8368319" lon="10.0824457"><ele>40.0</ele><time>2026-04-25T15:15:45.857Z</time></trkpt><trkpt lat="33.8366675" lon="10.082389"><ele>39.333333333333336</ele><time>2026-04-25T15:15:46.848Z</time></trkpt><trkpt lat="33.8365001" lon="10.0823329"><ele>38.666666666666664</ele><time>2026-04-25T15:15:47.842Z</time></trkpt><trkpt lat="33.8363282" lon="10.0822809"><ele>38.0</ele><time>2026-04-25T15:15:48.86Z</time></trkpt><trkpt lat="33.8361523" lon="10.082228"><ele>38.0</ele><time>2026-04-25T15:15:49.854Z</time></trkpt><trkpt lat="33.8359755" lon="10.0821719"><ele>38.0</ele><time>2026-04-25T15:15:50.84Z</time></trkpt><trkpt lat="33.8357952" lon="10.0821147"><ele>38.0</ele><time>2026-04-25T15:15:51.85Z</time></trkpt><trkpt lat="33.83561" lon="10.0820556"><ele>37.666666666666664</ele><time>2026-04-25T15:15:52.862Z</time></trkpt><trkpt lat="33.8354238" lon="10.0819979"><ele>37.333333333333336</ele><time>2026-04-25T15:15:53.864Z</time></trkpt><trkpt lat="33.8352383" lon="10.0819397"><ele>37.0</ele><time>2026-04-25T15:15:54.845Z</time></trkpt><trkpt lat="33.8350556" lon="10.0818814"><ele>37.0</ele><time>2026-04-25T15:15:55.852Z</time></trkpt><trkpt lat="33.8348705" lon="10.0818199"><ele>37.0</ele><time>2026-04-25T15:15:56.846Z</time></trkpt><trkpt lat="33.8346863" lon="10.081761"><ele>37.0</ele><time>2026-04-25T15:15:57.856Z</time></trkpt><trkpt lat="33.8345013" lon="10.0817011"><ele>37.0</ele><time>2026-04-25T15:15:58.85Z</time></trkpt><trkpt lat="33.8343166" lon="10.0816417"><ele>37.0</ele><time>2026-04-25T15:15:59.844Z</time></trkpt><trkpt lat="33.8341328" lon="10.0815815"><ele>37.0</ele><time>2026-04-25T15:16:00.854Z</time></trkpt><trkpt lat="33.8339502" lon="10.0815225"><ele>37.0</ele><time>2026-04-25T15:16:01.845Z</time></trkpt><trkpt lat="33.8337678" lon="10.0814634"><ele>37.0</ele><time>2026-04-25T15:16:02.84Z</time></trkpt><trkpt lat="33.8335914" lon="10.0814056"><ele>37.0</ele><time>2026-04-25T15:16:03.854Z</time></trkpt><trkpt lat="33.8334155" lon="10.0813462"><ele>37.0</ele><time>2026-04-25T15:16:04.865Z</time></trkpt><trkpt lat="33.8332386" lon="10.0812912"><ele>37.0</ele><time>2026-04-25T15:16:05.854Z</time></trkpt><trkpt lat="33.8330627" lon="10.0812319"><ele>37.0</ele><time>2026-04-25T15:16:06.846Z</time></trkpt><trkpt lat="33.8328818" lon="10.0811782"><ele>37.0</ele><time>2026-04-25T15:16:07.836Z</time></trkpt><trkpt lat="33.8327039" lon="10.081119"><ele>37.0</ele><time>2026-04-25T15:16:08.855Z</time></trkpt><trkpt lat="33.832524" lon="10.0810622"><ele>37.0</ele><time>2026-04-25T15:16:09.853Z</time></trkpt><trkpt lat="33.8323473" lon="10.0810034"><ele>37.66666666666667</ele><time>2026-04-25T15:16:10.84Z</time></trkpt><trkpt lat="33.8321683" lon="10.0809413"><ele>38.333333333333336</ele><time>2026-04-25T15:16:11.876Z</time></trkpt><trkpt lat="33.83199" lon="10.08087"><ele>39.0</ele><time>2026-04-25T15:16:12.856Z</time></trkpt><trkpt lat="33.8318119" lon="10.0807938"><ele>39.333333333333336</ele><time>2026-04-25T15:16:13.846Z</time></trkpt><trkpt lat="33.8316341" lon="10.0807125"><ele>39.66666666666667</ele><time>2026-04-25T15:16:14.848Z</time></trkpt><trkpt lat="33.831462" lon="10.0806217"><ele>40.0</ele><time>2026-04-25T15:16:15.854Z</time></trkpt><trkpt lat="33.8312974" lon="10.0805222"><ele>40.0</ele><time>2026-04-25T15:16:16.854Z</time></trkpt><trkpt lat="33.8311312" lon="10.0804115"><ele>40.0</ele><time>2026-04-25T15:16:17.844Z</time></trkpt><trkpt lat="33.8309624" lon="10.0802903"><ele>40.0</ele><time>2026-04-25T15:16:18.839Z</time></trkpt><trkpt lat="33.8307965" lon="10.0801657"><ele>39.66666666666667</ele><time>2026-04-25T15:16:19.855Z</time></trkpt><trkpt lat="33.8306292" lon="10.0800378"><ele>39.333333333333336</ele><time>2026-04-25T15:16:20.839Z</time></trkpt><trkpt lat="33.8304622" lon="10.0799095"><ele>39.0</ele><time>2026-04-25T15:16:21.852Z</time></trkpt><trkpt lat="33.8302922" lon="10.0797796"><ele>37.333333333333336</ele><time>2026-04-25T15:16:22.852Z</time></trkpt><trkpt lat="33.8301252" lon="10.0796517"><ele>35.66666666666667</ele><time>2026-04-25T15:16:23.873Z</time></trkpt><trkpt lat="33.8299608" lon="10.0795282"><ele>34.0</ele><time>2026-04-25T15:16:24.855Z</time></trkpt><trkpt lat="33.8297953" lon="10.0794029"><ele>34.0</ele><time>2026-04-25T15:16:25.855Z</time></trkpt><trkpt lat="33.8296306" lon="10.0792797"><ele>34.0</ele><time>2026-04-25T15:16:26.849Z</time></trkpt><trkpt lat="33.8294689" lon="10.0791565"><ele>34.0</ele><time>2026-04-25T15:16:27.84Z</time></trkpt><trkpt lat="33.8293045" lon="10.0790303"><ele>33.66666666666667</ele><time>2026-04-25T15:16:28.853Z</time></trkpt><trkpt lat="33.8291403" lon="10.0789031"><ele>33.333333333333336</ele><time>2026-04-25T15:16:29.847Z</time></trkpt><trkpt lat="33.8289753" lon="10.0787746"><ele>33.0</ele><time>2026-04-25T15:16:30.851Z</time></trkpt><trkpt lat="33.8288087" lon="10.0786449"><ele>33.0</ele><time>2026-04-25T15:16:31.841Z</time></trkpt><trkpt lat="33.8286375" lon="10.0785173"><ele>33.0</ele><time>2026-04-25T15:16:32.854Z</time></trkpt><trkpt lat="33.8284653" lon="10.0783932"><ele>33.0</ele><time>2026-04-25T15:16:33.858Z</time></trkpt><trkpt lat="33.8282941" lon="10.0782659"><ele>33.0</ele><time>2026-04-25T15:16:34.839Z</time></trkpt><trkpt lat="33.8281203" lon="10.0781377"><ele>33.0</ele><time>2026-04-25T15:16:35.856Z</time></trkpt><trkpt lat="33.8279494" lon="10.0780058"><ele>33.0</ele><time>2026-04-25T15:16:36.853Z</time></trkpt><trkpt lat="33.8277771" lon="10.0778757"><ele>33.333333333333336</ele><time>2026-04-25T15:16:37.87Z</time></trkpt><trkpt lat="33.8276061" lon="10.0777487"><ele>33.66666666666667</ele><time>2026-04-25T15:16:38.852Z</time></trkpt><trkpt lat="33.8274336" lon="10.0776191"><ele>34.0</ele><time>2026-04-25T15:16:39.841Z</time></trkpt><trkpt lat="33.8272614" lon="10.0774923"><ele>35.0</ele><time>2026-04-25T15:16:40.834Z</time></trkpt><trkpt lat="33.8270897" lon="10.0773632"><ele>36.0</ele><time>2026-04-25T15:16:41.852Z</time></trkpt><trkpt lat="33.8269183" lon="10.0772323"><ele>37.0</ele><time>2026-04-25T15:16:42.846Z</time></trkpt><trkpt lat="33.8267495" lon="10.0771037"><ele>37.333333333333336</ele><time>2026-04-25T15:16:43.844Z</time></trkpt><trkpt lat="33.8265801" lon="10.0769729"><ele>37.666666666666664</ele><time>2026-04-25T15:16:44.838Z</time></trkpt><trkpt lat="33.8264106" lon="10.0768445"><ele>38.0</ele><time>2026-04-25T15:16:45.845Z</time></trkpt><trkpt lat="33.8262424" lon="10.0767183"><ele>38.33333333333333</ele><time>2026-04-25T15:16:46.847Z</time></trkpt><trkpt lat="33.8260743" lon="10.0765919"><ele>38.666666666666664</ele><time>2026-04-25T15:16:47.854Z</time></trkpt><trkpt lat="33.8259053" lon="10.0764642"><ele>39.0</ele><time>2026-04-25T15:16:48.842Z</time></trkpt><trkpt lat="33.8257352" lon="10.0763373"><ele>41.0</ele><time>2026-04-25T15:16:49.866Z</time></trkpt><trkpt lat="33.825565" lon="10.0762095"><ele>43.0</ele><time>2026-04-25T15:16:50.856Z</time></trkpt><trkpt lat="33.8253936" lon="10.0760789"><ele>45.0</ele><time>2026-04-25T15:16:51.852Z</time></trkpt><trkpt lat="33.8252187" lon="10.0759462"><ele>45.0</ele><time>2026-04-25T15:16:52.85Z</time></trkpt><trkpt lat="33.8250418" lon="10.075811"><ele>45.0</ele><time>2026-04-25T15:16:53.845Z</time></trkpt><trkpt lat="33.8248647" lon="10.0756741"><ele>45.0</ele><time>2026-04-25T15:16:54.848Z</time></trkpt><trkpt lat="33.8246866" lon="10.07554"><ele>46.0</ele><time>2026-04-25T15:16:55.856Z</time></trkpt><trkpt lat="33.82451" lon="10.0754012"><ele>47.0</ele><time>2026-04-25T15:16:56.844Z</time></trkpt><trkpt lat="33.8243334" lon="10.075266"><ele>48.0</ele><time>2026-04-25T15:16:57.848Z</time></trkpt><trkpt lat="33.8241555" lon="10.0751334"><ele>48.33333333333333</ele><time>2026-04-25T15:16:58.864Z</time></trkpt><trkpt lat="33.8239774" lon="10.0749987"><ele>48.666666666666664</ele><time>2026-04-25T15:16:59.849Z</time></trkpt><trkpt lat="33.8237978" lon="10.0748658"><ele>49.0</ele><time>2026-04-25T15:17:00.841Z</time></trkpt><trkpt lat="33.8236211" lon="10.0747299"><ele>49.666666666666664</ele><time>2026-04-25T15:17:01.844Z</time></trkpt><trkpt lat="33.8234431" lon="10.0745973"><ele>50.33333333333333</ele><time>2026-04-25T15:17:02.85Z</time></trkpt><trkpt lat="33.8232679" lon="10.0744633"><ele>51.0</ele><time>2026-04-25T15:17:03.863Z</time></trkpt><trkpt lat="33.8230925" lon="10.0743281"><ele>51.0</ele><time>2026-04-25T15:17:04.848Z</time></trkpt><trkpt lat="33.8229156" lon="10.0741939"><ele>51.0</ele><time>2026-04-25T15:17:05.853Z</time></trkpt><trkpt lat="33.8227403" lon="10.0740627"><ele>51.0</ele><time>2026-04-25T15:17:06.848Z</time></trkpt><trkpt lat="33.822566" lon="10.0739321"><ele>51.66666666666667</ele><time>2026-04-25T15:17:07.861Z</time></trkpt><trkpt lat="33.8223879" lon="10.0737924"><ele>52.333333333333336</ele><time>2026-04-25T15:17:08.846Z</time></trkpt><trkpt lat="33.8222029" lon="10.0736494"><ele>53.0</ele><time>2026-04-25T15:17:09.849Z</time></trkpt><trkpt lat="33.82201" lon="10.0735048"><ele>53.0</ele><time>2026-04-25T15:17:10.861Z</time></trkpt><trkpt lat="33.8218207" lon="10.0733621"><ele>53.0</ele><time>2026-04-25T15:17:11.857Z</time></trkpt><trkpt lat="33.821633" lon="10.0732202"><ele>53.0</ele><time>2026-04-25T15:17:12.864Z</time></trkpt><trkpt lat="33.8214475" lon="10.0730803"><ele>53.66666666666667</ele><time>2026-04-25T15:17:13.854Z</time></trkpt><trkpt lat="33.8212647" lon="10.0729397"><ele>54.33333333333333</ele><time>2026-04-25T15:17:14.845Z</time></trkpt><trkpt lat="33.8210822" lon="10.0727989"><ele>55.0</ele><time>2026-04-25T15:17:15.854Z</time></trkpt><trkpt lat="33.8208995" lon="10.0726584"><ele>55.0</ele><time>2026-04-25T15:17:16.843Z</time></trkpt><trkpt lat="33.8207191" lon="10.0725242"><ele>55.0</ele><time>2026-04-25T15:17:17.847Z</time></trkpt><trkpt lat="33.8205391" lon="10.0723899"><ele>55.0</ele><time>2026-04-25T15:17:18.861Z</time></trkpt><trkpt lat="33.8203598" lon="10.072255"><ele>55.0</ele><time>2026-04-25T15:17:19.857Z</time></trkpt><trkpt lat="33.8201813" lon="10.0721184"><ele>55.0</ele><time>2026-04-25T15:17:20.847Z</time></trkpt><trkpt lat="33.8200045" lon="10.0719875"><ele>55.0</ele><time>2026-04-25T15:17:21.847Z</time></trkpt><trkpt lat="33.819827" lon="10.0718568"><ele>55.33333333333333</ele><time>2026-04-25T15:17:22.849Z</time></trkpt><trkpt lat="33.8196486" lon="10.0717322"><ele>55.66666666666667</ele><time>2026-04-25T15:17:23.849Z</time></trkpt><trkpt lat="33.8194747" lon="10.0716197"><ele>56.0</ele><time>2026-04-25T15:17:24.838Z</time></trkpt><trkpt lat="33.8193027" lon="10.0715186"><ele>56.0</ele><time>2026-04-25T15:17:25.853Z</time></trkpt><trkpt lat="33.8191253" lon="10.0714343"><ele>56.0</ele><time>2026-04-25T15:17:26.849Z</time></trkpt><trkpt lat="33.8189207" lon="10.0713391"><ele>56.0</ele><time>2026-04-25T15:17:27.848Z</time></trkpt><trkpt lat="33.8187039" lon="10.0712468"><ele>56.0</ele><time>2026-04-25T15:17:28.831Z</time></trkpt><trkpt lat="33.8185075" lon="10.0711873"><ele>56.0</ele><time>2026-04-25T15:17:29.84Z</time></trkpt><trkpt lat="33.8183058" lon="10.071138"><ele>56.0</ele><time>2026-04-25T15:17:30.84Z</time></trkpt><trkpt lat="33.818102" lon="10.0711002"><ele>56.0</ele><time>2026-04-25T15:17:31.854Z</time></trkpt><trkpt lat="33.8179001" lon="10.0710674"><ele>56.0</ele><time>2026-04-25T15:17:32.833Z</time></trkpt><trkpt lat="33.8177005" lon="10.0710443"><ele>56.0</ele><time>2026-04-25T15:17:33.845Z</time></trkpt><trkpt lat="33.8175018" lon="10.0710271"><ele>56.0</ele><time>2026-04-25T15:17:34.844Z</time></trkpt><trkpt lat="33.8173054" lon="10.0710126"><ele>56.0</ele><time>2026-04-25T15:17:35.848Z</time></trkpt><trkpt lat="33.8171079" lon="10.0709961"><ele>56.0</ele><time>2026-04-25T15:17:36.852Z</time></trkpt><trkpt lat="33.8169109" lon="10.0709764"><ele>56.333333333333336</ele><time>2026-04-25T15:17:37.852Z</time></trkpt><trkpt lat="33.8167148" lon="10.0709495"><ele>56.66666666666667</ele><time>2026-04-25T15:17:38.841Z</time></trkpt><trkpt lat="33.8165174" lon="10.0709199"><ele>57.0</ele><time>2026-04-25T15:17:39.854Z</time></trkpt><trkpt lat="33.8163232" lon="10.0708789"><ele>57.0</ele><time>2026-04-25T15:17:40.839Z</time></trkpt><trkpt lat="33.8161272" lon="10.070837"><ele>57.0</ele><time>2026-04-25T15:17:41.854Z</time></trkpt><trkpt lat="33.8159348" lon="10.0707907"><ele>57.0</ele><time>2026-04-25T15:17:42.854Z</time></trkpt><trkpt lat="33.8157406" lon="10.0707472"><ele>55.33333333333333</ele><time>2026-04-25T15:17:43.843Z</time></trkpt><trkpt lat="33.8155471" lon="10.0707015"><ele>53.666666666666664</ele><time>2026-04-25T15:17:44.852Z</time></trkpt><trkpt lat="33.8153573" lon="10.0706647"><ele>52.0</ele><time>2026-04-25T15:17:45.849Z</time></trkpt><trkpt lat="33.815167" lon="10.0706255"><ele>52.33333333333333</ele><time>2026-04-25T15:17:46.845Z</time></trkpt><trkpt lat="33.8149778" lon="10.0705974"><ele>52.66666666666667</ele><time>2026-04-25T15:17:47.854Z</time></trkpt><trkpt lat="33.8147848" lon="10.0705645"><ele>53.0</ele><time>2026-04-25T15:17:48.836Z</time></trkpt><trkpt lat="33.8145932" lon="10.0705383"><ele>53.0</ele><time>2026-04-25T15:17:49.843Z</time></trkpt><trkpt lat="33.8144006" lon="10.0705084"><ele>53.0</ele><time>2026-04-25T15:17:50.83Z</time></trkpt><trkpt lat="33.8142122" lon="10.0704807"><ele>53.0</ele><time>2026-04-25T15:17:51.846Z</time></trkpt><trkpt lat="33.814026" lon="10.0704499"><ele>51.333333333333336</ele><time>2026-04-25T15:17:52.835Z</time></trkpt><trkpt lat="33.8138382" lon="10.0704207"><ele>49.66666666666667</ele><time>2026-04-25T15:17:53.856Z</time></trkpt><trkpt lat="33.8136497" lon="10.0703954"><ele>48.0</ele><time>2026-04-25T15:17:54.846Z</time></trkpt><trkpt lat="33.8134605" lon="10.0703724"><ele>48.0</ele><time>2026-04-25T15:17:55.852Z</time></trkpt><trkpt lat="33.8132726" lon="10.0703456"><ele>48.0</ele><time>2026-04-25T15:17:56.851Z</time></trkpt><trkpt lat="33.8130861" lon="10.0703191"><ele>48.0</ele><time>2026-04-25T15:17:57.843Z</time></trkpt><trkpt lat="33.8129" lon="10.07029"><ele>48.0</ele><time>2026-04-25T15:17:58.839Z</time></trkpt><trkpt lat="33.812715" lon="10.0702578"><ele>48.0</ele><time>2026-04-25T15:17:59.851Z</time></trkpt><trkpt lat="33.8125302" lon="10.0702279"><ele>48.0</ele><time>2026-04-25T15:18:00.839Z</time></trkpt><trkpt lat="33.8123464" lon="10.0702004"><ele>48.33333333333333</ele><time>2026-04-25T15:18:01.848Z</time></trkpt><trkpt lat="33.8121617" lon="10.0701729"><ele>48.666666666666664</ele><time>2026-04-25T15:18:02.842Z</time></trkpt><trkpt lat="33.811977" lon="10.0701474"><ele>49.0</ele><time>2026-04-25T15:18:03.838Z</time></trkpt><trkpt lat="33.8117903" lon="10.0701196"><ele>49.0</ele><time>2026-04-25T15:18:04.849Z</time></trkpt><trkpt lat="33.8116065" lon="10.0700938"><ele>49.0</ele><time>2026-04-25T15:18:05.847Z</time></trkpt><trkpt lat="33.8114217" lon="10.0700642"><ele>49.0</ele><time>2026-04-25T15:18:06.843Z</time></trkpt><trkpt lat="33.8112373" lon="10.0700346"><ele>49.0</ele><time>2026-04-25T15:18:07.849Z</time></trkpt><trkpt lat="33.8110517" lon="10.070008"><ele>49.0</ele><time>2026-04-25T15:18:08.845Z</time></trkpt><trkpt lat="33.8108678" lon="10.0699802"><ele>49.0</ele><time>2026-04-25T15:18:09.845Z</time></trkpt><trkpt lat="33.8106813" lon="10.0699554"><ele>48.666666666666664</ele><time>2026-04-25T15:18:10.837Z</time></trkpt><trkpt lat="33.8104965" lon="10.0699282"><ele>48.33333333333333</ele><time>2026-04-25T15:18:11.85Z</time></trkpt><trkpt lat="33.8103121" lon="10.0699009"><ele>48.0</ele><time>2026-04-25T15:18:12.846Z</time></trkpt><trkpt lat="33.8101277" lon="10.0698687"><ele>47.666666666666664</ele><time>2026-04-25T15:18:13.848Z</time></trkpt><trkpt lat="33.8099485" lon="10.0698373"><ele>47.33333333333333</ele><time>2026-04-25T15:18:14.841Z</time></trkpt><trkpt lat="33.8097738" lon="10.069808"><ele>47.0</ele><time>2026-04-25T15:18:15.841Z</time></trkpt><trkpt lat="33.8096018" lon="10.0697838"><ele>47.0</ele><time>2026-04-25T15:18:16.84Z</time></trkpt><trkpt lat="33.8094302" lon="10.0697603"><ele>47.0</ele><time>2026-04-25T15:18:17.839Z</time></trkpt><trkpt lat="33.8092589" lon="10.0697315"><ele>47.0</ele><time>2026-04-25T15:18:18.844Z</time></trkpt><trkpt lat="33.8090902" lon="10.0697054"><ele>46.0</ele><time>2026-04-25T15:18:19.843Z</time></trkpt><trkpt lat="33.8089213" lon="10.0696812"><ele>45.0</ele><time>2026-04-25T15:18:20.831Z</time></trkpt><trkpt lat="33.8087605" lon="10.0696583"><ele>44.0</ele><time>2026-04-25T15:18:21.84Z</time></trkpt><trkpt lat="33.8086041" lon="10.0696384"><ele>44.0</ele><time>2026-04-25T15:18:22.853Z</time></trkpt><trkpt lat="33.8084533" lon="10.06962"><ele>44.0</ele><time>2026-04-25T15:18:23.848Z</time></trkpt><trkpt lat="33.8083125" lon="10.0696017"><ele>44.0</ele><time>2026-04-25T15:18:24.836Z</time></trkpt><trkpt lat="33.8081724" lon="10.0695807"><ele>44.0</ele><time>2026-04-25T15:18:25.822Z</time></trkpt><trkpt lat="33.8080324" lon="10.0695547"><ele>44.0</ele><time>2026-04-25T15:18:26.825Z</time></trkpt><trkpt lat="33.8078934" lon="10.069532"><ele>44.0</ele><time>2026-04-25T15:18:27.836Z</time></trkpt><trkpt lat="33.8077521" lon="10.0695124"><ele>44.0</ele><time>2026-04-25T15:18:28.833Z</time></trkpt><trkpt lat="33.8076097" lon="10.0694927"><ele>44.0</ele><time>2026-04-25T15:18:29.835Z</time></trkpt><trkpt lat="33.8074692" lon="10.0694739"><ele>44.5</ele><time>2026-04-25T15:18:30.826Z</time></trkpt><trkpt lat="33.8073282" lon="10.0694525"><ele>45.0</ele><time>2026-04-25T15:18:31.836Z</time></trkpt><trkpt lat="33.8071895" lon="10.0694291"><ele>45.5</ele><time>2026-04-25T15:18:32.831Z</time></trkpt><trkpt lat="33.8070507" lon="10.069399"><ele>46.0</ele><time>2026-04-25T15:18:33.833Z</time></trkpt><trkpt lat="33.8069117" lon="10.0693676"><ele>46.25</ele><time>2026-04-25T15:18:34.834Z</time></trkpt><trkpt lat="33.8067726" lon="10.0693343"><ele>46.5</ele><time>2026-04-25T15:18:35.83Z</time></trkpt><trkpt lat="33.8066342" lon="10.0692985"><ele>46.75</ele><time>2026-04-25T15:18:36.832Z</time></trkpt><trkpt lat="33.8064983" lon="10.0692607"><ele>47.0</ele><time>2026-04-25T15:18:37.832Z</time></trkpt><trkpt lat="33.8063637" lon="10.0692188"><ele>47.0</ele><time>2026-04-25T15:18:38.831Z</time></trkpt><trkpt lat="33.8062319" lon="10.0691762"><ele>47.0</ele><time>2026-04-25T15:18:39.852Z</time></trkpt><trkpt lat="33.806101" lon="10.0691311"><ele>47.0</ele><time>2026-04-25T15:18:40.848Z</time></trkpt><trkpt lat="33.8059743" lon="10.0690851"><ele>47.0</ele><time>2026-04-25T15:18:41.835Z</time></trkpt><trkpt lat="33.8058571" lon="10.0690411"><ele>47.6</ele><time>2026-04-25T15:18:42.864Z</time></trkpt><trkpt lat="33.8057558" lon="10.0690045"><ele>48.2</ele><time>2026-04-25T15:18:43.841Z</time></trkpt><trkpt lat="33.8056747" lon="10.0689739"><ele>48.8</ele><time>2026-04-25T15:18:44.837Z</time></trkpt><trkpt lat="33.8055987" lon="10.0689476"><ele>49.4</ele><time>2026-04-25T15:18:45.839Z</time></trkpt><trkpt lat="33.805507" lon="10.0689077"><ele>50.0</ele><time>2026-04-25T15:18:46.836Z</time></trkpt><trkpt lat="33.8054084" lon="10.0688639"><ele>50.0</ele><time>2026-04-25T15:18:47.847Z</time></trkpt><trkpt lat="33.8052985" lon="10.0688147"><ele>50.0</ele><time>2026-04-25T15:18:48.837Z</time></trkpt><trkpt lat="33.8051864" lon="10.068764"><ele>50.0</ele><time>2026-04-25T15:18:49.844Z</time></trkpt><trkpt lat="33.8050733" lon="10.0687134"><ele>50.0</ele><time>2026-04-25T15:18:50.828Z</time></trkpt><trkpt lat="33.8049549" lon="10.068662"><ele>50.25</ele><time>2026-04-25T15:18:51.84Z</time></trkpt><trkpt lat="33.8048282" lon="10.06861"><ele>50.5</ele><time>2026-04-25T15:18:52.837Z</time></trkpt><trkpt lat="33.8046956" lon="10.068555"><ele>50.75</ele><time>2026-04-25T15:18:53.851Z</time></trkpt><trkpt lat="33.8045576" lon="10.0684985"><ele>51.0</ele><time>2026-04-25T15:18:54.83Z</time></trkpt><trkpt lat="33.8044168" lon="10.0684388"><ele>50.75</ele><time>2026-04-25T15:18:55.845Z</time></trkpt><trkpt lat="33.8042781" lon="10.0683779"><ele>50.5</ele><time>2026-04-25T15:18:56.835Z</time></trkpt><trkpt lat="33.8041429" lon="10.068319"><ele>50.25</ele><time>2026-04-25T15:18:57.845Z</time></trkpt><trkpt lat="33.804009" lon="10.0682616"><ele>50.0</ele><time>2026-04-25T15:18:58.844Z</time></trkpt><trkpt lat="33.8038769" lon="10.0681996"><ele>50.25</ele><time>2026-04-25T15:18:59.842Z</time></trkpt><trkpt lat="33.8037469" lon="10.0681378"><ele>50.5</ele><time>2026-04-25T15:19:00.842Z</time></trkpt><trkpt lat="33.803619" lon="10.0680798"><ele>50.75</ele><time>2026-04-25T15:19:01.832Z</time></trkpt><trkpt lat="33.8034985" lon="10.0680213"><ele>51.0</ele><time>2026-04-25T15:19:02.839Z</time></trkpt><trkpt lat="33.8033886" lon="10.0679602"><ele>51.0</ele><time>2026-04-25T15:19:03.846Z</time></trkpt><trkpt lat="33.8032914" lon="10.0679004"><ele>51.0</ele><time>2026-04-25T15:19:04.84Z</time></trkpt><trkpt lat="33.803204" lon="10.0678348"><ele>51.0</ele><time>2026-04-25T15:19:05.839Z</time></trkpt><trkpt lat="33.8031292" lon="10.0677555"><ele>51.0</ele><time>2026-04-25T15:19:06.845Z</time></trkpt><trkpt lat="33.8030649" lon="10.0676769"><ele>51.0</ele><time>2026-04-25T15:19:07.856Z</time></trkpt><trkpt lat="33.8029975" lon="10.0676181"><ele>51.0</ele><time>2026-04-25T15:19:08.85Z</time></trkpt><trkpt lat="33.802922" lon="10.0675862"><ele>51.0</ele><time>2026-04-25T15:19:09.839Z</time></trkpt><trkpt lat="33.802842" lon="10.0675926"><ele>51.0</ele><time>2026-04-25T15:19:10.852Z</time></trkpt><trkpt lat="33.8027598" lon="10.0676269"><ele>51.0</ele><time>2026-04-25T15:19:11.795Z</time></trkpt><trkpt lat="33.8026667" lon="10.0676414"><ele>51.0</ele><time>2026-04-25T15:19:12.79Z</time></trkpt><trkpt lat="33.802568" lon="10.0676223"><ele>51.0</ele><time>2026-04-25T15:19:13.796Z</time></trkpt><trkpt lat="33.8024518" lon="10.0675661"><ele>51.33333333333333</ele><time>2026-04-25T15:19:14.786Z</time></trkpt><trkpt lat="33.8023242" lon="10.0675023"><ele>51.666666666666664</ele><time>2026-04-25T15:19:15.803Z</time></trkpt><trkpt lat="33.8021697" lon="10.0674494"><ele>52.0</ele><time>2026-04-25T15:19:16.799Z</time></trkpt><trkpt lat="33.8019949" lon="10.0673854"><ele>52.666666666666664</ele><time>2026-04-25T15:19:17.788Z</time></trkpt><trkpt lat="33.8017997" lon="10.0673074"><ele>53.33333333333333</ele><time>2026-04-25T15:19:18.786Z</time></trkpt><trkpt lat="33.801593" lon="10.0672159"><ele>54.0</ele><time>2026-04-25T15:19:19.798Z</time></trkpt><trkpt lat="33.8013839" lon="10.0671157"><ele>54.0</ele><time>2026-04-25T15:19:20.792Z</time></trkpt><trkpt lat="33.8011923" lon="10.0670162"><ele>54.0</ele><time>2026-04-25T15:19:21.796Z</time></trkpt><trkpt lat="33.8010036" lon="10.0669194"><ele>54.0</ele><time>2026-04-25T15:19:22.788Z</time></trkpt><trkpt lat="33.8008082" lon="10.0668212"><ele>53.66666666666667</ele><time>2026-04-25T15:19:23.801Z</time></trkpt><trkpt lat="33.8006189" lon="10.0667124"><ele>53.333333333333336</ele><time>2026-04-25T15:19:24.796Z</time></trkpt><trkpt lat="33.8004443" lon="10.0666035"><ele>53.0</ele><time>2026-04-25T15:19:25.801Z</time></trkpt><trkpt lat="33.8002661" lon="10.0664917"><ele>53.66666666666667</ele><time>2026-04-25T15:19:26.801Z</time></trkpt><trkpt lat="33.8000906" lon="10.0663808"><ele>54.33333333333333</ele><time>2026-04-25T15:19:27.796Z</time></trkpt><trkpt lat="33.7999059" lon="10.0662677"><ele>55.0</ele><time>2026-04-25T15:19:28.804Z</time></trkpt><trkpt lat="33.799726" lon="10.0661459"><ele>55.0</ele><time>2026-04-25T15:19:29.787Z</time></trkpt><trkpt lat="33.7995501" lon="10.066025"><ele>55.0</ele><time>2026-04-25T15:19:30.786Z</time></trkpt><trkpt lat="33.7993647" lon="10.0659007"><ele>55.0</ele><time>2026-04-25T15:19:31.788Z</time></trkpt><trkpt lat="33.7991832" lon="10.065781"><ele>55.0</ele><time>2026-04-25T15:19:32.782Z</time></trkpt><trkpt lat="33.7990056" lon="10.0656634"><ele>55.0</ele><time>2026-04-25T15:19:33.777Z</time></trkpt><trkpt lat="33.798827" lon="10.065549"><ele>55.0</ele><time>2026-04-25T15:19:34.801Z</time></trkpt><trkpt lat="33.7986515" lon="10.0654396"><ele>55.0</ele><time>2026-04-25T15:19:35.796Z</time></trkpt><trkpt lat="33.7984768" lon="10.0653237"><ele>55.0</ele><time>2026-04-25T15:19:36.801Z</time></trkpt><trkpt lat="33.7983023" lon="10.0652034"><ele>55.0</ele><time>2026-04-25T15:19:37.777Z</time></trkpt><trkpt lat="33.7981282" lon="10.0650848"><ele>55.0</ele><time>2026-04-25T15:19:38.779Z</time></trkpt><trkpt lat="33.7979539" lon="10.0649618"><ele>55.0</ele><time>2026-04-25T15:19:39.79Z</time></trkpt><trkpt lat="33.7977775" lon="10.064847"><ele>55.0</ele><time>2026-04-25T15:19:40.788Z</time></trkpt><trkpt lat="33.797602" lon="10.0647324"><ele>55.0</ele><time>2026-04-25T15:19:41.793Z</time></trkpt><trkpt lat="33.7974302" lon="10.0646185"><ele>55.0</ele><time>2026-04-25T15:19:42.796Z</time></trkpt><trkpt lat="33.7972656" lon="10.064514"><ele>55.0</ele><time>2026-04-25T15:19:43.793Z</time></trkpt><trkpt lat="33.7971098" lon="10.0644116"><ele>55.0</ele><time>2026-04-25T15:19:44.779Z</time></trkpt><trkpt lat="33.7969568" lon="10.0643085"><ele>55.0</ele><time>2026-04-25T15:19:45.797Z</time></trkpt><trkpt lat="33.7967996" lon="10.0642056"><ele>55.0</ele><time>2026-04-25T15:19:46.793Z</time></trkpt><trkpt lat="33.7966328" lon="10.0640955"><ele>56.33333333333333</ele><time>2026-04-25T15:19:47.797Z</time></trkpt><trkpt lat="33.7964715" lon="10.0639861"><ele>57.66666666666667</ele><time>2026-04-25T15:19:48.779Z</time></trkpt><trkpt lat="33.7963068" lon="10.0638795"><ele>59.0</ele><time>2026-04-25T15:19:49.801Z</time></trkpt><trkpt lat="33.796143" lon="10.0637678"><ele>59.333333333333336</ele><time>2026-04-25T15:19:50.792Z</time></trkpt><trkpt lat="33.7959837" lon="10.0636609"><ele>59.66666666666667</ele><time>2026-04-25T15:19:51.795Z</time></trkpt><trkpt lat="33.795825" lon="10.0635548"><ele>60.0</ele><time>2026-04-25T15:19:52.781Z</time></trkpt><trkpt lat="33.7956654" lon="10.063449"><ele>60.0</ele><time>2026-04-25T15:19:53.803Z</time></trkpt><trkpt lat="33.7955088" lon="10.0633447"><ele>60.0</ele><time>2026-04-25T15:19:54.785Z</time></trkpt><trkpt lat="33.7953535" lon="10.0632448"><ele>60.0</ele><time>2026-04-25T15:19:55.803Z</time></trkpt><trkpt lat="33.7951986" lon="10.0631423"><ele>59.33333333333333</ele><time>2026-04-25T15:19:56.785Z</time></trkpt><trkpt lat="33.7950407" lon="10.0630411"><ele>58.666666666666664</ele><time>2026-04-25T15:19:57.81Z</time></trkpt><trkpt lat="33.7948853" lon="10.0629332"><ele>58.0</ele><time>2026-04-25T15:19:58.796Z</time></trkpt><trkpt lat="33.7947343" lon="10.0628212"><ele>58.0</ele><time>2026-04-25T15:19:59.792Z</time></trkpt><trkpt lat="33.7945764" lon="10.0627095"><ele>58.0</ele><time>2026-04-25T15:20:00.794Z</time></trkpt><trkpt lat="33.7944151" lon="10.0625977"><ele>58.0</ele><time>2026-04-25T15:20:01.796Z</time></trkpt><trkpt lat="33.7942505" lon="10.0624835"><ele>58.666666666666664</ele><time>2026-04-25T15:20:02.783Z</time></trkpt><trkpt lat="33.7940809" lon="10.062369"><ele>59.33333333333333</ele><time>2026-04-25T15:20:03.782Z</time></trkpt><trkpt lat="33.7939115" lon="10.062252"><ele>60.0</ele><time>2026-04-25T15:20:04.795Z</time></trkpt><trkpt lat="33.7937416" lon="10.0621374"><ele>60.0</ele><time>2026-04-25T15:20:05.792Z</time></trkpt><trkpt lat="33.7935785" lon="10.0620272"><ele>60.0</ele><time>2026-04-25T15:20:06.797Z</time></trkpt><trkpt lat="33.7934091" lon="10.0619156"><ele>60.0</ele><time>2026-04-25T15:20:07.796Z</time></trkpt><trkpt lat="33.7932428" lon="10.0618056"><ele>60.66666666666667</ele><time>2026-04-25T15:20:08.789Z</time></trkpt><trkpt lat="33.7930798" lon="10.0616993"><ele>61.333333333333336</ele><time>2026-04-25T15:20:09.797Z</time></trkpt><trkpt lat="33.7929211" lon="10.0615899"><ele>62.0</ele><time>2026-04-25T15:20:10.789Z</time></trkpt><trkpt lat="33.7927598" lon="10.0614828"><ele>61.0</ele><time>2026-04-25T15:20:11.779Z</time></trkpt><trkpt lat="33.7925949" lon="10.0613732"><ele>60.0</ele><time>2026-04-25T15:20:12.791Z</time></trkpt><trkpt lat="33.7924316" lon="10.0612596"><ele>59.0</ele><time>2026-04-25T15:20:13.794Z</time></trkpt><trkpt lat="33.7922669" lon="10.0611494"><ele>59.0</ele><time>2026-04-25T15:20:14.799Z</time></trkpt><trkpt lat="33.7921053" lon="10.0610361"><ele>59.0</ele><time>2026-04-25T15:20:15.793Z</time></trkpt><trkpt lat="33.7919411" lon="10.0609177"><ele>59.0</ele><time>2026-04-25T15:20:16.79Z</time></trkpt><trkpt lat="33.7917725" lon="10.0608008"><ele>58.66666666666667</ele><time>2026-04-25T15:20:17.787Z</time></trkpt><trkpt lat="33.7916046" lon="10.0606891"><ele>58.33333333333333</ele><time>2026-04-25T15:20:18.791Z</time></trkpt><trkpt lat="33.791434" lon="10.0605727"><ele>58.0</ele><time>2026-04-25T15:20:19.802Z</time></trkpt><trkpt lat="33.7912682" lon="10.0604592"><ele>58.0</ele><time>2026-04-25T15:20:20.799Z</time></trkpt><trkpt lat="33.7911061" lon="10.0603514"><ele>58.0</ele><time>2026-04-25T15:20:21.787Z</time></trkpt><trkpt lat="33.7909409" lon="10.0602416"><ele>58.0</ele><time>2026-04-25T15:20:22.794Z</time></trkpt><trkpt lat="33.7907739" lon="10.0601339"><ele>57.666666666666664</ele><time>2026-04-25T15:20:23.799Z</time></trkpt><trkpt lat="33.7906063" lon="10.060022"><ele>57.33333333333333</ele><time>2026-04-25T15:20:24.784Z</time></trkpt><trkpt lat="33.7904425" lon="10.0599055"><ele>57.0</ele><time>2026-04-25T15:20:25.796Z</time></trkpt><trkpt lat="33.7902782" lon="10.0597908"><ele>57.33333333333333</ele><time>2026-04-25T15:20:26.795Z</time></trkpt><trkpt lat="33.7901161" lon="10.0596702"><ele>57.666666666666664</ele><time>2026-04-25T15:20:27.806Z</time></trkpt><trkpt lat="33.7899562" lon="10.0595594"><ele>58.0</ele><time>2026-04-25T15:20:28.792Z</time></trkpt><trkpt lat="33.7897921" lon="10.0594458"><ele>58.0</ele><time>2026-04-25T15:20:29.787Z</time></trkpt><trkpt lat="33.789632" lon="10.0593415"><ele>58.0</ele><time>2026-04-25T15:20:30.795Z</time></trkpt><trkpt lat="33.7894677" lon="10.059239"><ele>58.0</ele><time>2026-04-25T15:20:31.795Z</time></trkpt><trkpt lat="33.7893057" lon="10.0591373"><ele>58.0</ele><time>2026-04-25T15:20:32.779Z</time></trkpt><trkpt lat="33.7891428" lon="10.0590333"><ele>58.0</ele><time>2026-04-25T15:20:33.809Z</time></trkpt><trkpt lat="33.7889835" lon="10.0589247"><ele>58.0</ele><time>2026-04-25T15:20:34.797Z</time></trkpt><trkpt lat="33.7888189" lon="10.0588196"><ele>58.0</ele><time>2026-04-25T15:20:35.789Z</time></trkpt><trkpt lat="33.7886517" lon="10.0587157"><ele>58.0</ele><time>2026-04-25T15:20:36.803Z</time></trkpt><trkpt lat="33.788485" lon="10.0586125"><ele>58.0</ele><time>2026-04-25T15:20:37.774Z</time></trkpt><trkpt lat="33.7883213" lon="10.0585106"><ele>57.33333333333333</ele><time>2026-04-25T15:20:38.798Z</time></trkpt><trkpt lat="33.7881578" lon="10.0584027"><ele>56.66666666666667</ele><time>2026-04-25T15:20:39.791Z</time></trkpt><trkpt lat="33.7879914" lon="10.0582926"><ele>56.0</ele><time>2026-04-25T15:20:40.796Z</time></trkpt><trkpt lat="33.7878208" lon="10.0581819"><ele>57.0</ele><time>2026-04-25T15:20:41.791Z</time></trkpt><trkpt lat="33.7876536" lon="10.0580756"><ele>58.0</ele><time>2026-04-25T15:20:42.793Z</time></trkpt><trkpt lat="33.7874915" lon="10.0579686"><ele>59.0</ele><time>2026-04-25T15:20:43.788Z</time></trkpt><trkpt lat="33.7873298" lon="10.0578596"><ele>59.0</ele><time>2026-04-25T15:20:44.791Z</time></trkpt><trkpt lat="33.7871659" lon="10.0577447"><ele>59.0</ele><time>2026-04-25T15:20:45.779Z</time></trkpt><trkpt lat="33.7870066" lon="10.0576321"><ele>59.0</ele><time>2026-04-25T15:20:46.788Z</time></trkpt><trkpt lat="33.7868466" lon="10.0575131"><ele>59.333333333333336</ele><time>2026-04-25T15:20:47.795Z</time></trkpt><trkpt lat="33.7866894" lon="10.05739"><ele>59.66666666666667</ele><time>2026-04-25T15:20:48.791Z</time></trkpt><trkpt lat="33.7865288" lon="10.0572661"><ele>60.0</ele><time>2026-04-25T15:20:49.782Z</time></trkpt><trkpt lat="33.7863741" lon="10.0571337"><ele>60.0</ele><time>2026-04-25T15:20:50.785Z</time></trkpt><trkpt lat="33.7862229" lon="10.0570013"><ele>60.0</ele><time>2026-04-25T15:20:51.79Z</time></trkpt><trkpt lat="33.7860667" lon="10.0568678"><ele>60.0</ele><time>2026-04-25T15:20:52.779Z</time></trkpt><trkpt lat="33.7859151" lon="10.0567294"><ele>61.0</ele><time>2026-04-25T15:20:53.778Z</time></trkpt><trkpt lat="33.7857651" lon="10.0565928"><ele>62.0</ele><time>2026-04-25T15:20:54.794Z</time></trkpt><trkpt lat="33.7856176" lon="10.0564536"><ele>63.0</ele><time>2026-04-25T15:20:55.795Z</time></trkpt><trkpt lat="33.7854659" lon="10.0563208"><ele>63.0</ele><time>2026-04-25T15:20:56.783Z</time></trkpt><trkpt lat="33.7853169" lon="10.0561874"><ele>63.0</ele><time>2026-04-25T15:20:57.787Z</time></trkpt><trkpt lat="33.7851628" lon="10.0560474"><ele>63.0</ele><time>2026-04-25T15:20:58.8Z</time></trkpt><trkpt lat="33.7850131" lon="10.0559146"><ele>63.66666666666667</ele><time>2026-04-25T15:20:59.778Z</time></trkpt><trkpt lat="33.784862" lon="10.0557805"><ele>64.33333333333334</ele><time>2026-04-25T15:21:00.789Z</time></trkpt><trkpt lat="33.784716" lon="10.05565"><ele>65.0</ele><time>2026-04-25T15:21:01.781Z</time></trkpt><trkpt lat="33.784572" lon="10.0555143"><ele>65.0</ele><time>2026-04-25T15:21:02.778Z</time></trkpt><trkpt lat="33.7844298" lon="10.055385"><ele>65.0</ele><time>2026-04-25T15:21:03.785Z</time></trkpt><trkpt lat="33.7842878" lon="10.0552502"><ele>65.0</ele><time>2026-04-25T15:21:04.794Z</time></trkpt><trkpt lat="33.7841516" lon="10.0551124"><ele>65.0</ele><time>2026-04-25T15:21:05.774Z</time></trkpt><trkpt lat="33.7840216" lon="10.0549732"><ele>65.0</ele><time>2026-04-25T15:21:06.787Z</time></trkpt><trkpt lat="33.7838962" lon="10.0548294"><ele>65.0</ele><time>2026-04-25T15:21:07.784Z</time></trkpt><trkpt lat="33.7837802" lon="10.0546873"><ele>65.0</ele><time>2026-04-25T15:21:08.776Z</time></trkpt><trkpt lat="33.7836647" lon="10.0545373"><ele>65.0</ele><time>2026-04-25T15:21:09.784Z</time></trkpt><trkpt lat="33.7835575" lon="10.0543788"><ele>65.0</ele><time>2026-04-25T15:21:10.786Z</time></trkpt><trkpt lat="33.783453" lon="10.0542201"><ele>65.33333333333334</ele><time>2026-04-25T15:21:11.785Z</time></trkpt><trkpt lat="33.7833469" lon="10.0540652"><ele>65.66666666666667</ele><time>2026-04-25T15:21:12.784Z</time></trkpt><trkpt lat="33.7832415" lon="10.0539086"><ele>66.0</ele><time>2026-04-25T15:21:13.794Z</time></trkpt><trkpt lat="33.7831327" lon="10.053761"><ele>66.0</ele><time>2026-04-25T15:21:14.766Z</time></trkpt><trkpt lat="33.7830218" lon="10.0536178"><ele>66.0</ele><time>2026-04-25T15:21:15.78Z</time></trkpt><trkpt lat="33.7828973" lon="10.0534697"><ele>66.0</ele><time>2026-04-25T15:21:16.779Z</time></trkpt><trkpt lat="33.7827687" lon="10.0533288"><ele>66.33333333333333</ele><time>2026-04-25T15:21:17.785Z</time></trkpt><trkpt lat="33.782634" lon="10.0531886"><ele>66.66666666666666</ele><time>2026-04-25T15:21:18.784Z</time></trkpt><trkpt lat="33.7824949" lon="10.0530565"><ele>67.0</ele><time>2026-04-25T15:21:19.783Z</time></trkpt><trkpt lat="33.7823435" lon="10.0529248"><ele>67.0</ele><time>2026-04-25T15:21:20.782Z</time></trkpt><trkpt lat="33.7821854" lon="10.052798"><ele>67.0</ele><time>2026-04-25T15:21:21.794Z</time></trkpt><trkpt lat="33.7820234" lon="10.0526792"><ele>67.0</ele><time>2026-04-25T15:21:22.775Z</time></trkpt><trkpt lat="33.7818586" lon="10.0525627"><ele>67.33333333333333</ele><time>2026-04-25T15:21:23.784Z</time></trkpt><trkpt lat="33.7816887" lon="10.0524425"><ele>67.66666666666667</ele><time>2026-04-25T15:21:24.795Z</time></trkpt><trkpt lat="33.7815195" lon="10.0523237"><ele>68.0</ele><time>2026-04-25T15:21:25.816Z</time></trkpt><trkpt lat="33.7813507" lon="10.0522053"><ele>68.0</ele><time>2026-04-25T15:21:26.793Z</time></trkpt><trkpt lat="33.7811857" lon="10.0520887"><ele>68.0</ele><time>2026-04-25T15:21:27.785Z</time></trkpt><trkpt lat="33.7810152" lon="10.0519659"><ele>68.0</ele><time>2026-04-25T15:21:28.777Z</time></trkpt><trkpt lat="33.7808492" lon="10.0518446"><ele>67.66666666666667</ele><time>2026-04-25T15:21:29.796Z</time></trkpt><trkpt lat="33.7806789" lon="10.0517287"><ele>67.33333333333333</ele><time>2026-04-25T15:21:30.767Z</time></trkpt><trkpt lat="33.7805073" lon="10.0516132"><ele>67.0</ele><time>2026-04-25T15:21:31.791Z</time></trkpt><trkpt lat="33.7803383" lon="10.0515001"><ele>66.66666666666666</ele><time>2026-04-25T15:21:32.799Z</time></trkpt><trkpt lat="33.7801675" lon="10.0513837"><ele>66.33333333333333</ele><time>2026-04-25T15:21:33.79Z</time></trkpt><trkpt lat="33.7799947" lon="10.0512676"><ele>66.0</ele><time>2026-04-25T15:21:34.786Z</time></trkpt><trkpt lat="33.7798227" lon="10.0511512"><ele>66.0</ele><time>2026-04-25T15:21:35.797Z</time></trkpt><trkpt lat="33.7796499" lon="10.0510314"><ele>66.0</ele><time>2026-04-25T15:21:36.794Z</time></trkpt><trkpt lat="33.779482" lon="10.0509095"><ele>66.0</ele><time>2026-04-25T15:21:37.785Z</time></trkpt><trkpt lat="33.7793123" lon="10.0507922"><ele>66.66666666666667</ele><time>2026-04-25T15:21:38.786Z</time></trkpt><trkpt lat="33.779143" lon="10.0506761"><ele>67.33333333333334</ele><time>2026-04-25T15:21:39.785Z</time></trkpt><trkpt lat="33.778973" lon="10.0505607"><ele>68.0</ele><time>2026-04-25T15:21:40.795Z</time></trkpt><trkpt lat="33.7788037" lon="10.050444"><ele>68.0</ele><time>2026-04-25T15:21:41.788Z</time></trkpt><trkpt lat="33.7786342" lon="10.0503249"><ele>68.0</ele><time>2026-04-25T15:21:42.79Z</time></trkpt><trkpt lat="33.7784636" lon="10.0502093"><ele>68.0</ele><time>2026-04-25T15:21:43.785Z</time></trkpt><trkpt lat="33.7782945" lon="10.0500923"><ele>68.0</ele><time>2026-04-25T15:21:44.789Z</time></trkpt><trkpt lat="33.7781209" lon="10.0499724"><ele>68.0</ele><time>2026-04-25T15:21:45.785Z</time></trkpt><trkpt lat="33.7779497" lon="10.0498502"><ele>68.0</ele><time>2026-04-25T15:21:46.78Z</time></trkpt><trkpt lat="33.7777801" lon="10.0497319"><ele>67.66666666666667</ele><time>2026-04-25T15:21:47.791Z</time></trkpt><trkpt lat="33.7776123" lon="10.0496107"><ele>67.33333333333333</ele><time>2026-04-25T15:21:48.778Z</time></trkpt><trkpt lat="33.7774424" lon="10.0494926"><ele>67.0</ele><time>2026-04-25T15:21:49.783Z</time></trkpt><trkpt lat="33.7772704" lon="10.0493764"><ele>67.0</ele><time>2026-04-25T15:21:50.782Z</time></trkpt><trkpt lat="33.7770987" lon="10.0492579"><ele>67.0</ele><time>2026-04-25T15:21:51.783Z</time></trkpt><trkpt lat="33.776926" lon="10.0491411"><ele>67.0</ele><time>2026-04-25T15:21:52.791Z</time></trkpt><trkpt lat="33.7767542" lon="10.0490241"><ele>67.33333333333333</ele><time>2026-04-25T15:21:53.796Z</time></trkpt><trkpt lat="33.7765866" lon="10.0489"><ele>67.66666666666667</ele><time>2026-04-25T15:21:54.793Z</time></trkpt><trkpt lat="33.7764159" lon="10.0487709"><ele>68.0</ele><time>2026-04-25T15:21:55.789Z</time></trkpt><trkpt lat="33.7762489" lon="10.0486456"><ele>68.0</ele><time>2026-04-25T15:21:56.795Z</time></trkpt><trkpt lat="33.7760879" lon="10.048516"><ele>68.0</ele><time>2026-04-25T15:21:57.782Z</time></trkpt><trkpt lat="33.7759279" lon="10.0483786"><ele>68.0</ele><time>2026-04-25T15:21:58.776Z</time></trkpt><trkpt lat="33.7757692" lon="10.0482429"><ele>68.33333333333334</ele><time>2026-04-25T15:21:59.776Z</time></trkpt><trkpt lat="33.7756109" lon="10.0481077"><ele>68.66666666666667</ele><time>2026-04-25T15:22:00.783Z</time></trkpt><trkpt lat="33.7754529" lon="10.0479748"><ele>69.0</ele><time>2026-04-25T15:22:01.787Z</time></trkpt><trkpt lat="33.7752964" lon="10.0478464"><ele>68.66666666666667</ele><time>2026-04-25T15:22:02.792Z</time></trkpt><trkpt lat="33.7751519" lon="10.0477256"><ele>68.33333333333334</ele><time>2026-04-25T15:22:03.784Z</time></trkpt><trkpt lat="33.7750175" lon="10.0476061"><ele>68.0</ele><time>2026-04-25T15:22:04.791Z</time></trkpt><trkpt lat="33.7748964" lon="10.0474963"><ele>68.2</ele><time>2026-04-25T15:22:05.784Z</time></trkpt><trkpt lat="33.774786" lon="10.0473997"><ele>68.4</ele><time>2026-04-25T15:22:06.772Z</time></trkpt><trkpt lat="33.774693" lon="10.0473087"><ele>68.60000000000001</ele><time>2026-04-25T15:22:07.795Z</time></trkpt><trkpt lat="33.774613" lon="10.047234"><ele>68.8</ele><time>2026-04-25T15:22:08.791Z</time></trkpt><trkpt lat="33.7745497" lon="10.047175"><ele>69.0</ele><time>2026-04-25T15:22:09.796Z</time></trkpt><trkpt lat="33.7744954" lon="10.0471262"><ele>69.0</ele><time>2026-04-25T15:22:10.796Z</time></trkpt><trkpt lat="33.7744265" lon="10.0470436"><ele>69.0</ele><time>2026-04-25T15:22:12.792Z</time></trkpt><trkpt lat="33.7743774" lon="10.0469799"><ele>69.0</ele><time>2026-04-25T15:22:14.793Z</time></trkpt><trkpt lat="33.7743088" lon="10.0469034"><ele>69.0</ele><time>2026-04-25T15:22:17.782Z</time></trkpt><trkpt lat="33.7742501" lon="10.0468454"><ele>69.0</ele><time>2026-04-25T15:22:20.805Z</time></trkpt><trkpt lat="33.7741233" lon="10.0467993"><ele>68.0</ele><time>2026-04-25T15:34:28.756Z</time></trkpt><trkpt lat="33.7738171" lon="10.0465522"><ele>67.0</ele><time>2026-04-25T15:34:33.769Z</time></trkpt><trkpt lat="33.7737387" lon="10.0464875"><ele>67.0</ele><time>2026-04-25T15:34:34.766Z</time></trkpt><trkpt lat="33.7736563" lon="10.0464148"><ele>67.0</ele><time>2026-04-25T15:34:35.784Z</time></trkpt><trkpt lat="33.7735743" lon="10.0463486"><ele>67.0</ele><time>2026-04-25T15:34:36.773Z</time></trkpt><trkpt lat="33.7734897" lon="10.0462731"><ele>67.0</ele><time>2026-04-25T15:34:37.754Z</time></trkpt><trkpt lat="33.7734071" lon="10.0462029"><ele>67.0</ele><time>2026-04-25T15:34:38.758Z</time></trkpt><trkpt lat="33.7733156" lon="10.046129"><ele>67.5</ele><time>2026-04-25T15:34:39.764Z</time></trkpt><trkpt lat="33.7732192" lon="10.046057"><ele>68.0</ele><time>2026-04-25T15:34:40.758Z</time></trkpt><trkpt lat="33.7731229" lon="10.0459751"><ele>68.5</ele><time>2026-04-25T15:34:41.775Z</time></trkpt><trkpt lat="33.7730275" lon="10.0458917"><ele>69.0</ele><time>2026-04-25T15:34:42.754Z</time></trkpt><trkpt lat="33.7729236" lon="10.0458047"><ele>69.25</ele><time>2026-04-25T15:34:43.757Z</time></trkpt><trkpt lat="33.7728101" lon="10.045727"><ele>69.5</ele><time>2026-04-25T15:34:44.758Z</time></trkpt><trkpt lat="33.7726963" lon="10.0456398"><ele>69.75</ele><time>2026-04-25T15:34:45.769Z</time></trkpt><trkpt lat="33.7725869" lon="10.0455519"><ele>70.0</ele><time>2026-04-25T15:34:46.794Z</time></trkpt><trkpt lat="33.7719291" lon="10.0451116"><ele>70.66666666666666</ele><time>2026-04-25T15:34:51.772Z</time></trkpt><trkpt lat="33.7717817" lon="10.0450116"><ele>71.33333333333333</ele><time>2026-04-25T15:34:52.759Z</time></trkpt><trkpt lat="33.7716321" lon="10.0449121"><ele>72.0</ele><time>2026-04-25T15:34:53.757Z</time></trkpt><trkpt lat="33.7714787" lon="10.0448115"><ele>72.0</ele><time>2026-04-25T15:34:54.808Z</time></trkpt><trkpt lat="33.771327" lon="10.0447155"><ele>72.0</ele><time>2026-04-25T15:34:55.774Z</time></trkpt><trkpt lat="33.7711723" lon="10.0446206"><ele>72.0</ele><time>2026-04-25T15:34:56.762Z</time></trkpt><trkpt lat="33.7710198" lon="10.0445222"><ele>71.0</ele><time>2026-04-25T15:34:57.762Z</time></trkpt><trkpt lat="33.7708602" lon="10.0444241"><ele>70.0</ele><time>2026-04-25T15:34:58.773Z</time></trkpt><trkpt lat="33.7707018" lon="10.0443175"><ele>69.0</ele><time>2026-04-25T15:34:59.827Z</time></trkpt><trkpt lat="33.7705435" lon="10.0442165"><ele>69.66666666666667</ele><time>2026-04-25T15:35:00.783Z</time></trkpt><trkpt lat="33.77038" lon="10.0441135"><ele>70.33333333333334</ele><time>2026-04-25T15:35:01.784Z</time></trkpt><trkpt lat="33.7702179" lon="10.0440063"><ele>71.0</ele><time>2026-04-25T15:35:02.768Z</time></trkpt><trkpt lat="33.7700593" lon="10.0439047"><ele>69.0</ele><time>2026-04-25T15:35:03.769Z</time></trkpt><trkpt lat="33.7699001" lon="10.0438081"><ele>67.0</ele><time>2026-04-25T15:35:04.766Z</time></trkpt><trkpt lat="33.7697457" lon="10.0437146"><ele>65.0</ele><time>2026-04-25T15:35:05.784Z</time></trkpt><trkpt lat="33.7695885" lon="10.0436089"><ele>65.0</ele><time>2026-04-25T15:35:06.777Z</time></trkpt><trkpt lat="33.7694294" lon="10.0435088"><ele>65.0</ele><time>2026-04-25T15:35:07.772Z</time></trkpt><trkpt lat="33.7692734" lon="10.0434064"><ele>65.0</ele><time>2026-04-25T15:35:08.781Z</time></trkpt><trkpt lat="33.7691202" lon="10.0433043"><ele>65.33333333333334</ele><time>2026-04-25T15:35:09.78Z</time></trkpt><trkpt lat="33.7689683" lon="10.0432041"><ele>65.66666666666667</ele><time>2026-04-25T15:35:10.789Z</time></trkpt><trkpt lat="33.768819" lon="10.0431062"><ele>66.0</ele><time>2026-04-25T15:35:11.773Z</time></trkpt><trkpt lat="33.7686704" lon="10.0430075"><ele>67.66666666666667</ele><time>2026-04-25T15:35:12.775Z</time></trkpt><trkpt lat="33.7685175" lon="10.0429129"><ele>69.33333333333334</ele><time>2026-04-25T15:35:13.765Z</time></trkpt><trkpt lat="33.7683616" lon="10.0428117"><ele>71.0</ele><time>2026-04-25T15:35:14.784Z</time></trkpt><trkpt lat="33.7682106" lon="10.0427068"><ele>71.0</ele><time>2026-04-25T15:35:15.785Z</time></trkpt><trkpt lat="33.7680568" lon="10.0426003"><ele>71.0</ele><time>2026-04-25T15:35:16.784Z</time></trkpt><trkpt lat="33.767904" lon="10.0424997"><ele>71.0</ele><time>2026-04-25T15:35:17.791Z</time></trkpt><trkpt lat="33.7677514" lon="10.0423952"><ele>73.0</ele><time>2026-04-25T15:35:18.802Z</time></trkpt><trkpt lat="33.7676023" lon="10.042295"><ele>75.0</ele><time>2026-04-25T15:35:19.79Z</time></trkpt><trkpt lat="33.7674543" lon="10.0421818"><ele>77.0</ele><time>2026-04-25T15:35:20.801Z</time></trkpt><trkpt lat="33.7673149" lon="10.0420645"><ele>77.0</ele><time>2026-04-25T15:35:21.782Z</time></trkpt><trkpt lat="33.7671789" lon="10.0419451"><ele>77.0</ele><time>2026-04-25T15:35:22.767Z</time></trkpt><trkpt lat="33.7670537" lon="10.0418196"><ele>77.0</ele><time>2026-04-25T15:35:23.813Z</time></trkpt><trkpt lat="33.7669404" lon="10.0416951"><ele>76.8</ele><time>2026-04-25T15:35:24.769Z</time></trkpt><trkpt lat="33.7668367" lon="10.041577"><ele>76.6</ele><time>2026-04-25T15:35:25.793Z</time></trkpt><trkpt lat="33.7667528" lon="10.0414751"><ele>76.39999999999999</ele><time>2026-04-25T15:35:26.779Z</time></trkpt><trkpt lat="33.7666818" lon="10.0413906"><ele>76.2</ele><time>2026-04-25T15:35:27.775Z</time></trkpt><trkpt lat="33.7666302" lon="10.0413222"><ele>76.0</ele><time>2026-04-25T15:35:28.787Z</time></trkpt><trkpt lat="33.7665923" lon="10.0412613"><ele>76.0</ele><time>2026-04-25T15:35:29.776Z</time></trkpt><trkpt lat="33.7665432" lon="10.0411918"><ele>76.0</ele><time>2026-04-25T15:35:31.791Z</time></trkpt><trkpt lat="33.7664632" lon="10.0411157"><ele>76.0</ele><time>2026-04-25T15:36:25.771Z</time></trkpt><trkpt lat="33.7664039" lon="10.0410432"><ele>76.0</ele><time>2026-04-25T15:36:26.777Z</time></trkpt><trkpt lat="33.7663311" lon="10.0409507"><ele>76.0</ele><time>2026-04-25T15:36:27.804Z</time></trkpt><trkpt lat="33.7662355" lon="10.0408457"><ele>75.5</ele><time>2026-04-25T15:36:28.787Z</time></trkpt><trkpt lat="33.7661385" lon="10.0407359"><ele>75.0</ele><time>2026-04-25T15:36:29.796Z</time></trkpt><trkpt lat="33.7660248" lon="10.04061"><ele>74.5</ele><time>2026-04-25T15:36:30.791Z</time></trkpt><trkpt lat="33.7659081" lon="10.0404843"><ele>74.0</ele><time>2026-04-25T15:36:31.802Z</time></trkpt><trkpt lat="33.7657831" lon="10.0403416"><ele>74.33333333333334</ele><time>2026-04-25T15:36:32.773Z</time></trkpt><trkpt lat="33.7656543" lon="10.0401913"><ele>74.66666666666667</ele><time>2026-04-25T15:36:33.788Z</time></trkpt><trkpt lat="33.7655237" lon="10.0400444"><ele>75.0</ele><time>2026-04-25T15:36:34.79Z</time></trkpt><trkpt lat="33.7653918" lon="10.0398929"><ele>75.0</ele><time>2026-04-25T15:36:35.796Z</time></trkpt><trkpt lat="33.7652593" lon="10.0397308"><ele>75.0</ele><time>2026-04-25T15:36:36.783Z</time></trkpt><trkpt lat="33.7651234" lon="10.0395666"><ele>75.0</ele><time>2026-04-25T15:36:37.764Z</time></trkpt><trkpt lat="33.7649964" lon="10.0393932"><ele>74.66666666666667</ele><time>2026-04-25T15:36:38.778Z</time></trkpt><trkpt lat="33.7648715" lon="10.03921"><ele>74.33333333333334</ele><time>2026-04-25T15:36:39.799Z</time></trkpt><trkpt lat="33.7647462" lon="10.0390197"><ele>74.0</ele><time>2026-04-25T15:36:40.799Z</time></trkpt><trkpt lat="33.7646265" lon="10.0388203"><ele>74.0</ele><time>2026-04-25T15:36:41.774Z</time></trkpt><trkpt lat="33.7645122" lon="10.0386235"><ele>74.0</ele><time>2026-04-25T15:36:42.78Z</time></trkpt><trkpt lat="33.7643962" lon="10.0384231"><ele>74.0</ele><time>2026-04-25T15:36:43.783Z</time></trkpt><trkpt lat="33.7642775" lon="10.0382145"><ele>75.66666666666667</ele><time>2026-04-25T15:36:44.78Z</time></trkpt><trkpt lat="33.7641595" lon="10.0380141"><ele>77.33333333333333</ele><time>2026-04-25T15:36:45.801Z</time></trkpt><trkpt lat="33.7640455" lon="10.0378155"><ele>79.0</ele><time>2026-04-25T15:36:46.763Z</time></trkpt><trkpt lat="33.7639339" lon="10.0376238"><ele>77.33333333333333</ele><time>2026-04-25T15:36:47.785Z</time></trkpt><trkpt lat="33.7638178" lon="10.0374347"><ele>75.66666666666667</ele><time>2026-04-25T15:36:48.79Z</time></trkpt><trkpt lat="33.7637031" lon="10.0372376"><ele>74.0</ele><time>2026-04-25T15:36:49.79Z</time></trkpt><trkpt lat="33.7635906" lon="10.03704"><ele>76.0</ele><time>2026-04-25T15:36:50.796Z</time></trkpt><trkpt lat="33.7634782" lon="10.0368414"><ele>78.0</ele><time>2026-04-25T15:36:51.777Z</time></trkpt><trkpt lat="33.7633584" lon="10.0366424"><ele>80.0</ele><time>2026-04-25T15:36:52.781Z</time></trkpt><trkpt lat="33.7632449" lon="10.0364427"><ele>80.0</ele><time>2026-04-25T15:36:53.798Z</time></trkpt><trkpt lat="33.7631286" lon="10.036235"><ele>80.0</ele><time>2026-04-25T15:36:54.796Z</time></trkpt><trkpt lat="33.7630107" lon="10.0360308"><ele>80.0</ele><time>2026-04-25T15:36:55.794Z</time></trkpt><trkpt lat="33.7628929" lon="10.0358268"><ele>81.33333333333334</ele><time>2026-04-25T15:36:56.782Z</time></trkpt><trkpt lat="33.7627808" lon="10.0356304"><ele>82.66666666666667</ele><time>2026-04-25T15:36:57.781Z</time></trkpt><trkpt lat="33.7626631" lon="10.0354299"><ele>84.0</ele><time>2026-04-25T15:36:58.787Z</time></trkpt><trkpt lat="33.7625465" lon="10.0352291"><ele>84.0</ele><time>2026-04-25T15:36:59.761Z</time></trkpt><trkpt lat="33.7624255" lon="10.0350273"><ele>84.0</ele><time>2026-04-25T15:37:00.768Z</time></trkpt><trkpt lat="33.7623055" lon="10.034821"><ele>84.0</ele><time>2026-04-25T15:37:01.793Z</time></trkpt><trkpt lat="33.7621855" lon="10.0346193"><ele>84.0</ele><time>2026-04-25T15:37:02.787Z</time></trkpt><trkpt lat="33.7620685" lon="10.0344221"><ele>84.0</ele><time>2026-04-25T15:37:03.792Z</time></trkpt><trkpt lat="33.7619531" lon="10.0342287"><ele>84.0</ele><time>2026-04-25T15:37:04.797Z</time></trkpt><trkpt lat="33.7618354" lon="10.0340324"><ele>84.0</ele><time>2026-04-25T15:37:05.78Z</time></trkpt><trkpt lat="33.7617189" lon="10.0338351"><ele>84.0</ele><time>2026-04-25T15:37:06.769Z</time></trkpt><trkpt lat="33.7616" lon="10.0336393"><ele>84.0</ele><time>2026-04-25T15:37:07.771Z</time></trkpt><trkpt lat="33.7614759" lon="10.0334325"><ele>84.66666666666667</ele><time>2026-04-25T15:37:08.787Z</time></trkpt><trkpt lat="33.761354" lon="10.033227"><ele>85.33333333333334</ele><time>2026-04-25T15:37:09.794Z</time></trkpt><trkpt lat="33.7612369" lon="10.0330177"><ele>86.0</ele><time>2026-04-25T15:37:10.782Z</time></trkpt><trkpt lat="33.7611125" lon="10.0328115"><ele>86.33333333333334</ele><time>2026-04-25T15:37:11.792Z</time></trkpt><trkpt lat="33.7609923" lon="10.0325998"><ele>86.66666666666667</ele><time>2026-04-25T15:37:12.777Z</time></trkpt><trkpt lat="33.7608706" lon="10.0323929"><ele>87.0</ele><time>2026-04-25T15:37:13.792Z</time></trkpt><trkpt lat="33.760745" lon="10.0321772"><ele>87.0</ele><time>2026-04-25T15:37:14.768Z</time></trkpt><trkpt lat="33.7606181" lon="10.0319687"><ele>87.0</ele><time>2026-04-25T15:37:15.772Z</time></trkpt><trkpt lat="33.7604948" lon="10.0317589"><ele>87.0</ele><time>2026-04-25T15:37:16.781Z</time></trkpt><trkpt lat="33.7603723" lon="10.0315533"><ele>87.0</ele><time>2026-04-25T15:37:17.791Z</time></trkpt><trkpt lat="33.7602478" lon="10.0313429"><ele>87.0</ele><time>2026-04-25T15:37:18.787Z</time></trkpt><trkpt lat="33.7601259" lon="10.031133"><ele>87.0</ele><time>2026-04-25T15:37:19.786Z</time></trkpt><trkpt lat="33.759999" lon="10.0309264"><ele>88.0</ele><time>2026-04-25T15:37:20.793Z</time></trkpt><trkpt lat="33.7598769" lon="10.0307197"><ele>89.0</ele><time>2026-04-25T15:37:21.799Z</time></trkpt><trkpt lat="33.7597536" lon="10.03051"><ele>90.0</ele><time>2026-04-25T15:37:22.786Z</time></trkpt><trkpt lat="33.759629" lon="10.0303032"><ele>90.0</ele><time>2026-04-25T15:37:23.767Z</time></trkpt><trkpt lat="33.7595055" lon="10.0300921"><ele>90.0</ele><time>2026-04-25T15:37:24.778Z</time></trkpt><trkpt lat="33.7593874" lon="10.0298796"><ele>90.0</ele><time>2026-04-25T15:37:25.805Z</time></trkpt><trkpt lat="33.7592647" lon="10.0296677"><ele>90.0</ele><time>2026-04-25T15:37:26.788Z</time></trkpt><trkpt lat="33.7591436" lon="10.0294645"><ele>90.0</ele><time>2026-04-25T15:37:27.791Z</time></trkpt><trkpt lat="33.7590299" lon="10.0292589"><ele>90.0</ele><time>2026-04-25T15:37:28.781Z</time></trkpt><trkpt lat="33.7589059" lon="10.0290523"><ele>91.33333333333333</ele><time>2026-04-25T15:37:29.791Z</time></trkpt><trkpt lat="33.7587842" lon="10.0288482"><ele>92.66666666666666</ele><time>2026-04-25T15:37:30.792Z</time></trkpt><trkpt lat="33.7586619" lon="10.0286449"><ele>94.0</ele><time>2026-04-25T15:37:31.784Z</time></trkpt><trkpt lat="33.7585384" lon="10.0284441"><ele>94.0</ele><time>2026-04-25T15:37:32.776Z</time></trkpt><trkpt lat="33.7584183" lon="10.0282416"><ele>94.0</ele><time>2026-04-25T15:37:33.779Z</time></trkpt><trkpt lat="33.7583013" lon="10.0280438"><ele>94.0</ele><time>2026-04-25T15:37:34.781Z</time></trkpt><trkpt lat="33.7581883" lon="10.0278476"><ele>94.0</ele><time>2026-04-25T15:37:35.786Z</time></trkpt><trkpt lat="33.7580774" lon="10.0276566"><ele>94.0</ele><time>2026-04-25T15:37:36.773Z</time></trkpt><trkpt lat="33.7579742" lon="10.0274776"><ele>94.0</ele><time>2026-04-25T15:37:37.795Z</time></trkpt><trkpt lat="33.7578786" lon="10.0273061"><ele>94.66666666666666</ele><time>2026-04-25T15:37:38.785Z</time></trkpt><trkpt lat="33.7577782" lon="10.0271249"><ele>95.33333333333333</ele><time>2026-04-25T15:37:39.795Z</time></trkpt><trkpt lat="33.7576722" lon="10.0269506"><ele>96.0</ele><time>2026-04-25T15:37:40.79Z</time></trkpt><trkpt lat="33.7575686" lon="10.0267778"><ele>96.66666666666666</ele><time>2026-04-25T15:37:41.789Z</time></trkpt><trkpt lat="33.7574695" lon="10.0266074"><ele>97.33333333333333</ele><time>2026-04-25T15:37:42.813Z</time></trkpt><trkpt lat="33.7573671" lon="10.0264304"><ele>98.0</ele><time>2026-04-25T15:37:43.794Z</time></trkpt><trkpt lat="33.7572619" lon="10.0262549"><ele>98.0</ele><time>2026-04-25T15:37:44.777Z</time></trkpt><trkpt lat="33.7571586" lon="10.026077"><ele>98.0</ele><time>2026-04-25T15:37:45.786Z</time></trkpt><trkpt lat="33.7570558" lon="10.0259028"><ele>98.0</ele><time>2026-04-25T15:37:46.778Z</time></trkpt><trkpt lat="33.7569473" lon="10.0257269"><ele>98.33333333333333</ele><time>2026-04-25T15:37:47.792Z</time></trkpt><trkpt lat="33.756838" lon="10.0255547"><ele>98.66666666666666</ele><time>2026-04-25T15:37:48.794Z</time></trkpt><trkpt lat="33.7567248" lon="10.0253826"><ele>99.0</ele><time>2026-04-25T15:37:49.781Z</time></trkpt><trkpt lat="33.7566095" lon="10.0252155"><ele>99.0</ele><time>2026-04-25T15:37:50.789Z</time></trkpt><trkpt lat="33.7564901" lon="10.0250503"><ele>99.0</ele><time>2026-04-25T15:37:51.776Z</time></trkpt><trkpt lat="33.7563689" lon="10.0248885"><ele>99.0</ele><time>2026-04-25T15:37:52.791Z</time></trkpt><trkpt lat="33.7562425" lon="10.0247272"><ele>99.33333333333334</ele><time>2026-04-25T15:37:53.792Z</time></trkpt><trkpt lat="33.7561141" lon="10.0245685"><ele>99.66666666666667</ele><time>2026-04-25T15:37:54.785Z</time></trkpt><trkpt lat="33.755986" lon="10.0244128"><ele>100.0</ele><time>2026-04-25T15:37:55.789Z</time></trkpt><trkpt lat="33.7558597" lon="10.0242542"><ele>100.0</ele><time>2026-04-25T15:37:56.779Z</time></trkpt><trkpt lat="33.7557364" lon="10.0240967"><ele>100.0</ele><time>2026-04-25T15:37:57.793Z</time></trkpt><trkpt lat="33.7556121" lon="10.023945"><ele>100.0</ele><time>2026-04-25T15:37:58.779Z</time></trkpt><trkpt lat="33.7554896" lon="10.0237889"><ele>100.0</ele><time>2026-04-25T15:37:59.779Z</time></trkpt><trkpt lat="33.7553653" lon="10.0236319"><ele>100.0</ele><time>2026-04-25T15:38:00.802Z</time></trkpt><trkpt lat="33.7552356" lon="10.0234743"><ele>100.0</ele><time>2026-04-25T15:38:01.788Z</time></trkpt><trkpt lat="33.7551089" lon="10.0233149"><ele>99.66666666666667</ele><time>2026-04-25T15:38:02.784Z</time></trkpt><trkpt lat="33.7549843" lon="10.0231552"><ele>99.33333333333334</ele><time>2026-04-25T15:38:03.794Z</time></trkpt><trkpt lat="33.754857" lon="10.0229948"><ele>99.0</ele><time>2026-04-25T15:38:04.775Z</time></trkpt><trkpt lat="33.7547331" lon="10.0228366"><ele>99.0</ele><time>2026-04-25T15:38:05.797Z</time></trkpt><trkpt lat="33.7546087" lon="10.0226783"><ele>99.0</ele><time>2026-04-25T15:38:06.789Z</time></trkpt><trkpt lat="33.7544839" lon="10.0225232"><ele>99.0</ele><time>2026-04-25T15:38:07.792Z</time></trkpt><trkpt lat="33.7543597" lon="10.022375"><ele>99.33333333333334</ele><time>2026-04-25T15:38:08.792Z</time></trkpt><trkpt lat="33.7542359" lon="10.0222234"><ele>99.66666666666667</ele><time>2026-04-25T15:38:09.778Z</time></trkpt><trkpt lat="33.7541133" lon="10.0220683"><ele>100.0</ele><time>2026-04-25T15:38:10.78Z</time></trkpt><trkpt lat="33.7539929" lon="10.0219177"><ele>100.0</ele><time>2026-04-25T15:38:11.768Z</time></trkpt><trkpt lat="33.7538724" lon="10.0217669"><ele>100.0</ele><time>2026-04-25T15:38:12.801Z</time></trkpt><trkpt lat="33.7537547" lon="10.0216135"><ele>100.0</ele><time>2026-04-25T15:38:13.793Z</time></trkpt><trkpt lat="33.7536285" lon="10.0214542"><ele>100.0</ele><time>2026-04-25T15:38:14.796Z</time></trkpt><trkpt lat="33.7534997" lon="10.0212902"><ele>100.0</ele><time>2026-04-25T15:38:15.784Z</time></trkpt><trkpt lat="33.7533709" lon="10.021133"><ele>100.0</ele><time>2026-04-25T15:38:16.785Z</time></trkpt><trkpt lat="33.7532386" lon="10.0209814"><ele>100.0</ele><time>2026-04-25T15:38:17.768Z</time></trkpt><trkpt lat="33.7531048" lon="10.0208273"><ele>100.0</ele><time>2026-04-25T15:38:18.779Z</time></trkpt><trkpt lat="33.7529644" lon="10.0206833"><ele>100.0</ele><time>2026-04-25T15:38:19.782Z</time></trkpt><trkpt lat="33.7528136" lon="10.020552"><ele>100.0</ele><time>2026-04-25T15:38:20.795Z</time></trkpt><trkpt lat="33.7526585" lon="10.0204216"><ele>100.0</ele><time>2026-04-25T15:38:21.791Z</time></trkpt><trkpt lat="33.7524962" lon="10.020301"><ele>100.0</ele><time>2026-04-25T15:38:22.818Z</time></trkpt><trkpt lat="33.7523321" lon="10.0201927"><ele>100.0</ele><time>2026-04-25T15:38:23.79Z</time></trkpt><trkpt lat="33.7521616" lon="10.0200876"><ele>100.0</ele><time>2026-04-25T15:38:24.793Z</time></trkpt><trkpt lat="33.7519893" lon="10.019988"><ele>100.0</ele><time>2026-04-25T15:38:25.785Z</time></trkpt><trkpt lat="33.7518107" lon="10.019891"><ele>99.0</ele><time>2026-04-25T15:38:26.782Z</time></trkpt><trkpt lat="33.7516309" lon="10.0197949"><ele>98.0</ele><time>2026-04-25T15:38:27.777Z</time></trkpt><trkpt lat="33.7514486" lon="10.0196977"><ele>97.0</ele><time>2026-04-25T15:38:28.774Z</time></trkpt><trkpt lat="33.7512696" lon="10.0196012"><ele>97.0</ele><time>2026-04-25T15:38:29.797Z</time></trkpt><trkpt lat="33.7510863" lon="10.0195093"><ele>97.0</ele><time>2026-04-25T15:38:30.792Z</time></trkpt><trkpt lat="33.7508987" lon="10.0194191"><ele>97.0</ele><time>2026-04-25T15:38:31.778Z</time></trkpt><trkpt lat="33.7507132" lon="10.0193233"><ele>97.0</ele><time>2026-04-25T15:38:32.783Z</time></trkpt><trkpt lat="33.7505263" lon="10.0192292"><ele>97.0</ele><time>2026-04-25T15:38:33.777Z</time></trkpt><trkpt lat="33.7503405" lon="10.0191318"><ele>97.0</ele><time>2026-04-25T15:38:34.778Z</time></trkpt><trkpt lat="33.7501551" lon="10.0190336"><ele>97.66666666666667</ele><time>2026-04-25T15:38:35.807Z</time></trkpt><trkpt lat="33.7499703" lon="10.0189346"><ele>98.33333333333334</ele><time>2026-04-25T15:38:36.793Z</time></trkpt><trkpt lat="33.7497819" lon="10.0188408"><ele>99.0</ele><time>2026-04-25T15:38:37.775Z</time></trkpt><trkpt lat="33.7495929" lon="10.0187453"><ele>99.0</ele><time>2026-04-25T15:38:38.793Z</time></trkpt><trkpt lat="33.7494008" lon="10.0186516"><ele>99.0</ele><time>2026-04-25T15:38:39.777Z</time></trkpt><trkpt lat="33.7492116" lon="10.018561"><ele>99.0</ele><time>2026-04-25T15:38:40.79Z</time></trkpt><trkpt lat="33.7490203" lon="10.0184626"><ele>100.0</ele><time>2026-04-25T15:38:41.796Z</time></trkpt><trkpt lat="33.7488304" lon="10.018371"><ele>101.0</ele><time>2026-04-25T15:38:42.787Z</time></trkpt><trkpt lat="33.748641" lon="10.018274"><ele>102.0</ele><time>2026-04-25T15:38:43.794Z</time></trkpt><trkpt lat="33.7484525" lon="10.0181774"><ele>102.33333333333334</ele><time>2026-04-25T15:38:44.783Z</time></trkpt><trkpt lat="33.7482661" lon="10.0180756"><ele>102.66666666666667</ele><time>2026-04-25T15:38:45.794Z</time></trkpt><trkpt lat="33.7480844" lon="10.0179837"><ele>103.0</ele><time>2026-04-25T15:38:46.783Z</time></trkpt><trkpt lat="33.7478941" lon="10.017884"><ele>103.66666666666667</ele><time>2026-04-25T15:38:47.79Z</time></trkpt><trkpt lat="33.747708" lon="10.0177918"><ele>104.33333333333334</ele><time>2026-04-25T15:38:48.79Z</time></trkpt><trkpt lat="33.7475216" lon="10.0177022"><ele>105.0</ele><time>2026-04-25T15:38:49.793Z</time></trkpt><trkpt lat="33.7473267" lon="10.0176177"><ele>105.0</ele><time>2026-04-25T15:38:50.797Z</time></trkpt><trkpt lat="33.7471347" lon="10.0175429"><ele>105.0</ele><time>2026-04-25T15:38:51.796Z</time></trkpt><trkpt lat="33.7469417" lon="10.0174691"><ele>105.0</ele><time>2026-04-25T15:38:52.796Z</time></trkpt><trkpt lat="33.7467581" lon="10.0173998"><ele>106.0</ele><time>2026-04-25T15:38:53.795Z</time></trkpt><trkpt lat="33.7465662" lon="10.0173259"><ele>107.0</ele><time>2026-04-25T15:38:54.772Z</time></trkpt><trkpt lat="33.7463796" lon="10.0172549"><ele>108.0</ele><time>2026-04-25T15:38:55.774Z</time></trkpt><trkpt lat="33.7461937" lon="10.0171884"><ele>107.66666666666666</ele><time>2026-04-25T15:38:56.8Z</time></trkpt><trkpt lat="33.7460083" lon="10.0171235"><ele>107.33333333333333</ele><time>2026-04-25T15:38:57.792Z</time></trkpt><trkpt lat="33.7458228" lon="10.0170599"><ele>107.0</ele><time>2026-04-25T15:38:58.791Z</time></trkpt><trkpt lat="33.7456307" lon="10.0169919"><ele>107.0</ele><time>2026-04-25T15:38:59.787Z</time></trkpt><trkpt lat="33.745447" lon="10.016921"><ele>107.0</ele><time>2026-04-25T15:39:00.778Z</time></trkpt><trkpt lat="33.7452596" lon="10.0168485"><ele>107.0</ele><time>2026-04-25T15:39:01.79Z</time></trkpt><trkpt lat="33.7450802" lon="10.0167809"><ele>107.0</ele><time>2026-04-25T15:39:02.809Z</time></trkpt><trkpt lat="33.7448955" lon="10.0167128"><ele>107.0</ele><time>2026-04-25T15:39:03.791Z</time></trkpt><trkpt lat="33.7447084" lon="10.0166447"><ele>107.0</ele><time>2026-04-25T15:39:04.79Z</time></trkpt><trkpt lat="33.7445262" lon="10.0165736"><ele>107.33333333333333</ele><time>2026-04-25T15:39:05.791Z</time></trkpt><trkpt lat="33.7443384" lon="10.0165037"><ele>107.66666666666666</ele><time>2026-04-25T15:39:06.79Z</time></trkpt><trkpt lat="33.7441523" lon="10.0164265"><ele>108.0</ele><time>2026-04-25T15:39:07.777Z</time></trkpt><trkpt lat="33.7439645" lon="10.0163547"><ele>108.0</ele><time>2026-04-25T15:39:08.781Z</time></trkpt><trkpt lat="33.7437779" lon="10.0162877"><ele>108.0</ele><time>2026-04-25T15:39:09.772Z</time></trkpt><trkpt lat="33.7435925" lon="10.0162201"><ele>108.0</ele><time>2026-04-25T15:39:10.769Z</time></trkpt><trkpt lat="33.7434082" lon="10.0161559"><ele>108.66666666666666</ele><time>2026-04-25T15:39:11.788Z</time></trkpt><trkpt lat="33.7432188" lon="10.0160898"><ele>109.33333333333333</ele><time>2026-04-25T15:39:12.787Z</time></trkpt><trkpt lat="33.7430375" lon="10.016024"><ele>110.0</ele><time>2026-04-25T15:39:13.769Z</time></trkpt><trkpt lat="33.7428514" lon="10.0159537"><ele>110.66666666666666</ele><time>2026-04-25T15:39:14.787Z</time></trkpt><trkpt lat="33.7426687" lon="10.0158837"><ele>111.33333333333334</ele><time>2026-04-25T15:39:15.783Z</time></trkpt><trkpt lat="33.7424884" lon="10.0158164"><ele>112.0</ele><time>2026-04-25T15:39:16.782Z</time></trkpt><trkpt lat="33.7423054" lon="10.0157504"><ele>112.0</ele><time>2026-04-25T15:39:17.794Z</time></trkpt><trkpt lat="33.7421295" lon="10.0156818"><ele>112.0</ele><time>2026-04-25T15:39:18.78Z</time></trkpt><trkpt lat="33.7419659" lon="10.01562"><ele>112.0</ele><time>2026-04-25T15:39:19.779Z</time></trkpt><trkpt lat="33.7418007" lon="10.0155602"><ele>111.66666666666667</ele><time>2026-04-25T15:39:20.796Z</time></trkpt><trkpt lat="33.7416438" lon="10.0155036"><ele>111.33333333333334</ele><time>2026-04-25T15:39:21.795Z</time></trkpt><trkpt lat="33.7414973" lon="10.0154477"><ele>111.0</ele><time>2026-04-25T15:39:22.795Z</time></trkpt><trkpt lat="33.7413609" lon="10.0154029"><ele>111.0</ele><time>2026-04-25T15:39:23.798Z</time></trkpt><trkpt lat="33.7412248" lon="10.0153607"><ele>111.0</ele><time>2026-04-25T15:39:24.783Z</time></trkpt><trkpt lat="33.7410957" lon="10.0153288"><ele>111.0</ele><time>2026-04-25T15:39:25.796Z</time></trkpt><trkpt lat="33.7409711" lon="10.0152886"><ele>111.0</ele><time>2026-04-25T15:39:26.808Z</time></trkpt><trkpt lat="33.7408456" lon="10.0152614"><ele>111.0</ele><time>2026-04-25T15:39:27.778Z</time></trkpt><trkpt lat="33.7407328" lon="10.0152351"><ele>111.0</ele><time>2026-04-25T15:39:28.792Z</time></trkpt><trkpt lat="33.7406211" lon="10.0152222"><ele>111.0</ele><time>2026-04-25T15:39:29.775Z</time></trkpt><trkpt lat="33.7405091" lon="10.0152197"><ele>111.0</ele><time>2026-04-25T15:39:30.79Z</time></trkpt><trkpt lat="33.7403961" lon="10.0152132"><ele>111.0</ele><time>2026-04-25T15:39:31.772Z</time></trkpt><trkpt lat="33.7402824" lon="10.0152149"><ele>111.0</ele><time>2026-04-25T15:39:32.796Z</time></trkpt><trkpt lat="33.7401627" lon="10.0152159"><ele>111.0</ele><time>2026-04-25T15:39:33.781Z</time></trkpt><trkpt lat="33.7400491" lon="10.0152204"><ele>111.0</ele><time>2026-04-25T15:39:34.791Z</time></trkpt><trkpt lat="33.7399314" lon="10.0152144"><ele>111.0</ele><time>2026-04-25T15:39:35.781Z</time></trkpt><trkpt lat="33.7398274" lon="10.0152116"><ele>111.0</ele><time>2026-04-25T15:39:36.802Z</time></trkpt><trkpt lat="33.7397408" lon="10.0152053"><ele>111.0</ele><time>2026-04-25T15:39:37.8Z</time></trkpt><trkpt lat="33.7396625" lon="10.0152018"><ele>111.0</ele><time>2026-04-25T15:39:38.787Z</time></trkpt><trkpt lat="33.7395691" lon="10.0152085"><ele>111.0</ele><time>2026-04-25T15:39:39.791Z</time></trkpt><trkpt lat="33.7394544" lon="10.0152018"><ele>111.0</ele><time>2026-04-25T15:39:40.816Z</time></trkpt><trkpt lat="33.7393345" lon="10.0151989"><ele>111.0</ele><time>2026-04-25T15:39:41.781Z</time></trkpt><trkpt lat="33.7392047" lon="10.0152004"><ele>111.0</ele><time>2026-04-25T15:39:42.793Z</time></trkpt><trkpt lat="33.7390772" lon="10.0152064"><ele>111.0</ele><time>2026-04-25T15:39:43.795Z</time></trkpt><trkpt lat="33.7389474" lon="10.0152071"><ele>111.0</ele><time>2026-04-25T15:39:44.79Z</time></trkpt><trkpt lat="33.7388097" lon="10.0152094"><ele>111.0</ele><time>2026-04-25T15:39:45.788Z</time></trkpt><trkpt lat="33.7386707" lon="10.0152102"><ele>111.0</ele><time>2026-04-25T15:39:46.801Z</time></trkpt><trkpt lat="33.7385259" lon="10.015215"><ele>111.0</ele><time>2026-04-25T15:39:47.765Z</time></trkpt><trkpt lat="33.7383798" lon="10.0152145"><ele>110.5</ele><time>2026-04-25T15:39:48.764Z</time></trkpt><trkpt lat="33.7382328" lon="10.0152178"><ele>110.0</ele><time>2026-04-25T15:39:49.771Z</time></trkpt><trkpt lat="33.7380837" lon="10.0152265"><ele>109.5</ele><time>2026-04-25T15:39:50.791Z</time></trkpt><trkpt lat="33.7379404" lon="10.0152255"><ele>109.0</ele><time>2026-04-25T15:39:51.77Z</time></trkpt><trkpt lat="33.7377894" lon="10.015223"><ele>109.0</ele><time>2026-04-25T15:39:52.786Z</time></trkpt><trkpt lat="33.7376441" lon="10.0152202"><ele>109.0</ele><time>2026-04-25T15:39:53.785Z</time></trkpt><trkpt lat="33.7374978" lon="10.0152299"><ele>109.0</ele><time>2026-04-25T15:39:54.78Z</time></trkpt><trkpt lat="33.7373396" lon="10.015238"><ele>109.0</ele><time>2026-04-25T15:39:55.784Z</time></trkpt><trkpt lat="33.7371782" lon="10.0152459"><ele>109.0</ele><time>2026-04-25T15:39:56.791Z</time></trkpt><trkpt lat="33.73702" lon="10.0152477"><ele>109.0</ele><time>2026-04-25T15:39:57.794Z</time></trkpt><trkpt lat="33.7368611" lon="10.0152494"><ele>108.0</ele><time>2026-04-25T15:39:58.774Z</time></trkpt><trkpt lat="33.7367068" lon="10.0152438"><ele>107.0</ele><time>2026-04-25T15:39:59.782Z</time></trkpt><trkpt lat="33.7365572" lon="10.0152404"><ele>106.0</ele><time>2026-04-25T15:40:00.798Z</time></trkpt><trkpt lat="33.7364091" lon="10.0152391"><ele>106.0</ele><time>2026-04-25T15:40:01.795Z</time></trkpt><trkpt lat="33.7362583" lon="10.0152393"><ele>106.0</ele><time>2026-04-25T15:40:02.78Z</time></trkpt><trkpt lat="33.7361101" lon="10.0152352"><ele>106.0</ele><time>2026-04-25T15:40:03.79Z</time></trkpt><trkpt lat="33.7359722" lon="10.0152402"><ele>106.0</ele><time>2026-04-25T15:40:04.779Z</time></trkpt><trkpt lat="33.7358466" lon="10.0152473"><ele>106.0</ele><time>2026-04-25T15:40:05.79Z</time></trkpt><trkpt lat="33.735741" lon="10.0152466"><ele>106.0</ele><time>2026-04-25T15:40:06.787Z</time></trkpt><trkpt lat="33.7356494" lon="10.0152404"><ele>106.0</ele><time>2026-04-25T15:40:07.784Z</time></trkpt><trkpt lat="33.7355581" lon="10.0152382"><ele>106.0</ele><time>2026-04-25T15:40:08.793Z</time></trkpt><trkpt lat="33.7354691" lon="10.0152414"><ele>106.0</ele><time>2026-04-25T15:40:09.775Z</time></trkpt><trkpt lat="33.7353616" lon="10.0152503"><ele>106.0</ele><time>2026-04-25T15:40:10.79Z</time></trkpt><trkpt lat="33.735246" lon="10.0152442"><ele>106.0</ele><time>2026-04-25T15:40:11.79Z</time></trkpt><trkpt lat="33.7351316" lon="10.0152444"><ele>106.0</ele><time>2026-04-25T15:40:12.78Z</time></trkpt><trkpt lat="33.7350051" lon="10.0152376"><ele>106.0</ele><time>2026-04-25T15:40:13.781Z</time></trkpt><trkpt lat="33.7348624" lon="10.0152285"><ele>105.66666666666667</ele><time>2026-04-25T15:40:14.79Z</time></trkpt><trkpt lat="33.7347022" lon="10.0152305"><ele>105.33333333333334</ele><time>2026-04-25T15:40:15.875Z</time></trkpt><trkpt lat="33.7345218" lon="10.0152327"><ele>105.0</ele><time>2026-04-25T15:40:16.842Z</time></trkpt><trkpt lat="33.7343198" lon="10.0152364"><ele>105.0</ele><time>2026-04-25T15:40:17.832Z</time></trkpt><trkpt lat="33.7341286" lon="10.015233"><ele>105.0</ele><time>2026-04-25T15:40:18.849Z</time></trkpt><trkpt lat="33.7339433" lon="10.0152325"><ele>105.0</ele><time>2026-04-25T15:40:19.828Z</time></trkpt><trkpt lat="33.7337647" lon="10.0152256"><ele>105.0</ele><time>2026-04-25T15:40:20.826Z</time></trkpt><trkpt lat="33.7336011" lon="10.0152246"><ele>105.0</ele><time>2026-04-25T15:40:21.839Z</time></trkpt><trkpt lat="33.7334384" lon="10.0152201"><ele>105.0</ele><time>2026-04-25T15:40:22.839Z</time></trkpt><trkpt lat="33.7332786" lon="10.0152163"><ele>104.25</ele><time>2026-04-25T15:40:23.857Z</time></trkpt><trkpt lat="33.7331279" lon="10.0152096"><ele>103.5</ele><time>2026-04-25T15:40:24.835Z</time></trkpt><trkpt lat="33.7329831" lon="10.0152066"><ele>102.75</ele><time>2026-04-25T15:40:25.824Z</time></trkpt><trkpt lat="33.7328514" lon="10.0152164"><ele>102.0</ele><time>2026-04-25T15:40:26.834Z</time></trkpt><trkpt lat="33.7327295" lon="10.0152158"><ele>102.39999999999999</ele><time>2026-04-25T15:40:27.833Z</time></trkpt><trkpt lat="33.7326317" lon="10.0152135"><ele>102.8</ele><time>2026-04-25T15:40:28.837Z</time></trkpt><trkpt lat="33.7325422" lon="10.0152181"><ele>103.2</ele><time>2026-04-25T15:40:29.823Z</time></trkpt><trkpt lat="33.73246" lon="10.0152157"><ele>103.6</ele><time>2026-04-25T15:40:30.822Z</time></trkpt><trkpt lat="33.732367" lon="10.0152238"><ele>104.0</ele><time>2026-04-25T15:40:31.837Z</time></trkpt><trkpt lat="33.7322512" lon="10.0152225"><ele>104.0</ele><time>2026-04-25T15:40:32.831Z</time></trkpt><trkpt lat="33.7321287" lon="10.0152241"><ele>104.0</ele><time>2026-04-25T15:40:33.844Z</time></trkpt><trkpt lat="33.7319949" lon="10.0152197"><ele>104.0</ele><time>2026-04-25T15:40:34.829Z</time></trkpt><trkpt lat="33.7318699" lon="10.0152221"><ele>104.0</ele><time>2026-04-25T15:40:35.834Z</time></trkpt><trkpt lat="33.7317402" lon="10.0152277"><ele>104.0</ele><time>2026-04-25T15:40:36.837Z</time></trkpt><trkpt lat="33.731597" lon="10.0152295"><ele>104.0</ele><time>2026-04-25T15:40:37.834Z</time></trkpt><trkpt lat="33.7314535" lon="10.0152321"><ele>104.0</ele><time>2026-04-25T15:40:38.828Z</time></trkpt><trkpt lat="33.7313051" lon="10.0152322"><ele>104.0</ele><time>2026-04-25T15:40:39.836Z</time></trkpt><trkpt lat="33.731154" lon="10.0152324"><ele>103.66666666666666</ele><time>2026-04-25T15:40:40.838Z</time></trkpt><trkpt lat="33.7309995" lon="10.0152369"><ele>103.33333333333334</ele><time>2026-04-25T15:40:41.835Z</time></trkpt><trkpt lat="33.7308396" lon="10.0152395"><ele>103.0</ele><time>2026-04-25T15:40:42.847Z</time></trkpt><trkpt lat="33.7306852" lon="10.0152421"><ele>103.0</ele><time>2026-04-25T15:40:43.84Z</time></trkpt><trkpt lat="33.7305273" lon="10.015243"><ele>103.0</ele><time>2026-04-25T15:40:44.834Z</time></trkpt><trkpt lat="33.730356" lon="10.0152372"><ele>103.0</ele><time>2026-04-25T15:40:45.831Z</time></trkpt><trkpt lat="33.7301794" lon="10.0152354"><ele>103.0</ele><time>2026-04-25T15:40:46.836Z</time></trkpt><trkpt lat="33.7299961" lon="10.0152343"><ele>103.0</ele><time>2026-04-25T15:40:47.848Z</time></trkpt><trkpt lat="33.7298094" lon="10.0152347"><ele>103.0</ele><time>2026-04-25T15:40:48.834Z</time></trkpt><trkpt lat="33.7296155" lon="10.0152346"><ele>103.0</ele><time>2026-04-25T15:40:49.832Z</time></trkpt><trkpt lat="33.72942" lon="10.0152344"><ele>103.0</ele><time>2026-04-25T15:40:50.82Z</time></trkpt><trkpt lat="33.729234" lon="10.0152344"><ele>103.0</ele><time>2026-04-25T15:40:51.839Z</time></trkpt><trkpt lat="33.729037" lon="10.0152374"><ele>103.0</ele><time>2026-04-25T15:40:52.827Z</time></trkpt><trkpt lat="33.7288388" lon="10.0152385"><ele>103.0</ele><time>2026-04-25T15:40:53.847Z</time></trkpt><trkpt lat="33.7286318" lon="10.0152389"><ele>103.0</ele><time>2026-04-25T15:40:54.838Z</time></trkpt><trkpt lat="33.7284289" lon="10.015238"><ele>103.0</ele><time>2026-04-25T15:40:55.833Z</time></trkpt><trkpt lat="33.7282314" lon="10.0152382"><ele>103.0</ele><time>2026-04-25T15:40:56.833Z</time></trkpt><trkpt lat="33.7280337" lon="10.0152374"><ele>103.0</ele><time>2026-04-25T15:40:57.835Z</time></trkpt><trkpt lat="33.7278356" lon="10.0152397"><ele>102.66666666666667</ele><time>2026-04-25T15:40:58.837Z</time></trkpt><trkpt lat="33.7276333" lon="10.0152385"><ele>102.33333333333334</ele><time>2026-04-25T15:40:59.819Z</time></trkpt><trkpt lat="33.727433" lon="10.0152415"><ele>102.0</ele><time>2026-04-25T15:41:00.829Z</time></trkpt><trkpt lat="33.727229" lon="10.0152393"><ele>102.0</ele><time>2026-04-25T15:41:01.853Z</time></trkpt><trkpt lat="33.7270269" lon="10.0152414"><ele>102.0</ele><time>2026-04-25T15:41:02.841Z</time></trkpt><trkpt lat="33.7268206" lon="10.0152418"><ele>102.0</ele><time>2026-04-25T15:41:03.841Z</time></trkpt><trkpt lat="33.7266159" lon="10.0152447"><ele>101.0</ele><time>2026-04-25T15:41:04.833Z</time></trkpt><trkpt lat="33.726414" lon="10.0152488"><ele>100.0</ele><time>2026-04-25T15:41:05.838Z</time></trkpt><trkpt lat="33.7262123" lon="10.0152491"><ele>99.0</ele><time>2026-04-25T15:41:06.821Z</time></trkpt><trkpt lat="33.7260111" lon="10.0152475"><ele>98.66666666666666</ele><time>2026-04-25T15:41:07.831Z</time></trkpt><trkpt lat="33.7258083" lon="10.0152481"><ele>98.33333333333333</ele><time>2026-04-25T15:41:08.844Z</time></trkpt><trkpt lat="33.7256048" lon="10.0152468"><ele>98.0</ele><time>2026-04-25T15:41:09.826Z</time></trkpt><trkpt lat="33.725402" lon="10.0152471"><ele>98.0</ele><time>2026-04-25T15:41:10.84Z</time></trkpt><trkpt lat="33.7251983" lon="10.0152468"><ele>98.0</ele><time>2026-04-25T15:41:11.844Z</time></trkpt><trkpt lat="33.7249953" lon="10.0152454"><ele>98.0</ele><time>2026-04-25T15:41:12.827Z</time></trkpt><trkpt lat="33.7247951" lon="10.0152445"><ele>98.0</ele><time>2026-04-25T15:41:13.831Z</time></trkpt><trkpt lat="33.724595" lon="10.0152448"><ele>98.0</ele><time>2026-04-25T15:41:14.836Z</time></trkpt><trkpt lat="33.7243946" lon="10.0152491"><ele>98.0</ele><time>2026-04-25T15:41:15.833Z</time></trkpt><trkpt lat="33.7241928" lon="10.0152523"><ele>99.0</ele><time>2026-04-25T15:41:16.837Z</time></trkpt><trkpt lat="33.7239924" lon="10.015254"><ele>100.0</ele><time>2026-04-25T15:41:17.849Z</time></trkpt><trkpt lat="33.7237927" lon="10.0152556"><ele>101.0</ele><time>2026-04-25T15:41:18.824Z</time></trkpt><trkpt lat="33.7235953" lon="10.0152566"><ele>101.66666666666666</ele><time>2026-04-25T15:41:19.829Z</time></trkpt><trkpt lat="33.7233982" lon="10.0152571"><ele>102.33333333333334</ele><time>2026-04-25T15:41:20.828Z</time></trkpt><trkpt lat="33.7232007" lon="10.0152589"><ele>103.0</ele><time>2026-04-25T15:41:21.821Z</time></trkpt><trkpt lat="33.723003" lon="10.0152565"><ele>103.0</ele><time>2026-04-25T15:41:22.847Z</time></trkpt><trkpt lat="33.7228083" lon="10.015257"><ele>103.0</ele><time>2026-04-25T15:41:23.833Z</time></trkpt><trkpt lat="33.7226136" lon="10.0152577"><ele>103.0</ele><time>2026-04-25T15:41:24.828Z</time></trkpt><trkpt lat="33.7224252" lon="10.0152586"><ele>102.33333333333334</ele><time>2026-04-25T15:41:25.836Z</time></trkpt><trkpt lat="33.7222399" lon="10.0152603"><ele>101.66666666666666</ele><time>2026-04-25T15:41:26.82Z</time></trkpt><trkpt lat="33.7220566" lon="10.01526"><ele>101.0</ele><time>2026-04-25T15:41:27.823Z</time></trkpt><trkpt lat="33.7218752" lon="10.0152611"><ele>101.0</ele><time>2026-04-25T15:41:28.835Z</time></trkpt><trkpt lat="33.7216931" lon="10.0152585"><ele>101.0</ele><time>2026-04-25T15:41:29.821Z</time></trkpt><trkpt lat="33.7215128" lon="10.0152596"><ele>101.0</ele><time>2026-04-25T15:41:30.827Z</time></trkpt><trkpt lat="33.7213355" lon="10.0152605"><ele>101.0</ele><time>2026-04-25T15:41:31.838Z</time></trkpt><trkpt lat="33.7211622" lon="10.0152625"><ele>101.0</ele><time>2026-04-25T15:41:32.831Z</time></trkpt><trkpt lat="33.7209933" lon="10.0152651"><ele>101.0</ele><time>2026-04-25T15:41:33.836Z</time></trkpt><trkpt lat="33.720824" lon="10.0152667"><ele>100.66666666666666</ele><time>2026-04-25T15:41:34.829Z</time></trkpt><trkpt lat="33.7206564" lon="10.0152666"><ele>100.33333333333334</ele><time>2026-04-25T15:41:35.84Z</time></trkpt><trkpt lat="33.7204899" lon="10.0152691"><ele>100.0</ele><time>2026-04-25T15:41:36.836Z</time></trkpt><trkpt lat="33.7203273" lon="10.0152722"><ele>100.66666666666667</ele><time>2026-04-25T15:41:37.84Z</time></trkpt><trkpt lat="33.7201653" lon="10.0152727"><ele>101.33333333333334</ele><time>2026-04-25T15:41:38.825Z</time></trkpt><trkpt lat="33.7200038" lon="10.01527"><ele>102.0</ele><time>2026-04-25T15:41:39.838Z</time></trkpt><trkpt lat="33.7198404" lon="10.015268"><ele>102.0</ele><time>2026-04-25T15:41:40.829Z</time></trkpt><trkpt lat="33.7196739" lon="10.0152648"><ele>102.0</ele><time>2026-04-25T15:41:41.827Z</time></trkpt><trkpt lat="33.7195034" lon="10.0152637"><ele>102.0</ele><time>2026-04-25T15:41:42.826Z</time></trkpt><trkpt lat="33.7193307" lon="10.0152642"><ele>102.33333333333334</ele><time>2026-04-25T15:41:43.854Z</time></trkpt><trkpt lat="33.7191595" lon="10.0152684"><ele>102.66666666666667</ele><time>2026-04-25T15:41:44.83Z</time></trkpt><trkpt lat="33.7189861" lon="10.0152712"><ele>103.0</ele><time>2026-04-25T15:41:45.835Z</time></trkpt><trkpt lat="33.7188115" lon="10.015273"><ele>103.0</ele><time>2026-04-25T15:41:46.837Z</time></trkpt><trkpt lat="33.7186358" lon="10.015273"><ele>103.0</ele><time>2026-04-25T15:41:47.836Z</time></trkpt><trkpt lat="33.7184587" lon="10.0152725"><ele>103.0</ele><time>2026-04-25T15:41:48.822Z</time></trkpt><trkpt lat="33.7182808" lon="10.0152719"><ele>102.33333333333334</ele><time>2026-04-25T15:41:49.833Z</time></trkpt><trkpt lat="33.7181054" lon="10.0152714"><ele>101.66666666666666</ele><time>2026-04-25T15:41:50.845Z</time></trkpt><trkpt lat="33.7179314" lon="10.0152692"><ele>101.0</ele><time>2026-04-25T15:41:51.829Z</time></trkpt><trkpt lat="33.7177557" lon="10.015265"><ele>101.66666666666666</ele><time>2026-04-25T15:41:52.831Z</time></trkpt><trkpt lat="33.7175825" lon="10.0152641"><ele>102.33333333333334</ele><time>2026-04-25T15:41:53.841Z</time></trkpt><trkpt lat="33.7174085" lon="10.0152642"><ele>103.0</ele><time>2026-04-25T15:41:54.833Z</time></trkpt><trkpt lat="33.7172361" lon="10.0152674"><ele>103.0</ele><time>2026-04-25T15:41:55.816Z</time></trkpt><trkpt lat="33.7170633" lon="10.0152701"><ele>103.0</ele><time>2026-04-25T15:41:56.807Z</time></trkpt><trkpt lat="33.7168895" lon="10.0152738"><ele>103.0</ele><time>2026-04-25T15:41:57.823Z</time></trkpt><trkpt lat="33.7167147" lon="10.015275"><ele>103.66666666666667</ele><time>2026-04-25T15:41:58.837Z</time></trkpt><trkpt lat="33.7165411" lon="10.0152758"><ele>104.33333333333334</ele><time>2026-04-25T15:41:59.827Z</time></trkpt><trkpt lat="33.7163677" lon="10.0152737"><ele>105.0</ele><time>2026-04-25T15:42:00.841Z</time></trkpt><trkpt lat="33.7161946" lon="10.0152731"><ele>105.0</ele><time>2026-04-25T15:42:01.84Z</time></trkpt><trkpt lat="33.7160201" lon="10.0152732"><ele>105.0</ele><time>2026-04-25T15:42:02.834Z</time></trkpt><trkpt lat="33.7158468" lon="10.0152769"><ele>105.0</ele><time>2026-04-25T15:42:03.831Z</time></trkpt><trkpt lat="33.7156717" lon="10.0152779"><ele>105.0</ele><time>2026-04-25T15:42:04.822Z</time></trkpt><trkpt lat="33.7154997" lon="10.0152778"><ele>105.0</ele><time>2026-04-25T15:42:05.83Z</time></trkpt><trkpt lat="33.7153303" lon="10.0152767"><ele>105.0</ele><time>2026-04-25T15:42:06.832Z</time></trkpt><trkpt lat="33.7151607" lon="10.0152775"><ele>104.66666666666666</ele><time>2026-04-25T15:42:07.822Z</time></trkpt><trkpt lat="33.7149905" lon="10.0152788"><ele>104.33333333333333</ele><time>2026-04-25T15:42:08.829Z</time></trkpt><trkpt lat="33.7148157" lon="10.0152799"><ele>104.0</ele><time>2026-04-25T15:42:09.835Z</time></trkpt><trkpt lat="33.7146409" lon="10.0152829"><ele>104.0</ele><time>2026-04-25T15:42:10.833Z</time></trkpt><trkpt lat="33.7144622" lon="10.0152847"><ele>104.0</ele><time>2026-04-25T15:42:11.842Z</time></trkpt><trkpt lat="33.7142821" lon="10.0152846"><ele>104.0</ele><time>2026-04-25T15:42:12.828Z</time></trkpt><trkpt lat="33.7140997" lon="10.0152833"><ele>104.0</ele><time>2026-04-25T15:42:13.827Z</time></trkpt><trkpt lat="33.7139152" lon="10.0152816"><ele>104.0</ele><time>2026-04-25T15:42:14.838Z</time></trkpt><trkpt lat="33.7137302" lon="10.015279"><ele>104.0</ele><time>2026-04-25T15:42:15.834Z</time></trkpt><trkpt lat="33.7135461" lon="10.0152784"><ele>104.0</ele><time>2026-04-25T15:42:16.825Z</time></trkpt><trkpt lat="33.7133623" lon="10.0152791"><ele>104.0</ele><time>2026-04-25T15:42:17.838Z</time></trkpt><trkpt lat="33.7131805" lon="10.0152817"><ele>104.0</ele><time>2026-04-25T15:42:18.837Z</time></trkpt><trkpt lat="33.7129995" lon="10.015283"><ele>104.0</ele><time>2026-04-25T15:42:19.84Z</time></trkpt><trkpt lat="33.7128154" lon="10.0152846"><ele>104.0</ele><time>2026-04-25T15:42:20.819Z</time></trkpt><trkpt lat="33.7126343" lon="10.0152851"><ele>104.0</ele><time>2026-04-25T15:42:21.835Z</time></trkpt><trkpt lat="33.712453" lon="10.0152863"><ele>103.66666666666666</ele><time>2026-04-25T15:42:22.831Z</time></trkpt><trkpt lat="33.7122718" lon="10.0152862"><ele>103.33333333333334</ele><time>2026-04-25T15:42:23.823Z</time></trkpt><trkpt lat="33.7120962" lon="10.015286"><ele>103.0</ele><time>2026-04-25T15:42:24.83Z</time></trkpt><trkpt lat="33.71192" lon="10.0152851"><ele>103.33333333333334</ele><time>2026-04-25T15:42:25.841Z</time></trkpt><trkpt lat="33.7117477" lon="10.0152853"><ele>103.66666666666666</ele><time>2026-04-25T15:42:26.838Z</time></trkpt><trkpt lat="33.7115779" lon="10.0152871"><ele>104.0</ele><time>2026-04-25T15:42:27.837Z</time></trkpt><trkpt lat="33.7114089" lon="10.0152898"><ele>104.0</ele><time>2026-04-25T15:42:28.817Z</time></trkpt><trkpt lat="33.7112389" lon="10.0152919"><ele>104.0</ele><time>2026-04-25T15:42:29.839Z</time></trkpt><trkpt lat="33.711069" lon="10.0152926"><ele>104.0</ele><time>2026-04-25T15:42:30.833Z</time></trkpt><trkpt lat="33.7108986" lon="10.0152923"><ele>104.66666666666666</ele><time>2026-04-25T15:42:31.836Z</time></trkpt><trkpt lat="33.7107299" lon="10.0152891"><ele>105.33333333333334</ele><time>2026-04-25T15:42:32.826Z</time></trkpt><trkpt lat="33.7105619" lon="10.0152883"><ele>106.0</ele><time>2026-04-25T15:42:33.839Z</time></trkpt><trkpt lat="33.7103941" lon="10.0152885"><ele>106.0</ele><time>2026-04-25T15:42:34.835Z</time></trkpt><trkpt lat="33.7102269" lon="10.0152887"><ele>106.0</ele><time>2026-04-25T15:42:35.833Z</time></trkpt><trkpt lat="33.7100581" lon="10.0152887"><ele>106.0</ele><time>2026-04-25T15:42:36.849Z</time></trkpt><trkpt lat="33.7098871" lon="10.015289"><ele>106.0</ele><time>2026-04-25T15:42:37.83Z</time></trkpt><trkpt lat="33.7097159" lon="10.0152907"><ele>106.0</ele><time>2026-04-25T15:42:38.843Z</time></trkpt><trkpt lat="33.7095449" lon="10.0152952"><ele>106.0</ele><time>2026-04-25T15:42:39.843Z</time></trkpt><trkpt lat="33.7093703" lon="10.0152961"><ele>105.66666666666667</ele><time>2026-04-25T15:42:40.846Z</time></trkpt><trkpt lat="33.7091932" lon="10.015295"><ele>105.33333333333334</ele><time>2026-04-25T15:42:41.841Z</time></trkpt><trkpt lat="33.7090158" lon="10.0152947"><ele>105.0</ele><time>2026-04-25T15:42:42.836Z</time></trkpt><trkpt lat="33.7088409" lon="10.0152929"><ele>105.0</ele><time>2026-04-25T15:42:43.837Z</time></trkpt><trkpt lat="33.7086664" lon="10.0152945"><ele>105.0</ele><time>2026-04-25T15:42:44.84Z</time></trkpt><trkpt lat="33.7084917" lon="10.0152954"><ele>105.0</ele><time>2026-04-25T15:42:45.846Z</time></trkpt><trkpt lat="33.7083161" lon="10.015297"><ele>105.33333333333334</ele><time>2026-04-25T15:42:46.821Z</time></trkpt><trkpt lat="33.7081408" lon="10.0153"><ele>105.66666666666667</ele><time>2026-04-25T15:42:47.826Z</time></trkpt><trkpt lat="33.7079637" lon="10.0153012"><ele>106.0</ele><time>2026-04-25T15:42:48.846Z</time></trkpt><trkpt lat="33.7077869" lon="10.0152998"><ele>105.33333333333334</ele><time>2026-04-25T15:42:49.844Z</time></trkpt><trkpt lat="33.7076112" lon="10.0152988"><ele>104.66666666666666</ele><time>2026-04-25T15:42:50.847Z</time></trkpt><trkpt lat="33.7074312" lon="10.0152962"><ele>104.0</ele><time>2026-04-25T15:42:51.837Z</time></trkpt><trkpt lat="33.7072501" lon="10.015295"><ele>104.0</ele><time>2026-04-25T15:42:52.834Z</time></trkpt><trkpt lat="33.7070684" lon="10.0152958"><ele>104.0</ele><time>2026-04-25T15:42:53.838Z</time></trkpt><trkpt lat="33.7068904" lon="10.0152996"><ele>104.0</ele><time>2026-04-25T15:42:54.833Z</time></trkpt><trkpt lat="33.7067077" lon="10.0153011"><ele>104.0</ele><time>2026-04-25T15:42:55.85Z</time></trkpt><trkpt lat="33.7065247" lon="10.0153014"><ele>104.0</ele><time>2026-04-25T15:42:56.848Z</time></trkpt><trkpt lat="33.7063412" lon="10.015303"><ele>104.0</ele><time>2026-04-25T15:42:57.834Z</time></trkpt><trkpt lat="33.7061586" lon="10.0153028"><ele>104.33333333333333</ele><time>2026-04-25T15:42:58.825Z</time></trkpt><trkpt lat="33.7059753" lon="10.0153064"><ele>104.66666666666666</ele><time>2026-04-25T15:42:59.83Z</time></trkpt><trkpt lat="33.7057892" lon="10.015309"><ele>105.0</ele><time>2026-04-25T15:43:00.83Z</time></trkpt><trkpt lat="33.7055969" lon="10.0153079"><ele>105.0</ele><time>2026-04-25T15:43:01.828Z</time></trkpt><trkpt lat="33.7054034" lon="10.015309"><ele>105.0</ele><time>2026-04-25T15:43:02.841Z</time></trkpt><trkpt lat="33.7052043" lon="10.0153119"><ele>105.0</ele><time>2026-04-25T15:43:03.833Z</time></trkpt><trkpt lat="33.7050005" lon="10.0153126"><ele>104.0</ele><time>2026-04-25T15:43:04.836Z</time></trkpt><trkpt lat="33.7047995" lon="10.0153159"><ele>103.0</ele><time>2026-04-25T15:43:05.815Z</time></trkpt><trkpt lat="33.7045938" lon="10.0153184"><ele>102.0</ele><time>2026-04-25T15:43:06.828Z</time></trkpt><trkpt lat="33.7043921" lon="10.0153201"><ele>101.66666666666666</ele><time>2026-04-25T15:43:07.835Z</time></trkpt><trkpt lat="33.7041908" lon="10.0153184"><ele>101.33333333333333</ele><time>2026-04-25T15:43:08.854Z</time></trkpt><trkpt lat="33.7039905" lon="10.0153186"><ele>101.0</ele><time>2026-04-25T15:43:09.847Z</time></trkpt><trkpt lat="33.7037976" lon="10.0153191"><ele>101.0</ele><time>2026-04-25T15:43:10.833Z</time></trkpt><trkpt lat="33.7036097" lon="10.0153213"><ele>101.0</ele><time>2026-04-25T15:43:11.841Z</time></trkpt><trkpt lat="33.7034259" lon="10.0153201"><ele>101.0</ele><time>2026-04-25T15:43:12.843Z</time></trkpt><trkpt lat="33.7032422" lon="10.0153183"><ele>101.33333333333333</ele><time>2026-04-25T15:43:13.836Z</time></trkpt><trkpt lat="33.7030575" lon="10.0153165"><ele>101.66666666666666</ele><time>2026-04-25T15:43:14.845Z</time></trkpt><trkpt lat="33.702874" lon="10.0153176"><ele>102.0</ele><time>2026-04-25T15:43:15.824Z</time></trkpt><trkpt lat="33.702687" lon="10.0153157"><ele>102.0</ele><time>2026-04-25T15:43:16.818Z</time></trkpt><trkpt lat="33.7024969" lon="10.015316"><ele>102.0</ele><time>2026-04-25T15:43:17.841Z</time></trkpt><trkpt lat="33.7023061" lon="10.0153161"><ele>102.0</ele><time>2026-04-25T15:43:18.829Z</time></trkpt><trkpt lat="33.7021186" lon="10.015316"><ele>102.0</ele><time>2026-04-25T15:43:19.843Z</time></trkpt><trkpt lat="33.7019309" lon="10.0153152"><ele>102.0</ele><time>2026-04-25T15:43:20.843Z</time></trkpt><trkpt lat="33.7017426" lon="10.0153158"><ele>102.0</ele><time>2026-04-25T15:43:21.836Z</time></trkpt><trkpt lat="33.701553" lon="10.0153188"><ele>102.33333333333334</ele><time>2026-04-25T15:43:22.837Z</time></trkpt><trkpt lat="33.701363" lon="10.0153233"><ele>102.66666666666667</ele><time>2026-04-25T15:43:23.826Z</time></trkpt><trkpt lat="33.7011722" lon="10.015326"><ele>103.0</ele><time>2026-04-25T15:43:24.836Z</time></trkpt><trkpt lat="33.70098" lon="10.0153231"><ele>103.66666666666667</ele><time>2026-04-25T15:43:25.831Z</time></trkpt><trkpt lat="33.70079" lon="10.01532"><ele>104.33333333333334</ele><time>2026-04-25T15:43:26.843Z</time></trkpt><trkpt lat="33.7005969" lon="10.0153182"><ele>105.0</ele><time>2026-04-25T15:43:27.837Z</time></trkpt><trkpt lat="33.7004039" lon="10.0153193"><ele>105.33333333333334</ele><time>2026-04-25T15:43:28.828Z</time></trkpt><trkpt lat="33.7002115" lon="10.015323"><ele>105.66666666666667</ele><time>2026-04-25T15:43:29.829Z</time></trkpt><trkpt lat="33.7000203" lon="10.015325"><ele>106.0</ele><time>2026-04-25T15:43:30.842Z</time></trkpt><trkpt lat="33.6998297" lon="10.0153253"><ele>106.0</ele><time>2026-04-25T15:43:31.86Z</time></trkpt><trkpt lat="33.6996382" lon="10.0153276"><ele>106.0</ele><time>2026-04-25T15:43:32.864Z</time></trkpt><trkpt lat="33.6994465" lon="10.0153269"><ele>106.0</ele><time>2026-04-25T15:43:33.826Z</time></trkpt><trkpt lat="33.6992541" lon="10.0153269"><ele>106.0</ele><time>2026-04-25T15:43:34.833Z</time></trkpt><trkpt lat="33.6990659" lon="10.0153286"><ele>106.0</ele><time>2026-04-25T15:43:35.831Z</time></trkpt><trkpt lat="33.6988714" lon="10.0153289"><ele>106.0</ele><time>2026-04-25T15:43:36.829Z</time></trkpt><trkpt lat="33.6986779" lon="10.0153298"><ele>106.66666666666667</ele><time>2026-04-25T15:43:37.84Z</time></trkpt><trkpt lat="33.6984837" lon="10.0153302"><ele>107.33333333333334</ele><time>2026-04-25T15:43:38.832Z</time></trkpt><trkpt lat="33.6982893" lon="10.0153307"><ele>108.0</ele><time>2026-04-25T15:43:39.82Z</time></trkpt><trkpt lat="33.6980945" lon="10.0153291"><ele>108.0</ele><time>2026-04-25T15:43:40.828Z</time></trkpt><trkpt lat="33.697903" lon="10.0153284"><ele>108.0</ele><time>2026-04-25T15:43:41.838Z</time></trkpt><trkpt lat="33.6977112" lon="10.0153291"><ele>108.0</ele><time>2026-04-25T15:43:42.831Z</time></trkpt><trkpt lat="33.6975183" lon="10.0153301"><ele>108.33333333333334</ele><time>2026-04-25T15:43:43.839Z</time></trkpt><trkpt lat="33.6973268" lon="10.0153305"><ele>108.66666666666667</ele><time>2026-04-25T15:43:44.839Z</time></trkpt><trkpt lat="33.6971352" lon="10.0153333"><ele>109.0</ele><time>2026-04-25T15:43:45.84Z</time></trkpt><trkpt lat="33.6969411" lon="10.0153334"><ele>109.0</ele><time>2026-04-25T15:43:46.839Z</time></trkpt><trkpt lat="33.6967488" lon="10.0153342"><ele>109.0</ele><time>2026-04-25T15:43:47.836Z</time></trkpt><trkpt lat="33.696557" lon="10.0153345"><ele>109.0</ele><time>2026-04-25T15:43:48.844Z</time></trkpt><trkpt lat="33.6963666" lon="10.0153354"><ele>109.0</ele><time>2026-04-25T15:43:49.828Z</time></trkpt><trkpt lat="33.6961733" lon="10.0153363"><ele>109.0</ele><time>2026-04-25T15:43:50.82Z</time></trkpt><trkpt lat="33.6959789" lon="10.0153381"><ele>109.0</ele><time>2026-04-25T15:43:51.836Z</time></trkpt><trkpt lat="33.6957881" lon="10.0153409"><ele>109.0</ele><time>2026-04-25T15:43:52.831Z</time></trkpt><trkpt lat="33.6955967" lon="10.015344"><ele>109.0</ele><time>2026-04-25T15:43:53.838Z</time></trkpt><trkpt lat="33.6954056" lon="10.0153454"><ele>109.0</ele><time>2026-04-25T15:43:54.834Z</time></trkpt><trkpt lat="33.6952144" lon="10.015346"><ele>109.33333333333334</ele><time>2026-04-25T15:43:55.829Z</time></trkpt><trkpt lat="33.6950228" lon="10.0153497"><ele>109.66666666666666</ele><time>2026-04-25T15:43:56.822Z</time></trkpt><trkpt lat="33.6948289" lon="10.0153559"><ele>110.0</ele><time>2026-04-25T15:43:57.838Z</time></trkpt><trkpt lat="33.6946361" lon="10.0153612"><ele>110.0</ele><time>2026-04-25T15:43:58.829Z</time></trkpt><trkpt lat="33.6944428" lon="10.015366"><ele>110.0</ele><time>2026-04-25T15:43:59.833Z</time></trkpt><trkpt lat="33.6942518" lon="10.0153699"><ele>110.0</ele><time>2026-04-25T15:44:00.832Z</time></trkpt><trkpt lat="33.6940616" lon="10.0153729"><ele>110.0</ele><time>2026-04-25T15:44:01.841Z</time></trkpt><trkpt lat="33.6938705" lon="10.0153735"><ele>110.0</ele><time>2026-04-25T15:44:02.841Z</time></trkpt><trkpt lat="33.693679" lon="10.0153763"><ele>110.0</ele><time>2026-04-25T15:44:03.821Z</time></trkpt><trkpt lat="33.6934838" lon="10.015382"><ele>110.66666666666666</ele><time>2026-04-25T15:44:04.844Z</time></trkpt><trkpt lat="33.6932907" lon="10.0153844"><ele>111.33333333333334</ele><time>2026-04-25T15:44:05.846Z</time></trkpt><trkpt lat="33.6930993" lon="10.0153827"><ele>112.0</ele><time>2026-04-25T15:44:06.818Z</time></trkpt><trkpt lat="33.6929049" lon="10.0153809"><ele>112.0</ele><time>2026-04-25T15:44:07.829Z</time></trkpt><trkpt lat="33.6927105" lon="10.0153816"><ele>112.0</ele><time>2026-04-25T15:44:08.845Z</time></trkpt><trkpt lat="33.6925179" lon="10.0153821"><ele>112.0</ele><time>2026-04-25T15:44:09.831Z</time></trkpt><trkpt lat="33.6923242" lon="10.0153837"><ele>112.0</ele><time>2026-04-25T15:44:10.834Z</time></trkpt><trkpt lat="33.6921319" lon="10.0153845"><ele>112.0</ele><time>2026-04-25T15:44:11.815Z</time></trkpt><trkpt lat="33.6919373" lon="10.0153834"><ele>112.0</ele><time>2026-04-25T15:44:12.835Z</time></trkpt><trkpt lat="33.6917449" lon="10.0153778"><ele>112.33333333333334</ele><time>2026-04-25T15:44:13.82Z</time></trkpt><trkpt lat="33.6915502" lon="10.0153666"><ele>112.66666666666666</ele><time>2026-04-25T15:44:14.833Z</time></trkpt><trkpt lat="33.6913578" lon="10.0153527"><ele>113.0</ele><time>2026-04-25T15:44:15.832Z</time></trkpt><trkpt lat="33.6911655" lon="10.0153455"><ele>113.0</ele><time>2026-04-25T15:44:16.826Z</time></trkpt><trkpt lat="33.6909731" lon="10.0153442"><ele>113.0</ele><time>2026-04-25T15:44:17.829Z</time></trkpt><trkpt lat="33.6907815" lon="10.0153473"><ele>113.0</ele><time>2026-04-25T15:44:18.835Z</time></trkpt><trkpt lat="33.6905876" lon="10.0153482"><ele>113.0</ele><time>2026-04-25T15:44:19.84Z</time></trkpt><trkpt lat="33.6903883" lon="10.0153493"><ele>113.0</ele><time>2026-04-25T15:44:20.826Z</time></trkpt><trkpt lat="33.6901816" lon="10.0153497"><ele>113.0</ele><time>2026-04-25T15:44:21.832Z</time></trkpt><trkpt lat="33.689971" lon="10.0153504"><ele>113.66666666666666</ele><time>2026-04-25T15:44:22.831Z</time></trkpt><trkpt lat="33.6897584" lon="10.0153482"><ele>114.33333333333334</ele><time>2026-04-25T15:44:23.841Z</time></trkpt><trkpt lat="33.6895488" lon="10.0153492"><ele>115.0</ele><time>2026-04-25T15:44:24.829Z</time></trkpt><trkpt lat="33.6893382" lon="10.0153519"><ele>115.0</ele><time>2026-04-25T15:44:25.824Z</time></trkpt><trkpt lat="33.6891254" lon="10.0153519"><ele>115.0</ele><time>2026-04-25T15:44:26.841Z</time></trkpt><trkpt lat="33.6889138" lon="10.0153505"><ele>115.0</ele><time>2026-04-25T15:44:27.837Z</time></trkpt><trkpt lat="33.6887032" lon="10.0153472"><ele>115.66666666666667</ele><time>2026-04-25T15:44:28.831Z</time></trkpt><trkpt lat="33.6884951" lon="10.0153445"><ele>116.33333333333334</ele><time>2026-04-25T15:44:29.831Z</time></trkpt><trkpt lat="33.6882903" lon="10.0153432"><ele>117.0</ele><time>2026-04-25T15:44:30.823Z</time></trkpt><trkpt lat="33.6880826" lon="10.015342"><ele>117.0</ele><time>2026-04-25T15:44:31.835Z</time></trkpt><trkpt lat="33.6878754" lon="10.0153436"><ele>117.0</ele><time>2026-04-25T15:44:32.839Z</time></trkpt><trkpt lat="33.6876676" lon="10.0153455"><ele>117.0</ele><time>2026-04-25T15:44:33.842Z</time></trkpt><trkpt lat="33.6874588" lon="10.0153479"><ele>117.0</ele><time>2026-04-25T15:44:34.846Z</time></trkpt><trkpt lat="33.6872527" lon="10.0153477"><ele>117.0</ele><time>2026-04-25T15:44:35.835Z</time></trkpt><trkpt lat="33.6870472" lon="10.0153464"><ele>117.0</ele><time>2026-04-25T15:44:36.836Z</time></trkpt><trkpt lat="33.6868439" lon="10.0153475"><ele>117.33333333333334</ele><time>2026-04-25T15:44:37.828Z</time></trkpt><trkpt lat="33.6866428" lon="10.0153476"><ele>117.66666666666667</ele><time>2026-04-25T15:44:38.837Z</time></trkpt><trkpt lat="33.6864345" lon="10.0153438"><ele>118.0</ele><time>2026-04-25T15:44:39.833Z</time></trkpt><trkpt lat="33.6862288" lon="10.0153416"><ele>117.66666666666667</ele><time>2026-04-25T15:44:40.825Z</time></trkpt><trkpt lat="33.6860249" lon="10.0153422"><ele>117.33333333333334</ele><time>2026-04-25T15:44:41.827Z</time></trkpt><trkpt lat="33.6858229" lon="10.0153434"><ele>117.0</ele><time>2026-04-25T15:44:42.825Z</time></trkpt><trkpt lat="33.6856233" lon="10.0153433"><ele>117.0</ele><time>2026-04-25T15:44:43.839Z</time></trkpt><trkpt lat="33.6854279" lon="10.0153432"><ele>117.0</ele><time>2026-04-25T15:44:44.83Z</time></trkpt><trkpt lat="33.6852298" lon="10.0153447"><ele>117.0</ele><time>2026-04-25T15:44:45.835Z</time></trkpt><trkpt lat="33.6850324" lon="10.0153453"><ele>117.66666666666666</ele><time>2026-04-25T15:44:46.832Z</time></trkpt><trkpt lat="33.6848317" lon="10.015348"><ele>118.33333333333333</ele><time>2026-04-25T15:44:47.85Z</time></trkpt><trkpt lat="33.6846305" lon="10.0153479"><ele>119.0</ele><time>2026-04-25T15:44:48.842Z</time></trkpt><trkpt lat="33.6844288" lon="10.0153463"><ele>119.0</ele><time>2026-04-25T15:44:49.837Z</time></trkpt><trkpt lat="33.6842261" lon="10.0153463"><ele>119.0</ele><time>2026-04-25T15:44:50.838Z</time></trkpt><trkpt lat="33.6840229" lon="10.0153467"><ele>119.0</ele><time>2026-04-25T15:44:51.843Z</time></trkpt><trkpt lat="33.6838204" lon="10.015348"><ele>119.0</ele><time>2026-04-25T15:44:52.849Z</time></trkpt><trkpt lat="33.6836196" lon="10.0153501"><ele>119.0</ele><time>2026-04-25T15:44:53.842Z</time></trkpt><trkpt lat="33.6834209" lon="10.0153526"><ele>119.0</ele><time>2026-04-25T15:44:54.832Z</time></trkpt><trkpt lat="33.6832212" lon="10.0153562"><ele>119.0</ele><time>2026-04-25T15:44:55.837Z</time></trkpt><trkpt lat="33.6830215" lon="10.0153571"><ele>119.0</ele><time>2026-04-25T15:44:56.838Z</time></trkpt><trkpt lat="33.6828216" lon="10.015356"><ele>119.0</ele><time>2026-04-25T15:44:57.819Z</time></trkpt><trkpt lat="33.6826188" lon="10.0153577"><ele>119.33333333333333</ele><time>2026-04-25T15:44:58.832Z</time></trkpt><trkpt lat="33.6824214" lon="10.0153593"><ele>119.66666666666666</ele><time>2026-04-25T15:44:59.822Z</time></trkpt><trkpt lat="33.6822252" lon="10.0153621"><ele>120.0</ele><time>2026-04-25T15:45:00.854Z</time></trkpt><trkpt lat="33.6820311" lon="10.0153623"><ele>120.0</ele><time>2026-04-25T15:45:01.847Z</time></trkpt><trkpt lat="33.6818376" lon="10.0153614"><ele>120.0</ele><time>2026-04-25T15:45:02.828Z</time></trkpt><trkpt lat="33.6816453" lon="10.0153596"><ele>120.0</ele><time>2026-04-25T15:45:03.835Z</time></trkpt><trkpt lat="33.6814552" lon="10.0153637"><ele>120.0</ele><time>2026-04-25T15:45:04.837Z</time></trkpt><trkpt lat="33.6812647" lon="10.0153679"><ele>120.0</ele><time>2026-04-25T15:45:05.853Z</time></trkpt><trkpt lat="33.6810759" lon="10.0153718"><ele>120.0</ele><time>2026-04-25T15:45:06.836Z</time></trkpt><trkpt lat="33.6808845" lon="10.0153724"><ele>120.0</ele><time>2026-04-25T15:45:07.82Z</time></trkpt><trkpt lat="33.6806902" lon="10.015373"><ele>120.0</ele><time>2026-04-25T15:45:08.831Z</time></trkpt><trkpt lat="33.6804963" lon="10.0153697"><ele>120.0</ele><time>2026-04-25T15:45:09.841Z</time></trkpt><trkpt lat="33.6803038" lon="10.0153659"><ele>121.0</ele><time>2026-04-25T15:45:10.836Z</time></trkpt><trkpt lat="33.6801117" lon="10.0153642"><ele>122.0</ele><time>2026-04-25T15:45:11.834Z</time></trkpt><trkpt lat="33.6799184" lon="10.0153611"><ele>123.0</ele><time>2026-04-25T15:45:12.838Z</time></trkpt><trkpt lat="33.6797264" lon="10.0153599"><ele>123.0</ele><time>2026-04-25T15:45:13.838Z</time></trkpt><trkpt lat="33.6795331" lon="10.015359"><ele>123.0</ele><time>2026-04-25T15:45:14.842Z</time></trkpt><trkpt lat="33.6793432" lon="10.0153605"><ele>123.0</ele><time>2026-04-25T15:45:15.838Z</time></trkpt><trkpt lat="33.6791516" lon="10.0153631"><ele>122.66666666666666</ele><time>2026-04-25T15:45:16.841Z</time></trkpt><trkpt lat="33.67896" lon="10.0153662"><ele>122.33333333333333</ele><time>2026-04-25T15:45:17.841Z</time></trkpt><trkpt lat="33.6787694" lon="10.0153693"><ele>122.0</ele><time>2026-04-25T15:45:18.834Z</time></trkpt><trkpt lat="33.6785772" lon="10.0153724"><ele>121.33333333333333</ele><time>2026-04-25T15:45:19.841Z</time></trkpt><trkpt lat="33.6783853" lon="10.0153742"><ele>120.66666666666666</ele><time>2026-04-25T15:45:20.829Z</time></trkpt><trkpt lat="33.6781895" lon="10.0153761"><ele>120.0</ele><time>2026-04-25T15:45:21.844Z</time></trkpt><trkpt lat="33.6779958" lon="10.0153747"><ele>120.0</ele><time>2026-04-25T15:45:22.844Z</time></trkpt><trkpt lat="33.677804" lon="10.0153749"><ele>120.0</ele><time>2026-04-25T15:45:23.831Z</time></trkpt><trkpt lat="33.6776123" lon="10.015377"><ele>120.0</ele><time>2026-04-25T15:45:24.829Z</time></trkpt><trkpt lat="33.677418" lon="10.015376"><ele>121.66666666666666</ele><time>2026-04-25T15:45:25.851Z</time></trkpt><trkpt lat="33.677239" lon="10.0153751"><ele>123.33333333333333</ele><time>2026-04-25T15:45:26.834Z</time></trkpt><trkpt lat="33.6770765" lon="10.0153741"><ele>125.0</ele><time>2026-04-25T15:45:27.822Z</time></trkpt><trkpt lat="33.6769303" lon="10.0153753"><ele>125.2</ele><time>2026-04-25T15:45:28.823Z</time></trkpt><trkpt lat="33.6768006" lon="10.015377"><ele>125.4</ele><time>2026-04-25T15:45:29.833Z</time></trkpt><trkpt lat="33.6766884" lon="10.0153753"><ele>125.6</ele><time>2026-04-25T15:45:30.832Z</time></trkpt><trkpt lat="33.6766059" lon="10.0153723"><ele>125.8</ele><time>2026-04-25T15:45:31.837Z</time></trkpt><trkpt lat="33.6765365" lon="10.0153698"><ele>126.0</ele><time>2026-04-25T15:45:32.832Z</time></trkpt><trkpt lat="33.6764582" lon="10.0153678"><ele>126.0</ele><time>2026-04-25T15:45:33.833Z</time></trkpt><trkpt lat="33.6763682" lon="10.0153657"><ele>126.0</ele><time>2026-04-25T15:45:34.832Z</time></trkpt><trkpt lat="33.6762763" lon="10.0153636"><ele>126.0</ele><time>2026-04-25T15:45:35.839Z</time></trkpt><trkpt lat="33.6761804" lon="10.0153584"><ele>126.0</ele><time>2026-04-25T15:45:36.84Z</time></trkpt><trkpt lat="33.6760806" lon="10.0153498"><ele>126.0</ele><time>2026-04-25T15:45:37.83Z</time></trkpt><trkpt lat="33.675974" lon="10.0153388"><ele>125.75</ele><time>2026-04-25T15:45:38.83Z</time></trkpt><trkpt lat="33.6758585" lon="10.0153279"><ele>125.5</ele><time>2026-04-25T15:45:39.846Z</time></trkpt><trkpt lat="33.675736" lon="10.0153105"><ele>125.25</ele><time>2026-04-25T15:45:40.843Z</time></trkpt><trkpt lat="33.6756075" lon="10.0152865"><ele>125.0</ele><time>2026-04-25T15:45:41.836Z</time></trkpt><trkpt lat="33.675474" lon="10.0152622"><ele>125.0</ele><time>2026-04-25T15:45:42.827Z</time></trkpt><trkpt lat="33.675335" lon="10.0152418"><ele>125.0</ele><time>2026-04-25T15:45:43.821Z</time></trkpt><trkpt lat="33.6751891" lon="10.0152231"><ele>125.0</ele><time>2026-04-25T15:45:44.834Z</time></trkpt><trkpt lat="33.6750402" lon="10.0152043"><ele>125.0</ele><time>2026-04-25T15:45:45.838Z</time></trkpt><trkpt lat="33.6748897" lon="10.0151859"><ele>125.66666666666666</ele><time>2026-04-25T15:45:46.837Z</time></trkpt><trkpt lat="33.6747362" lon="10.0151654"><ele>126.33333333333334</ele><time>2026-04-25T15:45:47.836Z</time></trkpt><trkpt lat="33.6745809" lon="10.015145"><ele>127.0</ele><time>2026-04-25T15:45:48.832Z</time></trkpt><trkpt lat="33.6744243" lon="10.015124"><ele>127.0</ele><time>2026-04-25T15:45:49.835Z</time></trkpt><trkpt lat="33.6742677" lon="10.0151002"><ele>127.0</ele><time>2026-04-25T15:45:50.827Z</time></trkpt><trkpt lat="33.6741146" lon="10.0150774"><ele>127.0</ele><time>2026-04-25T15:45:51.836Z</time></trkpt><trkpt lat="33.6739712" lon="10.0150568"><ele>127.0</ele><time>2026-04-25T15:45:52.833Z</time></trkpt><trkpt lat="33.6738416" lon="10.0150376"><ele>126.99999999999999</ele><time>2026-04-25T15:45:53.835Z</time></trkpt><trkpt lat="33.6737319" lon="10.0150218"><ele>126.99999999999999</ele><time>2026-04-25T15:45:54.834Z</time></trkpt><trkpt lat="33.6736427" lon="10.0150072"><ele>127.0</ele><time>2026-04-25T15:45:55.842Z</time></trkpt><trkpt lat="33.6735638" lon="10.0149946"><ele>127.0</ele><time>2026-04-25T15:45:56.854Z</time></trkpt><trkpt lat="33.6734859" lon="10.0149829"><ele>127.0</ele><time>2026-04-25T15:45:57.832Z</time></trkpt><trkpt lat="33.6733912" lon="10.0149703"><ele>126.99999999999999</ele><time>2026-04-25T15:45:58.827Z</time></trkpt><trkpt lat="33.6732808" lon="10.0149593"><ele>126.99999999999999</ele><time>2026-04-25T15:45:59.832Z</time></trkpt><trkpt lat="33.6731634" lon="10.0149455"><ele>127.0</ele><time>2026-04-25T15:46:00.836Z</time></trkpt><trkpt lat="33.6730427" lon="10.0149299"><ele>127.0</ele><time>2026-04-25T15:46:01.832Z</time></trkpt><trkpt lat="33.6729263" lon="10.0149098"><ele>127.0</ele><time>2026-04-25T15:46:02.832Z</time></trkpt><trkpt lat="33.6728008" lon="10.0148899"><ele>127.0</ele><time>2026-04-25T15:46:03.817Z</time></trkpt><trkpt lat="33.6726699" lon="10.0148707"><ele>127.0</ele><time>2026-04-25T15:46:04.823Z</time></trkpt><trkpt lat="33.6725285" lon="10.014851"><ele>127.0</ele><time>2026-04-25T15:46:05.834Z</time></trkpt><trkpt lat="33.6723847" lon="10.0148303"><ele>127.0</ele><time>2026-04-25T15:46:06.838Z</time></trkpt><trkpt lat="33.6722408" lon="10.014812"><ele>127.0</ele><time>2026-04-25T15:46:07.838Z</time></trkpt><trkpt lat="33.6720925" lon="10.0147945"><ele>127.0</ele><time>2026-04-25T15:46:08.848Z</time></trkpt><trkpt lat="33.6719419" lon="10.0147733"><ele>127.0</ele><time>2026-04-25T15:46:09.83Z</time></trkpt><trkpt lat="33.6717955" lon="10.0147506"><ele>126.75</ele><time>2026-04-25T15:46:10.833Z</time></trkpt><trkpt lat="33.6716477" lon="10.014728"><ele>126.5</ele><time>2026-04-25T15:46:11.83Z</time></trkpt><trkpt lat="33.6715" lon="10.0147055"><ele>126.25</ele><time>2026-04-25T15:46:12.851Z</time></trkpt><trkpt lat="33.6713517" lon="10.0146835"><ele>126.0</ele><time>2026-04-25T15:46:13.834Z</time></trkpt><trkpt lat="33.6712028" lon="10.0146606"><ele>127.0</ele><time>2026-04-25T15:46:14.827Z</time></trkpt><trkpt lat="33.671053" lon="10.0146357"><ele>128.0</ele><time>2026-04-25T15:46:15.839Z</time></trkpt><trkpt lat="33.6709038" lon="10.0146105"><ele>129.0</ele><time>2026-04-25T15:46:16.825Z</time></trkpt><trkpt lat="33.6707531" lon="10.0145879"><ele>129.0</ele><time>2026-04-25T15:46:17.83Z</time></trkpt><trkpt lat="33.6706006" lon="10.0145681"><ele>129.0</ele><time>2026-04-25T15:46:18.812Z</time></trkpt><trkpt lat="33.67045" lon="10.014546"><ele>129.0</ele><time>2026-04-25T15:46:19.839Z</time></trkpt><trkpt lat="33.6703048" lon="10.0145237"><ele>128.75</ele><time>2026-04-25T15:46:20.815Z</time></trkpt><trkpt lat="33.6701684" lon="10.014502"><ele>128.5</ele><time>2026-04-25T15:46:21.826Z</time></trkpt><trkpt lat="33.67004" lon="10.0144807"><ele>128.25</ele><time>2026-04-25T15:46:22.821Z</time></trkpt><trkpt lat="33.6699203" lon="10.0144631"><ele>128.0</ele><time>2026-04-25T15:46:23.829Z</time></trkpt><trkpt lat="33.6698131" lon="10.0144412"><ele>127.99999999999999</ele><time>2026-04-25T15:46:24.832Z</time></trkpt><trkpt lat="33.6697113" lon="10.0144194"><ele>128.0</ele><time>2026-04-25T15:46:25.824Z</time></trkpt><trkpt lat="33.6696196" lon="10.0144044"><ele>128.0</ele><time>2026-04-25T15:46:26.854Z</time></trkpt><trkpt lat="33.6695389" lon="10.0143902"><ele>128.0</ele><time>2026-04-25T15:46:27.83Z</time></trkpt><trkpt lat="33.6694649" lon="10.0143828"><ele>127.99999999999999</ele><time>2026-04-25T15:46:28.831Z</time></trkpt><trkpt lat="33.6693937" lon="10.0143781"><ele>128.0</ele><time>2026-04-25T15:46:29.823Z</time></trkpt><trkpt lat="33.6692847" lon="10.0143731"><ele>128.33333333333331</ele><time>2026-04-25T15:46:31.829Z</time></trkpt><trkpt lat="33.6692164" lon="10.0143553"><ele>128.66666666666666</ele><time>2026-04-25T15:46:33.843Z</time></trkpt><trkpt lat="33.6691478" lon="10.014332"><ele>129.0</ele><time>2026-04-25T15:46:35.827Z</time></trkpt><trkpt lat="33.6690374" lon="10.0143208"><ele>129.33333333333334</ele><time>2026-04-25T15:46:37.824Z</time></trkpt><trkpt lat="33.6689708" lon="10.0143125"><ele>129.66666666666669</ele><time>2026-04-25T15:46:38.822Z</time></trkpt><trkpt lat="33.668904" lon="10.0143045"><ele>130.0</ele><time>2026-04-25T15:46:39.834Z</time></trkpt><trkpt lat="33.6688283" lon="10.0143035"><ele>130.0</ele><time>2026-04-25T15:46:40.833Z</time></trkpt><trkpt lat="33.6687493" lon="10.014296"><ele>130.0</ele><time>2026-04-25T15:46:41.816Z</time></trkpt><trkpt lat="33.668663" lon="10.0142831"><ele>130.0</ele><time>2026-04-25T15:46:42.827Z</time></trkpt><trkpt lat="33.6685744" lon="10.0142678"><ele>130.0</ele><time>2026-04-25T15:46:43.832Z</time></trkpt><trkpt lat="33.6684881" lon="10.0142502"><ele>130.0</ele><time>2026-04-25T15:46:44.838Z</time></trkpt><trkpt lat="33.6683989" lon="10.0142387"><ele>130.0</ele><time>2026-04-25T15:46:45.842Z</time></trkpt><trkpt lat="33.6683076" lon="10.0142237"><ele>130.16666666666669</ele><time>2026-04-25T15:46:46.835Z</time></trkpt><trkpt lat="33.6682173" lon="10.0142145"><ele>130.33333333333334</ele><time>2026-04-25T15:46:47.83Z</time></trkpt><trkpt lat="33.6681283" lon="10.0142052"><ele>130.5</ele><time>2026-04-25T15:46:48.835Z</time></trkpt><trkpt lat="33.668042" lon="10.014193"><ele>130.66666666666666</ele><time>2026-04-25T15:46:49.835Z</time></trkpt><trkpt lat="33.6679569" lon="10.0141819"><ele>130.83333333333331</ele><time>2026-04-25T15:46:50.843Z</time></trkpt><trkpt lat="33.667874" lon="10.0141714"><ele>131.0</ele><time>2026-04-25T15:46:51.832Z</time></trkpt><trkpt lat="33.6677893" lon="10.014159"><ele>130.6</ele><time>2026-04-25T15:46:52.828Z</time></trkpt><trkpt lat="33.6677025" lon="10.0141458"><ele>130.2</ele><time>2026-04-25T15:46:53.844Z</time></trkpt><trkpt lat="33.6676134" lon="10.01413"><ele>129.8</ele><time>2026-04-25T15:46:54.83Z</time></trkpt><trkpt lat="33.6675227" lon="10.0141141"><ele>129.4</ele><time>2026-04-25T15:46:55.84Z</time></trkpt><trkpt lat="33.6674281" lon="10.0141011"><ele>129.0</ele><time>2026-04-25T15:46:56.821Z</time></trkpt><trkpt lat="33.6673336" lon="10.0140854"><ele>129.0</ele><time>2026-04-25T15:46:57.83Z</time></trkpt><trkpt lat="33.6672411" lon="10.0140681"><ele>129.0</ele><time>2026-04-25T15:46:58.828Z</time></trkpt><trkpt lat="33.6671456" lon="10.0140527"><ele>129.0</ele><time>2026-04-25T15:46:59.829Z</time></trkpt><trkpt lat="33.6670497" lon="10.0140378"><ele>129.0</ele><time>2026-04-25T15:47:00.834Z</time></trkpt><trkpt lat="33.6669541" lon="10.0140229"><ele>129.0</ele><time>2026-04-25T15:47:01.843Z</time></trkpt><trkpt lat="33.6668586" lon="10.0140052"><ele>129.4</ele><time>2026-04-25T15:47:02.832Z</time></trkpt><trkpt lat="33.6667625" lon="10.0139897"><ele>129.8</ele><time>2026-04-25T15:47:03.84Z</time></trkpt><trkpt lat="33.6666682" lon="10.0139791"><ele>130.2</ele><time>2026-04-25T15:47:04.835Z</time></trkpt><trkpt lat="33.6665738" lon="10.0139645"><ele>130.6</ele><time>2026-04-25T15:47:05.83Z</time></trkpt><trkpt lat="33.6664786" lon="10.0139499"><ele>131.0</ele><time>2026-04-25T15:47:06.822Z</time></trkpt><trkpt lat="33.6663831" lon="10.0139317"><ele>131.0</ele><time>2026-04-25T15:47:07.826Z</time></trkpt><trkpt lat="33.666286" lon="10.0139145"><ele>131.0</ele><time>2026-04-25T15:47:08.827Z</time></trkpt><trkpt lat="33.666184" lon="10.0138986"><ele>131.0</ele><time>2026-04-25T15:47:09.826Z</time></trkpt><trkpt lat="33.6660822" lon="10.0138842"><ele>131.0</ele><time>2026-04-25T15:47:10.831Z</time></trkpt><trkpt lat="33.6659781" lon="10.0138678"><ele>131.0</ele><time>2026-04-25T15:47:11.828Z</time></trkpt><trkpt lat="33.6658778" lon="10.0138492"><ele>131.2</ele><time>2026-04-25T15:47:12.832Z</time></trkpt><trkpt lat="33.6657738" lon="10.0138306"><ele>131.39999999999998</ele><time>2026-04-25T15:47:13.817Z</time></trkpt><trkpt lat="33.6656667" lon="10.0138145"><ele>131.6</ele><time>2026-04-25T15:47:14.828Z</time></trkpt><trkpt lat="33.6655586" lon="10.0137992"><ele>131.79999999999998</ele><time>2026-04-25T15:47:15.84Z</time></trkpt><trkpt lat="33.6654482" lon="10.0137841"><ele>132.0</ele><time>2026-04-25T15:47:16.83Z</time></trkpt><trkpt lat="33.6653389" lon="10.013768"><ele>132.4</ele><time>2026-04-25T15:47:17.827Z</time></trkpt><trkpt lat="33.6652249" lon="10.013752"><ele>132.79999999999998</ele><time>2026-04-25T15:47:18.836Z</time></trkpt><trkpt lat="33.6651134" lon="10.0137313"><ele>133.2</ele><time>2026-04-25T15:47:19.834Z</time></trkpt><trkpt lat="33.6650047" lon="10.0137102"><ele>133.6</ele><time>2026-04-25T15:47:20.835Z</time></trkpt><trkpt lat="33.6648947" lon="10.0136898"><ele>134.0</ele><time>2026-04-25T15:47:21.825Z</time></trkpt><trkpt lat="33.6647871" lon="10.0136669"><ele>134.0</ele><time>2026-04-25T15:47:22.831Z</time></trkpt><trkpt lat="33.6646782" lon="10.0136437"><ele>134.0</ele><time>2026-04-25T15:47:23.836Z</time></trkpt><trkpt lat="33.6645702" lon="10.0136238"><ele>134.0</ele><time>2026-04-25T15:47:24.826Z</time></trkpt><trkpt lat="33.6644643" lon="10.013603"><ele>134.0</ele><time>2026-04-25T15:47:25.84Z</time></trkpt><trkpt lat="33.6643594" lon="10.0135842"><ele>134.0</ele><time>2026-04-25T15:47:26.829Z</time></trkpt><trkpt lat="33.6642558" lon="10.0135658"><ele>134.2</ele><time>2026-04-25T15:47:27.832Z</time></trkpt><trkpt lat="33.6641513" lon="10.0135464"><ele>134.4</ele><time>2026-04-25T15:47:28.824Z</time></trkpt><trkpt lat="33.6640482" lon="10.013526"><ele>134.6</ele><time>2026-04-25T15:47:29.822Z</time></trkpt><trkpt lat="33.6639473" lon="10.0135074"><ele>134.8</ele><time>2026-04-25T15:47:30.81Z</time></trkpt><trkpt lat="33.6638482" lon="10.0134881"><ele>135.0</ele><time>2026-04-25T15:47:31.841Z</time></trkpt><trkpt lat="33.6637529" lon="10.0134705"><ele>135.0</ele><time>2026-04-25T15:47:32.835Z</time></trkpt><trkpt lat="33.663657" lon="10.0134565"><ele>135.0</ele><time>2026-04-25T15:47:33.831Z</time></trkpt><trkpt lat="33.6635578" lon="10.0134407"><ele>135.0</ele><time>2026-04-25T15:47:34.827Z</time></trkpt><trkpt lat="33.6634583" lon="10.0134209"><ele>135.0</ele><time>2026-04-25T15:47:35.809Z</time></trkpt><trkpt lat="33.6633579" lon="10.0134002"><ele>135.0</ele><time>2026-04-25T15:47:36.828Z</time></trkpt><trkpt lat="33.6632585" lon="10.0133804"><ele>134.8</ele><time>2026-04-25T15:47:37.822Z</time></trkpt><trkpt lat="33.6631574" lon="10.0133567"><ele>134.6</ele><time>2026-04-25T15:47:38.825Z</time></trkpt><trkpt lat="33.6630554" lon="10.0133345"><ele>134.4</ele><time>2026-04-25T15:47:39.833Z</time></trkpt><trkpt lat="33.6629527" lon="10.0133166"><ele>134.2</ele><time>2026-04-25T15:47:40.825Z</time></trkpt><trkpt lat="33.6628481" lon="10.0132939"><ele>134.0</ele><time>2026-04-25T15:47:41.822Z</time></trkpt><trkpt lat="33.6627452" lon="10.0132723"><ele>134.0</ele><time>2026-04-25T15:47:42.827Z</time></trkpt><trkpt lat="33.6626386" lon="10.013249"><ele>134.0</ele><time>2026-04-25T15:47:43.833Z</time></trkpt><trkpt lat="33.6625332" lon="10.013225"><ele>134.0</ele><time>2026-04-25T15:47:44.83Z</time></trkpt><trkpt lat="33.662425" lon="10.013203"><ele>134.0</ele><time>2026-04-25T15:47:45.84Z</time></trkpt><trkpt lat="33.6623172" lon="10.0131841"><ele>134.0</ele><time>2026-04-25T15:47:46.841Z</time></trkpt><trkpt lat="33.6622152" lon="10.0131665"><ele>134.0</ele><time>2026-04-25T15:47:47.821Z</time></trkpt><trkpt lat="33.6621163" lon="10.0131468"><ele>134.0</ele><time>2026-04-25T15:47:48.824Z</time></trkpt><trkpt lat="33.6620173" lon="10.0131271"><ele>134.0</ele><time>2026-04-25T15:47:49.825Z</time></trkpt><trkpt lat="33.6619176" lon="10.0131077"><ele>134.0</ele><time>2026-04-25T15:47:50.843Z</time></trkpt><trkpt lat="33.661815" lon="10.0130881"><ele>134.0</ele><time>2026-04-25T15:47:51.843Z</time></trkpt><trkpt lat="33.6617152" lon="10.0130691"><ele>134.0</ele><time>2026-04-25T15:47:52.824Z</time></trkpt><trkpt lat="33.6616125" lon="10.0130497"><ele>134.0</ele><time>2026-04-25T15:47:53.848Z</time></trkpt><trkpt lat="33.661516" lon="10.0130294"><ele>134.0</ele><time>2026-04-25T15:47:54.827Z</time></trkpt><trkpt lat="33.6614246" lon="10.0130134"><ele>134.0</ele><time>2026-04-25T15:47:55.812Z</time></trkpt><trkpt lat="33.6613459" lon="10.012998"><ele>134.0</ele><time>2026-04-25T15:47:56.836Z</time></trkpt><trkpt lat="33.6612797" lon="10.0129862"><ele>134.0</ele><time>2026-04-25T15:47:57.824Z</time></trkpt><trkpt lat="33.6612096" lon="10.0129729"><ele>134.0</ele><time>2026-04-25T15:47:58.83Z</time></trkpt><trkpt lat="33.6611339" lon="10.0129576"><ele>134.0</ele><time>2026-04-25T15:47:59.825Z</time></trkpt><trkpt lat="33.6610485" lon="10.0129406"><ele>134.0</ele><time>2026-04-25T15:48:00.826Z</time></trkpt><trkpt lat="33.6609461" lon="10.0129114"><ele>134.0</ele><time>2026-04-25T15:48:01.842Z</time></trkpt><trkpt lat="33.6608325" lon="10.0128885"><ele>134.0</ele><time>2026-04-25T15:48:02.832Z</time></trkpt><trkpt lat="33.6607085" lon="10.0128675"><ele>133.75</ele><time>2026-04-25T15:48:03.829Z</time></trkpt><trkpt lat="33.6605784" lon="10.0128468"><ele>133.5</ele><time>2026-04-25T15:48:04.822Z</time></trkpt><trkpt lat="33.6604511" lon="10.0128284"><ele>133.25</ele><time>2026-04-25T15:48:05.844Z</time></trkpt><trkpt lat="33.6603225" lon="10.0128055"><ele>133.0</ele><time>2026-04-25T15:48:06.829Z</time></trkpt><trkpt lat="33.6601961" lon="10.0127814"><ele>133.5</ele><time>2026-04-25T15:48:07.815Z</time></trkpt><trkpt lat="33.6600673" lon="10.012753"><ele>134.0</ele><time>2026-04-25T15:48:08.821Z</time></trkpt><trkpt lat="33.6599401" lon="10.0127281"><ele>134.5</ele><time>2026-04-25T15:48:09.834Z</time></trkpt><trkpt lat="33.6598126" lon="10.0127034"><ele>135.0</ele><time>2026-04-25T15:48:10.838Z</time></trkpt><trkpt lat="33.6596853" lon="10.0126806"><ele>135.0</ele><time>2026-04-25T15:48:11.825Z</time></trkpt><trkpt lat="33.6595599" lon="10.0126567"><ele>135.0</ele><time>2026-04-25T15:48:12.831Z</time></trkpt><trkpt lat="33.6594391" lon="10.0126335"><ele>135.0</ele><time>2026-04-25T15:48:13.843Z</time></trkpt><trkpt lat="33.6593218" lon="10.0126113"><ele>135.0</ele><time>2026-04-25T15:48:14.829Z</time></trkpt><trkpt lat="33.6592119" lon="10.0125873"><ele>134.8</ele><time>2026-04-25T15:48:15.835Z</time></trkpt><trkpt lat="33.6591026" lon="10.0125661"><ele>134.6</ele><time>2026-04-25T15:48:16.848Z</time></trkpt><trkpt lat="33.6589971" lon="10.0125492"><ele>134.4</ele><time>2026-04-25T15:48:17.84Z</time></trkpt><trkpt lat="33.6588945" lon="10.0125312"><ele>134.2</ele><time>2026-04-25T15:48:18.818Z</time></trkpt><trkpt lat="33.6587985" lon="10.01251"><ele>134.0</ele><time>2026-04-25T15:48:19.829Z</time></trkpt><trkpt lat="33.658697" lon="10.012488"><ele>134.6</ele><time>2026-04-25T15:48:20.807Z</time></trkpt><trkpt lat="33.6585918" lon="10.0124676"><ele>135.2</ele><time>2026-04-25T15:48:21.823Z</time></trkpt><trkpt lat="33.658488" lon="10.0124463"><ele>135.79999999999998</ele><time>2026-04-25T15:48:22.817Z</time></trkpt><trkpt lat="33.6583824" lon="10.0124259"><ele>136.4</ele><time>2026-04-25T15:48:23.821Z</time></trkpt><trkpt lat="33.6582776" lon="10.0124075"><ele>137.0</ele><time>2026-04-25T15:48:24.828Z</time></trkpt><trkpt lat="33.6581727" lon="10.0123894"><ele>137.0</ele><time>2026-04-25T15:48:25.843Z</time></trkpt><trkpt lat="33.658062" lon="10.012368"><ele>137.0</ele><time>2026-04-25T15:48:26.818Z</time></trkpt><trkpt lat="33.6579462" lon="10.0123449"><ele>137.0</ele><time>2026-04-25T15:48:27.823Z</time></trkpt><trkpt lat="33.6578299" lon="10.0123207"><ele>137.0</ele><time>2026-04-25T15:48:28.822Z</time></trkpt><trkpt lat="33.6577094" lon="10.0122931"><ele>137.0</ele><time>2026-04-25T15:48:29.827Z</time></trkpt><trkpt lat="33.6575928" lon="10.0122685"><ele>137.0</ele><time>2026-04-25T15:48:30.837Z</time></trkpt><trkpt lat="33.6574766" lon="10.0122452"><ele>137.0</ele><time>2026-04-25T15:48:31.828Z</time></trkpt><trkpt lat="33.6573619" lon="10.0122258"><ele>137.0</ele><time>2026-04-25T15:48:32.836Z</time></trkpt><trkpt lat="33.6572468" lon="10.0122082"><ele>137.0</ele><time>2026-04-25T15:48:33.828Z</time></trkpt><trkpt lat="33.6571307" lon="10.0121864"><ele>137.0</ele><time>2026-04-25T15:48:34.831Z</time></trkpt><trkpt lat="33.6570142" lon="10.0121633"><ele>137.0</ele><time>2026-04-25T15:48:35.822Z</time></trkpt><trkpt lat="33.6568959" lon="10.0121392"><ele>137.0</ele><time>2026-04-25T15:48:36.836Z</time></trkpt><trkpt lat="33.6567781" lon="10.0121181"><ele>137.0</ele><time>2026-04-25T15:48:37.835Z</time></trkpt><trkpt lat="33.6566645" lon="10.0120989"><ele>137.0</ele><time>2026-04-25T15:48:38.82Z</time></trkpt><trkpt lat="33.6565465" lon="10.0120743"><ele>137.0</ele><time>2026-04-25T15:48:39.842Z</time></trkpt><trkpt lat="33.6564168" lon="10.0120477"><ele>137.0</ele><time>2026-04-25T15:48:40.84Z</time></trkpt><trkpt lat="33.6562851" lon="10.0120222"><ele>137.0</ele><time>2026-04-25T15:48:41.832Z</time></trkpt><trkpt lat="33.6561487" lon="10.0119921"><ele>137.0</ele><time>2026-04-25T15:48:42.843Z</time></trkpt><trkpt lat="33.6560135" lon="10.0119659"><ele>137.0</ele><time>2026-04-25T15:48:43.845Z</time></trkpt><trkpt lat="33.6558725" lon="10.0119381"><ele>137.0</ele><time>2026-04-25T15:48:44.824Z</time></trkpt><trkpt lat="33.6557338" lon="10.0119113"><ele>137.25</ele><time>2026-04-25T15:48:45.841Z</time></trkpt><trkpt lat="33.6556029" lon="10.0118867"><ele>137.5</ele><time>2026-04-25T15:48:46.818Z</time></trkpt><trkpt lat="33.6554834" lon="10.0118659"><ele>137.75</ele><time>2026-04-25T15:48:47.831Z</time></trkpt><trkpt lat="33.6553632" lon="10.0118411"><ele>138.0</ele><time>2026-04-25T15:48:48.833Z</time></trkpt><trkpt lat="33.65525" lon="10.0118172"><ele>137.6</ele><time>2026-04-25T15:48:49.838Z</time></trkpt><trkpt lat="33.655141" lon="10.011797"><ele>137.20000000000002</ele><time>2026-04-25T15:48:50.836Z</time></trkpt><trkpt lat="33.6550371" lon="10.0117753"><ele>136.8</ele><time>2026-04-25T15:48:51.828Z</time></trkpt><trkpt lat="33.6549453" lon="10.0117568"><ele>136.4</ele><time>2026-04-25T15:48:52.831Z</time></trkpt><trkpt lat="33.6548712" lon="10.0117524"><ele>136.0</ele><time>2026-04-25T15:48:53.848Z</time></trkpt><trkpt lat="33.6548023" lon="10.0117584"><ele>136.0</ele><time>2026-04-25T15:48:54.841Z</time></trkpt><trkpt lat="33.6546947" lon="10.0117943"><ele>136.0</ele><time>2026-04-25T15:48:56.834Z</time></trkpt><trkpt lat="33.6546429" lon="10.0118568"><ele>136.0</ele><time>2026-04-25T15:48:58.828Z</time></trkpt><trkpt lat="33.6546168" lon="10.0119482"><ele>136.0</ele><time>2026-04-25T15:49:01.831Z</time></trkpt><trkpt lat="33.6546047" lon="10.0120311"><ele>136.0</ele><time>2026-04-25T15:49:05.84Z</time></trkpt><trkpt lat="33.6545249" lon="10.0120323"><ele>136.0</ele><time>2026-04-25T15:57:15.781Z</time></trkpt><trkpt lat="33.6544521" lon="10.0120144"><ele>136.16666666666669</ele><time>2026-04-25T15:57:18.748Z</time></trkpt><trkpt lat="33.6544079" lon="10.0119456"><ele>136.33333333333334</ele><time>2026-04-25T15:57:22.76Z</time></trkpt><trkpt lat="33.654401" lon="10.0118671"><ele>136.5</ele><time>2026-04-25T16:00:15.768Z</time></trkpt><trkpt lat="33.6544116" lon="10.0117784"><ele>136.66666666666666</ele><time>2026-04-25T16:00:19.769Z</time></trkpt><trkpt lat="33.6543371" lon="10.0116817"><ele>136.83333333333331</ele><time>2026-04-25T16:00:22.769Z</time></trkpt><trkpt lat="33.6542335" lon="10.0116281"><ele>137.0</ele><time>2026-04-25T16:00:24.781Z</time></trkpt><trkpt lat="33.654167" lon="10.0116054"><ele>137.0</ele><time>2026-04-25T16:00:25.791Z</time></trkpt><trkpt lat="33.654102" lon="10.0115881"><ele>137.0</ele><time>2026-04-25T16:00:26.777Z</time></trkpt><trkpt lat="33.6539814" lon="10.0115628"><ele>137.0</ele><time>2026-04-25T16:00:28.795Z</time></trkpt><trkpt lat="33.6538676" lon="10.0115466"><ele>137.0</ele><time>2026-04-25T16:00:30.772Z</time></trkpt><trkpt lat="33.6537472" lon="10.0115269"><ele>137.0</ele><time>2026-04-25T16:00:32.777Z</time></trkpt><trkpt lat="33.6536819" lon="10.0115145"><ele>136.5</ele><time>2026-04-25T16:00:33.779Z</time></trkpt><trkpt lat="33.6536192" lon="10.0115061"><ele>136.0</ele><time>2026-04-25T16:00:34.778Z</time></trkpt><trkpt lat="33.6535497" lon="10.0114979"><ele>135.5</ele><time>2026-04-25T16:00:35.775Z</time></trkpt><trkpt lat="33.6534647" lon="10.0114804"><ele>135.0</ele><time>2026-04-25T16:00:36.759Z</time></trkpt><trkpt lat="33.6533779" lon="10.0114632"><ele>134.5</ele><time>2026-04-25T16:00:37.785Z</time></trkpt><trkpt lat="33.6532876" lon="10.0114471"><ele>134.0</ele><time>2026-04-25T16:00:38.79Z</time></trkpt><trkpt lat="33.6531859" lon="10.0114232"><ele>134.0</ele><time>2026-04-25T16:00:39.777Z</time></trkpt><trkpt lat="33.6530775" lon="10.0113921"><ele>134.0</ele><time>2026-04-25T16:00:40.779Z</time></trkpt><trkpt lat="33.6529624" lon="10.0113651"><ele>134.0</ele><time>2026-04-25T16:00:41.749Z</time></trkpt><trkpt lat="33.652851" lon="10.0113414"><ele>134.0</ele><time>2026-04-25T16:00:42.782Z</time></trkpt><trkpt lat="33.6527337" lon="10.0113155"><ele>134.0</ele><time>2026-04-25T16:00:43.791Z</time></trkpt><trkpt lat="33.6526125" lon="10.0112896"><ele>134.0</ele><time>2026-04-25T16:00:44.78Z</time></trkpt><trkpt lat="33.6524914" lon="10.0112659"><ele>134.0</ele><time>2026-04-25T16:00:45.787Z</time></trkpt><trkpt lat="33.6523658" lon="10.0112443"><ele>134.0</ele><time>2026-04-25T16:00:46.785Z</time></trkpt><trkpt lat="33.6522373" lon="10.0112208"><ele>134.0</ele><time>2026-04-25T16:00:47.761Z</time></trkpt><trkpt lat="33.6521104" lon="10.0111942"><ele>134.0</ele><time>2026-04-25T16:00:48.789Z</time></trkpt><trkpt lat="33.6519806" lon="10.0111686"><ele>134.0</ele><time>2026-04-25T16:00:49.777Z</time></trkpt><trkpt lat="33.6518475" lon="10.0111416"><ele>134.0</ele><time>2026-04-25T16:00:50.782Z</time></trkpt><trkpt lat="33.651708" lon="10.0111162"><ele>134.5</ele><time>2026-04-25T16:00:51.786Z</time></trkpt><trkpt lat="33.6515645" lon="10.0110903"><ele>135.0</ele><time>2026-04-25T16:00:52.778Z</time></trkpt><trkpt lat="33.6514238" lon="10.0110705"><ele>135.5</ele><time>2026-04-25T16:00:53.766Z</time></trkpt><trkpt lat="33.6512805" lon="10.011048"><ele>136.0</ele><time>2026-04-25T16:00:54.777Z</time></trkpt><trkpt lat="33.6511374" lon="10.0110273"><ele>136.5</ele><time>2026-04-25T16:00:55.765Z</time></trkpt><trkpt lat="33.6510014" lon="10.011003"><ele>137.0</ele><time>2026-04-25T16:00:56.772Z</time></trkpt><trkpt lat="33.6508584" lon="10.01098"><ele>137.5</ele><time>2026-04-25T16:00:57.789Z</time></trkpt><trkpt lat="33.6507115" lon="10.0109603"><ele>138.0</ele><time>2026-04-25T16:00:58.78Z</time></trkpt><trkpt lat="33.6505626" lon="10.0109378"><ele>138.0</ele><time>2026-04-25T16:00:59.784Z</time></trkpt><trkpt lat="33.6504079" lon="10.0109161"><ele>138.0</ele><time>2026-04-25T16:01:00.781Z</time></trkpt><trkpt lat="33.6502557" lon="10.0109022"><ele>138.0</ele><time>2026-04-25T16:01:01.838Z</time></trkpt><trkpt lat="33.6500974" lon="10.0108841"><ele>137.66666666666666</ele><time>2026-04-25T16:01:02.775Z</time></trkpt><trkpt lat="33.6499345" lon="10.0108645"><ele>137.33333333333331</ele><time>2026-04-25T16:01:03.768Z</time></trkpt><trkpt lat="33.6497703" lon="10.0108486"><ele>137.0</ele><time>2026-04-25T16:01:04.774Z</time></trkpt><trkpt lat="33.6496109" lon="10.0108282"><ele>137.66666666666666</ele><time>2026-04-25T16:01:05.766Z</time></trkpt><trkpt lat="33.6494494" lon="10.0108118"><ele>138.33333333333334</ele><time>2026-04-25T16:01:06.773Z</time></trkpt><trkpt lat="33.6492888" lon="10.0107966"><ele>139.0</ele><time>2026-04-25T16:01:07.768Z</time></trkpt><trkpt lat="33.649128" lon="10.0107851"><ele>139.0</ele><time>2026-04-25T16:01:08.779Z</time></trkpt><trkpt lat="33.6489636" lon="10.0107706"><ele>139.0</ele><time>2026-04-25T16:01:09.772Z</time></trkpt><trkpt lat="33.6488038" lon="10.0107632"><ele>139.0</ele><time>2026-04-25T16:01:10.766Z</time></trkpt><trkpt lat="33.6486426" lon="10.010754"><ele>140.0</ele><time>2026-04-25T16:01:11.784Z</time></trkpt><trkpt lat="33.6484778" lon="10.0107412"><ele>141.0</ele><time>2026-04-25T16:01:12.78Z</time></trkpt><trkpt lat="33.6483045" lon="10.0107261"><ele>142.0</ele><time>2026-04-25T16:01:13.786Z</time></trkpt><trkpt lat="33.6481365" lon="10.0107194"><ele>142.0</ele><time>2026-04-25T16:01:14.79Z</time></trkpt><trkpt lat="33.6479633" lon="10.0107116"><ele>142.0</ele><time>2026-04-25T16:01:15.779Z</time></trkpt><trkpt lat="33.6477895" lon="10.0107"><ele>142.0</ele><time>2026-04-25T16:01:16.776Z</time></trkpt><trkpt lat="33.64762" lon="10.010696"><ele>141.0</ele><time>2026-04-25T16:01:17.776Z</time></trkpt><trkpt lat="33.6474497" lon="10.0106827"><ele>140.0</ele><time>2026-04-25T16:01:18.779Z</time></trkpt><trkpt lat="33.6472797" lon="10.0106746"><ele>139.0</ele><time>2026-04-25T16:01:19.793Z</time></trkpt><trkpt lat="33.6471111" lon="10.0106629"><ele>139.33333333333334</ele><time>2026-04-25T16:01:20.782Z</time></trkpt><trkpt lat="33.6469459" lon="10.0106508"><ele>139.66666666666666</ele><time>2026-04-25T16:01:21.788Z</time></trkpt><trkpt lat="33.6467846" lon="10.0106384"><ele>140.0</ele><time>2026-04-25T16:01:22.788Z</time></trkpt><trkpt lat="33.6466267" lon="10.0106273"><ele>140.0</ele><time>2026-04-25T16:01:23.783Z</time></trkpt><trkpt lat="33.6464672" lon="10.0106145"><ele>140.0</ele><time>2026-04-25T16:01:24.792Z</time></trkpt><trkpt lat="33.6463074" lon="10.0106051"><ele>140.0</ele><time>2026-04-25T16:01:25.773Z</time></trkpt><trkpt lat="33.6461504" lon="10.0105966"><ele>140.66666666666666</ele><time>2026-04-25T16:01:26.783Z</time></trkpt><trkpt lat="33.6459977" lon="10.0105883"><ele>141.33333333333334</ele><time>2026-04-25T16:01:27.762Z</time></trkpt><trkpt lat="33.6458435" lon="10.0105836"><ele>142.0</ele><time>2026-04-25T16:01:28.778Z</time></trkpt><trkpt lat="33.6456895" lon="10.0105716"><ele>142.0</ele><time>2026-04-25T16:01:29.77Z</time></trkpt><trkpt lat="33.6455392" lon="10.0105648"><ele>142.0</ele><time>2026-04-25T16:01:30.773Z</time></trkpt><trkpt lat="33.6453835" lon="10.0105526"><ele>142.0</ele><time>2026-04-25T16:01:31.789Z</time></trkpt><trkpt lat="33.6452236" lon="10.0105286"><ele>142.66666666666669</ele><time>2026-04-25T16:01:32.772Z</time></trkpt><trkpt lat="33.6450608" lon="10.0104965"><ele>143.33333333333334</ele><time>2026-04-25T16:01:33.782Z</time></trkpt><trkpt lat="33.6448911" lon="10.010449"><ele>144.0</ele><time>2026-04-25T16:01:34.838Z</time></trkpt><trkpt lat="33.6447233" lon="10.0104007"><ele>144.0</ele><time>2026-04-25T16:01:35.788Z</time></trkpt><trkpt lat="33.644549" lon="10.0103484"><ele>144.0</ele><time>2026-04-25T16:01:36.771Z</time></trkpt><trkpt lat="33.6443756" lon="10.0102819"><ele>144.0</ele><time>2026-04-25T16:01:37.756Z</time></trkpt><trkpt lat="33.6442005" lon="10.0102107"><ele>145.33333333333334</ele><time>2026-04-25T16:01:38.76Z</time></trkpt><trkpt lat="33.6440238" lon="10.0101392"><ele>146.66666666666669</ele><time>2026-04-25T16:01:39.788Z</time></trkpt><trkpt lat="33.6438435" lon="10.0100615"><ele>148.0</ele><time>2026-04-25T16:01:40.779Z</time></trkpt><trkpt lat="33.6436719" lon="10.0099926"><ele>147.33333333333334</ele><time>2026-04-25T16:01:41.793Z</time></trkpt><trkpt lat="33.6434987" lon="10.0099222"><ele>146.66666666666666</ele><time>2026-04-25T16:01:42.788Z</time></trkpt><trkpt lat="33.6433267" lon="10.0098569"><ele>146.0</ele><time>2026-04-25T16:01:43.783Z</time></trkpt><trkpt lat="33.6431555" lon="10.0097907"><ele>146.0</ele><time>2026-04-25T16:01:44.774Z</time></trkpt><trkpt lat="33.6429864" lon="10.0097213"><ele>146.0</ele><time>2026-04-25T16:01:45.772Z</time></trkpt><trkpt lat="33.6428177" lon="10.0096564"><ele>146.0</ele><time>2026-04-25T16:01:46.786Z</time></trkpt><trkpt lat="33.6426478" lon="10.0095825"><ele>146.0</ele><time>2026-04-25T16:01:47.777Z</time></trkpt><trkpt lat="33.6424737" lon="10.0095071"><ele>146.0</ele><time>2026-04-25T16:01:48.784Z</time></trkpt><trkpt lat="33.6422992" lon="10.0094386"><ele>146.0</ele><time>2026-04-25T16:01:49.776Z</time></trkpt><trkpt lat="33.6421265" lon="10.0093648"><ele>146.33333333333331</ele><time>2026-04-25T16:01:50.786Z</time></trkpt><trkpt lat="33.6419518" lon="10.0092986"><ele>146.66666666666666</ele><time>2026-04-25T16:01:51.786Z</time></trkpt><trkpt lat="33.6417762" lon="10.0092288"><ele>147.0</ele><time>2026-04-25T16:01:52.774Z</time></trkpt><trkpt lat="33.6416082" lon="10.0091602"><ele>146.66666666666666</ele><time>2026-04-25T16:01:53.784Z</time></trkpt><trkpt lat="33.6414392" lon="10.0090923"><ele>146.33333333333331</ele><time>2026-04-25T16:01:54.777Z</time></trkpt><trkpt lat="33.6412665" lon="10.0090197"><ele>146.0</ele><time>2026-04-25T16:01:55.767Z</time></trkpt><trkpt lat="33.6410929" lon="10.0089454"><ele>145.66666666666666</ele><time>2026-04-25T16:01:56.761Z</time></trkpt><trkpt lat="33.6409171" lon="10.0088732"><ele>145.33333333333334</ele><time>2026-04-25T16:01:57.792Z</time></trkpt><trkpt lat="33.6407374" lon="10.008793"><ele>145.0</ele><time>2026-04-25T16:01:58.783Z</time></trkpt><trkpt lat="33.6405619" lon="10.0087246"><ele>145.0</ele><time>2026-04-25T16:01:59.776Z</time></trkpt><trkpt lat="33.6403823" lon="10.0086526"><ele>145.0</ele><time>2026-04-25T16:02:00.783Z</time></trkpt><trkpt lat="33.6401977" lon="10.008577"><ele>145.0</ele><time>2026-04-25T16:02:01.791Z</time></trkpt><trkpt lat="33.6400156" lon="10.0084982"><ele>146.0</ele><time>2026-04-25T16:02:02.779Z</time></trkpt><trkpt lat="33.6398288" lon="10.008421"><ele>147.0</ele><time>2026-04-25T16:02:03.771Z</time></trkpt><trkpt lat="33.6396427" lon="10.0083448"><ele>148.0</ele><time>2026-04-25T16:02:04.789Z</time></trkpt><trkpt lat="33.6394556" lon="10.0082651"><ele>148.33333333333334</ele><time>2026-04-25T16:02:05.773Z</time></trkpt><trkpt lat="33.6392726" lon="10.008194"><ele>148.66666666666666</ele><time>2026-04-25T16:02:06.792Z</time></trkpt><trkpt lat="33.6390924" lon="10.0081122"><ele>149.0</ele><time>2026-04-25T16:02:07.774Z</time></trkpt><trkpt lat="33.6389063" lon="10.0080364"><ele>149.0</ele><time>2026-04-25T16:02:08.778Z</time></trkpt><trkpt lat="33.638726" lon="10.0079623"><ele>149.0</ele><time>2026-04-25T16:02:09.785Z</time></trkpt><trkpt lat="33.6383552" lon="10.0078119"><ele>149.66666666666666</ele><time>2026-04-25T16:02:11.773Z</time></trkpt><trkpt lat="33.6381692" lon="10.0077388"><ele>150.33333333333334</ele><time>2026-04-25T16:02:12.79Z</time></trkpt><trkpt lat="33.6379849" lon="10.0076626"><ele>151.0</ele><time>2026-04-25T16:02:13.792Z</time></trkpt><trkpt lat="33.637799" lon="10.007586"><ele>151.66666666666669</ele><time>2026-04-25T16:02:14.77Z</time></trkpt><trkpt lat="33.637617" lon="10.0075116"><ele>152.33333333333334</ele><time>2026-04-25T16:02:15.777Z</time></trkpt><trkpt lat="33.637433" lon="10.0074391"><ele>153.0</ele><time>2026-04-25T16:02:16.79Z</time></trkpt><trkpt lat="33.6372548" lon="10.0073637"><ele>153.0</ele><time>2026-04-25T16:02:17.777Z</time></trkpt><trkpt lat="33.6370743" lon="10.0072777"><ele>153.0</ele><time>2026-04-25T16:02:18.773Z</time></trkpt><trkpt lat="33.6368954" lon="10.0071845"><ele>153.0</ele><time>2026-04-25T16:02:19.792Z</time></trkpt><trkpt lat="33.6367267" lon="10.0070756"><ele>153.33333333333334</ele><time>2026-04-25T16:02:20.773Z</time></trkpt><trkpt lat="33.6365562" lon="10.0069618"><ele>153.66666666666669</ele><time>2026-04-25T16:02:21.774Z</time></trkpt><trkpt lat="33.6363864" lon="10.0068442"><ele>154.0</ele><time>2026-04-25T16:02:22.774Z</time></trkpt><trkpt lat="33.6362177" lon="10.0067261"><ele>153.0</ele><time>2026-04-25T16:02:23.79Z</time></trkpt><trkpt lat="33.6360512" lon="10.0066091"><ele>152.0</ele><time>2026-04-25T16:02:24.78Z</time></trkpt><trkpt lat="33.6358889" lon="10.0064955"><ele>151.0</ele><time>2026-04-25T16:02:25.781Z</time></trkpt><trkpt lat="33.6357259" lon="10.006381"><ele>151.0</ele><time>2026-04-25T16:02:26.767Z</time></trkpt><trkpt lat="33.6355636" lon="10.0062715"><ele>151.0</ele><time>2026-04-25T16:02:27.763Z</time></trkpt><trkpt lat="33.6354001" lon="10.0061619"><ele>151.0</ele><time>2026-04-25T16:02:28.781Z</time></trkpt><trkpt lat="33.6352343" lon="10.0060502"><ele>150.66666666666669</ele><time>2026-04-25T16:02:29.788Z</time></trkpt><trkpt lat="33.6350722" lon="10.0059389"><ele>150.33333333333334</ele><time>2026-04-25T16:02:30.775Z</time></trkpt><trkpt lat="33.6349111" lon="10.0058266"><ele>150.0</ele><time>2026-04-25T16:02:31.787Z</time></trkpt><trkpt lat="33.634747" lon="10.0057177"><ele>150.0</ele><time>2026-04-25T16:02:32.761Z</time></trkpt><trkpt lat="33.634584" lon="10.0056072"><ele>150.0</ele><time>2026-04-25T16:02:33.783Z</time></trkpt><trkpt lat="33.6344162" lon="10.0054973"><ele>150.0</ele><time>2026-04-25T16:02:34.778Z</time></trkpt><trkpt lat="33.6342506" lon="10.0053932"><ele>150.66666666666666</ele><time>2026-04-25T16:02:35.767Z</time></trkpt><trkpt lat="33.6340844" lon="10.0052953"><ele>151.33333333333331</ele><time>2026-04-25T16:02:36.788Z</time></trkpt><trkpt lat="33.633914" lon="10.0052008"><ele>152.0</ele><time>2026-04-25T16:02:37.791Z</time></trkpt><trkpt lat="33.6337422" lon="10.0051156"><ele>151.33333333333331</ele><time>2026-04-25T16:02:38.771Z</time></trkpt><trkpt lat="33.6335711" lon="10.0050334"><ele>150.66666666666666</ele><time>2026-04-25T16:02:39.76Z</time></trkpt><trkpt lat="33.6333994" lon="10.0049576"><ele>150.0</ele><time>2026-04-25T16:02:40.782Z</time></trkpt><trkpt lat="33.6332263" lon="10.0048849"><ele>149.66666666666666</ele><time>2026-04-25T16:02:41.784Z</time></trkpt><trkpt lat="33.6330481" lon="10.0048157"><ele>149.33333333333331</ele><time>2026-04-25T16:02:42.774Z</time></trkpt><trkpt lat="33.6328701" lon="10.0047511"><ele>149.0</ele><time>2026-04-25T16:02:43.786Z</time></trkpt><trkpt lat="33.6326974" lon="10.0046863"><ele>150.0</ele><time>2026-04-25T16:02:44.785Z</time></trkpt><trkpt lat="33.6325255" lon="10.0046226"><ele>151.0</ele><time>2026-04-25T16:02:45.783Z</time></trkpt><trkpt lat="33.632358" lon="10.0045655"><ele>152.0</ele><time>2026-04-25T16:02:46.795Z</time></trkpt><trkpt lat="33.6321903" lon="10.0045154"><ele>152.0</ele><time>2026-04-25T16:02:47.772Z</time></trkpt><trkpt lat="33.6320276" lon="10.0044637"><ele>152.0</ele><time>2026-04-25T16:02:48.783Z</time></trkpt><trkpt lat="33.6318624" lon="10.004422"><ele>152.0</ele><time>2026-04-25T16:02:49.774Z</time></trkpt><trkpt lat="33.6316961" lon="10.0043867"><ele>152.33333333333331</ele><time>2026-04-25T16:02:50.779Z</time></trkpt><trkpt lat="33.6315328" lon="10.0043548"><ele>152.66666666666666</ele><time>2026-04-25T16:02:51.782Z</time></trkpt><trkpt lat="33.6313682" lon="10.0043329"><ele>153.0</ele><time>2026-04-25T16:02:52.771Z</time></trkpt><trkpt lat="33.6312015" lon="10.0043076"><ele>153.66666666666666</ele><time>2026-04-25T16:02:53.78Z</time></trkpt><trkpt lat="33.6310408" lon="10.0042953"><ele>154.33333333333331</ele><time>2026-04-25T16:02:54.775Z</time></trkpt><trkpt lat="33.6308739" lon="10.0042759"><ele>155.0</ele><time>2026-04-25T16:02:55.787Z</time></trkpt><trkpt lat="33.6307143" lon="10.0042643"><ele>155.0</ele><time>2026-04-25T16:02:56.781Z</time></trkpt><trkpt lat="33.6305524" lon="10.0042458"><ele>155.0</ele><time>2026-04-25T16:02:57.78Z</time></trkpt><trkpt lat="33.6303846" lon="10.0042209"><ele>155.0</ele><time>2026-04-25T16:02:58.784Z</time></trkpt><trkpt lat="33.6302192" lon="10.0042012"><ele>156.0</ele><time>2026-04-25T16:02:59.79Z</time></trkpt><trkpt lat="33.6300552" lon="10.0041874"><ele>157.0</ele><time>2026-04-25T16:03:00.767Z</time></trkpt><trkpt lat="33.6298856" lon="10.0041723"><ele>158.0</ele><time>2026-04-25T16:03:01.78Z</time></trkpt><trkpt lat="33.629718" lon="10.0041605"><ele>158.0</ele><time>2026-04-25T16:03:02.785Z</time></trkpt><trkpt lat="33.6295457" lon="10.0041417"><ele>158.0</ele><time>2026-04-25T16:03:03.759Z</time></trkpt><trkpt lat="33.6293752" lon="10.0041233"><ele>158.0</ele><time>2026-04-25T16:03:04.788Z</time></trkpt><trkpt lat="33.6292104" lon="10.0041015"><ele>158.0</ele><time>2026-04-25T16:03:05.773Z</time></trkpt><trkpt lat="33.6290469" lon="10.0040849"><ele>158.0</ele><time>2026-04-25T16:03:06.793Z</time></trkpt><trkpt lat="33.6288833" lon="10.0040665"><ele>158.0</ele><time>2026-04-25T16:03:07.788Z</time></trkpt><trkpt lat="33.6287159" lon="10.0040506"><ele>157.66666666666666</ele><time>2026-04-25T16:03:08.782Z</time></trkpt><trkpt lat="33.6285496" lon="10.0040365"><ele>157.33333333333334</ele><time>2026-04-25T16:03:09.764Z</time></trkpt><trkpt lat="33.628382" lon="10.0040225"><ele>157.0</ele><time>2026-04-25T16:03:10.778Z</time></trkpt><trkpt lat="33.6282187" lon="10.0040056"><ele>157.0</ele><time>2026-04-25T16:03:11.775Z</time></trkpt><trkpt lat="33.6280552" lon="10.0039927"><ele>157.0</ele><time>2026-04-25T16:03:12.78Z</time></trkpt><trkpt lat="33.6278912" lon="10.0039715"><ele>157.0</ele><time>2026-04-25T16:03:13.766Z</time></trkpt><trkpt lat="33.627729" lon="10.00395"><ele>157.66666666666669</ele><time>2026-04-25T16:03:14.762Z</time></trkpt><trkpt lat="33.6275604" lon="10.0039305"><ele>158.33333333333334</ele><time>2026-04-25T16:03:15.781Z</time></trkpt><trkpt lat="33.6273935" lon="10.0039139"><ele>159.0</ele><time>2026-04-25T16:03:16.776Z</time></trkpt><trkpt lat="33.6272241" lon="10.0038947"><ele>159.0</ele><time>2026-04-25T16:03:17.766Z</time></trkpt><trkpt lat="33.6270534" lon="10.0038708"><ele>159.0</ele><time>2026-04-25T16:03:18.78Z</time></trkpt><trkpt lat="33.6268818" lon="10.0038413"><ele>159.0</ele><time>2026-04-25T16:03:19.778Z</time></trkpt><trkpt lat="33.6267126" lon="10.003819"><ele>160.0</ele><time>2026-04-25T16:03:20.777Z</time></trkpt><trkpt lat="33.6265472" lon="10.0037949"><ele>161.0</ele><time>2026-04-25T16:03:21.772Z</time></trkpt><trkpt lat="33.6263865" lon="10.0037645"><ele>162.0</ele><time>2026-04-25T16:03:22.775Z</time></trkpt><trkpt lat="33.6262221" lon="10.0037293"><ele>162.33333333333334</ele><time>2026-04-25T16:03:23.773Z</time></trkpt><trkpt lat="33.6260577" lon="10.0036863"><ele>162.66666666666669</ele><time>2026-04-25T16:03:24.797Z</time></trkpt><trkpt lat="33.6258925" lon="10.0036428"><ele>163.0</ele><time>2026-04-25T16:03:25.774Z</time></trkpt><trkpt lat="33.6257276" lon="10.0035955"><ele>163.0</ele><time>2026-04-25T16:03:26.768Z</time></trkpt><trkpt lat="33.6255651" lon="10.0035447"><ele>163.0</ele><time>2026-04-25T16:03:27.783Z</time></trkpt><trkpt lat="33.6254038" lon="10.0034952"><ele>163.0</ele><time>2026-04-25T16:03:28.773Z</time></trkpt><trkpt lat="33.6252392" lon="10.003445"><ele>162.66666666666669</ele><time>2026-04-25T16:03:29.774Z</time></trkpt><trkpt lat="33.6250826" lon="10.003387"><ele>162.33333333333334</ele><time>2026-04-25T16:03:30.781Z</time></trkpt><trkpt lat="33.6249319" lon="10.003321"><ele>162.0</ele><time>2026-04-25T16:03:31.783Z</time></trkpt><trkpt lat="33.624783" lon="10.0032392"><ele>161.66666666666666</ele><time>2026-04-25T16:03:32.77Z</time></trkpt><trkpt lat="33.6246346" lon="10.0031426"><ele>161.33333333333331</ele><time>2026-04-25T16:03:33.758Z</time></trkpt><trkpt lat="33.624494" lon="10.0030245"><ele>161.0</ele><time>2026-04-25T16:03:34.772Z</time></trkpt><trkpt lat="33.6243675" lon="10.002894"><ele>161.0</ele><time>2026-04-25T16:03:35.782Z</time></trkpt><trkpt lat="33.6242417" lon="10.0027558"><ele>161.0</ele><time>2026-04-25T16:03:36.772Z</time></trkpt><trkpt lat="33.6241236" lon="10.0026291"><ele>161.0</ele><time>2026-04-25T16:03:37.784Z</time></trkpt><trkpt lat="33.6239997" lon="10.0025035"><ele>161.0</ele><time>2026-04-25T16:03:38.786Z</time></trkpt><trkpt lat="33.6238663" lon="10.0023826"><ele>161.0</ele><time>2026-04-25T16:03:39.778Z</time></trkpt><trkpt lat="33.6237285" lon="10.0022786"><ele>161.0</ele><time>2026-04-25T16:03:40.774Z</time></trkpt><trkpt lat="33.6235874" lon="10.0021995"><ele>161.66666666666666</ele><time>2026-04-25T16:03:41.77Z</time></trkpt><trkpt lat="33.6234435" lon="10.0021403"><ele>162.33333333333334</ele><time>2026-04-25T16:03:42.779Z</time></trkpt><trkpt lat="33.623284" lon="10.0020976"><ele>163.0</ele><time>2026-04-25T16:03:43.782Z</time></trkpt><trkpt lat="33.6231232" lon="10.0020818"><ele>163.0</ele><time>2026-04-25T16:03:44.78Z</time></trkpt><trkpt lat="33.6229544" lon="10.0020833"><ele>163.0</ele><time>2026-04-25T16:03:45.781Z</time></trkpt><trkpt lat="33.622786" lon="10.0020883"><ele>163.0</ele><time>2026-04-25T16:03:46.778Z</time></trkpt><trkpt lat="33.62262" lon="10.0020981"><ele>164.66666666666669</ele><time>2026-04-25T16:03:47.783Z</time></trkpt><trkpt lat="33.6224508" lon="10.0021139"><ele>166.33333333333334</ele><time>2026-04-25T16:03:48.782Z</time></trkpt><trkpt lat="33.6222773" lon="10.0021185"><ele>168.0</ele><time>2026-04-25T16:03:49.773Z</time></trkpt><trkpt lat="33.6221034" lon="10.0021224"><ele>168.33333333333334</ele><time>2026-04-25T16:03:50.783Z</time></trkpt><trkpt lat="33.621932" lon="10.0021292"><ele>168.66666666666669</ele><time>2026-04-25T16:03:51.778Z</time></trkpt><trkpt lat="33.6217674" lon="10.0021394"><ele>169.0</ele><time>2026-04-25T16:03:52.776Z</time></trkpt><trkpt lat="33.6215995" lon="10.0021479"><ele>169.0</ele><time>2026-04-25T16:03:53.779Z</time></trkpt><trkpt lat="33.6214309" lon="10.0021521"><ele>169.0</ele><time>2026-04-25T16:03:54.792Z</time></trkpt><trkpt lat="33.6212626" lon="10.0021541"><ele>169.0</ele><time>2026-04-25T16:03:55.793Z</time></trkpt><trkpt lat="33.621094" lon="10.0021609"><ele>170.0</ele><time>2026-04-25T16:03:56.772Z</time></trkpt><trkpt lat="33.6209262" lon="10.0021658"><ele>171.0</ele><time>2026-04-25T16:03:57.799Z</time></trkpt><trkpt lat="33.6207565" lon="10.0021713"><ele>172.0</ele><time>2026-04-25T16:03:58.767Z</time></trkpt><trkpt lat="33.6205842" lon="10.0021785"><ele>172.0</ele><time>2026-04-25T16:03:59.781Z</time></trkpt><trkpt lat="33.6204095" lon="10.002179"><ele>172.0</ele><time>2026-04-25T16:04:00.763Z</time></trkpt><trkpt lat="33.6202374" lon="10.0021759"><ele>172.0</ele><time>2026-04-25T16:04:01.785Z</time></trkpt><trkpt lat="33.6200657" lon="10.0021655"><ele>173.66666666666669</ele><time>2026-04-25T16:04:02.812Z</time></trkpt><trkpt lat="33.6198907" lon="10.0021478"><ele>175.33333333333334</ele><time>2026-04-25T16:04:03.784Z</time></trkpt><trkpt lat="33.6197233" lon="10.0021156"><ele>177.0</ele><time>2026-04-25T16:04:04.772Z</time></trkpt><trkpt lat="33.6195484" lon="10.0020748"><ele>177.66666666666666</ele><time>2026-04-25T16:04:05.78Z</time></trkpt><trkpt lat="33.6193785" lon="10.0020267"><ele>178.33333333333331</ele><time>2026-04-25T16:04:06.777Z</time></trkpt><trkpt lat="33.6192108" lon="10.0019728"><ele>179.0</ele><time>2026-04-25T16:04:07.755Z</time></trkpt><trkpt lat="33.6190412" lon="10.0019088"><ele>179.0</ele><time>2026-04-25T16:04:08.781Z</time></trkpt><trkpt lat="33.6188782" lon="10.00184"><ele>179.0</ele><time>2026-04-25T16:04:09.774Z</time></trkpt><trkpt lat="33.6187165" lon="10.0017675"><ele>179.0</ele><time>2026-04-25T16:04:10.778Z</time></trkpt><trkpt lat="33.6185596" lon="10.0016853"><ele>180.0</ele><time>2026-04-25T16:04:11.776Z</time></trkpt><trkpt lat="33.6184078" lon="10.001594"><ele>181.0</ele><time>2026-04-25T16:04:12.809Z</time></trkpt><trkpt lat="33.6182535" lon="10.0014898"><ele>182.0</ele><time>2026-04-25T16:04:13.763Z</time></trkpt><trkpt lat="33.6181005" lon="10.0013797"><ele>182.0</ele><time>2026-04-25T16:04:14.781Z</time></trkpt><trkpt lat="33.6179534" lon="10.0012604"><ele>182.0</ele><time>2026-04-25T16:04:15.772Z</time></trkpt><trkpt lat="33.6178062" lon="10.0011429"><ele>182.0</ele><time>2026-04-25T16:04:16.779Z</time></trkpt><trkpt lat="33.6176587" lon="10.0010191"><ele>181.66666666666666</ele><time>2026-04-25T16:04:17.785Z</time></trkpt><trkpt lat="33.6175198" lon="10.000894"><ele>181.33333333333334</ele><time>2026-04-25T16:04:18.78Z</time></trkpt><trkpt lat="33.6173803" lon="10.0007637"><ele>181.0</ele><time>2026-04-25T16:04:19.782Z</time></trkpt><trkpt lat="33.6172397" lon="10.00063"><ele>181.0</ele><time>2026-04-25T16:04:20.779Z</time></trkpt><trkpt lat="33.6171006" lon="10.0004969"><ele>181.0</ele><time>2026-04-25T16:04:21.79Z</time></trkpt><trkpt lat="33.6169563" lon="10.0003689"><ele>181.0</ele><time>2026-04-25T16:04:22.779Z</time></trkpt><trkpt lat="33.6168137" lon="10.0002456"><ele>182.66666666666669</ele><time>2026-04-25T16:04:23.768Z</time></trkpt><trkpt lat="33.6166704" lon="10.0001267"><ele>184.33333333333334</ele><time>2026-04-25T16:04:24.781Z</time></trkpt><trkpt lat="33.6165265" lon="10.0000062"><ele>186.0</ele><time>2026-04-25T16:04:25.783Z</time></trkpt><trkpt lat="33.616386" lon="9.9998903"><ele>186.0</ele><time>2026-04-25T16:04:26.781Z</time></trkpt><trkpt lat="33.6162437" lon="9.9997801"><ele>186.0</ele><time>2026-04-25T16:04:27.769Z</time></trkpt><trkpt lat="33.6160989" lon="9.999692"><ele>186.0</ele><time>2026-04-25T16:04:28.78Z</time></trkpt><trkpt lat="33.6159483" lon="9.9996315"><ele>185.66666666666666</ele><time>2026-04-25T16:04:29.769Z</time></trkpt><trkpt lat="33.6157916" lon="9.9995953"><ele>185.33333333333331</ele><time>2026-04-25T16:04:30.775Z</time></trkpt><trkpt lat="33.6156342" lon="9.9995711"><ele>185.0</ele><time>2026-04-25T16:04:31.8Z</time></trkpt><trkpt lat="33.6154761" lon="9.9995715"><ele>185.66666666666666</ele><time>2026-04-25T16:04:32.781Z</time></trkpt><trkpt lat="33.6153201" lon="9.9995885"><ele>186.33333333333334</ele><time>2026-04-25T16:04:33.789Z</time></trkpt><trkpt lat="33.6151571" lon="9.9996052"><ele>187.0</ele><time>2026-04-25T16:04:34.775Z</time></trkpt><trkpt lat="33.6149911" lon="9.9996164"><ele>187.0</ele><time>2026-04-25T16:04:35.76Z</time></trkpt><trkpt lat="33.6148227" lon="9.9996117"><ele>187.0</ele><time>2026-04-25T16:04:36.779Z</time></trkpt><trkpt lat="33.6146558" lon="9.9995871"><ele>187.0</ele><time>2026-04-25T16:04:37.766Z</time></trkpt><trkpt lat="33.6144804" lon="9.9995504"><ele>187.66666666666669</ele><time>2026-04-25T16:04:38.769Z</time></trkpt><trkpt lat="33.6143101" lon="9.9994755"><ele>188.33333333333334</ele><time>2026-04-25T16:04:39.782Z</time></trkpt><trkpt lat="33.6141499" lon="9.9993879"><ele>189.0</ele><time>2026-04-25T16:04:40.784Z</time></trkpt><trkpt lat="33.6139866" lon="9.9992777"><ele>189.0</ele><time>2026-04-25T16:04:41.781Z</time></trkpt><trkpt lat="33.6138389" lon="9.9991566"><ele>189.0</ele><time>2026-04-25T16:04:42.788Z</time></trkpt><trkpt lat="33.6136822" lon="9.9990381"><ele>189.0</ele><time>2026-04-25T16:04:43.789Z</time></trkpt><trkpt lat="33.6135315" lon="9.9989256"><ele>189.33333333333334</ele><time>2026-04-25T16:04:44.789Z</time></trkpt><trkpt lat="33.6133793" lon="9.9988087"><ele>189.66666666666669</ele><time>2026-04-25T16:04:45.778Z</time></trkpt><trkpt lat="33.61323" lon="9.9986908"><ele>190.0</ele><time>2026-04-25T16:04:46.773Z</time></trkpt><trkpt lat="33.6130827" lon="9.9985771"><ele>190.0</ele><time>2026-04-25T16:04:47.794Z</time></trkpt><trkpt lat="33.6129316" lon="9.9984576"><ele>190.0</ele><time>2026-04-25T16:04:48.776Z</time></trkpt><trkpt lat="33.6127836" lon="9.9983425"><ele>190.0</ele><time>2026-04-25T16:04:49.766Z</time></trkpt><trkpt lat="33.6126427" lon="9.9982175"><ele>190.66666666666669</ele><time>2026-04-25T16:04:50.792Z</time></trkpt><trkpt lat="33.6125063" lon="9.998086"><ele>191.33333333333334</ele><time>2026-04-25T16:04:51.773Z</time></trkpt><trkpt lat="33.6123736" lon="9.9979484"><ele>192.0</ele><time>2026-04-25T16:04:52.773Z</time></trkpt><trkpt lat="33.6122521" lon="9.9977987"><ele>192.0</ele><time>2026-04-25T16:04:53.784Z</time></trkpt><trkpt lat="33.6121404" lon="9.9976385"><ele>192.0</ele><time>2026-04-25T16:04:54.78Z</time></trkpt><trkpt lat="33.6120415" lon="9.9974635"><ele>192.0</ele><time>2026-04-25T16:04:55.833Z</time></trkpt><trkpt lat="33.6119558" lon="9.9972846"><ele>191.66666666666666</ele><time>2026-04-25T16:04:56.767Z</time></trkpt><trkpt lat="33.6118752" lon="9.9971051"><ele>191.33333333333331</ele><time>2026-04-25T16:04:57.781Z</time></trkpt><trkpt lat="33.6118059" lon="9.9969253"><ele>191.0</ele><time>2026-04-25T16:04:58.775Z</time></trkpt><trkpt lat="33.6117416" lon="9.996734"><ele>192.0</ele><time>2026-04-25T16:04:59.778Z</time></trkpt><trkpt lat="33.611683" lon="9.9965351"><ele>193.0</ele><time>2026-04-25T16:05:00.768Z</time></trkpt><trkpt lat="33.6116304" lon="9.9963353"><ele>194.0</ele><time>2026-04-25T16:05:01.781Z</time></trkpt><trkpt lat="33.6115747" lon="9.9961353"><ele>194.0</ele><time>2026-04-25T16:05:02.778Z</time></trkpt><trkpt lat="33.6115095" lon="9.9959466"><ele>194.0</ele><time>2026-04-25T16:05:03.791Z</time></trkpt><trkpt lat="33.6114312" lon="9.9957748"><ele>194.0</ele><time>2026-04-25T16:05:04.776Z</time></trkpt><trkpt lat="33.6113367" lon="9.995607"><ele>194.33333333333334</ele><time>2026-04-25T16:05:05.783Z</time></trkpt><trkpt lat="33.6112325" lon="9.9954563"><ele>194.66666666666669</ele><time>2026-04-25T16:05:06.767Z</time></trkpt><trkpt lat="33.6111214" lon="9.9953232"><ele>195.0</ele><time>2026-04-25T16:05:07.787Z</time></trkpt><trkpt lat="33.611006" lon="9.9951968"><ele>195.33333333333331</ele><time>2026-04-25T16:05:08.782Z</time></trkpt><trkpt lat="33.6108915" lon="9.995075"><ele>195.66666666666666</ele><time>2026-04-25T16:05:09.774Z</time></trkpt><trkpt lat="33.610777" lon="9.9949574"><ele>196.0</ele><time>2026-04-25T16:05:10.794Z</time></trkpt><trkpt lat="33.6106653" lon="9.9948407"><ele>196.0</ele><time>2026-04-25T16:05:11.772Z</time></trkpt><trkpt lat="33.6105519" lon="9.99473"><ele>196.0</ele><time>2026-04-25T16:05:12.772Z</time></trkpt><trkpt lat="33.6104414" lon="9.9946246"><ele>196.0</ele><time>2026-04-25T16:05:13.778Z</time></trkpt><trkpt lat="33.6103265" lon="9.9945197"><ele>196.0</ele><time>2026-04-25T16:05:14.768Z</time></trkpt><trkpt lat="33.6102131" lon="9.9944266"><ele>195.25</ele><time>2026-04-25T16:05:15.781Z</time></trkpt><trkpt lat="33.6101014" lon="9.9943334"><ele>194.5</ele><time>2026-04-25T16:05:16.787Z</time></trkpt><trkpt lat="33.6099795" lon="9.9942435"><ele>193.75</ele><time>2026-04-25T16:05:17.777Z</time></trkpt><trkpt lat="33.609852" lon="9.9941571"><ele>193.0</ele><time>2026-04-25T16:05:18.813Z</time></trkpt><trkpt lat="33.609718" lon="9.9940695"><ele>193.0</ele><time>2026-04-25T16:05:19.785Z</time></trkpt><trkpt lat="33.6095875" lon="9.9939877"><ele>193.0</ele><time>2026-04-25T16:05:20.774Z</time></trkpt><trkpt lat="33.6094489" lon="9.9939053"><ele>193.0</ele><time>2026-04-25T16:05:21.784Z</time></trkpt><trkpt lat="33.6093069" lon="9.9938195"><ele>191.66666666666666</ele><time>2026-04-25T16:05:22.777Z</time></trkpt><trkpt lat="33.6091681" lon="9.9937283"><ele>190.33333333333331</ele><time>2026-04-25T16:05:23.786Z</time></trkpt><trkpt lat="33.6090324" lon="9.9936397"><ele>189.0</ele><time>2026-04-25T16:05:24.774Z</time></trkpt><trkpt lat="33.6089043" lon="9.9935585"><ele>189.0</ele><time>2026-04-25T16:05:25.777Z</time></trkpt><trkpt lat="33.608784" lon="9.9934836"><ele>189.0</ele><time>2026-04-25T16:05:26.785Z</time></trkpt><trkpt lat="33.6086737" lon="9.9934205"><ele>189.0</ele><time>2026-04-25T16:05:27.771Z</time></trkpt><trkpt lat="33.6085708" lon="9.9933717"><ele>189.0</ele><time>2026-04-25T16:05:28.779Z</time></trkpt><trkpt lat="33.6084662" lon="9.993331"><ele>188.16666666666666</ele><time>2026-04-25T16:05:29.767Z</time></trkpt><trkpt lat="33.608367" lon="9.9933004"><ele>187.33333333333334</ele><time>2026-04-25T16:05:30.772Z</time></trkpt><trkpt lat="33.6082928" lon="9.9932861"><ele>186.5</ele><time>2026-04-25T16:05:31.773Z</time></trkpt><trkpt lat="33.6081968" lon="9.9932306"><ele>185.66666666666669</ele><time>2026-04-25T16:05:33.778Z</time></trkpt><trkpt lat="33.6081305" lon="9.9932013"><ele>184.83333333333334</ele><time>2026-04-25T16:05:35.777Z</time></trkpt><trkpt lat="33.6081371" lon="9.9932796"><ele>184.0</ele><time>2026-04-25T16:05:38.778Z</time></trkpt><trkpt lat="33.6082211" lon="9.9933044"><ele>184.0</ele><time>2026-04-25T16:05:40.783Z</time></trkpt><trkpt lat="33.6083319" lon="9.9933202"><ele>184.0</ele><time>2026-04-25T16:05:41.771Z</time></trkpt><trkpt lat="33.6084796" lon="9.9933574"><ele>184.0</ele><time>2026-04-25T16:05:42.773Z</time></trkpt><trkpt lat="33.608662" lon="9.9934356"><ele>186.5</ele><time>2026-04-25T16:05:43.782Z</time></trkpt><trkpt lat="33.6088576" lon="9.9935433"><ele>189.0</ele><time>2026-04-25T16:05:44.773Z</time></trkpt><trkpt lat="33.6090729" lon="9.9936893"><ele>189.0</ele><time>2026-04-25T16:05:45.794Z</time></trkpt><trkpt lat="33.6092976" lon="9.9938473"><ele>189.0</ele><time>2026-04-25T16:05:46.769Z</time></trkpt><trkpt lat="33.6095464" lon="9.9940162"><ele>190.0</ele><time>2026-04-25T16:05:47.781Z</time></trkpt><trkpt lat="33.6097942" lon="9.9941711"><ele>191.0</ele><time>2026-04-25T16:05:48.768Z</time></trkpt><trkpt lat="33.6100213" lon="9.994314"><ele>191.0</ele><time>2026-04-25T16:05:49.779Z</time></trkpt><trkpt lat="33.6102286" lon="9.9944606"><ele>191.0</ele><time>2026-04-25T16:05:50.784Z</time></trkpt><trkpt lat="33.6104314" lon="9.9946366"><ele>191.5</ele><time>2026-04-25T16:05:51.781Z</time></trkpt><trkpt lat="33.6106309" lon="9.9948405"><ele>192.0</ele><time>2026-04-25T16:05:52.784Z</time></trkpt><trkpt lat="33.6108044" lon="9.9950293"><ele>192.0</ele><time>2026-04-25T16:05:53.767Z</time></trkpt><trkpt lat="33.6109603" lon="9.9951948"><ele>192.0</ele><time>2026-04-25T16:05:54.773Z</time></trkpt><trkpt lat="33.6111006" lon="9.9953515"><ele>192.0</ele><time>2026-04-25T16:05:55.764Z</time></trkpt><trkpt lat="33.6112267" lon="9.9954985"><ele>192.66666666666669</ele><time>2026-04-25T16:05:56.766Z</time></trkpt><trkpt lat="33.6113323" lon="9.9956452"><ele>193.33333333333334</ele><time>2026-04-25T16:05:57.752Z</time></trkpt><trkpt lat="33.6114337" lon="9.9958274"><ele>194.0</ele><time>2026-04-25T16:05:58.777Z</time></trkpt><trkpt lat="33.6115121" lon="9.9960532"><ele>194.0</ele><time>2026-04-25T16:05:59.777Z</time></trkpt><trkpt lat="33.6115862" lon="9.9963075"><ele>194.0</ele><time>2026-04-25T16:06:00.775Z</time></trkpt><trkpt lat="33.6116584" lon="9.9965663"><ele>193.0</ele><time>2026-04-25T16:06:01.793Z</time></trkpt><trkpt lat="33.6117258" lon="9.9967824"><ele>192.0</ele><time>2026-04-25T16:06:02.753Z</time></trkpt><trkpt lat="33.611791" lon="9.9969809"><ele>191.0</ele><time>2026-04-25T16:06:03.767Z</time></trkpt><trkpt lat="33.6118669" lon="9.9971624"><ele>191.0</ele><time>2026-04-25T16:06:04.762Z</time></trkpt><trkpt lat="33.6119459" lon="9.9973275"><ele>191.0</ele><time>2026-04-25T16:06:05.767Z</time></trkpt><trkpt lat="33.6120252" lon="9.9974845"><ele>191.0</ele><time>2026-04-25T16:06:06.77Z</time></trkpt><trkpt lat="33.6121164" lon="9.9976333"><ele>191.20000000000002</ele><time>2026-04-25T16:06:07.763Z</time></trkpt><trkpt lat="33.6121985" lon="9.9977643"><ele>191.4</ele><time>2026-04-25T16:06:08.766Z</time></trkpt><trkpt lat="33.6122653" lon="9.9978624"><ele>191.6</ele><time>2026-04-25T16:06:09.771Z</time></trkpt><trkpt lat="33.6123158" lon="9.9979386"><ele>191.8</ele><time>2026-04-25T16:06:10.78Z</time></trkpt><trkpt lat="33.6123855" lon="9.998039"><ele>192.0</ele><time>2026-04-25T16:06:12.764Z</time></trkpt><trkpt lat="33.6124263" lon="9.9981024"><ele>192.0</ele><time>2026-04-25T16:06:15.78Z</time></trkpt><trkpt lat="33.6124355" lon="9.9980195"><ele>192.0</ele><time>2026-04-25T16:06:25.761Z</time></trkpt><trkpt lat="33.6123735" lon="9.9979411"><ele>192.0</ele><time>2026-04-25T16:06:28.769Z</time></trkpt><trkpt lat="33.6123044" lon="9.9978661"><ele>192.0</ele><time>2026-04-25T16:06:31.777Z</time></trkpt><trkpt lat="33.6122461" lon="9.9977895"><ele>192.0</ele><time>2026-04-25T16:06:34.778Z</time></trkpt><trkpt lat="33.6121962" lon="9.9977238"><ele>192.0</ele><time>2026-04-25T16:06:36.772Z</time></trkpt><trkpt lat="33.6121505" lon="9.9976313"><ele>192.0</ele><time>2026-04-25T16:06:38.771Z</time></trkpt><trkpt lat="33.6120672" lon="9.9975007"><ele>192.0</ele><time>2026-04-25T16:06:40.778Z</time></trkpt><trkpt lat="33.6120177" lon="9.9974207"><ele>192.0</ele><time>2026-04-25T16:06:41.78Z</time></trkpt><trkpt lat="33.6119703" lon="9.9973221"><ele>192.0</ele><time>2026-04-25T16:06:42.79Z</time></trkpt><trkpt lat="33.6119179" lon="9.9972122"><ele>192.0</ele><time>2026-04-25T16:06:43.781Z</time></trkpt><trkpt lat="33.6118692" lon="9.9970968"><ele>191.75</ele><time>2026-04-25T16:06:44.759Z</time></trkpt><trkpt lat="33.6118174" lon="9.9969742"><ele>191.5</ele><time>2026-04-25T16:06:45.758Z</time></trkpt><trkpt lat="33.6117696" lon="9.9968565"><ele>191.25</ele><time>2026-04-25T16:06:46.76Z</time></trkpt><trkpt lat="33.6117264" lon="9.9967231"><ele>191.0</ele><time>2026-04-25T16:06:47.772Z</time></trkpt><trkpt lat="33.6116843" lon="9.9965807"><ele>191.60000000000002</ele><time>2026-04-25T16:06:48.782Z</time></trkpt><trkpt lat="33.6116477" lon="9.9964477"><ele>192.2</ele><time>2026-04-25T16:06:49.748Z</time></trkpt><trkpt lat="33.6116197" lon="9.9963377"><ele>192.8</ele><time>2026-04-25T16:06:50.742Z</time></trkpt><trkpt lat="33.6115977" lon="9.9962316"><ele>193.39999999999998</ele><time>2026-04-25T16:06:51.759Z</time></trkpt><trkpt lat="33.6115741" lon="9.9961384"><ele>194.0</ele><time>2026-04-25T16:06:52.755Z</time></trkpt><trkpt lat="33.6115481" lon="9.9960506"><ele>194.00000000000003</ele><time>2026-04-25T16:06:53.776Z</time></trkpt><trkpt lat="33.6115309" lon="9.9959758"><ele>194.0</ele><time>2026-04-25T16:06:54.766Z</time></trkpt><trkpt lat="33.6115163" lon="9.9958995"><ele>194.0</ele><time>2026-04-25T16:06:55.8Z</time></trkpt><trkpt lat="33.6115023" lon="9.9957769"><ele>194.0</ele><time>2026-04-25T16:06:57.801Z</time></trkpt><trkpt lat="33.6115007" lon="9.9956684"><ele>194.00000000000003</ele><time>2026-04-25T16:06:59.786Z</time></trkpt><trkpt lat="33.6115035" lon="9.9955657"><ele>194.0</ele><time>2026-04-25T16:07:01.767Z</time></trkpt><trkpt lat="33.6114656" lon="9.9954622"><ele>194.16666666666669</ele><time>2026-04-25T16:07:03.756Z</time></trkpt><trkpt lat="33.6114403" lon="9.9953355"><ele>194.33333333333334</ele><time>2026-04-25T16:07:05.793Z</time></trkpt><trkpt lat="33.6114467" lon="9.9952577"><ele>194.5</ele><time>2026-04-25T16:07:06.802Z</time></trkpt><trkpt lat="33.6114615" lon="9.9951783"><ele>194.66666666666669</ele><time>2026-04-25T16:07:07.802Z</time></trkpt><trkpt lat="33.6114688" lon="9.9951011"><ele>194.83333333333334</ele><time>2026-04-25T16:07:08.76Z</time></trkpt><trkpt lat="33.6114746" lon="9.9950228"><ele>195.0</ele><time>2026-04-25T16:07:09.784Z</time></trkpt><trkpt lat="33.611495" lon="9.9948769"><ele>195.33333333333334</ele><time>2026-04-25T16:07:11.795Z</time></trkpt><trkpt lat="33.6115184" lon="9.9947307"><ele>195.66666666666669</ele><time>2026-04-25T16:07:13.799Z</time></trkpt><trkpt lat="33.6115396" lon="9.9946404"><ele>196.0</ele><time>2026-04-25T16:07:14.785Z</time></trkpt><trkpt lat="33.6115607" lon="9.9945507"><ele>196.33333333333334</ele><time>2026-04-25T16:07:15.793Z</time></trkpt><trkpt lat="33.6115662" lon="9.9944735"><ele>196.66666666666669</ele><time>2026-04-25T16:07:16.764Z</time></trkpt><trkpt lat="33.611575" lon="9.9943972"><ele>197.0</ele><time>2026-04-25T16:07:17.79Z</time></trkpt><trkpt lat="33.6116058" lon="9.9943025"><ele>197.00000000000003</ele><time>2026-04-25T16:07:18.793Z</time></trkpt><trkpt lat="33.6116405" lon="9.9942084"><ele>197.0</ele><time>2026-04-25T16:07:19.8Z</time></trkpt><trkpt lat="33.6116768" lon="9.9941095"><ele>197.0</ele><time>2026-04-25T16:07:20.799Z</time></trkpt><trkpt lat="33.6117021" lon="9.9940236"><ele>197.0</ele><time>2026-04-25T16:07:21.8Z</time></trkpt><trkpt lat="33.6117272" lon="9.9939486"><ele>197.00000000000003</ele><time>2026-04-25T16:07:22.805Z</time></trkpt><trkpt lat="33.6117778" lon="9.993839"><ele>197.0</ele><time>2026-04-25T16:07:24.808Z</time></trkpt><trkpt lat="33.6118511" lon="9.993767"><ele>197.0</ele><time>2026-04-25T16:07:26.773Z</time></trkpt><trkpt lat="33.6119408" lon="9.9936971"><ele>197.0</ele><time>2026-04-25T16:07:28.781Z</time></trkpt><trkpt lat="33.6120095" lon="9.9935863"><ele>197.0</ele><time>2026-04-25T16:07:30.792Z</time></trkpt><trkpt lat="33.6120452" lon="9.9934779"><ele>197.0</ele><time>2026-04-25T16:07:32.782Z</time></trkpt><trkpt lat="33.612053" lon="9.9933529"><ele>197.0</ele><time>2026-04-25T16:07:34.793Z</time></trkpt><trkpt lat="33.6120346" lon="9.9932336"><ele>196.75</ele><time>2026-04-25T16:07:36.797Z</time></trkpt><trkpt lat="33.6119926" lon="9.9931131"><ele>196.5</ele><time>2026-04-25T16:07:38.792Z</time></trkpt><trkpt lat="33.6119341" lon="9.9930095"><ele>196.25</ele><time>2026-04-25T16:07:40.769Z</time></trkpt><trkpt lat="33.6118719" lon="9.9928913"><ele>196.0</ele><time>2026-04-25T16:07:42.821Z</time></trkpt><trkpt lat="33.6118374" lon="9.9927499"><ele>196.8</ele><time>2026-04-25T16:07:44.785Z</time></trkpt><trkpt lat="33.61181" lon="9.9926329"><ele>197.60000000000002</ele><time>2026-04-25T16:07:45.782Z</time></trkpt><trkpt lat="33.6117934" lon="9.9924737"><ele>198.4</ele><time>2026-04-25T16:07:46.77Z</time></trkpt><trkpt lat="33.6117789" lon="9.9923388"><ele>199.2</ele><time>2026-04-25T16:07:47.793Z</time></trkpt><trkpt lat="33.611771" lon="9.9922254"><ele>200.0</ele><time>2026-04-25T16:07:48.789Z</time></trkpt><trkpt lat="33.6117579" lon="9.9921234"><ele>200.00000000000003</ele><time>2026-04-25T16:07:49.769Z</time></trkpt><trkpt lat="33.6117452" lon="9.9920377"><ele>200.0</ele><time>2026-04-25T16:07:50.779Z</time></trkpt><trkpt lat="33.611726" lon="9.9919584"><ele>200.0</ele><time>2026-04-25T16:07:51.801Z</time></trkpt><trkpt lat="33.6117051" lon="9.9918779"><ele>200.0</ele><time>2026-04-25T16:07:52.798Z</time></trkpt><trkpt lat="33.6116659" lon="9.9917577"><ele>200.00000000000003</ele><time>2026-04-25T16:07:54.798Z</time></trkpt><trkpt lat="33.6116423" lon="9.9916658"><ele>200.0</ele><time>2026-04-25T16:07:56.805Z</time></trkpt><trkpt lat="33.611655" lon="9.9915592"><ele>201.4</ele><time>2026-04-25T16:07:58.8Z</time></trkpt><trkpt lat="33.6116918" lon="9.991453"><ele>202.8</ele><time>2026-04-25T16:08:00.779Z</time></trkpt><trkpt lat="33.6117255" lon="9.9913461"><ele>204.2</ele><time>2026-04-25T16:08:02.801Z</time></trkpt><trkpt lat="33.6116951" lon="9.9912624"><ele>205.6</ele><time>2026-04-25T16:08:04.788Z</time></trkpt><trkpt lat="33.6116239" lon="9.9911811"><ele>207.0</ele><time>2026-04-25T16:08:06.784Z</time></trkpt><trkpt lat="33.6115493" lon="9.9911129"><ele>207.0</ele><time>2026-04-25T16:08:08.79Z</time></trkpt><trkpt lat="33.6115005" lon="9.9910311"><ele>207.0</ele><time>2026-04-25T16:08:10.799Z</time></trkpt><trkpt lat="33.6114941" lon="9.9909243"><ele>207.0</ele><time>2026-04-25T16:08:12.775Z</time></trkpt><trkpt lat="33.6115092" lon="9.9908412"><ele>207.0</ele><time>2026-04-25T16:08:14.777Z</time></trkpt><trkpt lat="33.6115442" lon="9.9907556"><ele>207.0</ele><time>2026-04-25T16:08:16.775Z</time></trkpt><trkpt lat="33.6115776" lon="9.9906879"><ele>207.0</ele><time>2026-04-25T16:08:18.786Z</time></trkpt><trkpt lat="33.6116232" lon="9.9906094"><ele>207.6</ele><time>2026-04-25T16:08:21.791Z</time></trkpt><trkpt lat="33.6116562" lon="9.9905348"><ele>208.2</ele><time>2026-04-25T16:08:24.794Z</time></trkpt><trkpt lat="33.6116159" lon="9.990332"><ele>208.8</ele><time>2026-04-25T16:20:56.753Z</time></trkpt><trkpt lat="33.6115742" lon="9.9902496"><ele>209.4</ele><time>2026-04-25T16:20:58.746Z</time></trkpt><trkpt lat="33.6115359" lon="9.9901791"><ele>210.0</ele><time>2026-04-25T16:21:00.781Z</time></trkpt><trkpt lat="33.611484" lon="9.9901261"><ele>210.0</ele><time>2026-04-25T16:21:02.782Z</time></trkpt><trkpt lat="33.6113917" lon="9.9900759"><ele>210.0</ele><time>2026-04-25T16:21:04.812Z</time></trkpt><trkpt lat="33.6112856" lon="9.9900228"><ele>210.0</ele><time>2026-04-25T16:21:06.804Z</time></trkpt><trkpt lat="33.6111979" lon="9.9899589"><ele>210.0</ele><time>2026-04-25T16:21:08.756Z</time></trkpt><trkpt lat="33.6111065" lon="9.9898705"><ele>210.0</ele><time>2026-04-25T16:21:10.771Z</time></trkpt><trkpt lat="33.6110545" lon="9.9898198"><ele>210.0</ele><time>2026-04-25T16:21:11.751Z</time></trkpt><trkpt lat="33.610708" lon="9.9893172"><ele>210.0</ele><time>2026-04-25T16:21:17.748Z</time></trkpt><trkpt lat="33.6106489" lon="9.9892289"><ele>210.0</ele><time>2026-04-25T16:21:18.748Z</time></trkpt><trkpt lat="33.6105865" lon="9.9891413"><ele>210.0</ele><time>2026-04-25T16:21:19.768Z</time></trkpt><trkpt lat="33.610533" lon="9.9890525"><ele>210.0</ele><time>2026-04-25T16:21:20.763Z</time></trkpt><trkpt lat="33.6104834" lon="9.9889701"><ele>210.0</ele><time>2026-04-25T16:21:21.746Z</time></trkpt><trkpt lat="33.6104332" lon="9.9888954"><ele>210.0</ele><time>2026-04-25T16:21:22.753Z</time></trkpt><trkpt lat="33.6103871" lon="9.9888145"><ele>210.0</ele><time>2026-04-25T16:21:23.773Z</time></trkpt><trkpt lat="33.6103427" lon="9.9887461"><ele>210.0</ele><time>2026-04-25T16:21:24.787Z</time></trkpt><trkpt lat="33.6103059" lon="9.9886796"><ele>210.0</ele><time>2026-04-25T16:21:25.762Z</time></trkpt><trkpt lat="33.6102677" lon="9.9886048"><ele>210.0</ele><time>2026-04-25T16:21:26.75Z</time></trkpt><trkpt lat="33.6102288" lon="9.9885292"><ele>210.0</ele><time>2026-04-25T16:21:27.752Z</time></trkpt><trkpt lat="33.6101956" lon="9.9884609"><ele>210.0</ele><time>2026-04-25T16:21:28.802Z</time></trkpt><trkpt lat="33.6101601" lon="9.9883918"><ele>210.0</ele><time>2026-04-25T16:21:29.761Z</time></trkpt><trkpt lat="33.6100831" lon="9.9882766"><ele>210.6</ele><time>2026-04-25T16:21:31.763Z</time></trkpt><trkpt lat="33.6099971" lon="9.9881806"><ele>211.2</ele><time>2026-04-25T16:21:33.782Z</time></trkpt><trkpt lat="33.609948" lon="9.9881327"><ele>211.8</ele><time>2026-04-25T16:21:34.77Z</time></trkpt><trkpt lat="33.6098509" lon="9.9880396"><ele>212.4</ele><time>2026-04-25T16:21:36.778Z</time></trkpt><trkpt lat="33.6097485" lon="9.9879515"><ele>213.0</ele><time>2026-04-25T16:21:38.796Z</time></trkpt><trkpt lat="33.6096928" lon="9.9879026"><ele>213.0</ele><time>2026-04-25T16:21:39.762Z</time></trkpt><trkpt lat="33.6096376" lon="9.9878539"><ele>213.0</ele><time>2026-04-25T16:21:40.76Z</time></trkpt><trkpt lat="33.6095844" lon="9.9877993"><ele>213.0</ele><time>2026-04-25T16:21:41.763Z</time></trkpt><trkpt lat="33.6095339" lon="9.9877535"><ele>213.0</ele><time>2026-04-25T16:21:42.764Z</time></trkpt><trkpt lat="33.6094425" lon="9.9876441"><ele>213.0</ele><time>2026-04-25T16:21:44.792Z</time></trkpt><trkpt lat="33.6093924" lon="9.9875777"><ele>213.0</ele><time>2026-04-25T16:21:45.839Z</time></trkpt><trkpt lat="33.6093341" lon="9.9875105"><ele>211.8</ele><time>2026-04-25T16:21:46.777Z</time></trkpt><trkpt lat="33.6092645" lon="9.9874326"><ele>210.60000000000002</ele><time>2026-04-25T16:21:47.767Z</time></trkpt><trkpt lat="33.6091696" lon="9.9873596"><ele>209.39999999999998</ele><time>2026-04-25T16:21:48.759Z</time></trkpt><trkpt lat="33.6090718" lon="9.9872965"><ele>208.2</ele><time>2026-04-25T16:21:49.768Z</time></trkpt><trkpt lat="33.6089818" lon="9.9872281"><ele>207.0</ele><time>2026-04-25T16:21:50.791Z</time></trkpt><trkpt lat="33.6089068" lon="9.9871595"><ele>207.0</ele><time>2026-04-25T16:21:52.776Z</time></trkpt><trkpt lat="33.6088876" lon="9.9869971"><ele>207.0</ele><time>2026-04-25T16:21:54.78Z</time></trkpt><trkpt lat="33.6088847" lon="9.9868826"><ele>207.0</ele><time>2026-04-25T16:21:55.779Z</time></trkpt><trkpt lat="33.6088466" lon="9.9867313"><ele>207.0</ele><time>2026-04-25T16:21:56.791Z</time></trkpt><trkpt lat="33.6088037" lon="9.9865313"><ele>207.0</ele><time>2026-04-25T16:21:57.786Z</time></trkpt><trkpt lat="33.6087502" lon="9.9863254"><ele>207.0</ele><time>2026-04-25T16:21:58.777Z</time></trkpt><trkpt lat="33.6087097" lon="9.9861652"><ele>207.0</ele><time>2026-04-25T16:21:59.782Z</time></trkpt><trkpt lat="33.60867" lon="9.9860205"><ele>207.0</ele><time>2026-04-25T16:22:00.796Z</time></trkpt><trkpt lat="33.6086167" lon="9.9858653"><ele>206.75</ele><time>2026-04-25T16:22:01.783Z</time></trkpt><trkpt lat="33.6085566" lon="9.9857099"><ele>206.5</ele><time>2026-04-25T16:22:02.794Z</time></trkpt><trkpt lat="33.6084994" lon="9.9855535"><ele>206.25</ele><time>2026-04-25T16:22:03.795Z</time></trkpt><trkpt lat="33.6084548" lon="9.9854347"><ele>206.0</ele><time>2026-04-25T16:22:04.782Z</time></trkpt><trkpt lat="33.6084143" lon="9.9853332"><ele>206.00000000000003</ele><time>2026-04-25T16:22:05.773Z</time></trkpt><trkpt lat="33.6083813" lon="9.9852442"><ele>206.0</ele><time>2026-04-25T16:22:06.778Z</time></trkpt><trkpt lat="33.6083558" lon="9.9851538"><ele>206.0</ele><time>2026-04-25T16:22:07.762Z</time></trkpt><trkpt lat="33.6083544" lon="9.9850544"><ele>206.0</ele><time>2026-04-25T16:22:08.772Z</time></trkpt><trkpt lat="33.6083698" lon="9.9849627"><ele>206.00000000000003</ele><time>2026-04-25T16:22:09.788Z</time></trkpt><trkpt lat="33.6083868" lon="9.9848815"><ele>206.0</ele><time>2026-04-25T16:22:10.778Z</time></trkpt><trkpt lat="33.6083614" lon="9.9847997"><ele>206.4</ele><time>2026-04-25T16:22:11.783Z</time></trkpt><trkpt lat="33.6083125" lon="9.9847136"><ele>206.8</ele><time>2026-04-25T16:22:12.771Z</time></trkpt><trkpt lat="33.6082318" lon="9.9846239"><ele>207.20000000000002</ele><time>2026-04-25T16:22:13.755Z</time></trkpt><trkpt lat="33.6081598" lon="9.9845366"><ele>207.60000000000002</ele><time>2026-04-25T16:22:14.783Z</time></trkpt><trkpt lat="33.6080972" lon="9.9844648"><ele>208.0</ele><time>2026-04-25T16:22:15.776Z</time></trkpt><trkpt lat="33.6080469" lon="9.9843951"><ele>208.0</ele><time>2026-04-25T16:22:16.762Z</time></trkpt><trkpt lat="33.608023" lon="9.9843215"><ele>208.0</ele><time>2026-04-25T16:22:17.769Z</time></trkpt><trkpt lat="33.6080214" lon="9.9842449"><ele>208.0</ele><time>2026-04-25T16:22:18.768Z</time></trkpt><trkpt lat="33.6080341" lon="9.9841059"><ele>208.0</ele><time>2026-04-25T16:22:20.761Z</time></trkpt><trkpt lat="33.6080227" lon="9.9839949"><ele>208.0</ele><time>2026-04-25T16:22:22.765Z</time></trkpt><trkpt lat="33.6079378" lon="9.9838922"><ele>208.16666666666666</ele><time>2026-04-25T16:22:24.765Z</time></trkpt><trkpt lat="33.6078809" lon="9.9838458"><ele>208.33333333333331</ele><time>2026-04-25T16:22:25.775Z</time></trkpt><trkpt lat="33.6078381" lon="9.9837817"><ele>208.5</ele><time>2026-04-25T16:22:26.766Z</time></trkpt><trkpt lat="33.6078095" lon="9.9837037"><ele>208.66666666666669</ele><time>2026-04-25T16:22:27.75Z</time></trkpt><trkpt lat="33.6077996" lon="9.9835607"><ele>208.83333333333334</ele><time>2026-04-25T16:22:29.761Z</time></trkpt><trkpt lat="33.6078115" lon="9.9834859"><ele>209.0</ele><time>2026-04-25T16:22:30.775Z</time></trkpt><trkpt lat="33.6078307" lon="9.9834021"><ele>209.39999999999998</ele><time>2026-04-25T16:22:31.776Z</time></trkpt><trkpt lat="33.6078423" lon="9.9833187"><ele>209.8</ele><time>2026-04-25T16:22:32.777Z</time></trkpt><trkpt lat="33.60785" lon="9.9831635"><ele>210.2</ele><time>2026-04-25T16:22:34.783Z</time></trkpt><trkpt lat="33.6078243" lon="9.9830312"><ele>210.60000000000002</ele><time>2026-04-25T16:22:36.78Z</time></trkpt><trkpt lat="33.6077221" lon="9.9829439"><ele>211.0</ele><time>2026-04-25T16:22:38.765Z</time></trkpt><trkpt lat="33.607661" lon="9.9828931"><ele>210.99999999999997</ele><time>2026-04-25T16:22:39.78Z</time></trkpt><trkpt lat="33.6076078" lon="9.9828194"><ele>211.0</ele><time>2026-04-25T16:22:40.768Z</time></trkpt><trkpt lat="33.6075542" lon="9.9827386"><ele>211.0</ele><time>2026-04-25T16:22:41.78Z</time></trkpt><trkpt lat="33.6074934" lon="9.9826707"><ele>211.0</ele><time>2026-04-25T16:22:42.777Z</time></trkpt><trkpt lat="33.6074363" lon="9.9826325"><ele>210.99999999999997</ele><time>2026-04-25T16:22:43.776Z</time></trkpt><trkpt lat="33.6073738" lon="9.9825814"><ele>211.0</ele><time>2026-04-25T16:22:44.777Z</time></trkpt><trkpt lat="33.6073128" lon="9.9825193"><ele>210.5</ele><time>2026-04-25T16:22:45.783Z</time></trkpt><trkpt lat="33.6072457" lon="9.9824332"><ele>210.0</ele><time>2026-04-25T16:22:46.773Z</time></trkpt><trkpt lat="33.6071707" lon="9.9823272"><ele>209.5</ele><time>2026-04-25T16:22:47.779Z</time></trkpt><trkpt lat="33.6071087" lon="9.9821891"><ele>209.0</ele><time>2026-04-25T16:22:48.774Z</time></trkpt><trkpt lat="33.6070409" lon="9.9820333"><ele>209.66666666666669</ele><time>2026-04-25T16:22:49.776Z</time></trkpt><trkpt lat="33.6069848" lon="9.9818841"><ele>210.33333333333331</ele><time>2026-04-25T16:22:50.777Z</time></trkpt><trkpt lat="33.6069207" lon="9.9817286"><ele>211.0</ele><time>2026-04-25T16:22:51.764Z</time></trkpt><trkpt lat="33.6068421" lon="9.9815419"><ele>211.75</ele><time>2026-04-25T16:22:52.761Z</time></trkpt><trkpt lat="33.6067445" lon="9.9813631"><ele>212.5</ele><time>2026-04-25T16:22:53.772Z</time></trkpt><trkpt lat="33.6066666" lon="9.9812218"><ele>213.25</ele><time>2026-04-25T16:22:54.769Z</time></trkpt><trkpt lat="33.6065969" lon="9.9810896"><ele>214.0</ele><time>2026-04-25T16:22:55.762Z</time></trkpt><trkpt lat="33.6065251" lon="9.9809836"><ele>214.0</ele><time>2026-04-25T16:22:56.768Z</time></trkpt><trkpt lat="33.6064504" lon="9.9808834"><ele>214.0</ele><time>2026-04-25T16:22:57.766Z</time></trkpt><trkpt lat="33.6063788" lon="9.980772"><ele>214.0</ele><time>2026-04-25T16:22:58.758Z</time></trkpt><trkpt lat="33.6063133" lon="9.9806536"><ele>214.0</ele><time>2026-04-25T16:22:59.777Z</time></trkpt><trkpt lat="33.6062586" lon="9.9805191"><ele>214.2</ele><time>2026-04-25T16:23:00.773Z</time></trkpt><trkpt lat="33.6062096" lon="9.9803891"><ele>214.39999999999998</ele><time>2026-04-25T16:23:01.799Z</time></trkpt><trkpt lat="33.6061655" lon="9.9802585"><ele>214.6</ele><time>2026-04-25T16:23:02.774Z</time></trkpt><trkpt lat="33.6061415" lon="9.9801317"><ele>214.8</ele><time>2026-04-25T16:23:03.771Z</time></trkpt><trkpt lat="33.6061331" lon="9.9800085"><ele>215.0</ele><time>2026-04-25T16:23:04.773Z</time></trkpt><trkpt lat="33.6061184" lon="9.9798945"><ele>215.2</ele><time>2026-04-25T16:23:05.783Z</time></trkpt><trkpt lat="33.606088" lon="9.9797775"><ele>215.4</ele><time>2026-04-25T16:23:06.778Z</time></trkpt><trkpt lat="33.6060404" lon="9.979654"><ele>215.60000000000002</ele><time>2026-04-25T16:23:07.777Z</time></trkpt><trkpt lat="33.6059824" lon="9.9795585"><ele>215.8</ele><time>2026-04-25T16:23:08.772Z</time></trkpt><trkpt lat="33.6059113" lon="9.9794627"><ele>216.0</ele><time>2026-04-25T16:23:09.77Z</time></trkpt><trkpt lat="33.6058252" lon="9.9793572"><ele>216.0</ele><time>2026-04-25T16:23:10.77Z</time></trkpt><trkpt lat="33.6057272" lon="9.9792244"><ele>216.0</ele><time>2026-04-25T16:23:11.772Z</time></trkpt><trkpt lat="33.6056341" lon="9.9790904"><ele>216.0</ele><time>2026-04-25T16:23:12.764Z</time></trkpt><trkpt lat="33.6055576" lon="9.9789721"><ele>216.0</ele><time>2026-04-25T16:23:13.777Z</time></trkpt><trkpt lat="33.6054913" lon="9.9788677"><ele>216.8</ele><time>2026-04-25T16:23:14.787Z</time></trkpt><trkpt lat="33.6054418" lon="9.9787664"><ele>217.60000000000002</ele><time>2026-04-25T16:23:15.783Z</time></trkpt><trkpt lat="33.6053973" lon="9.9786489"><ele>218.4</ele><time>2026-04-25T16:23:16.774Z</time></trkpt><trkpt lat="33.6053672" lon="9.9785396"><ele>219.2</ele><time>2026-04-25T16:23:17.778Z</time></trkpt><trkpt lat="33.6053565" lon="9.9784182"><ele>220.0</ele><time>2026-04-25T16:23:18.782Z</time></trkpt><trkpt lat="33.6053393" lon="9.9783021"><ele>220.6</ele><time>2026-04-25T16:23:19.776Z</time></trkpt><trkpt lat="33.6053249" lon="9.978189"><ele>221.2</ele><time>2026-04-25T16:23:20.783Z</time></trkpt><trkpt lat="33.605302" lon="9.9780798"><ele>221.8</ele><time>2026-04-25T16:23:21.777Z</time></trkpt><trkpt lat="33.605286" lon="9.977972"><ele>222.4</ele><time>2026-04-25T16:23:22.787Z</time></trkpt><trkpt lat="33.6052814" lon="9.9778651"><ele>223.0</ele><time>2026-04-25T16:23:23.801Z</time></trkpt><trkpt lat="33.6052931" lon="9.9777624"><ele>223.0</ele><time>2026-04-25T16:23:24.781Z</time></trkpt><trkpt lat="33.6053273" lon="9.9776694"><ele>223.0</ele><time>2026-04-25T16:23:25.765Z</time></trkpt><trkpt lat="33.6053805" lon="9.9775745"><ele>223.0</ele><time>2026-04-25T16:23:26.773Z</time></trkpt><trkpt lat="33.6054441" lon="9.9774731"><ele>223.0</ele><time>2026-04-25T16:23:27.78Z</time></trkpt><trkpt lat="33.6054985" lon="9.9773708"><ele>223.0</ele><time>2026-04-25T16:23:28.787Z</time></trkpt><trkpt lat="33.6055422" lon="9.9772704"><ele>223.0</ele><time>2026-04-25T16:23:29.782Z</time></trkpt><trkpt lat="33.6055967" lon="9.9771664"><ele>223.0</ele><time>2026-04-25T16:23:30.765Z</time></trkpt><trkpt lat="33.6056539" lon="9.9770706"><ele>223.0</ele><time>2026-04-25T16:23:31.755Z</time></trkpt><trkpt lat="33.6057118" lon="9.9769762"><ele>223.0</ele><time>2026-04-25T16:23:32.774Z</time></trkpt><trkpt lat="33.6057728" lon="9.9768902"><ele>223.0</ele><time>2026-04-25T16:23:33.769Z</time></trkpt><trkpt lat="33.6058324" lon="9.9768156"><ele>222.99999999999997</ele><time>2026-04-25T16:23:34.784Z</time></trkpt><trkpt lat="33.6058984" lon="9.9767472"><ele>223.0</ele><time>2026-04-25T16:23:35.781Z</time></trkpt><trkpt lat="33.6059639" lon="9.9766895"><ele>223.0</ele><time>2026-04-25T16:23:36.765Z</time></trkpt><trkpt lat="33.6060227" lon="9.9766493"><ele>223.0</ele><time>2026-04-25T16:23:37.775Z</time></trkpt><trkpt lat="33.6060859" lon="9.9766302"><ele>222.99999999999997</ele><time>2026-04-25T16:23:38.791Z</time></trkpt><trkpt lat="33.6062037" lon="9.9766844"><ele>223.0</ele><time>2026-04-25T16:23:40.773Z</time></trkpt><trkpt lat="33.6062603" lon="9.9767422"><ele>222.60000000000002</ele><time>2026-04-25T16:23:41.775Z</time></trkpt><trkpt lat="33.6062937" lon="9.9768063"><ele>222.20000000000002</ele><time>2026-04-25T16:23:42.772Z</time></trkpt><trkpt lat="33.6063554" lon="9.9769258"><ele>221.8</ele><time>2026-04-25T16:23:44.79Z</time></trkpt><trkpt lat="33.6064111" lon="9.9770367"><ele>221.4</ele><time>2026-04-25T16:23:46.786Z</time></trkpt><trkpt lat="33.6064533" lon="9.9771173"><ele>221.0</ele><time>2026-04-25T16:23:48.778Z</time></trkpt><trkpt lat="33.6065191" lon="9.9771854"><ele>221.00000000000003</ele><time>2026-04-25T16:23:51.792Z</time></trkpt><trkpt lat="33.6065865" lon="9.9771957"><ele>221.0</ele><time>2026-04-25T16:23:54.788Z</time></trkpt><trkpt lat="33.6066438" lon="9.9771397"><ele>221.0</ele><time>2026-04-25T16:23:57.77Z</time></trkpt><trkpt lat="33.6066401" lon="9.9770367"><ele>221.0</ele><time>2026-04-25T16:23:59.765Z</time></trkpt><trkpt lat="33.6066626" lon="9.9769221"><ele>221.00000000000003</ele><time>2026-04-25T16:24:01.766Z</time></trkpt><trkpt lat="33.6067384" lon="9.9768256"><ele>221.0</ele><time>2026-04-25T16:24:03.772Z</time></trkpt><trkpt lat="33.6068408" lon="9.9767633"><ele>221.66666666666669</ele><time>2026-04-25T16:24:05.772Z</time></trkpt><trkpt lat="33.6069362" lon="9.9766842"><ele>222.33333333333334</ele><time>2026-04-25T16:24:07.781Z</time></trkpt><trkpt lat="33.6070108" lon="9.9766056"><ele>223.0</ele><time>2026-04-25T16:24:09.772Z</time></trkpt><trkpt lat="33.607058" lon="9.9765554"><ele>223.66666666666669</ele><time>2026-04-25T16:24:11.776Z</time></trkpt><trkpt lat="33.6071385" lon="9.9765243"><ele>224.33333333333334</ele><time>2026-04-25T16:24:19.78Z</time></trkpt><trkpt lat="33.6072238" lon="9.9765187"><ele>225.0</ele><time>2026-04-25T16:24:21.799Z</time></trkpt><trkpt lat="33.6072992" lon="9.976515"><ele>225.0</ele><time>2026-04-25T16:24:23.774Z</time></trkpt><trkpt lat="33.6073967" lon="9.9765178"><ele>225.0</ele><time>2026-04-25T16:24:25.777Z</time></trkpt><trkpt lat="33.6074594" lon="9.9765321"><ele>225.0</ele><time>2026-04-25T16:24:26.784Z</time></trkpt><trkpt lat="33.6075438" lon="9.9765447"><ele>225.0</ele><time>2026-04-25T16:24:27.784Z</time></trkpt><trkpt lat="33.6076265" lon="9.9765722"><ele>225.0</ele><time>2026-04-25T16:24:28.796Z</time></trkpt><trkpt lat="33.6077112" lon="9.9766434"><ele>225.0</ele><time>2026-04-25T16:24:30.76Z</time></trkpt><trkpt lat="33.6077642" lon="9.9767399"><ele>224.66666666666666</ele><time>2026-04-25T16:24:32.783Z</time></trkpt><trkpt lat="33.6078018" lon="9.9768062"><ele>224.33333333333331</ele><time>2026-04-25T16:24:34.769Z</time></trkpt><trkpt lat="33.6078615" lon="9.9768356"><ele>224.0</ele><time>2026-04-25T16:24:37.773Z</time></trkpt><trkpt lat="33.6079443" lon="9.9768331"><ele>223.66666666666666</ele><time>2026-04-25T16:24:39.784Z</time></trkpt><trkpt lat="33.6080287" lon="9.9768107"><ele>223.33333333333331</ele><time>2026-04-25T16:24:41.782Z</time></trkpt><trkpt lat="33.6081278" lon="9.9767706"><ele>223.0</ele><time>2026-04-25T16:24:43.77Z</time></trkpt><trkpt lat="33.6081979" lon="9.9767059"><ele>223.66666666666666</ele><time>2026-04-25T16:24:46.763Z</time></trkpt><trkpt lat="33.6082174" lon="9.9766208"><ele>224.33333333333331</ele><time>2026-04-25T16:24:48.788Z</time></trkpt><trkpt lat="33.6082396" lon="9.9765369"><ele>225.0</ele><time>2026-04-25T16:24:50.774Z</time></trkpt><trkpt lat="33.6082977" lon="9.9764924"><ele>225.66666666666669</ele><time>2026-04-25T16:24:52.795Z</time></trkpt><trkpt lat="33.6083811" lon="9.9764925"><ele>226.33333333333334</ele><time>2026-04-25T16:24:54.761Z</time></trkpt><trkpt lat="33.6084638" lon="9.9765005"><ele>227.0</ele><time>2026-04-25T16:24:56.769Z</time></trkpt><trkpt lat="33.6085672" lon="9.976531"><ele>226.8</ele><time>2026-04-25T16:24:58.765Z</time></trkpt><trkpt lat="33.6086684" lon="9.9765483"><ele>226.6</ele><time>2026-04-25T16:25:00.767Z</time></trkpt><trkpt lat="33.6087538" lon="9.9765788"><ele>226.40000000000003</ele><time>2026-04-25T16:25:02.779Z</time></trkpt><trkpt lat="33.6088533" lon="9.976611"><ele>226.20000000000002</ele><time>2026-04-25T16:25:04.788Z</time></trkpt><trkpt lat="33.6089653" lon="9.9766407"><ele>226.0</ele><time>2026-04-25T16:25:06.78Z</time></trkpt><trkpt lat="33.609068" lon="9.9766509"><ele>225.99999999999997</ele><time>2026-04-25T16:25:08.783Z</time></trkpt><trkpt lat="33.6091352" lon="9.9766578"><ele>226.0</ele><time>2026-04-25T16:25:10.766Z</time></trkpt><trkpt lat="33.6091936" lon="9.9766142"><ele>226.0</ele><time>2026-04-25T16:25:13.771Z</time></trkpt><trkpt lat="33.6091932" lon="9.9765362"><ele>226.0</ele><time>2026-04-25T16:25:15.777Z</time></trkpt><trkpt lat="33.6091535" lon="9.9764606"><ele>225.99999999999997</ele><time>2026-04-25T16:25:17.758Z</time></trkpt><trkpt lat="33.6091291" lon="9.9763603"><ele>226.0</ele><time>2026-04-25T16:25:19.789Z</time></trkpt><trkpt lat="33.6091389" lon="9.9762358"><ele>225.99999999999997</ele><time>2026-04-25T16:25:21.774Z</time></trkpt><trkpt lat="33.6091483" lon="9.9761078"><ele>226.0</ele><time>2026-04-25T16:25:23.779Z</time></trkpt><trkpt lat="33.6091643" lon="9.9760114"><ele>226.0</ele><time>2026-04-25T16:25:25.79Z</time></trkpt><trkpt lat="33.6091822" lon="9.9759376"><ele>226.0</ele><time>2026-04-25T16:25:27.767Z</time></trkpt><trkpt lat="33.6091949" lon="9.9758257"><ele>225.99999999999997</ele><time>2026-04-25T16:25:29.786Z</time></trkpt><trkpt lat="33.6091858" lon="9.9757418"><ele>226.0</ele><time>2026-04-25T16:25:31.779Z</time></trkpt><trkpt lat="33.609175" lon="9.9756562"><ele>226.83333333333331</ele><time>2026-04-25T16:25:33.781Z</time></trkpt><trkpt lat="33.6091337" lon="9.9755615"><ele>227.66666666666666</ele><time>2026-04-25T16:25:35.77Z</time></trkpt><trkpt lat="33.6090709" lon="9.9754792"><ele>228.5</ele><time>2026-04-25T16:25:37.784Z</time></trkpt><trkpt lat="33.6090274" lon="9.9753989"><ele>229.33333333333331</ele><time>2026-04-25T16:25:39.776Z</time></trkpt><trkpt lat="33.6089887" lon="9.9753381"><ele>230.16666666666666</ele><time>2026-04-25T16:25:41.783Z</time></trkpt><trkpt lat="33.6089311" lon="9.9752763"><ele>231.0</ele><time>2026-04-25T16:25:44.768Z</time></trkpt><trkpt lat="33.6088864" lon="9.9752065"><ele>231.0</ele><time>2026-04-25T16:25:46.773Z</time></trkpt><trkpt lat="33.6088428" lon="9.9752699"><ele>231.0</ele><time>2026-04-25T16:27:31.775Z</time></trkpt><trkpt lat="33.608877" lon="9.9753383"><ele>231.0</ele><time>2026-04-25T16:27:35.771Z</time></trkpt><trkpt lat="33.6089389" lon="9.9753881"><ele>231.0</ele><time>2026-04-25T16:27:39.774Z</time></trkpt><trkpt lat="33.6090025" lon="9.9754533"><ele>231.0</ele><time>2026-04-25T16:27:42.787Z</time></trkpt><trkpt lat="33.609019" lon="9.9755366"><ele>231.0</ele><time>2026-04-25T16:27:45.783Z</time></trkpt><trkpt lat="33.6090303" lon="9.9756346"><ele>231.0</ele><time>2026-04-25T16:27:49.781Z</time></trkpt><trkpt lat="33.6090809" lon="9.9756959"><ele>231.0</ele><time>2026-04-25T16:27:52.779Z</time></trkpt><trkpt lat="33.6091253" lon="9.975775"><ele>231.0</ele><time>2026-04-25T16:27:55.761Z</time></trkpt><trkpt lat="33.6091248" lon="9.9758545"><ele>231.0</ele><time>2026-04-25T16:28:11.779Z</time></trkpt><trkpt lat="33.6091441" lon="9.9759446"><ele>231.0</ele><time>2026-04-25T16:28:16.766Z</time></trkpt><trkpt lat="33.6091336" lon="9.9760195"><ele>231.0</ele><time>2026-04-25T16:28:19.784Z</time></trkpt><trkpt lat="33.6090964" lon="9.9761189"><ele>231.0</ele><time>2026-04-25T16:28:22.77Z</time></trkpt><trkpt lat="33.6090733" lon="9.9761896"><ele>231.0</ele><time>2026-04-25T16:28:24.755Z</time></trkpt><trkpt lat="33.6090899" lon="9.9762864"><ele>230.16666666666666</ele><time>2026-04-25T16:28:27.76Z</time></trkpt><trkpt lat="33.6091093" lon="9.9763786"><ele>229.33333333333331</ele><time>2026-04-25T16:28:29.783Z</time></trkpt><trkpt lat="33.6090864" lon="9.9764504"><ele>228.5</ele><time>2026-04-25T16:28:31.773Z</time></trkpt><trkpt lat="33.6090446" lon="9.9765306"><ele>227.66666666666666</ele><time>2026-04-25T16:28:33.771Z</time></trkpt><trkpt lat="33.6089838" lon="9.9766048"><ele>226.83333333333331</ele><time>2026-04-25T16:28:35.772Z</time></trkpt><trkpt lat="33.608899" lon="9.9766234"><ele>226.0</ele><time>2026-04-25T16:28:37.776Z</time></trkpt><trkpt lat="33.6088314" lon="9.9766088"><ele>225.99999999999997</ele><time>2026-04-25T16:28:38.769Z</time></trkpt><trkpt lat="33.608757" lon="9.9765818"><ele>226.0</ele><time>2026-04-25T16:28:39.762Z</time></trkpt><trkpt lat="33.6086699" lon="9.9765591"><ele>226.0</ele><time>2026-04-25T16:28:40.773Z</time></trkpt><trkpt lat="33.6085997" lon="9.9765457"><ele>226.0</ele><time>2026-04-25T16:28:41.774Z</time></trkpt><trkpt lat="33.6084995" lon="9.9765134"><ele>225.99999999999997</ele><time>2026-04-25T16:28:43.783Z</time></trkpt><trkpt lat="33.6084148" lon="9.9764872"><ele>226.0</ele><time>2026-04-25T16:28:45.778Z</time></trkpt><trkpt lat="33.6083289" lon="9.9764821"><ele>226.16666666666666</ele><time>2026-04-25T16:28:48.78Z</time></trkpt><trkpt lat="33.6082464" lon="9.9764966"><ele>226.33333333333331</ele><time>2026-04-25T16:29:06.768Z</time></trkpt><trkpt lat="33.6081753" lon="9.9765207"><ele>226.5</ele><time>2026-04-25T16:29:08.77Z</time></trkpt><trkpt lat="33.6081151" lon="9.9765493"><ele>226.66666666666669</ele><time>2026-04-25T16:29:10.772Z</time></trkpt><trkpt lat="33.6080511" lon="9.9765673"><ele>226.83333333333334</ele><time>2026-04-25T16:29:12.767Z</time></trkpt><trkpt lat="33.6079661" lon="9.9766006"><ele>227.0</ele><time>2026-04-25T16:29:15.772Z</time></trkpt><trkpt lat="33.6079034" lon="9.97665"><ele>227.00000000000003</ele><time>2026-04-25T16:29:18.78Z</time></trkpt><trkpt lat="33.6078441" lon="9.9766768"><ele>227.0</ele><time>2026-04-25T16:29:20.791Z</time></trkpt><trkpt lat="33.607763" lon="9.976674"><ele>227.0</ele><time>2026-04-25T16:29:23.784Z</time></trkpt><trkpt lat="33.6077081" lon="9.9766302"><ele>227.0</ele><time>2026-04-25T16:29:25.786Z</time></trkpt><trkpt lat="33.6076468" lon="9.9765621"><ele>227.00000000000003</ele><time>2026-04-25T16:29:27.792Z</time></trkpt><trkpt lat="33.6075645" lon="9.9765404"><ele>227.0</ele><time>2026-04-25T16:29:29.791Z</time></trkpt><trkpt lat="33.6074838" lon="9.9765332"><ele>226.66666666666669</ele><time>2026-04-25T16:29:31.783Z</time></trkpt><trkpt lat="33.6074114" lon="9.9765239"><ele>226.33333333333334</ele><time>2026-04-25T16:29:33.783Z</time></trkpt><trkpt lat="33.6073321" lon="9.9765168"><ele>226.0</ele><time>2026-04-25T16:29:35.751Z</time></trkpt><trkpt lat="33.6072529" lon="9.9765213"><ele>225.66666666666669</ele><time>2026-04-25T16:29:37.791Z</time></trkpt><trkpt lat="33.6071604" lon="9.9765265"><ele>225.33333333333334</ele><time>2026-04-25T16:29:39.794Z</time></trkpt><trkpt lat="33.6070701" lon="9.9765402"><ele>225.0</ele><time>2026-04-25T16:29:41.782Z</time></trkpt><trkpt lat="33.6069747" lon="9.9766137"><ele>225.0</ele><time>2026-04-25T16:29:43.773Z</time></trkpt><trkpt lat="33.6069075" lon="9.9766821"><ele>225.0</ele><time>2026-04-25T16:29:44.783Z</time></trkpt><trkpt lat="33.6068407" lon="9.9767478"><ele>225.0</ele><time>2026-04-25T16:29:45.763Z</time></trkpt><trkpt lat="33.6067654" lon="9.9768149"><ele>225.0</ele><time>2026-04-25T16:29:46.776Z</time></trkpt><trkpt lat="33.6066822" lon="9.9768782"><ele>225.0</ele><time>2026-04-25T16:29:47.792Z</time></trkpt><trkpt lat="33.6066182" lon="9.9769146"><ele>225.0</ele><time>2026-04-25T16:29:48.769Z</time></trkpt><trkpt lat="33.6065154" lon="9.9769607"><ele>225.0</ele><time>2026-04-25T16:29:50.786Z</time></trkpt><trkpt lat="33.6064264" lon="9.9769568"><ele>225.0</ele><time>2026-04-25T16:29:52.778Z</time></trkpt><trkpt lat="33.6063519" lon="9.9768843"><ele>225.0</ele><time>2026-04-25T16:29:54.792Z</time></trkpt><trkpt lat="33.6063063" lon="9.9767965"><ele>225.0</ele><time>2026-04-25T16:29:55.76Z</time></trkpt><trkpt lat="33.6062605" lon="9.9767176"><ele>225.0</ele><time>2026-04-25T16:29:56.786Z</time></trkpt><trkpt lat="33.6062429" lon="9.9766276"><ele>225.0</ele><time>2026-04-25T16:29:58.777Z</time></trkpt><trkpt lat="33.6062202" lon="9.9765519"><ele>225.0</ele><time>2026-04-25T16:30:00.783Z</time></trkpt><trkpt lat="33.6061688" lon="9.9764737"><ele>225.0</ele><time>2026-04-25T16:30:03.782Z</time></trkpt><trkpt lat="33.6060728" lon="9.9764617"><ele>225.0</ele><time>2026-04-25T16:30:06.772Z</time></trkpt><trkpt lat="33.6060115" lon="9.9765173"><ele>225.0</ele><time>2026-04-25T16:30:08.772Z</time></trkpt><trkpt lat="33.605927" lon="9.9766229"><ele>225.0</ele><time>2026-04-25T16:30:10.768Z</time></trkpt><trkpt lat="33.6058658" lon="9.9766859"><ele>224.6</ele><time>2026-04-25T16:30:12.773Z</time></trkpt><trkpt lat="33.6058126" lon="9.9767681"><ele>224.2</ele><time>2026-04-25T16:30:15.762Z</time></trkpt><trkpt lat="33.6057689" lon="9.9768939"><ele>223.8</ele><time>2026-04-25T16:30:17.785Z</time></trkpt><trkpt lat="33.6057184" lon="9.9769744"><ele>223.4</ele><time>2026-04-25T16:30:18.796Z</time></trkpt><trkpt lat="33.6056524" lon="9.9770845"><ele>223.0</ele><time>2026-04-25T16:30:19.768Z</time></trkpt><trkpt lat="33.6055964" lon="9.9771753"><ele>222.99999999999997</ele><time>2026-04-25T16:30:20.78Z</time></trkpt><trkpt lat="33.6055478" lon="9.9772633"><ele>223.0</ele><time>2026-04-25T16:30:21.78Z</time></trkpt><trkpt lat="33.6054975" lon="9.9773562"><ele>223.0</ele><time>2026-04-25T16:30:22.764Z</time></trkpt><trkpt lat="33.6054562" lon="9.9774414"><ele>223.0</ele><time>2026-04-25T16:30:23.795Z</time></trkpt><trkpt lat="33.6054037" lon="9.9775319"><ele>222.99999999999997</ele><time>2026-04-25T16:30:24.775Z</time></trkpt><trkpt lat="33.6053555" lon="9.9776066"><ele>223.0</ele><time>2026-04-25T16:30:25.781Z</time></trkpt><trkpt lat="33.6053157" lon="9.9776809"><ele>223.0</ele><time>2026-04-25T16:30:26.762Z</time></trkpt><trkpt lat="33.6052874" lon="9.9777529"><ele>223.0</ele><time>2026-04-25T16:30:27.778Z</time></trkpt><trkpt lat="33.6052693" lon="9.9778381"><ele>223.0</ele><time>2026-04-25T16:30:28.777Z</time></trkpt><trkpt lat="33.6052756" lon="9.9779171"><ele>223.0</ele><time>2026-04-25T16:30:29.777Z</time></trkpt><trkpt lat="33.6052865" lon="9.9780031"><ele>223.0</ele><time>2026-04-25T16:30:30.774Z</time></trkpt><trkpt lat="33.6053036" lon="9.9780841"><ele>223.0</ele><time>2026-04-25T16:30:31.774Z</time></trkpt><trkpt lat="33.6053125" lon="9.9781724"><ele>223.0</ele><time>2026-04-25T16:30:32.787Z</time></trkpt><trkpt lat="33.6053265" lon="9.9782587"><ele>222.66666666666666</ele><time>2026-04-25T16:30:33.776Z</time></trkpt><trkpt lat="33.605341" lon="9.9783402"><ele>222.33333333333331</ele><time>2026-04-25T16:30:34.784Z</time></trkpt><trkpt lat="33.6053522" lon="9.9784387"><ele>222.0</ele><time>2026-04-25T16:30:35.764Z</time></trkpt><trkpt lat="33.6053672" lon="9.9785375"><ele>221.66666666666669</ele><time>2026-04-25T16:30:36.765Z</time></trkpt><trkpt lat="33.6053826" lon="9.9786302"><ele>221.33333333333334</ele><time>2026-04-25T16:30:37.788Z</time></trkpt><trkpt lat="33.6054133" lon="9.9787235"><ele>221.0</ele><time>2026-04-25T16:30:38.778Z</time></trkpt><trkpt lat="33.6054481" lon="9.9788091"><ele>220.83333333333334</ele><time>2026-04-25T16:30:39.783Z</time></trkpt><trkpt lat="33.6054936" lon="9.9788831"><ele>220.66666666666669</ele><time>2026-04-25T16:30:40.786Z</time></trkpt><trkpt lat="33.6055439" lon="9.97896"><ele>220.5</ele><time>2026-04-25T16:30:41.781Z</time></trkpt><trkpt lat="33.6055919" lon="9.979026"><ele>220.33333333333331</ele><time>2026-04-25T16:30:42.768Z</time></trkpt><trkpt lat="33.6056336" lon="9.9790902"><ele>220.16666666666666</ele><time>2026-04-25T16:30:43.788Z</time></trkpt><trkpt lat="33.6056837" lon="9.979156"><ele>220.0</ele><time>2026-04-25T16:30:44.783Z</time></trkpt><trkpt lat="33.6057321" lon="9.9792306"><ele>219.33333333333331</ele><time>2026-04-25T16:30:45.766Z</time></trkpt><trkpt lat="33.605783" lon="9.9793024"><ele>218.66666666666666</ele><time>2026-04-25T16:30:46.79Z</time></trkpt><trkpt lat="33.605838" lon="9.9793756"><ele>218.0</ele><time>2026-04-25T16:30:47.793Z</time></trkpt><trkpt lat="33.6058959" lon="9.9794442"><ele>217.33333333333331</ele><time>2026-04-25T16:30:48.767Z</time></trkpt><trkpt lat="33.6059463" lon="9.9795124"><ele>216.66666666666666</ele><time>2026-04-25T16:30:49.78Z</time></trkpt><trkpt lat="33.6059936" lon="9.9795865"><ele>216.0</ele><time>2026-04-25T16:30:50.797Z</time></trkpt><trkpt lat="33.6060348" lon="9.9796654"><ele>216.0</ele><time>2026-04-25T16:30:51.802Z</time></trkpt><trkpt lat="33.6060739" lon="9.9797584"><ele>216.0</ele><time>2026-04-25T16:30:52.782Z</time></trkpt><trkpt lat="33.6061001" lon="9.9798615"><ele>216.0</ele><time>2026-04-25T16:30:53.783Z</time></trkpt><trkpt lat="33.6061189" lon="9.9799545"><ele>216.0</ele><time>2026-04-25T16:30:54.778Z</time></trkpt><trkpt lat="33.6061252" lon="9.9800393"><ele>216.0</ele><time>2026-04-25T16:30:55.792Z</time></trkpt><trkpt lat="33.6061339" lon="9.9801242"><ele>216.0</ele><time>2026-04-25T16:30:56.782Z</time></trkpt><trkpt lat="33.6061458" lon="9.9802105"><ele>215.83333333333334</ele><time>2026-04-25T16:30:57.777Z</time></trkpt><trkpt lat="33.6061694" lon="9.9802942"><ele>215.66666666666669</ele><time>2026-04-25T16:30:58.781Z</time></trkpt><trkpt lat="33.6062012" lon="9.9803837"><ele>215.5</ele><time>2026-04-25T16:30:59.787Z</time></trkpt><trkpt lat="33.606245" lon="9.980482"><ele>215.33333333333334</ele><time>2026-04-25T16:31:00.775Z</time></trkpt><trkpt lat="33.6062845" lon="9.9805766"><ele>215.16666666666669</ele><time>2026-04-25T16:31:01.791Z</time></trkpt><trkpt lat="33.6063252" lon="9.980666"><ele>215.0</ele><time>2026-04-25T16:31:02.767Z</time></trkpt><trkpt lat="33.6063712" lon="9.980757"><ele>215.0</ele><time>2026-04-25T16:31:03.779Z</time></trkpt><trkpt lat="33.6064235" lon="9.9808398"><ele>215.0</ele><time>2026-04-25T16:31:04.781Z</time></trkpt><trkpt lat="33.6064831" lon="9.9809209"><ele>215.0</ele><time>2026-04-25T16:31:05.787Z</time></trkpt><trkpt lat="33.6065461" lon="9.9810069"><ele>215.0</ele><time>2026-04-25T16:31:06.764Z</time></trkpt><trkpt lat="33.6066038" lon="9.9811006"><ele>215.0</ele><time>2026-04-25T16:31:07.779Z</time></trkpt><trkpt lat="33.6066536" lon="9.9812016"><ele>214.8</ele><time>2026-04-25T16:31:08.764Z</time></trkpt><trkpt lat="33.6067012" lon="9.9812963"><ele>214.6</ele><time>2026-04-25T16:31:09.773Z</time></trkpt><trkpt lat="33.6067482" lon="9.9813891"><ele>214.39999999999998</ele><time>2026-04-25T16:31:10.77Z</time></trkpt><trkpt lat="33.6067928" lon="9.9814807"><ele>214.2</ele><time>2026-04-25T16:31:11.792Z</time></trkpt><trkpt lat="33.6068397" lon="9.9815741"><ele>214.0</ele><time>2026-04-25T16:31:12.779Z</time></trkpt><trkpt lat="33.6068869" lon="9.9816688"><ele>213.39999999999998</ele><time>2026-04-25T16:31:13.778Z</time></trkpt><trkpt lat="33.606933" lon="9.981763"><ele>212.79999999999998</ele><time>2026-04-25T16:31:14.791Z</time></trkpt><trkpt lat="33.6069579" lon="9.9818681"><ele>212.2</ele><time>2026-04-25T16:31:15.786Z</time></trkpt><trkpt lat="33.6069953" lon="9.9819835"><ele>211.60000000000002</ele><time>2026-04-25T16:31:16.784Z</time></trkpt><trkpt lat="33.6070412" lon="9.982091"><ele>211.0</ele><time>2026-04-25T16:31:17.789Z</time></trkpt><trkpt lat="33.6070833" lon="9.9821944"><ele>210.99999999999997</ele><time>2026-04-25T16:31:18.779Z</time></trkpt><trkpt lat="33.607138" lon="9.98229"><ele>211.0</ele><time>2026-04-25T16:31:19.766Z</time></trkpt><trkpt lat="33.6071929" lon="9.9823796"><ele>211.0</ele><time>2026-04-25T16:31:20.788Z</time></trkpt><trkpt lat="33.6072485" lon="9.9824604"><ele>211.0</ele><time>2026-04-25T16:31:21.774Z</time></trkpt><trkpt lat="33.6073069" lon="9.9825341"><ele>210.99999999999997</ele><time>2026-04-25T16:31:22.776Z</time></trkpt><trkpt lat="33.6073693" lon="9.9825857"><ele>211.0</ele><time>2026-04-25T16:31:23.785Z</time></trkpt><trkpt lat="33.6074565" lon="9.9826502"><ele>211.0</ele><time>2026-04-25T16:31:25.789Z</time></trkpt><trkpt lat="33.6075247" lon="9.9827282"><ele>211.0</ele><time>2026-04-25T16:31:27.774Z</time></trkpt><trkpt lat="33.60761" lon="9.9828271"><ele>211.0</ele><time>2026-04-25T16:31:29.779Z</time></trkpt><trkpt lat="33.6076548" lon="9.9828821"><ele>211.0</ele><time>2026-04-25T16:31:30.782Z</time></trkpt><trkpt lat="33.6077479" lon="9.9829479"><ele>211.0</ele><time>2026-04-25T16:31:32.777Z</time></trkpt><trkpt lat="33.607838" lon="9.9830406"><ele>210.60000000000002</ele><time>2026-04-25T16:31:34.754Z</time></trkpt><trkpt lat="33.6078491" lon="9.9831709"><ele>210.2</ele><time>2026-04-25T16:31:36.779Z</time></trkpt><trkpt lat="33.6078274" lon="9.9833051"><ele>209.8</ele><time>2026-04-25T16:31:38.792Z</time></trkpt><trkpt lat="33.6078188" lon="9.9833829"><ele>209.39999999999998</ele><time>2026-04-25T16:31:39.774Z</time></trkpt><trkpt lat="33.6077923" lon="9.9835292"><ele>209.0</ele><time>2026-04-25T16:31:41.773Z</time></trkpt><trkpt lat="33.6077951" lon="9.9836081"><ele>209.0</ele><time>2026-04-25T16:31:42.792Z</time></trkpt><trkpt lat="33.6078265" lon="9.9837512"><ele>209.0</ele><time>2026-04-25T16:31:44.779Z</time></trkpt><trkpt lat="33.6079116" lon="9.9838607"><ele>209.0</ele><time>2026-04-25T16:31:46.771Z</time></trkpt><trkpt lat="33.6079684" lon="9.9839037"><ele>209.0</ele><time>2026-04-25T16:31:47.779Z</time></trkpt><trkpt lat="33.6080121" lon="9.9839613"><ele>209.0</ele><time>2026-04-25T16:31:48.785Z</time></trkpt><trkpt lat="33.6080361" lon="9.9841006"><ele>208.79999999999998</ele><time>2026-04-25T16:31:50.78Z</time></trkpt><trkpt lat="33.6080204" lon="9.9842553"><ele>208.6</ele><time>2026-04-25T16:31:52.764Z</time></trkpt><trkpt lat="33.6080521" lon="9.9844087"><ele>208.4</ele><time>2026-04-25T16:31:54.782Z</time></trkpt><trkpt lat="33.6080952" lon="9.9844789"><ele>208.2</ele><time>2026-04-25T16:31:55.821Z</time></trkpt><trkpt lat="33.6081578" lon="9.9845406"><ele>208.0</ele><time>2026-04-25T16:31:56.784Z</time></trkpt><trkpt lat="33.6082195" lon="9.9845925"><ele>207.99999999999997</ele><time>2026-04-25T16:31:57.784Z</time></trkpt><trkpt lat="33.6082805" lon="9.9846472"><ele>208.0</ele><time>2026-04-25T16:31:58.789Z</time></trkpt><trkpt lat="33.6083341" lon="9.9847113"><ele>208.0</ele><time>2026-04-25T16:31:59.777Z</time></trkpt><trkpt lat="33.608364" lon="9.9847854"><ele>208.0</ele><time>2026-04-25T16:32:00.777Z</time></trkpt><trkpt lat="33.6083759" lon="9.9848758"><ele>207.99999999999997</ele><time>2026-04-25T16:32:01.766Z</time></trkpt><trkpt lat="33.6083737" lon="9.9849657"><ele>208.0</ele><time>2026-04-25T16:32:02.763Z</time></trkpt><trkpt lat="33.6083471" lon="9.9850986"><ele>207.5</ele><time>2026-04-25T16:32:04.764Z</time></trkpt><trkpt lat="33.6083856" lon="9.9852354"><ele>207.0</ele><time>2026-04-25T16:32:06.781Z</time></trkpt><trkpt lat="33.6084022" lon="9.9853262"><ele>206.5</ele><time>2026-04-25T16:32:08.784Z</time></trkpt><trkpt lat="33.6083818" lon="9.9853994"><ele>206.0</ele><time>2026-04-25T16:32:11.774Z</time></trkpt><trkpt lat="33.6085353" lon="9.9857577"><ele>205.75</ele><time>2026-04-25T16:37:47.781Z</time></trkpt><trkpt lat="33.6085845" lon="9.9858615"><ele>205.5</ele><time>2026-04-25T16:37:48.802Z</time></trkpt><trkpt lat="33.6086296" lon="9.9859559"><ele>205.25</ele><time>2026-04-25T16:37:49.825Z</time></trkpt><trkpt lat="33.6087199" lon="9.9862137"><ele>205.0</ele><time>2026-04-25T16:37:51.767Z</time></trkpt><trkpt lat="33.6087626" lon="9.9864105"><ele>205.5</ele><time>2026-04-25T16:37:52.744Z</time></trkpt><trkpt lat="33.6088089" lon="9.9865917"><ele>206.0</ele><time>2026-04-25T16:37:53.752Z</time></trkpt><trkpt lat="33.6088324" lon="9.9867351"><ele>206.5</ele><time>2026-04-25T16:37:54.777Z</time></trkpt><trkpt lat="33.6088523" lon="9.98685"><ele>207.0</ele><time>2026-04-25T16:37:55.78Z</time></trkpt><trkpt lat="33.6088627" lon="9.9869541"><ele>207.0</ele><time>2026-04-25T16:37:56.796Z</time></trkpt><trkpt lat="33.6088682" lon="9.9870417"><ele>207.0</ele><time>2026-04-25T16:37:57.812Z</time></trkpt><trkpt lat="33.6088981" lon="9.9871465"><ele>207.0</ele><time>2026-04-25T16:37:59.792Z</time></trkpt><trkpt lat="33.608986" lon="9.9872288"><ele>207.0</ele><time>2026-04-25T16:38:01.785Z</time></trkpt><trkpt lat="33.6090738" lon="9.9872753"><ele>207.0</ele><time>2026-04-25T16:38:02.803Z</time></trkpt><trkpt lat="33.6091595" lon="9.987343"><ele>207.0</ele><time>2026-04-25T16:38:03.797Z</time></trkpt><trkpt lat="33.6092368" lon="9.9874069"><ele>207.0</ele><time>2026-04-25T16:38:04.745Z</time></trkpt><trkpt lat="33.6093163" lon="9.9874852"><ele>207.0</ele><time>2026-04-25T16:38:05.758Z</time></trkpt><trkpt lat="33.6093948" lon="9.9875686"><ele>207.0</ele><time>2026-04-25T16:38:06.749Z</time></trkpt><trkpt lat="33.6096085" lon="9.9878256"><ele>208.0</ele><time>2026-04-25T16:38:09.764Z</time></trkpt><trkpt lat="33.609688" lon="9.9878929"><ele>209.0</ele><time>2026-04-25T16:38:10.776Z</time></trkpt><trkpt lat="33.6097604" lon="9.9879584"><ele>210.0</ele><time>2026-04-25T16:38:11.768Z</time></trkpt><trkpt lat="33.6098291" lon="9.988028"><ele>211.0</ele><time>2026-04-25T16:38:12.764Z</time></trkpt><trkpt lat="33.6098953" lon="9.9880885"><ele>212.0</ele><time>2026-04-25T16:38:13.761Z</time></trkpt><trkpt lat="33.6099558" lon="9.988156"><ele>213.0</ele><time>2026-04-25T16:38:14.788Z</time></trkpt><trkpt lat="33.6100168" lon="9.988214"><ele>213.0</ele><time>2026-04-25T16:38:15.818Z</time></trkpt><trkpt lat="33.6100735" lon="9.9882752"><ele>213.0</ele><time>2026-04-25T16:38:16.793Z</time></trkpt><trkpt lat="33.6101183" lon="9.988346"><ele>213.0</ele><time>2026-04-25T16:38:17.762Z</time></trkpt><trkpt lat="33.6101612" lon="9.9884237"><ele>213.0</ele><time>2026-04-25T16:38:18.8Z</time></trkpt><trkpt lat="33.6101975" lon="9.9884967"><ele>213.0</ele><time>2026-04-25T16:38:19.791Z</time></trkpt><trkpt lat="33.6102443" lon="9.9885732"><ele>213.0</ele><time>2026-04-25T16:38:20.796Z</time></trkpt><trkpt lat="33.6102979" lon="9.9886456"><ele>212.66666666666666</ele><time>2026-04-25T16:38:21.798Z</time></trkpt><trkpt lat="33.6103482" lon="9.9887252"><ele>212.33333333333331</ele><time>2026-04-25T16:38:22.78Z</time></trkpt><trkpt lat="33.6103955" lon="9.9888081"><ele>212.0</ele><time>2026-04-25T16:38:23.806Z</time></trkpt><trkpt lat="33.6104309" lon="9.9888852"><ele>211.66666666666666</ele><time>2026-04-25T16:38:24.759Z</time></trkpt><trkpt lat="33.6104735" lon="9.9889505"><ele>211.33333333333331</ele><time>2026-04-25T16:38:25.805Z</time></trkpt><trkpt lat="33.610524" lon="9.9890159"><ele>211.0</ele><time>2026-04-25T16:38:26.762Z</time></trkpt><trkpt lat="33.6105777" lon="9.989107"><ele>210.8</ele><time>2026-04-25T16:38:27.795Z</time></trkpt><trkpt lat="33.6106392" lon="9.9892071"><ele>210.60000000000002</ele><time>2026-04-25T16:38:28.8Z</time></trkpt><trkpt lat="33.6107011" lon="9.9892914"><ele>210.4</ele><time>2026-04-25T16:38:29.763Z</time></trkpt><trkpt lat="33.6107563" lon="9.9893782"><ele>210.2</ele><time>2026-04-25T16:38:30.784Z</time></trkpt><trkpt lat="33.6108139" lon="9.9894652"><ele>210.0</ele><time>2026-04-25T16:38:31.786Z</time></trkpt><trkpt lat="33.6108617" lon="9.9895431"><ele>210.0</ele><time>2026-04-25T16:38:32.791Z</time></trkpt><trkpt lat="33.6109169" lon="9.9896296"><ele>210.0</ele><time>2026-04-25T16:38:33.781Z</time></trkpt><trkpt lat="33.6109768" lon="9.9897094"><ele>210.0</ele><time>2026-04-25T16:38:34.791Z</time></trkpt><trkpt lat="33.6110393" lon="9.9897757"><ele>210.0</ele><time>2026-04-25T16:38:35.803Z</time></trkpt><trkpt lat="33.611098" lon="9.9898438"><ele>210.0</ele><time>2026-04-25T16:38:36.821Z</time></trkpt><trkpt lat="33.611155" lon="9.989901"><ele>210.0</ele><time>2026-04-25T16:38:37.807Z</time></trkpt><trkpt lat="33.6112148" lon="9.9899517"><ele>210.0</ele><time>2026-04-25T16:38:38.794Z</time></trkpt><trkpt lat="33.6112793" lon="9.9899982"><ele>210.0</ele><time>2026-04-25T16:38:39.788Z</time></trkpt><trkpt lat="33.6113417" lon="9.9900331"><ele>210.0</ele><time>2026-04-25T16:38:40.813Z</time></trkpt><trkpt lat="33.6114071" lon="9.9900636"><ele>210.0</ele><time>2026-04-25T16:38:41.817Z</time></trkpt><trkpt lat="33.6114691" lon="9.9901023"><ele>210.0</ele><time>2026-04-25T16:38:42.808Z</time></trkpt><trkpt lat="33.6115243" lon="9.9901519"><ele>210.0</ele><time>2026-04-25T16:38:43.777Z</time></trkpt><trkpt lat="33.6115679" lon="9.9902132"><ele>210.0</ele><time>2026-04-25T16:38:44.766Z</time></trkpt><trkpt lat="33.611602" lon="9.9902823"><ele>210.0</ele><time>2026-04-25T16:38:45.792Z</time></trkpt><trkpt lat="33.6116341" lon="9.9903482"><ele>210.0</ele><time>2026-04-25T16:38:46.81Z</time></trkpt><trkpt lat="33.6116551" lon="9.990481"><ele>210.0</ele><time>2026-04-25T16:38:48.824Z</time></trkpt><trkpt lat="33.6116197" lon="9.9906027"><ele>210.0</ele><time>2026-04-25T16:38:50.828Z</time></trkpt><trkpt lat="33.6115763" lon="9.9907009"><ele>210.0</ele><time>2026-04-25T16:38:52.822Z</time></trkpt><trkpt lat="33.6115318" lon="9.9908097"><ele>209.5</ele><time>2026-04-25T16:38:54.8Z</time></trkpt><trkpt lat="33.6115076" lon="9.9909094"><ele>209.0</ele><time>2026-04-25T16:38:56.82Z</time></trkpt><trkpt lat="33.6115014" lon="9.9909933"><ele>208.5</ele><time>2026-04-25T16:38:58.815Z</time></trkpt><trkpt lat="33.6115429" lon="9.991092"><ele>208.0</ele><time>2026-04-25T16:39:01.809Z</time></trkpt><trkpt lat="33.6115921" lon="9.9911582"><ele>207.5</ele><time>2026-04-25T16:39:03.818Z</time></trkpt><trkpt lat="33.611649" lon="9.9912175"><ele>207.0</ele><time>2026-04-25T16:39:05.786Z</time></trkpt><trkpt lat="33.6117092" lon="9.9912686"><ele>207.0</ele><time>2026-04-25T16:39:07.782Z</time></trkpt><trkpt lat="33.6117406" lon="9.9913691"><ele>207.0</ele><time>2026-04-25T16:39:10.789Z</time></trkpt><trkpt lat="33.6117045" lon="9.9914399"><ele>207.0</ele><time>2026-04-25T16:39:12.807Z</time></trkpt><trkpt lat="33.6116781" lon="9.9915376"><ele>207.0</ele><time>2026-04-25T16:39:14.808Z</time></trkpt><trkpt lat="33.6116543" lon="9.9916544"><ele>207.0</ele><time>2026-04-25T16:39:16.809Z</time></trkpt><trkpt lat="33.6116561" lon="9.9917475"><ele>207.0</ele><time>2026-04-25T16:39:18.768Z</time></trkpt><trkpt lat="33.6116947" lon="9.9918722"><ele>206.0</ele><time>2026-04-25T16:39:20.783Z</time></trkpt><trkpt lat="33.6117227" lon="9.99194"><ele>205.0</ele><time>2026-04-25T16:39:21.78Z</time></trkpt><trkpt lat="33.6117463" lon="9.9920203"><ele>204.0</ele><time>2026-04-25T16:39:22.807Z</time></trkpt><trkpt lat="33.6117657" lon="9.9921099"><ele>203.0</ele><time>2026-04-25T16:39:23.769Z</time></trkpt><trkpt lat="33.6117678" lon="9.9922216"><ele>202.0</ele><time>2026-04-25T16:39:24.78Z</time></trkpt><trkpt lat="33.6117789" lon="9.9923849"><ele>201.0</ele><time>2026-04-25T16:39:25.809Z</time></trkpt><trkpt lat="33.6117993" lon="9.9925212"><ele>201.0</ele><time>2026-04-25T16:39:26.808Z</time></trkpt><trkpt lat="33.6118203" lon="9.9926211"><ele>201.0</ele><time>2026-04-25T16:39:27.776Z</time></trkpt><trkpt lat="33.6118292" lon="9.9927016"><ele>201.0</ele><time>2026-04-25T16:39:28.809Z</time></trkpt><trkpt lat="33.6118482" lon="9.9927897"><ele>201.0</ele><time>2026-04-25T16:39:29.806Z</time></trkpt><trkpt lat="33.61188" lon="9.9928707"><ele>201.0</ele><time>2026-04-25T16:39:30.809Z</time></trkpt><trkpt lat="33.6119177" lon="9.9929475"><ele>201.0</ele><time>2026-04-25T16:39:31.779Z</time></trkpt><trkpt lat="33.611953" lon="9.9930147"><ele>201.0</ele><time>2026-04-25T16:39:32.787Z</time></trkpt><trkpt lat="33.6120134" lon="9.9931342"><ele>200.8</ele><time>2026-04-25T16:39:34.781Z</time></trkpt><trkpt lat="33.6120399" lon="9.9932626"><ele>200.60000000000002</ele><time>2026-04-25T16:39:36.78Z</time></trkpt><trkpt lat="33.6120485" lon="9.9933935"><ele>200.4</ele><time>2026-04-25T16:39:38.79Z</time></trkpt><trkpt lat="33.6120353" lon="9.9935002"><ele>200.2</ele><time>2026-04-25T16:39:40.762Z</time></trkpt><trkpt lat="33.6120042" lon="9.9935948"><ele>200.0</ele><time>2026-04-25T16:39:42.804Z</time></trkpt><trkpt lat="33.6119471" lon="9.9936716"><ele>200.00000000000003</ele><time>2026-04-25T16:39:44.808Z</time></trkpt><trkpt lat="33.6118807" lon="9.9937312"><ele>200.0</ele><time>2026-04-25T16:39:46.803Z</time></trkpt><trkpt lat="33.6118105" lon="9.9938001"><ele>200.0</ele><time>2026-04-25T16:39:48.812Z</time></trkpt><trkpt lat="33.6117483" lon="9.9939265"><ele>200.0</ele><time>2026-04-25T16:39:50.794Z</time></trkpt><trkpt lat="33.6117252" lon="9.9940011"><ele>200.00000000000003</ele><time>2026-04-25T16:39:51.791Z</time></trkpt><trkpt lat="33.6117016" lon="9.9940846"><ele>200.0</ele><time>2026-04-25T16:39:52.796Z</time></trkpt><trkpt lat="33.6116727" lon="9.9941712"><ele>199.57142857142858</ele><time>2026-04-25T16:39:53.823Z</time></trkpt><trkpt lat="33.6116446" lon="9.9942587"><ele>199.14285714285714</ele><time>2026-04-25T16:39:54.814Z</time></trkpt><trkpt lat="33.6116139" lon="9.9943415"><ele>198.71428571428572</ele><time>2026-04-25T16:39:55.823Z</time></trkpt><trkpt lat="33.6115889" lon="9.9944287"><ele>198.28571428571428</ele><time>2026-04-25T16:39:56.798Z</time></trkpt><trkpt lat="33.6115701" lon="9.9945046"><ele>197.85714285714286</ele><time>2026-04-25T16:39:57.816Z</time></trkpt><trkpt lat="33.6115566" lon="9.9945819"><ele>197.42857142857144</ele><time>2026-04-25T16:39:58.802Z</time></trkpt><trkpt lat="33.6115455" lon="9.9946633"><ele>197.0</ele><time>2026-04-25T16:39:59.816Z</time></trkpt><trkpt lat="33.6115346" lon="9.9947461"><ele>197.0</ele><time>2026-04-25T16:40:00.802Z</time></trkpt><trkpt lat="33.6115204" lon="9.9948274"><ele>197.0</ele><time>2026-04-25T16:40:01.809Z</time></trkpt><trkpt lat="33.6115097" lon="9.9949064"><ele>197.0</ele><time>2026-04-25T16:40:02.817Z</time></trkpt><trkpt lat="33.6114916" lon="9.9949935"><ele>197.0</ele><time>2026-04-25T16:40:03.813Z</time></trkpt><trkpt lat="33.611474" lon="9.9950782"><ele>197.0</ele><time>2026-04-25T16:40:04.817Z</time></trkpt><trkpt lat="33.6114538" lon="9.9951602"><ele>197.0</ele><time>2026-04-25T16:40:05.815Z</time></trkpt><trkpt lat="33.6114522" lon="9.9952411"><ele>197.0</ele><time>2026-04-25T16:40:06.781Z</time></trkpt><trkpt lat="33.6114645" lon="9.9953697"><ele>196.6</ele><time>2026-04-25T16:40:08.767Z</time></trkpt><trkpt lat="33.611482" lon="9.9954829"><ele>196.2</ele><time>2026-04-25T16:40:10.811Z</time></trkpt><trkpt lat="33.6115062" lon="9.9955724"><ele>195.8</ele><time>2026-04-25T16:40:12.823Z</time></trkpt><trkpt lat="33.611503" lon="9.9956752"><ele>195.4</ele><time>2026-04-25T16:40:15.8Z</time></trkpt><trkpt lat="33.6114196" lon="9.9957018"><ele>195.0</ele><time>2026-04-25T16:40:19.799Z</time></trkpt><trkpt lat="33.6113288" lon="9.9956106"><ele>195.0</ele><time>2026-04-25T16:40:21.807Z</time></trkpt><trkpt lat="33.6112728" lon="9.9955135"><ele>195.0</ele><time>2026-04-25T16:40:22.781Z</time></trkpt><trkpt lat="33.6112009" lon="9.9954076"><ele>195.0</ele><time>2026-04-25T16:40:23.823Z</time></trkpt><trkpt lat="33.6111265" lon="9.9953113"><ele>195.0</ele><time>2026-04-25T16:40:24.799Z</time></trkpt><trkpt lat="33.6110398" lon="9.9952154"><ele>195.0</ele><time>2026-04-25T16:40:25.824Z</time></trkpt><trkpt lat="33.6109465" lon="9.9951243"><ele>195.25</ele><time>2026-04-25T16:40:26.775Z</time></trkpt><trkpt lat="33.6108413" lon="9.995018"><ele>195.5</ele><time>2026-04-25T16:40:27.809Z</time></trkpt><trkpt lat="33.6107299" lon="9.9949054"><ele>195.75</ele><time>2026-04-25T16:40:28.813Z</time></trkpt><trkpt lat="33.6106085" lon="9.9947869"><ele>196.0</ele><time>2026-04-25T16:40:29.811Z</time></trkpt><trkpt lat="33.6104701" lon="9.9946474"><ele>194.33333333333331</ele><time>2026-04-25T16:40:30.802Z</time></trkpt><trkpt lat="33.6103103" lon="9.9944943"><ele>192.66666666666666</ele><time>2026-04-25T16:40:31.81Z</time></trkpt><trkpt lat="33.6101264" lon="9.9943494"><ele>191.0</ele><time>2026-04-25T16:40:32.771Z</time></trkpt><trkpt lat="33.6099262" lon="9.994211"><ele>191.66666666666666</ele><time>2026-04-25T16:40:33.83Z</time></trkpt><trkpt lat="33.6097322" lon="9.9940908"><ele>192.33333333333331</ele><time>2026-04-25T16:40:34.811Z</time></trkpt><trkpt lat="33.6095468" lon="9.9939759"><ele>193.0</ele><time>2026-04-25T16:40:35.827Z</time></trkpt><trkpt lat="33.6093745" lon="9.9938632"><ele>191.66666666666666</ele><time>2026-04-25T16:40:36.797Z</time></trkpt><trkpt lat="33.6092107" lon="9.9937572"><ele>190.33333333333331</ele><time>2026-04-25T16:40:37.793Z</time></trkpt><trkpt lat="33.6090445" lon="9.9936567"><ele>189.0</ele><time>2026-04-25T16:40:38.79Z</time></trkpt><trkpt lat="33.6088858" lon="9.9935565"><ele>189.0</ele><time>2026-04-25T16:40:39.792Z</time></trkpt><trkpt lat="33.6087089" lon="9.9934628"><ele>189.0</ele><time>2026-04-25T16:40:40.757Z</time></trkpt><trkpt lat="33.6085232" lon="9.9933717"><ele>189.0</ele><time>2026-04-25T16:40:41.812Z</time></trkpt><trkpt lat="33.6083079" lon="9.993289"><ele>186.5</ele><time>2026-04-25T16:40:42.817Z</time></trkpt><trkpt lat="33.6080795" lon="9.9932171"><ele>184.0</ele><time>2026-04-25T16:40:43.803Z</time></trkpt><trkpt lat="33.6078598" lon="9.9931571"><ele>183.33333333333334</ele><time>2026-04-25T16:40:44.821Z</time></trkpt><trkpt lat="33.6076604" lon="9.9930926"><ele>182.66666666666666</ele><time>2026-04-25T16:40:45.804Z</time></trkpt><trkpt lat="33.607482" lon="9.9930423"><ele>182.0</ele><time>2026-04-25T16:40:46.807Z</time></trkpt><trkpt lat="33.6073178" lon="9.9929932"><ele>182.0</ele><time>2026-04-25T16:40:47.795Z</time></trkpt><trkpt lat="33.6071481" lon="9.9929402"><ele>182.0</ele><time>2026-04-25T16:40:48.83Z</time></trkpt><trkpt lat="33.6069759" lon="9.9928949"><ele>182.0</ele><time>2026-04-25T16:40:49.818Z</time></trkpt><trkpt lat="33.6067986" lon="9.9928522"><ele>181.66666666666666</ele><time>2026-04-25T16:40:50.802Z</time></trkpt><trkpt lat="33.6066227" lon="9.992815"><ele>181.33333333333334</ele><time>2026-04-25T16:40:51.799Z</time></trkpt><trkpt lat="33.6064387" lon="9.9927756"><ele>181.0</ele><time>2026-04-25T16:40:52.816Z</time></trkpt><trkpt lat="33.6062415" lon="9.9927428"><ele>180.0</ele><time>2026-04-25T16:40:53.811Z</time></trkpt><trkpt lat="33.6060431" lon="9.9927165"><ele>179.0</ele><time>2026-04-25T16:40:54.812Z</time></trkpt><trkpt lat="33.6058545" lon="9.9927015"><ele>178.0</ele><time>2026-04-25T16:40:55.821Z</time></trkpt><trkpt lat="33.605674" lon="9.9926818"><ele>178.0</ele><time>2026-04-25T16:40:56.788Z</time></trkpt><trkpt lat="33.6054932" lon="9.9926691"><ele>178.0</ele><time>2026-04-25T16:40:57.807Z</time></trkpt><trkpt lat="33.6053052" lon="9.9926527"><ele>178.0</ele><time>2026-04-25T16:40:58.82Z</time></trkpt><trkpt lat="33.605116" lon="9.9926211"><ele>178.0</ele><time>2026-04-25T16:40:59.812Z</time></trkpt><trkpt lat="33.6049204" lon="9.9925678"><ele>178.0</ele><time>2026-04-25T16:41:00.82Z</time></trkpt><trkpt lat="33.6047329" lon="9.9924922"><ele>178.0</ele><time>2026-04-25T16:41:01.774Z</time></trkpt><trkpt lat="33.604573" lon="9.9923971"><ele>178.66666666666669</ele><time>2026-04-25T16:41:02.831Z</time></trkpt><trkpt lat="33.6044129" lon="9.9923057"><ele>179.33333333333334</ele><time>2026-04-25T16:41:03.756Z</time></trkpt><trkpt lat="33.6042183" lon="9.9921978"><ele>180.0</ele><time>2026-04-25T16:41:04.799Z</time></trkpt><trkpt lat="33.6039964" lon="9.9920681"><ele>180.0</ele><time>2026-04-25T16:41:05.836Z</time></trkpt><trkpt lat="33.6037622" lon="9.9919283"><ele>180.0</ele><time>2026-04-25T16:41:06.816Z</time></trkpt><trkpt lat="33.6035451" lon="9.9918065"><ele>180.0</ele><time>2026-04-25T16:41:07.827Z</time></trkpt><trkpt lat="33.603347" lon="9.9916977"><ele>180.0</ele><time>2026-04-25T16:41:08.81Z</time></trkpt><trkpt lat="33.6031665" lon="9.9915927"><ele>180.0</ele><time>2026-04-25T16:41:09.763Z</time></trkpt><trkpt lat="33.6030085" lon="9.9914936"><ele>180.33333333333334</ele><time>2026-04-25T16:41:10.81Z</time></trkpt><trkpt lat="33.6028781" lon="9.9913759"><ele>180.66666666666669</ele><time>2026-04-25T16:41:11.824Z</time></trkpt><trkpt lat="33.6027507" lon="9.9912344"><ele>181.0</ele><time>2026-04-25T16:41:12.816Z</time></trkpt><trkpt lat="33.6026471" lon="9.9910432"><ele>182.0</ele><time>2026-04-25T16:41:13.813Z</time></trkpt><trkpt lat="33.6025259" lon="9.990812"><ele>183.0</ele><time>2026-04-25T16:41:14.822Z</time></trkpt><trkpt lat="33.6024069" lon="9.9905497"><ele>183.0</ele><time>2026-04-25T16:41:15.833Z</time></trkpt><trkpt lat="33.6022766" lon="9.9903087"><ele>183.0</ele><time>2026-04-25T16:41:16.814Z</time></trkpt><trkpt lat="33.6021621" lon="9.990088"><ele>184.0</ele><time>2026-04-25T16:41:17.803Z</time></trkpt><trkpt lat="33.6020378" lon="9.9898627"><ele>185.0</ele><time>2026-04-25T16:41:18.821Z</time></trkpt><trkpt lat="33.6018947" lon="9.9896452"><ele>186.0</ele><time>2026-04-25T16:41:19.806Z</time></trkpt><trkpt lat="33.6017268" lon="9.9893991"><ele>187.0</ele><time>2026-04-25T16:41:20.748Z</time></trkpt><trkpt lat="33.6015384" lon="9.9891266"><ele>187.0</ele><time>2026-04-25T16:41:21.745Z</time></trkpt><trkpt lat="33.6013399" lon="9.9888594"><ele>187.0</ele><time>2026-04-25T16:41:22.756Z</time></trkpt><trkpt lat="33.6011255" lon="9.9886198"><ele>189.0</ele><time>2026-04-25T16:41:23.753Z</time></trkpt><trkpt lat="33.6009195" lon="9.9884109"><ele>191.0</ele><time>2026-04-25T16:41:24.751Z</time></trkpt><trkpt lat="33.6007232" lon="9.9882207"><ele>191.0</ele><time>2026-04-25T16:41:25.752Z</time></trkpt><trkpt lat="33.6005131" lon="9.9880422"><ele>191.0</ele><time>2026-04-25T16:41:26.763Z</time></trkpt><trkpt lat="33.6002855" lon="9.9878886"><ele>193.5</ele><time>2026-04-25T16:41:27.743Z</time></trkpt><trkpt lat="33.6000583" lon="9.9877519"><ele>196.0</ele><time>2026-04-25T16:41:28.776Z</time></trkpt><trkpt lat="33.5998357" lon="9.9876351"><ele>196.0</ele><time>2026-04-25T16:41:29.743Z</time></trkpt><trkpt lat="33.5996302" lon="9.98754"><ele>196.0</ele><time>2026-04-25T16:41:30.739Z</time></trkpt><trkpt lat="33.5994191" lon="9.987457"><ele>196.0</ele><time>2026-04-25T16:41:31.74Z</time></trkpt><trkpt lat="33.5991923" lon="9.9873981"><ele>201.5</ele><time>2026-04-25T16:41:32.741Z</time></trkpt><trkpt lat="33.598962" lon="9.9873468"><ele>207.0</ele><time>2026-04-25T16:41:33.792Z</time></trkpt><trkpt lat="33.5987424" lon="9.9873046"><ele>210.0</ele><time>2026-04-25T16:41:34.747Z</time></trkpt><trkpt lat="33.5985277" lon="9.9872659"><ele>213.0</ele><time>2026-04-25T16:41:35.751Z</time></trkpt><trkpt lat="33.5982909" lon="9.9872388"><ele>213.0</ele><time>2026-04-25T16:41:36.808Z</time></trkpt><trkpt lat="33.5980457" lon="9.9872246"><ele>213.0</ele><time>2026-04-25T16:41:37.783Z</time></trkpt><trkpt lat="33.5977714" lon="9.9872235"><ele>212.0</ele><time>2026-04-25T16:41:38.766Z</time></trkpt><trkpt lat="33.5974789" lon="9.9872648"><ele>211.0</ele><time>2026-04-25T16:41:39.777Z</time></trkpt><trkpt lat="33.5971655" lon="9.9873152"><ele>213.0</ele><time>2026-04-25T16:41:40.762Z</time></trkpt><trkpt lat="33.5968468" lon="9.9873676"><ele>215.0</ele><time>2026-04-25T16:41:41.737Z</time></trkpt><trkpt lat="33.5965448" lon="9.9874116"><ele>215.0</ele><time>2026-04-25T16:41:42.76Z</time></trkpt><trkpt lat="33.5962784" lon="9.9874533"><ele>215.0</ele><time>2026-04-25T16:41:43.815Z</time></trkpt><trkpt lat="33.5960228" lon="9.9874941"><ele>214.5</ele><time>2026-04-25T16:41:44.743Z</time></trkpt><trkpt lat="33.5957876" lon="9.987532"><ele>214.0</ele><time>2026-04-25T16:41:45.763Z</time></trkpt><trkpt lat="33.5955677" lon="9.9875617"><ele>214.0</ele><time>2026-04-25T16:41:46.74Z</time></trkpt><trkpt lat="33.5953641" lon="9.9875984"><ele>214.0</ele><time>2026-04-25T16:41:47.77Z</time></trkpt><trkpt lat="33.5951737" lon="9.9876191"><ele>214.0</ele><time>2026-04-25T16:41:48.758Z</time></trkpt><trkpt lat="33.5949922" lon="9.9876343"><ele>216.0</ele><time>2026-04-25T16:41:49.754Z</time></trkpt><trkpt lat="33.5948114" lon="9.9876457"><ele>218.0</ele><time>2026-04-25T16:41:50.745Z</time></trkpt><trkpt lat="33.5946368" lon="9.9876445"><ele>220.0</ele><time>2026-04-25T16:41:51.774Z</time></trkpt><trkpt lat="33.594468" lon="9.9876405"><ele>220.0</ele><time>2026-04-25T16:41:52.772Z</time></trkpt><trkpt lat="33.5942994" lon="9.987624"><ele>220.0</ele><time>2026-04-25T16:41:53.749Z</time></trkpt><trkpt lat="33.5941248" lon="9.9875997"><ele>220.0</ele><time>2026-04-25T16:41:54.803Z</time></trkpt><trkpt lat="33.5939422" lon="9.98754"><ele>220.0</ele><time>2026-04-25T16:41:55.749Z</time></trkpt><trkpt lat="33.593744" lon="9.9874395"><ele>220.0</ele><time>2026-04-25T16:41:56.767Z</time></trkpt><trkpt lat="33.5935203" lon="9.9872935"><ele>220.0</ele><time>2026-04-25T16:41:57.756Z</time></trkpt><trkpt lat="33.5933168" lon="9.9871523"><ele>220.0</ele><time>2026-04-25T16:41:58.775Z</time></trkpt><trkpt lat="33.5931401" lon="9.9870089"><ele>220.0</ele><time>2026-04-25T16:41:59.761Z</time></trkpt><trkpt lat="33.5929818" lon="9.9868601"><ele>220.0</ele><time>2026-04-25T16:42:00.815Z</time></trkpt><trkpt lat="33.5928399" lon="9.9867078"><ele>220.0</ele><time>2026-04-25T16:42:01.782Z</time></trkpt><trkpt lat="33.5927102" lon="9.9865549"><ele>220.0</ele><time>2026-04-25T16:42:02.78Z</time></trkpt><trkpt lat="33.5925821" lon="9.9864018"><ele>220.66666666666666</ele><time>2026-04-25T16:42:03.777Z</time></trkpt><trkpt lat="33.5924501" lon="9.986254"><ele>221.33333333333331</ele><time>2026-04-25T16:42:04.777Z</time></trkpt><trkpt lat="33.5923183" lon="9.98611"><ele>222.0</ele><time>2026-04-25T16:42:05.816Z</time></trkpt><trkpt lat="33.5921823" lon="9.9859617"><ele>222.33333333333331</ele><time>2026-04-25T16:42:06.757Z</time></trkpt><trkpt lat="33.5920422" lon="9.9858203"><ele>222.66666666666666</ele><time>2026-04-25T16:42:07.777Z</time></trkpt><trkpt lat="33.5918991" lon="9.9856859"><ele>223.0</ele><time>2026-04-25T16:42:08.77Z</time></trkpt><trkpt lat="33.5917563" lon="9.9855547"><ele>224.33333333333331</ele><time>2026-04-25T16:42:09.783Z</time></trkpt><trkpt lat="33.591613" lon="9.9854194"><ele>225.66666666666669</ele><time>2026-04-25T16:42:10.775Z</time></trkpt><trkpt lat="33.5914762" lon="9.9852723"><ele>227.0</ele><time>2026-04-25T16:42:11.748Z</time></trkpt><trkpt lat="33.5913456" lon="9.9851207"><ele>227.66666666666669</ele><time>2026-04-25T16:42:12.774Z</time></trkpt><trkpt lat="33.5912178" lon="9.9849662"><ele>228.33333333333331</ele><time>2026-04-25T16:42:13.774Z</time></trkpt><trkpt lat="33.591095" lon="9.9848129"><ele>229.0</ele><time>2026-04-25T16:42:14.772Z</time></trkpt><trkpt lat="33.5909671" lon="9.9846509"><ele>229.0</ele><time>2026-04-25T16:42:15.744Z</time></trkpt><trkpt lat="33.5908175" lon="9.984469"><ele>229.0</ele><time>2026-04-25T16:42:16.762Z</time></trkpt><trkpt lat="33.5906525" lon="9.9842653"><ele>226.5</ele><time>2026-04-25T16:42:17.772Z</time></trkpt><trkpt lat="33.5904748" lon="9.9840625"><ele>224.0</ele><time>2026-04-25T16:42:18.811Z</time></trkpt><trkpt lat="33.5902738" lon="9.9838673"><ele>232.0</ele><time>2026-04-25T16:42:19.779Z</time></trkpt><trkpt lat="33.5900452" lon="9.9836824"><ele>240.0</ele><time>2026-04-25T16:42:20.755Z</time></trkpt><trkpt lat="33.5898029" lon="9.9834946"><ele>240.0</ele><time>2026-04-25T16:42:21.754Z</time></trkpt><trkpt lat="33.5895719" lon="9.983317"><ele>240.0</ele><time>2026-04-25T16:42:22.766Z</time></trkpt><trkpt lat="33.5893613" lon="9.9831607"><ele>240.0</ele><time>2026-04-25T16:42:23.771Z</time></trkpt><trkpt lat="33.5891618" lon="9.983009"><ele>240.0</ele><time>2026-04-25T16:42:24.742Z</time></trkpt><trkpt lat="33.5889799" lon="9.9828665"><ele>240.0</ele><time>2026-04-25T16:42:25.769Z</time></trkpt><trkpt lat="33.5887953" lon="9.9827348"><ele>240.0</ele><time>2026-04-25T16:42:26.793Z</time></trkpt><trkpt lat="33.588605" lon="9.9825988"><ele>240.0</ele><time>2026-04-25T16:42:27.778Z</time></trkpt><trkpt lat="33.5884053" lon="9.9824526"><ele>240.33333333333331</ele><time>2026-04-25T16:42:28.763Z</time></trkpt><trkpt lat="33.5882102" lon="9.9823093"><ele>240.66666666666666</ele><time>2026-04-25T16:42:29.765Z</time></trkpt><trkpt lat="33.5880156" lon="9.9821971"><ele>241.0</ele><time>2026-04-25T16:42:30.758Z</time></trkpt><trkpt lat="33.587819" lon="9.9821092"><ele>241.0</ele><time>2026-04-25T16:42:31.803Z</time></trkpt><trkpt lat="33.5876185" lon="9.9820462"><ele>241.0</ele><time>2026-04-25T16:42:32.783Z</time></trkpt><trkpt lat="33.5874272" lon="9.9820061"><ele>241.0</ele><time>2026-04-25T16:42:33.765Z</time></trkpt><trkpt lat="33.5872453" lon="9.9819887"><ele>241.0</ele><time>2026-04-25T16:42:34.745Z</time></trkpt><trkpt lat="33.5870666" lon="9.9820103"><ele>241.0</ele><time>2026-04-25T16:42:35.77Z</time></trkpt><trkpt lat="33.5868888" lon="9.9820513"><ele>241.0</ele><time>2026-04-25T16:42:36.751Z</time></trkpt><trkpt lat="33.58671" lon="9.9821043"><ele>240.0</ele><time>2026-04-25T16:42:37.753Z</time></trkpt><trkpt lat="33.5865341" lon="9.9821689"><ele>239.0</ele><time>2026-04-25T16:42:38.766Z</time></trkpt><trkpt lat="33.5863602" lon="9.9822469"><ele>238.0</ele><time>2026-04-25T16:42:39.766Z</time></trkpt><trkpt lat="33.5861883" lon="9.9823257"><ele>237.33333333333331</ele><time>2026-04-25T16:42:40.799Z</time></trkpt><trkpt lat="33.5860161" lon="9.9823982"><ele>236.66666666666669</ele><time>2026-04-25T16:42:41.796Z</time></trkpt><trkpt lat="33.5858358" lon="9.9824531"><ele>236.0</ele><time>2026-04-25T16:42:42.754Z</time></trkpt><trkpt lat="33.5856454" lon="9.9824839"><ele>236.0</ele><time>2026-04-25T16:42:43.776Z</time></trkpt><trkpt lat="33.5854434" lon="9.9824822"><ele>236.0</ele><time>2026-04-25T16:42:44.789Z</time></trkpt><trkpt lat="33.5852048" lon="9.9824618"><ele>236.0</ele><time>2026-04-25T16:42:45.815Z</time></trkpt><trkpt lat="33.5849758" lon="9.9824263"><ele>233.33333333333334</ele><time>2026-04-25T16:42:46.746Z</time></trkpt><trkpt lat="33.5847786" lon="9.9823951"><ele>230.66666666666669</ele><time>2026-04-25T16:42:47.769Z</time></trkpt><trkpt lat="33.5846033" lon="9.9823744"><ele>228.0</ele><time>2026-04-25T16:42:48.743Z</time></trkpt><trkpt lat="33.5844396" lon="9.9823505"><ele>226.66666666666669</ele><time>2026-04-25T16:42:49.779Z</time></trkpt><trkpt lat="33.5842845" lon="9.9823226"><ele>225.33333333333334</ele><time>2026-04-25T16:42:50.76Z</time></trkpt><trkpt lat="33.5841368" lon="9.9822629"><ele>224.0</ele><time>2026-04-25T16:42:51.775Z</time></trkpt><trkpt lat="33.5839984" lon="9.9821882"><ele>224.0</ele><time>2026-04-25T16:42:52.804Z</time></trkpt><trkpt lat="33.5838786" lon="9.9820911"><ele>224.0</ele><time>2026-04-25T16:42:53.764Z</time></trkpt><trkpt lat="33.5837716" lon="9.9819842"><ele>224.0</ele><time>2026-04-25T16:42:54.745Z</time></trkpt><trkpt lat="33.5836769" lon="9.9818547"><ele>224.0</ele><time>2026-04-25T16:42:55.765Z</time></trkpt><trkpt lat="33.583594" lon="9.9817167"><ele>223.5</ele><time>2026-04-25T16:42:56.763Z</time></trkpt><trkpt lat="33.5835164" lon="9.9815746"><ele>223.0</ele><time>2026-04-25T16:42:57.812Z</time></trkpt><trkpt lat="33.5834369" lon="9.9814335"><ele>222.5</ele><time>2026-04-25T16:42:58.797Z</time></trkpt><trkpt lat="33.5833559" lon="9.9812903"><ele>222.0</ele><time>2026-04-25T16:42:59.754Z</time></trkpt><trkpt lat="33.58327" lon="9.9811558"><ele>222.0</ele><time>2026-04-25T16:43:00.763Z</time></trkpt><trkpt lat="33.58317" lon="9.9810051"><ele>222.0</ele><time>2026-04-25T16:43:01.767Z</time></trkpt><trkpt lat="33.5830749" lon="9.9808556"><ele>222.0</ele><time>2026-04-25T16:43:02.773Z</time></trkpt><trkpt lat="33.582988" lon="9.9807181"><ele>222.0</ele><time>2026-04-25T16:43:03.778Z</time></trkpt><trkpt lat="33.5829133" lon="9.9805862"><ele>222.0</ele><time>2026-04-25T16:43:04.769Z</time></trkpt><trkpt lat="33.582839" lon="9.9804661"><ele>222.0</ele><time>2026-04-25T16:43:05.765Z</time></trkpt><trkpt lat="33.5827599" lon="9.9803351"><ele>222.0</ele><time>2026-04-25T16:43:06.779Z</time></trkpt><trkpt lat="33.5826779" lon="9.9801935"><ele>222.0</ele><time>2026-04-25T16:43:07.778Z</time></trkpt><trkpt lat="33.5825926" lon="9.9800493"><ele>222.0</ele><time>2026-04-25T16:43:08.763Z</time></trkpt><trkpt lat="33.582506" lon="9.9799047"><ele>222.0</ele><time>2026-04-25T16:43:09.78Z</time></trkpt><trkpt lat="33.5824165" lon="9.9797673"><ele>222.0</ele><time>2026-04-25T16:43:10.76Z</time></trkpt><trkpt lat="33.5823219" lon="9.9796254"><ele>223.33333333333331</ele><time>2026-04-25T16:43:11.797Z</time></trkpt><trkpt lat="33.5822277" lon="9.9794688"><ele>224.66666666666666</ele><time>2026-04-25T16:43:12.774Z</time></trkpt><trkpt lat="33.5821251" lon="9.9792981"><ele>226.0</ele><time>2026-04-25T16:43:13.761Z</time></trkpt><trkpt lat="33.5820263" lon="9.9791332"><ele>226.33333333333331</ele><time>2026-04-25T16:43:14.754Z</time></trkpt><trkpt lat="33.5819292" lon="9.9789651"><ele>226.66666666666669</ele><time>2026-04-25T16:43:15.795Z</time></trkpt><trkpt lat="33.5818281" lon="9.9787939"><ele>227.0</ele><time>2026-04-25T16:43:16.769Z</time></trkpt><trkpt lat="33.5817235" lon="9.978624"><ele>227.0</ele><time>2026-04-25T16:43:17.78Z</time></trkpt><trkpt lat="33.581617" lon="9.9784536"><ele>227.0</ele><time>2026-04-25T16:43:18.825Z</time></trkpt><trkpt lat="33.5815066" lon="9.9782817"><ele>227.0</ele><time>2026-04-25T16:43:19.807Z</time></trkpt><trkpt lat="33.5814051" lon="9.9781121"><ele>227.0</ele><time>2026-04-25T16:43:20.797Z</time></trkpt><trkpt lat="33.581306" lon="9.9779408"><ele>227.0</ele><time>2026-04-25T16:43:21.787Z</time></trkpt><trkpt lat="33.5811997" lon="9.9777707"><ele>227.0</ele><time>2026-04-25T16:43:22.818Z</time></trkpt><trkpt lat="33.5810959" lon="9.9776006"><ele>226.33333333333334</ele><time>2026-04-25T16:43:23.786Z</time></trkpt><trkpt lat="33.580992" lon="9.9774256"><ele>225.66666666666669</ele><time>2026-04-25T16:43:24.812Z</time></trkpt><trkpt lat="33.5808835" lon="9.9772489"><ele>225.0</ele><time>2026-04-25T16:43:25.807Z</time></trkpt><trkpt lat="33.5807724" lon="9.9770715"><ele>225.0</ele><time>2026-04-25T16:43:26.801Z</time></trkpt><trkpt lat="33.5806562" lon="9.9769075"><ele>225.0</ele><time>2026-04-25T16:43:27.8Z</time></trkpt><trkpt lat="33.5805266" lon="9.976747"><ele>225.0</ele><time>2026-04-25T16:43:28.812Z</time></trkpt><trkpt lat="33.5803877" lon="9.9765882"><ele>226.33333333333331</ele><time>2026-04-25T16:43:29.802Z</time></trkpt><trkpt lat="33.5802432" lon="9.9764375"><ele>227.66666666666666</ele><time>2026-04-25T16:43:30.764Z</time></trkpt><trkpt lat="33.5800922" lon="9.9762911"><ele>229.0</ele><time>2026-04-25T16:43:31.814Z</time></trkpt><trkpt lat="33.5799379" lon="9.9761536"><ele>229.0</ele><time>2026-04-25T16:43:32.806Z</time></trkpt><trkpt lat="33.5797756" lon="9.9760356"><ele>229.0</ele><time>2026-04-25T16:43:33.815Z</time></trkpt><trkpt lat="33.579611" lon="9.9759172"><ele>229.0</ele><time>2026-04-25T16:43:34.808Z</time></trkpt><trkpt lat="33.5794391" lon="9.9758028"><ele>230.0</ele><time>2026-04-25T16:43:35.812Z</time></trkpt><trkpt lat="33.5792632" lon="9.9756961"><ele>231.0</ele><time>2026-04-25T16:43:36.83Z</time></trkpt><trkpt lat="33.5791028" lon="9.9755911"><ele>232.0</ele><time>2026-04-25T16:43:37.815Z</time></trkpt><trkpt lat="33.5789556" lon="9.9754937"><ele>232.0</ele><time>2026-04-25T16:43:38.826Z</time></trkpt><trkpt lat="33.5788161" lon="9.9754064"><ele>232.0</ele><time>2026-04-25T16:43:39.791Z</time></trkpt><trkpt lat="33.5786862" lon="9.9753241"><ele>232.0</ele><time>2026-04-25T16:43:40.824Z</time></trkpt><trkpt lat="33.5785641" lon="9.9752552"><ele>232.0</ele><time>2026-04-25T16:43:41.805Z</time></trkpt><trkpt lat="33.5784467" lon="9.9751835"><ele>232.75</ele><time>2026-04-25T16:43:42.811Z</time></trkpt><trkpt lat="33.5783437" lon="9.9751096"><ele>233.5</ele><time>2026-04-25T16:43:43.798Z</time></trkpt><trkpt lat="33.5782409" lon="9.9750374"><ele>234.25</ele><time>2026-04-25T16:43:44.794Z</time></trkpt><trkpt lat="33.5781146" lon="9.9749613"><ele>235.0</ele><time>2026-04-25T16:43:45.793Z</time></trkpt><trkpt lat="33.5779854" lon="9.9748784"><ele>235.0</ele><time>2026-04-25T16:43:46.808Z</time></trkpt><trkpt lat="33.5778509" lon="9.9747912"><ele>235.0</ele><time>2026-04-25T16:43:47.804Z</time></trkpt><trkpt lat="33.5777208" lon="9.9746941"><ele>235.0</ele><time>2026-04-25T16:43:48.763Z</time></trkpt><trkpt lat="33.5775892" lon="9.9745957"><ele>235.0</ele><time>2026-04-25T16:43:49.82Z</time></trkpt><trkpt lat="33.5774553" lon="9.9744884"><ele>235.0</ele><time>2026-04-25T16:43:50.789Z</time></trkpt><trkpt lat="33.577326" lon="9.9743814"><ele>235.0</ele><time>2026-04-25T16:43:51.807Z</time></trkpt><trkpt lat="33.5771968" lon="9.9742706"><ele>235.0</ele><time>2026-04-25T16:43:52.793Z</time></trkpt><trkpt lat="33.5770677" lon="9.9741536"><ele>235.0</ele><time>2026-04-25T16:43:53.814Z</time></trkpt><trkpt lat="33.5769387" lon="9.974029"><ele>235.0</ele><time>2026-04-25T16:43:54.803Z</time></trkpt><trkpt lat="33.576818" lon="9.9738939"><ele>235.0</ele><time>2026-04-25T16:43:55.83Z</time></trkpt><trkpt lat="33.5767006" lon="9.9737618"><ele>235.0</ele><time>2026-04-25T16:43:56.814Z</time></trkpt><trkpt lat="33.5765788" lon="9.973636"><ele>235.0</ele><time>2026-04-25T16:43:57.796Z</time></trkpt><trkpt lat="33.5764595" lon="9.9735045"><ele>235.0</ele><time>2026-04-25T16:43:58.806Z</time></trkpt><trkpt lat="33.5763374" lon="9.973376"><ele>235.0</ele><time>2026-04-25T16:43:59.82Z</time></trkpt><trkpt lat="33.5762154" lon="9.9732458"><ele>235.0</ele><time>2026-04-25T16:44:00.791Z</time></trkpt><trkpt lat="33.5760952" lon="9.9731134"><ele>236.33333333333331</ele><time>2026-04-25T16:44:01.821Z</time></trkpt><trkpt lat="33.5759784" lon="9.9729839"><ele>237.66666666666669</ele><time>2026-04-25T16:44:02.781Z</time></trkpt><trkpt lat="33.575857" lon="9.9728552"><ele>239.0</ele><time>2026-04-25T16:44:03.82Z</time></trkpt><trkpt lat="33.5757385" lon="9.9727237"><ele>239.0</ele><time>2026-04-25T16:44:04.799Z</time></trkpt><trkpt lat="33.5756175" lon="9.9725905"><ele>239.0</ele><time>2026-04-25T16:44:05.83Z</time></trkpt><trkpt lat="33.5754956" lon="9.9724571"><ele>239.0</ele><time>2026-04-25T16:44:06.795Z</time></trkpt><trkpt lat="33.5753766" lon="9.9723293"><ele>240.75</ele><time>2026-04-25T16:44:07.815Z</time></trkpt><trkpt lat="33.5752641" lon="9.9722031"><ele>242.5</ele><time>2026-04-25T16:44:08.763Z</time></trkpt><trkpt lat="33.5751578" lon="9.9720865"><ele>244.25</ele><time>2026-04-25T16:44:09.802Z</time></trkpt><trkpt lat="33.5750394" lon="9.971985"><ele>246.0</ele><time>2026-04-25T16:44:10.798Z</time></trkpt><trkpt lat="33.5749009" lon="9.9719173"><ele>246.0</ele><time>2026-04-25T16:44:11.759Z</time></trkpt><trkpt lat="33.5747544" lon="9.9718819"><ele>246.0</ele><time>2026-04-25T16:44:12.789Z</time></trkpt><trkpt lat="33.5746054" lon="9.9718784"><ele>246.0</ele><time>2026-04-25T16:44:13.813Z</time></trkpt><trkpt lat="33.5744332" lon="9.9719216"><ele>247.33333333333331</ele><time>2026-04-25T16:44:14.819Z</time></trkpt><trkpt lat="33.5742628" lon="9.972002"><ele>248.66666666666666</ele><time>2026-04-25T16:44:15.802Z</time></trkpt><trkpt lat="33.5740941" lon="9.972108"><ele>250.0</ele><time>2026-04-25T16:44:16.799Z</time></trkpt><trkpt lat="33.5739486" lon="9.9721954"><ele>250.0</ele><time>2026-04-25T16:44:17.808Z</time></trkpt><trkpt lat="33.573806" lon="9.9722701"><ele>250.0</ele><time>2026-04-25T16:44:18.8Z</time></trkpt><trkpt lat="33.573657" lon="9.9723208"><ele>250.0</ele><time>2026-04-25T16:44:19.812Z</time></trkpt><trkpt lat="33.5735044" lon="9.9723568"><ele>249.0</ele><time>2026-04-25T16:44:20.817Z</time></trkpt><trkpt lat="33.573334" lon="9.9723535"><ele>248.0</ele><time>2026-04-25T16:44:21.821Z</time></trkpt><trkpt lat="33.5731285" lon="9.9723225"><ele>247.0</ele><time>2026-04-25T16:44:22.82Z</time></trkpt><trkpt lat="33.5729176" lon="9.9722462"><ele>247.66666666666666</ele><time>2026-04-25T16:44:23.812Z</time></trkpt><trkpt lat="33.5727237" lon="9.9721696"><ele>248.33333333333331</ele><time>2026-04-25T16:44:24.819Z</time></trkpt><trkpt lat="33.5725426" lon="9.9720796"><ele>249.0</ele><time>2026-04-25T16:44:25.796Z</time></trkpt><trkpt lat="33.5723723" lon="9.9720058"><ele>249.0</ele><time>2026-04-25T16:44:26.809Z</time></trkpt><trkpt lat="33.5722175" lon="9.9719393"><ele>249.0</ele><time>2026-04-25T16:44:27.793Z</time></trkpt><trkpt lat="33.5720779" lon="9.9718814"><ele>249.0</ele><time>2026-04-25T16:44:28.799Z</time></trkpt><trkpt lat="33.5719384" lon="9.971821"><ele>249.33333333333331</ele><time>2026-04-25T16:44:29.813Z</time></trkpt><trkpt lat="33.5717916" lon="9.9717499"><ele>249.66666666666666</ele><time>2026-04-25T16:44:30.83Z</time></trkpt><trkpt lat="33.5716396" lon="9.9716682"><ele>250.0</ele><time>2026-04-25T16:44:31.799Z</time></trkpt><trkpt lat="33.5714888" lon="9.9715884"><ele>250.0</ele><time>2026-04-25T16:44:32.822Z</time></trkpt><trkpt lat="33.5713402" lon="9.9715064"><ele>250.0</ele><time>2026-04-25T16:44:33.802Z</time></trkpt><trkpt lat="33.5711953" lon="9.9714106"><ele>250.0</ele><time>2026-04-25T16:44:34.818Z</time></trkpt><trkpt lat="33.5710519" lon="9.9713109"><ele>250.66666666666666</ele><time>2026-04-25T16:44:35.826Z</time></trkpt><trkpt lat="33.5709113" lon="9.9712066"><ele>251.33333333333331</ele><time>2026-04-25T16:44:36.788Z</time></trkpt><trkpt lat="33.5707749" lon="9.9710997"><ele>252.0</ele><time>2026-04-25T16:44:37.818Z</time></trkpt><trkpt lat="33.5706444" lon="9.9709915"><ele>252.0</ele><time>2026-04-25T16:44:38.794Z</time></trkpt><trkpt lat="33.5705166" lon="9.9708816"><ele>252.0</ele><time>2026-04-25T16:44:39.808Z</time></trkpt><trkpt lat="33.5703859" lon="9.9707722"><ele>252.0</ele><time>2026-04-25T16:44:40.779Z</time></trkpt><trkpt lat="33.5702461" lon="9.97067"><ele>253.33333333333331</ele><time>2026-04-25T16:44:41.826Z</time></trkpt><trkpt lat="33.5701047" lon="9.9705775"><ele>254.66666666666666</ele><time>2026-04-25T16:44:42.818Z</time></trkpt><trkpt lat="33.5699614" lon="9.9704959"><ele>256.0</ele><time>2026-04-25T16:44:43.82Z</time></trkpt><trkpt lat="33.5698193" lon="9.9704203"><ele>256.0</ele><time>2026-04-25T16:44:44.815Z</time></trkpt><trkpt lat="33.5696775" lon="9.9703559"><ele>256.0</ele><time>2026-04-25T16:44:45.808Z</time></trkpt><trkpt lat="33.569526" lon="9.9703103"><ele>256.0</ele><time>2026-04-25T16:44:46.797Z</time></trkpt><trkpt lat="33.5693628" lon="9.970282"><ele>256.0</ele><time>2026-04-25T16:44:47.767Z</time></trkpt><trkpt lat="33.5692018" lon="9.9702745"><ele>256.0</ele><time>2026-04-25T16:44:48.792Z</time></trkpt><trkpt lat="33.5690452" lon="9.9702701"><ele>256.0</ele><time>2026-04-25T16:44:49.808Z</time></trkpt><trkpt lat="33.5688882" lon="9.9702601"><ele>256.0</ele><time>2026-04-25T16:44:50.815Z</time></trkpt><trkpt lat="33.5687336" lon="9.9702319"><ele>256.0</ele><time>2026-04-25T16:44:51.804Z</time></trkpt><trkpt lat="33.5685786" lon="9.9701819"><ele>256.0</ele><time>2026-04-25T16:44:52.766Z</time></trkpt><trkpt lat="33.5684339" lon="9.970109"><ele>257.3333333333333</ele><time>2026-04-25T16:44:53.815Z</time></trkpt><trkpt lat="33.5682904" lon="9.9700292"><ele>258.6666666666667</ele><time>2026-04-25T16:44:54.806Z</time></trkpt><trkpt lat="33.5681548" lon="9.9699484"><ele>260.0</ele><time>2026-04-25T16:44:55.807Z</time></trkpt><trkpt lat="33.5680139" lon="9.9698661"><ele>260.6666666666667</ele><time>2026-04-25T16:44:56.812Z</time></trkpt><trkpt lat="33.567874" lon="9.969787"><ele>261.3333333333333</ele><time>2026-04-25T16:44:57.8Z</time></trkpt><trkpt lat="33.5677337" lon="9.9697096"><ele>262.0</ele><time>2026-04-25T16:44:58.818Z</time></trkpt><trkpt lat="33.5675949" lon="9.9696308"><ele>262.66666666666663</ele><time>2026-04-25T16:44:59.812Z</time></trkpt><trkpt lat="33.5674548" lon="9.9695498"><ele>263.3333333333333</ele><time>2026-04-25T16:45:00.806Z</time></trkpt><trkpt lat="33.5673188" lon="9.9694833"><ele>264.0</ele><time>2026-04-25T16:45:01.793Z</time></trkpt><trkpt lat="33.5671748" lon="9.9694159"><ele>267.0</ele><time>2026-04-25T16:45:02.822Z</time></trkpt><trkpt lat="33.5670263" lon="9.9693506"><ele>270.0</ele><time>2026-04-25T16:45:03.798Z</time></trkpt><trkpt lat="33.5668735" lon="9.9692948"><ele>273.0</ele><time>2026-04-25T16:45:04.803Z</time></trkpt><trkpt lat="33.5667256" lon="9.9692502"><ele>273.0</ele><time>2026-04-25T16:45:05.748Z</time></trkpt><trkpt lat="33.5665882" lon="9.9692099"><ele>273.0</ele><time>2026-04-25T16:45:06.793Z</time></trkpt><trkpt lat="33.5664715" lon="9.9691829"><ele>273.0</ele><time>2026-04-25T16:45:07.767Z</time></trkpt><trkpt lat="33.5663695" lon="9.9691558"><ele>273.0</ele><time>2026-04-25T16:45:08.807Z</time></trkpt><trkpt lat="33.5662833" lon="9.9691405"><ele>272.6</ele><time>2026-04-25T16:45:09.802Z</time></trkpt><trkpt lat="33.5661965" lon="9.9691371"><ele>272.20000000000005</ele><time>2026-04-25T16:45:10.801Z</time></trkpt><trkpt lat="33.5661028" lon="9.9691483"><ele>271.8</ele><time>2026-04-25T16:45:11.815Z</time></trkpt><trkpt lat="33.5660051" lon="9.9691718"><ele>271.40000000000003</ele><time>2026-04-25T16:45:12.768Z</time></trkpt><trkpt lat="33.5659067" lon="9.9692096"><ele>271.0</ele><time>2026-04-25T16:45:13.809Z</time></trkpt><trkpt lat="33.5658091" lon="9.969271"><ele>272.6</ele><time>2026-04-25T16:45:14.797Z</time></trkpt><trkpt lat="33.565715" lon="9.9693462"><ele>274.20000000000005</ele><time>2026-04-25T16:45:15.793Z</time></trkpt><trkpt lat="33.565619" lon="9.9694265"><ele>275.79999999999995</ele><time>2026-04-25T16:45:16.806Z</time></trkpt><trkpt lat="33.5655251" lon="9.9694986"><ele>277.4</ele><time>2026-04-25T16:45:17.777Z</time></trkpt><trkpt lat="33.5654289" lon="9.9695441"><ele>279.0</ele><time>2026-04-25T16:45:18.805Z</time></trkpt><trkpt lat="33.5653196" lon="9.9695765"><ele>280.5</ele><time>2026-04-25T16:45:19.816Z</time></trkpt><trkpt lat="33.5652137" lon="9.969586"><ele>282.0</ele><time>2026-04-25T16:45:20.827Z</time></trkpt><trkpt lat="33.5650966" lon="9.9695711"><ele>283.5</ele><time>2026-04-25T16:45:21.823Z</time></trkpt><trkpt lat="33.5649873" lon="9.9695233"><ele>285.0</ele><time>2026-04-25T16:45:22.823Z</time></trkpt><trkpt lat="33.5648683" lon="9.9694775"><ele>285.0</ele><time>2026-04-25T16:45:23.822Z</time></trkpt><trkpt lat="33.5647399" lon="9.9694325"><ele>285.0</ele><time>2026-04-25T16:45:24.8Z</time></trkpt><trkpt lat="33.5646085" lon="9.9693877"><ele>285.0</ele><time>2026-04-25T16:45:25.774Z</time></trkpt><trkpt lat="33.5644774" lon="9.9693533"><ele>285.0</ele><time>2026-04-25T16:45:26.807Z</time></trkpt><trkpt lat="33.5643507" lon="9.9693397"><ele>287.0</ele><time>2026-04-25T16:45:27.809Z</time></trkpt><trkpt lat="33.5642323" lon="9.9693496"><ele>289.0</ele><time>2026-04-25T16:45:28.797Z</time></trkpt><trkpt lat="33.5641162" lon="9.9693808"><ele>291.0</ele><time>2026-04-25T16:45:29.782Z</time></trkpt><trkpt lat="33.5640209" lon="9.9694533"><ele>293.0</ele><time>2026-04-25T16:45:30.821Z</time></trkpt><trkpt lat="33.563942" lon="9.969546"><ele>293.0</ele><time>2026-04-25T16:45:31.812Z</time></trkpt><trkpt lat="33.5638847" lon="9.9696609"><ele>293.0</ele><time>2026-04-25T16:45:32.807Z</time></trkpt><trkpt lat="33.5638561" lon="9.969805"><ele>293.0</ele><time>2026-04-25T16:45:33.797Z</time></trkpt><trkpt lat="33.5638424" lon="9.9699471"><ele>293.0</ele><time>2026-04-25T16:45:34.761Z</time></trkpt><trkpt lat="33.563832" lon="9.9700965"><ele>294.25</ele><time>2026-04-25T16:45:35.799Z</time></trkpt><trkpt lat="33.5638011" lon="9.9702291"><ele>295.5</ele><time>2026-04-25T16:45:36.772Z</time></trkpt><trkpt lat="33.5637435" lon="9.9703357"><ele>296.75</ele><time>2026-04-25T16:45:37.751Z</time></trkpt><trkpt lat="33.5636606" lon="9.970438"><ele>298.0</ele><time>2026-04-25T16:45:38.791Z</time></trkpt><trkpt lat="33.5635572" lon="9.9705111"><ele>298.2</ele><time>2026-04-25T16:45:39.797Z</time></trkpt><trkpt lat="33.5634479" lon="9.9705801"><ele>298.4</ele><time>2026-04-25T16:45:40.795Z</time></trkpt><trkpt lat="33.5633486" lon="9.97066"><ele>298.59999999999997</ele><time>2026-04-25T16:45:41.797Z</time></trkpt><trkpt lat="33.5632612" lon="9.9707456"><ele>298.8</ele><time>2026-04-25T16:45:42.786Z</time></trkpt><trkpt lat="33.5631937" lon="9.9708041"><ele>299.0</ele><time>2026-04-25T16:45:43.777Z</time></trkpt><trkpt lat="33.5631185" lon="9.9708473"><ele>299.0</ele><time>2026-04-25T16:45:44.822Z</time></trkpt><trkpt lat="33.5630341" lon="9.9708714"><ele>299.0</ele><time>2026-04-25T16:45:45.827Z</time></trkpt><trkpt lat="33.5629407" lon="9.9708481"><ele>299.0</ele><time>2026-04-25T16:45:46.784Z</time></trkpt><trkpt lat="33.5628679" lon="9.9707917"><ele>299.0</ele><time>2026-04-25T16:45:47.784Z</time></trkpt><trkpt lat="33.5628102" lon="9.9707266"><ele>299.0</ele><time>2026-04-25T16:45:48.792Z</time></trkpt><trkpt lat="33.5627533" lon="9.9706162"><ele>299.6666666666667</ele><time>2026-04-25T16:45:50.818Z</time></trkpt><trkpt lat="33.5627073" lon="9.9705351"><ele>300.33333333333337</ele><time>2026-04-25T16:45:52.819Z</time></trkpt><trkpt lat="33.5626562" lon="9.9704732"><ele>301.0</ele><time>2026-04-25T16:45:54.815Z</time></trkpt><trkpt lat="33.5625991" lon="9.9704154"><ele>301.6666666666667</ele><time>2026-04-25T16:45:57.815Z</time></trkpt><trkpt lat="33.562529" lon="9.9704726"><ele>302.3333333333333</ele><time>2026-04-25T16:52:05.741Z</time></trkpt><trkpt lat="33.562491" lon="9.9705339"><ele>303.0</ele><time>2026-04-25T16:52:07.786Z</time></trkpt><trkpt lat="33.5624422" lon="9.9706201"><ele>303.0</ele><time>2026-04-25T16:52:09.799Z</time></trkpt><trkpt lat="33.5623447" lon="9.9707047"><ele>303.0</ele><time>2026-04-25T16:52:11.83Z</time></trkpt><trkpt lat="33.5622841" lon="9.9707423"><ele>303.0</ele><time>2026-04-25T16:52:12.752Z</time></trkpt><trkpt lat="33.5622213" lon="9.9707658"><ele>303.0</ele><time>2026-04-25T16:52:13.755Z</time></trkpt><trkpt lat="33.5621462" lon="9.9707762"><ele>303.0</ele><time>2026-04-25T16:52:14.748Z</time></trkpt><trkpt lat="33.5620705" lon="9.9707734"><ele>303.0</ele><time>2026-04-25T16:52:15.771Z</time></trkpt><trkpt lat="33.5619924" lon="9.9707705"><ele>303.6666666666667</ele><time>2026-04-25T16:52:16.744Z</time></trkpt><trkpt lat="33.5619085" lon="9.9707622"><ele>304.33333333333337</ele><time>2026-04-25T16:52:17.765Z</time></trkpt><trkpt lat="33.5618141" lon="9.9707511"><ele>305.0</ele><time>2026-04-25T16:52:18.775Z</time></trkpt><trkpt lat="33.5615302" lon="9.9707299"><ele>305.0</ele><time>2026-04-25T16:52:21.758Z</time></trkpt><trkpt lat="33.5614407" lon="9.9706998"><ele>305.0</ele><time>2026-04-25T16:52:22.773Z</time></trkpt><trkpt lat="33.5613544" lon="9.9706455"><ele>305.0</ele><time>2026-04-25T16:52:23.76Z</time></trkpt><trkpt lat="33.5612713" lon="9.9705976"><ele>305.0</ele><time>2026-04-25T16:52:24.802Z</time></trkpt><trkpt lat="33.5611916" lon="9.9705646"><ele>305.0</ele><time>2026-04-25T16:52:25.741Z</time></trkpt><trkpt lat="33.5611154" lon="9.9705612"><ele>305.0</ele><time>2026-04-25T16:52:26.742Z</time></trkpt><trkpt lat="33.5610233" lon="9.9705861"><ele>305.8</ele><time>2026-04-25T16:52:27.745Z</time></trkpt><trkpt lat="33.5609218" lon="9.9706321"><ele>306.6</ele><time>2026-04-25T16:52:28.747Z</time></trkpt><trkpt lat="33.5608192" lon="9.97066"><ele>307.4</ele><time>2026-04-25T16:52:29.757Z</time></trkpt><trkpt lat="33.5607263" lon="9.9706501"><ele>308.2</ele><time>2026-04-25T16:52:30.745Z</time></trkpt><trkpt lat="33.5606279" lon="9.9706209"><ele>309.0</ele><time>2026-04-25T16:52:31.781Z</time></trkpt><trkpt lat="33.5605262" lon="9.9705715"><ele>309.0</ele><time>2026-04-25T16:52:32.752Z</time></trkpt><trkpt lat="33.5604205" lon="9.9705162"><ele>309.0</ele><time>2026-04-25T16:52:33.745Z</time></trkpt><trkpt lat="33.5603233" lon="9.9704462"><ele>309.0</ele><time>2026-04-25T16:52:34.764Z</time></trkpt><trkpt lat="33.5602241" lon="9.9703872"><ele>309.0</ele><time>2026-04-25T16:52:35.746Z</time></trkpt><trkpt lat="33.5601204" lon="9.9703353"><ele>310.0</ele><time>2026-04-25T16:52:36.758Z</time></trkpt><trkpt lat="33.5600118" lon="9.970291"><ele>311.0</ele><time>2026-04-25T16:52:37.768Z</time></trkpt><trkpt lat="33.5598956" lon="9.9702493"><ele>312.0</ele><time>2026-04-25T16:52:38.752Z</time></trkpt><trkpt lat="33.5597765" lon="9.97023"><ele>313.0</ele><time>2026-04-25T16:52:39.759Z</time></trkpt><trkpt lat="33.5596509" lon="9.9702297"><ele>313.25</ele><time>2026-04-25T16:52:40.755Z</time></trkpt><trkpt lat="33.5595214" lon="9.9702357"><ele>313.5</ele><time>2026-04-25T16:52:41.757Z</time></trkpt><trkpt lat="33.5594012" lon="9.9702313"><ele>313.75</ele><time>2026-04-25T16:52:42.763Z</time></trkpt><trkpt lat="33.5592792" lon="9.9702329"><ele>314.0</ele><time>2026-04-25T16:52:43.776Z</time></trkpt><trkpt lat="33.5591558" lon="9.9702319"><ele>314.0</ele><time>2026-04-25T16:52:44.772Z</time></trkpt><trkpt lat="33.559042" lon="9.9702288"><ele>314.0</ele><time>2026-04-25T16:52:45.771Z</time></trkpt><trkpt lat="33.5589335" lon="9.9702381"><ele>314.0</ele><time>2026-04-25T16:52:46.754Z</time></trkpt><trkpt lat="33.5588197" lon="9.9702628"><ele>314.0</ele><time>2026-04-25T16:52:47.769Z</time></trkpt><trkpt lat="33.5587137" lon="9.9703067"><ele>315.75</ele><time>2026-04-25T16:52:48.774Z</time></trkpt><trkpt lat="33.5586043" lon="9.9703622"><ele>317.5</ele><time>2026-04-25T16:52:49.764Z</time></trkpt><trkpt lat="33.5584935" lon="9.9704175"><ele>319.25</ele><time>2026-04-25T16:52:50.781Z</time></trkpt><trkpt lat="33.5583839" lon="9.9704359"><ele>321.0</ele><time>2026-04-25T16:52:51.778Z</time></trkpt><trkpt lat="33.5582778" lon="9.9704063"><ele>321.0</ele><time>2026-04-25T16:52:52.792Z</time></trkpt><trkpt lat="33.5581759" lon="9.9703933"><ele>321.0</ele><time>2026-04-25T16:52:53.777Z</time></trkpt><trkpt lat="33.5580692" lon="9.970393"><ele>321.0</ele><time>2026-04-25T16:52:54.763Z</time></trkpt><trkpt lat="33.5579628" lon="9.9704348"><ele>321.0</ele><time>2026-04-25T16:52:55.757Z</time></trkpt><trkpt lat="33.5578659" lon="9.9705112"><ele>321.0</ele><time>2026-04-25T16:52:56.783Z</time></trkpt><trkpt lat="33.5577875" lon="9.9706176"><ele>322.75</ele><time>2026-04-25T16:52:57.781Z</time></trkpt><trkpt lat="33.5577059" lon="9.9707318"><ele>324.5</ele><time>2026-04-25T16:52:58.75Z</time></trkpt><trkpt lat="33.5576323" lon="9.9708324"><ele>326.25</ele><time>2026-04-25T16:52:59.773Z</time></trkpt><trkpt lat="33.5575702" lon="9.97094"><ele>328.0</ele><time>2026-04-25T16:53:00.787Z</time></trkpt><trkpt lat="33.5575108" lon="9.971043"><ele>328.79999999999995</ele><time>2026-04-25T16:53:01.772Z</time></trkpt><trkpt lat="33.557453" lon="9.9711503"><ele>329.6</ele><time>2026-04-25T16:53:02.773Z</time></trkpt><trkpt lat="33.5574052" lon="9.9712595"><ele>330.4</ele><time>2026-04-25T16:53:03.769Z</time></trkpt><trkpt lat="33.5573559" lon="9.9713669"><ele>331.20000000000005</ele><time>2026-04-25T16:53:04.764Z</time></trkpt><trkpt lat="33.5572842" lon="9.9714697"><ele>332.0</ele><time>2026-04-25T16:53:05.786Z</time></trkpt><trkpt lat="33.5572026" lon="9.9715427"><ele>332.0</ele><time>2026-04-25T16:53:06.779Z</time></trkpt><trkpt lat="33.5571004" lon="9.9715934"><ele>332.0</ele><time>2026-04-25T16:53:07.776Z</time></trkpt><trkpt lat="33.5570002" lon="9.9716283"><ele>332.0</ele><time>2026-04-25T16:53:08.778Z</time></trkpt><trkpt lat="33.5568949" lon="9.9716526"><ele>332.0</ele><time>2026-04-25T16:53:09.768Z</time></trkpt><trkpt lat="33.5567802" lon="9.9716351"><ele>332.0</ele><time>2026-04-25T16:53:10.774Z</time></trkpt><trkpt lat="33.5566637" lon="9.9715939"><ele>333.75</ele><time>2026-04-25T16:53:11.776Z</time></trkpt><trkpt lat="33.5565487" lon="9.971556"><ele>335.5</ele><time>2026-04-25T16:53:12.768Z</time></trkpt><trkpt lat="33.5564306" lon="9.9715379"><ele>337.25</ele><time>2026-04-25T16:53:13.783Z</time></trkpt><trkpt lat="33.5563151" lon="9.9715231"><ele>339.0</ele><time>2026-04-25T16:53:14.765Z</time></trkpt><trkpt lat="33.5561964" lon="9.9715109"><ele>339.2</ele><time>2026-04-25T16:53:15.762Z</time></trkpt><trkpt lat="33.5560811" lon="9.9715059"><ele>339.4</ele><time>2026-04-25T16:53:16.779Z</time></trkpt><trkpt lat="33.555967" lon="9.9714902"><ele>339.6</ele><time>2026-04-25T16:53:17.794Z</time></trkpt><trkpt lat="33.5558583" lon="9.9714714"><ele>339.8</ele><time>2026-04-25T16:53:18.774Z</time></trkpt><trkpt lat="33.5557518" lon="9.971447"><ele>340.0</ele><time>2026-04-25T16:53:19.776Z</time></trkpt><trkpt lat="33.5556463" lon="9.9714114"><ele>340.0</ele><time>2026-04-25T16:53:20.768Z</time></trkpt><trkpt lat="33.5555394" lon="9.9713718"><ele>340.0</ele><time>2026-04-25T16:53:21.762Z</time></trkpt><trkpt lat="33.5554388" lon="9.9713354"><ele>340.0</ele><time>2026-04-25T16:53:22.772Z</time></trkpt><trkpt lat="33.5553375" lon="9.9712952"><ele>340.0</ele><time>2026-04-25T16:53:23.769Z</time></trkpt><trkpt lat="33.5552336" lon="9.97125"><ele>340.0</ele><time>2026-04-25T16:53:24.783Z</time></trkpt><trkpt lat="33.5551341" lon="9.9711892"><ele>339.5</ele><time>2026-04-25T16:53:25.791Z</time></trkpt><trkpt lat="33.5550387" lon="9.9711174"><ele>339.0</ele><time>2026-04-25T16:53:26.775Z</time></trkpt><trkpt lat="33.5549422" lon="9.9710413"><ele>338.5</ele><time>2026-04-25T16:53:27.775Z</time></trkpt><trkpt lat="33.5548565" lon="9.9709521"><ele>338.0</ele><time>2026-04-25T16:53:28.784Z</time></trkpt><trkpt lat="33.5547677" lon="9.9708707"><ele>339.5</ele><time>2026-04-25T16:53:29.777Z</time></trkpt><trkpt lat="33.5546676" lon="9.970788"><ele>341.0</ele><time>2026-04-25T16:53:30.757Z</time></trkpt><trkpt lat="33.5545648" lon="9.9707239"><ele>342.5</ele><time>2026-04-25T16:53:31.796Z</time></trkpt><trkpt lat="33.5544586" lon="9.9706705"><ele>344.0</ele><time>2026-04-25T16:53:32.776Z</time></trkpt><trkpt lat="33.5543555" lon="9.9706265"><ele>344.0</ele><time>2026-04-25T16:53:33.763Z</time></trkpt><trkpt lat="33.5542609" lon="9.9705717"><ele>344.0</ele><time>2026-04-25T16:53:34.769Z</time></trkpt><trkpt lat="33.5541619" lon="9.9705112"><ele>344.0</ele><time>2026-04-25T16:53:35.776Z</time></trkpt><trkpt lat="33.5540606" lon="9.9704451"><ele>344.0</ele><time>2026-04-25T16:53:36.768Z</time></trkpt><trkpt lat="33.5539558" lon="9.9703742"><ele>344.0</ele><time>2026-04-25T16:53:37.769Z</time></trkpt><trkpt lat="33.5538477" lon="9.9703036"><ele>344.0</ele><time>2026-04-25T16:53:38.757Z</time></trkpt><trkpt lat="33.5537353" lon="9.970262"><ele>344.0</ele><time>2026-04-25T16:53:39.761Z</time></trkpt><trkpt lat="33.5536206" lon="9.970237"><ele>344.0</ele><time>2026-04-25T16:53:40.764Z</time></trkpt><trkpt lat="33.5535057" lon="9.9702211"><ele>345.0</ele><time>2026-04-25T16:53:41.773Z</time></trkpt><trkpt lat="33.5533877" lon="9.9702147"><ele>346.0</ele><time>2026-04-25T16:53:42.772Z</time></trkpt><trkpt lat="33.5532766" lon="9.9702143"><ele>347.0</ele><time>2026-04-25T16:53:43.775Z</time></trkpt><trkpt lat="33.5531703" lon="9.9702312"><ele>348.0</ele><time>2026-04-25T16:53:44.784Z</time></trkpt><trkpt lat="33.5530694" lon="9.9702577"><ele>349.0</ele><time>2026-04-25T16:53:45.757Z</time></trkpt><trkpt lat="33.5529744" lon="9.9702939"><ele>349.0</ele><time>2026-04-25T16:53:46.761Z</time></trkpt><trkpt lat="33.5528922" lon="9.9703402"><ele>349.0</ele><time>2026-04-25T16:53:47.75Z</time></trkpt><trkpt lat="33.5528183" lon="9.970402"><ele>349.0</ele><time>2026-04-25T16:53:48.754Z</time></trkpt><trkpt lat="33.552767" lon="9.9704995"><ele>349.0</ele><time>2026-04-25T16:53:49.765Z</time></trkpt><trkpt lat="33.5527303" lon="9.9706187"><ele>349.0</ele><time>2026-04-25T16:53:50.775Z</time></trkpt><trkpt lat="33.5527082" lon="9.9707289"><ele>351.16666666666663</ele><time>2026-04-25T16:53:51.776Z</time></trkpt><trkpt lat="33.5526942" lon="9.9708387"><ele>353.3333333333333</ele><time>2026-04-25T16:53:52.789Z</time></trkpt><trkpt lat="33.5526837" lon="9.9709272"><ele>355.5</ele><time>2026-04-25T16:53:53.776Z</time></trkpt><trkpt lat="33.5526752" lon="9.9710048"><ele>357.6666666666667</ele><time>2026-04-25T16:53:54.767Z</time></trkpt><trkpt lat="33.5526542" lon="9.9711356"><ele>359.83333333333337</ele><time>2026-04-25T16:53:56.763Z</time></trkpt><trkpt lat="33.5526245" lon="9.9712276"><ele>362.0</ele><time>2026-04-25T16:53:58.755Z</time></trkpt><trkpt lat="33.5526028" lon="9.9713079"><ele>362.0</ele><time>2026-04-25T16:54:00.775Z</time></trkpt><trkpt lat="33.5526154" lon="9.9713998"><ele>362.0</ele><time>2026-04-25T16:54:02.757Z</time></trkpt><trkpt lat="33.552636" lon="9.9714951"><ele>362.0</ele><time>2026-04-25T16:54:05.763Z</time></trkpt><trkpt lat="33.5527014" lon="9.9714903"><ele>362.0</ele><time>2026-04-25T16:54:12.788Z</time></trkpt><trkpt lat="33.5526386" lon="9.9714089"><ele>362.0</ele><time>2026-04-25T17:13:45.733Z</time></trkpt><trkpt lat="33.5525809" lon="9.9713735"><ele>362.0</ele><time>2026-04-25T17:13:47.744Z</time></trkpt><trkpt lat="33.5525183" lon="9.9713535"><ele>362.0</ele><time>2026-04-25T17:13:48.77Z</time></trkpt><trkpt lat="33.5524556" lon="9.9713254"><ele>362.0</ele><time>2026-04-25T17:13:49.742Z</time></trkpt><trkpt lat="33.5523754" lon="9.9712802"><ele>362.0</ele><time>2026-04-25T17:13:50.767Z</time></trkpt><trkpt lat="33.5523194" lon="9.9711876"><ele>362.0</ele><time>2026-04-25T17:13:51.764Z</time></trkpt><trkpt lat="33.5522732" lon="9.9710879"><ele>362.0</ele><time>2026-04-25T17:13:52.781Z</time></trkpt><trkpt lat="33.5522297" lon="9.9709863"><ele>362.0</ele><time>2026-04-25T17:13:53.791Z</time></trkpt><trkpt lat="33.5521721" lon="9.9708922"><ele>363.33333333333337</ele><time>2026-04-25T17:13:54.749Z</time></trkpt><trkpt lat="33.5521027" lon="9.9708164"><ele>364.6666666666667</ele><time>2026-04-25T17:13:55.75Z</time></trkpt><trkpt lat="33.552027" lon="9.9707718"><ele>366.0</ele><time>2026-04-25T17:13:56.745Z</time></trkpt><trkpt lat="33.5519489" lon="9.9707612"><ele>367.3333333333333</ele><time>2026-04-25T17:13:57.741Z</time></trkpt><trkpt lat="33.5518676" lon="9.9707658"><ele>368.66666666666663</ele><time>2026-04-25T17:13:58.733Z</time></trkpt><trkpt lat="33.551778" lon="9.9707929"><ele>370.0</ele><time>2026-04-25T17:13:59.746Z</time></trkpt><trkpt lat="33.5516927" lon="9.9708195"><ele>371.8</ele><time>2026-04-25T17:14:00.734Z</time></trkpt><trkpt lat="33.5515981" lon="9.9708384"><ele>373.6</ele><time>2026-04-25T17:14:01.764Z</time></trkpt><trkpt lat="33.5515112" lon="9.970843"><ele>375.4</ele><time>2026-04-25T17:14:02.751Z</time></trkpt><trkpt lat="33.5514209" lon="9.9708301"><ele>377.2</ele><time>2026-04-25T17:14:03.764Z</time></trkpt><trkpt lat="33.5513283" lon="9.9707974"><ele>379.0</ele><time>2026-04-25T17:14:04.763Z</time></trkpt><trkpt lat="33.5512078" lon="9.9707512"><ele>379.0</ele><time>2026-04-25T17:14:05.752Z</time></trkpt><trkpt lat="33.5511009" lon="9.9706785"><ele>379.0</ele><time>2026-04-25T17:14:06.747Z</time></trkpt><trkpt lat="33.5509786" lon="9.9705866"><ele>379.0</ele><time>2026-04-25T17:14:07.782Z</time></trkpt><trkpt lat="33.5508469" lon="9.9704996"><ele>379.0</ele><time>2026-04-25T17:14:08.759Z</time></trkpt><trkpt lat="33.5507186" lon="9.9704218"><ele>379.0</ele><time>2026-04-25T17:14:09.746Z</time></trkpt><trkpt lat="33.5505843" lon="9.9703418"><ele>379.0</ele><time>2026-04-25T17:14:10.753Z</time></trkpt><trkpt lat="33.5504532" lon="9.97028"><ele>379.0</ele><time>2026-04-25T17:14:11.756Z</time></trkpt><trkpt lat="33.5503188" lon="9.9702364"><ele>379.0</ele><time>2026-04-25T17:14:12.761Z</time></trkpt><trkpt lat="33.5501917" lon="9.9701903"><ele>378.25</ele><time>2026-04-25T17:14:13.755Z</time></trkpt><trkpt lat="33.5500772" lon="9.9701546"><ele>377.5</ele><time>2026-04-25T17:14:14.753Z</time></trkpt><trkpt lat="33.5499679" lon="9.9700974"><ele>376.75</ele><time>2026-04-25T17:14:15.773Z</time></trkpt><trkpt lat="33.5498729" lon="9.9700237"><ele>376.0</ele><time>2026-04-25T17:14:16.76Z</time></trkpt><trkpt lat="33.5497817" lon="9.9699458"><ele>380.6</ele><time>2026-04-25T17:14:17.765Z</time></trkpt><trkpt lat="33.549697" lon="9.9698669"><ele>385.20000000000005</ele><time>2026-04-25T17:14:18.77Z</time></trkpt><trkpt lat="33.5496108" lon="9.9697833"><ele>389.79999999999995</ele><time>2026-04-25T17:14:19.77Z</time></trkpt><trkpt lat="33.5495276" lon="9.969716"><ele>394.4</ele><time>2026-04-25T17:14:20.752Z</time></trkpt><trkpt lat="33.5494384" lon="9.9696492"><ele>399.0</ele><time>2026-04-25T17:14:21.768Z</time></trkpt><trkpt lat="33.5493549" lon="9.9695864"><ele>399.79999999999995</ele><time>2026-04-25T17:14:22.755Z</time></trkpt><trkpt lat="33.5492798" lon="9.9695266"><ele>400.59999999999997</ele><time>2026-04-25T17:14:23.768Z</time></trkpt><trkpt lat="33.5491906" lon="9.9694679"><ele>401.4</ele><time>2026-04-25T17:14:24.772Z</time></trkpt><trkpt lat="33.5490965" lon="9.9694194"><ele>402.2</ele><time>2026-04-25T17:14:25.767Z</time></trkpt><trkpt lat="33.5489903" lon="9.96938"><ele>403.0</ele><time>2026-04-25T17:14:26.757Z</time></trkpt><trkpt lat="33.54888" lon="9.9693526"><ele>403.0</ele><time>2026-04-25T17:14:27.755Z</time></trkpt><trkpt lat="33.5487663" lon="9.9693367"><ele>403.0</ele><time>2026-04-25T17:14:28.798Z</time></trkpt><trkpt lat="33.5486508" lon="9.969337"><ele>403.0</ele><time>2026-04-25T17:14:29.763Z</time></trkpt><trkpt lat="33.5485345" lon="9.9693501"><ele>403.0</ele><time>2026-04-25T17:14:30.761Z</time></trkpt><trkpt lat="33.5484118" lon="9.9693723"><ele>405.0</ele><time>2026-04-25T17:14:31.76Z</time></trkpt><trkpt lat="33.5482946" lon="9.9693895"><ele>407.0</ele><time>2026-04-25T17:14:32.766Z</time></trkpt><trkpt lat="33.5481767" lon="9.9693995"><ele>409.0</ele><time>2026-04-25T17:14:33.764Z</time></trkpt><trkpt lat="33.5480642" lon="9.9694025"><ele>411.0</ele><time>2026-04-25T17:14:34.759Z</time></trkpt><trkpt lat="33.5479567" lon="9.9693965"><ele>410.8</ele><time>2026-04-25T17:14:35.761Z</time></trkpt><trkpt lat="33.5478491" lon="9.9693816"><ele>410.6</ele><time>2026-04-25T17:14:36.755Z</time></trkpt><trkpt lat="33.5477408" lon="9.9693634"><ele>410.4</ele><time>2026-04-25T17:14:37.759Z</time></trkpt><trkpt lat="33.5476343" lon="9.9693466"><ele>410.2</ele><time>2026-04-25T17:14:38.763Z</time></trkpt><trkpt lat="33.5475313" lon="9.9693266"><ele>410.0</ele><time>2026-04-25T17:14:39.766Z</time></trkpt><trkpt lat="33.5474246" lon="9.9693044"><ele>410.0</ele><time>2026-04-25T17:14:40.767Z</time></trkpt><trkpt lat="33.5473109" lon="9.9692799"><ele>410.0</ele><time>2026-04-25T17:14:41.761Z</time></trkpt><trkpt lat="33.5472076" lon="9.9692502"><ele>410.0</ele><time>2026-04-25T17:14:42.764Z</time></trkpt><trkpt lat="33.5471086" lon="9.9692045"><ele>410.0</ele><time>2026-04-25T17:14:43.751Z</time></trkpt><trkpt lat="33.5470226" lon="9.9691423"><ele>410.0</ele><time>2026-04-25T17:14:44.768Z</time></trkpt><trkpt lat="33.5469407" lon="9.9690669"><ele>405.5</ele><time>2026-04-25T17:14:45.755Z</time></trkpt><trkpt lat="33.5468598" lon="9.9689748"><ele>401.0</ele><time>2026-04-25T17:14:46.774Z</time></trkpt><trkpt lat="33.5467917" lon="9.9688652"><ele>396.5</ele><time>2026-04-25T17:14:47.771Z</time></trkpt><trkpt lat="33.5467169" lon="9.9687433"><ele>392.0</ele><time>2026-04-25T17:14:48.766Z</time></trkpt><trkpt lat="33.5466283" lon="9.9686143"><ele>392.0</ele><time>2026-04-25T17:14:49.782Z</time></trkpt><trkpt lat="33.5465451" lon="9.9684632"><ele>392.0</ele><time>2026-04-25T17:14:50.781Z</time></trkpt><trkpt lat="33.5464598" lon="9.968319"><ele>392.0</ele><time>2026-04-25T17:14:51.773Z</time></trkpt><trkpt lat="33.5463757" lon="9.968171"><ele>392.0</ele><time>2026-04-25T17:14:52.754Z</time></trkpt><trkpt lat="33.5462874" lon="9.9680389"><ele>389.0</ele><time>2026-04-25T17:14:53.771Z</time></trkpt><trkpt lat="33.5462064" lon="9.9679258"><ele>386.0</ele><time>2026-04-25T17:14:54.764Z</time></trkpt><trkpt lat="33.5461301" lon="9.9678126"><ele>383.0</ele><time>2026-04-25T17:14:55.764Z</time></trkpt><trkpt lat="33.5460478" lon="9.9677192"><ele>380.0</ele><time>2026-04-25T17:14:56.777Z</time></trkpt><trkpt lat="33.5459562" lon="9.9676453"><ele>380.0</ele><time>2026-04-25T17:14:57.748Z</time></trkpt><trkpt lat="33.545852" lon="9.9675872"><ele>380.0</ele><time>2026-04-25T17:14:58.764Z</time></trkpt><trkpt lat="33.5457539" lon="9.9675473"><ele>380.0</ele><time>2026-04-25T17:14:59.761Z</time></trkpt><trkpt lat="33.5456544" lon="9.9675163"><ele>380.0</ele><time>2026-04-25T17:15:00.758Z</time></trkpt><trkpt lat="33.5455688" lon="9.9674974"><ele>380.0</ele><time>2026-04-25T17:15:01.778Z</time></trkpt><trkpt lat="33.5454929" lon="9.9674879"><ele>379.1666666666667</ele><time>2026-04-25T17:15:02.764Z</time></trkpt><trkpt lat="33.5453749" lon="9.9675246"><ele>378.33333333333337</ele><time>2026-04-25T17:15:04.784Z</time></trkpt><trkpt lat="33.5453169" lon="9.9675629"><ele>377.5</ele><time>2026-04-25T17:15:05.762Z</time></trkpt><trkpt lat="33.5452563" lon="9.9676089"><ele>376.6666666666667</ele><time>2026-04-25T17:15:06.761Z</time></trkpt><trkpt lat="33.5451948" lon="9.9676521"><ele>375.8333333333333</ele><time>2026-04-25T17:15:07.777Z</time></trkpt><trkpt lat="33.5451349" lon="9.967705"><ele>375.0</ele><time>2026-04-25T17:15:08.77Z</time></trkpt><trkpt lat="33.5450756" lon="9.9677665"><ele>375.0</ele><time>2026-04-25T17:15:09.761Z</time></trkpt><trkpt lat="33.5450149" lon="9.9678307"><ele>375.0</ele><time>2026-04-25T17:15:10.778Z</time></trkpt><trkpt lat="33.5449483" lon="9.967892"><ele>375.0</ele><time>2026-04-25T17:15:11.779Z</time></trkpt><trkpt lat="33.544877" lon="9.967952"><ele>375.0</ele><time>2026-04-25T17:15:12.768Z</time></trkpt><trkpt lat="33.5448095" lon="9.9680124"><ele>375.0</ele><time>2026-04-25T17:15:13.759Z</time></trkpt><trkpt lat="33.5447531" lon="9.9680683"><ele>375.0</ele><time>2026-04-25T17:15:14.754Z</time></trkpt><trkpt lat="33.5447028" lon="9.9681142"><ele>375.0</ele><time>2026-04-25T17:15:15.767Z</time></trkpt><trkpt lat="33.5446107" lon="9.9681957"><ele>375.0</ele><time>2026-04-25T17:15:17.785Z</time></trkpt><trkpt lat="33.5445436" lon="9.9682551"><ele>375.0</ele><time>2026-04-25T17:15:18.763Z</time></trkpt><trkpt lat="33.5444787" lon="9.9683179"><ele>375.0</ele><time>2026-04-25T17:15:19.754Z</time></trkpt><trkpt lat="33.5444095" lon="9.968383"><ele>375.0</ele><time>2026-04-25T17:15:20.776Z</time></trkpt><trkpt lat="33.5443468" lon="9.9684467"><ele>375.0</ele><time>2026-04-25T17:15:21.781Z</time></trkpt><trkpt lat="33.5442907" lon="9.9685227"><ele>375.0</ele><time>2026-04-25T17:15:22.775Z</time></trkpt><trkpt lat="33.5442417" lon="9.9686004"><ele>375.0</ele><time>2026-04-25T17:15:23.777Z</time></trkpt><trkpt lat="33.5442023" lon="9.9686844"><ele>375.0</ele><time>2026-04-25T17:15:24.777Z</time></trkpt><trkpt lat="33.5441677" lon="9.9687719"><ele>375.0</ele><time>2026-04-25T17:15:25.779Z</time></trkpt><trkpt lat="33.5441274" lon="9.9688621"><ele>375.0</ele><time>2026-04-25T17:15:26.766Z</time></trkpt><trkpt lat="33.5440845" lon="9.9689576"><ele>375.0</ele><time>2026-04-25T17:15:27.773Z</time></trkpt><trkpt lat="33.5440406" lon="9.9690584"><ele>375.0</ele><time>2026-04-25T17:15:28.775Z</time></trkpt><trkpt lat="33.5439849" lon="9.9691651"><ele>375.0</ele><time>2026-04-25T17:15:29.778Z</time></trkpt><trkpt lat="33.5439237" lon="9.9692658"><ele>375.0</ele><time>2026-04-25T17:15:30.769Z</time></trkpt><trkpt lat="33.5438572" lon="9.9693623"><ele>375.0</ele><time>2026-04-25T17:15:31.759Z</time></trkpt><trkpt lat="33.5437768" lon="9.9694433"><ele>374.2</ele><time>2026-04-25T17:15:32.77Z</time></trkpt><trkpt lat="33.5436945" lon="9.9695272"><ele>373.4</ele><time>2026-04-25T17:15:33.765Z</time></trkpt><trkpt lat="33.5436101" lon="9.9696135"><ele>372.6</ele><time>2026-04-25T17:15:34.769Z</time></trkpt><trkpt lat="33.5435286" lon="9.9697039"><ele>371.8</ele><time>2026-04-25T17:15:35.769Z</time></trkpt><trkpt lat="33.5434451" lon="9.9697995"><ele>371.0</ele><time>2026-04-25T17:15:36.779Z</time></trkpt><trkpt lat="33.5433624" lon="9.9699118"><ele>371.5</ele><time>2026-04-25T17:15:37.78Z</time></trkpt><trkpt lat="33.5432731" lon="9.9700349"><ele>372.0</ele><time>2026-04-25T17:15:38.767Z</time></trkpt><trkpt lat="33.543169" lon="9.9701542"><ele>372.5</ele><time>2026-04-25T17:15:39.769Z</time></trkpt><trkpt lat="33.5430646" lon="9.9702569"><ele>373.0</ele><time>2026-04-25T17:15:40.754Z</time></trkpt><trkpt lat="33.5429641" lon="9.9703609"><ele>371.75</ele><time>2026-04-25T17:15:41.768Z</time></trkpt><trkpt lat="33.5428696" lon="9.9704665"><ele>370.5</ele><time>2026-04-25T17:15:42.781Z</time></trkpt><trkpt lat="33.542781" lon="9.9705718"><ele>369.25</ele><time>2026-04-25T17:15:43.763Z</time></trkpt><trkpt lat="33.5427023" lon="9.9706782"><ele>368.0</ele><time>2026-04-25T17:15:44.767Z</time></trkpt><trkpt lat="33.5426262" lon="9.9707919"><ele>369.0</ele><time>2026-04-25T17:15:45.763Z</time></trkpt><trkpt lat="33.5425564" lon="9.9709108"><ele>370.0</ele><time>2026-04-25T17:15:46.753Z</time></trkpt><trkpt lat="33.542493" lon="9.9710297"><ele>371.0</ele><time>2026-04-25T17:15:47.765Z</time></trkpt><trkpt lat="33.5424288" lon="9.9711318"><ele>372.0</ele><time>2026-04-25T17:15:48.772Z</time></trkpt><trkpt lat="33.5423718" lon="9.971222"><ele>373.0</ele><time>2026-04-25T17:15:49.766Z</time></trkpt><trkpt lat="33.5423267" lon="9.9713087"><ele>373.0</ele><time>2026-04-25T17:15:50.756Z</time></trkpt><trkpt lat="33.5422782" lon="9.9714067"><ele>373.0</ele><time>2026-04-25T17:15:51.761Z</time></trkpt><trkpt lat="33.5422348" lon="9.9715032"><ele>373.0</ele><time>2026-04-25T17:15:52.761Z</time></trkpt><trkpt lat="33.5422042" lon="9.9716195"><ele>373.0</ele><time>2026-04-25T17:15:53.772Z</time></trkpt><trkpt lat="33.5421914" lon="9.9717472"><ele>373.0</ele><time>2026-04-25T17:15:54.762Z</time></trkpt><trkpt lat="33.542186" lon="9.9718846"><ele>373.75</ele><time>2026-04-25T17:15:55.784Z</time></trkpt><trkpt lat="33.5421813" lon="9.9720265"><ele>374.5</ele><time>2026-04-25T17:15:56.779Z</time></trkpt><trkpt lat="33.5421775" lon="9.9721715"><ele>375.25</ele><time>2026-04-25T17:15:57.773Z</time></trkpt><trkpt lat="33.5421709" lon="9.9723017"><ele>376.0</ele><time>2026-04-25T17:15:58.762Z</time></trkpt><trkpt lat="33.5421608" lon="9.9724359"><ele>376.75</ele><time>2026-04-25T17:15:59.781Z</time></trkpt><trkpt lat="33.5421488" lon="9.9725761"><ele>377.5</ele><time>2026-04-25T17:16:00.773Z</time></trkpt><trkpt lat="33.5421389" lon="9.9727259"><ele>378.25</ele><time>2026-04-25T17:16:01.769Z</time></trkpt><trkpt lat="33.5421357" lon="9.9728808"><ele>379.0</ele><time>2026-04-25T17:16:02.771Z</time></trkpt><trkpt lat="33.5421344" lon="9.9730348"><ele>379.0</ele><time>2026-04-25T17:16:03.768Z</time></trkpt><trkpt lat="33.5421367" lon="9.9731902"><ele>379.0</ele><time>2026-04-25T17:16:04.767Z</time></trkpt><trkpt lat="33.5421453" lon="9.9733481"><ele>379.0</ele><time>2026-04-25T17:16:05.787Z</time></trkpt><trkpt lat="33.5421561" lon="9.9735087"><ele>379.0</ele><time>2026-04-25T17:16:06.78Z</time></trkpt><trkpt lat="33.5421749" lon="9.9736666"><ele>379.0</ele><time>2026-04-25T17:16:07.751Z</time></trkpt><trkpt lat="33.5421909" lon="9.9738171"><ele>379.0</ele><time>2026-04-25T17:16:08.768Z</time></trkpt><trkpt lat="33.5422072" lon="9.9739663"><ele>379.0</ele><time>2026-04-25T17:16:09.769Z</time></trkpt><trkpt lat="33.542213" lon="9.9741274"><ele>379.0</ele><time>2026-04-25T17:16:10.771Z</time></trkpt><trkpt lat="33.5422106" lon="9.9742887"><ele>379.5</ele><time>2026-04-25T17:16:11.762Z</time></trkpt><trkpt lat="33.5422" lon="9.9744457"><ele>380.0</ele><time>2026-04-25T17:16:12.796Z</time></trkpt><trkpt lat="33.5421834" lon="9.9745989"><ele>380.5</ele><time>2026-04-25T17:16:13.767Z</time></trkpt><trkpt lat="33.5421581" lon="9.9747516"><ele>381.0</ele><time>2026-04-25T17:16:14.777Z</time></trkpt><trkpt lat="33.5421256" lon="9.9749101"><ele>382.5</ele><time>2026-04-25T17:16:15.769Z</time></trkpt><trkpt lat="33.5420969" lon="9.9750636"><ele>384.0</ele><time>2026-04-25T17:16:16.762Z</time></trkpt><trkpt lat="33.5420709" lon="9.9752152"><ele>385.5</ele><time>2026-04-25T17:16:17.771Z</time></trkpt><trkpt lat="33.5420467" lon="9.975373"><ele>387.0</ele><time>2026-04-25T17:16:18.77Z</time></trkpt><trkpt lat="33.5420302" lon="9.9755267"><ele>387.0</ele><time>2026-04-25T17:16:19.768Z</time></trkpt><trkpt lat="33.5420227" lon="9.9756612"><ele>387.0</ele><time>2026-04-25T17:16:20.767Z</time></trkpt><trkpt lat="33.5420351" lon="9.9757785"><ele>387.0</ele><time>2026-04-25T17:16:21.776Z</time></trkpt><trkpt lat="33.5420445" lon="9.9758682"><ele>387.0</ele><time>2026-04-25T17:16:22.771Z</time></trkpt><trkpt lat="33.5420567" lon="9.9759509"><ele>387.0</ele><time>2026-04-25T17:16:23.765Z</time></trkpt><trkpt lat="33.5420841" lon="9.9760674"><ele>398.0</ele><time>2026-04-25T17:16:25.753Z</time></trkpt><trkpt lat="33.5420626" lon="9.976165"><ele>398.0</ele><time>2026-04-25T17:16:28.77Z</time></trkpt><trkpt lat="33.5420163" lon="9.9762292"><ele>389.0</ele><time>2026-04-25T17:16:31.771Z</time></trkpt><trkpt lat="33.5420134" lon="9.9763288"><ele>389.0</ele><time>2026-04-25T17:16:35.751Z</time></trkpt><trkpt lat="33.5420168" lon="9.9764116"><ele>389.0</ele><time>2026-04-25T17:16:40.77Z</time></trkpt></trkseg><trkseg><trkpt lat="33.5420134" lon="9.9762992"><ele>389.0</ele><time>2026-04-25T18:00:10.759Z</time></trkpt><trkpt lat="33.5420306" lon="9.9762218"><ele>389.0</ele><time>2026-04-25T18:00:13.767Z</time></trkpt><trkpt lat="33.5420773" lon="9.9761692"><ele>389.0</ele><time>2026-04-25T18:00:17.722Z</time></trkpt><trkpt lat="33.542116" lon="9.9760838"><ele>389.0</ele><time>2026-04-25T18:00:21.72Z</time></trkpt><trkpt lat="33.5420885" lon="9.9759812"><ele>389.0</ele><time>2026-04-25T18:00:25.708Z</time></trkpt><trkpt lat="33.5420576" lon="9.9754279"><ele>389.0</ele><time>2026-04-25T18:00:32.743Z</time></trkpt><trkpt lat="33.5421133" lon="9.9751302"><ele>389.0</ele><time>2026-04-25T18:00:35.714Z</time></trkpt><trkpt lat="33.5421435" lon="9.9750241"><ele>389.0</ele><time>2026-04-25T18:00:36.746Z</time></trkpt><trkpt lat="33.5421713" lon="9.9749108"><ele>389.0</ele><time>2026-04-25T18:00:37.718Z</time></trkpt><trkpt lat="33.5421894" lon="9.9747992"><ele>387.4</ele><time>2026-04-25T18:00:38.731Z</time></trkpt><trkpt lat="33.5422055" lon="9.9746804"><ele>385.79999999999995</ele><time>2026-04-25T18:00:39.739Z</time></trkpt><trkpt lat="33.5422197" lon="9.9745699"><ele>384.20000000000005</ele><time>2026-04-25T18:00:40.742Z</time></trkpt><trkpt lat="33.5422278" lon="9.9744566"><ele>382.6</ele><time>2026-04-25T18:00:41.768Z</time></trkpt><trkpt lat="33.5422347" lon="9.9743457"><ele>381.0</ele><time>2026-04-25T18:00:42.721Z</time></trkpt><trkpt lat="33.5422331" lon="9.9742359"><ele>380.6</ele><time>2026-04-25T18:00:43.759Z</time></trkpt><trkpt lat="33.5422305" lon="9.9741147"><ele>380.20000000000005</ele><time>2026-04-25T18:00:44.761Z</time></trkpt><trkpt lat="33.5422242" lon="9.9739907"><ele>379.79999999999995</ele><time>2026-04-25T18:00:45.767Z</time></trkpt><trkpt lat="33.5422152" lon="9.9738662"><ele>379.4</ele><time>2026-04-25T18:00:46.727Z</time></trkpt><trkpt lat="33.5422053" lon="9.973743"><ele>379.0</ele><time>2026-04-25T18:00:47.755Z</time></trkpt><trkpt lat="33.5421931" lon="9.973623"><ele>379.0</ele><time>2026-04-25T18:00:48.731Z</time></trkpt><trkpt lat="33.5421818" lon="9.9735021"><ele>379.0</ele><time>2026-04-25T18:00:49.723Z</time></trkpt><trkpt lat="33.5421751" lon="9.9733803"><ele>379.0</ele><time>2026-04-25T18:00:50.705Z</time></trkpt><trkpt lat="33.5421732" lon="9.9729007"><ele>379.0</ele><time>2026-04-25T18:00:54.716Z</time></trkpt><trkpt lat="33.5421762" lon="9.9727709"><ele>379.0</ele><time>2026-04-25T18:00:55.72Z</time></trkpt><trkpt lat="33.5421785" lon="9.9726534"><ele>379.0</ele><time>2026-04-25T18:00:56.725Z</time></trkpt><trkpt lat="33.5421871" lon="9.9725341"><ele>379.0</ele><time>2026-04-25T18:00:57.73Z</time></trkpt><trkpt lat="33.5421928" lon="9.9724179"><ele>379.0</ele><time>2026-04-25T18:00:58.722Z</time></trkpt><trkpt lat="33.5421989" lon="9.972303"><ele>378.4</ele><time>2026-04-25T18:00:59.71Z</time></trkpt><trkpt lat="33.5421995" lon="9.9721882"><ele>377.79999999999995</ele><time>2026-04-25T18:01:00.727Z</time></trkpt><trkpt lat="33.5422014" lon="9.9720653"><ele>377.20000000000005</ele><time>2026-04-25T18:01:01.758Z</time></trkpt><trkpt lat="33.5422062" lon="9.9719486"><ele>376.6</ele><time>2026-04-25T18:01:02.748Z</time></trkpt><trkpt lat="33.5422168" lon="9.971838"><ele>376.0</ele><time>2026-04-25T18:01:03.765Z</time></trkpt><trkpt lat="33.5422245" lon="9.9717357"><ele>375.4</ele><time>2026-04-25T18:01:04.771Z</time></trkpt><trkpt lat="33.542233" lon="9.9716363"><ele>374.8</ele><time>2026-04-25T18:01:05.774Z</time></trkpt><trkpt lat="33.5422515" lon="9.9715333"><ele>374.2</ele><time>2026-04-25T18:01:06.772Z</time></trkpt><trkpt lat="33.5422904" lon="9.9714299"><ele>373.59999999999997</ele><time>2026-04-25T18:01:07.766Z</time></trkpt><trkpt lat="33.5423446" lon="9.9713217"><ele>373.0</ele><time>2026-04-25T18:01:08.762Z</time></trkpt><trkpt lat="33.5424047" lon="9.9712253"><ele>373.0</ele><time>2026-04-25T18:01:09.77Z</time></trkpt><trkpt lat="33.5424596" lon="9.9711231"><ele>373.0</ele><time>2026-04-25T18:01:10.762Z</time></trkpt><trkpt lat="33.5425112" lon="9.9710305"><ele>373.0</ele><time>2026-04-25T18:01:11.749Z</time></trkpt><trkpt lat="33.542567" lon="9.9709445"><ele>373.0</ele><time>2026-04-25T18:01:12.724Z</time></trkpt><trkpt lat="33.5426141" lon="9.9708677"><ele>373.0</ele><time>2026-04-25T18:01:13.742Z</time></trkpt><trkpt lat="33.5426573" lon="9.9707997"><ele>373.0</ele><time>2026-04-25T18:01:14.746Z</time></trkpt><trkpt lat="33.5427023" lon="9.9707358"><ele>372.16666666666663</ele><time>2026-04-25T18:01:15.729Z</time></trkpt><trkpt lat="33.5427383" lon="9.9706732"><ele>371.3333333333333</ele><time>2026-04-25T18:01:16.721Z</time></trkpt><trkpt lat="33.5427538" lon="9.9705294"><ele>370.5</ele><time>2026-04-25T18:01:18.713Z</time></trkpt><trkpt lat="33.542735" lon="9.9704468"><ele>369.6666666666667</ele><time>2026-04-25T18:01:19.716Z</time></trkpt><trkpt lat="33.5427174" lon="9.9703531"><ele>368.83333333333337</ele><time>2026-04-25T18:01:20.728Z</time></trkpt><trkpt lat="33.5427003" lon="9.9702629"><ele>368.0</ele><time>2026-04-25T18:01:21.72Z</time></trkpt><trkpt lat="33.5426843" lon="9.9701675"><ele>368.0</ele><time>2026-04-25T18:01:22.717Z</time></trkpt><trkpt lat="33.5426741" lon="9.9700713"><ele>368.0</ele><time>2026-04-25T18:01:23.728Z</time></trkpt><trkpt lat="33.5426802" lon="9.9699655"><ele>368.0</ele><time>2026-04-25T18:01:24.727Z</time></trkpt><trkpt lat="33.5427157" lon="9.9698607"><ele>368.0</ele><time>2026-04-25T18:01:25.713Z</time></trkpt><trkpt lat="33.5427607" lon="9.9697523"><ele>368.0</ele><time>2026-04-25T18:01:26.726Z</time></trkpt><trkpt lat="33.5428172" lon="9.9696504"><ele>368.2</ele><time>2026-04-25T18:01:27.716Z</time></trkpt><trkpt lat="33.5428764" lon="9.9695476"><ele>368.4</ele><time>2026-04-25T18:01:28.722Z</time></trkpt><trkpt lat="33.5429366" lon="9.9694477"><ele>368.59999999999997</ele><time>2026-04-25T18:01:29.736Z</time></trkpt><trkpt lat="33.5429808" lon="9.9693445"><ele>368.79999999999995</ele><time>2026-04-25T18:01:30.728Z</time></trkpt><trkpt lat="33.5430154" lon="9.9692357"><ele>369.0</ele><time>2026-04-25T18:01:31.727Z</time></trkpt><trkpt lat="33.54303" lon="9.9691163"><ele>368.6</ele><time>2026-04-25T18:01:32.727Z</time></trkpt><trkpt lat="33.5430386" lon="9.9689902"><ele>368.2</ele><time>2026-04-25T18:01:33.73Z</time></trkpt><trkpt lat="33.543044" lon="9.9688549"><ele>367.8</ele><time>2026-04-25T18:01:34.729Z</time></trkpt><trkpt lat="33.5430548" lon="9.9687243"><ele>367.40000000000003</ele><time>2026-04-25T18:01:35.725Z</time></trkpt><trkpt lat="33.5430662" lon="9.9685918"><ele>367.0</ele><time>2026-04-25T18:01:36.723Z</time></trkpt><trkpt lat="33.5430774" lon="9.9684575"><ele>366.5</ele><time>2026-04-25T18:01:37.724Z</time></trkpt><trkpt lat="33.5430849" lon="9.968315"><ele>366.0</ele><time>2026-04-25T18:01:38.736Z</time></trkpt><trkpt lat="33.5430851" lon="9.968161"><ele>365.5</ele><time>2026-04-25T18:01:39.751Z</time></trkpt><trkpt lat="33.5430799" lon="9.9680131"><ele>365.0</ele><time>2026-04-25T18:01:40.731Z</time></trkpt><trkpt lat="33.5430675" lon="9.9678717"><ele>365.0</ele><time>2026-04-25T18:01:41.718Z</time></trkpt><trkpt lat="33.543053" lon="9.9677453"><ele>365.0</ele><time>2026-04-25T18:01:42.73Z</time></trkpt><trkpt lat="33.5430395" lon="9.9676343"><ele>365.0</ele><time>2026-04-25T18:01:43.74Z</time></trkpt><trkpt lat="33.5430364" lon="9.9675308"><ele>365.0</ele><time>2026-04-25T18:01:44.734Z</time></trkpt><trkpt lat="33.5430234" lon="9.9674423"><ele>365.0</ele><time>2026-04-25T18:01:45.72Z</time></trkpt><trkpt lat="33.5430081" lon="9.9673243"><ele>364.7142857142857</ele><time>2026-04-25T18:01:47.726Z</time></trkpt><trkpt lat="33.5429757" lon="9.9672534"><ele>364.42857142857144</ele><time>2026-04-25T18:01:49.719Z</time></trkpt><trkpt lat="33.5429136" lon="9.9672262"><ele>364.1428571428571</ele><time>2026-04-25T18:01:52.76Z</time></trkpt><trkpt lat="33.5428465" lon="9.9672447"><ele>363.8571428571429</ele><time>2026-04-25T18:01:56.717Z</time></trkpt><trkpt lat="33.5428524" lon="9.9673259"><ele>363.57142857142856</ele><time>2026-04-25T18:01:59.732Z</time></trkpt><trkpt lat="33.5429271" lon="9.9673314"><ele>363.2857142857143</ele><time>2026-04-25T18:02:02.752Z</time></trkpt><trkpt lat="33.5429519" lon="9.9672553"><ele>363.0</ele><time>2026-04-25T18:02:05.745Z</time></trkpt><trkpt lat="33.5428892" lon="9.967205"><ele>363.0</ele><time>2026-04-25T18:02:08.724Z</time></trkpt><trkpt lat="33.542831" lon="9.9671689"><ele>368.0</ele><time>2026-04-25T18:02:12.724Z</time></trkpt><trkpt lat="33.5428356" lon="9.9672495"><ele>368.0</ele><time>2026-04-25T18:03:58.72Z</time></trkpt><trkpt lat="33.5428436" lon="9.9673301"><ele>368.0</ele><time>2026-04-25T18:04:04.705Z</time></trkpt><trkpt lat="33.5428191" lon="9.9674183"><ele>368.0</ele><time>2026-04-25T18:04:12.721Z</time></trkpt><trkpt lat="33.542785" lon="9.9675065"><ele>368.0</ele><time>2026-04-25T18:04:21.749Z</time></trkpt></trkseg></trk></gpx>